<?xml version="1.0" encoding="UTF-8" standalone="no" ?>
<gpx xmlns="http://www.topografix.com/GPX/1/1" xmlns:xsi="http://www.w3.org/2001/XMLSchema-instance" xsi:schemaLocation="http://www.topografix.com/GPX/1/1 http://www.topografix.com/GPX/1/1/gpx.xsd" version="1.1" creator="VisuGPX - https://www.visugpx.com">
  <metadata>
    <name>Balade bois de Clamart et meudon 2h30 200mD+</name>
  </metadata>
  <trk>
    <name><![CDATA[Marche dans l'après-midi_1]]></name>
    <extensions>
      <line xmlns="http://www.topografix.com/GPX/gpx_style/0/2">
        <color>0000FF</color>
        <width>4</width>
          <extensions>
            <sens>1</sens>
          </extensions>
      </line>
    </extensions>
    <trkseg>
      <trkpt lat="48.80343" lon="2.25596">
        <ele>128.1</ele>
        <time>2024-05-26T09:43:46Z</time>
      </trkpt>
      <trkpt lat="48.80338" lon="2.25588">
        <ele>128</ele>
      </trkpt>
      <trkpt lat="48.80334" lon="2.25582">
        <ele>128</ele>
      </trkpt>
      <trkpt lat="48.8032" lon="2.25586">
        <ele>129.5</ele>
      </trkpt>
      <trkpt lat="48.80307" lon="2.25594">
        <ele>130.8</ele>
      </trkpt>
      <trkpt lat="48.80303" lon="2.25598">
        <ele>131.3</ele>
      </trkpt>
      <trkpt lat="48.80293" lon="2.25601">
        <ele>132.4</ele>
      </trkpt>
      <trkpt lat="48.80288" lon="2.25598">
        <ele>132.9</ele>
      </trkpt>
      <trkpt lat="48.80276" lon="2.25591">
        <ele>134.1</ele>
      </trkpt>
      <trkpt lat="48.80262" lon="2.25581">
        <ele>135.3</ele>
      </trkpt>
      <trkpt lat="48.80251" lon="2.25571">
        <ele>137.1</ele>
      </trkpt>
      <trkpt lat="48.80249" lon="2.25559">
        <ele>138.7</ele>
      </trkpt>
      <trkpt lat="48.80245" lon="2.2555">
        <ele>140.1</ele>
      </trkpt>
      <trkpt lat="48.8024" lon="2.25547">
        <ele>140.9</ele>
      </trkpt>
      <trkpt lat="48.80237" lon="2.25544">
        <ele>143.6</ele>
        <time>2024-05-26T09:43:51Z</time>
      </trkpt>
      <trkpt lat="48.80237" lon="2.25541">
        <ele>143.7</ele>
        <time>2024-05-26T09:43:52Z</time>
      </trkpt>
      <trkpt lat="48.80236" lon="2.25538">
        <ele>143.9</ele>
        <time>2024-05-26T09:43:53Z</time>
      </trkpt>
      <trkpt lat="48.80235" lon="2.25537">
        <ele>144.1</ele>
        <time>2024-05-26T09:43:54Z</time>
      </trkpt>
      <trkpt lat="48.80234" lon="2.25535">
        <ele>144.2</ele>
        <time>2024-05-26T09:43:55Z</time>
      </trkpt>
      <trkpt lat="48.80233" lon="2.25534">
        <ele>144.3</ele>
        <time>2024-05-26T09:43:56Z</time>
      </trkpt>
      <trkpt lat="48.80232" lon="2.25533">
        <ele>144.4</ele>
        <time>2024-05-26T09:43:57Z</time>
      </trkpt>
      <trkpt lat="48.80231" lon="2.25533">
        <ele>144.5</ele>
        <time>2024-05-26T09:43:58Z</time>
      </trkpt>
      <trkpt lat="48.80231" lon="2.25533">
        <ele>144.6</ele>
        <time>2024-05-26T09:43:59Z</time>
      </trkpt>
      <trkpt lat="48.80231" lon="2.25533">
        <ele>144.6</ele>
        <time>2024-05-26T09:44:00Z</time>
      </trkpt>
      <trkpt lat="48.80231" lon="2.25533">
        <ele>144.7</ele>
        <time>2024-05-26T09:44:01Z</time>
      </trkpt>
      <trkpt lat="48.8023" lon="2.25533">
        <ele>144.7</ele>
        <time>2024-05-26T09:44:02Z</time>
      </trkpt>
      <trkpt lat="48.80229" lon="2.25532">
        <ele>144.8</ele>
        <time>2024-05-26T09:44:03Z</time>
      </trkpt>
      <trkpt lat="48.80229" lon="2.25532">
        <ele>144.9</ele>
        <time>2024-05-26T09:44:04Z</time>
      </trkpt>
      <trkpt lat="48.80227" lon="2.25531">
        <ele>145</ele>
        <time>2024-05-26T09:44:05Z</time>
      </trkpt>
      <trkpt lat="48.80227" lon="2.25531">
        <ele>145.1</ele>
        <time>2024-05-26T09:44:06Z</time>
      </trkpt>
      <trkpt lat="48.80226" lon="2.2553">
        <ele>145.2</ele>
        <time>2024-05-26T09:44:07Z</time>
      </trkpt>
      <trkpt lat="48.80225" lon="2.25529">
        <ele>145.3</ele>
        <time>2024-05-26T09:44:08Z</time>
      </trkpt>
      <trkpt lat="48.80225" lon="2.25528">
        <ele>145.3</ele>
        <time>2024-05-26T09:44:09Z</time>
      </trkpt>
      <trkpt lat="48.80224" lon="2.25527">
        <ele>145.5</ele>
        <time>2024-05-26T09:44:10Z</time>
      </trkpt>
      <trkpt lat="48.80222" lon="2.25526">
        <ele>145.7</ele>
        <time>2024-05-26T09:44:11Z</time>
      </trkpt>
      <trkpt lat="48.80221" lon="2.25526">
        <ele>145.8</ele>
        <time>2024-05-26T09:44:12Z</time>
      </trkpt>
      <trkpt lat="48.8022" lon="2.25526">
        <ele>145.8</ele>
        <time>2024-05-26T09:44:13Z</time>
      </trkpt>
      <trkpt lat="48.80218" lon="2.25526">
        <ele>146</ele>
        <time>2024-05-26T09:44:14Z</time>
      </trkpt>
      <trkpt lat="48.80218" lon="2.25526">
        <ele>146.1</ele>
        <time>2024-05-26T09:44:15Z</time>
      </trkpt>
      <trkpt lat="48.80217" lon="2.25525">
        <ele>146.1</ele>
        <time>2024-05-26T09:44:16Z</time>
      </trkpt>
      <trkpt lat="48.80216" lon="2.25524">
        <ele>146.2</ele>
        <time>2024-05-26T09:44:17Z</time>
      </trkpt>
      <trkpt lat="48.80215" lon="2.25524">
        <ele>146.3</ele>
        <time>2024-05-26T09:44:18Z</time>
      </trkpt>
      <trkpt lat="48.80214" lon="2.25523">
        <ele>146.4</ele>
        <time>2024-05-26T09:44:19Z</time>
      </trkpt>
      <trkpt lat="48.80213" lon="2.25523">
        <ele>146.5</ele>
        <time>2024-05-26T09:44:20Z</time>
      </trkpt>
      <trkpt lat="48.80212" lon="2.25522">
        <ele>146.6</ele>
        <time>2024-05-26T09:44:21Z</time>
      </trkpt>
      <trkpt lat="48.80211" lon="2.2552">
        <ele>146.7</ele>
        <time>2024-05-26T09:44:22Z</time>
      </trkpt>
      <trkpt lat="48.8021" lon="2.2552">
        <ele>146.8</ele>
        <time>2024-05-26T09:44:23Z</time>
      </trkpt>
      <trkpt lat="48.80209" lon="2.25519">
        <ele>146.9</ele>
        <time>2024-05-26T09:44:24Z</time>
      </trkpt>
      <trkpt lat="48.80208" lon="2.25518">
        <ele>147</ele>
        <time>2024-05-26T09:44:25Z</time>
      </trkpt>
      <trkpt lat="48.80207" lon="2.25517">
        <ele>147.1</ele>
        <time>2024-05-26T09:44:26Z</time>
      </trkpt>
      <trkpt lat="48.80206" lon="2.25516">
        <ele>147.2</ele>
        <time>2024-05-26T09:44:27Z</time>
      </trkpt>
      <trkpt lat="48.80205" lon="2.25515">
        <ele>147.3</ele>
        <time>2024-05-26T09:44:28Z</time>
      </trkpt>
      <trkpt lat="48.80204" lon="2.25515">
        <ele>147.3</ele>
        <time>2024-05-26T09:44:29Z</time>
      </trkpt>
      <trkpt lat="48.80204" lon="2.25514">
        <ele>147.4</ele>
        <time>2024-05-26T09:44:30Z</time>
      </trkpt>
      <trkpt lat="48.80203" lon="2.25514">
        <ele>147.5</ele>
        <time>2024-05-26T09:44:31Z</time>
      </trkpt>
      <trkpt lat="48.80202" lon="2.25513">
        <ele>147.6</ele>
        <time>2024-05-26T09:44:32Z</time>
      </trkpt>
      <trkpt lat="48.80201" lon="2.25513">
        <ele>147.7</ele>
        <time>2024-05-26T09:44:33Z</time>
      </trkpt>
      <trkpt lat="48.80201" lon="2.25511">
        <ele>147.8</ele>
        <time>2024-05-26T09:44:34Z</time>
      </trkpt>
      <trkpt lat="48.802" lon="2.25511">
        <ele>147.9</ele>
        <time>2024-05-26T09:44:35Z</time>
      </trkpt>
      <trkpt lat="48.80199" lon="2.2551">
        <ele>148</ele>
        <time>2024-05-26T09:44:36Z</time>
      </trkpt>
      <trkpt lat="48.80198" lon="2.25508">
        <ele>148.2</ele>
        <time>2024-05-26T09:44:37Z</time>
      </trkpt>
      <trkpt lat="48.80198" lon="2.25507">
        <ele>148.3</ele>
        <time>2024-05-26T09:44:38Z</time>
      </trkpt>
      <trkpt lat="48.80196" lon="2.25505">
        <ele>148.5</ele>
        <time>2024-05-26T09:44:39Z</time>
      </trkpt>
      <trkpt lat="48.80195" lon="2.25504">
        <ele>148.6</ele>
        <time>2024-05-26T09:44:40Z</time>
      </trkpt>
      <trkpt lat="48.80195" lon="2.25503">
        <ele>148.7</ele>
        <time>2024-05-26T09:44:41Z</time>
      </trkpt>
      <trkpt lat="48.80194" lon="2.25503">
        <ele>148.8</ele>
        <time>2024-05-26T09:44:42Z</time>
      </trkpt>
      <trkpt lat="48.80193" lon="2.25501">
        <ele>148.9</ele>
        <time>2024-05-26T09:44:43Z</time>
      </trkpt>
      <trkpt lat="48.80193" lon="2.25501">
        <ele>149</ele>
        <time>2024-05-26T09:44:44Z</time>
      </trkpt>
      <trkpt lat="48.80191" lon="2.25499">
        <ele>149.2</ele>
        <time>2024-05-26T09:44:45Z</time>
      </trkpt>
      <trkpt lat="48.8019" lon="2.25498">
        <ele>149.4</ele>
        <time>2024-05-26T09:44:46Z</time>
      </trkpt>
      <trkpt lat="48.8019" lon="2.25493">
        <ele>149.7</ele>
        <time>2024-05-26T09:44:47Z</time>
      </trkpt>
      <trkpt lat="48.80189" lon="2.25491">
        <ele>149.8</ele>
        <time>2024-05-26T09:44:48Z</time>
      </trkpt>
      <trkpt lat="48.80188" lon="2.2549">
        <ele>150</ele>
        <time>2024-05-26T09:44:49Z</time>
      </trkpt>
      <trkpt lat="48.80187" lon="2.25487">
        <ele>150.2</ele>
        <time>2024-05-26T09:44:50Z</time>
      </trkpt>
      <trkpt lat="48.80187" lon="2.25485">
        <ele>150.4</ele>
        <time>2024-05-26T09:44:51Z</time>
      </trkpt>
      <trkpt lat="48.80186" lon="2.25483">
        <ele>150.6</ele>
        <time>2024-05-26T09:44:52Z</time>
      </trkpt>
      <trkpt lat="48.80185" lon="2.25482">
        <ele>150.7</ele>
        <time>2024-05-26T09:44:53Z</time>
      </trkpt>
      <trkpt lat="48.80185" lon="2.25481">
        <ele>150.8</ele>
        <time>2024-05-26T09:44:54Z</time>
      </trkpt>
      <trkpt lat="48.80184" lon="2.25479">
        <ele>151</ele>
        <time>2024-05-26T09:44:55Z</time>
      </trkpt>
      <trkpt lat="48.80183" lon="2.25477">
        <ele>151.2</ele>
        <time>2024-05-26T09:44:56Z</time>
      </trkpt>
      <trkpt lat="48.80183" lon="2.25475">
        <ele>151.4</ele>
        <time>2024-05-26T09:44:57Z</time>
      </trkpt>
      <trkpt lat="48.80182" lon="2.25474">
        <ele>151.5</ele>
        <time>2024-05-26T09:44:58Z</time>
      </trkpt>
      <trkpt lat="48.80181" lon="2.25469">
        <ele>151.9</ele>
        <time>2024-05-26T09:44:59Z</time>
      </trkpt>
      <trkpt lat="48.80181" lon="2.25467">
        <ele>152.1</ele>
        <time>2024-05-26T09:45:00Z</time>
      </trkpt>
      <trkpt lat="48.8018" lon="2.25464">
        <ele>152.3</ele>
        <time>2024-05-26T09:45:01Z</time>
      </trkpt>
      <trkpt lat="48.80181" lon="2.25462">
        <ele>152.5</ele>
        <time>2024-05-26T09:45:02Z</time>
      </trkpt>
      <trkpt lat="48.8018" lon="2.25459">
        <ele>152.8</ele>
        <time>2024-05-26T09:45:03Z</time>
      </trkpt>
      <trkpt lat="48.8018" lon="2.25458">
        <ele>152.9</ele>
        <time>2024-05-26T09:45:04Z</time>
      </trkpt>
      <trkpt lat="48.80179" lon="2.25457">
        <ele>153</ele>
        <time>2024-05-26T09:45:05Z</time>
      </trkpt>
      <trkpt lat="48.80178" lon="2.25454">
        <ele>153.2</ele>
        <time>2024-05-26T09:45:06Z</time>
      </trkpt>
      <trkpt lat="48.80178" lon="2.25453">
        <ele>153.3</ele>
        <time>2024-05-26T09:45:07Z</time>
      </trkpt>
      <trkpt lat="48.80178" lon="2.25452">
        <ele>153.4</ele>
        <time>2024-05-26T09:45:08Z</time>
      </trkpt>
      <trkpt lat="48.80177" lon="2.25451">
        <ele>153.5</ele>
        <time>2024-05-26T09:45:09Z</time>
      </trkpt>
      <trkpt lat="48.80177" lon="2.2545">
        <ele>153.6</ele>
        <time>2024-05-26T09:45:10Z</time>
      </trkpt>
      <trkpt lat="48.80176" lon="2.25449">
        <ele>153.7</ele>
        <time>2024-05-26T09:45:11Z</time>
      </trkpt>
      <trkpt lat="48.80175" lon="2.25447">
        <ele>153.9</ele>
        <time>2024-05-26T09:45:12Z</time>
      </trkpt>
      <trkpt lat="48.80175" lon="2.25445">
        <ele>154.1</ele>
        <time>2024-05-26T09:45:13Z</time>
      </trkpt>
      <trkpt lat="48.80174" lon="2.25444">
        <ele>154.2</ele>
        <time>2024-05-26T09:45:14Z</time>
      </trkpt>
      <trkpt lat="48.80174" lon="2.25443">
        <ele>154.3</ele>
        <time>2024-05-26T09:45:15Z</time>
      </trkpt>
      <trkpt lat="48.80174" lon="2.25441">
        <ele>154.5</ele>
        <time>2024-05-26T09:45:16Z</time>
      </trkpt>
      <trkpt lat="48.80173" lon="2.25439">
        <ele>154.6</ele>
        <time>2024-05-26T09:45:17Z</time>
      </trkpt>
      <trkpt lat="48.80173" lon="2.25438">
        <ele>154.7</ele>
        <time>2024-05-26T09:45:18Z</time>
      </trkpt>
      <trkpt lat="48.80173" lon="2.25436">
        <ele>154.8</ele>
        <time>2024-05-26T09:45:19Z</time>
      </trkpt>
      <trkpt lat="48.80173" lon="2.25434">
        <ele>155</ele>
        <time>2024-05-26T09:45:20Z</time>
      </trkpt>
      <trkpt lat="48.80173" lon="2.25433">
        <ele>155.1</ele>
        <time>2024-05-26T09:45:21Z</time>
      </trkpt>
      <trkpt lat="48.80172" lon="2.25431">
        <ele>155.2</ele>
        <time>2024-05-26T09:45:22Z</time>
      </trkpt>
      <trkpt lat="48.80171" lon="2.2543">
        <ele>155.3</ele>
        <time>2024-05-26T09:45:23Z</time>
      </trkpt>
      <trkpt lat="48.80171" lon="2.25429">
        <ele>155.4</ele>
        <time>2024-05-26T09:45:24Z</time>
      </trkpt>
      <trkpt lat="48.8017" lon="2.25428">
        <ele>155.5</ele>
        <time>2024-05-26T09:45:25Z</time>
      </trkpt>
      <trkpt lat="48.8017" lon="2.25427">
        <ele>155.5</ele>
        <time>2024-05-26T09:45:26Z</time>
      </trkpt>
      <trkpt lat="48.8017" lon="2.25426">
        <ele>155.6</ele>
        <time>2024-05-26T09:45:27Z</time>
      </trkpt>
      <trkpt lat="48.80169" lon="2.25425">
        <ele>155.7</ele>
        <time>2024-05-26T09:45:28Z</time>
      </trkpt>
      <trkpt lat="48.80169" lon="2.25423">
        <ele>155.9</ele>
        <time>2024-05-26T09:45:29Z</time>
      </trkpt>
      <trkpt lat="48.80168" lon="2.25421">
        <ele>156</ele>
        <time>2024-05-26T09:45:30Z</time>
      </trkpt>
      <trkpt lat="48.80167" lon="2.2542">
        <ele>156.1</ele>
        <time>2024-05-26T09:45:31Z</time>
      </trkpt>
      <trkpt lat="48.80167" lon="2.25419">
        <ele>156.2</ele>
        <time>2024-05-26T09:45:32Z</time>
      </trkpt>
      <trkpt lat="48.80166" lon="2.25418">
        <ele>156.3</ele>
        <time>2024-05-26T09:45:33Z</time>
      </trkpt>
      <trkpt lat="48.80165" lon="2.25417">
        <ele>156.4</ele>
        <time>2024-05-26T09:45:34Z</time>
      </trkpt>
      <trkpt lat="48.80165" lon="2.25416">
        <ele>156.5</ele>
        <time>2024-05-26T09:45:35Z</time>
      </trkpt>
      <trkpt lat="48.80164" lon="2.25414">
        <ele>156.6</ele>
        <time>2024-05-26T09:45:36Z</time>
      </trkpt>
      <trkpt lat="48.80163" lon="2.25413">
        <ele>156.7</ele>
        <time>2024-05-26T09:45:37Z</time>
      </trkpt>
      <trkpt lat="48.80162" lon="2.25413">
        <ele>156.8</ele>
        <time>2024-05-26T09:45:38Z</time>
      </trkpt>
      <trkpt lat="48.80162" lon="2.25412">
        <ele>156.9</ele>
        <time>2024-05-26T09:45:39Z</time>
      </trkpt>
      <trkpt lat="48.80162" lon="2.25412">
        <ele>156.9</ele>
        <time>2024-05-26T09:45:40Z</time>
      </trkpt>
      <trkpt lat="48.80162" lon="2.25412">
        <ele>156.9</ele>
        <time>2024-05-26T09:45:41Z</time>
      </trkpt>
      <trkpt lat="48.80161" lon="2.25411">
        <ele>156.9</ele>
        <time>2024-05-26T09:45:42Z</time>
      </trkpt>
      <trkpt lat="48.80161" lon="2.25411">
        <ele>157</ele>
        <time>2024-05-26T09:45:43Z</time>
      </trkpt>
      <trkpt lat="48.80161" lon="2.25411">
        <ele>157</ele>
        <time>2024-05-26T09:45:44Z</time>
      </trkpt>
      <trkpt lat="48.80161" lon="2.25411">
        <ele>157</ele>
        <time>2024-05-26T09:45:45Z</time>
      </trkpt>
      <trkpt lat="48.80161" lon="2.25411">
        <ele>157</ele>
        <time>2024-05-26T09:45:46Z</time>
      </trkpt>
      <trkpt lat="48.8016" lon="2.25411">
        <ele>157.1</ele>
        <time>2024-05-26T09:45:47Z</time>
      </trkpt>
      <trkpt lat="48.8016" lon="2.25409">
        <ele>157.2</ele>
        <time>2024-05-26T09:45:48Z</time>
      </trkpt>
      <trkpt lat="48.8016" lon="2.25409">
        <ele>157.2</ele>
        <time>2024-05-26T09:45:49Z</time>
      </trkpt>
      <trkpt lat="48.80159" lon="2.25407">
        <ele>157.3</ele>
        <time>2024-05-26T09:45:50Z</time>
      </trkpt>
      <trkpt lat="48.8016" lon="2.25407">
        <ele>157.3</ele>
        <time>2024-05-26T09:45:51Z</time>
      </trkpt>
      <trkpt lat="48.8016" lon="2.25406">
        <ele>157.4</ele>
        <time>2024-05-26T09:45:53Z</time>
      </trkpt>
      <trkpt lat="48.80159" lon="2.25403">
        <ele>157.6</ele>
        <time>2024-05-26T09:45:54Z</time>
      </trkpt>
      <trkpt lat="48.80159" lon="2.254">
        <ele>157.8</ele>
        <time>2024-05-26T09:45:55Z</time>
      </trkpt>
      <trkpt lat="48.80158" lon="2.25401">
        <ele>157.8</ele>
        <time>2024-05-26T09:45:56Z</time>
      </trkpt>
      <trkpt lat="48.80158" lon="2.254">
        <ele>157.9</ele>
        <time>2024-05-26T09:45:57Z</time>
      </trkpt>
      <trkpt lat="48.80157" lon="2.25397">
        <ele>158.1</ele>
        <time>2024-05-26T09:45:58Z</time>
      </trkpt>
      <trkpt lat="48.80156" lon="2.25396">
        <ele>158.2</ele>
        <time>2024-05-26T09:45:59Z</time>
      </trkpt>
      <trkpt lat="48.80155" lon="2.25395">
        <ele>158.3</ele>
        <time>2024-05-26T09:46:00Z</time>
      </trkpt>
      <trkpt lat="48.80154" lon="2.25395">
        <ele>158.3</ele>
        <time>2024-05-26T09:46:01Z</time>
      </trkpt>
      <trkpt lat="48.80154" lon="2.25395">
        <ele>158.3</ele>
        <time>2024-05-26T09:46:02Z</time>
      </trkpt>
      <trkpt lat="48.80154" lon="2.25394">
        <ele>158.4</ele>
        <time>2024-05-26T09:46:03Z</time>
      </trkpt>
      <trkpt lat="48.80153" lon="2.25392">
        <ele>158.5</ele>
        <time>2024-05-26T09:46:04Z</time>
      </trkpt>
      <trkpt lat="48.80152" lon="2.25391">
        <ele>158.6</ele>
        <time>2024-05-26T09:46:05Z</time>
      </trkpt>
      <trkpt lat="48.80152" lon="2.2539">
        <ele>158.7</ele>
        <time>2024-05-26T09:46:06Z</time>
      </trkpt>
      <trkpt lat="48.80152" lon="2.25388">
        <ele>158.8</ele>
        <time>2024-05-26T09:46:07Z</time>
      </trkpt>
      <trkpt lat="48.80152" lon="2.25385">
        <ele>159</ele>
        <time>2024-05-26T09:46:08Z</time>
      </trkpt>
      <trkpt lat="48.80151" lon="2.25385">
        <ele>159</ele>
        <time>2024-05-26T09:46:09Z</time>
      </trkpt>
      <trkpt lat="48.80151" lon="2.25385">
        <ele>159</ele>
        <time>2024-05-26T09:46:10Z</time>
      </trkpt>
      <trkpt lat="48.80151" lon="2.25384">
        <ele>159.1</ele>
        <time>2024-05-26T09:46:11Z</time>
      </trkpt>
      <trkpt lat="48.8015" lon="2.25384">
        <ele>159.1</ele>
        <time>2024-05-26T09:46:12Z</time>
      </trkpt>
      <trkpt lat="48.80149" lon="2.25384">
        <ele>159.3</ele>
        <time>2024-05-26T09:46:13Z</time>
      </trkpt>
      <trkpt lat="48.80148" lon="2.25383">
        <ele>159.4</ele>
        <time>2024-05-26T09:46:14Z</time>
      </trkpt>
      <trkpt lat="48.80148" lon="2.25382">
        <ele>159.4</ele>
        <time>2024-05-26T09:46:15Z</time>
      </trkpt>
      <trkpt lat="48.80146" lon="2.2538">
        <ele>159.6</ele>
        <time>2024-05-26T09:46:16Z</time>
      </trkpt>
      <trkpt lat="48.80146" lon="2.25379">
        <ele>159.7</ele>
        <time>2024-05-26T09:46:17Z</time>
      </trkpt>
      <trkpt lat="48.80146" lon="2.25378">
        <ele>159.8</ele>
        <time>2024-05-26T09:46:18Z</time>
      </trkpt>
      <trkpt lat="48.80146" lon="2.25377">
        <ele>159.9</ele>
        <time>2024-05-26T09:46:19Z</time>
      </trkpt>
      <trkpt lat="48.80144" lon="2.25375">
        <ele>160.1</ele>
        <time>2024-05-26T09:46:20Z</time>
      </trkpt>
      <trkpt lat="48.80143" lon="2.25374">
        <ele>160.3</ele>
        <time>2024-05-26T09:46:21Z</time>
      </trkpt>
      <trkpt lat="48.80141" lon="2.25371">
        <ele>160.5</ele>
        <time>2024-05-26T09:46:22Z</time>
      </trkpt>
      <trkpt lat="48.80141" lon="2.2537">
        <ele>160.6</ele>
        <time>2024-05-26T09:46:23Z</time>
      </trkpt>
      <trkpt lat="48.8014" lon="2.2537">
        <ele>160.7</ele>
        <time>2024-05-26T09:46:24Z</time>
      </trkpt>
      <trkpt lat="48.80139" lon="2.25369">
        <ele>160.8</ele>
        <time>2024-05-26T09:46:25Z</time>
      </trkpt>
      <trkpt lat="48.80138" lon="2.25369">
        <ele>160.9</ele>
        <time>2024-05-26T09:46:26Z</time>
      </trkpt>
      <trkpt lat="48.80138" lon="2.25369">
        <ele>161</ele>
        <time>2024-05-26T09:46:27Z</time>
      </trkpt>
      <trkpt lat="48.80138" lon="2.25367">
        <ele>161.1</ele>
        <time>2024-05-26T09:46:28Z</time>
      </trkpt>
      <trkpt lat="48.80137" lon="2.25364">
        <ele>161.4</ele>
        <time>2024-05-26T09:46:29Z</time>
      </trkpt>
      <trkpt lat="48.80135" lon="2.25362">
        <ele>161.6</ele>
        <time>2024-05-26T09:46:30Z</time>
      </trkpt>
      <trkpt lat="48.80134" lon="2.25359">
        <ele>161.8</ele>
        <time>2024-05-26T09:46:31Z</time>
      </trkpt>
      <trkpt lat="48.80134" lon="2.25358">
        <ele>161.9</ele>
        <time>2024-05-26T09:46:32Z</time>
      </trkpt>
      <trkpt lat="48.80133" lon="2.25357">
        <ele>162.1</ele>
        <time>2024-05-26T09:46:33Z</time>
      </trkpt>
      <trkpt lat="48.80132" lon="2.25356">
        <ele>162.2</ele>
        <time>2024-05-26T09:46:34Z</time>
      </trkpt>
      <trkpt lat="48.80131" lon="2.25355">
        <ele>162.3</ele>
        <time>2024-05-26T09:46:35Z</time>
      </trkpt>
      <trkpt lat="48.8013" lon="2.25355">
        <ele>162.4</ele>
        <time>2024-05-26T09:46:36Z</time>
      </trkpt>
      <trkpt lat="48.80129" lon="2.25354">
        <ele>162.5</ele>
        <time>2024-05-26T09:46:37Z</time>
      </trkpt>
      <trkpt lat="48.80128" lon="2.25353">
        <ele>162.6</ele>
        <time>2024-05-26T09:46:38Z</time>
      </trkpt>
      <trkpt lat="48.80128" lon="2.25353">
        <ele>162.6</ele>
        <time>2024-05-26T09:46:39Z</time>
      </trkpt>
      <trkpt lat="48.80127" lon="2.25351">
        <ele>162.8</ele>
        <time>2024-05-26T09:46:40Z</time>
      </trkpt>
      <trkpt lat="48.80126" lon="2.2535">
        <ele>162.9</ele>
        <time>2024-05-26T09:46:41Z</time>
      </trkpt>
      <trkpt lat="48.80125" lon="2.25349">
        <ele>162.9</ele>
        <time>2024-05-26T09:46:42Z</time>
      </trkpt>
      <trkpt lat="48.80124" lon="2.25349">
        <ele>163</ele>
        <time>2024-05-26T09:46:43Z</time>
      </trkpt>
      <trkpt lat="48.80122" lon="2.25346">
        <ele>163.2</ele>
        <time>2024-05-26T09:46:44Z</time>
      </trkpt>
      <trkpt lat="48.80122" lon="2.25345">
        <ele>163.3</ele>
        <time>2024-05-26T09:46:45Z</time>
      </trkpt>
      <trkpt lat="48.80122" lon="2.25344">
        <ele>163.3</ele>
        <time>2024-05-26T09:46:46Z</time>
      </trkpt>
      <trkpt lat="48.80121" lon="2.25344">
        <ele>163.4</ele>
        <time>2024-05-26T09:46:47Z</time>
      </trkpt>
      <trkpt lat="48.8012" lon="2.25343">
        <ele>163.5</ele>
        <time>2024-05-26T09:46:48Z</time>
      </trkpt>
      <trkpt lat="48.80119" lon="2.25342">
        <ele>163.6</ele>
        <time>2024-05-26T09:46:49Z</time>
      </trkpt>
      <trkpt lat="48.80119" lon="2.25341">
        <ele>163.6</ele>
        <time>2024-05-26T09:46:50Z</time>
      </trkpt>
      <trkpt lat="48.80118" lon="2.25341">
        <ele>163.7</ele>
        <time>2024-05-26T09:46:51Z</time>
      </trkpt>
      <trkpt lat="48.80117" lon="2.2534">
        <ele>163.8</ele>
        <time>2024-05-26T09:46:52Z</time>
      </trkpt>
      <trkpt lat="48.80115" lon="2.25339">
        <ele>163.9</ele>
        <time>2024-05-26T09:46:53Z</time>
      </trkpt>
      <trkpt lat="48.80114" lon="2.25339">
        <ele>164</ele>
        <time>2024-05-26T09:46:54Z</time>
      </trkpt>
      <trkpt lat="48.80112" lon="2.25339">
        <ele>164.1</ele>
        <time>2024-05-26T09:46:55Z</time>
      </trkpt>
      <trkpt lat="48.80111" lon="2.25339">
        <ele>164.2</ele>
        <time>2024-05-26T09:46:56Z</time>
      </trkpt>
      <trkpt lat="48.80109" lon="2.25336">
        <ele>164.3</ele>
        <time>2024-05-26T09:46:57Z</time>
      </trkpt>
      <trkpt lat="48.80108" lon="2.25335">
        <ele>164.4</ele>
        <time>2024-05-26T09:46:58Z</time>
      </trkpt>
      <trkpt lat="48.80107" lon="2.25335">
        <ele>164.5</ele>
        <time>2024-05-26T09:46:59Z</time>
      </trkpt>
      <trkpt lat="48.80107" lon="2.25333">
        <ele>164.5</ele>
        <time>2024-05-26T09:47:00Z</time>
      </trkpt>
      <trkpt lat="48.80105" lon="2.25333">
        <ele>164.6</ele>
        <time>2024-05-26T09:47:01Z</time>
      </trkpt>
      <trkpt lat="48.80104" lon="2.25332">
        <ele>164.7</ele>
        <time>2024-05-26T09:47:02Z</time>
      </trkpt>
      <trkpt lat="48.80103" lon="2.25331">
        <ele>164.8</ele>
        <time>2024-05-26T09:47:03Z</time>
      </trkpt>
      <trkpt lat="48.80102" lon="2.2533">
        <ele>164.8</ele>
        <time>2024-05-26T09:47:04Z</time>
      </trkpt>
      <trkpt lat="48.80101" lon="2.25329">
        <ele>164.9</ele>
        <time>2024-05-26T09:47:05Z</time>
      </trkpt>
      <trkpt lat="48.801" lon="2.25328">
        <ele>165</ele>
        <time>2024-05-26T09:47:06Z</time>
      </trkpt>
      <trkpt lat="48.80099" lon="2.25328">
        <ele>165.1</ele>
        <time>2024-05-26T09:47:07Z</time>
      </trkpt>
      <trkpt lat="48.80098" lon="2.25327">
        <ele>165.1</ele>
        <time>2024-05-26T09:47:08Z</time>
      </trkpt>
      <trkpt lat="48.80096" lon="2.25325">
        <ele>165.2</ele>
        <time>2024-05-26T09:47:09Z</time>
      </trkpt>
      <trkpt lat="48.80094" lon="2.25325">
        <ele>165.3</ele>
        <time>2024-05-26T09:47:10Z</time>
      </trkpt>
      <trkpt lat="48.80093" lon="2.25325">
        <ele>165.4</ele>
        <time>2024-05-26T09:47:11Z</time>
      </trkpt>
      <trkpt lat="48.80092" lon="2.25324">
        <ele>165.4</ele>
        <time>2024-05-26T09:47:12Z</time>
      </trkpt>
      <trkpt lat="48.8009" lon="2.25325">
        <ele>165.5</ele>
        <time>2024-05-26T09:47:13Z</time>
      </trkpt>
      <trkpt lat="48.80089" lon="2.25325">
        <ele>165.6</ele>
        <time>2024-05-26T09:47:14Z</time>
      </trkpt>
      <trkpt lat="48.80087" lon="2.25325">
        <ele>165.6</ele>
        <time>2024-05-26T09:47:15Z</time>
      </trkpt>
      <trkpt lat="48.80086" lon="2.25325">
        <ele>165.7</ele>
        <time>2024-05-26T09:47:16Z</time>
      </trkpt>
      <trkpt lat="48.80085" lon="2.25325">
        <ele>165.8</ele>
        <time>2024-05-26T09:47:17Z</time>
      </trkpt>
      <trkpt lat="48.80084" lon="2.25325">
        <ele>165.8</ele>
        <time>2024-05-26T09:47:18Z</time>
      </trkpt>
      <trkpt lat="48.80082" lon="2.25324">
        <ele>165.8</ele>
        <time>2024-05-26T09:47:19Z</time>
      </trkpt>
      <trkpt lat="48.80081" lon="2.25324">
        <ele>165.8</ele>
        <time>2024-05-26T09:47:20Z</time>
      </trkpt>
      <trkpt lat="48.8008" lon="2.25324">
        <ele>165.9</ele>
        <time>2024-05-26T09:47:21Z</time>
      </trkpt>
      <trkpt lat="48.80078" lon="2.25324">
        <ele>165.9</ele>
        <time>2024-05-26T09:47:22Z</time>
      </trkpt>
      <trkpt lat="48.80077" lon="2.25325">
        <ele>165.9</ele>
        <time>2024-05-26T09:47:23Z</time>
      </trkpt>
      <trkpt lat="48.80075" lon="2.25325">
        <ele>165.9</ele>
        <time>2024-05-26T09:47:24Z</time>
      </trkpt>
      <trkpt lat="48.80074" lon="2.25325">
        <ele>165.9</ele>
        <time>2024-05-26T09:47:25Z</time>
      </trkpt>
      <trkpt lat="48.80073" lon="2.25326">
        <ele>166</ele>
        <time>2024-05-26T09:47:26Z</time>
      </trkpt>
      <trkpt lat="48.80072" lon="2.25326">
        <ele>166</ele>
        <time>2024-05-26T09:47:27Z</time>
      </trkpt>
      <trkpt lat="48.80071" lon="2.25326">
        <ele>166</ele>
        <time>2024-05-26T09:47:28Z</time>
      </trkpt>
      <trkpt lat="48.8007" lon="2.25326">
        <ele>166</ele>
        <time>2024-05-26T09:47:29Z</time>
      </trkpt>
      <trkpt lat="48.80069" lon="2.25326">
        <ele>166</ele>
        <time>2024-05-26T09:47:30Z</time>
      </trkpt>
      <trkpt lat="48.80068" lon="2.25326">
        <ele>166</ele>
        <time>2024-05-26T09:47:31Z</time>
      </trkpt>
      <trkpt lat="48.80067" lon="2.25327">
        <ele>166</ele>
        <time>2024-05-26T09:47:32Z</time>
      </trkpt>
      <trkpt lat="48.80066" lon="2.25327">
        <ele>166</ele>
        <time>2024-05-26T09:47:33Z</time>
      </trkpt>
      <trkpt lat="48.80066" lon="2.25328">
        <ele>166</ele>
        <time>2024-05-26T09:47:34Z</time>
      </trkpt>
      <trkpt lat="48.80064" lon="2.25328">
        <ele>166</ele>
        <time>2024-05-26T09:47:35Z</time>
      </trkpt>
      <trkpt lat="48.80063" lon="2.25327">
        <ele>166</ele>
        <time>2024-05-26T09:47:36Z</time>
      </trkpt>
      <trkpt lat="48.80063" lon="2.25327">
        <ele>166</ele>
        <time>2024-05-26T09:47:37Z</time>
      </trkpt>
      <trkpt lat="48.8006" lon="2.25326">
        <ele>166.1</ele>
        <time>2024-05-26T09:47:38Z</time>
      </trkpt>
      <trkpt lat="48.80058" lon="2.25327">
        <ele>166.1</ele>
        <time>2024-05-26T09:47:39Z</time>
      </trkpt>
      <trkpt lat="48.80057" lon="2.25327">
        <ele>166.1</ele>
        <time>2024-05-26T09:47:40Z</time>
      </trkpt>
      <trkpt lat="48.80055" lon="2.25327">
        <ele>166.1</ele>
        <time>2024-05-26T09:47:41Z</time>
      </trkpt>
      <trkpt lat="48.80054" lon="2.25325">
        <ele>166.1</ele>
        <time>2024-05-26T09:47:42Z</time>
      </trkpt>
      <trkpt lat="48.80054" lon="2.25323">
        <ele>166.2</ele>
        <time>2024-05-26T09:47:43Z</time>
      </trkpt>
      <trkpt lat="48.80053" lon="2.25322">
        <ele>166.2</ele>
        <time>2024-05-26T09:47:44Z</time>
      </trkpt>
      <trkpt lat="48.80052" lon="2.25321">
        <ele>166.2</ele>
        <time>2024-05-26T09:47:45Z</time>
      </trkpt>
      <trkpt lat="48.80051" lon="2.25319">
        <ele>166.3</ele>
        <time>2024-05-26T09:47:46Z</time>
      </trkpt>
      <trkpt lat="48.8005" lon="2.25318">
        <ele>166.3</ele>
        <time>2024-05-26T09:47:47Z</time>
      </trkpt>
      <trkpt lat="48.80048" lon="2.25317">
        <ele>166.3</ele>
        <time>2024-05-26T09:47:48Z</time>
      </trkpt>
      <trkpt lat="48.80047" lon="2.25315">
        <ele>166.4</ele>
        <time>2024-05-26T09:47:49Z</time>
      </trkpt>
      <trkpt lat="48.80045" lon="2.25313">
        <ele>166.4</ele>
        <time>2024-05-26T09:47:50Z</time>
      </trkpt>
      <trkpt lat="48.80045" lon="2.25312">
        <ele>166.4</ele>
        <time>2024-05-26T09:47:51Z</time>
      </trkpt>
      <trkpt lat="48.80044" lon="2.2531">
        <ele>166.5</ele>
        <time>2024-05-26T09:47:52Z</time>
      </trkpt>
      <trkpt lat="48.80043" lon="2.2531">
        <ele>166.5</ele>
        <time>2024-05-26T09:47:53Z</time>
      </trkpt>
      <trkpt lat="48.80042" lon="2.25309">
        <ele>166.5</ele>
        <time>2024-05-26T09:47:54Z</time>
      </trkpt>
      <trkpt lat="48.80042" lon="2.25308">
        <ele>166.5</ele>
        <time>2024-05-26T09:47:55Z</time>
      </trkpt>
      <trkpt lat="48.80041" lon="2.25307">
        <ele>166.6</ele>
        <time>2024-05-26T09:47:56Z</time>
      </trkpt>
      <trkpt lat="48.80039" lon="2.25305">
        <ele>166.6</ele>
        <time>2024-05-26T09:47:57Z</time>
      </trkpt>
      <trkpt lat="48.80038" lon="2.25305">
        <ele>166.7</ele>
        <time>2024-05-26T09:47:59Z</time>
      </trkpt>
      <trkpt lat="48.80037" lon="2.25304">
        <ele>166.7</ele>
        <time>2024-05-26T09:48:00Z</time>
      </trkpt>
      <trkpt lat="48.80035" lon="2.25304">
        <ele>166.7</ele>
        <time>2024-05-26T09:48:01Z</time>
      </trkpt>
      <trkpt lat="48.80036" lon="2.25302">
        <ele>166.8</ele>
        <time>2024-05-26T09:48:02Z</time>
      </trkpt>
      <trkpt lat="48.80034" lon="2.253">
        <ele>166.8</ele>
        <time>2024-05-26T09:48:03Z</time>
      </trkpt>
      <trkpt lat="48.80034" lon="2.25299">
        <ele>166.8</ele>
        <time>2024-05-26T09:48:04Z</time>
      </trkpt>
      <trkpt lat="48.80033" lon="2.25297">
        <ele>166.9</ele>
        <time>2024-05-26T09:48:05Z</time>
      </trkpt>
      <trkpt lat="48.80032" lon="2.25297">
        <ele>166.9</ele>
        <time>2024-05-26T09:48:06Z</time>
      </trkpt>
      <trkpt lat="48.8003" lon="2.25295">
        <ele>167</ele>
        <time>2024-05-26T09:48:07Z</time>
      </trkpt>
      <trkpt lat="48.80029" lon="2.25294">
        <ele>167</ele>
        <time>2024-05-26T09:48:08Z</time>
      </trkpt>
      <trkpt lat="48.80028" lon="2.25293">
        <ele>167</ele>
        <time>2024-05-26T09:48:09Z</time>
      </trkpt>
      <trkpt lat="48.80027" lon="2.25292">
        <ele>167</ele>
        <time>2024-05-26T09:48:10Z</time>
      </trkpt>
      <trkpt lat="48.80026" lon="2.25292">
        <ele>167.1</ele>
        <time>2024-05-26T09:48:11Z</time>
      </trkpt>
      <trkpt lat="48.80024" lon="2.25291">
        <ele>167.1</ele>
        <time>2024-05-26T09:48:12Z</time>
      </trkpt>
      <trkpt lat="48.80023" lon="2.2529">
        <ele>167.1</ele>
        <time>2024-05-26T09:48:13Z</time>
      </trkpt>
      <trkpt lat="48.80023" lon="2.25289">
        <ele>167.2</ele>
        <time>2024-05-26T09:48:14Z</time>
      </trkpt>
      <trkpt lat="48.80022" lon="2.25288">
        <ele>167.2</ele>
        <time>2024-05-26T09:48:15Z</time>
      </trkpt>
      <trkpt lat="48.80021" lon="2.25286">
        <ele>167.2</ele>
        <time>2024-05-26T09:48:16Z</time>
      </trkpt>
      <trkpt lat="48.8002" lon="2.25286">
        <ele>167.3</ele>
        <time>2024-05-26T09:48:17Z</time>
      </trkpt>
      <trkpt lat="48.80019" lon="2.25284">
        <ele>167.3</ele>
        <time>2024-05-26T09:48:18Z</time>
      </trkpt>
      <trkpt lat="48.80017" lon="2.25282">
        <ele>167.4</ele>
        <time>2024-05-26T09:48:19Z</time>
      </trkpt>
      <trkpt lat="48.80017" lon="2.25281">
        <ele>167.4</ele>
        <time>2024-05-26T09:48:20Z</time>
      </trkpt>
      <trkpt lat="48.80016" lon="2.2528">
        <ele>167.4</ele>
        <time>2024-05-26T09:48:21Z</time>
      </trkpt>
      <trkpt lat="48.80016" lon="2.25279">
        <ele>167.4</ele>
        <time>2024-05-26T09:48:22Z</time>
      </trkpt>
      <trkpt lat="48.80015" lon="2.25277">
        <ele>167.5</ele>
        <time>2024-05-26T09:48:23Z</time>
      </trkpt>
      <trkpt lat="48.80015" lon="2.25275">
        <ele>167.5</ele>
        <time>2024-05-26T09:48:24Z</time>
      </trkpt>
      <trkpt lat="48.80014" lon="2.25273">
        <ele>167.5</ele>
        <time>2024-05-26T09:48:25Z</time>
      </trkpt>
      <trkpt lat="48.80014" lon="2.25273">
        <ele>167.5</ele>
        <time>2024-05-26T09:48:26Z</time>
      </trkpt>
      <trkpt lat="48.80012" lon="2.25271">
        <ele>167.6</ele>
        <time>2024-05-26T09:48:27Z</time>
      </trkpt>
      <trkpt lat="48.80012" lon="2.2527">
        <ele>167.6</ele>
        <time>2024-05-26T09:48:28Z</time>
      </trkpt>
      <trkpt lat="48.8001" lon="2.25269">
        <ele>167.6</ele>
        <time>2024-05-26T09:48:29Z</time>
      </trkpt>
      <trkpt lat="48.80009" lon="2.25268">
        <ele>167.6</ele>
        <time>2024-05-26T09:48:30Z</time>
      </trkpt>
      <trkpt lat="48.80008" lon="2.25266">
        <ele>167.7</ele>
        <time>2024-05-26T09:48:31Z</time>
      </trkpt>
      <trkpt lat="48.80007" lon="2.25263">
        <ele>167.7</ele>
        <time>2024-05-26T09:48:32Z</time>
      </trkpt>
      <trkpt lat="48.80006" lon="2.25262">
        <ele>167.7</ele>
        <time>2024-05-26T09:48:33Z</time>
      </trkpt>
      <trkpt lat="48.80004" lon="2.2526">
        <ele>167.7</ele>
        <time>2024-05-26T09:48:34Z</time>
      </trkpt>
      <trkpt lat="48.80003" lon="2.25259">
        <ele>167.8</ele>
        <time>2024-05-26T09:48:35Z</time>
      </trkpt>
      <trkpt lat="48.8" lon="2.25258">
        <ele>167.8</ele>
        <time>2024-05-26T09:48:36Z</time>
      </trkpt>
      <trkpt lat="48.79999" lon="2.25257">
        <ele>167.8</ele>
        <time>2024-05-26T09:48:37Z</time>
      </trkpt>
      <trkpt lat="48.79998" lon="2.25254">
        <ele>167.8</ele>
        <time>2024-05-26T09:48:38Z</time>
      </trkpt>
      <trkpt lat="48.79998" lon="2.25253">
        <ele>167.8</ele>
        <time>2024-05-26T09:48:39Z</time>
      </trkpt>
      <trkpt lat="48.79997" lon="2.25253">
        <ele>167.8</ele>
        <time>2024-05-26T09:48:40Z</time>
      </trkpt>
      <trkpt lat="48.79997" lon="2.25252">
        <ele>167.8</ele>
        <time>2024-05-26T09:48:41Z</time>
      </trkpt>
      <trkpt lat="48.79996" lon="2.25251">
        <ele>167.8</ele>
        <time>2024-05-26T09:48:42Z</time>
      </trkpt>
      <trkpt lat="48.79994" lon="2.25251">
        <ele>167.8</ele>
        <time>2024-05-26T09:48:43Z</time>
      </trkpt>
      <trkpt lat="48.79993" lon="2.25252">
        <ele>167.8</ele>
        <time>2024-05-26T09:48:44Z</time>
      </trkpt>
      <trkpt lat="48.79992" lon="2.2525">
        <ele>167.8</ele>
        <time>2024-05-26T09:48:45Z</time>
      </trkpt>
      <trkpt lat="48.79992" lon="2.2525">
        <ele>167.8</ele>
        <time>2024-05-26T09:48:46Z</time>
      </trkpt>
      <trkpt lat="48.79991" lon="2.2525">
        <ele>167.8</ele>
        <time>2024-05-26T09:48:47Z</time>
      </trkpt>
      <trkpt lat="48.79988" lon="2.25249">
        <ele>167.8</ele>
        <time>2024-05-26T09:48:48Z</time>
      </trkpt>
      <trkpt lat="48.79988" lon="2.25249">
        <ele>167.8</ele>
        <time>2024-05-26T09:48:49Z</time>
      </trkpt>
      <trkpt lat="48.79988" lon="2.25249">
        <ele>167.8</ele>
        <time>2024-05-26T09:48:50Z</time>
      </trkpt>
      <trkpt lat="48.79987" lon="2.25249">
        <ele>167.8</ele>
        <time>2024-05-26T09:48:51Z</time>
      </trkpt>
      <trkpt lat="48.79987" lon="2.25247">
        <ele>167.8</ele>
        <time>2024-05-26T09:48:52Z</time>
      </trkpt>
      <trkpt lat="48.79986" lon="2.25246">
        <ele>167.8</ele>
        <time>2024-05-26T09:48:53Z</time>
      </trkpt>
      <trkpt lat="48.79985" lon="2.25246">
        <ele>167.8</ele>
        <time>2024-05-26T09:48:54Z</time>
      </trkpt>
      <trkpt lat="48.79982" lon="2.25245">
        <ele>167.8</ele>
        <time>2024-05-26T09:48:55Z</time>
      </trkpt>
      <trkpt lat="48.79981" lon="2.25245">
        <ele>167.8</ele>
        <time>2024-05-26T09:48:56Z</time>
      </trkpt>
      <trkpt lat="48.79979" lon="2.25245">
        <ele>167.8</ele>
        <time>2024-05-26T09:48:57Z</time>
      </trkpt>
      <trkpt lat="48.79978" lon="2.25246">
        <ele>167.8</ele>
        <time>2024-05-26T09:48:58Z</time>
      </trkpt>
      <trkpt lat="48.79977" lon="2.25246">
        <ele>167.8</ele>
        <time>2024-05-26T09:48:59Z</time>
      </trkpt>
      <trkpt lat="48.79975" lon="2.25246">
        <ele>167.8</ele>
        <time>2024-05-26T09:49:00Z</time>
      </trkpt>
      <trkpt lat="48.79974" lon="2.25246">
        <ele>167.8</ele>
        <time>2024-05-26T09:49:01Z</time>
      </trkpt>
      <trkpt lat="48.79972" lon="2.25246">
        <ele>167.8</ele>
        <time>2024-05-26T09:49:02Z</time>
      </trkpt>
      <trkpt lat="48.7997" lon="2.25246">
        <ele>167.8</ele>
        <time>2024-05-26T09:49:03Z</time>
      </trkpt>
      <trkpt lat="48.79969" lon="2.25247">
        <ele>167.7</ele>
        <time>2024-05-26T09:49:04Z</time>
      </trkpt>
      <trkpt lat="48.79968" lon="2.25247">
        <ele>167.7</ele>
        <time>2024-05-26T09:49:05Z</time>
      </trkpt>
      <trkpt lat="48.79967" lon="2.25247">
        <ele>167.7</ele>
        <time>2024-05-26T09:49:06Z</time>
      </trkpt>
      <trkpt lat="48.79965" lon="2.25247">
        <ele>167.7</ele>
        <time>2024-05-26T09:49:07Z</time>
      </trkpt>
      <trkpt lat="48.79964" lon="2.25246">
        <ele>167.7</ele>
        <time>2024-05-26T09:49:08Z</time>
      </trkpt>
      <trkpt lat="48.79963" lon="2.25246">
        <ele>167.7</ele>
        <time>2024-05-26T09:49:09Z</time>
      </trkpt>
      <trkpt lat="48.79962" lon="2.25246">
        <ele>167.7</ele>
        <time>2024-05-26T09:49:10Z</time>
      </trkpt>
      <trkpt lat="48.79961" lon="2.25246">
        <ele>167.7</ele>
        <time>2024-05-26T09:49:11Z</time>
      </trkpt>
      <trkpt lat="48.79961" lon="2.25245">
        <ele>167.7</ele>
        <time>2024-05-26T09:49:12Z</time>
      </trkpt>
      <trkpt lat="48.79958" lon="2.25247">
        <ele>167.6</ele>
        <time>2024-05-26T09:49:13Z</time>
      </trkpt>
      <trkpt lat="48.79957" lon="2.25246">
        <ele>167.6</ele>
        <time>2024-05-26T09:49:14Z</time>
      </trkpt>
      <trkpt lat="48.79955" lon="2.25245">
        <ele>167.6</ele>
        <time>2024-05-26T09:49:15Z</time>
      </trkpt>
      <trkpt lat="48.79954" lon="2.25245">
        <ele>167.6</ele>
        <time>2024-05-26T09:49:16Z</time>
      </trkpt>
      <trkpt lat="48.79953" lon="2.25246">
        <ele>167.6</ele>
        <time>2024-05-26T09:49:17Z</time>
      </trkpt>
      <trkpt lat="48.79952" lon="2.25245">
        <ele>167.6</ele>
        <time>2024-05-26T09:49:18Z</time>
      </trkpt>
      <trkpt lat="48.79952" lon="2.25244">
        <ele>167.6</ele>
        <time>2024-05-26T09:49:19Z</time>
      </trkpt>
      <trkpt lat="48.7995" lon="2.25244">
        <ele>167.6</ele>
        <time>2024-05-26T09:49:20Z</time>
      </trkpt>
      <trkpt lat="48.79947" lon="2.25244">
        <ele>167.6</ele>
        <time>2024-05-26T09:49:21Z</time>
      </trkpt>
      <trkpt lat="48.79946" lon="2.25245">
        <ele>167.6</ele>
        <time>2024-05-26T09:49:22Z</time>
      </trkpt>
      <trkpt lat="48.79945" lon="2.25244">
        <ele>167.5</ele>
        <time>2024-05-26T09:49:23Z</time>
      </trkpt>
      <trkpt lat="48.79943" lon="2.25244">
        <ele>167.5</ele>
        <time>2024-05-26T09:49:24Z</time>
      </trkpt>
      <trkpt lat="48.79943" lon="2.25243">
        <ele>167.5</ele>
        <time>2024-05-26T09:49:25Z</time>
      </trkpt>
      <trkpt lat="48.79943" lon="2.25242">
        <ele>167.5</ele>
        <time>2024-05-26T09:49:26Z</time>
      </trkpt>
      <trkpt lat="48.7994" lon="2.25242">
        <ele>167.5</ele>
        <time>2024-05-26T09:49:27Z</time>
      </trkpt>
      <trkpt lat="48.79938" lon="2.25241">
        <ele>167.5</ele>
        <time>2024-05-26T09:49:28Z</time>
      </trkpt>
      <trkpt lat="48.79937" lon="2.2524">
        <ele>167.5</ele>
        <time>2024-05-26T09:49:29Z</time>
      </trkpt>
      <trkpt lat="48.79935" lon="2.25239">
        <ele>167.5</ele>
        <time>2024-05-26T09:49:30Z</time>
      </trkpt>
      <trkpt lat="48.79934" lon="2.25238">
        <ele>167.5</ele>
        <time>2024-05-26T09:49:31Z</time>
      </trkpt>
      <trkpt lat="48.79933" lon="2.25238">
        <ele>167.5</ele>
        <time>2024-05-26T09:49:32Z</time>
      </trkpt>
      <trkpt lat="48.79932" lon="2.25238">
        <ele>167.5</ele>
        <time>2024-05-26T09:49:33Z</time>
      </trkpt>
      <trkpt lat="48.79931" lon="2.25238">
        <ele>167.5</ele>
        <time>2024-05-26T09:49:34Z</time>
      </trkpt>
      <trkpt lat="48.79928" lon="2.25238">
        <ele>167.5</ele>
        <time>2024-05-26T09:49:35Z</time>
      </trkpt>
      <trkpt lat="48.79927" lon="2.25239">
        <ele>167.5</ele>
        <time>2024-05-26T09:49:36Z</time>
      </trkpt>
      <trkpt lat="48.79927" lon="2.25239">
        <ele>167.5</ele>
        <time>2024-05-26T09:49:37Z</time>
      </trkpt>
      <trkpt lat="48.79925" lon="2.25239">
        <ele>167.4</ele>
        <time>2024-05-26T09:49:38Z</time>
      </trkpt>
      <trkpt lat="48.79924" lon="2.25238">
        <ele>167.4</ele>
        <time>2024-05-26T09:49:39Z</time>
      </trkpt>
      <trkpt lat="48.79922" lon="2.25238">
        <ele>167.4</ele>
        <time>2024-05-26T09:49:40Z</time>
      </trkpt>
      <trkpt lat="48.79921" lon="2.25237">
        <ele>167.4</ele>
        <time>2024-05-26T09:49:41Z</time>
      </trkpt>
      <trkpt lat="48.7992" lon="2.25237">
        <ele>167.4</ele>
        <time>2024-05-26T09:49:42Z</time>
      </trkpt>
      <trkpt lat="48.79918" lon="2.25236">
        <ele>167.4</ele>
        <time>2024-05-26T09:49:43Z</time>
      </trkpt>
      <trkpt lat="48.79917" lon="2.25236">
        <ele>167.4</ele>
        <time>2024-05-26T09:49:44Z</time>
      </trkpt>
      <trkpt lat="48.79916" lon="2.25236">
        <ele>167.4</ele>
        <time>2024-05-26T09:49:45Z</time>
      </trkpt>
      <trkpt lat="48.79915" lon="2.25235">
        <ele>167.4</ele>
        <time>2024-05-26T09:49:46Z</time>
      </trkpt>
      <trkpt lat="48.79913" lon="2.25235">
        <ele>167.4</ele>
        <time>2024-05-26T09:49:47Z</time>
      </trkpt>
      <trkpt lat="48.79912" lon="2.25236">
        <ele>167.4</ele>
        <time>2024-05-26T09:49:48Z</time>
      </trkpt>
      <trkpt lat="48.79912" lon="2.25235">
        <ele>167.4</ele>
        <time>2024-05-26T09:49:49Z</time>
      </trkpt>
      <trkpt lat="48.79909" lon="2.25235">
        <ele>167.3</ele>
        <time>2024-05-26T09:49:50Z</time>
      </trkpt>
      <trkpt lat="48.79908" lon="2.25235">
        <ele>167.3</ele>
        <time>2024-05-26T09:49:51Z</time>
      </trkpt>
      <trkpt lat="48.79907" lon="2.25235">
        <ele>167.3</ele>
        <time>2024-05-26T09:49:52Z</time>
      </trkpt>
      <trkpt lat="48.79906" lon="2.25234">
        <ele>167.3</ele>
        <time>2024-05-26T09:49:53Z</time>
      </trkpt>
      <trkpt lat="48.79905" lon="2.25234">
        <ele>167.3</ele>
        <time>2024-05-26T09:49:54Z</time>
      </trkpt>
      <trkpt lat="48.79903" lon="2.25235">
        <ele>167.3</ele>
        <time>2024-05-26T09:49:55Z</time>
      </trkpt>
      <trkpt lat="48.79902" lon="2.25235">
        <ele>167.3</ele>
        <time>2024-05-26T09:49:56Z</time>
      </trkpt>
      <trkpt lat="48.799" lon="2.25233">
        <ele>167.3</ele>
        <time>2024-05-26T09:49:57Z</time>
      </trkpt>
      <trkpt lat="48.799" lon="2.25232">
        <ele>167.3</ele>
        <time>2024-05-26T09:49:58Z</time>
      </trkpt>
      <trkpt lat="48.79899" lon="2.25232">
        <ele>167.3</ele>
        <time>2024-05-26T09:49:59Z</time>
      </trkpt>
      <trkpt lat="48.79898" lon="2.25231">
        <ele>167.3</ele>
        <time>2024-05-26T09:50:00Z</time>
      </trkpt>
      <trkpt lat="48.79897" lon="2.2523">
        <ele>167.3</ele>
        <time>2024-05-26T09:50:01Z</time>
      </trkpt>
      <trkpt lat="48.79896" lon="2.25228">
        <ele>167.3</ele>
        <time>2024-05-26T09:50:02Z</time>
      </trkpt>
      <trkpt lat="48.79894" lon="2.25227">
        <ele>167.3</ele>
        <time>2024-05-26T09:50:03Z</time>
      </trkpt>
      <trkpt lat="48.79893" lon="2.25225">
        <ele>167.3</ele>
        <time>2024-05-26T09:50:05Z</time>
      </trkpt>
      <trkpt lat="48.79892" lon="2.25225">
        <ele>167.3</ele>
        <time>2024-05-26T09:50:06Z</time>
      </trkpt>
      <trkpt lat="48.7989" lon="2.25224">
        <ele>167.3</ele>
        <time>2024-05-26T09:50:07Z</time>
      </trkpt>
      <trkpt lat="48.79889" lon="2.25223">
        <ele>167.3</ele>
        <time>2024-05-26T09:50:08Z</time>
      </trkpt>
      <trkpt lat="48.79888" lon="2.25222">
        <ele>167.3</ele>
        <time>2024-05-26T09:50:09Z</time>
      </trkpt>
      <trkpt lat="48.79887" lon="2.25221">
        <ele>167.3</ele>
        <time>2024-05-26T09:50:10Z</time>
      </trkpt>
      <trkpt lat="48.79885" lon="2.25218">
        <ele>167.3</ele>
        <time>2024-05-26T09:50:11Z</time>
      </trkpt>
      <trkpt lat="48.79885" lon="2.25217">
        <ele>167.3</ele>
        <time>2024-05-26T09:50:12Z</time>
      </trkpt>
      <trkpt lat="48.79884" lon="2.25215">
        <ele>167.3</ele>
        <time>2024-05-26T09:50:13Z</time>
      </trkpt>
      <trkpt lat="48.79883" lon="2.25214">
        <ele>167.3</ele>
        <time>2024-05-26T09:50:14Z</time>
      </trkpt>
      <trkpt lat="48.79882" lon="2.25212">
        <ele>167.3</ele>
        <time>2024-05-26T09:50:15Z</time>
      </trkpt>
      <trkpt lat="48.79881" lon="2.2521">
        <ele>167.3</ele>
        <time>2024-05-26T09:50:16Z</time>
      </trkpt>
      <trkpt lat="48.79879" lon="2.25209">
        <ele>167.4</ele>
        <time>2024-05-26T09:50:17Z</time>
      </trkpt>
      <trkpt lat="48.79878" lon="2.25208">
        <ele>167.4</ele>
        <time>2024-05-26T09:50:18Z</time>
      </trkpt>
      <trkpt lat="48.79877" lon="2.25208">
        <ele>167.4</ele>
        <time>2024-05-26T09:50:19Z</time>
      </trkpt>
      <trkpt lat="48.79875" lon="2.25206">
        <ele>167.4</ele>
        <time>2024-05-26T09:50:20Z</time>
      </trkpt>
      <trkpt lat="48.79874" lon="2.25206">
        <ele>167.4</ele>
        <time>2024-05-26T09:50:21Z</time>
      </trkpt>
      <trkpt lat="48.79873" lon="2.25204">
        <ele>167.4</ele>
        <time>2024-05-26T09:50:22Z</time>
      </trkpt>
      <trkpt lat="48.79872" lon="2.25204">
        <ele>167.5</ele>
        <time>2024-05-26T09:50:23Z</time>
      </trkpt>
      <trkpt lat="48.7987" lon="2.25204">
        <ele>167.5</ele>
        <time>2024-05-26T09:50:24Z</time>
      </trkpt>
      <trkpt lat="48.79869" lon="2.25204">
        <ele>167.5</ele>
        <time>2024-05-26T09:50:25Z</time>
      </trkpt>
      <trkpt lat="48.79867" lon="2.25204">
        <ele>167.5</ele>
        <time>2024-05-26T09:50:26Z</time>
      </trkpt>
      <trkpt lat="48.79866" lon="2.25204">
        <ele>167.5</ele>
        <time>2024-05-26T09:50:27Z</time>
      </trkpt>
      <trkpt lat="48.79865" lon="2.25204">
        <ele>167.6</ele>
        <time>2024-05-26T09:50:28Z</time>
      </trkpt>
      <trkpt lat="48.79863" lon="2.25204">
        <ele>167.6</ele>
        <time>2024-05-26T09:50:29Z</time>
      </trkpt>
      <trkpt lat="48.79862" lon="2.25204">
        <ele>167.6</ele>
        <time>2024-05-26T09:50:30Z</time>
      </trkpt>
      <trkpt lat="48.79861" lon="2.25204">
        <ele>167.6</ele>
        <time>2024-05-26T09:50:31Z</time>
      </trkpt>
      <trkpt lat="48.79859" lon="2.25204">
        <ele>167.6</ele>
        <time>2024-05-26T09:50:32Z</time>
      </trkpt>
      <trkpt lat="48.79858" lon="2.25204">
        <ele>167.6</ele>
        <time>2024-05-26T09:50:33Z</time>
      </trkpt>
      <trkpt lat="48.79857" lon="2.25204">
        <ele>167.7</ele>
        <time>2024-05-26T09:50:34Z</time>
      </trkpt>
      <trkpt lat="48.79857" lon="2.25203">
        <ele>167.7</ele>
        <time>2024-05-26T09:50:35Z</time>
      </trkpt>
      <trkpt lat="48.79856" lon="2.25203">
        <ele>167.7</ele>
        <time>2024-05-26T09:50:36Z</time>
      </trkpt>
      <trkpt lat="48.79854" lon="2.25202">
        <ele>167.7</ele>
        <time>2024-05-26T09:50:37Z</time>
      </trkpt>
      <trkpt lat="48.79853" lon="2.25201">
        <ele>167.7</ele>
        <time>2024-05-26T09:50:38Z</time>
      </trkpt>
      <trkpt lat="48.79852" lon="2.252">
        <ele>167.7</ele>
        <time>2024-05-26T09:50:39Z</time>
      </trkpt>
      <trkpt lat="48.7985" lon="2.25198">
        <ele>167.8</ele>
        <time>2024-05-26T09:50:40Z</time>
      </trkpt>
      <trkpt lat="48.79849" lon="2.25197">
        <ele>167.8</ele>
        <time>2024-05-26T09:50:41Z</time>
      </trkpt>
      <trkpt lat="48.79849" lon="2.25196">
        <ele>167.8</ele>
        <time>2024-05-26T09:50:42Z</time>
      </trkpt>
      <trkpt lat="48.79847" lon="2.25194">
        <ele>167.8</ele>
        <time>2024-05-26T09:50:43Z</time>
      </trkpt>
      <trkpt lat="48.79847" lon="2.25193">
        <ele>167.8</ele>
        <time>2024-05-26T09:50:44Z</time>
      </trkpt>
      <trkpt lat="48.79847" lon="2.25192">
        <ele>167.8</ele>
        <time>2024-05-26T09:50:45Z</time>
      </trkpt>
      <trkpt lat="48.79845" lon="2.25191">
        <ele>167.9</ele>
        <time>2024-05-26T09:50:46Z</time>
      </trkpt>
      <trkpt lat="48.79844" lon="2.2519">
        <ele>167.9</ele>
        <time>2024-05-26T09:50:47Z</time>
      </trkpt>
      <trkpt lat="48.79842" lon="2.25189">
        <ele>167.9</ele>
        <time>2024-05-26T09:50:48Z</time>
      </trkpt>
      <trkpt lat="48.79841" lon="2.25189">
        <ele>168</ele>
        <time>2024-05-26T09:50:49Z</time>
      </trkpt>
      <trkpt lat="48.79839" lon="2.2519">
        <ele>168</ele>
        <time>2024-05-26T09:50:50Z</time>
      </trkpt>
      <trkpt lat="48.79838" lon="2.25191">
        <ele>168</ele>
        <time>2024-05-26T09:50:51Z</time>
      </trkpt>
      <trkpt lat="48.79836" lon="2.25191">
        <ele>168.1</ele>
        <time>2024-05-26T09:50:52Z</time>
      </trkpt>
      <trkpt lat="48.79835" lon="2.25192">
        <ele>168.1</ele>
        <time>2024-05-26T09:50:53Z</time>
      </trkpt>
      <trkpt lat="48.79834" lon="2.25192">
        <ele>168.1</ele>
        <time>2024-05-26T09:50:54Z</time>
      </trkpt>
      <trkpt lat="48.79832" lon="2.25191">
        <ele>168.2</ele>
        <time>2024-05-26T09:50:55Z</time>
      </trkpt>
      <trkpt lat="48.79831" lon="2.25191">
        <ele>168.2</ele>
        <time>2024-05-26T09:50:56Z</time>
      </trkpt>
      <trkpt lat="48.7983" lon="2.25191">
        <ele>168.2</ele>
        <time>2024-05-26T09:50:57Z</time>
      </trkpt>
      <trkpt lat="48.79829" lon="2.25192">
        <ele>168.3</ele>
        <time>2024-05-26T09:50:58Z</time>
      </trkpt>
      <trkpt lat="48.79828" lon="2.25191">
        <ele>168.3</ele>
        <time>2024-05-26T09:50:59Z</time>
      </trkpt>
      <trkpt lat="48.79828" lon="2.25192">
        <ele>168.3</ele>
        <time>2024-05-26T09:51:00Z</time>
      </trkpt>
      <trkpt lat="48.79827" lon="2.25192">
        <ele>168.3</ele>
        <time>2024-05-26T09:51:01Z</time>
      </trkpt>
      <trkpt lat="48.79826" lon="2.25191">
        <ele>168.4</ele>
        <time>2024-05-26T09:51:02Z</time>
      </trkpt>
      <trkpt lat="48.79824" lon="2.2519">
        <ele>168.4</ele>
        <time>2024-05-26T09:51:03Z</time>
      </trkpt>
      <trkpt lat="48.79824" lon="2.2519">
        <ele>168.4</ele>
        <time>2024-05-26T09:51:04Z</time>
      </trkpt>
      <trkpt lat="48.79823" lon="2.2519">
        <ele>168.5</ele>
        <time>2024-05-26T09:51:05Z</time>
      </trkpt>
      <trkpt lat="48.79823" lon="2.2519">
        <ele>168.5</ele>
        <time>2024-05-26T09:51:06Z</time>
      </trkpt>
      <trkpt lat="48.79821" lon="2.25189">
        <ele>168.5</ele>
        <time>2024-05-26T09:51:07Z</time>
      </trkpt>
      <trkpt lat="48.7982" lon="2.25189">
        <ele>168.6</ele>
        <time>2024-05-26T09:51:08Z</time>
      </trkpt>
      <trkpt lat="48.7982" lon="2.25187">
        <ele>168.6</ele>
        <time>2024-05-26T09:51:09Z</time>
      </trkpt>
      <trkpt lat="48.7982" lon="2.25184">
        <ele>168.6</ele>
        <time>2024-05-26T09:51:10Z</time>
      </trkpt>
      <trkpt lat="48.7982" lon="2.25183">
        <ele>168.6</ele>
        <time>2024-05-26T09:51:11Z</time>
      </trkpt>
      <trkpt lat="48.7982" lon="2.25182">
        <ele>168.6</ele>
        <time>2024-05-26T09:51:12Z</time>
      </trkpt>
      <trkpt lat="48.7982" lon="2.25182">
        <ele>168.6</ele>
        <time>2024-05-26T09:51:13Z</time>
      </trkpt>
      <trkpt lat="48.7982" lon="2.25181">
        <ele>168.6</ele>
        <time>2024-05-26T09:51:14Z</time>
      </trkpt>
      <trkpt lat="48.7982" lon="2.2518">
        <ele>168.6</ele>
        <time>2024-05-26T09:51:15Z</time>
      </trkpt>
      <trkpt lat="48.7982" lon="2.25179">
        <ele>168.6</ele>
        <time>2024-05-26T09:51:16Z</time>
      </trkpt>
      <trkpt lat="48.79821" lon="2.25177">
        <ele>168.6</ele>
        <time>2024-05-26T09:51:17Z</time>
      </trkpt>
      <trkpt lat="48.79822" lon="2.25175">
        <ele>168.6</ele>
        <time>2024-05-26T09:51:18Z</time>
      </trkpt>
      <trkpt lat="48.79821" lon="2.25174">
        <ele>168.6</ele>
        <time>2024-05-26T09:51:19Z</time>
      </trkpt>
      <trkpt lat="48.79822" lon="2.25172">
        <ele>168.6</ele>
        <time>2024-05-26T09:51:20Z</time>
      </trkpt>
      <trkpt lat="48.79823" lon="2.25171">
        <ele>168.6</ele>
        <time>2024-05-26T09:51:21Z</time>
      </trkpt>
      <trkpt lat="48.79823" lon="2.25171">
        <ele>168.6</ele>
        <time>2024-05-26T09:51:22Z</time>
      </trkpt>
      <trkpt lat="48.79823" lon="2.2517">
        <ele>168.6</ele>
        <time>2024-05-26T09:51:23Z</time>
      </trkpt>
      <trkpt lat="48.79823" lon="2.25168">
        <ele>168.6</ele>
        <time>2024-05-26T09:51:24Z</time>
      </trkpt>
      <trkpt lat="48.79823" lon="2.25168">
        <ele>168.6</ele>
        <time>2024-05-26T09:51:25Z</time>
      </trkpt>
      <trkpt lat="48.79824" lon="2.25168">
        <ele>168.6</ele>
        <time>2024-05-26T09:51:26Z</time>
      </trkpt>
      <trkpt lat="48.79824" lon="2.25168">
        <ele>168.6</ele>
        <time>2024-05-26T09:51:27Z</time>
      </trkpt>
      <trkpt lat="48.79825" lon="2.25168">
        <ele>168.6</ele>
        <time>2024-05-26T09:51:28Z</time>
      </trkpt>
      <trkpt lat="48.79825" lon="2.25168">
        <ele>168.6</ele>
        <time>2024-05-26T09:51:29Z</time>
      </trkpt>
      <trkpt lat="48.79825" lon="2.25167">
        <ele>168.6</ele>
        <time>2024-05-26T09:51:30Z</time>
      </trkpt>
      <trkpt lat="48.79825" lon="2.25167">
        <ele>168.6</ele>
        <time>2024-05-26T09:51:31Z</time>
      </trkpt>
      <trkpt lat="48.79825" lon="2.25165">
        <ele>168.6</ele>
        <time>2024-05-26T09:51:32Z</time>
      </trkpt>
      <trkpt lat="48.79825" lon="2.25165">
        <ele>168.6</ele>
        <time>2024-05-26T09:51:33Z</time>
      </trkpt>
      <trkpt lat="48.79825" lon="2.25164">
        <ele>168.6</ele>
        <time>2024-05-26T09:51:34Z</time>
      </trkpt>
      <trkpt lat="48.79824" lon="2.25163">
        <ele>168.6</ele>
        <time>2024-05-26T09:51:35Z</time>
      </trkpt>
      <trkpt lat="48.79823" lon="2.25163">
        <ele>168.6</ele>
        <time>2024-05-26T09:51:36Z</time>
      </trkpt>
      <trkpt lat="48.79823" lon="2.25161">
        <ele>168.7</ele>
        <time>2024-05-26T09:51:37Z</time>
      </trkpt>
      <trkpt lat="48.79823" lon="2.2516">
        <ele>168.7</ele>
        <time>2024-05-26T09:51:38Z</time>
      </trkpt>
      <trkpt lat="48.79823" lon="2.2516">
        <ele>168.7</ele>
        <time>2024-05-26T09:51:39Z</time>
      </trkpt>
      <trkpt lat="48.79822" lon="2.25158">
        <ele>168.7</ele>
        <time>2024-05-26T09:51:40Z</time>
      </trkpt>
      <trkpt lat="48.79822" lon="2.25158">
        <ele>168.7</ele>
        <time>2024-05-26T09:51:41Z</time>
      </trkpt>
      <trkpt lat="48.79822" lon="2.25155">
        <ele>168.7</ele>
        <time>2024-05-26T09:51:42Z</time>
      </trkpt>
      <trkpt lat="48.79822" lon="2.25153">
        <ele>168.7</ele>
        <time>2024-05-26T09:51:43Z</time>
      </trkpt>
      <trkpt lat="48.79821" lon="2.25152">
        <ele>168.7</ele>
        <time>2024-05-26T09:51:44Z</time>
      </trkpt>
      <trkpt lat="48.79821" lon="2.2515">
        <ele>168.7</ele>
        <time>2024-05-26T09:51:45Z</time>
      </trkpt>
      <trkpt lat="48.79821" lon="2.2515">
        <ele>168.7</ele>
        <time>2024-05-26T09:51:46Z</time>
      </trkpt>
      <trkpt lat="48.7982" lon="2.25148">
        <ele>168.7</ele>
        <time>2024-05-26T09:51:47Z</time>
      </trkpt>
      <trkpt lat="48.79819" lon="2.25147">
        <ele>168.7</ele>
        <time>2024-05-26T09:51:48Z</time>
      </trkpt>
      <trkpt lat="48.79817" lon="2.25145">
        <ele>168.7</ele>
        <time>2024-05-26T09:51:49Z</time>
      </trkpt>
      <trkpt lat="48.79817" lon="2.25144">
        <ele>168.7</ele>
        <time>2024-05-26T09:51:50Z</time>
      </trkpt>
      <trkpt lat="48.79816" lon="2.25143">
        <ele>168.7</ele>
        <time>2024-05-26T09:51:51Z</time>
      </trkpt>
      <trkpt lat="48.79816" lon="2.25141">
        <ele>168.7</ele>
        <time>2024-05-26T09:51:52Z</time>
      </trkpt>
      <trkpt lat="48.79815" lon="2.2514">
        <ele>168.8</ele>
        <time>2024-05-26T09:51:53Z</time>
      </trkpt>
      <trkpt lat="48.79815" lon="2.25139">
        <ele>168.8</ele>
        <time>2024-05-26T09:51:54Z</time>
      </trkpt>
      <trkpt lat="48.79814" lon="2.25137">
        <ele>168.8</ele>
        <time>2024-05-26T09:51:55Z</time>
      </trkpt>
      <trkpt lat="48.79813" lon="2.25137">
        <ele>168.8</ele>
        <time>2024-05-26T09:51:56Z</time>
      </trkpt>
      <trkpt lat="48.79812" lon="2.25136">
        <ele>168.8</ele>
        <time>2024-05-26T09:51:57Z</time>
      </trkpt>
      <trkpt lat="48.79811" lon="2.25134">
        <ele>168.8</ele>
        <time>2024-05-26T09:51:58Z</time>
      </trkpt>
      <trkpt lat="48.79811" lon="2.25133">
        <ele>168.8</ele>
        <time>2024-05-26T09:51:59Z</time>
      </trkpt>
      <trkpt lat="48.7981" lon="2.25132">
        <ele>168.8</ele>
        <time>2024-05-26T09:52:00Z</time>
      </trkpt>
      <trkpt lat="48.79811" lon="2.25131">
        <ele>168.8</ele>
        <time>2024-05-26T09:52:01Z</time>
      </trkpt>
      <trkpt lat="48.79811" lon="2.2513">
        <ele>168.8</ele>
        <time>2024-05-26T09:52:02Z</time>
      </trkpt>
      <trkpt lat="48.7981" lon="2.25129">
        <ele>168.8</ele>
        <time>2024-05-26T09:52:03Z</time>
      </trkpt>
      <trkpt lat="48.79809" lon="2.25127">
        <ele>168.8</ele>
        <time>2024-05-26T09:52:04Z</time>
      </trkpt>
      <trkpt lat="48.79809" lon="2.25126">
        <ele>168.8</ele>
        <time>2024-05-26T09:52:05Z</time>
      </trkpt>
      <trkpt lat="48.7981" lon="2.25125">
        <ele>168.8</ele>
        <time>2024-05-26T09:52:06Z</time>
      </trkpt>
      <trkpt lat="48.79809" lon="2.25124">
        <ele>168.8</ele>
        <time>2024-05-26T09:52:07Z</time>
      </trkpt>
      <trkpt lat="48.79808" lon="2.25124">
        <ele>168.8</ele>
        <time>2024-05-26T09:52:08Z</time>
      </trkpt>
      <trkpt lat="48.79808" lon="2.25123">
        <ele>168.8</ele>
        <time>2024-05-26T09:52:09Z</time>
      </trkpt>
      <trkpt lat="48.79808" lon="2.25123">
        <ele>168.8</ele>
        <time>2024-05-26T09:52:11Z</time>
      </trkpt>
      <trkpt lat="48.79808" lon="2.25123">
        <ele>168.8</ele>
        <time>2024-05-26T09:52:12Z</time>
      </trkpt>
      <trkpt lat="48.79808" lon="2.25123">
        <ele>168.8</ele>
        <time>2024-05-26T09:52:13Z</time>
      </trkpt>
      <trkpt lat="48.79807" lon="2.25123">
        <ele>168.8</ele>
        <time>2024-05-26T09:52:14Z</time>
      </trkpt>
      <trkpt lat="48.79807" lon="2.25121">
        <ele>168.8</ele>
        <time>2024-05-26T09:52:15Z</time>
      </trkpt>
      <trkpt lat="48.79807" lon="2.2512">
        <ele>168.8</ele>
        <time>2024-05-26T09:52:16Z</time>
      </trkpt>
      <trkpt lat="48.79807" lon="2.2512">
        <ele>168.8</ele>
        <time>2024-05-26T09:52:17Z</time>
      </trkpt>
      <trkpt lat="48.79806" lon="2.2512">
        <ele>168.8</ele>
        <time>2024-05-26T09:52:18Z</time>
      </trkpt>
      <trkpt lat="48.79806" lon="2.25118">
        <ele>168.8</ele>
        <time>2024-05-26T09:52:19Z</time>
      </trkpt>
      <trkpt lat="48.79805" lon="2.25116">
        <ele>168.8</ele>
        <time>2024-05-26T09:52:20Z</time>
      </trkpt>
      <trkpt lat="48.79805" lon="2.25114">
        <ele>168.8</ele>
        <time>2024-05-26T09:52:21Z</time>
      </trkpt>
      <trkpt lat="48.79805" lon="2.25112">
        <ele>168.8</ele>
        <time>2024-05-26T09:52:22Z</time>
      </trkpt>
      <trkpt lat="48.79805" lon="2.25111">
        <ele>168.8</ele>
        <time>2024-05-26T09:52:23Z</time>
      </trkpt>
      <trkpt lat="48.79805" lon="2.25108">
        <ele>168.8</ele>
        <time>2024-05-26T09:52:24Z</time>
      </trkpt>
      <trkpt lat="48.79804" lon="2.25107">
        <ele>168.9</ele>
        <time>2024-05-26T09:52:25Z</time>
      </trkpt>
      <trkpt lat="48.79804" lon="2.25106">
        <ele>168.9</ele>
        <time>2024-05-26T09:52:26Z</time>
      </trkpt>
      <trkpt lat="48.79804" lon="2.25106">
        <ele>168.9</ele>
        <time>2024-05-26T09:52:27Z</time>
      </trkpt>
      <trkpt lat="48.79804" lon="2.25106">
        <ele>168.9</ele>
        <time>2024-05-26T09:52:28Z</time>
      </trkpt>
      <trkpt lat="48.79803" lon="2.25105">
        <ele>168.9</ele>
        <time>2024-05-26T09:52:29Z</time>
      </trkpt>
      <trkpt lat="48.79803" lon="2.25103">
        <ele>168.9</ele>
        <time>2024-05-26T09:52:30Z</time>
      </trkpt>
      <trkpt lat="48.79803" lon="2.25101">
        <ele>168.9</ele>
        <time>2024-05-26T09:52:31Z</time>
      </trkpt>
      <trkpt lat="48.79802" lon="2.25098">
        <ele>168.9</ele>
        <time>2024-05-26T09:52:32Z</time>
      </trkpt>
      <trkpt lat="48.79802" lon="2.25097">
        <ele>168.9</ele>
        <time>2024-05-26T09:52:33Z</time>
      </trkpt>
      <trkpt lat="48.79802" lon="2.25096">
        <ele>168.9</ele>
        <time>2024-05-26T09:52:34Z</time>
      </trkpt>
      <trkpt lat="48.79802" lon="2.25095">
        <ele>168.9</ele>
        <time>2024-05-26T09:52:35Z</time>
      </trkpt>
      <trkpt lat="48.79802" lon="2.25094">
        <ele>168.9</ele>
        <time>2024-05-26T09:52:36Z</time>
      </trkpt>
      <trkpt lat="48.79801" lon="2.25092">
        <ele>168.9</ele>
        <time>2024-05-26T09:52:37Z</time>
      </trkpt>
      <trkpt lat="48.79799" lon="2.25089">
        <ele>168.9</ele>
        <time>2024-05-26T09:52:38Z</time>
      </trkpt>
      <trkpt lat="48.79798" lon="2.25087">
        <ele>168.9</ele>
        <time>2024-05-26T09:52:39Z</time>
      </trkpt>
      <trkpt lat="48.79798" lon="2.25086">
        <ele>168.9</ele>
        <time>2024-05-26T09:52:40Z</time>
      </trkpt>
      <trkpt lat="48.79798" lon="2.25085">
        <ele>168.9</ele>
        <time>2024-05-26T09:52:41Z</time>
      </trkpt>
      <trkpt lat="48.79797" lon="2.25084">
        <ele>168.9</ele>
        <time>2024-05-26T09:52:42Z</time>
      </trkpt>
      <trkpt lat="48.79798" lon="2.25084">
        <ele>168.9</ele>
        <time>2024-05-26T09:52:43Z</time>
      </trkpt>
      <trkpt lat="48.79798" lon="2.25082">
        <ele>168.9</ele>
        <time>2024-05-26T09:52:44Z</time>
      </trkpt>
      <trkpt lat="48.79798" lon="2.2508">
        <ele>168.9</ele>
        <time>2024-05-26T09:52:45Z</time>
      </trkpt>
      <trkpt lat="48.79797" lon="2.25078">
        <ele>168.9</ele>
        <time>2024-05-26T09:52:46Z</time>
      </trkpt>
      <trkpt lat="48.79797" lon="2.25074">
        <ele>168.9</ele>
        <time>2024-05-26T09:52:47Z</time>
      </trkpt>
      <trkpt lat="48.79797" lon="2.25072">
        <ele>168.9</ele>
        <time>2024-05-26T09:52:48Z</time>
      </trkpt>
      <trkpt lat="48.79797" lon="2.25067">
        <ele>168.9</ele>
        <time>2024-05-26T09:52:49Z</time>
      </trkpt>
      <trkpt lat="48.79797" lon="2.25065">
        <ele>168.9</ele>
        <time>2024-05-26T09:52:50Z</time>
      </trkpt>
      <trkpt lat="48.79797" lon="2.25061">
        <ele>168.9</ele>
        <time>2024-05-26T09:52:51Z</time>
      </trkpt>
      <trkpt lat="48.79796" lon="2.2506">
        <ele>168.9</ele>
        <time>2024-05-26T09:52:52Z</time>
      </trkpt>
      <trkpt lat="48.79795" lon="2.25059">
        <ele>168.9</ele>
        <time>2024-05-26T09:52:53Z</time>
      </trkpt>
      <trkpt lat="48.79794" lon="2.25059">
        <ele>168.9</ele>
        <time>2024-05-26T09:52:54Z</time>
      </trkpt>
      <trkpt lat="48.79793" lon="2.25057">
        <ele>168.9</ele>
        <time>2024-05-26T09:52:55Z</time>
      </trkpt>
      <trkpt lat="48.79792" lon="2.25055">
        <ele>168.9</ele>
        <time>2024-05-26T09:52:56Z</time>
      </trkpt>
      <trkpt lat="48.79791" lon="2.25054">
        <ele>168.9</ele>
        <time>2024-05-26T09:52:57Z</time>
      </trkpt>
      <trkpt lat="48.79791" lon="2.25053">
        <ele>168.9</ele>
        <time>2024-05-26T09:52:58Z</time>
      </trkpt>
      <trkpt lat="48.79789" lon="2.25052">
        <ele>168.9</ele>
        <time>2024-05-26T09:52:59Z</time>
      </trkpt>
      <trkpt lat="48.79788" lon="2.25051">
        <ele>168.9</ele>
        <time>2024-05-26T09:53:00Z</time>
      </trkpt>
      <trkpt lat="48.79786" lon="2.25049">
        <ele>168.9</ele>
        <time>2024-05-26T09:53:01Z</time>
      </trkpt>
      <trkpt lat="48.79785" lon="2.25048">
        <ele>168.9</ele>
        <time>2024-05-26T09:53:02Z</time>
      </trkpt>
      <trkpt lat="48.79784" lon="2.25047">
        <ele>168.9</ele>
        <time>2024-05-26T09:53:03Z</time>
      </trkpt>
      <trkpt lat="48.79783" lon="2.25047">
        <ele>168.9</ele>
        <time>2024-05-26T09:53:04Z</time>
      </trkpt>
      <trkpt lat="48.79782" lon="2.25046">
        <ele>168.9</ele>
        <time>2024-05-26T09:53:05Z</time>
      </trkpt>
      <trkpt lat="48.7978" lon="2.25045">
        <ele>168.9</ele>
        <time>2024-05-26T09:53:06Z</time>
      </trkpt>
      <trkpt lat="48.79779" lon="2.25044">
        <ele>168.9</ele>
        <time>2024-05-26T09:53:07Z</time>
      </trkpt>
      <trkpt lat="48.79778" lon="2.25044">
        <ele>168.9</ele>
        <time>2024-05-26T09:53:08Z</time>
      </trkpt>
      <trkpt lat="48.79777" lon="2.25043">
        <ele>168.9</ele>
        <time>2024-05-26T09:53:09Z</time>
      </trkpt>
      <trkpt lat="48.79776" lon="2.25042">
        <ele>168.9</ele>
        <time>2024-05-26T09:53:10Z</time>
      </trkpt>
      <trkpt lat="48.79776" lon="2.25042">
        <ele>168.9</ele>
        <time>2024-05-26T09:53:11Z</time>
      </trkpt>
      <trkpt lat="48.79775" lon="2.25041">
        <ele>168.9</ele>
        <time>2024-05-26T09:53:12Z</time>
      </trkpt>
      <trkpt lat="48.79775" lon="2.25041">
        <ele>168.9</ele>
        <time>2024-05-26T09:53:13Z</time>
      </trkpt>
      <trkpt lat="48.79774" lon="2.2504">
        <ele>168.9</ele>
        <time>2024-05-26T09:53:14Z</time>
      </trkpt>
      <trkpt lat="48.79772" lon="2.25039">
        <ele>168.9</ele>
        <time>2024-05-26T09:53:15Z</time>
      </trkpt>
      <trkpt lat="48.7977" lon="2.25038">
        <ele>168.9</ele>
        <time>2024-05-26T09:53:16Z</time>
      </trkpt>
      <trkpt lat="48.79769" lon="2.25037">
        <ele>168.9</ele>
        <time>2024-05-26T09:53:17Z</time>
      </trkpt>
      <trkpt lat="48.79768" lon="2.25037">
        <ele>168.9</ele>
        <time>2024-05-26T09:53:18Z</time>
      </trkpt>
      <trkpt lat="48.79767" lon="2.25036">
        <ele>168.9</ele>
        <time>2024-05-26T09:53:19Z</time>
      </trkpt>
      <trkpt lat="48.79765" lon="2.25036">
        <ele>168.9</ele>
        <time>2024-05-26T09:53:20Z</time>
      </trkpt>
      <trkpt lat="48.79764" lon="2.25036">
        <ele>168.9</ele>
        <time>2024-05-26T09:53:21Z</time>
      </trkpt>
      <trkpt lat="48.79763" lon="2.25035">
        <ele>168.9</ele>
        <time>2024-05-26T09:53:22Z</time>
      </trkpt>
      <trkpt lat="48.79762" lon="2.25035">
        <ele>168.9</ele>
        <time>2024-05-26T09:53:23Z</time>
      </trkpt>
      <trkpt lat="48.79761" lon="2.25036">
        <ele>168.9</ele>
        <time>2024-05-26T09:53:24Z</time>
      </trkpt>
      <trkpt lat="48.7976" lon="2.25036">
        <ele>168.9</ele>
        <time>2024-05-26T09:53:25Z</time>
      </trkpt>
      <trkpt lat="48.79759" lon="2.25037">
        <ele>168.9</ele>
        <time>2024-05-26T09:53:26Z</time>
      </trkpt>
      <trkpt lat="48.79758" lon="2.25036">
        <ele>168.9</ele>
        <time>2024-05-26T09:53:27Z</time>
      </trkpt>
      <trkpt lat="48.79756" lon="2.25035">
        <ele>168.9</ele>
        <time>2024-05-26T09:53:28Z</time>
      </trkpt>
      <trkpt lat="48.79755" lon="2.25035">
        <ele>168.9</ele>
        <time>2024-05-26T09:53:29Z</time>
      </trkpt>
      <trkpt lat="48.79754" lon="2.25034">
        <ele>168.9</ele>
        <time>2024-05-26T09:53:30Z</time>
      </trkpt>
      <trkpt lat="48.79753" lon="2.25034">
        <ele>168.9</ele>
        <time>2024-05-26T09:53:31Z</time>
      </trkpt>
      <trkpt lat="48.79752" lon="2.25033">
        <ele>168.9</ele>
        <time>2024-05-26T09:53:32Z</time>
      </trkpt>
      <trkpt lat="48.79751" lon="2.25033">
        <ele>168.9</ele>
        <time>2024-05-26T09:53:33Z</time>
      </trkpt>
      <trkpt lat="48.7975" lon="2.25032">
        <ele>168.9</ele>
        <time>2024-05-26T09:53:34Z</time>
      </trkpt>
      <trkpt lat="48.79749" lon="2.25031">
        <ele>168.9</ele>
        <time>2024-05-26T09:53:35Z</time>
      </trkpt>
      <trkpt lat="48.79748" lon="2.25031">
        <ele>168.9</ele>
        <time>2024-05-26T09:53:36Z</time>
      </trkpt>
      <trkpt lat="48.79746" lon="2.2503">
        <ele>168.9</ele>
        <time>2024-05-26T09:53:37Z</time>
      </trkpt>
      <trkpt lat="48.79745" lon="2.2503">
        <ele>168.9</ele>
        <time>2024-05-26T09:53:38Z</time>
      </trkpt>
      <trkpt lat="48.79744" lon="2.25029">
        <ele>168.9</ele>
        <time>2024-05-26T09:53:39Z</time>
      </trkpt>
      <trkpt lat="48.79743" lon="2.25029">
        <ele>168.9</ele>
        <time>2024-05-26T09:53:40Z</time>
      </trkpt>
      <trkpt lat="48.79742" lon="2.25029">
        <ele>168.9</ele>
        <time>2024-05-26T09:53:41Z</time>
      </trkpt>
      <trkpt lat="48.7974" lon="2.25028">
        <ele>168.9</ele>
        <time>2024-05-26T09:53:42Z</time>
      </trkpt>
      <trkpt lat="48.79739" lon="2.25028">
        <ele>168.9</ele>
        <time>2024-05-26T09:53:43Z</time>
      </trkpt>
      <trkpt lat="48.79738" lon="2.25027">
        <ele>168.9</ele>
        <time>2024-05-26T09:53:44Z</time>
      </trkpt>
      <trkpt lat="48.79736" lon="2.25026">
        <ele>168.9</ele>
        <time>2024-05-26T09:53:45Z</time>
      </trkpt>
      <trkpt lat="48.79735" lon="2.25026">
        <ele>168.9</ele>
        <time>2024-05-26T09:53:46Z</time>
      </trkpt>
      <trkpt lat="48.79735" lon="2.25026">
        <ele>169</ele>
        <time>2024-05-26T09:53:47Z</time>
      </trkpt>
      <trkpt lat="48.79733" lon="2.25025">
        <ele>169</ele>
        <time>2024-05-26T09:53:48Z</time>
      </trkpt>
      <trkpt lat="48.79732" lon="2.25023">
        <ele>169</ele>
        <time>2024-05-26T09:53:49Z</time>
      </trkpt>
      <trkpt lat="48.79731" lon="2.25022">
        <ele>169</ele>
        <time>2024-05-26T09:53:50Z</time>
      </trkpt>
      <trkpt lat="48.7973" lon="2.25022">
        <ele>169</ele>
        <time>2024-05-26T09:53:51Z</time>
      </trkpt>
      <trkpt lat="48.79729" lon="2.2502">
        <ele>169</ele>
        <time>2024-05-26T09:53:52Z</time>
      </trkpt>
      <trkpt lat="48.79727" lon="2.25018">
        <ele>169</ele>
        <time>2024-05-26T09:53:53Z</time>
      </trkpt>
      <trkpt lat="48.79726" lon="2.25018">
        <ele>169</ele>
        <time>2024-05-26T09:53:54Z</time>
      </trkpt>
      <trkpt lat="48.79724" lon="2.25018">
        <ele>169</ele>
        <time>2024-05-26T09:53:55Z</time>
      </trkpt>
      <trkpt lat="48.79722" lon="2.25019">
        <ele>169</ele>
        <time>2024-05-26T09:53:56Z</time>
      </trkpt>
      <trkpt lat="48.79721" lon="2.25019">
        <ele>169</ele>
        <time>2024-05-26T09:53:57Z</time>
      </trkpt>
      <trkpt lat="48.79719" lon="2.25019">
        <ele>169</ele>
        <time>2024-05-26T09:53:58Z</time>
      </trkpt>
      <trkpt lat="48.79718" lon="2.25019">
        <ele>169.1</ele>
        <time>2024-05-26T09:53:59Z</time>
      </trkpt>
      <trkpt lat="48.79718" lon="2.25019">
        <ele>169.1</ele>
        <time>2024-05-26T09:54:00Z</time>
      </trkpt>
      <trkpt lat="48.79717" lon="2.2502">
        <ele>169.1</ele>
        <time>2024-05-26T09:54:01Z</time>
      </trkpt>
      <trkpt lat="48.79716" lon="2.2502">
        <ele>169.1</ele>
        <time>2024-05-26T09:54:02Z</time>
      </trkpt>
      <trkpt lat="48.79715" lon="2.2502">
        <ele>169.1</ele>
        <time>2024-05-26T09:54:03Z</time>
      </trkpt>
      <trkpt lat="48.79714" lon="2.2502">
        <ele>169.2</ele>
        <time>2024-05-26T09:54:04Z</time>
      </trkpt>
      <trkpt lat="48.79714" lon="2.25021">
        <ele>169.2</ele>
        <time>2024-05-26T09:54:05Z</time>
      </trkpt>
      <trkpt lat="48.79713" lon="2.25022">
        <ele>169.2</ele>
        <time>2024-05-26T09:54:06Z</time>
      </trkpt>
      <trkpt lat="48.79712" lon="2.25022">
        <ele>169.2</ele>
        <time>2024-05-26T09:54:07Z</time>
      </trkpt>
      <trkpt lat="48.79711" lon="2.25023">
        <ele>169.2</ele>
        <time>2024-05-26T09:54:08Z</time>
      </trkpt>
      <trkpt lat="48.7971" lon="2.25023">
        <ele>169.2</ele>
        <time>2024-05-26T09:54:09Z</time>
      </trkpt>
      <trkpt lat="48.7971" lon="2.25023">
        <ele>169.2</ele>
        <time>2024-05-26T09:54:10Z</time>
      </trkpt>
      <trkpt lat="48.79709" lon="2.25023">
        <ele>169.3</ele>
        <time>2024-05-26T09:54:11Z</time>
      </trkpt>
      <trkpt lat="48.79707" lon="2.25023">
        <ele>169.3</ele>
        <time>2024-05-26T09:54:12Z</time>
      </trkpt>
      <trkpt lat="48.79706" lon="2.25023">
        <ele>169.3</ele>
        <time>2024-05-26T09:54:13Z</time>
      </trkpt>
      <trkpt lat="48.79704" lon="2.25024">
        <ele>169.3</ele>
        <time>2024-05-26T09:54:14Z</time>
      </trkpt>
      <trkpt lat="48.79703" lon="2.25024">
        <ele>169.3</ele>
        <time>2024-05-26T09:54:15Z</time>
      </trkpt>
      <trkpt lat="48.79702" lon="2.25025">
        <ele>169.4</ele>
        <time>2024-05-26T09:54:17Z</time>
      </trkpt>
      <trkpt lat="48.79698" lon="2.25025">
        <ele>169.4</ele>
        <time>2024-05-26T09:54:18Z</time>
      </trkpt>
      <trkpt lat="48.79698" lon="2.25025">
        <ele>169.4</ele>
        <time>2024-05-26T09:54:19Z</time>
      </trkpt>
      <trkpt lat="48.79696" lon="2.25026">
        <ele>169.4</ele>
        <time>2024-05-26T09:54:20Z</time>
      </trkpt>
      <trkpt lat="48.79695" lon="2.25026">
        <ele>169.4</ele>
        <time>2024-05-26T09:54:21Z</time>
      </trkpt>
      <trkpt lat="48.79694" lon="2.25027">
        <ele>169.5</ele>
        <time>2024-05-26T09:54:22Z</time>
      </trkpt>
      <trkpt lat="48.79693" lon="2.25027">
        <ele>169.5</ele>
        <time>2024-05-26T09:54:23Z</time>
      </trkpt>
      <trkpt lat="48.79692" lon="2.25027">
        <ele>169.5</ele>
        <time>2024-05-26T09:54:24Z</time>
      </trkpt>
      <trkpt lat="48.79691" lon="2.25027">
        <ele>169.5</ele>
        <time>2024-05-26T09:54:25Z</time>
      </trkpt>
      <trkpt lat="48.7969" lon="2.25028">
        <ele>169.5</ele>
        <time>2024-05-26T09:54:26Z</time>
      </trkpt>
      <trkpt lat="48.79689" lon="2.25028">
        <ele>169.5</ele>
        <time>2024-05-26T09:54:27Z</time>
      </trkpt>
      <trkpt lat="48.79687" lon="2.25028">
        <ele>169.6</ele>
        <time>2024-05-26T09:54:28Z</time>
      </trkpt>
      <trkpt lat="48.79686" lon="2.25027">
        <ele>169.6</ele>
        <time>2024-05-26T09:54:29Z</time>
      </trkpt>
      <trkpt lat="48.79685" lon="2.25027">
        <ele>169.6</ele>
        <time>2024-05-26T09:54:30Z</time>
      </trkpt>
      <trkpt lat="48.79684" lon="2.25026">
        <ele>169.6</ele>
        <time>2024-05-26T09:54:31Z</time>
      </trkpt>
      <trkpt lat="48.79683" lon="2.25026">
        <ele>169.7</ele>
        <time>2024-05-26T09:54:32Z</time>
      </trkpt>
      <trkpt lat="48.79682" lon="2.25026">
        <ele>169.7</ele>
        <time>2024-05-26T09:54:33Z</time>
      </trkpt>
      <trkpt lat="48.7968" lon="2.25027">
        <ele>169.7</ele>
        <time>2024-05-26T09:54:34Z</time>
      </trkpt>
      <trkpt lat="48.7968" lon="2.25027">
        <ele>169.7</ele>
        <time>2024-05-26T09:54:35Z</time>
      </trkpt>
      <trkpt lat="48.79678" lon="2.25027">
        <ele>169.7</ele>
        <time>2024-05-26T09:54:36Z</time>
      </trkpt>
      <trkpt lat="48.79675" lon="2.25029">
        <ele>169.7</ele>
        <time>2024-05-26T09:54:37Z</time>
      </trkpt>
      <trkpt lat="48.79674" lon="2.25029">
        <ele>169.8</ele>
        <time>2024-05-26T09:54:38Z</time>
      </trkpt>
      <trkpt lat="48.79672" lon="2.25029">
        <ele>169.8</ele>
        <time>2024-05-26T09:54:39Z</time>
      </trkpt>
      <trkpt lat="48.79671" lon="2.25029">
        <ele>169.8</ele>
        <time>2024-05-26T09:54:40Z</time>
      </trkpt>
      <trkpt lat="48.79668" lon="2.25028">
        <ele>169.9</ele>
        <time>2024-05-26T09:54:41Z</time>
      </trkpt>
      <trkpt lat="48.79668" lon="2.25027">
        <ele>169.9</ele>
        <time>2024-05-26T09:54:42Z</time>
      </trkpt>
      <trkpt lat="48.79667" lon="2.25025">
        <ele>169.9</ele>
        <time>2024-05-26T09:54:43Z</time>
      </trkpt>
      <trkpt lat="48.79666" lon="2.25025">
        <ele>169.8</ele>
        <time>2024-05-26T09:54:44Z</time>
      </trkpt>
      <trkpt lat="48.79666" lon="2.25025">
        <ele>169.8</ele>
        <time>2024-05-26T09:54:45Z</time>
      </trkpt>
      <trkpt lat="48.79665" lon="2.25024">
        <ele>169.8</ele>
        <time>2024-05-26T09:54:46Z</time>
      </trkpt>
      <trkpt lat="48.79664" lon="2.25023">
        <ele>169.8</ele>
        <time>2024-05-26T09:54:47Z</time>
      </trkpt>
      <trkpt lat="48.79663" lon="2.25022">
        <ele>169.8</ele>
        <time>2024-05-26T09:54:48Z</time>
      </trkpt>
      <trkpt lat="48.79662" lon="2.2502">
        <ele>169.8</ele>
        <time>2024-05-26T09:54:49Z</time>
      </trkpt>
      <trkpt lat="48.79661" lon="2.25019">
        <ele>169.8</ele>
        <time>2024-05-26T09:54:50Z</time>
      </trkpt>
      <trkpt lat="48.7966" lon="2.25018">
        <ele>169.7</ele>
        <time>2024-05-26T09:54:51Z</time>
      </trkpt>
      <trkpt lat="48.79659" lon="2.25018">
        <ele>169.7</ele>
        <time>2024-05-26T09:54:52Z</time>
      </trkpt>
      <trkpt lat="48.79658" lon="2.25016">
        <ele>169.7</ele>
        <time>2024-05-26T09:54:53Z</time>
      </trkpt>
      <trkpt lat="48.79657" lon="2.25015">
        <ele>169.7</ele>
        <time>2024-05-26T09:54:54Z</time>
      </trkpt>
      <trkpt lat="48.79656" lon="2.25014">
        <ele>169.7</ele>
        <time>2024-05-26T09:54:55Z</time>
      </trkpt>
      <trkpt lat="48.79653" lon="2.2501">
        <ele>169.6</ele>
        <time>2024-05-26T09:54:56Z</time>
      </trkpt>
      <trkpt lat="48.79652" lon="2.25009">
        <ele>169.6</ele>
        <time>2024-05-26T09:54:57Z</time>
      </trkpt>
      <trkpt lat="48.79651" lon="2.25007">
        <ele>169.6</ele>
        <time>2024-05-26T09:54:58Z</time>
      </trkpt>
      <trkpt lat="48.7965" lon="2.25006">
        <ele>169.6</ele>
        <time>2024-05-26T09:54:59Z</time>
      </trkpt>
      <trkpt lat="48.7965" lon="2.25004">
        <ele>169.6</ele>
        <time>2024-05-26T09:55:00Z</time>
      </trkpt>
      <trkpt lat="48.7965" lon="2.25003">
        <ele>169.6</ele>
        <time>2024-05-26T09:55:01Z</time>
      </trkpt>
      <trkpt lat="48.79648" lon="2.25001">
        <ele>169.6</ele>
        <time>2024-05-26T09:55:02Z</time>
      </trkpt>
      <trkpt lat="48.79647" lon="2.24998">
        <ele>169.5</ele>
        <time>2024-05-26T09:55:03Z</time>
      </trkpt>
      <trkpt lat="48.79647" lon="2.24997">
        <ele>169.5</ele>
        <time>2024-05-26T09:55:04Z</time>
      </trkpt>
      <trkpt lat="48.79646" lon="2.24996">
        <ele>169.5</ele>
        <time>2024-05-26T09:55:05Z</time>
      </trkpt>
      <trkpt lat="48.79646" lon="2.24995">
        <ele>169.5</ele>
        <time>2024-05-26T09:55:06Z</time>
      </trkpt>
      <trkpt lat="48.79645" lon="2.24994">
        <ele>169.5</ele>
        <time>2024-05-26T09:55:07Z</time>
      </trkpt>
      <trkpt lat="48.79644" lon="2.24992">
        <ele>169.4</ele>
        <time>2024-05-26T09:55:08Z</time>
      </trkpt>
      <trkpt lat="48.79643" lon="2.24991">
        <ele>169.4</ele>
        <time>2024-05-26T09:55:09Z</time>
      </trkpt>
      <trkpt lat="48.79642" lon="2.2499">
        <ele>169.4</ele>
        <time>2024-05-26T09:55:10Z</time>
      </trkpt>
      <trkpt lat="48.79642" lon="2.24988">
        <ele>169.4</ele>
        <time>2024-05-26T09:55:11Z</time>
      </trkpt>
      <trkpt lat="48.79641" lon="2.24986">
        <ele>169.4</ele>
        <time>2024-05-26T09:55:12Z</time>
      </trkpt>
      <trkpt lat="48.7964" lon="2.24984">
        <ele>169.3</ele>
        <time>2024-05-26T09:55:13Z</time>
      </trkpt>
      <trkpt lat="48.79639" lon="2.24983">
        <ele>169.3</ele>
        <time>2024-05-26T09:55:14Z</time>
      </trkpt>
      <trkpt lat="48.79638" lon="2.24979">
        <ele>169.3</ele>
        <time>2024-05-26T09:55:15Z</time>
      </trkpt>
      <trkpt lat="48.79637" lon="2.24978">
        <ele>169.2</ele>
        <time>2024-05-26T09:55:16Z</time>
      </trkpt>
      <trkpt lat="48.79636" lon="2.24976">
        <ele>169.2</ele>
        <time>2024-05-26T09:55:17Z</time>
      </trkpt>
      <trkpt lat="48.79635" lon="2.24975">
        <ele>169.2</ele>
        <time>2024-05-26T09:55:18Z</time>
      </trkpt>
      <trkpt lat="48.79635" lon="2.24974">
        <ele>169.2</ele>
        <time>2024-05-26T09:55:19Z</time>
      </trkpt>
      <trkpt lat="48.79634" lon="2.24972">
        <ele>169.1</ele>
        <time>2024-05-26T09:55:20Z</time>
      </trkpt>
      <trkpt lat="48.79633" lon="2.24971">
        <ele>169.1</ele>
        <time>2024-05-26T09:55:21Z</time>
      </trkpt>
      <trkpt lat="48.79632" lon="2.2497">
        <ele>169.1</ele>
        <time>2024-05-26T09:55:22Z</time>
      </trkpt>
      <trkpt lat="48.79631" lon="2.24967">
        <ele>169.1</ele>
        <time>2024-05-26T09:55:23Z</time>
      </trkpt>
      <trkpt lat="48.7963" lon="2.24966">
        <ele>169</ele>
        <time>2024-05-26T09:55:24Z</time>
      </trkpt>
      <trkpt lat="48.7963" lon="2.24964">
        <ele>169</ele>
        <time>2024-05-26T09:55:25Z</time>
      </trkpt>
      <trkpt lat="48.79629" lon="2.24963">
        <ele>169</ele>
        <time>2024-05-26T09:55:26Z</time>
      </trkpt>
      <trkpt lat="48.79628" lon="2.24961">
        <ele>169</ele>
        <time>2024-05-26T09:55:27Z</time>
      </trkpt>
      <trkpt lat="48.79627" lon="2.2496">
        <ele>168.9</ele>
        <time>2024-05-26T09:55:28Z</time>
      </trkpt>
      <trkpt lat="48.79626" lon="2.24959">
        <ele>168.9</ele>
        <time>2024-05-26T09:55:29Z</time>
      </trkpt>
      <trkpt lat="48.79624" lon="2.24957">
        <ele>168.9</ele>
        <time>2024-05-26T09:55:30Z</time>
      </trkpt>
      <trkpt lat="48.79624" lon="2.24956">
        <ele>168.9</ele>
        <time>2024-05-26T09:55:31Z</time>
      </trkpt>
      <trkpt lat="48.79623" lon="2.24954">
        <ele>168.9</ele>
        <time>2024-05-26T09:55:32Z</time>
      </trkpt>
      <trkpt lat="48.79622" lon="2.24953">
        <ele>168.9</ele>
        <time>2024-05-26T09:55:33Z</time>
      </trkpt>
      <trkpt lat="48.79621" lon="2.24952">
        <ele>168.8</ele>
        <time>2024-05-26T09:55:34Z</time>
      </trkpt>
      <trkpt lat="48.7962" lon="2.2495">
        <ele>168.8</ele>
        <time>2024-05-26T09:55:35Z</time>
      </trkpt>
      <trkpt lat="48.79618" lon="2.24949">
        <ele>168.8</ele>
        <time>2024-05-26T09:55:36Z</time>
      </trkpt>
      <trkpt lat="48.79618" lon="2.24947">
        <ele>168.8</ele>
        <time>2024-05-26T09:55:37Z</time>
      </trkpt>
      <trkpt lat="48.79617" lon="2.24944">
        <ele>168.8</ele>
        <time>2024-05-26T09:55:38Z</time>
      </trkpt>
      <trkpt lat="48.79616" lon="2.24942">
        <ele>168.8</ele>
        <time>2024-05-26T09:55:39Z</time>
      </trkpt>
      <trkpt lat="48.79616" lon="2.24939">
        <ele>168.8</ele>
        <time>2024-05-26T09:55:40Z</time>
      </trkpt>
      <trkpt lat="48.79615" lon="2.24937">
        <ele>168.8</ele>
        <time>2024-05-26T09:55:41Z</time>
      </trkpt>
      <trkpt lat="48.79614" lon="2.24935">
        <ele>168.7</ele>
        <time>2024-05-26T09:55:42Z</time>
      </trkpt>
      <trkpt lat="48.79613" lon="2.24934">
        <ele>168.7</ele>
        <time>2024-05-26T09:55:43Z</time>
      </trkpt>
      <trkpt lat="48.79611" lon="2.24934">
        <ele>168.7</ele>
        <time>2024-05-26T09:55:44Z</time>
      </trkpt>
      <trkpt lat="48.79609" lon="2.24933">
        <ele>168.7</ele>
        <time>2024-05-26T09:55:45Z</time>
      </trkpt>
      <trkpt lat="48.79608" lon="2.24931">
        <ele>168.7</ele>
        <time>2024-05-26T09:55:46Z</time>
      </trkpt>
      <trkpt lat="48.79608" lon="2.24929">
        <ele>168.7</ele>
        <time>2024-05-26T09:55:47Z</time>
      </trkpt>
      <trkpt lat="48.79606" lon="2.24927">
        <ele>168.7</ele>
        <time>2024-05-26T09:55:48Z</time>
      </trkpt>
      <trkpt lat="48.79605" lon="2.24926">
        <ele>168.7</ele>
        <time>2024-05-26T09:55:49Z</time>
      </trkpt>
      <trkpt lat="48.79603" lon="2.24925">
        <ele>168.7</ele>
        <time>2024-05-26T09:55:50Z</time>
      </trkpt>
      <trkpt lat="48.79601" lon="2.24926">
        <ele>168.7</ele>
        <time>2024-05-26T09:55:51Z</time>
      </trkpt>
      <trkpt lat="48.796" lon="2.24926">
        <ele>168.7</ele>
        <time>2024-05-26T09:55:52Z</time>
      </trkpt>
      <trkpt lat="48.796" lon="2.24926">
        <ele>168.7</ele>
        <time>2024-05-26T09:55:53Z</time>
      </trkpt>
      <trkpt lat="48.79599" lon="2.24926">
        <ele>168.7</ele>
        <time>2024-05-26T09:55:54Z</time>
      </trkpt>
      <trkpt lat="48.79598" lon="2.24926">
        <ele>168.7</ele>
        <time>2024-05-26T09:55:55Z</time>
      </trkpt>
      <trkpt lat="48.79596" lon="2.24927">
        <ele>168.7</ele>
        <time>2024-05-26T09:55:56Z</time>
      </trkpt>
      <trkpt lat="48.79595" lon="2.24927">
        <ele>168.7</ele>
        <time>2024-05-26T09:55:57Z</time>
      </trkpt>
      <trkpt lat="48.79594" lon="2.24928">
        <ele>168.7</ele>
        <time>2024-05-26T09:55:58Z</time>
      </trkpt>
      <trkpt lat="48.79592" lon="2.24928">
        <ele>168.7</ele>
        <time>2024-05-26T09:55:59Z</time>
      </trkpt>
      <trkpt lat="48.79592" lon="2.24928">
        <ele>168.7</ele>
        <time>2024-05-26T09:56:00Z</time>
      </trkpt>
      <trkpt lat="48.79591" lon="2.24928">
        <ele>168.7</ele>
        <time>2024-05-26T09:56:01Z</time>
      </trkpt>
      <trkpt lat="48.7959" lon="2.24928">
        <ele>168.7</ele>
        <time>2024-05-26T09:56:02Z</time>
      </trkpt>
      <trkpt lat="48.79588" lon="2.24929">
        <ele>168.7</ele>
        <time>2024-05-26T09:56:03Z</time>
      </trkpt>
      <trkpt lat="48.79588" lon="2.2493">
        <ele>168.7</ele>
        <time>2024-05-26T09:56:04Z</time>
      </trkpt>
      <trkpt lat="48.79587" lon="2.2493">
        <ele>168.6</ele>
        <time>2024-05-26T09:56:05Z</time>
      </trkpt>
      <trkpt lat="48.79586" lon="2.24929">
        <ele>168.6</ele>
        <time>2024-05-26T09:56:06Z</time>
      </trkpt>
      <trkpt lat="48.79585" lon="2.24927">
        <ele>168.5</ele>
        <time>2024-05-26T09:56:07Z</time>
      </trkpt>
      <trkpt lat="48.79584" lon="2.24926">
        <ele>168.4</ele>
        <time>2024-05-26T09:56:08Z</time>
      </trkpt>
      <trkpt lat="48.79583" lon="2.24924">
        <ele>168.2</ele>
        <time>2024-05-26T09:56:09Z</time>
      </trkpt>
      <trkpt lat="48.79582" lon="2.24923">
        <ele>168.1</ele>
        <time>2024-05-26T09:56:10Z</time>
      </trkpt>
      <trkpt lat="48.79581" lon="2.24922">
        <ele>168</ele>
        <time>2024-05-26T09:56:11Z</time>
      </trkpt>
      <trkpt lat="48.79581" lon="2.2492">
        <ele>167.9</ele>
        <time>2024-05-26T09:56:12Z</time>
      </trkpt>
      <trkpt lat="48.79582" lon="2.24919">
        <ele>167.8</ele>
        <time>2024-05-26T09:56:13Z</time>
      </trkpt>
      <trkpt lat="48.79581" lon="2.24918">
        <ele>167.7</ele>
        <time>2024-05-26T09:56:14Z</time>
      </trkpt>
      <trkpt lat="48.7958" lon="2.24916">
        <ele>167.6</ele>
        <time>2024-05-26T09:56:15Z</time>
      </trkpt>
      <trkpt lat="48.79579" lon="2.24915">
        <ele>167.5</ele>
        <time>2024-05-26T09:56:16Z</time>
      </trkpt>
      <trkpt lat="48.79578" lon="2.24915">
        <ele>167.4</ele>
        <time>2024-05-26T09:56:17Z</time>
      </trkpt>
      <trkpt lat="48.79577" lon="2.24915">
        <ele>167.4</ele>
        <time>2024-05-26T09:56:18Z</time>
      </trkpt>
      <trkpt lat="48.79577" lon="2.24913">
        <ele>167.3</ele>
        <time>2024-05-26T09:56:19Z</time>
      </trkpt>
      <trkpt lat="48.79576" lon="2.24912">
        <ele>167.2</ele>
        <time>2024-05-26T09:56:20Z</time>
      </trkpt>
      <trkpt lat="48.79574" lon="2.24911">
        <ele>167.1</ele>
        <time>2024-05-26T09:56:21Z</time>
      </trkpt>
      <trkpt lat="48.79573" lon="2.24911">
        <ele>167</ele>
        <time>2024-05-26T09:56:23Z</time>
      </trkpt>
      <trkpt lat="48.79572" lon="2.2491">
        <ele>167</ele>
        <time>2024-05-26T09:56:24Z</time>
      </trkpt>
      <trkpt lat="48.79572" lon="2.2491">
        <ele>166.9</ele>
        <time>2024-05-26T09:56:25Z</time>
      </trkpt>
      <trkpt lat="48.79571" lon="2.24909">
        <ele>166.9</ele>
        <time>2024-05-26T09:56:26Z</time>
      </trkpt>
      <trkpt lat="48.7957" lon="2.24907">
        <ele>166.8</ele>
        <time>2024-05-26T09:56:27Z</time>
      </trkpt>
      <trkpt lat="48.79569" lon="2.24905">
        <ele>166.7</ele>
        <time>2024-05-26T09:56:28Z</time>
      </trkpt>
      <trkpt lat="48.79568" lon="2.24904">
        <ele>166.7</ele>
        <time>2024-05-26T09:56:29Z</time>
      </trkpt>
      <trkpt lat="48.79568" lon="2.24903">
        <ele>166.7</ele>
        <time>2024-05-26T09:56:30Z</time>
      </trkpt>
      <trkpt lat="48.79566" lon="2.24902">
        <ele>166.6</ele>
        <time>2024-05-26T09:56:31Z</time>
      </trkpt>
      <trkpt lat="48.79567" lon="2.24901">
        <ele>166.6</ele>
        <time>2024-05-26T09:56:32Z</time>
      </trkpt>
      <trkpt lat="48.79565" lon="2.249">
        <ele>166.5</ele>
        <time>2024-05-26T09:56:33Z</time>
      </trkpt>
      <trkpt lat="48.79564" lon="2.24899">
        <ele>166.5</ele>
        <time>2024-05-26T09:56:34Z</time>
      </trkpt>
      <trkpt lat="48.79563" lon="2.24898">
        <ele>166.5</ele>
        <time>2024-05-26T09:56:35Z</time>
      </trkpt>
      <trkpt lat="48.79563" lon="2.24897">
        <ele>166.4</ele>
        <time>2024-05-26T09:56:36Z</time>
      </trkpt>
      <trkpt lat="48.79562" lon="2.24896">
        <ele>166.4</ele>
        <time>2024-05-26T09:56:37Z</time>
      </trkpt>
      <trkpt lat="48.79561" lon="2.24895">
        <ele>166.4</ele>
        <time>2024-05-26T09:56:38Z</time>
      </trkpt>
      <trkpt lat="48.7956" lon="2.24895">
        <ele>166.4</ele>
        <time>2024-05-26T09:56:39Z</time>
      </trkpt>
      <trkpt lat="48.7956" lon="2.24894">
        <ele>166.3</ele>
        <time>2024-05-26T09:56:40Z</time>
      </trkpt>
      <trkpt lat="48.79558" lon="2.24893">
        <ele>166.3</ele>
        <time>2024-05-26T09:56:41Z</time>
      </trkpt>
      <trkpt lat="48.79557" lon="2.24893">
        <ele>166.2</ele>
        <time>2024-05-26T09:56:42Z</time>
      </trkpt>
      <trkpt lat="48.79557" lon="2.24891">
        <ele>166.1</ele>
        <time>2024-05-26T09:56:43Z</time>
      </trkpt>
      <trkpt lat="48.79557" lon="2.2489">
        <ele>166</ele>
        <time>2024-05-26T09:56:44Z</time>
      </trkpt>
      <trkpt lat="48.79557" lon="2.24888">
        <ele>165.7</ele>
        <time>2024-05-26T09:56:45Z</time>
      </trkpt>
      <trkpt lat="48.79558" lon="2.24886">
        <ele>165.5</ele>
        <time>2024-05-26T09:56:46Z</time>
      </trkpt>
      <trkpt lat="48.79558" lon="2.24883">
        <ele>165.1</ele>
        <time>2024-05-26T09:56:47Z</time>
      </trkpt>
      <trkpt lat="48.79559" lon="2.24882">
        <ele>165</ele>
        <time>2024-05-26T09:56:48Z</time>
      </trkpt>
      <trkpt lat="48.79559" lon="2.24881">
        <ele>164.8</ele>
        <time>2024-05-26T09:56:49Z</time>
      </trkpt>
      <trkpt lat="48.7956" lon="2.24879">
        <ele>164.7</ele>
        <time>2024-05-26T09:56:50Z</time>
      </trkpt>
      <trkpt lat="48.7956" lon="2.24879">
        <ele>164.7</ele>
        <time>2024-05-26T09:56:51Z</time>
      </trkpt>
      <trkpt lat="48.79559" lon="2.24879">
        <ele>164.6</ele>
        <time>2024-05-26T09:56:52Z</time>
      </trkpt>
      <trkpt lat="48.79559" lon="2.24877">
        <ele>164.4</ele>
        <time>2024-05-26T09:56:53Z</time>
      </trkpt>
      <trkpt lat="48.79559" lon="2.24876">
        <ele>164.2</ele>
        <time>2024-05-26T09:56:54Z</time>
      </trkpt>
      <trkpt lat="48.79559" lon="2.24873">
        <ele>163.9</ele>
        <time>2024-05-26T09:56:55Z</time>
      </trkpt>
      <trkpt lat="48.79559" lon="2.24872">
        <ele>163.7</ele>
        <time>2024-05-26T09:56:56Z</time>
      </trkpt>
      <trkpt lat="48.79559" lon="2.24871">
        <ele>163.6</ele>
        <time>2024-05-26T09:56:57Z</time>
      </trkpt>
      <trkpt lat="48.79559" lon="2.24869">
        <ele>163.3</ele>
        <time>2024-05-26T09:56:58Z</time>
      </trkpt>
      <trkpt lat="48.79559" lon="2.24868">
        <ele>163.2</ele>
        <time>2024-05-26T09:56:59Z</time>
      </trkpt>
      <trkpt lat="48.79558" lon="2.24866">
        <ele>162.9</ele>
        <time>2024-05-26T09:57:00Z</time>
      </trkpt>
      <trkpt lat="48.79558" lon="2.24864">
        <ele>162.6</ele>
        <time>2024-05-26T09:57:01Z</time>
      </trkpt>
      <trkpt lat="48.79558" lon="2.24863">
        <ele>162.5</ele>
        <time>2024-05-26T09:57:02Z</time>
      </trkpt>
      <trkpt lat="48.79558" lon="2.24861">
        <ele>162.2</ele>
        <time>2024-05-26T09:57:03Z</time>
      </trkpt>
      <trkpt lat="48.79558" lon="2.2486">
        <ele>162.1</ele>
        <time>2024-05-26T09:57:04Z</time>
      </trkpt>
      <trkpt lat="48.79557" lon="2.2486">
        <ele>161.8</ele>
        <time>2024-05-26T09:57:05Z</time>
      </trkpt>
      <trkpt lat="48.79557" lon="2.24858">
        <ele>161.6</ele>
        <time>2024-05-26T09:57:06Z</time>
      </trkpt>
      <trkpt lat="48.79558" lon="2.24858">
        <ele>161.4</ele>
        <time>2024-05-26T09:57:07Z</time>
      </trkpt>
      <trkpt lat="48.79557" lon="2.24856">
        <ele>161.1</ele>
        <time>2024-05-26T09:57:08Z</time>
      </trkpt>
      <trkpt lat="48.79557" lon="2.24853">
        <ele>160.8</ele>
        <time>2024-05-26T09:57:09Z</time>
      </trkpt>
      <trkpt lat="48.79557" lon="2.24852">
        <ele>160.5</ele>
        <time>2024-05-26T09:57:10Z</time>
      </trkpt>
      <trkpt lat="48.79557" lon="2.2485">
        <ele>160.3</ele>
        <time>2024-05-26T09:57:11Z</time>
      </trkpt>
      <trkpt lat="48.79558" lon="2.24848">
        <ele>160</ele>
        <time>2024-05-26T09:57:12Z</time>
      </trkpt>
      <trkpt lat="48.79558" lon="2.24845">
        <ele>159.6</ele>
        <time>2024-05-26T09:57:13Z</time>
      </trkpt>
      <trkpt lat="48.79558" lon="2.24844">
        <ele>159.4</ele>
        <time>2024-05-26T09:57:14Z</time>
      </trkpt>
      <trkpt lat="48.79558" lon="2.24843">
        <ele>159.3</ele>
        <time>2024-05-26T09:57:15Z</time>
      </trkpt>
      <trkpt lat="48.79558" lon="2.24841">
        <ele>159</ele>
        <time>2024-05-26T09:57:16Z</time>
      </trkpt>
      <trkpt lat="48.79558" lon="2.2484">
        <ele>158.9</ele>
        <time>2024-05-26T09:57:17Z</time>
      </trkpt>
      <trkpt lat="48.79557" lon="2.24839">
        <ele>158.7</ele>
        <time>2024-05-26T09:57:18Z</time>
      </trkpt>
      <trkpt lat="48.79557" lon="2.24839">
        <ele>158.6</ele>
        <time>2024-05-26T09:57:19Z</time>
      </trkpt>
      <trkpt lat="48.79558" lon="2.24837">
        <ele>158.4</ele>
        <time>2024-05-26T09:57:20Z</time>
      </trkpt>
      <trkpt lat="48.79558" lon="2.24835">
        <ele>158.1</ele>
        <time>2024-05-26T09:57:21Z</time>
      </trkpt>
      <trkpt lat="48.79558" lon="2.24833">
        <ele>157.9</ele>
        <time>2024-05-26T09:57:22Z</time>
      </trkpt>
      <trkpt lat="48.79558" lon="2.24832">
        <ele>157.7</ele>
        <time>2024-05-26T09:57:23Z</time>
      </trkpt>
      <trkpt lat="48.79559" lon="2.24829">
        <ele>157.3</ele>
        <time>2024-05-26T09:57:24Z</time>
      </trkpt>
      <trkpt lat="48.79559" lon="2.24827">
        <ele>157.2</ele>
        <time>2024-05-26T09:57:25Z</time>
      </trkpt>
      <trkpt lat="48.79559" lon="2.24825">
        <ele>157</ele>
        <time>2024-05-26T09:57:26Z</time>
      </trkpt>
      <trkpt lat="48.79559" lon="2.24824">
        <ele>156.9</ele>
        <time>2024-05-26T09:57:27Z</time>
      </trkpt>
      <trkpt lat="48.79559" lon="2.24822">
        <ele>156.8</ele>
        <time>2024-05-26T09:57:28Z</time>
      </trkpt>
      <trkpt lat="48.79559" lon="2.24821">
        <ele>156.7</ele>
        <time>2024-05-26T09:57:29Z</time>
      </trkpt>
      <trkpt lat="48.79559" lon="2.24817">
        <ele>156.3</ele>
        <time>2024-05-26T09:57:30Z</time>
      </trkpt>
      <trkpt lat="48.79559" lon="2.24815">
        <ele>156.2</ele>
        <time>2024-05-26T09:57:31Z</time>
      </trkpt>
      <trkpt lat="48.79559" lon="2.24814">
        <ele>156.1</ele>
        <time>2024-05-26T09:57:32Z</time>
      </trkpt>
      <trkpt lat="48.79559" lon="2.24813">
        <ele>156</ele>
        <time>2024-05-26T09:57:33Z</time>
      </trkpt>
      <trkpt lat="48.79559" lon="2.24811">
        <ele>155.9</ele>
        <time>2024-05-26T09:57:34Z</time>
      </trkpt>
      <trkpt lat="48.79559" lon="2.24809">
        <ele>155.8</ele>
        <time>2024-05-26T09:57:35Z</time>
      </trkpt>
      <trkpt lat="48.79559" lon="2.24807">
        <ele>155.6</ele>
        <time>2024-05-26T09:57:36Z</time>
      </trkpt>
      <trkpt lat="48.79559" lon="2.24807">
        <ele>155.6</ele>
        <time>2024-05-26T09:57:37Z</time>
      </trkpt>
      <trkpt lat="48.79559" lon="2.24805">
        <ele>155.4</ele>
        <time>2024-05-26T09:57:38Z</time>
      </trkpt>
      <trkpt lat="48.79559" lon="2.248">
        <ele>155.1</ele>
        <time>2024-05-26T09:57:39Z</time>
      </trkpt>
      <trkpt lat="48.79559" lon="2.24798">
        <ele>155</ele>
        <time>2024-05-26T09:57:40Z</time>
      </trkpt>
      <trkpt lat="48.79558" lon="2.24797">
        <ele>154.8</ele>
        <time>2024-05-26T09:57:41Z</time>
      </trkpt>
      <trkpt lat="48.79557" lon="2.24796">
        <ele>154.7</ele>
        <time>2024-05-26T09:57:42Z</time>
      </trkpt>
      <trkpt lat="48.79555" lon="2.24796">
        <ele>154.5</ele>
        <time>2024-05-26T09:57:43Z</time>
      </trkpt>
      <trkpt lat="48.79555" lon="2.24795">
        <ele>154.4</ele>
        <time>2024-05-26T09:57:44Z</time>
      </trkpt>
      <trkpt lat="48.79555" lon="2.24794">
        <ele>154.4</ele>
        <time>2024-05-26T09:57:45Z</time>
      </trkpt>
      <trkpt lat="48.79554" lon="2.24794">
        <ele>154.4</ele>
        <time>2024-05-26T09:57:46Z</time>
      </trkpt>
      <trkpt lat="48.79554" lon="2.24794">
        <ele>154.3</ele>
        <time>2024-05-26T09:57:47Z</time>
      </trkpt>
      <trkpt lat="48.79554" lon="2.24794">
        <ele>154.3</ele>
        <time>2024-05-26T09:57:48Z</time>
      </trkpt>
      <trkpt lat="48.79554" lon="2.24794">
        <ele>154.3</ele>
        <time>2024-05-26T09:57:49Z</time>
      </trkpt>
      <trkpt lat="48.79554" lon="2.24794">
        <ele>154.3</ele>
        <time>2024-05-26T09:57:50Z</time>
      </trkpt>
      <trkpt lat="48.79554" lon="2.24794">
        <ele>154.3</ele>
        <time>2024-05-26T09:57:51Z</time>
      </trkpt>
      <trkpt lat="48.79555" lon="2.24794">
        <ele>154.2</ele>
        <time>2024-05-26T09:57:52Z</time>
      </trkpt>
      <trkpt lat="48.79555" lon="2.24794">
        <ele>154.2</ele>
        <time>2024-05-26T09:57:53Z</time>
      </trkpt>
      <trkpt lat="48.79555" lon="2.24794">
        <ele>154.2</ele>
        <time>2024-05-26T09:57:54Z</time>
      </trkpt>
      <trkpt lat="48.79554" lon="2.24794">
        <ele>154.2</ele>
        <time>2024-05-26T09:57:55Z</time>
      </trkpt>
      <trkpt lat="48.79554" lon="2.24794">
        <ele>154.2</ele>
        <time>2024-05-26T09:57:56Z</time>
      </trkpt>
      <trkpt lat="48.79554" lon="2.24794">
        <ele>154.2</ele>
        <time>2024-05-26T09:57:57Z</time>
      </trkpt>
      <trkpt lat="48.79554" lon="2.24794">
        <ele>154.2</ele>
        <time>2024-05-26T09:57:58Z</time>
      </trkpt>
      <trkpt lat="48.79554" lon="2.24794">
        <ele>154.2</ele>
        <time>2024-05-26T09:57:59Z</time>
      </trkpt>
      <trkpt lat="48.79554" lon="2.24793">
        <ele>154.2</ele>
        <time>2024-05-26T09:58:00Z</time>
      </trkpt>
      <trkpt lat="48.79554" lon="2.24793">
        <ele>154.1</ele>
        <time>2024-05-26T09:58:01Z</time>
      </trkpt>
      <trkpt lat="48.79554" lon="2.24793">
        <ele>154.1</ele>
        <time>2024-05-26T09:58:02Z</time>
      </trkpt>
      <trkpt lat="48.79554" lon="2.24793">
        <ele>154.1</ele>
        <time>2024-05-26T09:58:03Z</time>
      </trkpt>
      <trkpt lat="48.79554" lon="2.24792">
        <ele>154</ele>
        <time>2024-05-26T09:58:04Z</time>
      </trkpt>
      <trkpt lat="48.79554" lon="2.24791">
        <ele>154</ele>
        <time>2024-05-26T09:58:05Z</time>
      </trkpt>
      <trkpt lat="48.79554" lon="2.24791">
        <ele>153.9</ele>
        <time>2024-05-26T09:58:06Z</time>
      </trkpt>
      <trkpt lat="48.79554" lon="2.24791">
        <ele>153.9</ele>
        <time>2024-05-26T09:58:07Z</time>
      </trkpt>
      <trkpt lat="48.79554" lon="2.2479">
        <ele>153.8</ele>
        <time>2024-05-26T09:58:08Z</time>
      </trkpt>
      <trkpt lat="48.79553" lon="2.24791">
        <ele>153.8</ele>
        <time>2024-05-26T09:58:09Z</time>
      </trkpt>
      <trkpt lat="48.79553" lon="2.24791">
        <ele>153.7</ele>
        <time>2024-05-26T09:58:10Z</time>
      </trkpt>
      <trkpt lat="48.79553" lon="2.24791">
        <ele>153.7</ele>
        <time>2024-05-26T09:58:11Z</time>
      </trkpt>
      <trkpt lat="48.79553" lon="2.24791">
        <ele>153.7</ele>
        <time>2024-05-26T09:58:12Z</time>
      </trkpt>
      <trkpt lat="48.79552" lon="2.24791">
        <ele>153.7</ele>
        <time>2024-05-26T09:58:13Z</time>
      </trkpt>
      <trkpt lat="48.79552" lon="2.24791">
        <ele>153.6</ele>
        <time>2024-05-26T09:58:14Z</time>
      </trkpt>
      <trkpt lat="48.79553" lon="2.24791">
        <ele>153.6</ele>
        <time>2024-05-26T09:58:15Z</time>
      </trkpt>
      <trkpt lat="48.79553" lon="2.24791">
        <ele>153.6</ele>
        <time>2024-05-26T09:58:16Z</time>
      </trkpt>
      <trkpt lat="48.79553" lon="2.24791">
        <ele>153.6</ele>
        <time>2024-05-26T09:58:17Z</time>
      </trkpt>
      <trkpt lat="48.79553" lon="2.24792">
        <ele>153.6</ele>
        <time>2024-05-26T09:58:18Z</time>
      </trkpt>
      <trkpt lat="48.79553" lon="2.24791">
        <ele>153.6</ele>
        <time>2024-05-26T09:58:19Z</time>
      </trkpt>
      <trkpt lat="48.79553" lon="2.24791">
        <ele>153.6</ele>
        <time>2024-05-26T09:58:20Z</time>
      </trkpt>
      <trkpt lat="48.79553" lon="2.24791">
        <ele>153.6</ele>
        <time>2024-05-26T09:58:21Z</time>
      </trkpt>
      <trkpt lat="48.79553" lon="2.24791">
        <ele>153.6</ele>
        <time>2024-05-26T09:58:22Z</time>
      </trkpt>
      <trkpt lat="48.79553" lon="2.24791">
        <ele>153.6</ele>
        <time>2024-05-26T09:58:23Z</time>
      </trkpt>
      <trkpt lat="48.79553" lon="2.24792">
        <ele>153.5</ele>
        <time>2024-05-26T09:58:24Z</time>
      </trkpt>
      <trkpt lat="48.79553" lon="2.24792">
        <ele>153.5</ele>
        <time>2024-05-26T09:58:25Z</time>
      </trkpt>
      <trkpt lat="48.79553" lon="2.24791">
        <ele>153.5</ele>
        <time>2024-05-26T09:58:26Z</time>
      </trkpt>
      <trkpt lat="48.79553" lon="2.2479">
        <ele>153.4</ele>
        <time>2024-05-26T09:58:27Z</time>
      </trkpt>
      <trkpt lat="48.79554" lon="2.24789">
        <ele>153.3</ele>
        <time>2024-05-26T09:58:29Z</time>
      </trkpt>
      <trkpt lat="48.79554" lon="2.24789">
        <ele>153.3</ele>
        <time>2024-05-26T09:58:30Z</time>
      </trkpt>
      <trkpt lat="48.79554" lon="2.24789">
        <ele>153.2</ele>
        <time>2024-05-26T09:58:31Z</time>
      </trkpt>
      <trkpt lat="48.79553" lon="2.24787">
        <ele>153.1</ele>
        <time>2024-05-26T09:58:32Z</time>
      </trkpt>
      <trkpt lat="48.79553" lon="2.24786">
        <ele>153.1</ele>
        <time>2024-05-26T09:58:33Z</time>
      </trkpt>
      <trkpt lat="48.79553" lon="2.24785">
        <ele>153</ele>
        <time>2024-05-26T09:58:34Z</time>
      </trkpt>
      <trkpt lat="48.79553" lon="2.24784">
        <ele>153</ele>
        <time>2024-05-26T09:58:35Z</time>
      </trkpt>
      <trkpt lat="48.79553" lon="2.24783">
        <ele>152.9</ele>
        <time>2024-05-26T09:58:36Z</time>
      </trkpt>
      <trkpt lat="48.79553" lon="2.24782">
        <ele>152.8</ele>
        <time>2024-05-26T09:58:37Z</time>
      </trkpt>
      <trkpt lat="48.79552" lon="2.24781">
        <ele>152.7</ele>
        <time>2024-05-26T09:58:38Z</time>
      </trkpt>
      <trkpt lat="48.79552" lon="2.2478">
        <ele>152.7</ele>
        <time>2024-05-26T09:58:39Z</time>
      </trkpt>
      <trkpt lat="48.79551" lon="2.24778">
        <ele>152.6</ele>
        <time>2024-05-26T09:58:40Z</time>
      </trkpt>
      <trkpt lat="48.79551" lon="2.24777">
        <ele>152.5</ele>
        <time>2024-05-26T09:58:41Z</time>
      </trkpt>
      <trkpt lat="48.7955" lon="2.24776">
        <ele>152.4</ele>
        <time>2024-05-26T09:58:42Z</time>
      </trkpt>
      <trkpt lat="48.79549" lon="2.24775">
        <ele>152.3</ele>
        <time>2024-05-26T09:58:43Z</time>
      </trkpt>
      <trkpt lat="48.79548" lon="2.24774">
        <ele>152.2</ele>
        <time>2024-05-26T09:58:44Z</time>
      </trkpt>
      <trkpt lat="48.79548" lon="2.24772">
        <ele>152.1</ele>
        <time>2024-05-26T09:58:45Z</time>
      </trkpt>
      <trkpt lat="48.79546" lon="2.24772">
        <ele>152</ele>
        <time>2024-05-26T09:58:46Z</time>
      </trkpt>
      <trkpt lat="48.79546" lon="2.24772">
        <ele>151.9</ele>
        <time>2024-05-26T09:58:47Z</time>
      </trkpt>
      <trkpt lat="48.79544" lon="2.24769">
        <ele>151.7</ele>
        <time>2024-05-26T09:58:48Z</time>
      </trkpt>
      <trkpt lat="48.79542" lon="2.24769">
        <ele>151.5</ele>
        <time>2024-05-26T09:58:49Z</time>
      </trkpt>
      <trkpt lat="48.7954" lon="2.24768">
        <ele>151.3</ele>
        <time>2024-05-26T09:58:50Z</time>
      </trkpt>
      <trkpt lat="48.79539" lon="2.24768">
        <ele>151.2</ele>
        <time>2024-05-26T09:58:51Z</time>
      </trkpt>
      <trkpt lat="48.79538" lon="2.24768">
        <ele>151.1</ele>
        <time>2024-05-26T09:58:52Z</time>
      </trkpt>
      <trkpt lat="48.79537" lon="2.24767">
        <ele>151</ele>
        <time>2024-05-26T09:58:53Z</time>
      </trkpt>
      <trkpt lat="48.79536" lon="2.24766">
        <ele>150.9</ele>
        <time>2024-05-26T09:58:54Z</time>
      </trkpt>
      <trkpt lat="48.79537" lon="2.24766">
        <ele>150.8</ele>
        <time>2024-05-26T09:58:55Z</time>
      </trkpt>
      <trkpt lat="48.79535" lon="2.24765">
        <ele>150.6</ele>
        <time>2024-05-26T09:58:56Z</time>
      </trkpt>
      <trkpt lat="48.79533" lon="2.24766">
        <ele>150.5</ele>
        <time>2024-05-26T09:58:57Z</time>
      </trkpt>
      <trkpt lat="48.79534" lon="2.24764">
        <ele>150.4</ele>
        <time>2024-05-26T09:58:58Z</time>
      </trkpt>
      <trkpt lat="48.79533" lon="2.24763">
        <ele>150.3</ele>
        <time>2024-05-26T09:58:59Z</time>
      </trkpt>
      <trkpt lat="48.79533" lon="2.24762">
        <ele>150.2</ele>
        <time>2024-05-26T09:59:00Z</time>
      </trkpt>
      <trkpt lat="48.79532" lon="2.2476">
        <ele>150.1</ele>
        <time>2024-05-26T09:59:01Z</time>
      </trkpt>
      <trkpt lat="48.79531" lon="2.24759">
        <ele>150</ele>
        <time>2024-05-26T09:59:02Z</time>
      </trkpt>
      <trkpt lat="48.79531" lon="2.24759">
        <ele>150</ele>
        <time>2024-05-26T09:59:03Z</time>
      </trkpt>
      <trkpt lat="48.79531" lon="2.24758">
        <ele>149.9</ele>
        <time>2024-05-26T09:59:04Z</time>
      </trkpt>
      <trkpt lat="48.7953" lon="2.24758">
        <ele>149.9</ele>
        <time>2024-05-26T09:59:05Z</time>
      </trkpt>
      <trkpt lat="48.79531" lon="2.24758">
        <ele>149.8</ele>
        <time>2024-05-26T09:59:06Z</time>
      </trkpt>
      <trkpt lat="48.79531" lon="2.24758">
        <ele>149.8</ele>
        <time>2024-05-26T09:59:07Z</time>
      </trkpt>
      <trkpt lat="48.79531" lon="2.24758">
        <ele>149.8</ele>
        <time>2024-05-26T09:59:08Z</time>
      </trkpt>
      <trkpt lat="48.7953" lon="2.24756">
        <ele>149.7</ele>
        <time>2024-05-26T09:59:09Z</time>
      </trkpt>
      <trkpt lat="48.79531" lon="2.24755">
        <ele>149.6</ele>
        <time>2024-05-26T09:59:10Z</time>
      </trkpt>
      <trkpt lat="48.79531" lon="2.24755">
        <ele>149.6</ele>
        <time>2024-05-26T09:59:11Z</time>
      </trkpt>
      <trkpt lat="48.79531" lon="2.24755">
        <ele>149.6</ele>
        <time>2024-05-26T09:59:12Z</time>
      </trkpt>
      <trkpt lat="48.79531" lon="2.24755">
        <ele>149.6</ele>
        <time>2024-05-26T09:59:13Z</time>
      </trkpt>
      <trkpt lat="48.79531" lon="2.24755">
        <ele>149.6</ele>
        <time>2024-05-26T09:59:14Z</time>
      </trkpt>
      <trkpt lat="48.79532" lon="2.24754">
        <ele>149.5</ele>
        <time>2024-05-26T09:59:15Z</time>
      </trkpt>
      <trkpt lat="48.79531" lon="2.24754">
        <ele>149.5</ele>
        <time>2024-05-26T09:59:16Z</time>
      </trkpt>
      <trkpt lat="48.79531" lon="2.24753">
        <ele>149.4</ele>
        <time>2024-05-26T09:59:17Z</time>
      </trkpt>
      <trkpt lat="48.7953" lon="2.24753">
        <ele>149.4</ele>
        <time>2024-05-26T09:59:18Z</time>
      </trkpt>
      <trkpt lat="48.7953" lon="2.24752">
        <ele>149.3</ele>
        <time>2024-05-26T09:59:19Z</time>
      </trkpt>
      <trkpt lat="48.79529" lon="2.24752">
        <ele>149.2</ele>
        <time>2024-05-26T09:59:20Z</time>
      </trkpt>
      <trkpt lat="48.79528" lon="2.24752">
        <ele>149.1</ele>
        <time>2024-05-26T09:59:21Z</time>
      </trkpt>
      <trkpt lat="48.79527" lon="2.24751">
        <ele>149</ele>
        <time>2024-05-26T09:59:22Z</time>
      </trkpt>
      <trkpt lat="48.79527" lon="2.2475">
        <ele>148.9</ele>
        <time>2024-05-26T09:59:23Z</time>
      </trkpt>
      <trkpt lat="48.79526" lon="2.24749">
        <ele>148.8</ele>
        <time>2024-05-26T09:59:24Z</time>
      </trkpt>
      <trkpt lat="48.79526" lon="2.24747">
        <ele>148.7</ele>
        <time>2024-05-26T09:59:25Z</time>
      </trkpt>
      <trkpt lat="48.79526" lon="2.24745">
        <ele>148.6</ele>
        <time>2024-05-26T09:59:26Z</time>
      </trkpt>
      <trkpt lat="48.79526" lon="2.24744">
        <ele>148.5</ele>
        <time>2024-05-26T09:59:27Z</time>
      </trkpt>
      <trkpt lat="48.79526" lon="2.24742">
        <ele>148.3</ele>
        <time>2024-05-26T09:59:28Z</time>
      </trkpt>
      <trkpt lat="48.79526" lon="2.24741">
        <ele>148.2</ele>
        <time>2024-05-26T09:59:29Z</time>
      </trkpt>
      <trkpt lat="48.79526" lon="2.24739">
        <ele>148.1</ele>
        <time>2024-05-26T09:59:30Z</time>
      </trkpt>
      <trkpt lat="48.79526" lon="2.24738">
        <ele>148.1</ele>
        <time>2024-05-26T09:59:31Z</time>
      </trkpt>
      <trkpt lat="48.79525" lon="2.24737">
        <ele>147.9</ele>
        <time>2024-05-26T09:59:32Z</time>
      </trkpt>
      <trkpt lat="48.79525" lon="2.24735">
        <ele>147.8</ele>
        <time>2024-05-26T09:59:33Z</time>
      </trkpt>
      <trkpt lat="48.79524" lon="2.24733">
        <ele>147.6</ele>
        <time>2024-05-26T09:59:34Z</time>
      </trkpt>
      <trkpt lat="48.79524" lon="2.24732">
        <ele>147.5</ele>
        <time>2024-05-26T09:59:35Z</time>
      </trkpt>
      <trkpt lat="48.79524" lon="2.24731">
        <ele>147.5</ele>
        <time>2024-05-26T09:59:36Z</time>
      </trkpt>
      <trkpt lat="48.79524" lon="2.24731">
        <ele>147.4</ele>
        <time>2024-05-26T09:59:37Z</time>
      </trkpt>
      <trkpt lat="48.79523" lon="2.24728">
        <ele>147.2</ele>
        <time>2024-05-26T09:59:38Z</time>
      </trkpt>
      <trkpt lat="48.79522" lon="2.24727">
        <ele>147.2</ele>
        <time>2024-05-26T09:59:39Z</time>
      </trkpt>
      <trkpt lat="48.79522" lon="2.24726">
        <ele>147.1</ele>
        <time>2024-05-26T09:59:40Z</time>
      </trkpt>
      <trkpt lat="48.79523" lon="2.24723">
        <ele>146.8</ele>
        <time>2024-05-26T09:59:41Z</time>
      </trkpt>
      <trkpt lat="48.79523" lon="2.24721">
        <ele>146.7</ele>
        <time>2024-05-26T09:59:42Z</time>
      </trkpt>
      <trkpt lat="48.79523" lon="2.24719">
        <ele>146.6</ele>
        <time>2024-05-26T09:59:43Z</time>
      </trkpt>
      <trkpt lat="48.79524" lon="2.24718">
        <ele>146.4</ele>
        <time>2024-05-26T09:59:44Z</time>
      </trkpt>
      <trkpt lat="48.79523" lon="2.24715">
        <ele>146.2</ele>
        <time>2024-05-26T09:59:45Z</time>
      </trkpt>
      <trkpt lat="48.79521" lon="2.24714">
        <ele>146</ele>
        <time>2024-05-26T09:59:46Z</time>
      </trkpt>
      <trkpt lat="48.7952" lon="2.24711">
        <ele>145.8</ele>
        <time>2024-05-26T09:59:47Z</time>
      </trkpt>
      <trkpt lat="48.79519" lon="2.2471">
        <ele>145.6</ele>
        <time>2024-05-26T09:59:48Z</time>
      </trkpt>
      <trkpt lat="48.79519" lon="2.24708">
        <ele>145.5</ele>
        <time>2024-05-26T09:59:49Z</time>
      </trkpt>
      <trkpt lat="48.79518" lon="2.24706">
        <ele>145.3</ele>
        <time>2024-05-26T09:59:50Z</time>
      </trkpt>
      <trkpt lat="48.79517" lon="2.24705">
        <ele>145.2</ele>
        <time>2024-05-26T09:59:51Z</time>
      </trkpt>
      <trkpt lat="48.79517" lon="2.24704">
        <ele>145.1</ele>
        <time>2024-05-26T09:59:52Z</time>
      </trkpt>
      <trkpt lat="48.79516" lon="2.24703">
        <ele>145</ele>
        <time>2024-05-26T09:59:53Z</time>
      </trkpt>
      <trkpt lat="48.79516" lon="2.24701">
        <ele>144.9</ele>
        <time>2024-05-26T09:59:54Z</time>
      </trkpt>
      <trkpt lat="48.79515" lon="2.24701">
        <ele>144.7</ele>
        <time>2024-05-26T09:59:55Z</time>
      </trkpt>
      <trkpt lat="48.79514" lon="2.24699">
        <ele>144.5</ele>
        <time>2024-05-26T09:59:56Z</time>
      </trkpt>
      <trkpt lat="48.79513" lon="2.24697">
        <ele>144.3</ele>
        <time>2024-05-26T09:59:57Z</time>
      </trkpt>
      <trkpt lat="48.79513" lon="2.24696">
        <ele>144.3</ele>
        <time>2024-05-26T09:59:58Z</time>
      </trkpt>
      <trkpt lat="48.79513" lon="2.24695">
        <ele>144.2</ele>
        <time>2024-05-26T09:59:59Z</time>
      </trkpt>
      <trkpt lat="48.79512" lon="2.24694">
        <ele>144.1</ele>
        <time>2024-05-26T10:00:00Z</time>
      </trkpt>
      <trkpt lat="48.79511" lon="2.24692">
        <ele>143.9</ele>
        <time>2024-05-26T10:00:01Z</time>
      </trkpt>
      <trkpt lat="48.79511" lon="2.2469">
        <ele>143.8</ele>
        <time>2024-05-26T10:00:02Z</time>
      </trkpt>
      <trkpt lat="48.79511" lon="2.24689">
        <ele>143.6</ele>
        <time>2024-05-26T10:00:03Z</time>
      </trkpt>
      <trkpt lat="48.7951" lon="2.24688">
        <ele>143.5</ele>
        <time>2024-05-26T10:00:04Z</time>
      </trkpt>
      <trkpt lat="48.79509" lon="2.24687">
        <ele>143.4</ele>
        <time>2024-05-26T10:00:05Z</time>
      </trkpt>
      <trkpt lat="48.79509" lon="2.24685">
        <ele>143.3</ele>
        <time>2024-05-26T10:00:06Z</time>
      </trkpt>
      <trkpt lat="48.79509" lon="2.24683">
        <ele>143.1</ele>
        <time>2024-05-26T10:00:07Z</time>
      </trkpt>
      <trkpt lat="48.79509" lon="2.24681">
        <ele>142.9</ele>
        <time>2024-05-26T10:00:08Z</time>
      </trkpt>
      <trkpt lat="48.79509" lon="2.24679">
        <ele>142.8</ele>
        <time>2024-05-26T10:00:09Z</time>
      </trkpt>
      <trkpt lat="48.79508" lon="2.24677">
        <ele>142.6</ele>
        <time>2024-05-26T10:00:10Z</time>
      </trkpt>
      <trkpt lat="48.79508" lon="2.24676">
        <ele>142.4</ele>
        <time>2024-05-26T10:00:11Z</time>
      </trkpt>
      <trkpt lat="48.79507" lon="2.24673">
        <ele>142.2</ele>
        <time>2024-05-26T10:00:12Z</time>
      </trkpt>
      <trkpt lat="48.79507" lon="2.24672">
        <ele>142</ele>
        <time>2024-05-26T10:00:13Z</time>
      </trkpt>
      <trkpt lat="48.79506" lon="2.2467">
        <ele>141.8</ele>
        <time>2024-05-26T10:00:14Z</time>
      </trkpt>
      <trkpt lat="48.79505" lon="2.24669">
        <ele>141.7</ele>
        <time>2024-05-26T10:00:15Z</time>
      </trkpt>
      <trkpt lat="48.79505" lon="2.24667">
        <ele>141.6</ele>
        <time>2024-05-26T10:00:16Z</time>
      </trkpt>
      <trkpt lat="48.79505" lon="2.24665">
        <ele>141.4</ele>
        <time>2024-05-26T10:00:17Z</time>
      </trkpt>
      <trkpt lat="48.79505" lon="2.24664">
        <ele>141.3</ele>
        <time>2024-05-26T10:00:18Z</time>
      </trkpt>
      <trkpt lat="48.79505" lon="2.24664">
        <ele>141.3</ele>
        <time>2024-05-26T10:00:19Z</time>
      </trkpt>
      <trkpt lat="48.79504" lon="2.24662">
        <ele>141.1</ele>
        <time>2024-05-26T10:00:20Z</time>
      </trkpt>
      <trkpt lat="48.79503" lon="2.2466">
        <ele>140.9</ele>
        <time>2024-05-26T10:00:21Z</time>
      </trkpt>
      <trkpt lat="48.79504" lon="2.24659">
        <ele>140.8</ele>
        <time>2024-05-26T10:00:22Z</time>
      </trkpt>
      <trkpt lat="48.79503" lon="2.24657">
        <ele>140.7</ele>
        <time>2024-05-26T10:00:23Z</time>
      </trkpt>
      <trkpt lat="48.79502" lon="2.24655">
        <ele>140.4</ele>
        <time>2024-05-26T10:00:24Z</time>
      </trkpt>
      <trkpt lat="48.79502" lon="2.24654">
        <ele>140.4</ele>
        <time>2024-05-26T10:00:25Z</time>
      </trkpt>
      <trkpt lat="48.79502" lon="2.24653">
        <ele>140.3</ele>
        <time>2024-05-26T10:00:26Z</time>
      </trkpt>
      <trkpt lat="48.79501" lon="2.24653">
        <ele>140.2</ele>
        <time>2024-05-26T10:00:27Z</time>
      </trkpt>
      <trkpt lat="48.79501" lon="2.24652">
        <ele>140.1</ele>
        <time>2024-05-26T10:00:28Z</time>
      </trkpt>
      <trkpt lat="48.79501" lon="2.2465">
        <ele>140</ele>
        <time>2024-05-26T10:00:29Z</time>
      </trkpt>
      <trkpt lat="48.79501" lon="2.24648">
        <ele>139.8</ele>
        <time>2024-05-26T10:00:30Z</time>
      </trkpt>
      <trkpt lat="48.79502" lon="2.24647">
        <ele>139.7</ele>
        <time>2024-05-26T10:00:31Z</time>
      </trkpt>
      <trkpt lat="48.79502" lon="2.24642">
        <ele>139.4</ele>
        <time>2024-05-26T10:00:32Z</time>
      </trkpt>
      <trkpt lat="48.79502" lon="2.24639">
        <ele>139.1</ele>
        <time>2024-05-26T10:00:33Z</time>
      </trkpt>
      <trkpt lat="48.79502" lon="2.24636">
        <ele>138.9</ele>
        <time>2024-05-26T10:00:35Z</time>
      </trkpt>
      <trkpt lat="48.79501" lon="2.24634">
        <ele>138.7</ele>
        <time>2024-05-26T10:00:36Z</time>
      </trkpt>
      <trkpt lat="48.79501" lon="2.24632">
        <ele>138.5</ele>
        <time>2024-05-26T10:00:37Z</time>
      </trkpt>
      <trkpt lat="48.795" lon="2.2463">
        <ele>138.3</ele>
        <time>2024-05-26T10:00:38Z</time>
      </trkpt>
      <trkpt lat="48.79499" lon="2.24628">
        <ele>138.1</ele>
        <time>2024-05-26T10:00:39Z</time>
      </trkpt>
      <trkpt lat="48.79497" lon="2.24626">
        <ele>137.9</ele>
        <time>2024-05-26T10:00:40Z</time>
      </trkpt>
      <trkpt lat="48.79496" lon="2.24626">
        <ele>137.8</ele>
        <time>2024-05-26T10:00:41Z</time>
      </trkpt>
      <trkpt lat="48.79495" lon="2.24625">
        <ele>137.7</ele>
        <time>2024-05-26T10:00:42Z</time>
      </trkpt>
      <trkpt lat="48.79494" lon="2.24623">
        <ele>137.5</ele>
        <time>2024-05-26T10:00:43Z</time>
      </trkpt>
      <trkpt lat="48.79493" lon="2.24622">
        <ele>137.4</ele>
        <time>2024-05-26T10:00:44Z</time>
      </trkpt>
      <trkpt lat="48.79493" lon="2.2462">
        <ele>137.3</ele>
        <time>2024-05-26T10:00:45Z</time>
      </trkpt>
      <trkpt lat="48.79491" lon="2.24617">
        <ele>137</ele>
        <time>2024-05-26T10:00:46Z</time>
      </trkpt>
      <trkpt lat="48.79491" lon="2.24616">
        <ele>136.9</ele>
        <time>2024-05-26T10:00:47Z</time>
      </trkpt>
      <trkpt lat="48.7949" lon="2.24615">
        <ele>136.8</ele>
        <time>2024-05-26T10:00:48Z</time>
      </trkpt>
      <trkpt lat="48.79489" lon="2.24613">
        <ele>136.6</ele>
        <time>2024-05-26T10:00:49Z</time>
      </trkpt>
      <trkpt lat="48.79488" lon="2.24612">
        <ele>136.5</ele>
        <time>2024-05-26T10:00:50Z</time>
      </trkpt>
      <trkpt lat="48.79488" lon="2.24611">
        <ele>136.4</ele>
        <time>2024-05-26T10:00:51Z</time>
      </trkpt>
      <trkpt lat="48.79487" lon="2.24609">
        <ele>136.3</ele>
        <time>2024-05-26T10:00:52Z</time>
      </trkpt>
      <trkpt lat="48.79486" lon="2.24608">
        <ele>136.2</ele>
        <time>2024-05-26T10:00:53Z</time>
      </trkpt>
      <trkpt lat="48.79485" lon="2.24607">
        <ele>136.1</ele>
        <time>2024-05-26T10:00:54Z</time>
      </trkpt>
      <trkpt lat="48.79485" lon="2.24606">
        <ele>136</ele>
        <time>2024-05-26T10:00:55Z</time>
      </trkpt>
      <trkpt lat="48.79484" lon="2.24605">
        <ele>135.9</ele>
        <time>2024-05-26T10:00:56Z</time>
      </trkpt>
      <trkpt lat="48.79484" lon="2.24603">
        <ele>135.8</ele>
        <time>2024-05-26T10:00:57Z</time>
      </trkpt>
      <trkpt lat="48.79484" lon="2.24602">
        <ele>135.7</ele>
        <time>2024-05-26T10:00:58Z</time>
      </trkpt>
      <trkpt lat="48.79485" lon="2.24599">
        <ele>135.5</ele>
        <time>2024-05-26T10:00:59Z</time>
      </trkpt>
      <trkpt lat="48.79485" lon="2.24597">
        <ele>135.4</ele>
        <time>2024-05-26T10:01:00Z</time>
      </trkpt>
      <trkpt lat="48.79484" lon="2.24596">
        <ele>135.3</ele>
        <time>2024-05-26T10:01:01Z</time>
      </trkpt>
      <trkpt lat="48.79484" lon="2.24595">
        <ele>135.2</ele>
        <time>2024-05-26T10:01:02Z</time>
      </trkpt>
      <trkpt lat="48.79483" lon="2.24594">
        <ele>135.1</ele>
        <time>2024-05-26T10:01:03Z</time>
      </trkpt>
      <trkpt lat="48.79482" lon="2.24592">
        <ele>135</ele>
        <time>2024-05-26T10:01:04Z</time>
      </trkpt>
      <trkpt lat="48.79481" lon="2.2459">
        <ele>134.8</ele>
        <time>2024-05-26T10:01:05Z</time>
      </trkpt>
      <trkpt lat="48.79481" lon="2.24589">
        <ele>134.8</ele>
        <time>2024-05-26T10:01:06Z</time>
      </trkpt>
      <trkpt lat="48.7948" lon="2.24589">
        <ele>134.7</ele>
        <time>2024-05-26T10:01:07Z</time>
      </trkpt>
      <trkpt lat="48.79479" lon="2.24588">
        <ele>134.6</ele>
        <time>2024-05-26T10:01:08Z</time>
      </trkpt>
      <trkpt lat="48.79478" lon="2.24586">
        <ele>134.4</ele>
        <time>2024-05-26T10:01:09Z</time>
      </trkpt>
      <trkpt lat="48.79477" lon="2.24585">
        <ele>134.3</ele>
        <time>2024-05-26T10:01:10Z</time>
      </trkpt>
      <trkpt lat="48.79476" lon="2.24584">
        <ele>134.3</ele>
        <time>2024-05-26T10:01:11Z</time>
      </trkpt>
      <trkpt lat="48.79474" lon="2.24583">
        <ele>134.1</ele>
        <time>2024-05-26T10:01:12Z</time>
      </trkpt>
      <trkpt lat="48.79473" lon="2.24582">
        <ele>134</ele>
        <time>2024-05-26T10:01:13Z</time>
      </trkpt>
      <trkpt lat="48.79473" lon="2.24581">
        <ele>133.9</ele>
        <time>2024-05-26T10:01:14Z</time>
      </trkpt>
      <trkpt lat="48.79471" lon="2.24579">
        <ele>133.8</ele>
        <time>2024-05-26T10:01:15Z</time>
      </trkpt>
      <trkpt lat="48.79471" lon="2.24578">
        <ele>133.7</ele>
        <time>2024-05-26T10:01:16Z</time>
      </trkpt>
      <trkpt lat="48.79471" lon="2.24578">
        <ele>133.7</ele>
        <time>2024-05-26T10:01:17Z</time>
      </trkpt>
      <trkpt lat="48.7947" lon="2.24577">
        <ele>133.6</ele>
        <time>2024-05-26T10:01:18Z</time>
      </trkpt>
      <trkpt lat="48.79469" lon="2.24577">
        <ele>133.5</ele>
        <time>2024-05-26T10:01:19Z</time>
      </trkpt>
      <trkpt lat="48.79468" lon="2.24576">
        <ele>133.4</ele>
        <time>2024-05-26T10:01:20Z</time>
      </trkpt>
      <trkpt lat="48.79467" lon="2.24576">
        <ele>133.3</ele>
        <time>2024-05-26T10:01:21Z</time>
      </trkpt>
      <trkpt lat="48.79465" lon="2.24575">
        <ele>133.2</ele>
        <time>2024-05-26T10:01:22Z</time>
      </trkpt>
      <trkpt lat="48.79464" lon="2.24575">
        <ele>133.1</ele>
        <time>2024-05-26T10:01:23Z</time>
      </trkpt>
      <trkpt lat="48.79463" lon="2.24575">
        <ele>133</ele>
        <time>2024-05-26T10:01:24Z</time>
      </trkpt>
      <trkpt lat="48.79461" lon="2.24576">
        <ele>132.9</ele>
        <time>2024-05-26T10:01:25Z</time>
      </trkpt>
      <trkpt lat="48.7946" lon="2.24576">
        <ele>132.8</ele>
        <time>2024-05-26T10:01:26Z</time>
      </trkpt>
      <trkpt lat="48.79458" lon="2.24575">
        <ele>132.7</ele>
        <time>2024-05-26T10:01:27Z</time>
      </trkpt>
      <trkpt lat="48.79457" lon="2.24575">
        <ele>132.6</ele>
        <time>2024-05-26T10:01:28Z</time>
      </trkpt>
      <trkpt lat="48.79455" lon="2.24574">
        <ele>132.5</ele>
        <time>2024-05-26T10:01:29Z</time>
      </trkpt>
      <trkpt lat="48.79454" lon="2.24573">
        <ele>132.4</ele>
        <time>2024-05-26T10:01:30Z</time>
      </trkpt>
      <trkpt lat="48.79453" lon="2.24573">
        <ele>132.4</ele>
        <time>2024-05-26T10:01:31Z</time>
      </trkpt>
      <trkpt lat="48.79453" lon="2.24571">
        <ele>132.3</ele>
        <time>2024-05-26T10:01:32Z</time>
      </trkpt>
      <trkpt lat="48.79452" lon="2.2457">
        <ele>132.3</ele>
        <time>2024-05-26T10:01:33Z</time>
      </trkpt>
      <trkpt lat="48.79451" lon="2.24568">
        <ele>132.3</ele>
        <time>2024-05-26T10:01:34Z</time>
      </trkpt>
      <trkpt lat="48.7945" lon="2.24567">
        <ele>132.2</ele>
        <time>2024-05-26T10:01:35Z</time>
      </trkpt>
      <trkpt lat="48.79449" lon="2.24567">
        <ele>132.2</ele>
        <time>2024-05-26T10:01:36Z</time>
      </trkpt>
      <trkpt lat="48.79448" lon="2.24565">
        <ele>132.2</ele>
        <time>2024-05-26T10:01:37Z</time>
      </trkpt>
      <trkpt lat="48.79447" lon="2.24563">
        <ele>132.2</ele>
        <time>2024-05-26T10:01:38Z</time>
      </trkpt>
      <trkpt lat="48.79446" lon="2.24561">
        <ele>132.2</ele>
        <time>2024-05-26T10:01:39Z</time>
      </trkpt>
      <trkpt lat="48.79445" lon="2.2456">
        <ele>132.2</ele>
        <time>2024-05-26T10:01:40Z</time>
      </trkpt>
      <trkpt lat="48.79444" lon="2.24559">
        <ele>132.2</ele>
        <time>2024-05-26T10:01:41Z</time>
      </trkpt>
      <trkpt lat="48.79443" lon="2.24558">
        <ele>132.2</ele>
        <time>2024-05-26T10:01:42Z</time>
      </trkpt>
      <trkpt lat="48.79442" lon="2.24557">
        <ele>132.3</ele>
        <time>2024-05-26T10:01:43Z</time>
      </trkpt>
      <trkpt lat="48.7944" lon="2.24557">
        <ele>132.3</ele>
        <time>2024-05-26T10:01:44Z</time>
      </trkpt>
      <trkpt lat="48.79439" lon="2.24557">
        <ele>132.3</ele>
        <time>2024-05-26T10:01:45Z</time>
      </trkpt>
      <trkpt lat="48.79439" lon="2.24556">
        <ele>132.4</ele>
        <time>2024-05-26T10:01:46Z</time>
      </trkpt>
      <trkpt lat="48.79438" lon="2.24555">
        <ele>132.5</ele>
        <time>2024-05-26T10:01:47Z</time>
      </trkpt>
      <trkpt lat="48.79436" lon="2.24553">
        <ele>132.5</ele>
        <time>2024-05-26T10:01:48Z</time>
      </trkpt>
      <trkpt lat="48.79434" lon="2.24552">
        <ele>132.7</ele>
        <time>2024-05-26T10:01:49Z</time>
      </trkpt>
      <trkpt lat="48.79433" lon="2.24552">
        <ele>132.7</ele>
        <time>2024-05-26T10:01:50Z</time>
      </trkpt>
      <trkpt lat="48.79432" lon="2.24552">
        <ele>132.8</ele>
        <time>2024-05-26T10:01:51Z</time>
      </trkpt>
      <trkpt lat="48.79431" lon="2.24551">
        <ele>132.9</ele>
        <time>2024-05-26T10:01:52Z</time>
      </trkpt>
      <trkpt lat="48.79429" lon="2.2455">
        <ele>132.9</ele>
        <time>2024-05-26T10:01:53Z</time>
      </trkpt>
      <trkpt lat="48.79428" lon="2.24548">
        <ele>133</ele>
        <time>2024-05-26T10:01:54Z</time>
      </trkpt>
      <trkpt lat="48.79427" lon="2.24547">
        <ele>133.1</ele>
        <time>2024-05-26T10:01:55Z</time>
      </trkpt>
      <trkpt lat="48.79426" lon="2.24544">
        <ele>133.2</ele>
        <time>2024-05-26T10:01:56Z</time>
      </trkpt>
      <trkpt lat="48.79425" lon="2.24543">
        <ele>133.2</ele>
        <time>2024-05-26T10:01:57Z</time>
      </trkpt>
      <trkpt lat="48.79425" lon="2.24542">
        <ele>133.3</ele>
        <time>2024-05-26T10:01:58Z</time>
      </trkpt>
      <trkpt lat="48.79425" lon="2.2454">
        <ele>133.3</ele>
        <time>2024-05-26T10:01:59Z</time>
      </trkpt>
      <trkpt lat="48.79424" lon="2.24539">
        <ele>133.3</ele>
        <time>2024-05-26T10:02:00Z</time>
      </trkpt>
      <trkpt lat="48.79424" lon="2.24537">
        <ele>133.3</ele>
        <time>2024-05-26T10:02:01Z</time>
      </trkpt>
      <trkpt lat="48.79425" lon="2.24536">
        <ele>133.4</ele>
        <time>2024-05-26T10:02:02Z</time>
      </trkpt>
      <trkpt lat="48.79425" lon="2.24536">
        <ele>133.4</ele>
        <time>2024-05-26T10:02:03Z</time>
      </trkpt>
      <trkpt lat="48.79425" lon="2.24535">
        <ele>133.4</ele>
        <time>2024-05-26T10:02:04Z</time>
      </trkpt>
      <trkpt lat="48.79425" lon="2.24532">
        <ele>133.4</ele>
        <time>2024-05-26T10:02:05Z</time>
      </trkpt>
      <trkpt lat="48.79424" lon="2.2453">
        <ele>133.4</ele>
        <time>2024-05-26T10:02:06Z</time>
      </trkpt>
      <trkpt lat="48.79424" lon="2.24529">
        <ele>133.5</ele>
        <time>2024-05-26T10:02:07Z</time>
      </trkpt>
      <trkpt lat="48.79424" lon="2.2453">
        <ele>133.5</ele>
        <time>2024-05-26T10:02:08Z</time>
      </trkpt>
      <trkpt lat="48.79424" lon="2.24528">
        <ele>133.4</ele>
        <time>2024-05-26T10:02:09Z</time>
      </trkpt>
      <trkpt lat="48.79425" lon="2.24527">
        <ele>133.4</ele>
        <time>2024-05-26T10:02:10Z</time>
      </trkpt>
      <trkpt lat="48.79425" lon="2.24526">
        <ele>133.4</ele>
        <time>2024-05-26T10:02:11Z</time>
      </trkpt>
      <trkpt lat="48.79426" lon="2.24525">
        <ele>133.3</ele>
        <time>2024-05-26T10:02:12Z</time>
      </trkpt>
      <trkpt lat="48.79425" lon="2.24525">
        <ele>133.3</ele>
        <time>2024-05-26T10:02:13Z</time>
      </trkpt>
      <trkpt lat="48.79426" lon="2.24524">
        <ele>133.3</ele>
        <time>2024-05-26T10:02:14Z</time>
      </trkpt>
      <trkpt lat="48.79426" lon="2.24522">
        <ele>133.3</ele>
        <time>2024-05-26T10:02:15Z</time>
      </trkpt>
      <trkpt lat="48.79426" lon="2.2452">
        <ele>133.2</ele>
        <time>2024-05-26T10:02:16Z</time>
      </trkpt>
      <trkpt lat="48.79427" lon="2.24519">
        <ele>133.2</ele>
        <time>2024-05-26T10:02:17Z</time>
      </trkpt>
      <trkpt lat="48.79427" lon="2.24518">
        <ele>133.2</ele>
        <time>2024-05-26T10:02:18Z</time>
      </trkpt>
      <trkpt lat="48.79427" lon="2.24516">
        <ele>133.1</ele>
        <time>2024-05-26T10:02:19Z</time>
      </trkpt>
      <trkpt lat="48.79426" lon="2.24514">
        <ele>133.1</ele>
        <time>2024-05-26T10:02:20Z</time>
      </trkpt>
      <trkpt lat="48.79426" lon="2.24512">
        <ele>133</ele>
        <time>2024-05-26T10:02:21Z</time>
      </trkpt>
      <trkpt lat="48.79426" lon="2.24511">
        <ele>133</ele>
        <time>2024-05-26T10:02:22Z</time>
      </trkpt>
      <trkpt lat="48.79424" lon="2.2451">
        <ele>132.9</ele>
        <time>2024-05-26T10:02:23Z</time>
      </trkpt>
      <trkpt lat="48.79424" lon="2.24509">
        <ele>132.9</ele>
        <time>2024-05-26T10:02:24Z</time>
      </trkpt>
      <trkpt lat="48.79423" lon="2.24508">
        <ele>132.8</ele>
        <time>2024-05-26T10:02:25Z</time>
      </trkpt>
      <trkpt lat="48.79422" lon="2.24507">
        <ele>132.7</ele>
        <time>2024-05-26T10:02:26Z</time>
      </trkpt>
      <trkpt lat="48.79422" lon="2.24506">
        <ele>132.7</ele>
        <time>2024-05-26T10:02:27Z</time>
      </trkpt>
      <trkpt lat="48.79421" lon="2.24505">
        <ele>132.6</ele>
        <time>2024-05-26T10:02:28Z</time>
      </trkpt>
      <trkpt lat="48.7942" lon="2.24503">
        <ele>132.5</ele>
        <time>2024-05-26T10:02:29Z</time>
      </trkpt>
      <trkpt lat="48.79419" lon="2.24502">
        <ele>132.5</ele>
        <time>2024-05-26T10:02:30Z</time>
      </trkpt>
      <trkpt lat="48.79419" lon="2.24501">
        <ele>132.4</ele>
        <time>2024-05-26T10:02:31Z</time>
      </trkpt>
      <trkpt lat="48.79419" lon="2.24501">
        <ele>132.4</ele>
        <time>2024-05-26T10:02:32Z</time>
      </trkpt>
      <trkpt lat="48.79419" lon="2.245">
        <ele>132.4</ele>
        <time>2024-05-26T10:02:33Z</time>
      </trkpt>
      <trkpt lat="48.79419" lon="2.245">
        <ele>132.4</ele>
        <time>2024-05-26T10:02:34Z</time>
      </trkpt>
      <trkpt lat="48.79419" lon="2.24499">
        <ele>132.3</ele>
        <time>2024-05-26T10:02:35Z</time>
      </trkpt>
      <trkpt lat="48.79418" lon="2.24497">
        <ele>132.3</ele>
        <time>2024-05-26T10:02:36Z</time>
      </trkpt>
      <trkpt lat="48.79417" lon="2.24496">
        <ele>132.2</ele>
        <time>2024-05-26T10:02:37Z</time>
      </trkpt>
      <trkpt lat="48.79418" lon="2.24496">
        <ele>132.2</ele>
        <time>2024-05-26T10:02:38Z</time>
      </trkpt>
      <trkpt lat="48.79418" lon="2.24496">
        <ele>132.2</ele>
        <time>2024-05-26T10:02:39Z</time>
      </trkpt>
      <trkpt lat="48.79418" lon="2.24495">
        <ele>132.2</ele>
        <time>2024-05-26T10:02:41Z</time>
      </trkpt>
      <trkpt lat="48.79418" lon="2.24494">
        <ele>132.2</ele>
        <time>2024-05-26T10:02:42Z</time>
      </trkpt>
      <trkpt lat="48.79418" lon="2.24494">
        <ele>132.2</ele>
        <time>2024-05-26T10:02:43Z</time>
      </trkpt>
      <trkpt lat="48.79418" lon="2.24494">
        <ele>132.2</ele>
        <time>2024-05-26T10:02:44Z</time>
      </trkpt>
      <trkpt lat="48.79418" lon="2.24493">
        <ele>132.2</ele>
        <time>2024-05-26T10:02:45Z</time>
      </trkpt>
      <trkpt lat="48.79418" lon="2.24492">
        <ele>132.1</ele>
        <time>2024-05-26T10:02:46Z</time>
      </trkpt>
      <trkpt lat="48.79417" lon="2.24491">
        <ele>132.1</ele>
        <time>2024-05-26T10:02:47Z</time>
      </trkpt>
      <trkpt lat="48.79416" lon="2.2449">
        <ele>132.1</ele>
        <time>2024-05-26T10:02:48Z</time>
      </trkpt>
      <trkpt lat="48.79415" lon="2.24489">
        <ele>132</ele>
        <time>2024-05-26T10:02:49Z</time>
      </trkpt>
      <trkpt lat="48.79415" lon="2.24488">
        <ele>132</ele>
        <time>2024-05-26T10:02:50Z</time>
      </trkpt>
      <trkpt lat="48.79414" lon="2.24486">
        <ele>132</ele>
        <time>2024-05-26T10:02:51Z</time>
      </trkpt>
      <trkpt lat="48.79413" lon="2.24485">
        <ele>132</ele>
        <time>2024-05-26T10:02:52Z</time>
      </trkpt>
      <trkpt lat="48.79412" lon="2.24483">
        <ele>132</ele>
        <time>2024-05-26T10:02:53Z</time>
      </trkpt>
      <trkpt lat="48.79412" lon="2.24481">
        <ele>132</ele>
        <time>2024-05-26T10:02:54Z</time>
      </trkpt>
      <trkpt lat="48.79411" lon="2.24478">
        <ele>132</ele>
        <time>2024-05-26T10:02:55Z</time>
      </trkpt>
      <trkpt lat="48.79411" lon="2.24476">
        <ele>132.1</ele>
        <time>2024-05-26T10:02:56Z</time>
      </trkpt>
      <trkpt lat="48.7941" lon="2.24475">
        <ele>132.1</ele>
        <time>2024-05-26T10:02:57Z</time>
      </trkpt>
      <trkpt lat="48.79409" lon="2.24474">
        <ele>132.1</ele>
        <time>2024-05-26T10:02:58Z</time>
      </trkpt>
      <trkpt lat="48.79409" lon="2.24472">
        <ele>132.2</ele>
        <time>2024-05-26T10:02:59Z</time>
      </trkpt>
      <trkpt lat="48.79409" lon="2.2447">
        <ele>132.2</ele>
        <time>2024-05-26T10:03:00Z</time>
      </trkpt>
      <trkpt lat="48.79408" lon="2.24467">
        <ele>132.4</ele>
        <time>2024-05-26T10:03:01Z</time>
      </trkpt>
      <trkpt lat="48.79408" lon="2.24465">
        <ele>132.5</ele>
        <time>2024-05-26T10:03:02Z</time>
      </trkpt>
      <trkpt lat="48.79408" lon="2.24463">
        <ele>132.6</ele>
        <time>2024-05-26T10:03:03Z</time>
      </trkpt>
      <trkpt lat="48.79408" lon="2.24461">
        <ele>132.7</ele>
        <time>2024-05-26T10:03:04Z</time>
      </trkpt>
      <trkpt lat="48.79407" lon="2.24461">
        <ele>132.8</ele>
        <time>2024-05-26T10:03:05Z</time>
      </trkpt>
      <trkpt lat="48.79407" lon="2.24459">
        <ele>132.9</ele>
        <time>2024-05-26T10:03:06Z</time>
      </trkpt>
      <trkpt lat="48.79406" lon="2.24458">
        <ele>133</ele>
        <time>2024-05-26T10:03:07Z</time>
      </trkpt>
      <trkpt lat="48.79406" lon="2.24457">
        <ele>133</ele>
        <time>2024-05-26T10:03:08Z</time>
      </trkpt>
      <trkpt lat="48.79406" lon="2.24456">
        <ele>133.1</ele>
        <time>2024-05-26T10:03:09Z</time>
      </trkpt>
      <trkpt lat="48.79406" lon="2.24456">
        <ele>133.2</ele>
        <time>2024-05-26T10:03:10Z</time>
      </trkpt>
      <trkpt lat="48.79405" lon="2.24454">
        <ele>133.3</ele>
        <time>2024-05-26T10:03:11Z</time>
      </trkpt>
      <trkpt lat="48.79405" lon="2.24453">
        <ele>133.4</ele>
        <time>2024-05-26T10:03:12Z</time>
      </trkpt>
      <trkpt lat="48.79406" lon="2.24452">
        <ele>133.5</ele>
        <time>2024-05-26T10:03:13Z</time>
      </trkpt>
      <trkpt lat="48.79405" lon="2.24451">
        <ele>133.6</ele>
        <time>2024-05-26T10:03:14Z</time>
      </trkpt>
      <trkpt lat="48.79405" lon="2.24449">
        <ele>133.8</ele>
        <time>2024-05-26T10:03:15Z</time>
      </trkpt>
      <trkpt lat="48.79404" lon="2.24447">
        <ele>134</ele>
        <time>2024-05-26T10:03:16Z</time>
      </trkpt>
      <trkpt lat="48.79404" lon="2.24447">
        <ele>134.1</ele>
        <time>2024-05-26T10:03:17Z</time>
      </trkpt>
      <trkpt lat="48.79405" lon="2.24446">
        <ele>134.1</ele>
        <time>2024-05-26T10:03:18Z</time>
      </trkpt>
      <trkpt lat="48.79405" lon="2.24444">
        <ele>134.4</ele>
        <time>2024-05-26T10:03:19Z</time>
      </trkpt>
      <trkpt lat="48.79404" lon="2.24443">
        <ele>134.5</ele>
        <time>2024-05-26T10:03:20Z</time>
      </trkpt>
      <trkpt lat="48.79404" lon="2.24439">
        <ele>134.9</ele>
        <time>2024-05-26T10:03:21Z</time>
      </trkpt>
      <trkpt lat="48.79403" lon="2.24437">
        <ele>135</ele>
        <time>2024-05-26T10:03:22Z</time>
      </trkpt>
      <trkpt lat="48.79402" lon="2.24436">
        <ele>135.2</ele>
        <time>2024-05-26T10:03:23Z</time>
      </trkpt>
      <trkpt lat="48.79402" lon="2.24435">
        <ele>135.3</ele>
        <time>2024-05-26T10:03:24Z</time>
      </trkpt>
      <trkpt lat="48.79402" lon="2.24434">
        <ele>135.4</ele>
        <time>2024-05-26T10:03:25Z</time>
      </trkpt>
      <trkpt lat="48.79401" lon="2.24434">
        <ele>135.5</ele>
        <time>2024-05-26T10:03:26Z</time>
      </trkpt>
      <trkpt lat="48.794" lon="2.24433">
        <ele>135.6</ele>
        <time>2024-05-26T10:03:27Z</time>
      </trkpt>
      <trkpt lat="48.794" lon="2.24433">
        <ele>135.7</ele>
        <time>2024-05-26T10:03:28Z</time>
      </trkpt>
      <trkpt lat="48.79399" lon="2.24431">
        <ele>135.8</ele>
        <time>2024-05-26T10:03:29Z</time>
      </trkpt>
      <trkpt lat="48.79399" lon="2.2443">
        <ele>136</ele>
        <time>2024-05-26T10:03:30Z</time>
      </trkpt>
      <trkpt lat="48.79398" lon="2.2443">
        <ele>136.1</ele>
        <time>2024-05-26T10:03:31Z</time>
      </trkpt>
      <trkpt lat="48.79398" lon="2.24429">
        <ele>136.2</ele>
        <time>2024-05-26T10:03:32Z</time>
      </trkpt>
      <trkpt lat="48.79398" lon="2.24427">
        <ele>136.3</ele>
        <time>2024-05-26T10:03:33Z</time>
      </trkpt>
      <trkpt lat="48.79398" lon="2.24427">
        <ele>136.3</ele>
        <time>2024-05-26T10:03:34Z</time>
      </trkpt>
      <trkpt lat="48.79397" lon="2.24426">
        <ele>136.5</ele>
        <time>2024-05-26T10:03:35Z</time>
      </trkpt>
      <trkpt lat="48.79397" lon="2.24424">
        <ele>136.7</ele>
        <time>2024-05-26T10:03:36Z</time>
      </trkpt>
      <trkpt lat="48.79397" lon="2.24423">
        <ele>136.8</ele>
        <time>2024-05-26T10:03:37Z</time>
      </trkpt>
      <trkpt lat="48.79396" lon="2.24423">
        <ele>136.9</ele>
        <time>2024-05-26T10:03:38Z</time>
      </trkpt>
      <trkpt lat="48.79396" lon="2.24422">
        <ele>136.9</ele>
        <time>2024-05-26T10:03:39Z</time>
      </trkpt>
      <trkpt lat="48.79396" lon="2.24421">
        <ele>137.1</ele>
        <time>2024-05-26T10:03:40Z</time>
      </trkpt>
      <trkpt lat="48.79396" lon="2.24419">
        <ele>137.2</ele>
        <time>2024-05-26T10:03:41Z</time>
      </trkpt>
      <trkpt lat="48.79396" lon="2.24417">
        <ele>137.4</ele>
        <time>2024-05-26T10:03:42Z</time>
      </trkpt>
      <trkpt lat="48.79396" lon="2.24416">
        <ele>137.5</ele>
        <time>2024-05-26T10:03:43Z</time>
      </trkpt>
      <trkpt lat="48.79395" lon="2.24415">
        <ele>137.6</ele>
        <time>2024-05-26T10:03:44Z</time>
      </trkpt>
      <trkpt lat="48.79395" lon="2.24413">
        <ele>137.8</ele>
        <time>2024-05-26T10:03:45Z</time>
      </trkpt>
      <trkpt lat="48.79394" lon="2.24411">
        <ele>138</ele>
        <time>2024-05-26T10:03:46Z</time>
      </trkpt>
      <trkpt lat="48.79394" lon="2.2441">
        <ele>138.1</ele>
        <time>2024-05-26T10:03:47Z</time>
      </trkpt>
      <trkpt lat="48.79393" lon="2.24408">
        <ele>138.4</ele>
        <time>2024-05-26T10:03:48Z</time>
      </trkpt>
      <trkpt lat="48.79392" lon="2.24407">
        <ele>138.4</ele>
        <time>2024-05-26T10:03:49Z</time>
      </trkpt>
      <trkpt lat="48.79392" lon="2.24406">
        <ele>138.5</ele>
        <time>2024-05-26T10:03:50Z</time>
      </trkpt>
      <trkpt lat="48.79391" lon="2.24406">
        <ele>138.6</ele>
        <time>2024-05-26T10:03:51Z</time>
      </trkpt>
      <trkpt lat="48.79391" lon="2.24404">
        <ele>138.8</ele>
        <time>2024-05-26T10:03:52Z</time>
      </trkpt>
      <trkpt lat="48.7939" lon="2.24402">
        <ele>138.9</ele>
        <time>2024-05-26T10:03:53Z</time>
      </trkpt>
      <trkpt lat="48.7939" lon="2.24401">
        <ele>139.1</ele>
        <time>2024-05-26T10:03:54Z</time>
      </trkpt>
      <trkpt lat="48.7939" lon="2.24398">
        <ele>139.3</ele>
        <time>2024-05-26T10:03:55Z</time>
      </trkpt>
      <trkpt lat="48.7939" lon="2.24397">
        <ele>139.4</ele>
        <time>2024-05-26T10:03:56Z</time>
      </trkpt>
      <trkpt lat="48.79389" lon="2.24396">
        <ele>139.5</ele>
        <time>2024-05-26T10:03:57Z</time>
      </trkpt>
      <trkpt lat="48.79389" lon="2.24395">
        <ele>139.6</ele>
        <time>2024-05-26T10:03:58Z</time>
      </trkpt>
      <trkpt lat="48.79389" lon="2.24395">
        <ele>139.6</ele>
        <time>2024-05-26T10:03:59Z</time>
      </trkpt>
      <trkpt lat="48.79389" lon="2.24394">
        <ele>139.7</ele>
        <time>2024-05-26T10:04:00Z</time>
      </trkpt>
      <trkpt lat="48.79388" lon="2.24393">
        <ele>139.8</ele>
        <time>2024-05-26T10:04:01Z</time>
      </trkpt>
      <trkpt lat="48.79387" lon="2.24391">
        <ele>140</ele>
        <time>2024-05-26T10:04:02Z</time>
      </trkpt>
      <trkpt lat="48.79387" lon="2.2439">
        <ele>140.1</ele>
        <time>2024-05-26T10:04:03Z</time>
      </trkpt>
      <trkpt lat="48.79386" lon="2.24389">
        <ele>140.3</ele>
        <time>2024-05-26T10:04:04Z</time>
      </trkpt>
      <trkpt lat="48.79386" lon="2.24387">
        <ele>140.4</ele>
        <time>2024-05-26T10:04:05Z</time>
      </trkpt>
      <trkpt lat="48.79386" lon="2.24387">
        <ele>140.5</ele>
        <time>2024-05-26T10:04:06Z</time>
      </trkpt>
      <trkpt lat="48.79385" lon="2.24385">
        <ele>140.7</ele>
        <time>2024-05-26T10:04:07Z</time>
      </trkpt>
      <trkpt lat="48.79385" lon="2.24383">
        <ele>140.9</ele>
        <time>2024-05-26T10:04:08Z</time>
      </trkpt>
      <trkpt lat="48.79384" lon="2.24381">
        <ele>141.2</ele>
        <time>2024-05-26T10:04:09Z</time>
      </trkpt>
      <trkpt lat="48.79384" lon="2.2438">
        <ele>141.2</ele>
        <time>2024-05-26T10:04:10Z</time>
      </trkpt>
      <trkpt lat="48.79384" lon="2.24379">
        <ele>141.3</ele>
        <time>2024-05-26T10:04:11Z</time>
      </trkpt>
      <trkpt lat="48.79384" lon="2.24378">
        <ele>141.5</ele>
        <time>2024-05-26T10:04:12Z</time>
      </trkpt>
      <trkpt lat="48.79383" lon="2.24377">
        <ele>141.6</ele>
        <time>2024-05-26T10:04:13Z</time>
      </trkpt>
      <trkpt lat="48.79383" lon="2.24375">
        <ele>141.8</ele>
        <time>2024-05-26T10:04:14Z</time>
      </trkpt>
      <trkpt lat="48.79382" lon="2.24374">
        <ele>141.9</ele>
        <time>2024-05-26T10:04:15Z</time>
      </trkpt>
      <trkpt lat="48.79382" lon="2.24373">
        <ele>142.1</ele>
        <time>2024-05-26T10:04:16Z</time>
      </trkpt>
      <trkpt lat="48.79382" lon="2.24371">
        <ele>142.3</ele>
        <time>2024-05-26T10:04:17Z</time>
      </trkpt>
      <trkpt lat="48.79381" lon="2.24369">
        <ele>142.5</ele>
        <time>2024-05-26T10:04:18Z</time>
      </trkpt>
      <trkpt lat="48.79381" lon="2.24368">
        <ele>142.6</ele>
        <time>2024-05-26T10:04:19Z</time>
      </trkpt>
      <trkpt lat="48.7938" lon="2.24365">
        <ele>143</ele>
        <time>2024-05-26T10:04:20Z</time>
      </trkpt>
      <trkpt lat="48.7938" lon="2.24365">
        <ele>143</ele>
        <time>2024-05-26T10:04:21Z</time>
      </trkpt>
      <trkpt lat="48.7938" lon="2.24364">
        <ele>143.1</ele>
        <time>2024-05-26T10:04:22Z</time>
      </trkpt>
      <trkpt lat="48.79377" lon="2.24364">
        <ele>143.7</ele>
        <time>2024-05-26T10:04:23Z</time>
      </trkpt>
      <trkpt lat="48.79376" lon="2.24363">
        <ele>143.9</ele>
        <time>2024-05-26T10:04:24Z</time>
      </trkpt>
      <trkpt lat="48.79376" lon="2.24362">
        <ele>144</ele>
        <time>2024-05-26T10:04:25Z</time>
      </trkpt>
      <trkpt lat="48.79375" lon="2.24362">
        <ele>144.1</ele>
        <time>2024-05-26T10:04:26Z</time>
      </trkpt>
      <trkpt lat="48.79375" lon="2.24362">
        <ele>144.2</ele>
        <time>2024-05-26T10:04:27Z</time>
      </trkpt>
      <trkpt lat="48.79374" lon="2.24362">
        <ele>144.3</ele>
        <time>2024-05-26T10:04:28Z</time>
      </trkpt>
      <trkpt lat="48.79372" lon="2.24362">
        <ele>144.7</ele>
        <time>2024-05-26T10:04:29Z</time>
      </trkpt>
      <trkpt lat="48.79371" lon="2.24361">
        <ele>144.9</ele>
        <time>2024-05-26T10:04:30Z</time>
      </trkpt>
      <trkpt lat="48.79371" lon="2.24361">
        <ele>145</ele>
        <time>2024-05-26T10:04:31Z</time>
      </trkpt>
      <trkpt lat="48.79371" lon="2.24361">
        <ele>145</ele>
        <time>2024-05-26T10:04:32Z</time>
      </trkpt>
      <trkpt lat="48.79371" lon="2.24361">
        <ele>145.1</ele>
        <time>2024-05-26T10:04:33Z</time>
      </trkpt>
      <trkpt lat="48.7937" lon="2.24362">
        <ele>145.3</ele>
        <time>2024-05-26T10:04:34Z</time>
      </trkpt>
      <trkpt lat="48.79369" lon="2.24363">
        <ele>145.5</ele>
        <time>2024-05-26T10:04:35Z</time>
      </trkpt>
      <trkpt lat="48.79368" lon="2.24363">
        <ele>145.6</ele>
        <time>2024-05-26T10:04:36Z</time>
      </trkpt>
      <trkpt lat="48.79367" lon="2.24363">
        <ele>145.9</ele>
        <time>2024-05-26T10:04:37Z</time>
      </trkpt>
      <trkpt lat="48.79367" lon="2.24363">
        <ele>146</ele>
        <time>2024-05-26T10:04:38Z</time>
      </trkpt>
      <trkpt lat="48.79366" lon="2.24364">
        <ele>146.1</ele>
        <time>2024-05-26T10:04:39Z</time>
      </trkpt>
      <trkpt lat="48.79365" lon="2.24364">
        <ele>146.3</ele>
        <time>2024-05-26T10:04:40Z</time>
      </trkpt>
      <trkpt lat="48.79364" lon="2.24366">
        <ele>146.7</ele>
        <time>2024-05-26T10:04:41Z</time>
      </trkpt>
      <trkpt lat="48.79363" lon="2.24366">
        <ele>146.9</ele>
        <time>2024-05-26T10:04:42Z</time>
      </trkpt>
      <trkpt lat="48.79363" lon="2.24365">
        <ele>146.9</ele>
        <time>2024-05-26T10:04:43Z</time>
      </trkpt>
      <trkpt lat="48.79362" lon="2.24366">
        <ele>147.1</ele>
        <time>2024-05-26T10:04:44Z</time>
      </trkpt>
      <trkpt lat="48.79361" lon="2.24367">
        <ele>147.4</ele>
        <time>2024-05-26T10:04:45Z</time>
      </trkpt>
      <trkpt lat="48.79361" lon="2.24367">
        <ele>147.5</ele>
        <time>2024-05-26T10:04:47Z</time>
      </trkpt>
      <trkpt lat="48.7936" lon="2.24367">
        <ele>147.6</ele>
        <time>2024-05-26T10:04:48Z</time>
      </trkpt>
      <trkpt lat="48.79361" lon="2.24368">
        <ele>147.7</ele>
        <time>2024-05-26T10:04:49Z</time>
      </trkpt>
      <trkpt lat="48.7936" lon="2.24368">
        <ele>147.8</ele>
        <time>2024-05-26T10:04:50Z</time>
      </trkpt>
      <trkpt lat="48.7936" lon="2.24368">
        <ele>147.9</ele>
        <time>2024-05-26T10:04:51Z</time>
      </trkpt>
      <trkpt lat="48.7936" lon="2.24369">
        <ele>147.9</ele>
        <time>2024-05-26T10:04:52Z</time>
      </trkpt>
      <trkpt lat="48.79358" lon="2.24369">
        <ele>148.2</ele>
        <time>2024-05-26T10:04:53Z</time>
      </trkpt>
      <trkpt lat="48.79357" lon="2.2437">
        <ele>148.4</ele>
        <time>2024-05-26T10:04:54Z</time>
      </trkpt>
      <trkpt lat="48.79357" lon="2.24369">
        <ele>148.5</ele>
        <time>2024-05-26T10:04:55Z</time>
      </trkpt>
      <trkpt lat="48.79356" lon="2.2437">
        <ele>148.6</ele>
        <time>2024-05-26T10:04:56Z</time>
      </trkpt>
      <trkpt lat="48.79356" lon="2.2437">
        <ele>148.8</ele>
        <time>2024-05-26T10:04:57Z</time>
      </trkpt>
      <trkpt lat="48.79355" lon="2.24371">
        <ele>148.9</ele>
        <time>2024-05-26T10:04:58Z</time>
      </trkpt>
      <trkpt lat="48.79354" lon="2.24372">
        <ele>149.2</ele>
        <time>2024-05-26T10:04:59Z</time>
      </trkpt>
      <trkpt lat="48.79353" lon="2.24373">
        <ele>149.3</ele>
        <time>2024-05-26T10:05:00Z</time>
      </trkpt>
      <trkpt lat="48.79351" lon="2.24374">
        <ele>149.7</ele>
        <time>2024-05-26T10:05:01Z</time>
      </trkpt>
      <trkpt lat="48.79351" lon="2.24374">
        <ele>149.8</ele>
        <time>2024-05-26T10:05:02Z</time>
      </trkpt>
      <trkpt lat="48.7935" lon="2.24374">
        <ele>149.9</ele>
        <time>2024-05-26T10:05:03Z</time>
      </trkpt>
      <trkpt lat="48.7935" lon="2.24374">
        <ele>150</ele>
        <time>2024-05-26T10:05:04Z</time>
      </trkpt>
      <trkpt lat="48.79348" lon="2.24376">
        <ele>150.4</ele>
        <time>2024-05-26T10:05:05Z</time>
      </trkpt>
      <trkpt lat="48.79347" lon="2.24376">
        <ele>150.6</ele>
        <time>2024-05-26T10:05:06Z</time>
      </trkpt>
      <trkpt lat="48.79346" lon="2.24376">
        <ele>150.8</ele>
        <time>2024-05-26T10:05:07Z</time>
      </trkpt>
      <trkpt lat="48.79346" lon="2.24377">
        <ele>150.9</ele>
        <time>2024-05-26T10:05:08Z</time>
      </trkpt>
      <trkpt lat="48.79345" lon="2.24378">
        <ele>151.1</ele>
        <time>2024-05-26T10:05:09Z</time>
      </trkpt>
      <trkpt lat="48.79344" lon="2.24378">
        <ele>151.2</ele>
        <time>2024-05-26T10:05:10Z</time>
      </trkpt>
      <trkpt lat="48.79343" lon="2.24378">
        <ele>151.5</ele>
        <time>2024-05-26T10:05:11Z</time>
      </trkpt>
      <trkpt lat="48.79342" lon="2.24378">
        <ele>151.6</ele>
        <time>2024-05-26T10:05:12Z</time>
      </trkpt>
      <trkpt lat="48.79341" lon="2.24378">
        <ele>151.9</ele>
        <time>2024-05-26T10:05:13Z</time>
      </trkpt>
      <trkpt lat="48.79339" lon="2.24379">
        <ele>152.2</ele>
        <time>2024-05-26T10:05:14Z</time>
      </trkpt>
      <trkpt lat="48.79338" lon="2.24379">
        <ele>152.4</ele>
        <time>2024-05-26T10:05:15Z</time>
      </trkpt>
      <trkpt lat="48.79338" lon="2.24379">
        <ele>152.5</ele>
        <time>2024-05-26T10:05:16Z</time>
      </trkpt>
      <trkpt lat="48.79337" lon="2.24379">
        <ele>152.6</ele>
        <time>2024-05-26T10:05:17Z</time>
      </trkpt>
      <trkpt lat="48.79336" lon="2.24379">
        <ele>152.7</ele>
        <time>2024-05-26T10:05:18Z</time>
      </trkpt>
      <trkpt lat="48.79336" lon="2.24379">
        <ele>152.9</ele>
        <time>2024-05-26T10:05:19Z</time>
      </trkpt>
      <trkpt lat="48.79335" lon="2.2438">
        <ele>153</ele>
        <time>2024-05-26T10:05:20Z</time>
      </trkpt>
      <trkpt lat="48.79334" lon="2.24381">
        <ele>153.3</ele>
        <time>2024-05-26T10:05:21Z</time>
      </trkpt>
      <trkpt lat="48.79333" lon="2.24381">
        <ele>153.5</ele>
        <time>2024-05-26T10:05:22Z</time>
      </trkpt>
      <trkpt lat="48.79332" lon="2.24382">
        <ele>153.7</ele>
        <time>2024-05-26T10:05:23Z</time>
      </trkpt>
      <trkpt lat="48.79331" lon="2.24383">
        <ele>153.9</ele>
        <time>2024-05-26T10:05:24Z</time>
      </trkpt>
      <trkpt lat="48.7933" lon="2.24382">
        <ele>154</ele>
        <time>2024-05-26T10:05:25Z</time>
      </trkpt>
      <trkpt lat="48.79328" lon="2.24382">
        <ele>154.3</ele>
        <time>2024-05-26T10:05:26Z</time>
      </trkpt>
      <trkpt lat="48.79327" lon="2.24382">
        <ele>154.5</ele>
        <time>2024-05-26T10:05:27Z</time>
      </trkpt>
      <trkpt lat="48.79326" lon="2.24383">
        <ele>154.7</ele>
        <time>2024-05-26T10:05:28Z</time>
      </trkpt>
      <trkpt lat="48.79325" lon="2.24383">
        <ele>154.9</ele>
        <time>2024-05-26T10:05:29Z</time>
      </trkpt>
      <trkpt lat="48.79326" lon="2.24383">
        <ele>154.9</ele>
        <time>2024-05-26T10:05:30Z</time>
      </trkpt>
      <trkpt lat="48.79324" lon="2.24383">
        <ele>155.2</ele>
        <time>2024-05-26T10:05:31Z</time>
      </trkpt>
      <trkpt lat="48.79325" lon="2.24383">
        <ele>155.2</ele>
        <time>2024-05-26T10:05:32Z</time>
      </trkpt>
      <trkpt lat="48.79323" lon="2.24383">
        <ele>155.5</ele>
        <time>2024-05-26T10:05:33Z</time>
      </trkpt>
      <trkpt lat="48.79322" lon="2.24384">
        <ele>155.7</ele>
        <time>2024-05-26T10:05:34Z</time>
      </trkpt>
      <trkpt lat="48.79321" lon="2.24384">
        <ele>155.8</ele>
        <time>2024-05-26T10:05:35Z</time>
      </trkpt>
      <trkpt lat="48.79321" lon="2.24385">
        <ele>155.9</ele>
        <time>2024-05-26T10:05:36Z</time>
      </trkpt>
      <trkpt lat="48.7932" lon="2.24384">
        <ele>156.1</ele>
        <time>2024-05-26T10:05:37Z</time>
      </trkpt>
      <trkpt lat="48.79319" lon="2.24384">
        <ele>156.3</ele>
        <time>2024-05-26T10:05:38Z</time>
      </trkpt>
      <trkpt lat="48.79319" lon="2.24385">
        <ele>156.4</ele>
        <time>2024-05-26T10:05:39Z</time>
      </trkpt>
      <trkpt lat="48.79318" lon="2.24385">
        <ele>156.5</ele>
        <time>2024-05-26T10:05:40Z</time>
      </trkpt>
      <trkpt lat="48.79317" lon="2.24384">
        <ele>156.7</ele>
        <time>2024-05-26T10:05:41Z</time>
      </trkpt>
      <trkpt lat="48.79316" lon="2.24384">
        <ele>156.8</ele>
        <time>2024-05-26T10:05:42Z</time>
      </trkpt>
      <trkpt lat="48.79315" lon="2.24384">
        <ele>157</ele>
        <time>2024-05-26T10:05:43Z</time>
      </trkpt>
      <trkpt lat="48.79314" lon="2.24383">
        <ele>157.2</ele>
        <time>2024-05-26T10:05:44Z</time>
      </trkpt>
      <trkpt lat="48.79313" lon="2.24384">
        <ele>157.4</ele>
        <time>2024-05-26T10:05:45Z</time>
      </trkpt>
      <trkpt lat="48.79312" lon="2.24384">
        <ele>157.7</ele>
        <time>2024-05-26T10:05:46Z</time>
      </trkpt>
      <trkpt lat="48.79311" lon="2.24384">
        <ele>157.9</ele>
        <time>2024-05-26T10:05:47Z</time>
      </trkpt>
      <trkpt lat="48.7931" lon="2.24385">
        <ele>158.1</ele>
        <time>2024-05-26T10:05:48Z</time>
      </trkpt>
      <trkpt lat="48.79309" lon="2.24385">
        <ele>158.3</ele>
        <time>2024-05-26T10:05:49Z</time>
      </trkpt>
      <trkpt lat="48.79307" lon="2.24385">
        <ele>158.6</ele>
        <time>2024-05-26T10:05:50Z</time>
      </trkpt>
      <trkpt lat="48.79307" lon="2.24385">
        <ele>158.7</ele>
        <time>2024-05-26T10:05:51Z</time>
      </trkpt>
      <trkpt lat="48.79306" lon="2.24385">
        <ele>158.9</ele>
        <time>2024-05-26T10:05:52Z</time>
      </trkpt>
      <trkpt lat="48.79304" lon="2.24385">
        <ele>159.2</ele>
        <time>2024-05-26T10:05:53Z</time>
      </trkpt>
      <trkpt lat="48.79304" lon="2.24386">
        <ele>159.3</ele>
        <time>2024-05-26T10:05:54Z</time>
      </trkpt>
      <trkpt lat="48.79302" lon="2.24386">
        <ele>159.7</ele>
        <time>2024-05-26T10:05:55Z</time>
      </trkpt>
      <trkpt lat="48.79301" lon="2.24386">
        <ele>159.9</ele>
        <time>2024-05-26T10:05:56Z</time>
      </trkpt>
      <trkpt lat="48.79301" lon="2.24386">
        <ele>159.9</ele>
        <time>2024-05-26T10:05:57Z</time>
      </trkpt>
      <trkpt lat="48.79301" lon="2.24386">
        <ele>159.9</ele>
        <time>2024-05-26T10:05:58Z</time>
      </trkpt>
      <trkpt lat="48.79298" lon="2.24387">
        <ele>160.6</ele>
        <time>2024-05-26T10:05:59Z</time>
      </trkpt>
      <trkpt lat="48.79297" lon="2.24387">
        <ele>160.9</ele>
        <time>2024-05-26T10:06:00Z</time>
      </trkpt>
      <trkpt lat="48.79295" lon="2.24387">
        <ele>161.3</ele>
        <time>2024-05-26T10:06:01Z</time>
      </trkpt>
      <trkpt lat="48.79294" lon="2.24387">
        <ele>161.5</ele>
        <time>2024-05-26T10:06:02Z</time>
      </trkpt>
      <trkpt lat="48.79293" lon="2.24387">
        <ele>161.7</ele>
        <time>2024-05-26T10:06:03Z</time>
      </trkpt>
      <trkpt lat="48.79293" lon="2.24388">
        <ele>161.9</ele>
        <time>2024-05-26T10:06:04Z</time>
      </trkpt>
      <trkpt lat="48.79292" lon="2.24389">
        <ele>162.2</ele>
        <time>2024-05-26T10:06:05Z</time>
      </trkpt>
      <trkpt lat="48.79291" lon="2.24389">
        <ele>162.4</ele>
        <time>2024-05-26T10:06:06Z</time>
      </trkpt>
      <trkpt lat="48.7929" lon="2.24389">
        <ele>162.6</ele>
        <time>2024-05-26T10:06:07Z</time>
      </trkpt>
      <trkpt lat="48.79289" lon="2.24388">
        <ele>162.8</ele>
        <time>2024-05-26T10:06:08Z</time>
      </trkpt>
      <trkpt lat="48.79287" lon="2.24389">
        <ele>163.2</ele>
        <time>2024-05-26T10:06:09Z</time>
      </trkpt>
      <trkpt lat="48.79286" lon="2.24389">
        <ele>163.5</ele>
        <time>2024-05-26T10:06:10Z</time>
      </trkpt>
      <trkpt lat="48.79285" lon="2.24389">
        <ele>163.7</ele>
        <time>2024-05-26T10:06:11Z</time>
      </trkpt>
      <trkpt lat="48.79284" lon="2.24389">
        <ele>163.9</ele>
        <time>2024-05-26T10:06:12Z</time>
      </trkpt>
      <trkpt lat="48.79284" lon="2.24389">
        <ele>164</ele>
        <time>2024-05-26T10:06:13Z</time>
      </trkpt>
      <trkpt lat="48.79283" lon="2.24389">
        <ele>164.2</ele>
        <time>2024-05-26T10:06:14Z</time>
      </trkpt>
      <trkpt lat="48.79283" lon="2.24389">
        <ele>164.3</ele>
        <time>2024-05-26T10:06:15Z</time>
      </trkpt>
      <trkpt lat="48.79282" lon="2.24389">
        <ele>164.4</ele>
        <time>2024-05-26T10:06:16Z</time>
      </trkpt>
      <trkpt lat="48.79281" lon="2.24389">
        <ele>164.6</ele>
        <time>2024-05-26T10:06:17Z</time>
      </trkpt>
      <trkpt lat="48.79281" lon="2.24388">
        <ele>164.9</ele>
        <time>2024-05-26T10:06:18Z</time>
      </trkpt>
      <trkpt lat="48.7928" lon="2.24388">
        <ele>165.1</ele>
        <time>2024-05-26T10:06:19Z</time>
      </trkpt>
      <trkpt lat="48.79279" lon="2.24388">
        <ele>165.2</ele>
        <time>2024-05-26T10:06:20Z</time>
      </trkpt>
      <trkpt lat="48.79279" lon="2.24388">
        <ele>165.3</ele>
        <time>2024-05-26T10:06:21Z</time>
      </trkpt>
      <trkpt lat="48.79278" lon="2.24388">
        <ele>165.5</ele>
        <time>2024-05-26T10:06:22Z</time>
      </trkpt>
      <trkpt lat="48.79277" lon="2.24388">
        <ele>165.8</ele>
        <time>2024-05-26T10:06:23Z</time>
      </trkpt>
      <trkpt lat="48.79277" lon="2.24387">
        <ele>166</ele>
        <time>2024-05-26T10:06:24Z</time>
      </trkpt>
      <trkpt lat="48.79276" lon="2.24388">
        <ele>166.1</ele>
        <time>2024-05-26T10:06:25Z</time>
      </trkpt>
      <trkpt lat="48.79275" lon="2.24388">
        <ele>166.4</ele>
        <time>2024-05-26T10:06:26Z</time>
      </trkpt>
      <trkpt lat="48.79274" lon="2.24389">
        <ele>166.6</ele>
        <time>2024-05-26T10:06:27Z</time>
      </trkpt>
      <trkpt lat="48.79274" lon="2.24389">
        <ele>166.6</ele>
        <time>2024-05-26T10:06:28Z</time>
      </trkpt>
      <trkpt lat="48.79275" lon="2.24389">
        <ele>166.6</ele>
        <time>2024-05-26T10:06:29Z</time>
      </trkpt>
      <trkpt lat="48.79274" lon="2.24389">
        <ele>166.6</ele>
        <time>2024-05-26T10:06:30Z</time>
      </trkpt>
      <trkpt lat="48.79273" lon="2.2439">
        <ele>166.6</ele>
        <time>2024-05-26T10:06:31Z</time>
      </trkpt>
      <trkpt lat="48.79273" lon="2.24392">
        <ele>166.6</ele>
        <time>2024-05-26T10:06:32Z</time>
      </trkpt>
      <trkpt lat="48.79272" lon="2.24393">
        <ele>166.6</ele>
        <time>2024-05-26T10:06:33Z</time>
      </trkpt>
      <trkpt lat="48.79271" lon="2.24394">
        <ele>166.6</ele>
        <time>2024-05-26T10:06:34Z</time>
      </trkpt>
      <trkpt lat="48.79271" lon="2.24395">
        <ele>166.6</ele>
        <time>2024-05-26T10:06:35Z</time>
      </trkpt>
      <trkpt lat="48.7927" lon="2.24396">
        <ele>166.6</ele>
        <time>2024-05-26T10:06:36Z</time>
      </trkpt>
      <trkpt lat="48.79269" lon="2.24396">
        <ele>166.6</ele>
        <time>2024-05-26T10:06:37Z</time>
      </trkpt>
      <trkpt lat="48.79268" lon="2.24397">
        <ele>166.6</ele>
        <time>2024-05-26T10:06:38Z</time>
      </trkpt>
      <trkpt lat="48.79267" lon="2.24399">
        <ele>166.6</ele>
        <time>2024-05-26T10:06:39Z</time>
      </trkpt>
      <trkpt lat="48.79266" lon="2.244">
        <ele>166.6</ele>
        <time>2024-05-26T10:06:40Z</time>
      </trkpt>
      <trkpt lat="48.79265" lon="2.24402">
        <ele>166.6</ele>
        <time>2024-05-26T10:06:41Z</time>
      </trkpt>
      <trkpt lat="48.79264" lon="2.24402">
        <ele>166.6</ele>
        <time>2024-05-26T10:06:42Z</time>
      </trkpt>
      <trkpt lat="48.79264" lon="2.24403">
        <ele>166.6</ele>
        <time>2024-05-26T10:06:43Z</time>
      </trkpt>
      <trkpt lat="48.79263" lon="2.24404">
        <ele>166.6</ele>
        <time>2024-05-26T10:06:44Z</time>
      </trkpt>
      <trkpt lat="48.79262" lon="2.24405">
        <ele>166.6</ele>
        <time>2024-05-26T10:06:45Z</time>
      </trkpt>
      <trkpt lat="48.79261" lon="2.24406">
        <ele>166.6</ele>
        <time>2024-05-26T10:06:46Z</time>
      </trkpt>
      <trkpt lat="48.7926" lon="2.24407">
        <ele>166.6</ele>
        <time>2024-05-26T10:06:47Z</time>
      </trkpt>
      <trkpt lat="48.79259" lon="2.24409">
        <ele>166.6</ele>
        <time>2024-05-26T10:06:48Z</time>
      </trkpt>
      <trkpt lat="48.79259" lon="2.24411">
        <ele>166.5</ele>
        <time>2024-05-26T10:06:49Z</time>
      </trkpt>
      <trkpt lat="48.79258" lon="2.24412">
        <ele>166.5</ele>
        <time>2024-05-26T10:06:50Z</time>
      </trkpt>
      <trkpt lat="48.79257" lon="2.24413">
        <ele>166.5</ele>
        <time>2024-05-26T10:06:51Z</time>
      </trkpt>
      <trkpt lat="48.79256" lon="2.24415">
        <ele>166.5</ele>
        <time>2024-05-26T10:06:53Z</time>
      </trkpt>
      <trkpt lat="48.79255" lon="2.24417">
        <ele>166.5</ele>
        <time>2024-05-26T10:06:54Z</time>
      </trkpt>
      <trkpt lat="48.79255" lon="2.24419">
        <ele>166.5</ele>
        <time>2024-05-26T10:06:55Z</time>
      </trkpt>
      <trkpt lat="48.79255" lon="2.24421">
        <ele>166.5</ele>
        <time>2024-05-26T10:06:56Z</time>
      </trkpt>
      <trkpt lat="48.79255" lon="2.24422">
        <ele>166.4</ele>
        <time>2024-05-26T10:06:57Z</time>
      </trkpt>
      <trkpt lat="48.79254" lon="2.24425">
        <ele>166.4</ele>
        <time>2024-05-26T10:06:58Z</time>
      </trkpt>
      <trkpt lat="48.79253" lon="2.24426">
        <ele>166.4</ele>
        <time>2024-05-26T10:06:59Z</time>
      </trkpt>
      <trkpt lat="48.79253" lon="2.24427">
        <ele>166.4</ele>
        <time>2024-05-26T10:07:00Z</time>
      </trkpt>
      <trkpt lat="48.79252" lon="2.2443">
        <ele>166.4</ele>
        <time>2024-05-26T10:07:01Z</time>
      </trkpt>
      <trkpt lat="48.79252" lon="2.24431">
        <ele>166.4</ele>
        <time>2024-05-26T10:07:02Z</time>
      </trkpt>
      <trkpt lat="48.79251" lon="2.24432">
        <ele>166.3</ele>
        <time>2024-05-26T10:07:03Z</time>
      </trkpt>
      <trkpt lat="48.7925" lon="2.24435">
        <ele>166.3</ele>
        <time>2024-05-26T10:07:04Z</time>
      </trkpt>
      <trkpt lat="48.79249" lon="2.24435">
        <ele>166.3</ele>
        <time>2024-05-26T10:07:05Z</time>
      </trkpt>
      <trkpt lat="48.79249" lon="2.24436">
        <ele>166.3</ele>
        <time>2024-05-26T10:07:06Z</time>
      </trkpt>
      <trkpt lat="48.79247" lon="2.24438">
        <ele>166.3</ele>
        <time>2024-05-26T10:07:07Z</time>
      </trkpt>
      <trkpt lat="48.79246" lon="2.24439">
        <ele>166.3</ele>
        <time>2024-05-26T10:07:08Z</time>
      </trkpt>
      <trkpt lat="48.79245" lon="2.24441">
        <ele>166.3</ele>
        <time>2024-05-26T10:07:09Z</time>
      </trkpt>
      <trkpt lat="48.79245" lon="2.24442">
        <ele>166.3</ele>
        <time>2024-05-26T10:07:10Z</time>
      </trkpt>
      <trkpt lat="48.79245" lon="2.24443">
        <ele>166.3</ele>
        <time>2024-05-26T10:07:11Z</time>
      </trkpt>
      <trkpt lat="48.79244" lon="2.24445">
        <ele>166.3</ele>
        <time>2024-05-26T10:07:12Z</time>
      </trkpt>
      <trkpt lat="48.79243" lon="2.24446">
        <ele>166.3</ele>
        <time>2024-05-26T10:07:13Z</time>
      </trkpt>
      <trkpt lat="48.79242" lon="2.24447">
        <ele>166.3</ele>
        <time>2024-05-26T10:07:14Z</time>
      </trkpt>
      <trkpt lat="48.79241" lon="2.24448">
        <ele>166.3</ele>
        <time>2024-05-26T10:07:15Z</time>
      </trkpt>
      <trkpt lat="48.7924" lon="2.2445">
        <ele>166.3</ele>
        <time>2024-05-26T10:07:16Z</time>
      </trkpt>
      <trkpt lat="48.79238" lon="2.24452">
        <ele>166.3</ele>
        <time>2024-05-26T10:07:17Z</time>
      </trkpt>
      <trkpt lat="48.79237" lon="2.24454">
        <ele>166.3</ele>
        <time>2024-05-26T10:07:18Z</time>
      </trkpt>
      <trkpt lat="48.79236" lon="2.24455">
        <ele>166.3</ele>
        <time>2024-05-26T10:07:19Z</time>
      </trkpt>
      <trkpt lat="48.79233" lon="2.24459">
        <ele>166.3</ele>
        <time>2024-05-26T10:07:20Z</time>
      </trkpt>
      <trkpt lat="48.79231" lon="2.24461">
        <ele>166.3</ele>
        <time>2024-05-26T10:07:21Z</time>
      </trkpt>
      <trkpt lat="48.7923" lon="2.24461">
        <ele>166.3</ele>
        <time>2024-05-26T10:07:22Z</time>
      </trkpt>
      <trkpt lat="48.79228" lon="2.24464">
        <ele>166.3</ele>
        <time>2024-05-26T10:07:23Z</time>
      </trkpt>
      <trkpt lat="48.79227" lon="2.24465">
        <ele>166.3</ele>
        <time>2024-05-26T10:07:24Z</time>
      </trkpt>
      <trkpt lat="48.79226" lon="2.24467">
        <ele>166.3</ele>
        <time>2024-05-26T10:07:25Z</time>
      </trkpt>
      <trkpt lat="48.79225" lon="2.24468">
        <ele>166.2</ele>
        <time>2024-05-26T10:07:26Z</time>
      </trkpt>
      <trkpt lat="48.79225" lon="2.24469">
        <ele>166.2</ele>
        <time>2024-05-26T10:07:27Z</time>
      </trkpt>
      <trkpt lat="48.79223" lon="2.2447">
        <ele>166.2</ele>
        <time>2024-05-26T10:07:28Z</time>
      </trkpt>
      <trkpt lat="48.79222" lon="2.24471">
        <ele>166.2</ele>
        <time>2024-05-26T10:07:29Z</time>
      </trkpt>
      <trkpt lat="48.79221" lon="2.24472">
        <ele>166.2</ele>
        <time>2024-05-26T10:07:30Z</time>
      </trkpt>
      <trkpt lat="48.79219" lon="2.24473">
        <ele>166.2</ele>
        <time>2024-05-26T10:07:31Z</time>
      </trkpt>
      <trkpt lat="48.79218" lon="2.24474">
        <ele>166.2</ele>
        <time>2024-05-26T10:07:32Z</time>
      </trkpt>
      <trkpt lat="48.79218" lon="2.24475">
        <ele>166.2</ele>
        <time>2024-05-26T10:07:33Z</time>
      </trkpt>
      <trkpt lat="48.79218" lon="2.24476">
        <ele>166.2</ele>
        <time>2024-05-26T10:07:34Z</time>
      </trkpt>
      <trkpt lat="48.79218" lon="2.24477">
        <ele>166.2</ele>
        <time>2024-05-26T10:07:35Z</time>
      </trkpt>
      <trkpt lat="48.79218" lon="2.24477">
        <ele>166.2</ele>
        <time>2024-05-26T10:07:36Z</time>
      </trkpt>
      <trkpt lat="48.79218" lon="2.24478">
        <ele>166.2</ele>
        <time>2024-05-26T10:07:37Z</time>
      </trkpt>
      <trkpt lat="48.79218" lon="2.24479">
        <ele>166.2</ele>
        <time>2024-05-26T10:07:38Z</time>
      </trkpt>
      <trkpt lat="48.79217" lon="2.2448">
        <ele>166.2</ele>
        <time>2024-05-26T10:07:39Z</time>
      </trkpt>
      <trkpt lat="48.79216" lon="2.24481">
        <ele>166.2</ele>
        <time>2024-05-26T10:07:40Z</time>
      </trkpt>
      <trkpt lat="48.79214" lon="2.24483">
        <ele>166.2</ele>
        <time>2024-05-26T10:07:41Z</time>
      </trkpt>
      <trkpt lat="48.79214" lon="2.24484">
        <ele>166.2</ele>
        <time>2024-05-26T10:07:42Z</time>
      </trkpt>
      <trkpt lat="48.79213" lon="2.24486">
        <ele>166.2</ele>
        <time>2024-05-26T10:07:43Z</time>
      </trkpt>
      <trkpt lat="48.79213" lon="2.24487">
        <ele>166.1</ele>
        <time>2024-05-26T10:07:44Z</time>
      </trkpt>
      <trkpt lat="48.79213" lon="2.24489">
        <ele>166.1</ele>
        <time>2024-05-26T10:07:45Z</time>
      </trkpt>
      <trkpt lat="48.79213" lon="2.2449">
        <ele>166.1</ele>
        <time>2024-05-26T10:07:46Z</time>
      </trkpt>
      <trkpt lat="48.79212" lon="2.24491">
        <ele>166.1</ele>
        <time>2024-05-26T10:07:47Z</time>
      </trkpt>
      <trkpt lat="48.79212" lon="2.24492">
        <ele>166.1</ele>
        <time>2024-05-26T10:07:48Z</time>
      </trkpt>
      <trkpt lat="48.79212" lon="2.24493">
        <ele>166.1</ele>
        <time>2024-05-26T10:07:49Z</time>
      </trkpt>
      <trkpt lat="48.79211" lon="2.24494">
        <ele>166.1</ele>
        <time>2024-05-26T10:07:50Z</time>
      </trkpt>
      <trkpt lat="48.7921" lon="2.24497">
        <ele>166.1</ele>
        <time>2024-05-26T10:07:51Z</time>
      </trkpt>
      <trkpt lat="48.79209" lon="2.24498">
        <ele>166.1</ele>
        <time>2024-05-26T10:07:52Z</time>
      </trkpt>
      <trkpt lat="48.79209" lon="2.24499">
        <ele>166.1</ele>
        <time>2024-05-26T10:07:53Z</time>
      </trkpt>
      <trkpt lat="48.79208" lon="2.245">
        <ele>166.1</ele>
        <time>2024-05-26T10:07:54Z</time>
      </trkpt>
      <trkpt lat="48.79208" lon="2.245">
        <ele>166.1</ele>
        <time>2024-05-26T10:07:55Z</time>
      </trkpt>
      <trkpt lat="48.79208" lon="2.24502">
        <ele>166.1</ele>
        <time>2024-05-26T10:07:56Z</time>
      </trkpt>
      <trkpt lat="48.79208" lon="2.24504">
        <ele>166.1</ele>
        <time>2024-05-26T10:07:57Z</time>
      </trkpt>
      <trkpt lat="48.79208" lon="2.24506">
        <ele>166.1</ele>
        <time>2024-05-26T10:07:58Z</time>
      </trkpt>
      <trkpt lat="48.79208" lon="2.24507">
        <ele>166.1</ele>
        <time>2024-05-26T10:07:59Z</time>
      </trkpt>
      <trkpt lat="48.79207" lon="2.24509">
        <ele>166.1</ele>
        <time>2024-05-26T10:08:00Z</time>
      </trkpt>
      <trkpt lat="48.79205" lon="2.2451">
        <ele>166.1</ele>
        <time>2024-05-26T10:08:01Z</time>
      </trkpt>
      <trkpt lat="48.79206" lon="2.24511">
        <ele>166.1</ele>
        <time>2024-05-26T10:08:02Z</time>
      </trkpt>
      <trkpt lat="48.79206" lon="2.24513">
        <ele>166.1</ele>
        <time>2024-05-26T10:08:03Z</time>
      </trkpt>
      <trkpt lat="48.79205" lon="2.24514">
        <ele>166.1</ele>
        <time>2024-05-26T10:08:04Z</time>
      </trkpt>
      <trkpt lat="48.79205" lon="2.24516">
        <ele>166.1</ele>
        <time>2024-05-26T10:08:05Z</time>
      </trkpt>
      <trkpt lat="48.79205" lon="2.24518">
        <ele>166.2</ele>
        <time>2024-05-26T10:08:06Z</time>
      </trkpt>
      <trkpt lat="48.79204" lon="2.2452">
        <ele>166.2</ele>
        <time>2024-05-26T10:08:07Z</time>
      </trkpt>
      <trkpt lat="48.79204" lon="2.24522">
        <ele>166.2</ele>
        <time>2024-05-26T10:08:08Z</time>
      </trkpt>
      <trkpt lat="48.79204" lon="2.24523">
        <ele>166.2</ele>
        <time>2024-05-26T10:08:09Z</time>
      </trkpt>
      <trkpt lat="48.79203" lon="2.24526">
        <ele>166.2</ele>
        <time>2024-05-26T10:08:10Z</time>
      </trkpt>
      <trkpt lat="48.79203" lon="2.24528">
        <ele>166.3</ele>
        <time>2024-05-26T10:08:11Z</time>
      </trkpt>
      <trkpt lat="48.79201" lon="2.2453">
        <ele>166.3</ele>
        <time>2024-05-26T10:08:12Z</time>
      </trkpt>
      <trkpt lat="48.79201" lon="2.24532">
        <ele>166.3</ele>
        <time>2024-05-26T10:08:13Z</time>
      </trkpt>
      <trkpt lat="48.79201" lon="2.24533">
        <ele>166.3</ele>
        <time>2024-05-26T10:08:14Z</time>
      </trkpt>
      <trkpt lat="48.79201" lon="2.24536">
        <ele>166.4</ele>
        <time>2024-05-26T10:08:15Z</time>
      </trkpt>
      <trkpt lat="48.79201" lon="2.24537">
        <ele>166.4</ele>
        <time>2024-05-26T10:08:16Z</time>
      </trkpt>
      <trkpt lat="48.792" lon="2.24538">
        <ele>166.4</ele>
        <time>2024-05-26T10:08:17Z</time>
      </trkpt>
      <trkpt lat="48.79199" lon="2.2454">
        <ele>166.4</ele>
        <time>2024-05-26T10:08:18Z</time>
      </trkpt>
      <trkpt lat="48.79199" lon="2.24542">
        <ele>166.4</ele>
        <time>2024-05-26T10:08:19Z</time>
      </trkpt>
      <trkpt lat="48.79198" lon="2.24543">
        <ele>166.4</ele>
        <time>2024-05-26T10:08:20Z</time>
      </trkpt>
      <trkpt lat="48.79199" lon="2.24545">
        <ele>166.4</ele>
        <time>2024-05-26T10:08:21Z</time>
      </trkpt>
      <trkpt lat="48.79198" lon="2.24548">
        <ele>166.5</ele>
        <time>2024-05-26T10:08:22Z</time>
      </trkpt>
      <trkpt lat="48.79198" lon="2.24549">
        <ele>166.5</ele>
        <time>2024-05-26T10:08:23Z</time>
      </trkpt>
      <trkpt lat="48.79198" lon="2.2455">
        <ele>166.5</ele>
        <time>2024-05-26T10:08:24Z</time>
      </trkpt>
      <trkpt lat="48.79197" lon="2.24552">
        <ele>166.5</ele>
        <time>2024-05-26T10:08:25Z</time>
      </trkpt>
      <trkpt lat="48.79198" lon="2.24554">
        <ele>166.5</ele>
        <time>2024-05-26T10:08:26Z</time>
      </trkpt>
      <trkpt lat="48.79198" lon="2.24555">
        <ele>166.5</ele>
        <time>2024-05-26T10:08:27Z</time>
      </trkpt>
      <trkpt lat="48.79198" lon="2.24556">
        <ele>166.6</ele>
        <time>2024-05-26T10:08:28Z</time>
      </trkpt>
      <trkpt lat="48.79199" lon="2.24558">
        <ele>166.6</ele>
        <time>2024-05-26T10:08:29Z</time>
      </trkpt>
      <trkpt lat="48.79199" lon="2.24559">
        <ele>166.6</ele>
        <time>2024-05-26T10:08:30Z</time>
      </trkpt>
      <trkpt lat="48.79199" lon="2.2456">
        <ele>166.6</ele>
        <time>2024-05-26T10:08:31Z</time>
      </trkpt>
      <trkpt lat="48.79199" lon="2.2456">
        <ele>166.6</ele>
        <time>2024-05-26T10:08:32Z</time>
      </trkpt>
      <trkpt lat="48.79199" lon="2.24562">
        <ele>166.6</ele>
        <time>2024-05-26T10:08:33Z</time>
      </trkpt>
      <trkpt lat="48.792" lon="2.24564">
        <ele>166.6</ele>
        <time>2024-05-26T10:08:34Z</time>
      </trkpt>
      <trkpt lat="48.792" lon="2.24566">
        <ele>166.7</ele>
        <time>2024-05-26T10:08:35Z</time>
      </trkpt>
      <trkpt lat="48.792" lon="2.24568">
        <ele>166.7</ele>
        <time>2024-05-26T10:08:36Z</time>
      </trkpt>
      <trkpt lat="48.792" lon="2.24569">
        <ele>166.7</ele>
        <time>2024-05-26T10:08:37Z</time>
      </trkpt>
      <trkpt lat="48.792" lon="2.24571">
        <ele>166.7</ele>
        <time>2024-05-26T10:08:38Z</time>
      </trkpt>
      <trkpt lat="48.792" lon="2.24573">
        <ele>166.7</ele>
        <time>2024-05-26T10:08:39Z</time>
      </trkpt>
      <trkpt lat="48.79199" lon="2.24575">
        <ele>166.7</ele>
        <time>2024-05-26T10:08:40Z</time>
      </trkpt>
      <trkpt lat="48.79199" lon="2.24578">
        <ele>166.8</ele>
        <time>2024-05-26T10:08:41Z</time>
      </trkpt>
      <trkpt lat="48.79199" lon="2.2458">
        <ele>166.8</ele>
        <time>2024-05-26T10:08:42Z</time>
      </trkpt>
      <trkpt lat="48.79199" lon="2.24582">
        <ele>166.8</ele>
        <time>2024-05-26T10:08:43Z</time>
      </trkpt>
      <trkpt lat="48.792" lon="2.24587">
        <ele>166.9</ele>
        <time>2024-05-26T10:08:44Z</time>
      </trkpt>
      <trkpt lat="48.792" lon="2.24588">
        <ele>166.9</ele>
        <time>2024-05-26T10:08:45Z</time>
      </trkpt>
      <trkpt lat="48.792" lon="2.24592">
        <ele>166.9</ele>
        <time>2024-05-26T10:08:46Z</time>
      </trkpt>
      <trkpt lat="48.792" lon="2.24594">
        <ele>167</ele>
        <time>2024-05-26T10:08:47Z</time>
      </trkpt>
      <trkpt lat="48.792" lon="2.24596">
        <ele>167</ele>
        <time>2024-05-26T10:08:48Z</time>
      </trkpt>
      <trkpt lat="48.79199" lon="2.24598">
        <ele>167</ele>
        <time>2024-05-26T10:08:49Z</time>
      </trkpt>
      <trkpt lat="48.79199" lon="2.246">
        <ele>167.1</ele>
        <time>2024-05-26T10:08:50Z</time>
      </trkpt>
      <trkpt lat="48.79198" lon="2.24602">
        <ele>167.1</ele>
        <time>2024-05-26T10:08:51Z</time>
      </trkpt>
      <trkpt lat="48.79198" lon="2.24602">
        <ele>167.1</ele>
        <time>2024-05-26T10:08:52Z</time>
      </trkpt>
      <trkpt lat="48.79198" lon="2.24603">
        <ele>167.1</ele>
        <time>2024-05-26T10:08:53Z</time>
      </trkpt>
      <trkpt lat="48.79198" lon="2.24605">
        <ele>167.1</ele>
        <time>2024-05-26T10:08:54Z</time>
      </trkpt>
      <trkpt lat="48.79198" lon="2.24607">
        <ele>167.1</ele>
        <time>2024-05-26T10:08:55Z</time>
      </trkpt>
      <trkpt lat="48.79199" lon="2.24608">
        <ele>167.2</ele>
        <time>2024-05-26T10:08:56Z</time>
      </trkpt>
      <trkpt lat="48.79199" lon="2.24608">
        <ele>167.2</ele>
        <time>2024-05-26T10:08:58Z</time>
      </trkpt>
      <trkpt lat="48.79199" lon="2.24609">
        <ele>167.2</ele>
        <time>2024-05-26T10:08:59Z</time>
      </trkpt>
      <trkpt lat="48.79199" lon="2.2461">
        <ele>167.2</ele>
        <time>2024-05-26T10:09:00Z</time>
      </trkpt>
      <trkpt lat="48.79199" lon="2.24611">
        <ele>167.2</ele>
        <time>2024-05-26T10:09:01Z</time>
      </trkpt>
      <trkpt lat="48.79198" lon="2.24613">
        <ele>167.2</ele>
        <time>2024-05-26T10:09:02Z</time>
      </trkpt>
      <trkpt lat="48.79198" lon="2.24616">
        <ele>167.3</ele>
        <time>2024-05-26T10:09:03Z</time>
      </trkpt>
      <trkpt lat="48.79198" lon="2.24618">
        <ele>167.3</ele>
        <time>2024-05-26T10:09:04Z</time>
      </trkpt>
      <trkpt lat="48.79198" lon="2.24621">
        <ele>167.3</ele>
        <time>2024-05-26T10:09:05Z</time>
      </trkpt>
      <trkpt lat="48.79198" lon="2.24622">
        <ele>167.4</ele>
        <time>2024-05-26T10:09:06Z</time>
      </trkpt>
      <trkpt lat="48.79198" lon="2.24623">
        <ele>167.4</ele>
        <time>2024-05-26T10:09:07Z</time>
      </trkpt>
      <trkpt lat="48.79198" lon="2.24626">
        <ele>167.4</ele>
        <time>2024-05-26T10:09:08Z</time>
      </trkpt>
      <trkpt lat="48.79197" lon="2.24628">
        <ele>167.5</ele>
        <time>2024-05-26T10:09:09Z</time>
      </trkpt>
      <trkpt lat="48.79198" lon="2.24629">
        <ele>167.5</ele>
        <time>2024-05-26T10:09:10Z</time>
      </trkpt>
      <trkpt lat="48.79197" lon="2.2463">
        <ele>167.5</ele>
        <time>2024-05-26T10:09:11Z</time>
      </trkpt>
      <trkpt lat="48.79197" lon="2.24632">
        <ele>167.6</ele>
        <time>2024-05-26T10:09:12Z</time>
      </trkpt>
      <trkpt lat="48.79196" lon="2.24633">
        <ele>167.6</ele>
        <time>2024-05-26T10:09:13Z</time>
      </trkpt>
      <trkpt lat="48.79196" lon="2.24636">
        <ele>167.7</ele>
        <time>2024-05-26T10:09:14Z</time>
      </trkpt>
      <trkpt lat="48.79195" lon="2.24637">
        <ele>167.7</ele>
        <time>2024-05-26T10:09:15Z</time>
      </trkpt>
      <trkpt lat="48.79193" lon="2.24638">
        <ele>167.8</ele>
        <time>2024-05-26T10:09:16Z</time>
      </trkpt>
      <trkpt lat="48.79192" lon="2.24639">
        <ele>167.9</ele>
        <time>2024-05-26T10:09:17Z</time>
      </trkpt>
      <trkpt lat="48.79191" lon="2.2464">
        <ele>167.9</ele>
        <time>2024-05-26T10:09:18Z</time>
      </trkpt>
      <trkpt lat="48.79189" lon="2.24642">
        <ele>168</ele>
        <time>2024-05-26T10:09:19Z</time>
      </trkpt>
      <trkpt lat="48.79189" lon="2.24642">
        <ele>168</ele>
        <time>2024-05-26T10:09:20Z</time>
      </trkpt>
      <trkpt lat="48.79188" lon="2.24643">
        <ele>168.1</ele>
        <time>2024-05-26T10:09:21Z</time>
      </trkpt>
      <trkpt lat="48.79187" lon="2.24643">
        <ele>168.1</ele>
        <time>2024-05-26T10:09:22Z</time>
      </trkpt>
      <trkpt lat="48.79184" lon="2.24644">
        <ele>168.2</ele>
        <time>2024-05-26T10:09:23Z</time>
      </trkpt>
      <trkpt lat="48.79183" lon="2.24645">
        <ele>168.3</ele>
        <time>2024-05-26T10:09:24Z</time>
      </trkpt>
      <trkpt lat="48.79181" lon="2.24646">
        <ele>168.4</ele>
        <time>2024-05-26T10:09:25Z</time>
      </trkpt>
      <trkpt lat="48.79179" lon="2.24646">
        <ele>168.5</ele>
        <time>2024-05-26T10:09:26Z</time>
      </trkpt>
      <trkpt lat="48.79177" lon="2.24646">
        <ele>168.6</ele>
        <time>2024-05-26T10:09:27Z</time>
      </trkpt>
      <trkpt lat="48.79176" lon="2.24646">
        <ele>168.7</ele>
        <time>2024-05-26T10:09:28Z</time>
      </trkpt>
      <trkpt lat="48.79175" lon="2.24646">
        <ele>168.7</ele>
        <time>2024-05-26T10:09:29Z</time>
      </trkpt>
      <trkpt lat="48.79172" lon="2.24646">
        <ele>168.8</ele>
        <time>2024-05-26T10:09:30Z</time>
      </trkpt>
      <trkpt lat="48.79172" lon="2.24645">
        <ele>168.9</ele>
        <time>2024-05-26T10:09:31Z</time>
      </trkpt>
      <trkpt lat="48.79171" lon="2.24645">
        <ele>168.9</ele>
        <time>2024-05-26T10:09:32Z</time>
      </trkpt>
      <trkpt lat="48.79171" lon="2.24644">
        <ele>168.9</ele>
        <time>2024-05-26T10:09:33Z</time>
      </trkpt>
      <trkpt lat="48.7917" lon="2.24644">
        <ele>168.9</ele>
        <time>2024-05-26T10:09:34Z</time>
      </trkpt>
      <trkpt lat="48.7917" lon="2.24644">
        <ele>168.9</ele>
        <time>2024-05-26T10:09:35Z</time>
      </trkpt>
      <trkpt lat="48.79169" lon="2.24643">
        <ele>169</ele>
        <time>2024-05-26T10:09:36Z</time>
      </trkpt>
      <trkpt lat="48.79169" lon="2.24643">
        <ele>169</ele>
        <time>2024-05-26T10:09:37Z</time>
      </trkpt>
      <trkpt lat="48.79168" lon="2.24643">
        <ele>169</ele>
        <time>2024-05-26T10:09:38Z</time>
      </trkpt>
      <trkpt lat="48.79167" lon="2.24644">
        <ele>169.1</ele>
        <time>2024-05-26T10:09:39Z</time>
      </trkpt>
      <trkpt lat="48.79166" lon="2.24645">
        <ele>169.1</ele>
        <time>2024-05-26T10:09:40Z</time>
      </trkpt>
      <trkpt lat="48.79165" lon="2.24646">
        <ele>169.2</ele>
        <time>2024-05-26T10:09:41Z</time>
      </trkpt>
      <trkpt lat="48.79164" lon="2.24647">
        <ele>169.3</ele>
        <time>2024-05-26T10:09:42Z</time>
      </trkpt>
      <trkpt lat="48.79163" lon="2.24648">
        <ele>169.3</ele>
        <time>2024-05-26T10:09:43Z</time>
      </trkpt>
      <trkpt lat="48.79162" lon="2.24648">
        <ele>169.4</ele>
        <time>2024-05-26T10:09:44Z</time>
      </trkpt>
      <trkpt lat="48.79159" lon="2.24648">
        <ele>169.5</ele>
        <time>2024-05-26T10:09:45Z</time>
      </trkpt>
      <trkpt lat="48.79158" lon="2.24648">
        <ele>169.6</ele>
        <time>2024-05-26T10:09:46Z</time>
      </trkpt>
      <trkpt lat="48.79155" lon="2.24646">
        <ele>169.8</ele>
        <time>2024-05-26T10:09:47Z</time>
      </trkpt>
      <trkpt lat="48.79154" lon="2.24646">
        <ele>169.8</ele>
        <time>2024-05-26T10:09:48Z</time>
      </trkpt>
      <trkpt lat="48.79151" lon="2.24645">
        <ele>169.9</ele>
        <time>2024-05-26T10:09:49Z</time>
      </trkpt>
      <trkpt lat="48.7915" lon="2.24644">
        <ele>169.9</ele>
        <time>2024-05-26T10:09:50Z</time>
      </trkpt>
      <trkpt lat="48.7915" lon="2.24644">
        <ele>169.9</ele>
        <time>2024-05-26T10:09:51Z</time>
      </trkpt>
      <trkpt lat="48.79148" lon="2.24643">
        <ele>170</ele>
        <time>2024-05-26T10:09:52Z</time>
      </trkpt>
      <trkpt lat="48.79147" lon="2.24642">
        <ele>170</ele>
        <time>2024-05-26T10:09:53Z</time>
      </trkpt>
      <trkpt lat="48.79145" lon="2.24641">
        <ele>170</ele>
        <time>2024-05-26T10:09:54Z</time>
      </trkpt>
      <trkpt lat="48.79144" lon="2.24641">
        <ele>170.1</ele>
        <time>2024-05-26T10:09:55Z</time>
      </trkpt>
      <trkpt lat="48.79143" lon="2.2464">
        <ele>170.1</ele>
        <time>2024-05-26T10:09:56Z</time>
      </trkpt>
      <trkpt lat="48.79142" lon="2.2464">
        <ele>170.1</ele>
        <time>2024-05-26T10:09:57Z</time>
      </trkpt>
      <trkpt lat="48.79141" lon="2.24639">
        <ele>170.1</ele>
        <time>2024-05-26T10:09:58Z</time>
      </trkpt>
      <trkpt lat="48.7914" lon="2.24638">
        <ele>170.1</ele>
        <time>2024-05-26T10:09:59Z</time>
      </trkpt>
      <trkpt lat="48.79139" lon="2.24637">
        <ele>170.1</ele>
        <time>2024-05-26T10:10:00Z</time>
      </trkpt>
      <trkpt lat="48.79138" lon="2.24637">
        <ele>170.2</ele>
        <time>2024-05-26T10:10:01Z</time>
      </trkpt>
      <trkpt lat="48.79137" lon="2.24636">
        <ele>170.2</ele>
        <time>2024-05-26T10:10:02Z</time>
      </trkpt>
      <trkpt lat="48.79136" lon="2.24635">
        <ele>170.2</ele>
        <time>2024-05-26T10:10:03Z</time>
      </trkpt>
      <trkpt lat="48.79135" lon="2.24634">
        <ele>170.2</ele>
        <time>2024-05-26T10:10:04Z</time>
      </trkpt>
      <trkpt lat="48.79133" lon="2.24634">
        <ele>170.2</ele>
        <time>2024-05-26T10:10:05Z</time>
      </trkpt>
      <trkpt lat="48.79133" lon="2.24634">
        <ele>170.2</ele>
        <time>2024-05-26T10:10:06Z</time>
      </trkpt>
      <trkpt lat="48.79133" lon="2.24634">
        <ele>170.2</ele>
        <time>2024-05-26T10:10:07Z</time>
      </trkpt>
      <trkpt lat="48.79133" lon="2.24633">
        <ele>170.2</ele>
        <time>2024-05-26T10:10:08Z</time>
      </trkpt>
      <trkpt lat="48.79131" lon="2.24633">
        <ele>170.2</ele>
        <time>2024-05-26T10:10:09Z</time>
      </trkpt>
      <trkpt lat="48.79131" lon="2.24632">
        <ele>170.2</ele>
        <time>2024-05-26T10:10:10Z</time>
      </trkpt>
      <trkpt lat="48.7913" lon="2.24632">
        <ele>170.2</ele>
        <time>2024-05-26T10:10:11Z</time>
      </trkpt>
      <trkpt lat="48.79129" lon="2.24631">
        <ele>170.3</ele>
        <time>2024-05-26T10:10:12Z</time>
      </trkpt>
      <trkpt lat="48.79129" lon="2.2463">
        <ele>170.3</ele>
        <time>2024-05-26T10:10:13Z</time>
      </trkpt>
      <trkpt lat="48.79128" lon="2.24629">
        <ele>170.3</ele>
        <time>2024-05-26T10:10:14Z</time>
      </trkpt>
      <trkpt lat="48.79127" lon="2.24629">
        <ele>170.3</ele>
        <time>2024-05-26T10:10:15Z</time>
      </trkpt>
      <trkpt lat="48.79126" lon="2.24628">
        <ele>170.3</ele>
        <time>2024-05-26T10:10:16Z</time>
      </trkpt>
      <trkpt lat="48.79126" lon="2.24628">
        <ele>170.3</ele>
        <time>2024-05-26T10:10:17Z</time>
      </trkpt>
      <trkpt lat="48.79125" lon="2.24628">
        <ele>170.3</ele>
        <time>2024-05-26T10:10:18Z</time>
      </trkpt>
      <trkpt lat="48.79124" lon="2.24628">
        <ele>170.3</ele>
        <time>2024-05-26T10:10:19Z</time>
      </trkpt>
      <trkpt lat="48.79124" lon="2.24627">
        <ele>170.3</ele>
        <time>2024-05-26T10:10:20Z</time>
      </trkpt>
      <trkpt lat="48.79122" lon="2.24627">
        <ele>170.3</ele>
        <time>2024-05-26T10:10:21Z</time>
      </trkpt>
      <trkpt lat="48.7912" lon="2.24626">
        <ele>170.3</ele>
        <time>2024-05-26T10:10:22Z</time>
      </trkpt>
      <trkpt lat="48.79119" lon="2.24626">
        <ele>170.3</ele>
        <time>2024-05-26T10:10:23Z</time>
      </trkpt>
      <trkpt lat="48.79116" lon="2.24623">
        <ele>170.4</ele>
        <time>2024-05-26T10:10:24Z</time>
      </trkpt>
      <trkpt lat="48.79114" lon="2.2462">
        <ele>170.4</ele>
        <time>2024-05-26T10:10:25Z</time>
      </trkpt>
      <trkpt lat="48.79114" lon="2.24619">
        <ele>170.4</ele>
        <time>2024-05-26T10:10:26Z</time>
      </trkpt>
      <trkpt lat="48.79113" lon="2.24617">
        <ele>170.4</ele>
        <time>2024-05-26T10:10:27Z</time>
      </trkpt>
      <trkpt lat="48.79112" lon="2.24615">
        <ele>170.3</ele>
        <time>2024-05-26T10:10:28Z</time>
      </trkpt>
      <trkpt lat="48.79111" lon="2.24613">
        <ele>170.3</ele>
        <time>2024-05-26T10:10:29Z</time>
      </trkpt>
      <trkpt lat="48.7911" lon="2.24611">
        <ele>170.3</ele>
        <time>2024-05-26T10:10:30Z</time>
      </trkpt>
      <trkpt lat="48.79109" lon="2.2461">
        <ele>170.3</ele>
        <time>2024-05-26T10:10:31Z</time>
      </trkpt>
      <trkpt lat="48.79108" lon="2.24607">
        <ele>170.3</ele>
        <time>2024-05-26T10:10:32Z</time>
      </trkpt>
      <trkpt lat="48.79107" lon="2.24605">
        <ele>170.2</ele>
        <time>2024-05-26T10:10:33Z</time>
      </trkpt>
      <trkpt lat="48.79107" lon="2.24604">
        <ele>170.2</ele>
        <time>2024-05-26T10:10:34Z</time>
      </trkpt>
      <trkpt lat="48.79106" lon="2.24602">
        <ele>170.2</ele>
        <time>2024-05-26T10:10:35Z</time>
      </trkpt>
      <trkpt lat="48.79106" lon="2.246">
        <ele>170.2</ele>
        <time>2024-05-26T10:10:36Z</time>
      </trkpt>
      <trkpt lat="48.79105" lon="2.24596">
        <ele>170.1</ele>
        <time>2024-05-26T10:10:37Z</time>
      </trkpt>
      <trkpt lat="48.79105" lon="2.24595">
        <ele>170.1</ele>
        <time>2024-05-26T10:10:38Z</time>
      </trkpt>
      <trkpt lat="48.79104" lon="2.24594">
        <ele>170.1</ele>
        <time>2024-05-26T10:10:39Z</time>
      </trkpt>
      <trkpt lat="48.79104" lon="2.24592">
        <ele>170.1</ele>
        <time>2024-05-26T10:10:40Z</time>
      </trkpt>
      <trkpt lat="48.79103" lon="2.24591">
        <ele>170.1</ele>
        <time>2024-05-26T10:10:41Z</time>
      </trkpt>
      <trkpt lat="48.79101" lon="2.24588">
        <ele>170</ele>
        <time>2024-05-26T10:10:42Z</time>
      </trkpt>
      <trkpt lat="48.79101" lon="2.24587">
        <ele>170</ele>
        <time>2024-05-26T10:10:43Z</time>
      </trkpt>
      <trkpt lat="48.791" lon="2.24585">
        <ele>170</ele>
        <time>2024-05-26T10:10:44Z</time>
      </trkpt>
      <trkpt lat="48.791" lon="2.24584">
        <ele>170</ele>
        <time>2024-05-26T10:10:45Z</time>
      </trkpt>
      <trkpt lat="48.791" lon="2.24583">
        <ele>169.9</ele>
        <time>2024-05-26T10:10:46Z</time>
      </trkpt>
      <trkpt lat="48.79099" lon="2.2458">
        <ele>169.9</ele>
        <time>2024-05-26T10:10:47Z</time>
      </trkpt>
      <trkpt lat="48.79099" lon="2.24578">
        <ele>169.9</ele>
        <time>2024-05-26T10:10:48Z</time>
      </trkpt>
      <trkpt lat="48.79099" lon="2.24577">
        <ele>169.9</ele>
        <time>2024-05-26T10:10:49Z</time>
      </trkpt>
      <trkpt lat="48.79098" lon="2.24575">
        <ele>169.9</ele>
        <time>2024-05-26T10:10:50Z</time>
      </trkpt>
      <trkpt lat="48.79098" lon="2.24574">
        <ele>169.8</ele>
        <time>2024-05-26T10:10:51Z</time>
      </trkpt>
      <trkpt lat="48.79098" lon="2.24573">
        <ele>169.8</ele>
        <time>2024-05-26T10:10:52Z</time>
      </trkpt>
      <trkpt lat="48.79097" lon="2.24571">
        <ele>169.8</ele>
        <time>2024-05-26T10:10:53Z</time>
      </trkpt>
      <trkpt lat="48.79097" lon="2.24569">
        <ele>169.8</ele>
        <time>2024-05-26T10:10:54Z</time>
      </trkpt>
      <trkpt lat="48.79096" lon="2.24568">
        <ele>169.8</ele>
        <time>2024-05-26T10:10:55Z</time>
      </trkpt>
      <trkpt lat="48.79096" lon="2.24567">
        <ele>169.8</ele>
        <time>2024-05-26T10:10:56Z</time>
      </trkpt>
      <trkpt lat="48.79096" lon="2.24566">
        <ele>169.8</ele>
        <time>2024-05-26T10:10:57Z</time>
      </trkpt>
      <trkpt lat="48.79095" lon="2.24563">
        <ele>169.7</ele>
        <time>2024-05-26T10:10:58Z</time>
      </trkpt>
      <trkpt lat="48.79094" lon="2.24562">
        <ele>169.7</ele>
        <time>2024-05-26T10:10:59Z</time>
      </trkpt>
      <trkpt lat="48.79094" lon="2.24561">
        <ele>169.7</ele>
        <time>2024-05-26T10:11:00Z</time>
      </trkpt>
      <trkpt lat="48.79093" lon="2.24558">
        <ele>169.7</ele>
        <time>2024-05-26T10:11:01Z</time>
      </trkpt>
      <trkpt lat="48.79092" lon="2.24556">
        <ele>169.7</ele>
        <time>2024-05-26T10:11:02Z</time>
      </trkpt>
      <trkpt lat="48.79091" lon="2.24555">
        <ele>169.7</ele>
        <time>2024-05-26T10:11:04Z</time>
      </trkpt>
      <trkpt lat="48.79091" lon="2.24553">
        <ele>169.6</ele>
        <time>2024-05-26T10:11:05Z</time>
      </trkpt>
      <trkpt lat="48.7909" lon="2.24552">
        <ele>169.6</ele>
        <time>2024-05-26T10:11:06Z</time>
      </trkpt>
      <trkpt lat="48.79089" lon="2.2455">
        <ele>169.6</ele>
        <time>2024-05-26T10:11:07Z</time>
      </trkpt>
      <trkpt lat="48.79088" lon="2.24548">
        <ele>169.6</ele>
        <time>2024-05-26T10:11:08Z</time>
      </trkpt>
      <trkpt lat="48.79087" lon="2.24546">
        <ele>169.6</ele>
        <time>2024-05-26T10:11:09Z</time>
      </trkpt>
      <trkpt lat="48.79088" lon="2.24544">
        <ele>169.6</ele>
        <time>2024-05-26T10:11:10Z</time>
      </trkpt>
      <trkpt lat="48.79088" lon="2.24543">
        <ele>169.6</ele>
        <time>2024-05-26T10:11:11Z</time>
      </trkpt>
      <trkpt lat="48.79087" lon="2.24541">
        <ele>169.5</ele>
        <time>2024-05-26T10:11:12Z</time>
      </trkpt>
      <trkpt lat="48.79086" lon="2.2454">
        <ele>169.5</ele>
        <time>2024-05-26T10:11:13Z</time>
      </trkpt>
      <trkpt lat="48.79086" lon="2.2454">
        <ele>169.5</ele>
        <time>2024-05-26T10:11:14Z</time>
      </trkpt>
      <trkpt lat="48.79085" lon="2.24539">
        <ele>169.5</ele>
        <time>2024-05-26T10:11:15Z</time>
      </trkpt>
      <trkpt lat="48.79085" lon="2.24536">
        <ele>169.5</ele>
        <time>2024-05-26T10:11:16Z</time>
      </trkpt>
      <trkpt lat="48.79085" lon="2.24535">
        <ele>169.5</ele>
        <time>2024-05-26T10:11:17Z</time>
      </trkpt>
      <trkpt lat="48.79084" lon="2.24533">
        <ele>169.5</ele>
        <time>2024-05-26T10:11:18Z</time>
      </trkpt>
      <trkpt lat="48.79083" lon="2.24532">
        <ele>169.4</ele>
        <time>2024-05-26T10:11:19Z</time>
      </trkpt>
      <trkpt lat="48.79083" lon="2.24531">
        <ele>169.4</ele>
        <time>2024-05-26T10:11:20Z</time>
      </trkpt>
      <trkpt lat="48.79083" lon="2.24529">
        <ele>169.4</ele>
        <time>2024-05-26T10:11:21Z</time>
      </trkpt>
      <trkpt lat="48.79083" lon="2.24527">
        <ele>169.4</ele>
        <time>2024-05-26T10:11:22Z</time>
      </trkpt>
      <trkpt lat="48.79083" lon="2.24525">
        <ele>169.4</ele>
        <time>2024-05-26T10:11:23Z</time>
      </trkpt>
      <trkpt lat="48.79083" lon="2.24523">
        <ele>169.4</ele>
        <time>2024-05-26T10:11:24Z</time>
      </trkpt>
      <trkpt lat="48.79083" lon="2.24521">
        <ele>169.3</ele>
        <time>2024-05-26T10:11:25Z</time>
      </trkpt>
      <trkpt lat="48.79082" lon="2.24517">
        <ele>169.3</ele>
        <time>2024-05-26T10:11:26Z</time>
      </trkpt>
      <trkpt lat="48.79082" lon="2.24515">
        <ele>169.3</ele>
        <time>2024-05-26T10:11:27Z</time>
      </trkpt>
      <trkpt lat="48.79082" lon="2.24512">
        <ele>169.2</ele>
        <time>2024-05-26T10:11:28Z</time>
      </trkpt>
      <trkpt lat="48.79081" lon="2.2451">
        <ele>169.2</ele>
        <time>2024-05-26T10:11:29Z</time>
      </trkpt>
      <trkpt lat="48.79081" lon="2.24509">
        <ele>169.2</ele>
        <time>2024-05-26T10:11:30Z</time>
      </trkpt>
      <trkpt lat="48.79081" lon="2.24507">
        <ele>169.2</ele>
        <time>2024-05-26T10:11:31Z</time>
      </trkpt>
      <trkpt lat="48.7908" lon="2.24505">
        <ele>169.2</ele>
        <time>2024-05-26T10:11:32Z</time>
      </trkpt>
      <trkpt lat="48.7908" lon="2.24503">
        <ele>169.1</ele>
        <time>2024-05-26T10:11:33Z</time>
      </trkpt>
      <trkpt lat="48.79081" lon="2.245">
        <ele>169.1</ele>
        <time>2024-05-26T10:11:34Z</time>
      </trkpt>
      <trkpt lat="48.7908" lon="2.24497">
        <ele>169.1</ele>
        <time>2024-05-26T10:11:35Z</time>
      </trkpt>
      <trkpt lat="48.7908" lon="2.24496">
        <ele>169.1</ele>
        <time>2024-05-26T10:11:36Z</time>
      </trkpt>
      <trkpt lat="48.7908" lon="2.24495">
        <ele>169</ele>
        <time>2024-05-26T10:11:37Z</time>
      </trkpt>
      <trkpt lat="48.79079" lon="2.24492">
        <ele>169</ele>
        <time>2024-05-26T10:11:38Z</time>
      </trkpt>
      <trkpt lat="48.79079" lon="2.2449">
        <ele>169</ele>
        <time>2024-05-26T10:11:39Z</time>
      </trkpt>
      <trkpt lat="48.79079" lon="2.24489">
        <ele>169</ele>
        <time>2024-05-26T10:11:40Z</time>
      </trkpt>
      <trkpt lat="48.79077" lon="2.24487">
        <ele>169</ele>
        <time>2024-05-26T10:11:41Z</time>
      </trkpt>
      <trkpt lat="48.79077" lon="2.24486">
        <ele>169</ele>
        <time>2024-05-26T10:11:42Z</time>
      </trkpt>
      <trkpt lat="48.79076" lon="2.24485">
        <ele>169</ele>
        <time>2024-05-26T10:11:43Z</time>
      </trkpt>
      <trkpt lat="48.79075" lon="2.24482">
        <ele>169</ele>
        <time>2024-05-26T10:11:44Z</time>
      </trkpt>
      <trkpt lat="48.79075" lon="2.24481">
        <ele>168.9</ele>
        <time>2024-05-26T10:11:45Z</time>
      </trkpt>
      <trkpt lat="48.79074" lon="2.2448">
        <ele>168.9</ele>
        <time>2024-05-26T10:11:46Z</time>
      </trkpt>
      <trkpt lat="48.79074" lon="2.24477">
        <ele>168.9</ele>
        <time>2024-05-26T10:11:47Z</time>
      </trkpt>
      <trkpt lat="48.79073" lon="2.24476">
        <ele>168.9</ele>
        <time>2024-05-26T10:11:48Z</time>
      </trkpt>
      <trkpt lat="48.79071" lon="2.24475">
        <ele>168.9</ele>
        <time>2024-05-26T10:11:49Z</time>
      </trkpt>
      <trkpt lat="48.7907" lon="2.24474">
        <ele>168.9</ele>
        <time>2024-05-26T10:11:50Z</time>
      </trkpt>
      <trkpt lat="48.79069" lon="2.24472">
        <ele>168.9</ele>
        <time>2024-05-26T10:11:51Z</time>
      </trkpt>
      <trkpt lat="48.79068" lon="2.24471">
        <ele>168.9</ele>
        <time>2024-05-26T10:11:52Z</time>
      </trkpt>
      <trkpt lat="48.79067" lon="2.24469">
        <ele>168.9</ele>
        <time>2024-05-26T10:11:53Z</time>
      </trkpt>
      <trkpt lat="48.79066" lon="2.24468">
        <ele>168.9</ele>
        <time>2024-05-26T10:11:54Z</time>
      </trkpt>
      <trkpt lat="48.79065" lon="2.24464">
        <ele>168.9</ele>
        <time>2024-05-26T10:11:55Z</time>
      </trkpt>
      <trkpt lat="48.79065" lon="2.24463">
        <ele>168.9</ele>
        <time>2024-05-26T10:11:56Z</time>
      </trkpt>
      <trkpt lat="48.79064" lon="2.24462">
        <ele>168.9</ele>
        <time>2024-05-26T10:11:57Z</time>
      </trkpt>
      <trkpt lat="48.79065" lon="2.2446">
        <ele>168.9</ele>
        <time>2024-05-26T10:11:58Z</time>
      </trkpt>
      <trkpt lat="48.79066" lon="2.24458">
        <ele>168.9</ele>
        <time>2024-05-26T10:11:59Z</time>
      </trkpt>
      <trkpt lat="48.79066" lon="2.24457">
        <ele>168.9</ele>
        <time>2024-05-26T10:12:00Z</time>
      </trkpt>
      <trkpt lat="48.79066" lon="2.24455">
        <ele>168.9</ele>
        <time>2024-05-26T10:12:01Z</time>
      </trkpt>
      <trkpt lat="48.79067" lon="2.24453">
        <ele>168.9</ele>
        <time>2024-05-26T10:12:02Z</time>
      </trkpt>
      <trkpt lat="48.79066" lon="2.2445">
        <ele>168.9</ele>
        <time>2024-05-26T10:12:03Z</time>
      </trkpt>
      <trkpt lat="48.79066" lon="2.24449">
        <ele>168.9</ele>
        <time>2024-05-26T10:12:04Z</time>
      </trkpt>
      <trkpt lat="48.79066" lon="2.24448">
        <ele>168.9</ele>
        <time>2024-05-26T10:12:05Z</time>
      </trkpt>
      <trkpt lat="48.79066" lon="2.24446">
        <ele>168.9</ele>
        <time>2024-05-26T10:12:06Z</time>
      </trkpt>
      <trkpt lat="48.79066" lon="2.24445">
        <ele>168.9</ele>
        <time>2024-05-26T10:12:07Z</time>
      </trkpt>
      <trkpt lat="48.79066" lon="2.24442">
        <ele>168.9</ele>
        <time>2024-05-26T10:12:08Z</time>
      </trkpt>
      <trkpt lat="48.79065" lon="2.2444">
        <ele>168.9</ele>
        <time>2024-05-26T10:12:09Z</time>
      </trkpt>
      <trkpt lat="48.79065" lon="2.24439">
        <ele>168.9</ele>
        <time>2024-05-26T10:12:10Z</time>
      </trkpt>
      <trkpt lat="48.79065" lon="2.24438">
        <ele>168.9</ele>
        <time>2024-05-26T10:12:11Z</time>
      </trkpt>
      <trkpt lat="48.79064" lon="2.24437">
        <ele>168.9</ele>
        <time>2024-05-26T10:12:12Z</time>
      </trkpt>
      <trkpt lat="48.79064" lon="2.24434">
        <ele>168.9</ele>
        <time>2024-05-26T10:12:13Z</time>
      </trkpt>
      <trkpt lat="48.79064" lon="2.24433">
        <ele>168.9</ele>
        <time>2024-05-26T10:12:14Z</time>
      </trkpt>
      <trkpt lat="48.79064" lon="2.24431">
        <ele>168.9</ele>
        <time>2024-05-26T10:12:15Z</time>
      </trkpt>
      <trkpt lat="48.79065" lon="2.24428">
        <ele>168.9</ele>
        <time>2024-05-26T10:12:16Z</time>
      </trkpt>
      <trkpt lat="48.79065" lon="2.24427">
        <ele>168.9</ele>
        <time>2024-05-26T10:12:17Z</time>
      </trkpt>
      <trkpt lat="48.79065" lon="2.24427">
        <ele>168.9</ele>
        <time>2024-05-26T10:12:18Z</time>
      </trkpt>
      <trkpt lat="48.79064" lon="2.24425">
        <ele>168.9</ele>
        <time>2024-05-26T10:12:19Z</time>
      </trkpt>
      <trkpt lat="48.79064" lon="2.24423">
        <ele>168.9</ele>
        <time>2024-05-26T10:12:20Z</time>
      </trkpt>
      <trkpt lat="48.79064" lon="2.2442">
        <ele>168.9</ele>
        <time>2024-05-26T10:12:21Z</time>
      </trkpt>
      <trkpt lat="48.79063" lon="2.24418">
        <ele>168.9</ele>
        <time>2024-05-26T10:12:22Z</time>
      </trkpt>
      <trkpt lat="48.79063" lon="2.24416">
        <ele>168.9</ele>
        <time>2024-05-26T10:12:23Z</time>
      </trkpt>
      <trkpt lat="48.79062" lon="2.24412">
        <ele>168.9</ele>
        <time>2024-05-26T10:12:24Z</time>
      </trkpt>
      <trkpt lat="48.79061" lon="2.24411">
        <ele>168.9</ele>
        <time>2024-05-26T10:12:25Z</time>
      </trkpt>
      <trkpt lat="48.79061" lon="2.24407">
        <ele>169</ele>
        <time>2024-05-26T10:12:26Z</time>
      </trkpt>
      <trkpt lat="48.7906" lon="2.24406">
        <ele>169</ele>
        <time>2024-05-26T10:12:27Z</time>
      </trkpt>
      <trkpt lat="48.7906" lon="2.24405">
        <ele>169</ele>
        <time>2024-05-26T10:12:28Z</time>
      </trkpt>
      <trkpt lat="48.79059" lon="2.24402">
        <ele>169</ele>
        <time>2024-05-26T10:12:29Z</time>
      </trkpt>
      <trkpt lat="48.79058" lon="2.24401">
        <ele>169</ele>
        <time>2024-05-26T10:12:30Z</time>
      </trkpt>
      <trkpt lat="48.79058" lon="2.244">
        <ele>169</ele>
        <time>2024-05-26T10:12:31Z</time>
      </trkpt>
      <trkpt lat="48.79057" lon="2.24397">
        <ele>169</ele>
        <time>2024-05-26T10:12:32Z</time>
      </trkpt>
      <trkpt lat="48.79056" lon="2.24396">
        <ele>169</ele>
        <time>2024-05-26T10:12:33Z</time>
      </trkpt>
      <trkpt lat="48.79056" lon="2.24395">
        <ele>169</ele>
        <time>2024-05-26T10:12:34Z</time>
      </trkpt>
      <trkpt lat="48.79055" lon="2.24392">
        <ele>169.1</ele>
        <time>2024-05-26T10:12:35Z</time>
      </trkpt>
      <trkpt lat="48.79055" lon="2.24391">
        <ele>169.1</ele>
        <time>2024-05-26T10:12:36Z</time>
      </trkpt>
      <trkpt lat="48.79054" lon="2.24389">
        <ele>169.1</ele>
        <time>2024-05-26T10:12:37Z</time>
      </trkpt>
      <trkpt lat="48.79054" lon="2.24386">
        <ele>169.1</ele>
        <time>2024-05-26T10:12:38Z</time>
      </trkpt>
      <trkpt lat="48.79053" lon="2.24385">
        <ele>169.1</ele>
        <time>2024-05-26T10:12:39Z</time>
      </trkpt>
      <trkpt lat="48.79053" lon="2.24384">
        <ele>169.2</ele>
        <time>2024-05-26T10:12:40Z</time>
      </trkpt>
      <trkpt lat="48.79052" lon="2.24381">
        <ele>169.2</ele>
        <time>2024-05-26T10:12:41Z</time>
      </trkpt>
      <trkpt lat="48.79052" lon="2.2438">
        <ele>169.2</ele>
        <time>2024-05-26T10:12:42Z</time>
      </trkpt>
      <trkpt lat="48.79051" lon="2.24379">
        <ele>169.2</ele>
        <time>2024-05-26T10:12:43Z</time>
      </trkpt>
      <trkpt lat="48.79051" lon="2.24377">
        <ele>169.2</ele>
        <time>2024-05-26T10:12:44Z</time>
      </trkpt>
      <trkpt lat="48.79051" lon="2.24376">
        <ele>169.3</ele>
        <time>2024-05-26T10:12:45Z</time>
      </trkpt>
      <trkpt lat="48.7905" lon="2.24374">
        <ele>169.3</ele>
        <time>2024-05-26T10:12:46Z</time>
      </trkpt>
      <trkpt lat="48.7905" lon="2.24371">
        <ele>169.3</ele>
        <time>2024-05-26T10:12:47Z</time>
      </trkpt>
      <trkpt lat="48.79049" lon="2.24369">
        <ele>169.4</ele>
        <time>2024-05-26T10:12:48Z</time>
      </trkpt>
      <trkpt lat="48.79049" lon="2.24368">
        <ele>169.4</ele>
        <time>2024-05-26T10:12:49Z</time>
      </trkpt>
      <trkpt lat="48.79049" lon="2.24366">
        <ele>169.4</ele>
        <time>2024-05-26T10:12:50Z</time>
      </trkpt>
      <trkpt lat="48.79049" lon="2.24365">
        <ele>169.4</ele>
        <time>2024-05-26T10:12:51Z</time>
      </trkpt>
      <trkpt lat="48.79048" lon="2.24363">
        <ele>169.4</ele>
        <time>2024-05-26T10:12:52Z</time>
      </trkpt>
      <trkpt lat="48.79048" lon="2.24361">
        <ele>169.4</ele>
        <time>2024-05-26T10:12:53Z</time>
      </trkpt>
      <trkpt lat="48.79048" lon="2.24359">
        <ele>169.4</ele>
        <time>2024-05-26T10:12:54Z</time>
      </trkpt>
      <trkpt lat="48.79048" lon="2.24357">
        <ele>169.5</ele>
        <time>2024-05-26T10:12:55Z</time>
      </trkpt>
      <trkpt lat="48.79048" lon="2.24355">
        <ele>169.5</ele>
        <time>2024-05-26T10:12:56Z</time>
      </trkpt>
      <trkpt lat="48.79048" lon="2.24354">
        <ele>169.5</ele>
        <time>2024-05-26T10:12:57Z</time>
      </trkpt>
      <trkpt lat="48.79048" lon="2.24354">
        <ele>169.5</ele>
        <time>2024-05-26T10:12:58Z</time>
      </trkpt>
      <trkpt lat="48.79048" lon="2.24352">
        <ele>169.5</ele>
        <time>2024-05-26T10:12:59Z</time>
      </trkpt>
      <trkpt lat="48.79047" lon="2.2435">
        <ele>169.5</ele>
        <time>2024-05-26T10:13:00Z</time>
      </trkpt>
      <trkpt lat="48.79046" lon="2.24349">
        <ele>169.5</ele>
        <time>2024-05-26T10:13:01Z</time>
      </trkpt>
      <trkpt lat="48.79046" lon="2.24348">
        <ele>169.5</ele>
        <time>2024-05-26T10:13:02Z</time>
      </trkpt>
      <trkpt lat="48.79045" lon="2.24346">
        <ele>169.5</ele>
        <time>2024-05-26T10:13:03Z</time>
      </trkpt>
      <trkpt lat="48.79045" lon="2.24343">
        <ele>169.5</ele>
        <time>2024-05-26T10:13:04Z</time>
      </trkpt>
      <trkpt lat="48.79045" lon="2.24342">
        <ele>169.5</ele>
        <time>2024-05-26T10:13:05Z</time>
      </trkpt>
      <trkpt lat="48.79044" lon="2.2434">
        <ele>169.5</ele>
        <time>2024-05-26T10:13:06Z</time>
      </trkpt>
      <trkpt lat="48.79044" lon="2.24339">
        <ele>169.5</ele>
        <time>2024-05-26T10:13:07Z</time>
      </trkpt>
      <trkpt lat="48.79043" lon="2.24339">
        <ele>169.5</ele>
        <time>2024-05-26T10:13:09Z</time>
      </trkpt>
      <trkpt lat="48.79043" lon="2.24338">
        <ele>169.5</ele>
        <time>2024-05-26T10:13:10Z</time>
      </trkpt>
      <trkpt lat="48.79042" lon="2.24338">
        <ele>169.5</ele>
        <time>2024-05-26T10:13:11Z</time>
      </trkpt>
      <trkpt lat="48.79041" lon="2.24336">
        <ele>169.5</ele>
        <time>2024-05-26T10:13:12Z</time>
      </trkpt>
      <trkpt lat="48.7904" lon="2.24333">
        <ele>169.5</ele>
        <time>2024-05-26T10:13:13Z</time>
      </trkpt>
      <trkpt lat="48.7904" lon="2.24332">
        <ele>169.5</ele>
        <time>2024-05-26T10:13:14Z</time>
      </trkpt>
      <trkpt lat="48.7904" lon="2.24331">
        <ele>169.5</ele>
        <time>2024-05-26T10:13:15Z</time>
      </trkpt>
      <trkpt lat="48.79041" lon="2.24328">
        <ele>169.5</ele>
        <time>2024-05-26T10:13:16Z</time>
      </trkpt>
      <trkpt lat="48.79041" lon="2.24326">
        <ele>169.5</ele>
        <time>2024-05-26T10:13:17Z</time>
      </trkpt>
      <trkpt lat="48.79041" lon="2.24324">
        <ele>169.5</ele>
        <time>2024-05-26T10:13:18Z</time>
      </trkpt>
      <trkpt lat="48.79042" lon="2.24323">
        <ele>169.5</ele>
        <time>2024-05-26T10:13:19Z</time>
      </trkpt>
      <trkpt lat="48.79042" lon="2.24322">
        <ele>169.5</ele>
        <time>2024-05-26T10:13:20Z</time>
      </trkpt>
      <trkpt lat="48.79042" lon="2.24321">
        <ele>169.5</ele>
        <time>2024-05-26T10:13:21Z</time>
      </trkpt>
      <trkpt lat="48.79042" lon="2.24321">
        <ele>169.5</ele>
        <time>2024-05-26T10:13:22Z</time>
      </trkpt>
      <trkpt lat="48.79042" lon="2.2432">
        <ele>169.5</ele>
        <time>2024-05-26T10:13:23Z</time>
      </trkpt>
      <trkpt lat="48.79043" lon="2.24317">
        <ele>169.4</ele>
        <time>2024-05-26T10:13:24Z</time>
      </trkpt>
      <trkpt lat="48.79044" lon="2.24316">
        <ele>169.4</ele>
        <time>2024-05-26T10:13:25Z</time>
      </trkpt>
      <trkpt lat="48.79045" lon="2.24315">
        <ele>169.3</ele>
        <time>2024-05-26T10:13:26Z</time>
      </trkpt>
      <trkpt lat="48.79046" lon="2.24313">
        <ele>169.2</ele>
        <time>2024-05-26T10:13:27Z</time>
      </trkpt>
      <trkpt lat="48.79046" lon="2.24312">
        <ele>169.2</ele>
        <time>2024-05-26T10:13:28Z</time>
      </trkpt>
      <trkpt lat="48.79049" lon="2.24309">
        <ele>169</ele>
        <time>2024-05-26T10:13:29Z</time>
      </trkpt>
      <trkpt lat="48.7905" lon="2.24308">
        <ele>168.9</ele>
        <time>2024-05-26T10:13:30Z</time>
      </trkpt>
      <trkpt lat="48.79051" lon="2.2431">
        <ele>168.9</ele>
        <time>2024-05-26T10:13:31Z</time>
      </trkpt>
      <trkpt lat="48.79051" lon="2.2431">
        <ele>168.8</ele>
        <time>2024-05-26T10:13:32Z</time>
      </trkpt>
      <trkpt lat="48.79052" lon="2.2431">
        <ele>168.8</ele>
        <time>2024-05-26T10:13:33Z</time>
      </trkpt>
      <trkpt lat="48.79053" lon="2.2431">
        <ele>168.8</ele>
        <time>2024-05-26T10:13:34Z</time>
      </trkpt>
      <trkpt lat="48.79054" lon="2.24309">
        <ele>168.7</ele>
        <time>2024-05-26T10:13:35Z</time>
      </trkpt>
      <trkpt lat="48.79055" lon="2.24308">
        <ele>168.6</ele>
        <time>2024-05-26T10:13:36Z</time>
      </trkpt>
      <trkpt lat="48.79056" lon="2.24308">
        <ele>168.6</ele>
        <time>2024-05-26T10:13:37Z</time>
      </trkpt>
      <trkpt lat="48.79057" lon="2.24307">
        <ele>168.5</ele>
        <time>2024-05-26T10:13:38Z</time>
      </trkpt>
      <trkpt lat="48.79058" lon="2.24306">
        <ele>168.5</ele>
        <time>2024-05-26T10:13:39Z</time>
      </trkpt>
      <trkpt lat="48.79059" lon="2.24304">
        <ele>168.4</ele>
        <time>2024-05-26T10:13:40Z</time>
      </trkpt>
      <trkpt lat="48.79061" lon="2.24303">
        <ele>168.3</ele>
        <time>2024-05-26T10:13:41Z</time>
      </trkpt>
      <trkpt lat="48.79062" lon="2.24302">
        <ele>168.3</ele>
        <time>2024-05-26T10:13:42Z</time>
      </trkpt>
      <trkpt lat="48.79064" lon="2.24301">
        <ele>168.2</ele>
        <time>2024-05-26T10:13:43Z</time>
      </trkpt>
      <trkpt lat="48.79065" lon="2.243">
        <ele>168.1</ele>
        <time>2024-05-26T10:13:44Z</time>
      </trkpt>
      <trkpt lat="48.79065" lon="2.243">
        <ele>168.1</ele>
        <time>2024-05-26T10:13:45Z</time>
      </trkpt>
      <trkpt lat="48.79067" lon="2.24299">
        <ele>168.1</ele>
        <time>2024-05-26T10:13:46Z</time>
      </trkpt>
      <trkpt lat="48.79068" lon="2.24297">
        <ele>168</ele>
        <time>2024-05-26T10:13:47Z</time>
      </trkpt>
      <trkpt lat="48.79069" lon="2.24297">
        <ele>168</ele>
        <time>2024-05-26T10:13:48Z</time>
      </trkpt>
      <trkpt lat="48.7907" lon="2.24295">
        <ele>167.9</ele>
        <time>2024-05-26T10:13:49Z</time>
      </trkpt>
      <trkpt lat="48.79072" lon="2.24294">
        <ele>167.9</ele>
        <time>2024-05-26T10:13:50Z</time>
      </trkpt>
      <trkpt lat="48.79073" lon="2.24293">
        <ele>167.8</ele>
        <time>2024-05-26T10:13:51Z</time>
      </trkpt>
      <trkpt lat="48.79075" lon="2.24292">
        <ele>167.8</ele>
        <time>2024-05-26T10:13:52Z</time>
      </trkpt>
      <trkpt lat="48.79076" lon="2.24291">
        <ele>167.7</ele>
        <time>2024-05-26T10:13:53Z</time>
      </trkpt>
      <trkpt lat="48.79076" lon="2.2429">
        <ele>167.7</ele>
        <time>2024-05-26T10:13:54Z</time>
      </trkpt>
      <trkpt lat="48.79077" lon="2.2429">
        <ele>167.7</ele>
        <time>2024-05-26T10:13:55Z</time>
      </trkpt>
      <trkpt lat="48.79079" lon="2.2429">
        <ele>167.6</ele>
        <time>2024-05-26T10:13:56Z</time>
      </trkpt>
      <trkpt lat="48.79081" lon="2.24288">
        <ele>167.6</ele>
        <time>2024-05-26T10:13:57Z</time>
      </trkpt>
      <trkpt lat="48.79081" lon="2.24288">
        <ele>167.6</ele>
        <time>2024-05-26T10:13:58Z</time>
      </trkpt>
      <trkpt lat="48.79082" lon="2.24287">
        <ele>167.5</ele>
        <time>2024-05-26T10:13:59Z</time>
      </trkpt>
      <trkpt lat="48.79083" lon="2.24287">
        <ele>167.5</ele>
        <time>2024-05-26T10:14:00Z</time>
      </trkpt>
      <trkpt lat="48.79085" lon="2.24285">
        <ele>167.4</ele>
        <time>2024-05-26T10:14:01Z</time>
      </trkpt>
      <trkpt lat="48.79087" lon="2.24284">
        <ele>167.4</ele>
        <time>2024-05-26T10:14:02Z</time>
      </trkpt>
      <trkpt lat="48.79088" lon="2.24283">
        <ele>167.4</ele>
        <time>2024-05-26T10:14:03Z</time>
      </trkpt>
      <trkpt lat="48.79089" lon="2.24283">
        <ele>167.3</ele>
        <time>2024-05-26T10:14:04Z</time>
      </trkpt>
      <trkpt lat="48.79091" lon="2.24283">
        <ele>167.3</ele>
        <time>2024-05-26T10:14:05Z</time>
      </trkpt>
      <trkpt lat="48.79094" lon="2.24281">
        <ele>167.2</ele>
        <time>2024-05-26T10:14:06Z</time>
      </trkpt>
      <trkpt lat="48.79096" lon="2.2428">
        <ele>167.1</ele>
        <time>2024-05-26T10:14:07Z</time>
      </trkpt>
      <trkpt lat="48.79098" lon="2.24278">
        <ele>167</ele>
        <time>2024-05-26T10:14:08Z</time>
      </trkpt>
      <trkpt lat="48.79099" lon="2.24278">
        <ele>167</ele>
        <time>2024-05-26T10:14:09Z</time>
      </trkpt>
      <trkpt lat="48.791" lon="2.24277">
        <ele>167</ele>
        <time>2024-05-26T10:14:10Z</time>
      </trkpt>
      <trkpt lat="48.79103" lon="2.24276">
        <ele>166.9</ele>
        <time>2024-05-26T10:14:11Z</time>
      </trkpt>
      <trkpt lat="48.79103" lon="2.24275">
        <ele>166.9</ele>
        <time>2024-05-26T10:14:12Z</time>
      </trkpt>
      <trkpt lat="48.79104" lon="2.24274">
        <ele>166.8</ele>
        <time>2024-05-26T10:14:13Z</time>
      </trkpt>
      <trkpt lat="48.79106" lon="2.24273">
        <ele>166.7</ele>
        <time>2024-05-26T10:14:14Z</time>
      </trkpt>
      <trkpt lat="48.79108" lon="2.24273">
        <ele>166.7</ele>
        <time>2024-05-26T10:14:15Z</time>
      </trkpt>
      <trkpt lat="48.79109" lon="2.24272">
        <ele>166.6</ele>
        <time>2024-05-26T10:14:16Z</time>
      </trkpt>
      <trkpt lat="48.7911" lon="2.2427">
        <ele>166.6</ele>
        <time>2024-05-26T10:14:17Z</time>
      </trkpt>
      <trkpt lat="48.79111" lon="2.24268">
        <ele>166.5</ele>
        <time>2024-05-26T10:14:18Z</time>
      </trkpt>
      <trkpt lat="48.79113" lon="2.24266">
        <ele>166.5</ele>
        <time>2024-05-26T10:14:19Z</time>
      </trkpt>
      <trkpt lat="48.79114" lon="2.24265">
        <ele>166.4</ele>
        <time>2024-05-26T10:14:20Z</time>
      </trkpt>
      <trkpt lat="48.79115" lon="2.24264">
        <ele>166.3</ele>
        <time>2024-05-26T10:14:21Z</time>
      </trkpt>
      <trkpt lat="48.79116" lon="2.24264">
        <ele>166.3</ele>
        <time>2024-05-26T10:14:22Z</time>
      </trkpt>
      <trkpt lat="48.79118" lon="2.24264">
        <ele>166.3</ele>
        <time>2024-05-26T10:14:23Z</time>
      </trkpt>
      <trkpt lat="48.79119" lon="2.24265">
        <ele>166.2</ele>
        <time>2024-05-26T10:14:24Z</time>
      </trkpt>
      <trkpt lat="48.79122" lon="2.24265">
        <ele>166.1</ele>
        <time>2024-05-26T10:14:25Z</time>
      </trkpt>
      <trkpt lat="48.79122" lon="2.24264">
        <ele>166.1</ele>
        <time>2024-05-26T10:14:26Z</time>
      </trkpt>
      <trkpt lat="48.79123" lon="2.24263">
        <ele>166</ele>
        <time>2024-05-26T10:14:27Z</time>
      </trkpt>
      <trkpt lat="48.79125" lon="2.24261">
        <ele>166</ele>
        <time>2024-05-26T10:14:28Z</time>
      </trkpt>
      <trkpt lat="48.79126" lon="2.24261">
        <ele>166</ele>
        <time>2024-05-26T10:14:29Z</time>
      </trkpt>
      <trkpt lat="48.79126" lon="2.2426">
        <ele>165.9</ele>
        <time>2024-05-26T10:14:30Z</time>
      </trkpt>
      <trkpt lat="48.79127" lon="2.24259">
        <ele>165.9</ele>
        <time>2024-05-26T10:14:31Z</time>
      </trkpt>
      <trkpt lat="48.79129" lon="2.24259">
        <ele>165.9</ele>
        <time>2024-05-26T10:14:32Z</time>
      </trkpt>
      <trkpt lat="48.79129" lon="2.24259">
        <ele>165.8</ele>
        <time>2024-05-26T10:14:33Z</time>
      </trkpt>
      <trkpt lat="48.7913" lon="2.24257">
        <ele>165.8</ele>
        <time>2024-05-26T10:14:34Z</time>
      </trkpt>
      <trkpt lat="48.79131" lon="2.24257">
        <ele>165.8</ele>
        <time>2024-05-26T10:14:35Z</time>
      </trkpt>
      <trkpt lat="48.79131" lon="2.24256">
        <ele>165.7</ele>
        <time>2024-05-26T10:14:36Z</time>
      </trkpt>
      <trkpt lat="48.79132" lon="2.24256">
        <ele>165.7</ele>
        <time>2024-05-26T10:14:37Z</time>
      </trkpt>
      <trkpt lat="48.79132" lon="2.24255">
        <ele>165.7</ele>
        <time>2024-05-26T10:14:38Z</time>
      </trkpt>
      <trkpt lat="48.79134" lon="2.2425">
        <ele>165.6</ele>
        <time>2024-05-26T10:14:39Z</time>
      </trkpt>
      <trkpt lat="48.79134" lon="2.24249">
        <ele>165.6</ele>
        <time>2024-05-26T10:14:40Z</time>
      </trkpt>
      <trkpt lat="48.79136" lon="2.24246">
        <ele>165.4</ele>
        <time>2024-05-26T10:14:41Z</time>
      </trkpt>
      <trkpt lat="48.79137" lon="2.24244">
        <ele>165.4</ele>
        <time>2024-05-26T10:14:42Z</time>
      </trkpt>
      <trkpt lat="48.79138" lon="2.24242">
        <ele>165.3</ele>
        <time>2024-05-26T10:14:43Z</time>
      </trkpt>
      <trkpt lat="48.79139" lon="2.24241">
        <ele>165.3</ele>
        <time>2024-05-26T10:14:44Z</time>
      </trkpt>
      <trkpt lat="48.7914" lon="2.24238">
        <ele>165.3</ele>
        <time>2024-05-26T10:14:45Z</time>
      </trkpt>
      <trkpt lat="48.79141" lon="2.24236">
        <ele>165.3</ele>
        <time>2024-05-26T10:14:46Z</time>
      </trkpt>
      <trkpt lat="48.79141" lon="2.24234">
        <ele>165.3</ele>
        <time>2024-05-26T10:14:47Z</time>
      </trkpt>
      <trkpt lat="48.79141" lon="2.24231">
        <ele>165.3</ele>
        <time>2024-05-26T10:14:48Z</time>
      </trkpt>
      <trkpt lat="48.7914" lon="2.2423">
        <ele>165.3</ele>
        <time>2024-05-26T10:14:49Z</time>
      </trkpt>
      <trkpt lat="48.7914" lon="2.24232">
        <ele>165.3</ele>
        <time>2024-05-26T10:14:50Z</time>
      </trkpt>
      <trkpt lat="48.7914" lon="2.2423">
        <ele>165.3</ele>
        <time>2024-05-26T10:14:51Z</time>
      </trkpt>
      <trkpt lat="48.79139" lon="2.24229">
        <ele>165.3</ele>
        <time>2024-05-26T10:14:52Z</time>
      </trkpt>
      <trkpt lat="48.79139" lon="2.24227">
        <ele>165.4</ele>
        <time>2024-05-26T10:14:53Z</time>
      </trkpt>
      <trkpt lat="48.79139" lon="2.24224">
        <ele>165.4</ele>
        <time>2024-05-26T10:14:54Z</time>
      </trkpt>
      <trkpt lat="48.79139" lon="2.24222">
        <ele>165.4</ele>
        <time>2024-05-26T10:14:55Z</time>
      </trkpt>
      <trkpt lat="48.79138" lon="2.24223">
        <ele>165.4</ele>
        <time>2024-05-26T10:14:56Z</time>
      </trkpt>
      <trkpt lat="48.79137" lon="2.24223">
        <ele>165.4</ele>
        <time>2024-05-26T10:14:57Z</time>
      </trkpt>
      <trkpt lat="48.79137" lon="2.24223">
        <ele>165.4</ele>
        <time>2024-05-26T10:14:58Z</time>
      </trkpt>
      <trkpt lat="48.79138" lon="2.24221">
        <ele>165.4</ele>
        <time>2024-05-26T10:14:59Z</time>
      </trkpt>
      <trkpt lat="48.79137" lon="2.24221">
        <ele>165.4</ele>
        <time>2024-05-26T10:15:00Z</time>
      </trkpt>
      <trkpt lat="48.79137" lon="2.24219">
        <ele>165.4</ele>
        <time>2024-05-26T10:15:01Z</time>
      </trkpt>
      <trkpt lat="48.79138" lon="2.24218">
        <ele>165.4</ele>
        <time>2024-05-26T10:15:02Z</time>
      </trkpt>
      <trkpt lat="48.79138" lon="2.24217">
        <ele>165.4</ele>
        <time>2024-05-26T10:15:03Z</time>
      </trkpt>
      <trkpt lat="48.79138" lon="2.24217">
        <ele>165.4</ele>
        <time>2024-05-26T10:15:04Z</time>
      </trkpt>
      <trkpt lat="48.79137" lon="2.24215">
        <ele>165.4</ele>
        <time>2024-05-26T10:15:05Z</time>
      </trkpt>
      <trkpt lat="48.79136" lon="2.24212">
        <ele>165.4</ele>
        <time>2024-05-26T10:15:06Z</time>
      </trkpt>
      <trkpt lat="48.79136" lon="2.2421">
        <ele>165.5</ele>
        <time>2024-05-26T10:15:07Z</time>
      </trkpt>
      <trkpt lat="48.79136" lon="2.24209">
        <ele>165.5</ele>
        <time>2024-05-26T10:15:08Z</time>
      </trkpt>
      <trkpt lat="48.79136" lon="2.24208">
        <ele>165.5</ele>
        <time>2024-05-26T10:15:09Z</time>
      </trkpt>
      <trkpt lat="48.79135" lon="2.24206">
        <ele>165.5</ele>
        <time>2024-05-26T10:15:10Z</time>
      </trkpt>
      <trkpt lat="48.79135" lon="2.24204">
        <ele>165.5</ele>
        <time>2024-05-26T10:15:11Z</time>
      </trkpt>
      <trkpt lat="48.79135" lon="2.24202">
        <ele>165.5</ele>
        <time>2024-05-26T10:15:12Z</time>
      </trkpt>
      <trkpt lat="48.79134" lon="2.24202">
        <ele>165.5</ele>
        <time>2024-05-26T10:15:13Z</time>
      </trkpt>
      <trkpt lat="48.79133" lon="2.24199">
        <ele>165.5</ele>
        <time>2024-05-26T10:15:15Z</time>
      </trkpt>
      <trkpt lat="48.79133" lon="2.24198">
        <ele>165.5</ele>
        <time>2024-05-26T10:15:16Z</time>
      </trkpt>
      <trkpt lat="48.79132" lon="2.24197">
        <ele>165.5</ele>
        <time>2024-05-26T10:15:17Z</time>
      </trkpt>
      <trkpt lat="48.79132" lon="2.24196">
        <ele>165.5</ele>
        <time>2024-05-26T10:15:18Z</time>
      </trkpt>
      <trkpt lat="48.79131" lon="2.24195">
        <ele>165.5</ele>
        <time>2024-05-26T10:15:19Z</time>
      </trkpt>
      <trkpt lat="48.7913" lon="2.24193">
        <ele>165.5</ele>
        <time>2024-05-26T10:15:20Z</time>
      </trkpt>
      <trkpt lat="48.7913" lon="2.2419">
        <ele>165.5</ele>
        <time>2024-05-26T10:15:21Z</time>
      </trkpt>
      <trkpt lat="48.79129" lon="2.24188">
        <ele>165.5</ele>
        <time>2024-05-26T10:15:22Z</time>
      </trkpt>
      <trkpt lat="48.79129" lon="2.24186">
        <ele>165.5</ele>
        <time>2024-05-26T10:15:23Z</time>
      </trkpt>
      <trkpt lat="48.79129" lon="2.24184">
        <ele>165.5</ele>
        <time>2024-05-26T10:15:24Z</time>
      </trkpt>
      <trkpt lat="48.79129" lon="2.24181">
        <ele>165.5</ele>
        <time>2024-05-26T10:15:25Z</time>
      </trkpt>
      <trkpt lat="48.79129" lon="2.24179">
        <ele>165.5</ele>
        <time>2024-05-26T10:15:26Z</time>
      </trkpt>
      <trkpt lat="48.79129" lon="2.24175">
        <ele>165.5</ele>
        <time>2024-05-26T10:15:27Z</time>
      </trkpt>
      <trkpt lat="48.79129" lon="2.24174">
        <ele>165.5</ele>
        <time>2024-05-26T10:15:28Z</time>
      </trkpt>
      <trkpt lat="48.79128" lon="2.24172">
        <ele>165.5</ele>
        <time>2024-05-26T10:15:29Z</time>
      </trkpt>
      <trkpt lat="48.79128" lon="2.2417">
        <ele>165.5</ele>
        <time>2024-05-26T10:15:30Z</time>
      </trkpt>
      <trkpt lat="48.79127" lon="2.24168">
        <ele>165.5</ele>
        <time>2024-05-26T10:15:31Z</time>
      </trkpt>
      <trkpt lat="48.79127" lon="2.24168">
        <ele>165.5</ele>
        <time>2024-05-26T10:15:32Z</time>
      </trkpt>
      <trkpt lat="48.79127" lon="2.24166">
        <ele>165.5</ele>
        <time>2024-05-26T10:15:33Z</time>
      </trkpt>
      <trkpt lat="48.79127" lon="2.24164">
        <ele>165.5</ele>
        <time>2024-05-26T10:15:34Z</time>
      </trkpt>
      <trkpt lat="48.79127" lon="2.24163">
        <ele>165.5</ele>
        <time>2024-05-26T10:15:35Z</time>
      </trkpt>
      <trkpt lat="48.79127" lon="2.24159">
        <ele>165.5</ele>
        <time>2024-05-26T10:15:36Z</time>
      </trkpt>
      <trkpt lat="48.79127" lon="2.24157">
        <ele>165.5</ele>
        <time>2024-05-26T10:15:37Z</time>
      </trkpt>
      <trkpt lat="48.79126" lon="2.24152">
        <ele>165.5</ele>
        <time>2024-05-26T10:15:38Z</time>
      </trkpt>
      <trkpt lat="48.79125" lon="2.24151">
        <ele>165.5</ele>
        <time>2024-05-26T10:15:39Z</time>
      </trkpt>
      <trkpt lat="48.79123" lon="2.24149">
        <ele>165.5</ele>
        <time>2024-05-26T10:15:40Z</time>
      </trkpt>
      <trkpt lat="48.79122" lon="2.24148">
        <ele>165.5</ele>
        <time>2024-05-26T10:15:41Z</time>
      </trkpt>
      <trkpt lat="48.79121" lon="2.24147">
        <ele>165.5</ele>
        <time>2024-05-26T10:15:42Z</time>
      </trkpt>
      <trkpt lat="48.79118" lon="2.24146">
        <ele>165.5</ele>
        <time>2024-05-26T10:15:43Z</time>
      </trkpt>
      <trkpt lat="48.79118" lon="2.24145">
        <ele>165.6</ele>
        <time>2024-05-26T10:15:44Z</time>
      </trkpt>
      <trkpt lat="48.79117" lon="2.24144">
        <ele>165.6</ele>
        <time>2024-05-26T10:15:45Z</time>
      </trkpt>
      <trkpt lat="48.79117" lon="2.24144">
        <ele>165.6</ele>
        <time>2024-05-26T10:15:46Z</time>
      </trkpt>
      <trkpt lat="48.79116" lon="2.24142">
        <ele>165.6</ele>
        <time>2024-05-26T10:15:47Z</time>
      </trkpt>
      <trkpt lat="48.79115" lon="2.24141">
        <ele>165.6</ele>
        <time>2024-05-26T10:15:48Z</time>
      </trkpt>
      <trkpt lat="48.79115" lon="2.2414">
        <ele>165.6</ele>
        <time>2024-05-26T10:15:49Z</time>
      </trkpt>
      <trkpt lat="48.79113" lon="2.2414">
        <ele>165.6</ele>
        <time>2024-05-26T10:15:50Z</time>
      </trkpt>
      <trkpt lat="48.79113" lon="2.2414">
        <ele>165.6</ele>
        <time>2024-05-26T10:15:51Z</time>
      </trkpt>
      <trkpt lat="48.79112" lon="2.2414">
        <ele>165.6</ele>
        <time>2024-05-26T10:15:52Z</time>
      </trkpt>
      <trkpt lat="48.79112" lon="2.24139">
        <ele>165.6</ele>
        <time>2024-05-26T10:15:53Z</time>
      </trkpt>
      <trkpt lat="48.79111" lon="2.24138">
        <ele>165.6</ele>
        <time>2024-05-26T10:15:54Z</time>
      </trkpt>
      <trkpt lat="48.7911" lon="2.24138">
        <ele>165.7</ele>
        <time>2024-05-26T10:15:55Z</time>
      </trkpt>
      <trkpt lat="48.7911" lon="2.24137">
        <ele>165.7</ele>
        <time>2024-05-26T10:15:56Z</time>
      </trkpt>
      <trkpt lat="48.79109" lon="2.24136">
        <ele>165.7</ele>
        <time>2024-05-26T10:15:57Z</time>
      </trkpt>
      <trkpt lat="48.79109" lon="2.24134">
        <ele>165.7</ele>
        <time>2024-05-26T10:15:58Z</time>
      </trkpt>
      <trkpt lat="48.79108" lon="2.24134">
        <ele>165.7</ele>
        <time>2024-05-26T10:15:59Z</time>
      </trkpt>
      <trkpt lat="48.79108" lon="2.24134">
        <ele>165.7</ele>
        <time>2024-05-26T10:16:00Z</time>
      </trkpt>
      <trkpt lat="48.79107" lon="2.24133">
        <ele>165.7</ele>
        <time>2024-05-26T10:16:01Z</time>
      </trkpt>
      <trkpt lat="48.79107" lon="2.24133">
        <ele>165.7</ele>
        <time>2024-05-26T10:16:02Z</time>
      </trkpt>
      <trkpt lat="48.79106" lon="2.24133">
        <ele>165.7</ele>
        <time>2024-05-26T10:16:03Z</time>
      </trkpt>
      <trkpt lat="48.79106" lon="2.24132">
        <ele>165.7</ele>
        <time>2024-05-26T10:16:04Z</time>
      </trkpt>
      <trkpt lat="48.79106" lon="2.24132">
        <ele>165.7</ele>
        <time>2024-05-26T10:16:05Z</time>
      </trkpt>
      <trkpt lat="48.79104" lon="2.24132">
        <ele>165.7</ele>
        <time>2024-05-26T10:16:06Z</time>
      </trkpt>
      <trkpt lat="48.79103" lon="2.24131">
        <ele>165.7</ele>
        <time>2024-05-26T10:16:07Z</time>
      </trkpt>
      <trkpt lat="48.79103" lon="2.24131">
        <ele>165.7</ele>
        <time>2024-05-26T10:16:08Z</time>
      </trkpt>
      <trkpt lat="48.79103" lon="2.2413">
        <ele>165.7</ele>
        <time>2024-05-26T10:16:09Z</time>
      </trkpt>
      <trkpt lat="48.79101" lon="2.2413">
        <ele>165.7</ele>
        <time>2024-05-26T10:16:10Z</time>
      </trkpt>
      <trkpt lat="48.79099" lon="2.2413">
        <ele>165.7</ele>
        <time>2024-05-26T10:16:11Z</time>
      </trkpt>
      <trkpt lat="48.79098" lon="2.24128">
        <ele>165.8</ele>
        <time>2024-05-26T10:16:12Z</time>
      </trkpt>
      <trkpt lat="48.79097" lon="2.24128">
        <ele>165.8</ele>
        <time>2024-05-26T10:16:13Z</time>
      </trkpt>
      <trkpt lat="48.79097" lon="2.24127">
        <ele>165.8</ele>
        <time>2024-05-26T10:16:14Z</time>
      </trkpt>
      <trkpt lat="48.79096" lon="2.24127">
        <ele>165.8</ele>
        <time>2024-05-26T10:16:15Z</time>
      </trkpt>
      <trkpt lat="48.79094" lon="2.24126">
        <ele>165.8</ele>
        <time>2024-05-26T10:16:16Z</time>
      </trkpt>
      <trkpt lat="48.79093" lon="2.24126">
        <ele>165.8</ele>
        <time>2024-05-26T10:16:17Z</time>
      </trkpt>
      <trkpt lat="48.79092" lon="2.24126">
        <ele>165.8</ele>
        <time>2024-05-26T10:16:18Z</time>
      </trkpt>
      <trkpt lat="48.79091" lon="2.24125">
        <ele>165.8</ele>
        <time>2024-05-26T10:16:19Z</time>
      </trkpt>
      <trkpt lat="48.79089" lon="2.24125">
        <ele>165.8</ele>
        <time>2024-05-26T10:16:20Z</time>
      </trkpt>
      <trkpt lat="48.79086" lon="2.24125">
        <ele>165.8</ele>
        <time>2024-05-26T10:16:21Z</time>
      </trkpt>
      <trkpt lat="48.79085" lon="2.24125">
        <ele>165.8</ele>
        <time>2024-05-26T10:16:22Z</time>
      </trkpt>
      <trkpt lat="48.79084" lon="2.24125">
        <ele>165.8</ele>
        <time>2024-05-26T10:16:23Z</time>
      </trkpt>
      <trkpt lat="48.79084" lon="2.24125">
        <ele>165.8</ele>
        <time>2024-05-26T10:16:24Z</time>
      </trkpt>
      <trkpt lat="48.79083" lon="2.24125">
        <ele>165.8</ele>
        <time>2024-05-26T10:16:25Z</time>
      </trkpt>
      <trkpt lat="48.79082" lon="2.24125">
        <ele>165.9</ele>
        <time>2024-05-26T10:16:26Z</time>
      </trkpt>
      <trkpt lat="48.79082" lon="2.24124">
        <ele>165.9</ele>
        <time>2024-05-26T10:16:27Z</time>
      </trkpt>
      <trkpt lat="48.7908" lon="2.24125">
        <ele>165.9</ele>
        <time>2024-05-26T10:16:28Z</time>
      </trkpt>
      <trkpt lat="48.79079" lon="2.24125">
        <ele>165.9</ele>
        <time>2024-05-26T10:16:29Z</time>
      </trkpt>
      <trkpt lat="48.79078" lon="2.24126">
        <ele>165.9</ele>
        <time>2024-05-26T10:16:30Z</time>
      </trkpt>
      <trkpt lat="48.79077" lon="2.24127">
        <ele>165.9</ele>
        <time>2024-05-26T10:16:31Z</time>
      </trkpt>
      <trkpt lat="48.79076" lon="2.24127">
        <ele>165.9</ele>
        <time>2024-05-26T10:16:32Z</time>
      </trkpt>
      <trkpt lat="48.79076" lon="2.24127">
        <ele>165.9</ele>
        <time>2024-05-26T10:16:33Z</time>
      </trkpt>
      <trkpt lat="48.79076" lon="2.24127">
        <ele>165.9</ele>
        <time>2024-05-26T10:16:34Z</time>
      </trkpt>
      <trkpt lat="48.79074" lon="2.24127">
        <ele>165.9</ele>
        <time>2024-05-26T10:16:35Z</time>
      </trkpt>
      <trkpt lat="48.79074" lon="2.24128">
        <ele>165.9</ele>
        <time>2024-05-26T10:16:36Z</time>
      </trkpt>
      <trkpt lat="48.79074" lon="2.24129">
        <ele>165.9</ele>
        <time>2024-05-26T10:16:37Z</time>
      </trkpt>
      <trkpt lat="48.79074" lon="2.24129">
        <ele>165.9</ele>
        <time>2024-05-26T10:16:38Z</time>
      </trkpt>
      <trkpt lat="48.79074" lon="2.2413">
        <ele>165.9</ele>
        <time>2024-05-26T10:16:39Z</time>
      </trkpt>
      <trkpt lat="48.79075" lon="2.24131">
        <ele>165.9</ele>
        <time>2024-05-26T10:16:40Z</time>
      </trkpt>
      <trkpt lat="48.79075" lon="2.24131">
        <ele>165.9</ele>
        <time>2024-05-26T10:16:41Z</time>
      </trkpt>
      <trkpt lat="48.79075" lon="2.24132">
        <ele>165.9</ele>
        <time>2024-05-26T10:16:42Z</time>
      </trkpt>
      <trkpt lat="48.79075" lon="2.24132">
        <ele>165.9</ele>
        <time>2024-05-26T10:16:43Z</time>
      </trkpt>
      <trkpt lat="48.79075" lon="2.24133">
        <ele>165.9</ele>
        <time>2024-05-26T10:16:44Z</time>
      </trkpt>
      <trkpt lat="48.79076" lon="2.24134">
        <ele>165.9</ele>
        <time>2024-05-26T10:16:45Z</time>
      </trkpt>
      <trkpt lat="48.79077" lon="2.24135">
        <ele>166</ele>
        <time>2024-05-26T10:16:46Z</time>
      </trkpt>
      <trkpt lat="48.79078" lon="2.24137">
        <ele>166</ele>
        <time>2024-05-26T10:16:47Z</time>
      </trkpt>
      <trkpt lat="48.79079" lon="2.24139">
        <ele>166</ele>
        <time>2024-05-26T10:16:48Z</time>
      </trkpt>
      <trkpt lat="48.79079" lon="2.24139">
        <ele>166</ele>
        <time>2024-05-26T10:16:49Z</time>
      </trkpt>
      <trkpt lat="48.79079" lon="2.24139">
        <ele>166</ele>
        <time>2024-05-26T10:16:50Z</time>
      </trkpt>
      <trkpt lat="48.79079" lon="2.24139">
        <ele>166</ele>
        <time>2024-05-26T10:16:51Z</time>
      </trkpt>
      <trkpt lat="48.79079" lon="2.24141">
        <ele>166</ele>
        <time>2024-05-26T10:16:52Z</time>
      </trkpt>
      <trkpt lat="48.79079" lon="2.24141">
        <ele>166</ele>
        <time>2024-05-26T10:16:53Z</time>
      </trkpt>
      <trkpt lat="48.79079" lon="2.2414">
        <ele>166</ele>
        <time>2024-05-26T10:16:54Z</time>
      </trkpt>
      <trkpt lat="48.79078" lon="2.2414">
        <ele>166</ele>
        <time>2024-05-26T10:16:55Z</time>
      </trkpt>
      <trkpt lat="48.79078" lon="2.24139">
        <ele>166</ele>
        <time>2024-05-26T10:16:56Z</time>
      </trkpt>
      <trkpt lat="48.79077" lon="2.24138">
        <ele>166</ele>
        <time>2024-05-26T10:16:57Z</time>
      </trkpt>
      <trkpt lat="48.79077" lon="2.24136">
        <ele>166</ele>
        <time>2024-05-26T10:16:58Z</time>
      </trkpt>
      <trkpt lat="48.79077" lon="2.24135">
        <ele>166</ele>
        <time>2024-05-26T10:16:59Z</time>
      </trkpt>
      <trkpt lat="48.79077" lon="2.24135">
        <ele>166</ele>
        <time>2024-05-26T10:17:00Z</time>
      </trkpt>
      <trkpt lat="48.79077" lon="2.24135">
        <ele>166</ele>
        <time>2024-05-26T10:17:01Z</time>
      </trkpt>
      <trkpt lat="48.79076" lon="2.24133">
        <ele>166</ele>
        <time>2024-05-26T10:17:02Z</time>
      </trkpt>
      <trkpt lat="48.79074" lon="2.24131">
        <ele>166.1</ele>
        <time>2024-05-26T10:17:03Z</time>
      </trkpt>
      <trkpt lat="48.79073" lon="2.2413">
        <ele>166.1</ele>
        <time>2024-05-26T10:17:04Z</time>
      </trkpt>
      <trkpt lat="48.79072" lon="2.24129">
        <ele>166.1</ele>
        <time>2024-05-26T10:17:05Z</time>
      </trkpt>
      <trkpt lat="48.79071" lon="2.24128">
        <ele>166.1</ele>
        <time>2024-05-26T10:17:06Z</time>
      </trkpt>
      <trkpt lat="48.7907" lon="2.24128">
        <ele>166.1</ele>
        <time>2024-05-26T10:17:07Z</time>
      </trkpt>
      <trkpt lat="48.79069" lon="2.24127">
        <ele>166.1</ele>
        <time>2024-05-26T10:17:08Z</time>
      </trkpt>
      <trkpt lat="48.79068" lon="2.24127">
        <ele>166.1</ele>
        <time>2024-05-26T10:17:09Z</time>
      </trkpt>
      <trkpt lat="48.79067" lon="2.24126">
        <ele>166.2</ele>
        <time>2024-05-26T10:17:10Z</time>
      </trkpt>
      <trkpt lat="48.79066" lon="2.24125">
        <ele>166.2</ele>
        <time>2024-05-26T10:17:11Z</time>
      </trkpt>
      <trkpt lat="48.79066" lon="2.24125">
        <ele>166.2</ele>
        <time>2024-05-26T10:17:12Z</time>
      </trkpt>
      <trkpt lat="48.79064" lon="2.24124">
        <ele>166.2</ele>
        <time>2024-05-26T10:17:13Z</time>
      </trkpt>
      <trkpt lat="48.79063" lon="2.24124">
        <ele>166.2</ele>
        <time>2024-05-26T10:17:14Z</time>
      </trkpt>
      <trkpt lat="48.79063" lon="2.24123">
        <ele>166.2</ele>
        <time>2024-05-26T10:17:15Z</time>
      </trkpt>
      <trkpt lat="48.79062" lon="2.24122">
        <ele>166.2</ele>
        <time>2024-05-26T10:17:16Z</time>
      </trkpt>
      <trkpt lat="48.79061" lon="2.24121">
        <ele>166.2</ele>
        <time>2024-05-26T10:17:17Z</time>
      </trkpt>
      <trkpt lat="48.7906" lon="2.24119">
        <ele>166.3</ele>
        <time>2024-05-26T10:17:18Z</time>
      </trkpt>
      <trkpt lat="48.7906" lon="2.24118">
        <ele>166.3</ele>
        <time>2024-05-26T10:17:19Z</time>
      </trkpt>
      <trkpt lat="48.7906" lon="2.24116">
        <ele>166.3</ele>
        <time>2024-05-26T10:17:21Z</time>
      </trkpt>
      <trkpt lat="48.79058" lon="2.24113">
        <ele>166.3</ele>
        <time>2024-05-26T10:17:22Z</time>
      </trkpt>
      <trkpt lat="48.79057" lon="2.24111">
        <ele>166.3</ele>
        <time>2024-05-26T10:17:23Z</time>
      </trkpt>
      <trkpt lat="48.79057" lon="2.24111">
        <ele>166.3</ele>
        <time>2024-05-26T10:17:24Z</time>
      </trkpt>
      <trkpt lat="48.79055" lon="2.24109">
        <ele>166.4</ele>
        <time>2024-05-26T10:17:25Z</time>
      </trkpt>
      <trkpt lat="48.79056" lon="2.24108">
        <ele>166.4</ele>
        <time>2024-05-26T10:17:26Z</time>
      </trkpt>
      <trkpt lat="48.79056" lon="2.24107">
        <ele>166.4</ele>
        <time>2024-05-26T10:17:27Z</time>
      </trkpt>
      <trkpt lat="48.79056" lon="2.24107">
        <ele>166.4</ele>
        <time>2024-05-26T10:17:28Z</time>
      </trkpt>
      <trkpt lat="48.79054" lon="2.24104">
        <ele>166.4</ele>
        <time>2024-05-26T10:17:29Z</time>
      </trkpt>
      <trkpt lat="48.79053" lon="2.24103">
        <ele>166.5</ele>
        <time>2024-05-26T10:17:30Z</time>
      </trkpt>
      <trkpt lat="48.79053" lon="2.24103">
        <ele>166.5</ele>
        <time>2024-05-26T10:17:31Z</time>
      </trkpt>
      <trkpt lat="48.79052" lon="2.241">
        <ele>166.5</ele>
        <time>2024-05-26T10:17:32Z</time>
      </trkpt>
      <trkpt lat="48.79051" lon="2.24099">
        <ele>166.5</ele>
        <time>2024-05-26T10:17:33Z</time>
      </trkpt>
      <trkpt lat="48.79051" lon="2.24099">
        <ele>166.5</ele>
        <time>2024-05-26T10:17:34Z</time>
      </trkpt>
      <trkpt lat="48.79051" lon="2.24099">
        <ele>166.5</ele>
        <time>2024-05-26T10:17:35Z</time>
      </trkpt>
      <trkpt lat="48.79051" lon="2.24099">
        <ele>166.5</ele>
        <time>2024-05-26T10:17:36Z</time>
      </trkpt>
      <trkpt lat="48.79051" lon="2.24099">
        <ele>166.5</ele>
        <time>2024-05-26T10:17:37Z</time>
      </trkpt>
      <trkpt lat="48.79051" lon="2.24099">
        <ele>166.5</ele>
        <time>2024-05-26T10:17:38Z</time>
      </trkpt>
      <trkpt lat="48.79051" lon="2.24099">
        <ele>166.5</ele>
        <time>2024-05-26T10:17:39Z</time>
      </trkpt>
      <trkpt lat="48.79051" lon="2.24099">
        <ele>166.5</ele>
        <time>2024-05-26T10:17:40Z</time>
      </trkpt>
      <trkpt lat="48.79051" lon="2.24099">
        <ele>166.5</ele>
        <time>2024-05-26T10:17:41Z</time>
      </trkpt>
      <trkpt lat="48.79049" lon="2.24098">
        <ele>166.6</ele>
        <time>2024-05-26T10:17:42Z</time>
      </trkpt>
      <trkpt lat="48.79049" lon="2.24098">
        <ele>166.6</ele>
        <time>2024-05-26T10:17:43Z</time>
      </trkpt>
      <trkpt lat="48.79049" lon="2.24098">
        <ele>166.6</ele>
        <time>2024-05-26T10:17:44Z</time>
      </trkpt>
      <trkpt lat="48.79049" lon="2.24098">
        <ele>166.6</ele>
        <time>2024-05-26T10:17:45Z</time>
      </trkpt>
      <trkpt lat="48.79049" lon="2.24098">
        <ele>166.6</ele>
        <time>2024-05-26T10:17:46Z</time>
      </trkpt>
      <trkpt lat="48.79049" lon="2.24098">
        <ele>166.6</ele>
        <time>2024-05-26T10:17:47Z</time>
      </trkpt>
      <trkpt lat="48.79049" lon="2.24098">
        <ele>166.6</ele>
        <time>2024-05-26T10:17:48Z</time>
      </trkpt>
      <trkpt lat="48.79049" lon="2.24098">
        <ele>166.6</ele>
        <time>2024-05-26T10:17:49Z</time>
      </trkpt>
      <trkpt lat="48.79049" lon="2.24098">
        <ele>166.6</ele>
        <time>2024-05-26T10:17:50Z</time>
      </trkpt>
      <trkpt lat="48.79049" lon="2.24098">
        <ele>166.6</ele>
        <time>2024-05-26T10:17:51Z</time>
      </trkpt>
      <trkpt lat="48.79049" lon="2.24098">
        <ele>166.6</ele>
        <time>2024-05-26T10:17:52Z</time>
      </trkpt>
      <trkpt lat="48.79049" lon="2.24098">
        <ele>166.6</ele>
        <time>2024-05-26T10:17:53Z</time>
      </trkpt>
      <trkpt lat="48.79048" lon="2.24101">
        <ele>166.6</ele>
        <time>2024-05-26T10:17:54Z</time>
      </trkpt>
      <trkpt lat="48.79048" lon="2.241">
        <ele>166.6</ele>
        <time>2024-05-26T10:17:55Z</time>
      </trkpt>
      <trkpt lat="48.79048" lon="2.24102">
        <ele>166.6</ele>
        <time>2024-05-26T10:17:56Z</time>
      </trkpt>
      <trkpt lat="48.79048" lon="2.24101">
        <ele>166.6</ele>
        <time>2024-05-26T10:17:57Z</time>
      </trkpt>
      <trkpt lat="48.79048" lon="2.24102">
        <ele>166.6</ele>
        <time>2024-05-26T10:17:58Z</time>
      </trkpt>
      <trkpt lat="48.79048" lon="2.24102">
        <ele>166.6</ele>
        <time>2024-05-26T10:17:59Z</time>
      </trkpt>
      <trkpt lat="48.79048" lon="2.24101">
        <ele>166.6</ele>
        <time>2024-05-26T10:18:00Z</time>
      </trkpt>
      <trkpt lat="48.79048" lon="2.24101">
        <ele>166.6</ele>
        <time>2024-05-26T10:18:01Z</time>
      </trkpt>
      <trkpt lat="48.79048" lon="2.24101">
        <ele>166.6</ele>
        <time>2024-05-26T10:18:02Z</time>
      </trkpt>
      <trkpt lat="48.79048" lon="2.241">
        <ele>166.6</ele>
        <time>2024-05-26T10:18:03Z</time>
      </trkpt>
      <trkpt lat="48.79047" lon="2.24099">
        <ele>166.6</ele>
        <time>2024-05-26T10:18:04Z</time>
      </trkpt>
      <trkpt lat="48.79046" lon="2.24099">
        <ele>166.7</ele>
        <time>2024-05-26T10:18:05Z</time>
      </trkpt>
      <trkpt lat="48.79046" lon="2.24098">
        <ele>166.7</ele>
        <time>2024-05-26T10:18:06Z</time>
      </trkpt>
      <trkpt lat="48.79046" lon="2.24098">
        <ele>166.7</ele>
        <time>2024-05-26T10:18:07Z</time>
      </trkpt>
      <trkpt lat="48.79046" lon="2.24097">
        <ele>166.7</ele>
        <time>2024-05-26T10:18:08Z</time>
      </trkpt>
      <trkpt lat="48.79045" lon="2.24097">
        <ele>166.7</ele>
        <time>2024-05-26T10:18:09Z</time>
      </trkpt>
      <trkpt lat="48.79045" lon="2.24096">
        <ele>166.7</ele>
        <time>2024-05-26T10:18:10Z</time>
      </trkpt>
      <trkpt lat="48.79045" lon="2.24095">
        <ele>166.7</ele>
        <time>2024-05-26T10:18:11Z</time>
      </trkpt>
      <trkpt lat="48.79044" lon="2.24095">
        <ele>166.7</ele>
        <time>2024-05-26T10:18:12Z</time>
      </trkpt>
      <trkpt lat="48.79043" lon="2.24093">
        <ele>166.7</ele>
        <time>2024-05-26T10:18:13Z</time>
      </trkpt>
      <trkpt lat="48.79043" lon="2.24092">
        <ele>166.7</ele>
        <time>2024-05-26T10:18:14Z</time>
      </trkpt>
      <trkpt lat="48.79043" lon="2.2409">
        <ele>166.8</ele>
        <time>2024-05-26T10:18:15Z</time>
      </trkpt>
      <trkpt lat="48.79043" lon="2.24089">
        <ele>166.8</ele>
        <time>2024-05-26T10:18:16Z</time>
      </trkpt>
      <trkpt lat="48.79042" lon="2.24088">
        <ele>166.8</ele>
        <time>2024-05-26T10:18:17Z</time>
      </trkpt>
      <trkpt lat="48.79042" lon="2.24088">
        <ele>166.8</ele>
        <time>2024-05-26T10:18:18Z</time>
      </trkpt>
      <trkpt lat="48.7904" lon="2.24085">
        <ele>166.8</ele>
        <time>2024-05-26T10:18:19Z</time>
      </trkpt>
      <trkpt lat="48.79041" lon="2.24085">
        <ele>166.8</ele>
        <time>2024-05-26T10:18:20Z</time>
      </trkpt>
      <trkpt lat="48.7904" lon="2.24083">
        <ele>166.8</ele>
        <time>2024-05-26T10:18:21Z</time>
      </trkpt>
      <trkpt lat="48.7904" lon="2.24082">
        <ele>166.8</ele>
        <time>2024-05-26T10:18:22Z</time>
      </trkpt>
      <trkpt lat="48.79039" lon="2.2408">
        <ele>166.8</ele>
        <time>2024-05-26T10:18:23Z</time>
      </trkpt>
      <trkpt lat="48.79037" lon="2.24078">
        <ele>166.9</ele>
        <time>2024-05-26T10:18:24Z</time>
      </trkpt>
      <trkpt lat="48.79036" lon="2.24077">
        <ele>166.9</ele>
        <time>2024-05-26T10:18:25Z</time>
      </trkpt>
      <trkpt lat="48.79035" lon="2.24076">
        <ele>166.9</ele>
        <time>2024-05-26T10:18:26Z</time>
      </trkpt>
      <trkpt lat="48.79035" lon="2.24075">
        <ele>166.9</ele>
        <time>2024-05-26T10:18:27Z</time>
      </trkpt>
      <trkpt lat="48.79034" lon="2.24073">
        <ele>166.9</ele>
        <time>2024-05-26T10:18:28Z</time>
      </trkpt>
      <trkpt lat="48.79033" lon="2.24073">
        <ele>166.9</ele>
        <time>2024-05-26T10:18:29Z</time>
      </trkpt>
      <trkpt lat="48.79033" lon="2.24071">
        <ele>166.9</ele>
        <time>2024-05-26T10:18:30Z</time>
      </trkpt>
      <trkpt lat="48.79032" lon="2.2407">
        <ele>166.9</ele>
        <time>2024-05-26T10:18:31Z</time>
      </trkpt>
      <trkpt lat="48.7903" lon="2.24069">
        <ele>166.9</ele>
        <time>2024-05-26T10:18:32Z</time>
      </trkpt>
      <trkpt lat="48.7903" lon="2.24068">
        <ele>166.9</ele>
        <time>2024-05-26T10:18:33Z</time>
      </trkpt>
      <trkpt lat="48.7903" lon="2.24068">
        <ele>166.9</ele>
        <time>2024-05-26T10:18:34Z</time>
      </trkpt>
      <trkpt lat="48.79029" lon="2.24067">
        <ele>166.9</ele>
        <time>2024-05-26T10:18:35Z</time>
      </trkpt>
      <trkpt lat="48.79029" lon="2.24067">
        <ele>166.9</ele>
        <time>2024-05-26T10:18:36Z</time>
      </trkpt>
      <trkpt lat="48.79028" lon="2.24066">
        <ele>167</ele>
        <time>2024-05-26T10:18:37Z</time>
      </trkpt>
      <trkpt lat="48.79027" lon="2.24066">
        <ele>167</ele>
        <time>2024-05-26T10:18:38Z</time>
      </trkpt>
      <trkpt lat="48.79027" lon="2.24065">
        <ele>167</ele>
        <time>2024-05-26T10:18:39Z</time>
      </trkpt>
      <trkpt lat="48.79026" lon="2.24065">
        <ele>167</ele>
        <time>2024-05-26T10:18:40Z</time>
      </trkpt>
      <trkpt lat="48.79025" lon="2.24064">
        <ele>167</ele>
        <time>2024-05-26T10:18:41Z</time>
      </trkpt>
      <trkpt lat="48.79024" lon="2.24063">
        <ele>167</ele>
        <time>2024-05-26T10:18:42Z</time>
      </trkpt>
      <trkpt lat="48.79023" lon="2.24063">
        <ele>167</ele>
        <time>2024-05-26T10:18:43Z</time>
      </trkpt>
      <trkpt lat="48.79022" lon="2.24062">
        <ele>167</ele>
        <time>2024-05-26T10:18:44Z</time>
      </trkpt>
      <trkpt lat="48.79021" lon="2.24061">
        <ele>167</ele>
        <time>2024-05-26T10:18:45Z</time>
      </trkpt>
      <trkpt lat="48.7902" lon="2.2406">
        <ele>167</ele>
        <time>2024-05-26T10:18:46Z</time>
      </trkpt>
      <trkpt lat="48.7902" lon="2.24059">
        <ele>167</ele>
        <time>2024-05-26T10:18:47Z</time>
      </trkpt>
      <trkpt lat="48.7902" lon="2.24057">
        <ele>167</ele>
        <time>2024-05-26T10:18:48Z</time>
      </trkpt>
      <trkpt lat="48.79018" lon="2.24055">
        <ele>167</ele>
        <time>2024-05-26T10:18:49Z</time>
      </trkpt>
      <trkpt lat="48.79018" lon="2.24055">
        <ele>167</ele>
        <time>2024-05-26T10:18:50Z</time>
      </trkpt>
      <trkpt lat="48.79017" lon="2.24054">
        <ele>167</ele>
        <time>2024-05-26T10:18:51Z</time>
      </trkpt>
      <trkpt lat="48.79016" lon="2.24054">
        <ele>167.1</ele>
        <time>2024-05-26T10:18:52Z</time>
      </trkpt>
      <trkpt lat="48.79015" lon="2.24053">
        <ele>167.1</ele>
        <time>2024-05-26T10:18:53Z</time>
      </trkpt>
      <trkpt lat="48.79014" lon="2.24052">
        <ele>167.1</ele>
        <time>2024-05-26T10:18:54Z</time>
      </trkpt>
      <trkpt lat="48.79013" lon="2.2405">
        <ele>167.1</ele>
        <time>2024-05-26T10:18:55Z</time>
      </trkpt>
      <trkpt lat="48.79012" lon="2.24049">
        <ele>167.1</ele>
        <time>2024-05-26T10:18:56Z</time>
      </trkpt>
      <trkpt lat="48.79012" lon="2.24047">
        <ele>167.1</ele>
        <time>2024-05-26T10:18:57Z</time>
      </trkpt>
      <trkpt lat="48.79011" lon="2.24045">
        <ele>167.2</ele>
        <time>2024-05-26T10:18:58Z</time>
      </trkpt>
      <trkpt lat="48.79011" lon="2.24044">
        <ele>167.2</ele>
        <time>2024-05-26T10:18:59Z</time>
      </trkpt>
      <trkpt lat="48.79011" lon="2.24042">
        <ele>167.2</ele>
        <time>2024-05-26T10:19:00Z</time>
      </trkpt>
      <trkpt lat="48.7901" lon="2.2404">
        <ele>167.3</ele>
        <time>2024-05-26T10:19:01Z</time>
      </trkpt>
      <trkpt lat="48.7901" lon="2.24039">
        <ele>167.3</ele>
        <time>2024-05-26T10:19:02Z</time>
      </trkpt>
      <trkpt lat="48.7901" lon="2.24038">
        <ele>167.3</ele>
        <time>2024-05-26T10:19:03Z</time>
      </trkpt>
      <trkpt lat="48.79008" lon="2.24036">
        <ele>167.4</ele>
        <time>2024-05-26T10:19:04Z</time>
      </trkpt>
      <trkpt lat="48.79004" lon="2.24035">
        <ele>167.5</ele>
        <time>2024-05-26T10:19:05Z</time>
      </trkpt>
      <trkpt lat="48.79003" lon="2.24034">
        <ele>167.5</ele>
        <time>2024-05-26T10:19:06Z</time>
      </trkpt>
      <trkpt lat="48.79" lon="2.24032">
        <ele>167.6</ele>
        <time>2024-05-26T10:19:07Z</time>
      </trkpt>
      <trkpt lat="48.78999" lon="2.24031">
        <ele>167.6</ele>
        <time>2024-05-26T10:19:08Z</time>
      </trkpt>
      <trkpt lat="48.78998" lon="2.24031">
        <ele>167.6</ele>
        <time>2024-05-26T10:19:09Z</time>
      </trkpt>
      <trkpt lat="48.78997" lon="2.24029">
        <ele>167.6</ele>
        <time>2024-05-26T10:19:10Z</time>
      </trkpt>
      <trkpt lat="48.78996" lon="2.24028">
        <ele>167.7</ele>
        <time>2024-05-26T10:19:11Z</time>
      </trkpt>
      <trkpt lat="48.78995" lon="2.24026">
        <ele>167.7</ele>
        <time>2024-05-26T10:19:12Z</time>
      </trkpt>
      <trkpt lat="48.78993" lon="2.24024">
        <ele>167.8</ele>
        <time>2024-05-26T10:19:13Z</time>
      </trkpt>
      <trkpt lat="48.78992" lon="2.24023">
        <ele>167.8</ele>
        <time>2024-05-26T10:19:14Z</time>
      </trkpt>
      <trkpt lat="48.78992" lon="2.24022">
        <ele>167.8</ele>
        <time>2024-05-26T10:19:15Z</time>
      </trkpt>
      <trkpt lat="48.78991" lon="2.24021">
        <ele>167.8</ele>
        <time>2024-05-26T10:19:16Z</time>
      </trkpt>
      <trkpt lat="48.7899" lon="2.24019">
        <ele>167.9</ele>
        <time>2024-05-26T10:19:17Z</time>
      </trkpt>
      <trkpt lat="48.78988" lon="2.24018">
        <ele>167.9</ele>
        <time>2024-05-26T10:19:18Z</time>
      </trkpt>
      <trkpt lat="48.78987" lon="2.24018">
        <ele>168</ele>
        <time>2024-05-26T10:19:19Z</time>
      </trkpt>
      <trkpt lat="48.78986" lon="2.24017">
        <ele>168</ele>
        <time>2024-05-26T10:19:20Z</time>
      </trkpt>
      <trkpt lat="48.78985" lon="2.24016">
        <ele>168</ele>
        <time>2024-05-26T10:19:21Z</time>
      </trkpt>
      <trkpt lat="48.78984" lon="2.24015">
        <ele>168.1</ele>
        <time>2024-05-26T10:19:22Z</time>
      </trkpt>
      <trkpt lat="48.78984" lon="2.24014">
        <ele>168.1</ele>
        <time>2024-05-26T10:19:23Z</time>
      </trkpt>
      <trkpt lat="48.78983" lon="2.24012">
        <ele>168.1</ele>
        <time>2024-05-26T10:19:24Z</time>
      </trkpt>
      <trkpt lat="48.78981" lon="2.24011">
        <ele>168.2</ele>
        <time>2024-05-26T10:19:26Z</time>
      </trkpt>
      <trkpt lat="48.7898" lon="2.2401">
        <ele>168.2</ele>
        <time>2024-05-26T10:19:27Z</time>
      </trkpt>
      <trkpt lat="48.78979" lon="2.24008">
        <ele>168.3</ele>
        <time>2024-05-26T10:19:28Z</time>
      </trkpt>
      <trkpt lat="48.78977" lon="2.24007">
        <ele>168.3</ele>
        <time>2024-05-26T10:19:29Z</time>
      </trkpt>
      <trkpt lat="48.78976" lon="2.24006">
        <ele>168.4</ele>
        <time>2024-05-26T10:19:30Z</time>
      </trkpt>
      <trkpt lat="48.78975" lon="2.24006">
        <ele>168.4</ele>
        <time>2024-05-26T10:19:31Z</time>
      </trkpt>
      <trkpt lat="48.78974" lon="2.24005">
        <ele>168.4</ele>
        <time>2024-05-26T10:19:32Z</time>
      </trkpt>
      <trkpt lat="48.78974" lon="2.24005">
        <ele>168.4</ele>
        <time>2024-05-26T10:19:33Z</time>
      </trkpt>
      <trkpt lat="48.78974" lon="2.24004">
        <ele>168.4</ele>
        <time>2024-05-26T10:19:34Z</time>
      </trkpt>
      <trkpt lat="48.78974" lon="2.24004">
        <ele>168.4</ele>
        <time>2024-05-26T10:19:35Z</time>
      </trkpt>
      <trkpt lat="48.78973" lon="2.24003">
        <ele>168.4</ele>
        <time>2024-05-26T10:19:36Z</time>
      </trkpt>
      <trkpt lat="48.78972" lon="2.24001">
        <ele>168.4</ele>
        <time>2024-05-26T10:19:37Z</time>
      </trkpt>
      <trkpt lat="48.78972" lon="2.24">
        <ele>168.4</ele>
        <time>2024-05-26T10:19:38Z</time>
      </trkpt>
      <trkpt lat="48.78971" lon="2.23999">
        <ele>168.4</ele>
        <time>2024-05-26T10:19:39Z</time>
      </trkpt>
      <trkpt lat="48.78971" lon="2.23998">
        <ele>168.4</ele>
        <time>2024-05-26T10:19:40Z</time>
      </trkpt>
      <trkpt lat="48.7897" lon="2.23996">
        <ele>168.4</ele>
        <time>2024-05-26T10:19:41Z</time>
      </trkpt>
      <trkpt lat="48.78969" lon="2.23993">
        <ele>168.4</ele>
        <time>2024-05-26T10:19:42Z</time>
      </trkpt>
      <trkpt lat="48.78968" lon="2.23991">
        <ele>168.4</ele>
        <time>2024-05-26T10:19:43Z</time>
      </trkpt>
      <trkpt lat="48.78969" lon="2.23989">
        <ele>168.4</ele>
        <time>2024-05-26T10:19:44Z</time>
      </trkpt>
      <trkpt lat="48.78969" lon="2.23988">
        <ele>168.4</ele>
        <time>2024-05-26T10:19:45Z</time>
      </trkpt>
      <trkpt lat="48.78968" lon="2.23986">
        <ele>168.4</ele>
        <time>2024-05-26T10:19:46Z</time>
      </trkpt>
      <trkpt lat="48.78968" lon="2.23984">
        <ele>168.4</ele>
        <time>2024-05-26T10:19:47Z</time>
      </trkpt>
      <trkpt lat="48.78967" lon="2.23979">
        <ele>168.4</ele>
        <time>2024-05-26T10:19:48Z</time>
      </trkpt>
      <trkpt lat="48.78967" lon="2.23978">
        <ele>168.3</ele>
        <time>2024-05-26T10:19:49Z</time>
      </trkpt>
      <trkpt lat="48.78966" lon="2.23976">
        <ele>168.3</ele>
        <time>2024-05-26T10:19:50Z</time>
      </trkpt>
      <trkpt lat="48.78965" lon="2.23974">
        <ele>168.3</ele>
        <time>2024-05-26T10:19:51Z</time>
      </trkpt>
      <trkpt lat="48.78964" lon="2.23972">
        <ele>168.3</ele>
        <time>2024-05-26T10:19:52Z</time>
      </trkpt>
      <trkpt lat="48.78964" lon="2.2397">
        <ele>168.3</ele>
        <time>2024-05-26T10:19:53Z</time>
      </trkpt>
      <trkpt lat="48.78963" lon="2.23969">
        <ele>168.3</ele>
        <time>2024-05-26T10:19:54Z</time>
      </trkpt>
      <trkpt lat="48.78963" lon="2.23967">
        <ele>168.3</ele>
        <time>2024-05-26T10:19:55Z</time>
      </trkpt>
      <trkpt lat="48.78962" lon="2.23965">
        <ele>168.2</ele>
        <time>2024-05-26T10:19:56Z</time>
      </trkpt>
      <trkpt lat="48.78962" lon="2.23964">
        <ele>168.2</ele>
        <time>2024-05-26T10:19:57Z</time>
      </trkpt>
      <trkpt lat="48.78962" lon="2.23962">
        <ele>168.2</ele>
        <time>2024-05-26T10:19:58Z</time>
      </trkpt>
      <trkpt lat="48.78962" lon="2.2396">
        <ele>168.2</ele>
        <time>2024-05-26T10:19:59Z</time>
      </trkpt>
      <trkpt lat="48.78962" lon="2.23959">
        <ele>168.2</ele>
        <time>2024-05-26T10:20:00Z</time>
      </trkpt>
      <trkpt lat="48.78962" lon="2.23955">
        <ele>168.2</ele>
        <time>2024-05-26T10:20:01Z</time>
      </trkpt>
      <trkpt lat="48.78961" lon="2.23952">
        <ele>168.1</ele>
        <time>2024-05-26T10:20:02Z</time>
      </trkpt>
      <trkpt lat="48.78961" lon="2.2395">
        <ele>168.1</ele>
        <time>2024-05-26T10:20:03Z</time>
      </trkpt>
      <trkpt lat="48.78961" lon="2.23949">
        <ele>168.1</ele>
        <time>2024-05-26T10:20:04Z</time>
      </trkpt>
      <trkpt lat="48.78961" lon="2.23946">
        <ele>168.1</ele>
        <time>2024-05-26T10:20:05Z</time>
      </trkpt>
      <trkpt lat="48.78961" lon="2.23944">
        <ele>168.1</ele>
        <time>2024-05-26T10:20:06Z</time>
      </trkpt>
      <trkpt lat="48.78961" lon="2.23944">
        <ele>168.1</ele>
        <time>2024-05-26T10:20:07Z</time>
      </trkpt>
      <trkpt lat="48.78962" lon="2.23941">
        <ele>168.1</ele>
        <time>2024-05-26T10:20:08Z</time>
      </trkpt>
      <trkpt lat="48.78962" lon="2.23941">
        <ele>168.1</ele>
        <time>2024-05-26T10:20:09Z</time>
      </trkpt>
      <trkpt lat="48.78962" lon="2.2394">
        <ele>168.1</ele>
        <time>2024-05-26T10:20:10Z</time>
      </trkpt>
      <trkpt lat="48.78963" lon="2.23937">
        <ele>168.1</ele>
        <time>2024-05-26T10:20:11Z</time>
      </trkpt>
      <trkpt lat="48.78963" lon="2.23935">
        <ele>168.1</ele>
        <time>2024-05-26T10:20:12Z</time>
      </trkpt>
      <trkpt lat="48.78963" lon="2.23934">
        <ele>168.1</ele>
        <time>2024-05-26T10:20:13Z</time>
      </trkpt>
      <trkpt lat="48.78963" lon="2.23932">
        <ele>168.1</ele>
        <time>2024-05-26T10:20:14Z</time>
      </trkpt>
      <trkpt lat="48.78962" lon="2.23931">
        <ele>168.1</ele>
        <time>2024-05-26T10:20:15Z</time>
      </trkpt>
      <trkpt lat="48.78962" lon="2.23929">
        <ele>168.1</ele>
        <time>2024-05-26T10:20:16Z</time>
      </trkpt>
      <trkpt lat="48.78961" lon="2.23927">
        <ele>168.1</ele>
        <time>2024-05-26T10:20:17Z</time>
      </trkpt>
      <trkpt lat="48.78961" lon="2.23926">
        <ele>168.1</ele>
        <time>2024-05-26T10:20:18Z</time>
      </trkpt>
      <trkpt lat="48.78961" lon="2.23925">
        <ele>168.1</ele>
        <time>2024-05-26T10:20:19Z</time>
      </trkpt>
      <trkpt lat="48.78961" lon="2.23924">
        <ele>168.1</ele>
        <time>2024-05-26T10:20:20Z</time>
      </trkpt>
      <trkpt lat="48.7896" lon="2.23923">
        <ele>168.1</ele>
        <time>2024-05-26T10:20:21Z</time>
      </trkpt>
      <trkpt lat="48.7896" lon="2.23922">
        <ele>168.1</ele>
        <time>2024-05-26T10:20:22Z</time>
      </trkpt>
      <trkpt lat="48.7896" lon="2.23921">
        <ele>168.1</ele>
        <time>2024-05-26T10:20:23Z</time>
      </trkpt>
      <trkpt lat="48.78959" lon="2.23918">
        <ele>168.1</ele>
        <time>2024-05-26T10:20:24Z</time>
      </trkpt>
      <trkpt lat="48.78958" lon="2.23916">
        <ele>168.1</ele>
        <time>2024-05-26T10:20:25Z</time>
      </trkpt>
      <trkpt lat="48.78958" lon="2.23915">
        <ele>168.1</ele>
        <time>2024-05-26T10:20:26Z</time>
      </trkpt>
      <trkpt lat="48.78957" lon="2.23914">
        <ele>168.1</ele>
        <time>2024-05-26T10:20:27Z</time>
      </trkpt>
      <trkpt lat="48.78957" lon="2.23909">
        <ele>168.1</ele>
        <time>2024-05-26T10:20:28Z</time>
      </trkpt>
      <trkpt lat="48.78957" lon="2.23908">
        <ele>168.1</ele>
        <time>2024-05-26T10:20:29Z</time>
      </trkpt>
      <trkpt lat="48.78957" lon="2.23905">
        <ele>168.1</ele>
        <time>2024-05-26T10:20:30Z</time>
      </trkpt>
      <trkpt lat="48.78956" lon="2.23904">
        <ele>168.1</ele>
        <time>2024-05-26T10:20:31Z</time>
      </trkpt>
      <trkpt lat="48.78956" lon="2.23901">
        <ele>168.1</ele>
        <time>2024-05-26T10:20:32Z</time>
      </trkpt>
      <trkpt lat="48.78956" lon="2.23899">
        <ele>168.1</ele>
        <time>2024-05-26T10:20:33Z</time>
      </trkpt>
      <trkpt lat="48.78955" lon="2.23898">
        <ele>168.1</ele>
        <time>2024-05-26T10:20:34Z</time>
      </trkpt>
      <trkpt lat="48.78955" lon="2.23896">
        <ele>168.1</ele>
        <time>2024-05-26T10:20:35Z</time>
      </trkpt>
      <trkpt lat="48.78955" lon="2.23895">
        <ele>168.2</ele>
        <time>2024-05-26T10:20:36Z</time>
      </trkpt>
      <trkpt lat="48.78957" lon="2.23893">
        <ele>168.2</ele>
        <time>2024-05-26T10:20:37Z</time>
      </trkpt>
      <trkpt lat="48.78956" lon="2.23894">
        <ele>168.2</ele>
        <time>2024-05-26T10:20:38Z</time>
      </trkpt>
      <trkpt lat="48.78957" lon="2.23892">
        <ele>168.2</ele>
        <time>2024-05-26T10:20:39Z</time>
      </trkpt>
      <trkpt lat="48.78957" lon="2.23892">
        <ele>168.2</ele>
        <time>2024-05-26T10:20:40Z</time>
      </trkpt>
      <trkpt lat="48.78957" lon="2.23892">
        <ele>168.2</ele>
        <time>2024-05-26T10:20:41Z</time>
      </trkpt>
      <trkpt lat="48.78958" lon="2.23891">
        <ele>168.2</ele>
        <time>2024-05-26T10:20:42Z</time>
      </trkpt>
      <trkpt lat="48.78958" lon="2.23891">
        <ele>168.2</ele>
        <time>2024-05-26T10:20:43Z</time>
      </trkpt>
      <trkpt lat="48.78957" lon="2.23891">
        <ele>168.2</ele>
        <time>2024-05-26T10:20:44Z</time>
      </trkpt>
      <trkpt lat="48.78958" lon="2.23891">
        <ele>168.2</ele>
        <time>2024-05-26T10:20:45Z</time>
      </trkpt>
      <trkpt lat="48.78957" lon="2.23889">
        <ele>168.2</ele>
        <time>2024-05-26T10:20:46Z</time>
      </trkpt>
      <trkpt lat="48.78957" lon="2.23888">
        <ele>168.2</ele>
        <time>2024-05-26T10:20:47Z</time>
      </trkpt>
      <trkpt lat="48.78957" lon="2.23885">
        <ele>168.2</ele>
        <time>2024-05-26T10:20:48Z</time>
      </trkpt>
      <trkpt lat="48.78957" lon="2.23884">
        <ele>168.2</ele>
        <time>2024-05-26T10:20:49Z</time>
      </trkpt>
      <trkpt lat="48.78957" lon="2.23883">
        <ele>168.2</ele>
        <time>2024-05-26T10:20:50Z</time>
      </trkpt>
      <trkpt lat="48.78958" lon="2.23879">
        <ele>168.2</ele>
        <time>2024-05-26T10:20:51Z</time>
      </trkpt>
      <trkpt lat="48.78958" lon="2.23878">
        <ele>168.2</ele>
        <time>2024-05-26T10:20:52Z</time>
      </trkpt>
      <trkpt lat="48.78958" lon="2.23877">
        <ele>168.2</ele>
        <time>2024-05-26T10:20:53Z</time>
      </trkpt>
      <trkpt lat="48.78959" lon="2.23875">
        <ele>168.2</ele>
        <time>2024-05-26T10:20:54Z</time>
      </trkpt>
      <trkpt lat="48.78959" lon="2.23874">
        <ele>168.2</ele>
        <time>2024-05-26T10:20:55Z</time>
      </trkpt>
      <trkpt lat="48.78959" lon="2.23875">
        <ele>168.2</ele>
        <time>2024-05-26T10:20:56Z</time>
      </trkpt>
      <trkpt lat="48.78959" lon="2.23875">
        <ele>168.2</ele>
        <time>2024-05-26T10:20:57Z</time>
      </trkpt>
      <trkpt lat="48.78959" lon="2.23875">
        <ele>168.2</ele>
        <time>2024-05-26T10:20:58Z</time>
      </trkpt>
      <trkpt lat="48.78959" lon="2.23875">
        <ele>168.2</ele>
        <time>2024-05-26T10:20:59Z</time>
      </trkpt>
      <trkpt lat="48.78959" lon="2.23875">
        <ele>168.2</ele>
        <time>2024-05-26T10:21:00Z</time>
      </trkpt>
      <trkpt lat="48.78959" lon="2.23875">
        <ele>168.2</ele>
        <time>2024-05-26T10:21:01Z</time>
      </trkpt>
      <trkpt lat="48.78959" lon="2.23874">
        <ele>168.2</ele>
        <time>2024-05-26T10:21:02Z</time>
      </trkpt>
      <trkpt lat="48.78959" lon="2.23874">
        <ele>168.2</ele>
        <time>2024-05-26T10:21:03Z</time>
      </trkpt>
      <trkpt lat="48.78959" lon="2.23874">
        <ele>168.2</ele>
        <time>2024-05-26T10:21:04Z</time>
      </trkpt>
      <trkpt lat="48.78959" lon="2.23874">
        <ele>168.2</ele>
        <time>2024-05-26T10:21:05Z</time>
      </trkpt>
      <trkpt lat="48.78959" lon="2.23874">
        <ele>168.2</ele>
        <time>2024-05-26T10:21:06Z</time>
      </trkpt>
      <trkpt lat="48.7896" lon="2.23873">
        <ele>168.2</ele>
        <time>2024-05-26T10:21:07Z</time>
      </trkpt>
      <trkpt lat="48.7896" lon="2.23873">
        <ele>168.2</ele>
        <time>2024-05-26T10:21:08Z</time>
      </trkpt>
      <trkpt lat="48.7896" lon="2.23873">
        <ele>168.2</ele>
        <time>2024-05-26T10:21:09Z</time>
      </trkpt>
      <trkpt lat="48.7896" lon="2.23873">
        <ele>168.2</ele>
        <time>2024-05-26T10:21:10Z</time>
      </trkpt>
      <trkpt lat="48.7896" lon="2.23873">
        <ele>168.2</ele>
        <time>2024-05-26T10:21:11Z</time>
      </trkpt>
      <trkpt lat="48.7896" lon="2.23873">
        <ele>168.2</ele>
        <time>2024-05-26T10:21:12Z</time>
      </trkpt>
      <trkpt lat="48.7896" lon="2.23873">
        <ele>168.2</ele>
        <time>2024-05-26T10:21:13Z</time>
      </trkpt>
      <trkpt lat="48.7896" lon="2.23872">
        <ele>168.2</ele>
        <time>2024-05-26T10:21:14Z</time>
      </trkpt>
      <trkpt lat="48.7896" lon="2.23872">
        <ele>168.2</ele>
        <time>2024-05-26T10:21:15Z</time>
      </trkpt>
      <trkpt lat="48.7896" lon="2.23872">
        <ele>168.2</ele>
        <time>2024-05-26T10:21:16Z</time>
      </trkpt>
      <trkpt lat="48.7896" lon="2.23872">
        <ele>168.2</ele>
        <time>2024-05-26T10:21:17Z</time>
      </trkpt>
      <trkpt lat="48.7896" lon="2.23872">
        <ele>168.2</ele>
        <time>2024-05-26T10:21:18Z</time>
      </trkpt>
      <trkpt lat="48.7896" lon="2.23872">
        <ele>168.2</ele>
        <time>2024-05-26T10:21:19Z</time>
      </trkpt>
      <trkpt lat="48.7896" lon="2.23872">
        <ele>168.2</ele>
        <time>2024-05-26T10:21:20Z</time>
      </trkpt>
      <trkpt lat="48.7896" lon="2.23871">
        <ele>168.2</ele>
        <time>2024-05-26T10:21:21Z</time>
      </trkpt>
      <trkpt lat="48.7896" lon="2.23871">
        <ele>168.2</ele>
        <time>2024-05-26T10:21:22Z</time>
      </trkpt>
      <trkpt lat="48.7896" lon="2.23871">
        <ele>168.2</ele>
        <time>2024-05-26T10:21:23Z</time>
      </trkpt>
      <trkpt lat="48.78961" lon="2.23871">
        <ele>168.2</ele>
        <time>2024-05-26T10:21:24Z</time>
      </trkpt>
      <trkpt lat="48.78961" lon="2.23871">
        <ele>168.2</ele>
        <time>2024-05-26T10:21:25Z</time>
      </trkpt>
      <trkpt lat="48.78961" lon="2.23871">
        <ele>168.2</ele>
        <time>2024-05-26T10:21:26Z</time>
      </trkpt>
      <trkpt lat="48.78961" lon="2.23871">
        <ele>168.2</ele>
        <time>2024-05-26T10:21:27Z</time>
      </trkpt>
      <trkpt lat="48.78961" lon="2.2387">
        <ele>168.2</ele>
        <time>2024-05-26T10:21:28Z</time>
      </trkpt>
      <trkpt lat="48.78961" lon="2.2387">
        <ele>168.2</ele>
        <time>2024-05-26T10:21:29Z</time>
      </trkpt>
      <trkpt lat="48.78961" lon="2.2387">
        <ele>168.2</ele>
        <time>2024-05-26T10:21:30Z</time>
      </trkpt>
      <trkpt lat="48.78961" lon="2.2387">
        <ele>168.2</ele>
        <time>2024-05-26T10:21:32Z</time>
      </trkpt>
      <trkpt lat="48.78961" lon="2.2387">
        <ele>168.2</ele>
        <time>2024-05-26T10:21:33Z</time>
      </trkpt>
      <trkpt lat="48.78961" lon="2.2387">
        <ele>168.2</ele>
        <time>2024-05-26T10:21:34Z</time>
      </trkpt>
      <trkpt lat="48.78961" lon="2.23869">
        <ele>168.2</ele>
        <time>2024-05-26T10:21:35Z</time>
      </trkpt>
      <trkpt lat="48.78961" lon="2.23869">
        <ele>168.2</ele>
        <time>2024-05-26T10:21:36Z</time>
      </trkpt>
      <trkpt lat="48.78961" lon="2.23869">
        <ele>168.2</ele>
        <time>2024-05-26T10:21:37Z</time>
      </trkpt>
      <trkpt lat="48.78961" lon="2.23869">
        <ele>168.2</ele>
        <time>2024-05-26T10:21:38Z</time>
      </trkpt>
      <trkpt lat="48.78961" lon="2.23869">
        <ele>168.2</ele>
        <time>2024-05-26T10:21:39Z</time>
      </trkpt>
      <trkpt lat="48.78961" lon="2.23869">
        <ele>168.2</ele>
        <time>2024-05-26T10:21:40Z</time>
      </trkpt>
      <trkpt lat="48.78961" lon="2.23869">
        <ele>168.2</ele>
        <time>2024-05-26T10:21:41Z</time>
      </trkpt>
      <trkpt lat="48.78961" lon="2.23868">
        <ele>168.2</ele>
        <time>2024-05-26T10:21:42Z</time>
      </trkpt>
      <trkpt lat="48.78962" lon="2.23868">
        <ele>168.2</ele>
        <time>2024-05-26T10:21:43Z</time>
      </trkpt>
      <trkpt lat="48.78961" lon="2.23867">
        <ele>168.2</ele>
        <time>2024-05-26T10:21:44Z</time>
      </trkpt>
      <trkpt lat="48.78962" lon="2.23866">
        <ele>168.2</ele>
        <time>2024-05-26T10:21:45Z</time>
      </trkpt>
      <trkpt lat="48.78962" lon="2.23866">
        <ele>168.2</ele>
        <time>2024-05-26T10:21:46Z</time>
      </trkpt>
      <trkpt lat="48.78962" lon="2.23865">
        <ele>168.2</ele>
        <time>2024-05-26T10:21:47Z</time>
      </trkpt>
      <trkpt lat="48.78962" lon="2.23863">
        <ele>168.2</ele>
        <time>2024-05-26T10:21:48Z</time>
      </trkpt>
      <trkpt lat="48.78963" lon="2.23861">
        <ele>168.2</ele>
        <time>2024-05-26T10:21:49Z</time>
      </trkpt>
      <trkpt lat="48.78963" lon="2.2386">
        <ele>168.2</ele>
        <time>2024-05-26T10:21:50Z</time>
      </trkpt>
      <trkpt lat="48.78964" lon="2.23861">
        <ele>168.2</ele>
        <time>2024-05-26T10:21:51Z</time>
      </trkpt>
      <trkpt lat="48.78965" lon="2.23859">
        <ele>168.2</ele>
        <time>2024-05-26T10:21:52Z</time>
      </trkpt>
      <trkpt lat="48.78965" lon="2.23858">
        <ele>168.2</ele>
        <time>2024-05-26T10:21:53Z</time>
      </trkpt>
      <trkpt lat="48.78965" lon="2.23859">
        <ele>168.2</ele>
        <time>2024-05-26T10:21:54Z</time>
      </trkpt>
      <trkpt lat="48.78965" lon="2.23859">
        <ele>168.2</ele>
        <time>2024-05-26T10:21:55Z</time>
      </trkpt>
      <trkpt lat="48.78965" lon="2.23858">
        <ele>168.2</ele>
        <time>2024-05-26T10:21:56Z</time>
      </trkpt>
      <trkpt lat="48.78965" lon="2.23858">
        <ele>168.2</ele>
        <time>2024-05-26T10:21:57Z</time>
      </trkpt>
      <trkpt lat="48.78965" lon="2.23858">
        <ele>168.2</ele>
        <time>2024-05-26T10:21:58Z</time>
      </trkpt>
      <trkpt lat="48.78964" lon="2.23858">
        <ele>168.2</ele>
        <time>2024-05-26T10:21:59Z</time>
      </trkpt>
      <trkpt lat="48.78964" lon="2.23858">
        <ele>168.2</ele>
        <time>2024-05-26T10:22:00Z</time>
      </trkpt>
      <trkpt lat="48.78964" lon="2.23858">
        <ele>168.2</ele>
        <time>2024-05-26T10:22:01Z</time>
      </trkpt>
      <trkpt lat="48.78964" lon="2.23858">
        <ele>168.2</ele>
        <time>2024-05-26T10:22:02Z</time>
      </trkpt>
      <trkpt lat="48.78964" lon="2.23858">
        <ele>168.2</ele>
        <time>2024-05-26T10:22:03Z</time>
      </trkpt>
      <trkpt lat="48.78964" lon="2.23858">
        <ele>168.2</ele>
        <time>2024-05-26T10:22:04Z</time>
      </trkpt>
      <trkpt lat="48.78963" lon="2.23858">
        <ele>168.2</ele>
        <time>2024-05-26T10:22:05Z</time>
      </trkpt>
      <trkpt lat="48.78963" lon="2.23859">
        <ele>168.2</ele>
        <time>2024-05-26T10:22:06Z</time>
      </trkpt>
      <trkpt lat="48.78963" lon="2.2386">
        <ele>168.2</ele>
        <time>2024-05-26T10:22:07Z</time>
      </trkpt>
      <trkpt lat="48.78962" lon="2.23862">
        <ele>168.2</ele>
        <time>2024-05-26T10:22:08Z</time>
      </trkpt>
      <trkpt lat="48.78962" lon="2.23864">
        <ele>168.2</ele>
        <time>2024-05-26T10:22:09Z</time>
      </trkpt>
      <trkpt lat="48.78961" lon="2.23865">
        <ele>168.2</ele>
        <time>2024-05-26T10:22:10Z</time>
      </trkpt>
      <trkpt lat="48.78961" lon="2.23867">
        <ele>168.2</ele>
        <time>2024-05-26T10:22:11Z</time>
      </trkpt>
      <trkpt lat="48.7896" lon="2.23869">
        <ele>168.2</ele>
        <time>2024-05-26T10:22:12Z</time>
      </trkpt>
      <trkpt lat="48.7896" lon="2.23871">
        <ele>168.2</ele>
        <time>2024-05-26T10:22:13Z</time>
      </trkpt>
      <trkpt lat="48.78959" lon="2.23872">
        <ele>168.2</ele>
        <time>2024-05-26T10:22:14Z</time>
      </trkpt>
      <trkpt lat="48.78959" lon="2.23873">
        <ele>168.2</ele>
        <time>2024-05-26T10:22:15Z</time>
      </trkpt>
      <trkpt lat="48.78958" lon="2.23875">
        <ele>168.2</ele>
        <time>2024-05-26T10:22:16Z</time>
      </trkpt>
      <trkpt lat="48.78958" lon="2.23877">
        <ele>168.2</ele>
        <time>2024-05-26T10:22:17Z</time>
      </trkpt>
      <trkpt lat="48.78958" lon="2.23878">
        <ele>168.2</ele>
        <time>2024-05-26T10:22:18Z</time>
      </trkpt>
      <trkpt lat="48.78957" lon="2.2388">
        <ele>168.2</ele>
        <time>2024-05-26T10:22:19Z</time>
      </trkpt>
      <trkpt lat="48.78956" lon="2.2388">
        <ele>168.2</ele>
        <time>2024-05-26T10:22:20Z</time>
      </trkpt>
      <trkpt lat="48.78955" lon="2.23882">
        <ele>168.2</ele>
        <time>2024-05-26T10:22:21Z</time>
      </trkpt>
      <trkpt lat="48.78954" lon="2.23881">
        <ele>168.2</ele>
        <time>2024-05-26T10:22:22Z</time>
      </trkpt>
      <trkpt lat="48.78953" lon="2.2388">
        <ele>168.2</ele>
        <time>2024-05-26T10:22:23Z</time>
      </trkpt>
      <trkpt lat="48.78952" lon="2.23879">
        <ele>168.3</ele>
        <time>2024-05-26T10:22:24Z</time>
      </trkpt>
      <trkpt lat="48.78952" lon="2.23877">
        <ele>168.3</ele>
        <time>2024-05-26T10:22:25Z</time>
      </trkpt>
      <trkpt lat="48.78952" lon="2.23876">
        <ele>168.3</ele>
        <time>2024-05-26T10:22:26Z</time>
      </trkpt>
      <trkpt lat="48.78951" lon="2.23871">
        <ele>168.4</ele>
        <time>2024-05-26T10:22:27Z</time>
      </trkpt>
      <trkpt lat="48.7895" lon="2.23871">
        <ele>168.4</ele>
        <time>2024-05-26T10:22:28Z</time>
      </trkpt>
      <trkpt lat="48.78949" lon="2.23868">
        <ele>168.5</ele>
        <time>2024-05-26T10:22:29Z</time>
      </trkpt>
      <trkpt lat="48.78949" lon="2.23867">
        <ele>168.5</ele>
        <time>2024-05-26T10:22:30Z</time>
      </trkpt>
      <trkpt lat="48.78948" lon="2.23866">
        <ele>168.6</ele>
        <time>2024-05-26T10:22:31Z</time>
      </trkpt>
      <trkpt lat="48.78948" lon="2.23864">
        <ele>168.6</ele>
        <time>2024-05-26T10:22:32Z</time>
      </trkpt>
      <trkpt lat="48.78948" lon="2.23863">
        <ele>168.6</ele>
        <time>2024-05-26T10:22:33Z</time>
      </trkpt>
      <trkpt lat="48.78948" lon="2.23863">
        <ele>168.6</ele>
        <time>2024-05-26T10:22:34Z</time>
      </trkpt>
      <trkpt lat="48.78948" lon="2.23862">
        <ele>168.6</ele>
        <time>2024-05-26T10:22:35Z</time>
      </trkpt>
      <trkpt lat="48.78948" lon="2.23862">
        <ele>168.6</ele>
        <time>2024-05-26T10:22:36Z</time>
      </trkpt>
      <trkpt lat="48.78948" lon="2.23861">
        <ele>168.7</ele>
        <time>2024-05-26T10:22:37Z</time>
      </trkpt>
      <trkpt lat="48.78948" lon="2.2386">
        <ele>168.7</ele>
        <time>2024-05-26T10:22:38Z</time>
      </trkpt>
      <trkpt lat="48.78948" lon="2.23858">
        <ele>168.7</ele>
        <time>2024-05-26T10:22:39Z</time>
      </trkpt>
      <trkpt lat="48.78947" lon="2.23857">
        <ele>168.7</ele>
        <time>2024-05-26T10:22:40Z</time>
      </trkpt>
      <trkpt lat="48.78947" lon="2.23857">
        <ele>168.7</ele>
        <time>2024-05-26T10:22:41Z</time>
      </trkpt>
      <trkpt lat="48.78947" lon="2.23856">
        <ele>168.8</ele>
        <time>2024-05-26T10:22:42Z</time>
      </trkpt>
      <trkpt lat="48.78946" lon="2.23856">
        <ele>168.8</ele>
        <time>2024-05-26T10:22:43Z</time>
      </trkpt>
      <trkpt lat="48.78946" lon="2.23853">
        <ele>168.8</ele>
        <time>2024-05-26T10:22:44Z</time>
      </trkpt>
      <trkpt lat="48.78946" lon="2.23852">
        <ele>168.9</ele>
        <time>2024-05-26T10:22:45Z</time>
      </trkpt>
      <trkpt lat="48.78945" lon="2.2385">
        <ele>168.9</ele>
        <time>2024-05-26T10:22:46Z</time>
      </trkpt>
      <trkpt lat="48.78945" lon="2.23849">
        <ele>168.9</ele>
        <time>2024-05-26T10:22:47Z</time>
      </trkpt>
      <trkpt lat="48.78944" lon="2.23847">
        <ele>168.9</ele>
        <time>2024-05-26T10:22:48Z</time>
      </trkpt>
      <trkpt lat="48.78943" lon="2.23844">
        <ele>169</ele>
        <time>2024-05-26T10:22:49Z</time>
      </trkpt>
      <trkpt lat="48.78943" lon="2.23843">
        <ele>169</ele>
        <time>2024-05-26T10:22:50Z</time>
      </trkpt>
      <trkpt lat="48.78942" lon="2.23842">
        <ele>169</ele>
        <time>2024-05-26T10:22:51Z</time>
      </trkpt>
      <trkpt lat="48.78941" lon="2.23841">
        <ele>169.1</ele>
        <time>2024-05-26T10:22:52Z</time>
      </trkpt>
      <trkpt lat="48.78941" lon="2.2384">
        <ele>169.1</ele>
        <time>2024-05-26T10:22:53Z</time>
      </trkpt>
      <trkpt lat="48.78941" lon="2.23837">
        <ele>169.1</ele>
        <time>2024-05-26T10:22:54Z</time>
      </trkpt>
      <trkpt lat="48.78941" lon="2.23835">
        <ele>169.2</ele>
        <time>2024-05-26T10:22:55Z</time>
      </trkpt>
      <trkpt lat="48.78941" lon="2.23833">
        <ele>169.2</ele>
        <time>2024-05-26T10:22:56Z</time>
      </trkpt>
      <trkpt lat="48.78942" lon="2.23832">
        <ele>169.2</ele>
        <time>2024-05-26T10:22:57Z</time>
      </trkpt>
      <trkpt lat="48.78941" lon="2.23831">
        <ele>169.2</ele>
        <time>2024-05-26T10:22:58Z</time>
      </trkpt>
      <trkpt lat="48.78941" lon="2.23829">
        <ele>169.2</ele>
        <time>2024-05-26T10:22:59Z</time>
      </trkpt>
      <trkpt lat="48.7894" lon="2.23826">
        <ele>169.3</ele>
        <time>2024-05-26T10:23:00Z</time>
      </trkpt>
      <trkpt lat="48.7894" lon="2.23824">
        <ele>169.3</ele>
        <time>2024-05-26T10:23:01Z</time>
      </trkpt>
      <trkpt lat="48.7894" lon="2.23822">
        <ele>169.3</ele>
        <time>2024-05-26T10:23:02Z</time>
      </trkpt>
      <trkpt lat="48.7894" lon="2.2382">
        <ele>169.3</ele>
        <time>2024-05-26T10:23:03Z</time>
      </trkpt>
      <trkpt lat="48.7894" lon="2.23819">
        <ele>169.4</ele>
        <time>2024-05-26T10:23:04Z</time>
      </trkpt>
      <trkpt lat="48.78939" lon="2.23817">
        <ele>169.4</ele>
        <time>2024-05-26T10:23:05Z</time>
      </trkpt>
      <trkpt lat="48.78939" lon="2.23813">
        <ele>169.4</ele>
        <time>2024-05-26T10:23:06Z</time>
      </trkpt>
      <trkpt lat="48.78939" lon="2.23811">
        <ele>169.4</ele>
        <time>2024-05-26T10:23:07Z</time>
      </trkpt>
      <trkpt lat="48.78939" lon="2.23809">
        <ele>169.4</ele>
        <time>2024-05-26T10:23:08Z</time>
      </trkpt>
      <trkpt lat="48.78939" lon="2.23804">
        <ele>169.5</ele>
        <time>2024-05-26T10:23:09Z</time>
      </trkpt>
      <trkpt lat="48.78939" lon="2.23802">
        <ele>169.5</ele>
        <time>2024-05-26T10:23:10Z</time>
      </trkpt>
      <trkpt lat="48.78938" lon="2.238">
        <ele>169.5</ele>
        <time>2024-05-26T10:23:11Z</time>
      </trkpt>
      <trkpt lat="48.78938" lon="2.23798">
        <ele>169.5</ele>
        <time>2024-05-26T10:23:12Z</time>
      </trkpt>
      <trkpt lat="48.78938" lon="2.23796">
        <ele>169.5</ele>
        <time>2024-05-26T10:23:13Z</time>
      </trkpt>
      <trkpt lat="48.78937" lon="2.23793">
        <ele>169.5</ele>
        <time>2024-05-26T10:23:14Z</time>
      </trkpt>
      <trkpt lat="48.78936" lon="2.23791">
        <ele>169.6</ele>
        <time>2024-05-26T10:23:15Z</time>
      </trkpt>
      <trkpt lat="48.78936" lon="2.23789">
        <ele>169.6</ele>
        <time>2024-05-26T10:23:16Z</time>
      </trkpt>
      <trkpt lat="48.78935" lon="2.23787">
        <ele>169.6</ele>
        <time>2024-05-26T10:23:17Z</time>
      </trkpt>
      <trkpt lat="48.78935" lon="2.23785">
        <ele>169.6</ele>
        <time>2024-05-26T10:23:18Z</time>
      </trkpt>
      <trkpt lat="48.78934" lon="2.23783">
        <ele>169.6</ele>
        <time>2024-05-26T10:23:19Z</time>
      </trkpt>
      <trkpt lat="48.78934" lon="2.23781">
        <ele>169.6</ele>
        <time>2024-05-26T10:23:20Z</time>
      </trkpt>
      <trkpt lat="48.78933" lon="2.23778">
        <ele>169.7</ele>
        <time>2024-05-26T10:23:21Z</time>
      </trkpt>
      <trkpt lat="48.78933" lon="2.23777">
        <ele>169.7</ele>
        <time>2024-05-26T10:23:22Z</time>
      </trkpt>
      <trkpt lat="48.78933" lon="2.23774">
        <ele>169.7</ele>
        <time>2024-05-26T10:23:23Z</time>
      </trkpt>
      <trkpt lat="48.78932" lon="2.23773">
        <ele>169.7</ele>
        <time>2024-05-26T10:23:24Z</time>
      </trkpt>
      <trkpt lat="48.78932" lon="2.2377">
        <ele>169.7</ele>
        <time>2024-05-26T10:23:25Z</time>
      </trkpt>
      <trkpt lat="48.78932" lon="2.23768">
        <ele>169.7</ele>
        <time>2024-05-26T10:23:26Z</time>
      </trkpt>
      <trkpt lat="48.78932" lon="2.23766">
        <ele>169.7</ele>
        <time>2024-05-26T10:23:27Z</time>
      </trkpt>
      <trkpt lat="48.78933" lon="2.23764">
        <ele>169.8</ele>
        <time>2024-05-26T10:23:28Z</time>
      </trkpt>
      <trkpt lat="48.78934" lon="2.23761">
        <ele>169.8</ele>
        <time>2024-05-26T10:23:29Z</time>
      </trkpt>
      <trkpt lat="48.78934" lon="2.2376">
        <ele>169.8</ele>
        <time>2024-05-26T10:23:30Z</time>
      </trkpt>
      <trkpt lat="48.78935" lon="2.23759">
        <ele>169.8</ele>
        <time>2024-05-26T10:23:31Z</time>
      </trkpt>
      <trkpt lat="48.78936" lon="2.23758">
        <ele>169.8</ele>
        <time>2024-05-26T10:23:32Z</time>
      </trkpt>
      <trkpt lat="48.78937" lon="2.23757">
        <ele>169.8</ele>
        <time>2024-05-26T10:23:33Z</time>
      </trkpt>
      <trkpt lat="48.78939" lon="2.23756">
        <ele>169.8</ele>
        <time>2024-05-26T10:23:34Z</time>
      </trkpt>
      <trkpt lat="48.7894" lon="2.23755">
        <ele>169.8</ele>
        <time>2024-05-26T10:23:35Z</time>
      </trkpt>
      <trkpt lat="48.78941" lon="2.23754">
        <ele>169.7</ele>
        <time>2024-05-26T10:23:36Z</time>
      </trkpt>
      <trkpt lat="48.78942" lon="2.23754">
        <ele>169.7</ele>
        <time>2024-05-26T10:23:38Z</time>
      </trkpt>
      <trkpt lat="48.78943" lon="2.23754">
        <ele>169.7</ele>
        <time>2024-05-26T10:23:39Z</time>
      </trkpt>
      <trkpt lat="48.78945" lon="2.23754">
        <ele>169.7</ele>
        <time>2024-05-26T10:23:40Z</time>
      </trkpt>
      <trkpt lat="48.78947" lon="2.23754">
        <ele>169.6</ele>
        <time>2024-05-26T10:23:41Z</time>
      </trkpt>
      <trkpt lat="48.78948" lon="2.23754">
        <ele>169.6</ele>
        <time>2024-05-26T10:23:42Z</time>
      </trkpt>
      <trkpt lat="48.78949" lon="2.23754">
        <ele>169.6</ele>
        <time>2024-05-26T10:23:43Z</time>
      </trkpt>
      <trkpt lat="48.7895" lon="2.23753">
        <ele>169.6</ele>
        <time>2024-05-26T10:23:44Z</time>
      </trkpt>
      <trkpt lat="48.78952" lon="2.23754">
        <ele>169.5</ele>
        <time>2024-05-26T10:23:45Z</time>
      </trkpt>
      <trkpt lat="48.78953" lon="2.23754">
        <ele>169.5</ele>
        <time>2024-05-26T10:23:46Z</time>
      </trkpt>
      <trkpt lat="48.78954" lon="2.23755">
        <ele>169.5</ele>
        <time>2024-05-26T10:23:47Z</time>
      </trkpt>
      <trkpt lat="48.78955" lon="2.23755">
        <ele>169.5</ele>
        <time>2024-05-26T10:23:48Z</time>
      </trkpt>
      <trkpt lat="48.78955" lon="2.23755">
        <ele>169.5</ele>
        <time>2024-05-26T10:23:49Z</time>
      </trkpt>
      <trkpt lat="48.78957" lon="2.23755">
        <ele>169.5</ele>
        <time>2024-05-26T10:23:50Z</time>
      </trkpt>
      <trkpt lat="48.78959" lon="2.23756">
        <ele>169.4</ele>
        <time>2024-05-26T10:23:51Z</time>
      </trkpt>
      <trkpt lat="48.7896" lon="2.23756">
        <ele>169.4</ele>
        <time>2024-05-26T10:23:52Z</time>
      </trkpt>
      <trkpt lat="48.78961" lon="2.23756">
        <ele>169.4</ele>
        <time>2024-05-26T10:23:53Z</time>
      </trkpt>
      <trkpt lat="48.78963" lon="2.23756">
        <ele>169.4</ele>
        <time>2024-05-26T10:23:54Z</time>
      </trkpt>
      <trkpt lat="48.78963" lon="2.23757">
        <ele>169.4</ele>
        <time>2024-05-26T10:23:55Z</time>
      </trkpt>
      <trkpt lat="48.78964" lon="2.23757">
        <ele>169.4</ele>
        <time>2024-05-26T10:23:56Z</time>
      </trkpt>
      <trkpt lat="48.78966" lon="2.23758">
        <ele>169.3</ele>
        <time>2024-05-26T10:23:57Z</time>
      </trkpt>
      <trkpt lat="48.78967" lon="2.23757">
        <ele>169.3</ele>
        <time>2024-05-26T10:23:58Z</time>
      </trkpt>
      <trkpt lat="48.78969" lon="2.23757">
        <ele>169.3</ele>
        <time>2024-05-26T10:23:59Z</time>
      </trkpt>
      <trkpt lat="48.7897" lon="2.23758">
        <ele>169.3</ele>
        <time>2024-05-26T10:24:00Z</time>
      </trkpt>
      <trkpt lat="48.7897" lon="2.23758">
        <ele>169.3</ele>
        <time>2024-05-26T10:24:01Z</time>
      </trkpt>
      <trkpt lat="48.78971" lon="2.23758">
        <ele>169.3</ele>
        <time>2024-05-26T10:24:02Z</time>
      </trkpt>
      <trkpt lat="48.78973" lon="2.23758">
        <ele>169.2</ele>
        <time>2024-05-26T10:24:03Z</time>
      </trkpt>
      <trkpt lat="48.78977" lon="2.23759">
        <ele>169.2</ele>
        <time>2024-05-26T10:24:04Z</time>
      </trkpt>
      <trkpt lat="48.78978" lon="2.23759">
        <ele>169.2</ele>
        <time>2024-05-26T10:24:05Z</time>
      </trkpt>
      <trkpt lat="48.78979" lon="2.2376">
        <ele>169.2</ele>
        <time>2024-05-26T10:24:06Z</time>
      </trkpt>
      <trkpt lat="48.7898" lon="2.2376">
        <ele>169.2</ele>
        <time>2024-05-26T10:24:07Z</time>
      </trkpt>
      <trkpt lat="48.78981" lon="2.2376">
        <ele>169.1</ele>
        <time>2024-05-26T10:24:08Z</time>
      </trkpt>
      <trkpt lat="48.78982" lon="2.23761">
        <ele>169.1</ele>
        <time>2024-05-26T10:24:09Z</time>
      </trkpt>
      <trkpt lat="48.78983" lon="2.2376">
        <ele>169.1</ele>
        <time>2024-05-26T10:24:10Z</time>
      </trkpt>
      <trkpt lat="48.78983" lon="2.23759">
        <ele>169.1</ele>
        <time>2024-05-26T10:24:11Z</time>
      </trkpt>
      <trkpt lat="48.78984" lon="2.23759">
        <ele>169.1</ele>
        <time>2024-05-26T10:24:12Z</time>
      </trkpt>
      <trkpt lat="48.78985" lon="2.23759">
        <ele>169.1</ele>
        <time>2024-05-26T10:24:13Z</time>
      </trkpt>
      <trkpt lat="48.78986" lon="2.23758">
        <ele>169.1</ele>
        <time>2024-05-26T10:24:14Z</time>
      </trkpt>
      <trkpt lat="48.78987" lon="2.23758">
        <ele>169</ele>
        <time>2024-05-26T10:24:15Z</time>
      </trkpt>
      <trkpt lat="48.78989" lon="2.23759">
        <ele>169</ele>
        <time>2024-05-26T10:24:16Z</time>
      </trkpt>
      <trkpt lat="48.7899" lon="2.23759">
        <ele>169</ele>
        <time>2024-05-26T10:24:17Z</time>
      </trkpt>
      <trkpt lat="48.78991" lon="2.2376">
        <ele>169</ele>
        <time>2024-05-26T10:24:18Z</time>
      </trkpt>
      <trkpt lat="48.78993" lon="2.23759">
        <ele>168.9</ele>
        <time>2024-05-26T10:24:19Z</time>
      </trkpt>
      <trkpt lat="48.78995" lon="2.2376">
        <ele>168.9</ele>
        <time>2024-05-26T10:24:20Z</time>
      </trkpt>
      <trkpt lat="48.78998" lon="2.23761">
        <ele>168.8</ele>
        <time>2024-05-26T10:24:21Z</time>
      </trkpt>
      <trkpt lat="48.78999" lon="2.23761">
        <ele>168.8</ele>
        <time>2024-05-26T10:24:22Z</time>
      </trkpt>
      <trkpt lat="48.79" lon="2.23762">
        <ele>168.8</ele>
        <time>2024-05-26T10:24:23Z</time>
      </trkpt>
      <trkpt lat="48.79001" lon="2.23762">
        <ele>168.8</ele>
        <time>2024-05-26T10:24:24Z</time>
      </trkpt>
      <trkpt lat="48.79001" lon="2.23762">
        <ele>168.8</ele>
        <time>2024-05-26T10:24:25Z</time>
      </trkpt>
      <trkpt lat="48.79002" lon="2.23763">
        <ele>168.7</ele>
        <time>2024-05-26T10:24:26Z</time>
      </trkpt>
      <trkpt lat="48.79003" lon="2.23763">
        <ele>168.7</ele>
        <time>2024-05-26T10:24:27Z</time>
      </trkpt>
      <trkpt lat="48.79005" lon="2.23764">
        <ele>168.7</ele>
        <time>2024-05-26T10:24:28Z</time>
      </trkpt>
      <trkpt lat="48.79005" lon="2.23763">
        <ele>168.7</ele>
        <time>2024-05-26T10:24:29Z</time>
      </trkpt>
      <trkpt lat="48.79007" lon="2.23764">
        <ele>168.6</ele>
        <time>2024-05-26T10:24:30Z</time>
      </trkpt>
      <trkpt lat="48.79008" lon="2.23764">
        <ele>168.6</ele>
        <time>2024-05-26T10:24:31Z</time>
      </trkpt>
      <trkpt lat="48.79009" lon="2.23763">
        <ele>168.6</ele>
        <time>2024-05-26T10:24:32Z</time>
      </trkpt>
      <trkpt lat="48.79011" lon="2.23763">
        <ele>168.5</ele>
        <time>2024-05-26T10:24:33Z</time>
      </trkpt>
      <trkpt lat="48.79012" lon="2.23763">
        <ele>168.5</ele>
        <time>2024-05-26T10:24:34Z</time>
      </trkpt>
      <trkpt lat="48.79013" lon="2.23763">
        <ele>168.5</ele>
        <time>2024-05-26T10:24:35Z</time>
      </trkpt>
      <trkpt lat="48.79014" lon="2.23764">
        <ele>168.4</ele>
        <time>2024-05-26T10:24:36Z</time>
      </trkpt>
      <trkpt lat="48.79016" lon="2.23764">
        <ele>168.4</ele>
        <time>2024-05-26T10:24:37Z</time>
      </trkpt>
      <trkpt lat="48.79018" lon="2.23763">
        <ele>168.3</ele>
        <time>2024-05-26T10:24:38Z</time>
      </trkpt>
      <trkpt lat="48.79019" lon="2.23763">
        <ele>168.3</ele>
        <time>2024-05-26T10:24:39Z</time>
      </trkpt>
      <trkpt lat="48.79019" lon="2.23763">
        <ele>168.2</ele>
        <time>2024-05-26T10:24:40Z</time>
      </trkpt>
      <trkpt lat="48.79021" lon="2.23764">
        <ele>168.2</ele>
        <time>2024-05-26T10:24:41Z</time>
      </trkpt>
      <trkpt lat="48.79022" lon="2.23764">
        <ele>168.1</ele>
        <time>2024-05-26T10:24:42Z</time>
      </trkpt>
      <trkpt lat="48.79023" lon="2.23765">
        <ele>168.1</ele>
        <time>2024-05-26T10:24:43Z</time>
      </trkpt>
      <trkpt lat="48.79024" lon="2.23764">
        <ele>168.1</ele>
        <time>2024-05-26T10:24:44Z</time>
      </trkpt>
      <trkpt lat="48.79025" lon="2.23765">
        <ele>168</ele>
        <time>2024-05-26T10:24:45Z</time>
      </trkpt>
      <trkpt lat="48.79026" lon="2.23765">
        <ele>168</ele>
        <time>2024-05-26T10:24:46Z</time>
      </trkpt>
      <trkpt lat="48.79028" lon="2.23766">
        <ele>167.9</ele>
        <time>2024-05-26T10:24:47Z</time>
      </trkpt>
      <trkpt lat="48.7903" lon="2.23766">
        <ele>167.9</ele>
        <time>2024-05-26T10:24:48Z</time>
      </trkpt>
      <trkpt lat="48.79031" lon="2.23768">
        <ele>167.8</ele>
        <time>2024-05-26T10:24:49Z</time>
      </trkpt>
      <trkpt lat="48.79032" lon="2.23768">
        <ele>167.7</ele>
        <time>2024-05-26T10:24:50Z</time>
      </trkpt>
      <trkpt lat="48.79033" lon="2.23768">
        <ele>167.7</ele>
        <time>2024-05-26T10:24:51Z</time>
      </trkpt>
      <trkpt lat="48.79036" lon="2.23769">
        <ele>167.6</ele>
        <time>2024-05-26T10:24:52Z</time>
      </trkpt>
      <trkpt lat="48.79036" lon="2.23769">
        <ele>167.5</ele>
        <time>2024-05-26T10:24:53Z</time>
      </trkpt>
      <trkpt lat="48.79037" lon="2.2377">
        <ele>167.5</ele>
        <time>2024-05-26T10:24:54Z</time>
      </trkpt>
      <trkpt lat="48.79039" lon="2.2377">
        <ele>167.4</ele>
        <time>2024-05-26T10:24:55Z</time>
      </trkpt>
      <trkpt lat="48.7904" lon="2.23771">
        <ele>167.4</ele>
        <time>2024-05-26T10:24:56Z</time>
      </trkpt>
      <trkpt lat="48.7904" lon="2.23772">
        <ele>167.3</ele>
        <time>2024-05-26T10:24:57Z</time>
      </trkpt>
      <trkpt lat="48.79042" lon="2.23772">
        <ele>167.3</ele>
        <time>2024-05-26T10:24:58Z</time>
      </trkpt>
      <trkpt lat="48.79042" lon="2.23772">
        <ele>167.2</ele>
        <time>2024-05-26T10:24:59Z</time>
      </trkpt>
      <trkpt lat="48.79043" lon="2.23772">
        <ele>167.2</ele>
        <time>2024-05-26T10:25:00Z</time>
      </trkpt>
      <trkpt lat="48.79045" lon="2.23773">
        <ele>167.1</ele>
        <time>2024-05-26T10:25:01Z</time>
      </trkpt>
      <trkpt lat="48.79046" lon="2.23774">
        <ele>167.1</ele>
        <time>2024-05-26T10:25:02Z</time>
      </trkpt>
      <trkpt lat="48.79047" lon="2.23774">
        <ele>167</ele>
        <time>2024-05-26T10:25:03Z</time>
      </trkpt>
      <trkpt lat="48.79048" lon="2.23774">
        <ele>167</ele>
        <time>2024-05-26T10:25:04Z</time>
      </trkpt>
      <trkpt lat="48.79049" lon="2.23775">
        <ele>166.9</ele>
        <time>2024-05-26T10:25:05Z</time>
      </trkpt>
      <trkpt lat="48.7905" lon="2.23774">
        <ele>166.8</ele>
        <time>2024-05-26T10:25:06Z</time>
      </trkpt>
      <trkpt lat="48.79052" lon="2.23774">
        <ele>166.8</ele>
        <time>2024-05-26T10:25:07Z</time>
      </trkpt>
      <trkpt lat="48.79052" lon="2.23774">
        <ele>166.7</ele>
        <time>2024-05-26T10:25:08Z</time>
      </trkpt>
      <trkpt lat="48.79054" lon="2.23774">
        <ele>166.7</ele>
        <time>2024-05-26T10:25:09Z</time>
      </trkpt>
      <trkpt lat="48.79054" lon="2.23773">
        <ele>166.6</ele>
        <time>2024-05-26T10:25:10Z</time>
      </trkpt>
      <trkpt lat="48.79056" lon="2.23774">
        <ele>166.5</ele>
        <time>2024-05-26T10:25:11Z</time>
      </trkpt>
      <trkpt lat="48.79057" lon="2.23774">
        <ele>166.5</ele>
        <time>2024-05-26T10:25:12Z</time>
      </trkpt>
      <trkpt lat="48.79059" lon="2.23775">
        <ele>166.4</ele>
        <time>2024-05-26T10:25:13Z</time>
      </trkpt>
      <trkpt lat="48.79061" lon="2.23775">
        <ele>166.3</ele>
        <time>2024-05-26T10:25:14Z</time>
      </trkpt>
      <trkpt lat="48.79063" lon="2.23776">
        <ele>166.2</ele>
        <time>2024-05-26T10:25:15Z</time>
      </trkpt>
      <trkpt lat="48.79063" lon="2.23776">
        <ele>166.2</ele>
        <time>2024-05-26T10:25:16Z</time>
      </trkpt>
      <trkpt lat="48.79064" lon="2.23777">
        <ele>166.1</ele>
        <time>2024-05-26T10:25:17Z</time>
      </trkpt>
      <trkpt lat="48.79067" lon="2.23778">
        <ele>166</ele>
        <time>2024-05-26T10:25:18Z</time>
      </trkpt>
      <trkpt lat="48.79068" lon="2.23778">
        <ele>165.9</ele>
        <time>2024-05-26T10:25:19Z</time>
      </trkpt>
      <trkpt lat="48.7907" lon="2.23777">
        <ele>165.8</ele>
        <time>2024-05-26T10:25:20Z</time>
      </trkpt>
      <trkpt lat="48.79071" lon="2.23776">
        <ele>165.8</ele>
        <time>2024-05-26T10:25:21Z</time>
      </trkpt>
      <trkpt lat="48.79073" lon="2.23777">
        <ele>165.7</ele>
        <time>2024-05-26T10:25:22Z</time>
      </trkpt>
      <trkpt lat="48.79074" lon="2.23777">
        <ele>165.6</ele>
        <time>2024-05-26T10:25:23Z</time>
      </trkpt>
      <trkpt lat="48.79076" lon="2.23778">
        <ele>165.6</ele>
        <time>2024-05-26T10:25:24Z</time>
      </trkpt>
      <trkpt lat="48.79077" lon="2.23779">
        <ele>165.5</ele>
        <time>2024-05-26T10:25:25Z</time>
      </trkpt>
      <trkpt lat="48.79078" lon="2.23779">
        <ele>165.5</ele>
        <time>2024-05-26T10:25:26Z</time>
      </trkpt>
      <trkpt lat="48.79079" lon="2.23779">
        <ele>165.4</ele>
        <time>2024-05-26T10:25:27Z</time>
      </trkpt>
      <trkpt lat="48.79081" lon="2.23779">
        <ele>165.3</ele>
        <time>2024-05-26T10:25:28Z</time>
      </trkpt>
      <trkpt lat="48.79083" lon="2.2378">
        <ele>165.2</ele>
        <time>2024-05-26T10:25:29Z</time>
      </trkpt>
      <trkpt lat="48.79084" lon="2.2378">
        <ele>165.2</ele>
        <time>2024-05-26T10:25:30Z</time>
      </trkpt>
      <trkpt lat="48.79085" lon="2.2378">
        <ele>165.1</ele>
        <time>2024-05-26T10:25:31Z</time>
      </trkpt>
      <trkpt lat="48.79087" lon="2.23781">
        <ele>165</ele>
        <time>2024-05-26T10:25:32Z</time>
      </trkpt>
      <trkpt lat="48.79088" lon="2.23781">
        <ele>165</ele>
        <time>2024-05-26T10:25:33Z</time>
      </trkpt>
      <trkpt lat="48.79089" lon="2.23781">
        <ele>164.9</ele>
        <time>2024-05-26T10:25:34Z</time>
      </trkpt>
      <trkpt lat="48.79091" lon="2.23782">
        <ele>164.8</ele>
        <time>2024-05-26T10:25:35Z</time>
      </trkpt>
      <trkpt lat="48.79091" lon="2.23782">
        <ele>164.7</ele>
        <time>2024-05-26T10:25:36Z</time>
      </trkpt>
      <trkpt lat="48.79092" lon="2.23783">
        <ele>164.7</ele>
        <time>2024-05-26T10:25:37Z</time>
      </trkpt>
      <trkpt lat="48.79093" lon="2.23784">
        <ele>164.6</ele>
        <time>2024-05-26T10:25:38Z</time>
      </trkpt>
      <trkpt lat="48.79094" lon="2.23785">
        <ele>164.5</ele>
        <time>2024-05-26T10:25:39Z</time>
      </trkpt>
      <trkpt lat="48.79096" lon="2.23786">
        <ele>164.4</ele>
        <time>2024-05-26T10:25:40Z</time>
      </trkpt>
      <trkpt lat="48.79097" lon="2.23786">
        <ele>164.3</ele>
        <time>2024-05-26T10:25:41Z</time>
      </trkpt>
      <trkpt lat="48.79098" lon="2.23786">
        <ele>164.2</ele>
        <time>2024-05-26T10:25:42Z</time>
      </trkpt>
      <trkpt lat="48.79099" lon="2.23785">
        <ele>164.1</ele>
        <time>2024-05-26T10:25:44Z</time>
      </trkpt>
      <trkpt lat="48.791" lon="2.23784">
        <ele>164</ele>
        <time>2024-05-26T10:25:45Z</time>
      </trkpt>
      <trkpt lat="48.79102" lon="2.23784">
        <ele>163.9</ele>
        <time>2024-05-26T10:25:46Z</time>
      </trkpt>
      <trkpt lat="48.79102" lon="2.23784">
        <ele>163.8</ele>
        <time>2024-05-26T10:25:47Z</time>
      </trkpt>
      <trkpt lat="48.79103" lon="2.23783">
        <ele>163.7</ele>
        <time>2024-05-26T10:25:48Z</time>
      </trkpt>
      <trkpt lat="48.79104" lon="2.23783">
        <ele>163.6</ele>
        <time>2024-05-26T10:25:49Z</time>
      </trkpt>
      <trkpt lat="48.79105" lon="2.23783">
        <ele>163.6</ele>
        <time>2024-05-26T10:25:50Z</time>
      </trkpt>
      <trkpt lat="48.79106" lon="2.23783">
        <ele>163.5</ele>
        <time>2024-05-26T10:25:51Z</time>
      </trkpt>
      <trkpt lat="48.79106" lon="2.23783">
        <ele>163.5</ele>
        <time>2024-05-26T10:25:52Z</time>
      </trkpt>
      <trkpt lat="48.79107" lon="2.23784">
        <ele>163.5</ele>
        <time>2024-05-26T10:25:53Z</time>
      </trkpt>
      <trkpt lat="48.79108" lon="2.23785">
        <ele>163.4</ele>
        <time>2024-05-26T10:25:54Z</time>
      </trkpt>
      <trkpt lat="48.79109" lon="2.23785">
        <ele>163.3</ele>
        <time>2024-05-26T10:25:55Z</time>
      </trkpt>
      <trkpt lat="48.7911" lon="2.23785">
        <ele>163.3</ele>
        <time>2024-05-26T10:25:56Z</time>
      </trkpt>
      <trkpt lat="48.79111" lon="2.23785">
        <ele>163.2</ele>
        <time>2024-05-26T10:25:57Z</time>
      </trkpt>
      <trkpt lat="48.79111" lon="2.23785">
        <ele>163.2</ele>
        <time>2024-05-26T10:25:58Z</time>
      </trkpt>
      <trkpt lat="48.79112" lon="2.23785">
        <ele>163.2</ele>
        <time>2024-05-26T10:25:59Z</time>
      </trkpt>
      <trkpt lat="48.79113" lon="2.23785">
        <ele>163.1</ele>
        <time>2024-05-26T10:26:00Z</time>
      </trkpt>
      <trkpt lat="48.79114" lon="2.23785">
        <ele>163</ele>
        <time>2024-05-26T10:26:01Z</time>
      </trkpt>
      <trkpt lat="48.79116" lon="2.23784">
        <ele>162.9</ele>
        <time>2024-05-26T10:26:02Z</time>
      </trkpt>
      <trkpt lat="48.79117" lon="2.23783">
        <ele>162.8</ele>
        <time>2024-05-26T10:26:03Z</time>
      </trkpt>
      <trkpt lat="48.79118" lon="2.23783">
        <ele>162.8</ele>
        <time>2024-05-26T10:26:04Z</time>
      </trkpt>
      <trkpt lat="48.79119" lon="2.23782">
        <ele>162.7</ele>
        <time>2024-05-26T10:26:05Z</time>
      </trkpt>
      <trkpt lat="48.79121" lon="2.23782">
        <ele>162.6</ele>
        <time>2024-05-26T10:26:06Z</time>
      </trkpt>
      <trkpt lat="48.79122" lon="2.23783">
        <ele>162.6</ele>
        <time>2024-05-26T10:26:07Z</time>
      </trkpt>
      <trkpt lat="48.79123" lon="2.23784">
        <ele>162.5</ele>
        <time>2024-05-26T10:26:08Z</time>
      </trkpt>
      <trkpt lat="48.79125" lon="2.23784">
        <ele>162.4</ele>
        <time>2024-05-26T10:26:09Z</time>
      </trkpt>
      <trkpt lat="48.79126" lon="2.23784">
        <ele>162.3</ele>
        <time>2024-05-26T10:26:10Z</time>
      </trkpt>
      <trkpt lat="48.79128" lon="2.23784">
        <ele>162.2</ele>
        <time>2024-05-26T10:26:11Z</time>
      </trkpt>
      <trkpt lat="48.7913" lon="2.23785">
        <ele>162</ele>
        <time>2024-05-26T10:26:12Z</time>
      </trkpt>
      <trkpt lat="48.79131" lon="2.23785">
        <ele>162</ele>
        <time>2024-05-26T10:26:13Z</time>
      </trkpt>
      <trkpt lat="48.79133" lon="2.23785">
        <ele>161.9</ele>
        <time>2024-05-26T10:26:14Z</time>
      </trkpt>
      <trkpt lat="48.79134" lon="2.23785">
        <ele>161.8</ele>
        <time>2024-05-26T10:26:15Z</time>
      </trkpt>
      <trkpt lat="48.79134" lon="2.23784">
        <ele>161.8</ele>
        <time>2024-05-26T10:26:16Z</time>
      </trkpt>
      <trkpt lat="48.79135" lon="2.23784">
        <ele>161.7</ele>
        <time>2024-05-26T10:26:17Z</time>
      </trkpt>
      <trkpt lat="48.79136" lon="2.23784">
        <ele>161.6</ele>
        <time>2024-05-26T10:26:18Z</time>
      </trkpt>
      <trkpt lat="48.79137" lon="2.23784">
        <ele>161.6</ele>
        <time>2024-05-26T10:26:19Z</time>
      </trkpt>
      <trkpt lat="48.79139" lon="2.23784">
        <ele>161.5</ele>
        <time>2024-05-26T10:26:20Z</time>
      </trkpt>
      <trkpt lat="48.79139" lon="2.23783">
        <ele>161.4</ele>
        <time>2024-05-26T10:26:21Z</time>
      </trkpt>
      <trkpt lat="48.7914" lon="2.23783">
        <ele>161.4</ele>
        <time>2024-05-26T10:26:22Z</time>
      </trkpt>
      <trkpt lat="48.79141" lon="2.23783">
        <ele>161.3</ele>
        <time>2024-05-26T10:26:23Z</time>
      </trkpt>
      <trkpt lat="48.79142" lon="2.23783">
        <ele>161.2</ele>
        <time>2024-05-26T10:26:24Z</time>
      </trkpt>
      <trkpt lat="48.79143" lon="2.23783">
        <ele>161.2</ele>
        <time>2024-05-26T10:26:25Z</time>
      </trkpt>
      <trkpt lat="48.79144" lon="2.23783">
        <ele>161.1</ele>
        <time>2024-05-26T10:26:26Z</time>
      </trkpt>
      <trkpt lat="48.79146" lon="2.23783">
        <ele>160.9</ele>
        <time>2024-05-26T10:26:27Z</time>
      </trkpt>
      <trkpt lat="48.79148" lon="2.23784">
        <ele>160.8</ele>
        <time>2024-05-26T10:26:28Z</time>
      </trkpt>
      <trkpt lat="48.79148" lon="2.23784">
        <ele>160.8</ele>
        <time>2024-05-26T10:26:29Z</time>
      </trkpt>
      <trkpt lat="48.79149" lon="2.23783">
        <ele>160.7</ele>
        <time>2024-05-26T10:26:30Z</time>
      </trkpt>
      <trkpt lat="48.79151" lon="2.23784">
        <ele>160.6</ele>
        <time>2024-05-26T10:26:31Z</time>
      </trkpt>
      <trkpt lat="48.79152" lon="2.23783">
        <ele>160.5</ele>
        <time>2024-05-26T10:26:32Z</time>
      </trkpt>
      <trkpt lat="48.79153" lon="2.23783">
        <ele>160.4</ele>
        <time>2024-05-26T10:26:33Z</time>
      </trkpt>
      <trkpt lat="48.79154" lon="2.23783">
        <ele>160.4</ele>
        <time>2024-05-26T10:26:34Z</time>
      </trkpt>
      <trkpt lat="48.79155" lon="2.23783">
        <ele>160.3</ele>
        <time>2024-05-26T10:26:35Z</time>
      </trkpt>
      <trkpt lat="48.79155" lon="2.23782">
        <ele>160.2</ele>
        <time>2024-05-26T10:26:36Z</time>
      </trkpt>
      <trkpt lat="48.79156" lon="2.23782">
        <ele>160.2</ele>
        <time>2024-05-26T10:26:37Z</time>
      </trkpt>
      <trkpt lat="48.79157" lon="2.2378">
        <ele>160.1</ele>
        <time>2024-05-26T10:26:38Z</time>
      </trkpt>
      <trkpt lat="48.79157" lon="2.2378">
        <ele>160</ele>
        <time>2024-05-26T10:26:39Z</time>
      </trkpt>
      <trkpt lat="48.79158" lon="2.2378">
        <ele>160</ele>
        <time>2024-05-26T10:26:40Z</time>
      </trkpt>
      <trkpt lat="48.79159" lon="2.23779">
        <ele>159.8</ele>
        <time>2024-05-26T10:26:41Z</time>
      </trkpt>
      <trkpt lat="48.7916" lon="2.23779">
        <ele>159.8</ele>
        <time>2024-05-26T10:26:42Z</time>
      </trkpt>
      <trkpt lat="48.7916" lon="2.23777">
        <ele>159.7</ele>
        <time>2024-05-26T10:26:43Z</time>
      </trkpt>
      <trkpt lat="48.79162" lon="2.23775">
        <ele>159.5</ele>
        <time>2024-05-26T10:26:44Z</time>
      </trkpt>
      <trkpt lat="48.79162" lon="2.23774">
        <ele>159.4</ele>
        <time>2024-05-26T10:26:45Z</time>
      </trkpt>
      <trkpt lat="48.79163" lon="2.23773">
        <ele>159.3</ele>
        <time>2024-05-26T10:26:46Z</time>
      </trkpt>
      <trkpt lat="48.79164" lon="2.23773">
        <ele>159.2</ele>
        <time>2024-05-26T10:26:47Z</time>
      </trkpt>
      <trkpt lat="48.79166" lon="2.23772">
        <ele>159</ele>
        <time>2024-05-26T10:26:48Z</time>
      </trkpt>
      <trkpt lat="48.79167" lon="2.23772">
        <ele>158.8</ele>
        <time>2024-05-26T10:26:49Z</time>
      </trkpt>
      <trkpt lat="48.79168" lon="2.23771">
        <ele>158.7</ele>
        <time>2024-05-26T10:26:50Z</time>
      </trkpt>
      <trkpt lat="48.79169" lon="2.2377">
        <ele>158.6</ele>
        <time>2024-05-26T10:26:51Z</time>
      </trkpt>
      <trkpt lat="48.79169" lon="2.23771">
        <ele>158.5</ele>
        <time>2024-05-26T10:26:52Z</time>
      </trkpt>
      <trkpt lat="48.7917" lon="2.23769">
        <ele>158.4</ele>
        <time>2024-05-26T10:26:53Z</time>
      </trkpt>
      <trkpt lat="48.79171" lon="2.23769">
        <ele>158.2</ele>
        <time>2024-05-26T10:26:54Z</time>
      </trkpt>
      <trkpt lat="48.79172" lon="2.23769">
        <ele>158.2</ele>
        <time>2024-05-26T10:26:55Z</time>
      </trkpt>
      <trkpt lat="48.79173" lon="2.2377">
        <ele>158</ele>
        <time>2024-05-26T10:26:56Z</time>
      </trkpt>
      <trkpt lat="48.79174" lon="2.23769">
        <ele>157.9</ele>
        <time>2024-05-26T10:26:57Z</time>
      </trkpt>
      <trkpt lat="48.79174" lon="2.23769">
        <ele>157.8</ele>
        <time>2024-05-26T10:26:58Z</time>
      </trkpt>
      <trkpt lat="48.79175" lon="2.23767">
        <ele>157.7</ele>
        <time>2024-05-26T10:26:59Z</time>
      </trkpt>
      <trkpt lat="48.79176" lon="2.23767">
        <ele>157.5</ele>
        <time>2024-05-26T10:27:00Z</time>
      </trkpt>
      <trkpt lat="48.79177" lon="2.23766">
        <ele>157.4</ele>
        <time>2024-05-26T10:27:01Z</time>
      </trkpt>
      <trkpt lat="48.79178" lon="2.23765">
        <ele>157.3</ele>
        <time>2024-05-26T10:27:02Z</time>
      </trkpt>
      <trkpt lat="48.79179" lon="2.23765">
        <ele>157.1</ele>
        <time>2024-05-26T10:27:03Z</time>
      </trkpt>
      <trkpt lat="48.79181" lon="2.23764">
        <ele>156.8</ele>
        <time>2024-05-26T10:27:04Z</time>
      </trkpt>
      <trkpt lat="48.79182" lon="2.23764">
        <ele>156.7</ele>
        <time>2024-05-26T10:27:05Z</time>
      </trkpt>
      <trkpt lat="48.79183" lon="2.23763">
        <ele>156.6</ele>
        <time>2024-05-26T10:27:06Z</time>
      </trkpt>
      <trkpt lat="48.79185" lon="2.23763">
        <ele>156.3</ele>
        <time>2024-05-26T10:27:07Z</time>
      </trkpt>
      <trkpt lat="48.79186" lon="2.23762">
        <ele>156.1</ele>
        <time>2024-05-26T10:27:08Z</time>
      </trkpt>
      <trkpt lat="48.79187" lon="2.23763">
        <ele>155.9</ele>
        <time>2024-05-26T10:27:09Z</time>
      </trkpt>
      <trkpt lat="48.79188" lon="2.23762">
        <ele>155.8</ele>
        <time>2024-05-26T10:27:10Z</time>
      </trkpt>
      <trkpt lat="48.79189" lon="2.23762">
        <ele>155.7</ele>
        <time>2024-05-26T10:27:11Z</time>
      </trkpt>
      <trkpt lat="48.7919" lon="2.2376">
        <ele>155.4</ele>
        <time>2024-05-26T10:27:12Z</time>
      </trkpt>
      <trkpt lat="48.7919" lon="2.23757">
        <ele>155.2</ele>
        <time>2024-05-26T10:27:13Z</time>
      </trkpt>
      <trkpt lat="48.79192" lon="2.23754">
        <ele>154.8</ele>
        <time>2024-05-26T10:27:14Z</time>
      </trkpt>
      <trkpt lat="48.79192" lon="2.23752">
        <ele>154.7</ele>
        <time>2024-05-26T10:27:15Z</time>
      </trkpt>
      <trkpt lat="48.79192" lon="2.2375">
        <ele>154.5</ele>
        <time>2024-05-26T10:27:16Z</time>
      </trkpt>
      <trkpt lat="48.79193" lon="2.23748">
        <ele>154.3</ele>
        <time>2024-05-26T10:27:17Z</time>
      </trkpt>
      <trkpt lat="48.79193" lon="2.23747">
        <ele>154.2</ele>
        <time>2024-05-26T10:27:18Z</time>
      </trkpt>
      <trkpt lat="48.79194" lon="2.23745">
        <ele>154</ele>
        <time>2024-05-26T10:27:19Z</time>
      </trkpt>
      <trkpt lat="48.79195" lon="2.23744">
        <ele>153.8</ele>
        <time>2024-05-26T10:27:20Z</time>
      </trkpt>
      <trkpt lat="48.79194" lon="2.23743">
        <ele>153.7</ele>
        <time>2024-05-26T10:27:21Z</time>
      </trkpt>
      <trkpt lat="48.79195" lon="2.23741">
        <ele>153.6</ele>
        <time>2024-05-26T10:27:22Z</time>
      </trkpt>
      <trkpt lat="48.79195" lon="2.2374">
        <ele>153.4</ele>
        <time>2024-05-26T10:27:23Z</time>
      </trkpt>
      <trkpt lat="48.79195" lon="2.23738">
        <ele>153.3</ele>
        <time>2024-05-26T10:27:24Z</time>
      </trkpt>
      <trkpt lat="48.79195" lon="2.23736">
        <ele>153.1</ele>
        <time>2024-05-26T10:27:25Z</time>
      </trkpt>
      <trkpt lat="48.79196" lon="2.23735">
        <ele>153</ele>
        <time>2024-05-26T10:27:26Z</time>
      </trkpt>
      <trkpt lat="48.79196" lon="2.23734">
        <ele>152.9</ele>
        <time>2024-05-26T10:27:27Z</time>
      </trkpt>
      <trkpt lat="48.79197" lon="2.23733">
        <ele>152.8</ele>
        <time>2024-05-26T10:27:28Z</time>
      </trkpt>
      <trkpt lat="48.79197" lon="2.23732">
        <ele>152.7</ele>
        <time>2024-05-26T10:27:29Z</time>
      </trkpt>
      <trkpt lat="48.79198" lon="2.23731">
        <ele>152.5</ele>
        <time>2024-05-26T10:27:30Z</time>
      </trkpt>
      <trkpt lat="48.79199" lon="2.2373">
        <ele>152.3</ele>
        <time>2024-05-26T10:27:31Z</time>
      </trkpt>
      <trkpt lat="48.792" lon="2.23728">
        <ele>152.2</ele>
        <time>2024-05-26T10:27:32Z</time>
      </trkpt>
      <trkpt lat="48.792" lon="2.23727">
        <ele>152.1</ele>
        <time>2024-05-26T10:27:33Z</time>
      </trkpt>
      <trkpt lat="48.79201" lon="2.23726">
        <ele>151.9</ele>
        <time>2024-05-26T10:27:34Z</time>
      </trkpt>
      <trkpt lat="48.79201" lon="2.23725">
        <ele>151.8</ele>
        <time>2024-05-26T10:27:35Z</time>
      </trkpt>
      <trkpt lat="48.79202" lon="2.23724">
        <ele>151.7</ele>
        <time>2024-05-26T10:27:36Z</time>
      </trkpt>
      <trkpt lat="48.79202" lon="2.23723">
        <ele>151.6</ele>
        <time>2024-05-26T10:27:37Z</time>
      </trkpt>
      <trkpt lat="48.79202" lon="2.23722">
        <ele>151.5</ele>
        <time>2024-05-26T10:27:38Z</time>
      </trkpt>
      <trkpt lat="48.79203" lon="2.23721">
        <ele>151.4</ele>
        <time>2024-05-26T10:27:39Z</time>
      </trkpt>
      <trkpt lat="48.79203" lon="2.23719">
        <ele>151.3</ele>
        <time>2024-05-26T10:27:40Z</time>
      </trkpt>
      <trkpt lat="48.79203" lon="2.23718">
        <ele>151.2</ele>
        <time>2024-05-26T10:27:41Z</time>
      </trkpt>
      <trkpt lat="48.79202" lon="2.23717">
        <ele>151.1</ele>
        <time>2024-05-26T10:27:42Z</time>
      </trkpt>
      <trkpt lat="48.79202" lon="2.23718">
        <ele>151</ele>
        <time>2024-05-26T10:27:43Z</time>
      </trkpt>
      <trkpt lat="48.79202" lon="2.23718">
        <ele>151</ele>
        <time>2024-05-26T10:27:44Z</time>
      </trkpt>
      <trkpt lat="48.79203" lon="2.23715">
        <ele>150.7</ele>
        <time>2024-05-26T10:27:45Z</time>
      </trkpt>
      <trkpt lat="48.79203" lon="2.23711">
        <ele>150.4</ele>
        <time>2024-05-26T10:27:46Z</time>
      </trkpt>
      <trkpt lat="48.79203" lon="2.23709">
        <ele>150.2</ele>
        <time>2024-05-26T10:27:47Z</time>
      </trkpt>
      <trkpt lat="48.79204" lon="2.23709">
        <ele>150.1</ele>
        <time>2024-05-26T10:27:48Z</time>
      </trkpt>
      <trkpt lat="48.79204" lon="2.23706">
        <ele>149.9</ele>
        <time>2024-05-26T10:27:50Z</time>
      </trkpt>
      <trkpt lat="48.79204" lon="2.23706">
        <ele>149.8</ele>
        <time>2024-05-26T10:27:51Z</time>
      </trkpt>
      <trkpt lat="48.79205" lon="2.23706">
        <ele>149.7</ele>
        <time>2024-05-26T10:27:52Z</time>
      </trkpt>
      <trkpt lat="48.79206" lon="2.23707">
        <ele>149.6</ele>
        <time>2024-05-26T10:27:53Z</time>
      </trkpt>
      <trkpt lat="48.79207" lon="2.23707">
        <ele>149.4</ele>
        <time>2024-05-26T10:27:54Z</time>
      </trkpt>
      <trkpt lat="48.79209" lon="2.23706">
        <ele>149.2</ele>
        <time>2024-05-26T10:27:55Z</time>
      </trkpt>
      <trkpt lat="48.7921" lon="2.23704">
        <ele>148.9</ele>
        <time>2024-05-26T10:27:56Z</time>
      </trkpt>
      <trkpt lat="48.79211" lon="2.23703">
        <ele>148.8</ele>
        <time>2024-05-26T10:27:57Z</time>
      </trkpt>
      <trkpt lat="48.79212" lon="2.23702">
        <ele>148.7</ele>
        <time>2024-05-26T10:27:58Z</time>
      </trkpt>
      <trkpt lat="48.79212" lon="2.23702">
        <ele>148.6</ele>
        <time>2024-05-26T10:27:59Z</time>
      </trkpt>
      <trkpt lat="48.79212" lon="2.23702">
        <ele>148.6</ele>
        <time>2024-05-26T10:28:00Z</time>
      </trkpt>
      <trkpt lat="48.79213" lon="2.23702">
        <ele>148.4</ele>
        <time>2024-05-26T10:28:01Z</time>
      </trkpt>
      <trkpt lat="48.79215" lon="2.23702">
        <ele>148.2</ele>
        <time>2024-05-26T10:28:02Z</time>
      </trkpt>
      <trkpt lat="48.79216" lon="2.23701">
        <ele>148</ele>
        <time>2024-05-26T10:28:03Z</time>
      </trkpt>
      <trkpt lat="48.79217" lon="2.237">
        <ele>147.9</ele>
        <time>2024-05-26T10:28:04Z</time>
      </trkpt>
      <trkpt lat="48.79219" lon="2.23699">
        <ele>147.6</ele>
        <time>2024-05-26T10:28:05Z</time>
      </trkpt>
      <trkpt lat="48.79221" lon="2.237">
        <ele>147.4</ele>
        <time>2024-05-26T10:28:06Z</time>
      </trkpt>
      <trkpt lat="48.79222" lon="2.23699">
        <ele>147.2</ele>
        <time>2024-05-26T10:28:07Z</time>
      </trkpt>
      <trkpt lat="48.79223" lon="2.23698">
        <ele>147</ele>
        <time>2024-05-26T10:28:08Z</time>
      </trkpt>
      <trkpt lat="48.79225" lon="2.23697">
        <ele>146.9</ele>
        <time>2024-05-26T10:28:09Z</time>
      </trkpt>
      <trkpt lat="48.79226" lon="2.23697">
        <ele>146.7</ele>
        <time>2024-05-26T10:28:10Z</time>
      </trkpt>
      <trkpt lat="48.79227" lon="2.23698">
        <ele>146.6</ele>
        <time>2024-05-26T10:28:11Z</time>
      </trkpt>
      <trkpt lat="48.79228" lon="2.23696">
        <ele>146.4</ele>
        <time>2024-05-26T10:28:12Z</time>
      </trkpt>
      <trkpt lat="48.79228" lon="2.23696">
        <ele>146.4</ele>
        <time>2024-05-26T10:28:13Z</time>
      </trkpt>
      <trkpt lat="48.79229" lon="2.23696">
        <ele>146.3</ele>
        <time>2024-05-26T10:28:14Z</time>
      </trkpt>
      <trkpt lat="48.7923" lon="2.23696">
        <ele>146.1</ele>
        <time>2024-05-26T10:28:15Z</time>
      </trkpt>
      <trkpt lat="48.79231" lon="2.23695">
        <ele>146</ele>
        <time>2024-05-26T10:28:16Z</time>
      </trkpt>
      <trkpt lat="48.79233" lon="2.23695">
        <ele>145.7</ele>
        <time>2024-05-26T10:28:17Z</time>
      </trkpt>
      <trkpt lat="48.79235" lon="2.23696">
        <ele>145.5</ele>
        <time>2024-05-26T10:28:18Z</time>
      </trkpt>
      <trkpt lat="48.79236" lon="2.23695">
        <ele>145.4</ele>
        <time>2024-05-26T10:28:19Z</time>
      </trkpt>
      <trkpt lat="48.79238" lon="2.23694">
        <ele>145.2</ele>
        <time>2024-05-26T10:28:20Z</time>
      </trkpt>
      <trkpt lat="48.79239" lon="2.23694">
        <ele>145.1</ele>
        <time>2024-05-26T10:28:21Z</time>
      </trkpt>
      <trkpt lat="48.79239" lon="2.23693">
        <ele>145</ele>
        <time>2024-05-26T10:28:22Z</time>
      </trkpt>
      <trkpt lat="48.79242" lon="2.23693">
        <ele>144.7</ele>
        <time>2024-05-26T10:28:23Z</time>
      </trkpt>
      <trkpt lat="48.79243" lon="2.23693">
        <ele>144.6</ele>
        <time>2024-05-26T10:28:24Z</time>
      </trkpt>
      <trkpt lat="48.79244" lon="2.23692">
        <ele>144.5</ele>
        <time>2024-05-26T10:28:25Z</time>
      </trkpt>
      <trkpt lat="48.79245" lon="2.23692">
        <ele>144.4</ele>
        <time>2024-05-26T10:28:26Z</time>
      </trkpt>
      <trkpt lat="48.79246" lon="2.2369">
        <ele>144.2</ele>
        <time>2024-05-26T10:28:27Z</time>
      </trkpt>
      <trkpt lat="48.79246" lon="2.23689">
        <ele>144.1</ele>
        <time>2024-05-26T10:28:28Z</time>
      </trkpt>
      <trkpt lat="48.79247" lon="2.23689">
        <ele>144</ele>
        <time>2024-05-26T10:28:29Z</time>
      </trkpt>
      <trkpt lat="48.79248" lon="2.23688">
        <ele>143.9</ele>
        <time>2024-05-26T10:28:30Z</time>
      </trkpt>
      <trkpt lat="48.79249" lon="2.23687">
        <ele>143.8</ele>
        <time>2024-05-26T10:28:31Z</time>
      </trkpt>
      <trkpt lat="48.79249" lon="2.23686">
        <ele>143.7</ele>
        <time>2024-05-26T10:28:32Z</time>
      </trkpt>
      <trkpt lat="48.79251" lon="2.23686">
        <ele>143.6</ele>
        <time>2024-05-26T10:28:33Z</time>
      </trkpt>
      <trkpt lat="48.79252" lon="2.23686">
        <ele>143.5</ele>
        <time>2024-05-26T10:28:34Z</time>
      </trkpt>
      <trkpt lat="48.79252" lon="2.23685">
        <ele>143.4</ele>
        <time>2024-05-26T10:28:35Z</time>
      </trkpt>
      <trkpt lat="48.79252" lon="2.23685">
        <ele>143.4</ele>
        <time>2024-05-26T10:28:36Z</time>
      </trkpt>
      <trkpt lat="48.79252" lon="2.23684">
        <ele>143.4</ele>
        <time>2024-05-26T10:28:37Z</time>
      </trkpt>
      <trkpt lat="48.79252" lon="2.23685">
        <ele>143.4</ele>
        <time>2024-05-26T10:28:38Z</time>
      </trkpt>
      <trkpt lat="48.79253" lon="2.23684">
        <ele>143.3</ele>
        <time>2024-05-26T10:28:39Z</time>
      </trkpt>
      <trkpt lat="48.79253" lon="2.23683">
        <ele>143.2</ele>
        <time>2024-05-26T10:28:40Z</time>
      </trkpt>
      <trkpt lat="48.79254" lon="2.23683">
        <ele>143.1</ele>
        <time>2024-05-26T10:28:41Z</time>
      </trkpt>
      <trkpt lat="48.79256" lon="2.23681">
        <ele>143</ele>
        <time>2024-05-26T10:28:42Z</time>
      </trkpt>
      <trkpt lat="48.79257" lon="2.23682">
        <ele>142.8</ele>
        <time>2024-05-26T10:28:43Z</time>
      </trkpt>
      <trkpt lat="48.79258" lon="2.23682">
        <ele>142.8</ele>
        <time>2024-05-26T10:28:44Z</time>
      </trkpt>
      <trkpt lat="48.79258" lon="2.23681">
        <ele>142.7</ele>
        <time>2024-05-26T10:28:45Z</time>
      </trkpt>
      <trkpt lat="48.79259" lon="2.2368">
        <ele>142.7</ele>
        <time>2024-05-26T10:28:46Z</time>
      </trkpt>
      <trkpt lat="48.7926" lon="2.2368">
        <ele>142.6</ele>
        <time>2024-05-26T10:28:47Z</time>
      </trkpt>
      <trkpt lat="48.79261" lon="2.23678">
        <ele>142.4</ele>
        <time>2024-05-26T10:28:48Z</time>
      </trkpt>
      <trkpt lat="48.79261" lon="2.23677">
        <ele>142.4</ele>
        <time>2024-05-26T10:28:49Z</time>
      </trkpt>
      <trkpt lat="48.79262" lon="2.23676">
        <ele>142.3</ele>
        <time>2024-05-26T10:28:50Z</time>
      </trkpt>
      <trkpt lat="48.79262" lon="2.23676">
        <ele>142.3</ele>
        <time>2024-05-26T10:28:51Z</time>
      </trkpt>
      <trkpt lat="48.79265" lon="2.23674">
        <ele>142</ele>
        <time>2024-05-26T10:28:52Z</time>
      </trkpt>
      <trkpt lat="48.79266" lon="2.23674">
        <ele>142</ele>
        <time>2024-05-26T10:28:53Z</time>
      </trkpt>
      <trkpt lat="48.79268" lon="2.23673">
        <ele>141.8</ele>
        <time>2024-05-26T10:28:54Z</time>
      </trkpt>
      <trkpt lat="48.79269" lon="2.23673">
        <ele>141.7</ele>
        <time>2024-05-26T10:28:55Z</time>
      </trkpt>
      <trkpt lat="48.7927" lon="2.23672">
        <ele>141.6</ele>
        <time>2024-05-26T10:28:56Z</time>
      </trkpt>
      <trkpt lat="48.79271" lon="2.23672">
        <ele>141.5</ele>
        <time>2024-05-26T10:28:57Z</time>
      </trkpt>
      <trkpt lat="48.79273" lon="2.23672">
        <ele>141.4</ele>
        <time>2024-05-26T10:28:58Z</time>
      </trkpt>
      <trkpt lat="48.79274" lon="2.23671">
        <ele>141.2</ele>
        <time>2024-05-26T10:28:59Z</time>
      </trkpt>
      <trkpt lat="48.79275" lon="2.2367">
        <ele>141.2</ele>
        <time>2024-05-26T10:29:00Z</time>
      </trkpt>
      <trkpt lat="48.79275" lon="2.23669">
        <ele>141.1</ele>
        <time>2024-05-26T10:29:01Z</time>
      </trkpt>
      <trkpt lat="48.79277" lon="2.2367">
        <ele>140.9</ele>
        <time>2024-05-26T10:29:02Z</time>
      </trkpt>
      <trkpt lat="48.79278" lon="2.2367">
        <ele>140.8</ele>
        <time>2024-05-26T10:29:03Z</time>
      </trkpt>
      <trkpt lat="48.79279" lon="2.23669">
        <ele>140.8</ele>
        <time>2024-05-26T10:29:04Z</time>
      </trkpt>
      <trkpt lat="48.7928" lon="2.23669">
        <ele>140.7</ele>
        <time>2024-05-26T10:29:05Z</time>
      </trkpt>
      <trkpt lat="48.79281" lon="2.23667">
        <ele>140.6</ele>
        <time>2024-05-26T10:29:06Z</time>
      </trkpt>
      <trkpt lat="48.79282" lon="2.23666">
        <ele>140.5</ele>
        <time>2024-05-26T10:29:07Z</time>
      </trkpt>
      <trkpt lat="48.79283" lon="2.23667">
        <ele>140.4</ele>
        <time>2024-05-26T10:29:08Z</time>
      </trkpt>
      <trkpt lat="48.79284" lon="2.23666">
        <ele>140.3</ele>
        <time>2024-05-26T10:29:09Z</time>
      </trkpt>
      <trkpt lat="48.79285" lon="2.23666">
        <ele>140.2</ele>
        <time>2024-05-26T10:29:10Z</time>
      </trkpt>
      <trkpt lat="48.79286" lon="2.23664">
        <ele>140.1</ele>
        <time>2024-05-26T10:29:11Z</time>
      </trkpt>
      <trkpt lat="48.79286" lon="2.23663">
        <ele>140.1</ele>
        <time>2024-05-26T10:29:12Z</time>
      </trkpt>
      <trkpt lat="48.79286" lon="2.23662">
        <ele>140</ele>
        <time>2024-05-26T10:29:13Z</time>
      </trkpt>
      <trkpt lat="48.79287" lon="2.23661">
        <ele>139.9</ele>
        <time>2024-05-26T10:29:14Z</time>
      </trkpt>
      <trkpt lat="48.79287" lon="2.23661">
        <ele>139.9</ele>
        <time>2024-05-26T10:29:15Z</time>
      </trkpt>
      <trkpt lat="48.79287" lon="2.23659">
        <ele>139.7</ele>
        <time>2024-05-26T10:29:16Z</time>
      </trkpt>
      <trkpt lat="48.79287" lon="2.23658">
        <ele>139.7</ele>
        <time>2024-05-26T10:29:17Z</time>
      </trkpt>
      <trkpt lat="48.79286" lon="2.23657">
        <ele>139.6</ele>
        <time>2024-05-26T10:29:18Z</time>
      </trkpt>
      <trkpt lat="48.79287" lon="2.23654">
        <ele>139.4</ele>
        <time>2024-05-26T10:29:19Z</time>
      </trkpt>
      <trkpt lat="48.79287" lon="2.23653">
        <ele>139.3</ele>
        <time>2024-05-26T10:29:20Z</time>
      </trkpt>
      <trkpt lat="48.79287" lon="2.23651">
        <ele>139.2</ele>
        <time>2024-05-26T10:29:21Z</time>
      </trkpt>
      <trkpt lat="48.79287" lon="2.23649">
        <ele>139</ele>
        <time>2024-05-26T10:29:22Z</time>
      </trkpt>
      <trkpt lat="48.79286" lon="2.23647">
        <ele>138.9</ele>
        <time>2024-05-26T10:29:23Z</time>
      </trkpt>
      <trkpt lat="48.79286" lon="2.23645">
        <ele>138.8</ele>
        <time>2024-05-26T10:29:24Z</time>
      </trkpt>
      <trkpt lat="48.79286" lon="2.23643">
        <ele>138.7</ele>
        <time>2024-05-26T10:29:25Z</time>
      </trkpt>
      <trkpt lat="48.79286" lon="2.23642">
        <ele>138.6</ele>
        <time>2024-05-26T10:29:26Z</time>
      </trkpt>
      <trkpt lat="48.79286" lon="2.23642">
        <ele>138.6</ele>
        <time>2024-05-26T10:29:27Z</time>
      </trkpt>
      <trkpt lat="48.79286" lon="2.2364">
        <ele>138.6</ele>
        <time>2024-05-26T10:29:28Z</time>
      </trkpt>
      <trkpt lat="48.79285" lon="2.23638">
        <ele>138.5</ele>
        <time>2024-05-26T10:29:29Z</time>
      </trkpt>
      <trkpt lat="48.79285" lon="2.23638">
        <ele>138.4</ele>
        <time>2024-05-26T10:29:30Z</time>
      </trkpt>
      <trkpt lat="48.79285" lon="2.23637">
        <ele>138.4</ele>
        <time>2024-05-26T10:29:31Z</time>
      </trkpt>
      <trkpt lat="48.79285" lon="2.23638">
        <ele>138.4</ele>
        <time>2024-05-26T10:29:32Z</time>
      </trkpt>
      <trkpt lat="48.79285" lon="2.23638">
        <ele>138.4</ele>
        <time>2024-05-26T10:29:33Z</time>
      </trkpt>
      <trkpt lat="48.79285" lon="2.23638">
        <ele>138.4</ele>
        <time>2024-05-26T10:29:34Z</time>
      </trkpt>
      <trkpt lat="48.79285" lon="2.23638">
        <ele>138.4</ele>
        <time>2024-05-26T10:29:35Z</time>
      </trkpt>
      <trkpt lat="48.79285" lon="2.23638">
        <ele>138.4</ele>
        <time>2024-05-26T10:29:36Z</time>
      </trkpt>
      <trkpt lat="48.79285" lon="2.23638">
        <ele>138.4</ele>
        <time>2024-05-26T10:29:37Z</time>
      </trkpt>
      <trkpt lat="48.79285" lon="2.23638">
        <ele>138.4</ele>
        <time>2024-05-26T10:29:38Z</time>
      </trkpt>
      <trkpt lat="48.79285" lon="2.23637">
        <ele>138.4</ele>
        <time>2024-05-26T10:29:39Z</time>
      </trkpt>
      <trkpt lat="48.79284" lon="2.23637">
        <ele>138.3</ele>
        <time>2024-05-26T10:29:40Z</time>
      </trkpt>
      <trkpt lat="48.79285" lon="2.23637">
        <ele>138.3</ele>
        <time>2024-05-26T10:29:41Z</time>
      </trkpt>
      <trkpt lat="48.79284" lon="2.23638">
        <ele>138.3</ele>
        <time>2024-05-26T10:29:42Z</time>
      </trkpt>
      <trkpt lat="48.79284" lon="2.23638">
        <ele>138.3</ele>
        <time>2024-05-26T10:29:43Z</time>
      </trkpt>
      <trkpt lat="48.79284" lon="2.23637">
        <ele>138.3</ele>
        <time>2024-05-26T10:29:44Z</time>
      </trkpt>
      <trkpt lat="48.79284" lon="2.23636">
        <ele>138.3</ele>
        <time>2024-05-26T10:29:45Z</time>
      </trkpt>
      <trkpt lat="48.79284" lon="2.23636">
        <ele>138.2</ele>
        <time>2024-05-26T10:29:46Z</time>
      </trkpt>
      <trkpt lat="48.79283" lon="2.23635">
        <ele>138.2</ele>
        <time>2024-05-26T10:29:47Z</time>
      </trkpt>
      <trkpt lat="48.79284" lon="2.23635">
        <ele>138.2</ele>
        <time>2024-05-26T10:29:48Z</time>
      </trkpt>
      <trkpt lat="48.79284" lon="2.23635">
        <ele>138.2</ele>
        <time>2024-05-26T10:29:49Z</time>
      </trkpt>
      <trkpt lat="48.79283" lon="2.23635">
        <ele>138.1</ele>
        <time>2024-05-26T10:29:50Z</time>
      </trkpt>
      <trkpt lat="48.79283" lon="2.23635">
        <ele>138.1</ele>
        <time>2024-05-26T10:29:51Z</time>
      </trkpt>
      <trkpt lat="48.79283" lon="2.23635">
        <ele>138.1</ele>
        <time>2024-05-26T10:29:52Z</time>
      </trkpt>
      <trkpt lat="48.79283" lon="2.23635">
        <ele>138.1</ele>
        <time>2024-05-26T10:29:53Z</time>
      </trkpt>
      <trkpt lat="48.79282" lon="2.23635">
        <ele>138.1</ele>
        <time>2024-05-26T10:29:54Z</time>
      </trkpt>
      <trkpt lat="48.79282" lon="2.23634">
        <ele>138.1</ele>
        <time>2024-05-26T10:29:56Z</time>
      </trkpt>
      <trkpt lat="48.79283" lon="2.23634">
        <ele>138.1</ele>
        <time>2024-05-26T10:29:57Z</time>
      </trkpt>
      <trkpt lat="48.79283" lon="2.23632">
        <ele>138.1</ele>
        <time>2024-05-26T10:29:58Z</time>
      </trkpt>
      <trkpt lat="48.79283" lon="2.23633">
        <ele>138.1</ele>
        <time>2024-05-26T10:29:59Z</time>
      </trkpt>
      <trkpt lat="48.79284" lon="2.23631">
        <ele>138.1</ele>
        <time>2024-05-26T10:30:00Z</time>
      </trkpt>
      <trkpt lat="48.79284" lon="2.2363">
        <ele>138</ele>
        <time>2024-05-26T10:30:01Z</time>
      </trkpt>
      <trkpt lat="48.79284" lon="2.23627">
        <ele>138</ele>
        <time>2024-05-26T10:30:02Z</time>
      </trkpt>
      <trkpt lat="48.79285" lon="2.23625">
        <ele>138</ele>
        <time>2024-05-26T10:30:03Z</time>
      </trkpt>
      <trkpt lat="48.79285" lon="2.23624">
        <ele>138</ele>
        <time>2024-05-26T10:30:04Z</time>
      </trkpt>
      <trkpt lat="48.79285" lon="2.23623">
        <ele>138</ele>
        <time>2024-05-26T10:30:05Z</time>
      </trkpt>
      <trkpt lat="48.79285" lon="2.23622">
        <ele>138</ele>
        <time>2024-05-26T10:30:06Z</time>
      </trkpt>
      <trkpt lat="48.79285" lon="2.23621">
        <ele>138</ele>
        <time>2024-05-26T10:30:07Z</time>
      </trkpt>
      <trkpt lat="48.79285" lon="2.23619">
        <ele>138</ele>
        <time>2024-05-26T10:30:08Z</time>
      </trkpt>
      <trkpt lat="48.79285" lon="2.23617">
        <ele>138</ele>
        <time>2024-05-26T10:30:09Z</time>
      </trkpt>
      <trkpt lat="48.79285" lon="2.23615">
        <ele>138</ele>
        <time>2024-05-26T10:30:10Z</time>
      </trkpt>
      <trkpt lat="48.79285" lon="2.23614">
        <ele>138</ele>
        <time>2024-05-26T10:30:11Z</time>
      </trkpt>
      <trkpt lat="48.79285" lon="2.23613">
        <ele>138</ele>
        <time>2024-05-26T10:30:12Z</time>
      </trkpt>
      <trkpt lat="48.79285" lon="2.2361">
        <ele>138</ele>
        <time>2024-05-26T10:30:13Z</time>
      </trkpt>
      <trkpt lat="48.79285" lon="2.23609">
        <ele>138</ele>
        <time>2024-05-26T10:30:14Z</time>
      </trkpt>
      <trkpt lat="48.79286" lon="2.23607">
        <ele>138</ele>
        <time>2024-05-26T10:30:15Z</time>
      </trkpt>
      <trkpt lat="48.79286" lon="2.23605">
        <ele>138</ele>
        <time>2024-05-26T10:30:16Z</time>
      </trkpt>
      <trkpt lat="48.79286" lon="2.23604">
        <ele>137.9</ele>
        <time>2024-05-26T10:30:17Z</time>
      </trkpt>
      <trkpt lat="48.79286" lon="2.23603">
        <ele>137.9</ele>
        <time>2024-05-26T10:30:18Z</time>
      </trkpt>
      <trkpt lat="48.79286" lon="2.23601">
        <ele>137.9</ele>
        <time>2024-05-26T10:30:19Z</time>
      </trkpt>
      <trkpt lat="48.79286" lon="2.23599">
        <ele>137.9</ele>
        <time>2024-05-26T10:30:20Z</time>
      </trkpt>
      <trkpt lat="48.79286" lon="2.23597">
        <ele>137.9</ele>
        <time>2024-05-26T10:30:21Z</time>
      </trkpt>
      <trkpt lat="48.79287" lon="2.23596">
        <ele>137.9</ele>
        <time>2024-05-26T10:30:22Z</time>
      </trkpt>
      <trkpt lat="48.79287" lon="2.23594">
        <ele>137.9</ele>
        <time>2024-05-26T10:30:23Z</time>
      </trkpt>
      <trkpt lat="48.79287" lon="2.23593">
        <ele>137.9</ele>
        <time>2024-05-26T10:30:24Z</time>
      </trkpt>
      <trkpt lat="48.79287" lon="2.23592">
        <ele>137.8</ele>
        <time>2024-05-26T10:30:25Z</time>
      </trkpt>
      <trkpt lat="48.79287" lon="2.2359">
        <ele>137.8</ele>
        <time>2024-05-26T10:30:26Z</time>
      </trkpt>
      <trkpt lat="48.79287" lon="2.23589">
        <ele>137.8</ele>
        <time>2024-05-26T10:30:27Z</time>
      </trkpt>
      <trkpt lat="48.79287" lon="2.23588">
        <ele>137.8</ele>
        <time>2024-05-26T10:30:28Z</time>
      </trkpt>
      <trkpt lat="48.79287" lon="2.23586">
        <ele>137.8</ele>
        <time>2024-05-26T10:30:29Z</time>
      </trkpt>
      <trkpt lat="48.79288" lon="2.23585">
        <ele>137.8</ele>
        <time>2024-05-26T10:30:30Z</time>
      </trkpt>
      <trkpt lat="48.79288" lon="2.23582">
        <ele>137.8</ele>
        <time>2024-05-26T10:30:31Z</time>
      </trkpt>
      <trkpt lat="48.79289" lon="2.23581">
        <ele>137.8</ele>
        <time>2024-05-26T10:30:32Z</time>
      </trkpt>
      <trkpt lat="48.79289" lon="2.23578">
        <ele>137.7</ele>
        <time>2024-05-26T10:30:33Z</time>
      </trkpt>
      <trkpt lat="48.79289" lon="2.23577">
        <ele>137.7</ele>
        <time>2024-05-26T10:30:34Z</time>
      </trkpt>
      <trkpt lat="48.7929" lon="2.23576">
        <ele>137.7</ele>
        <time>2024-05-26T10:30:35Z</time>
      </trkpt>
      <trkpt lat="48.7929" lon="2.23576">
        <ele>137.7</ele>
        <time>2024-05-26T10:30:36Z</time>
      </trkpt>
      <trkpt lat="48.7929" lon="2.23573">
        <ele>137.7</ele>
        <time>2024-05-26T10:30:37Z</time>
      </trkpt>
      <trkpt lat="48.79291" lon="2.23571">
        <ele>137.7</ele>
        <time>2024-05-26T10:30:38Z</time>
      </trkpt>
      <trkpt lat="48.79291" lon="2.2357">
        <ele>137.7</ele>
        <time>2024-05-26T10:30:39Z</time>
      </trkpt>
      <trkpt lat="48.79291" lon="2.23568">
        <ele>137.7</ele>
        <time>2024-05-26T10:30:40Z</time>
      </trkpt>
      <trkpt lat="48.79291" lon="2.23566">
        <ele>137.6</ele>
        <time>2024-05-26T10:30:41Z</time>
      </trkpt>
      <trkpt lat="48.79292" lon="2.23565">
        <ele>137.6</ele>
        <time>2024-05-26T10:30:42Z</time>
      </trkpt>
      <trkpt lat="48.79291" lon="2.23563">
        <ele>137.6</ele>
        <time>2024-05-26T10:30:43Z</time>
      </trkpt>
      <trkpt lat="48.79292" lon="2.2356">
        <ele>137.6</ele>
        <time>2024-05-26T10:30:44Z</time>
      </trkpt>
      <trkpt lat="48.79293" lon="2.2356">
        <ele>137.6</ele>
        <time>2024-05-26T10:30:45Z</time>
      </trkpt>
      <trkpt lat="48.79294" lon="2.2356">
        <ele>137.6</ele>
        <time>2024-05-26T10:30:46Z</time>
      </trkpt>
      <trkpt lat="48.79294" lon="2.2356">
        <ele>137.6</ele>
        <time>2024-05-26T10:30:47Z</time>
      </trkpt>
      <trkpt lat="48.79294" lon="2.23561">
        <ele>137.6</ele>
        <time>2024-05-26T10:30:48Z</time>
      </trkpt>
      <trkpt lat="48.79293" lon="2.23561">
        <ele>137.6</ele>
        <time>2024-05-26T10:30:49Z</time>
      </trkpt>
      <trkpt lat="48.79294" lon="2.23562">
        <ele>137.6</ele>
        <time>2024-05-26T10:30:50Z</time>
      </trkpt>
      <trkpt lat="48.79295" lon="2.23562">
        <ele>137.6</ele>
        <time>2024-05-26T10:30:51Z</time>
      </trkpt>
      <trkpt lat="48.79295" lon="2.23563">
        <ele>137.6</ele>
        <time>2024-05-26T10:30:52Z</time>
      </trkpt>
      <trkpt lat="48.79295" lon="2.23563">
        <ele>137.6</ele>
        <time>2024-05-26T10:30:53Z</time>
      </trkpt>
      <trkpt lat="48.79295" lon="2.23563">
        <ele>137.6</ele>
        <time>2024-05-26T10:30:54Z</time>
      </trkpt>
      <trkpt lat="48.79295" lon="2.23563">
        <ele>137.6</ele>
        <time>2024-05-26T10:30:55Z</time>
      </trkpt>
      <trkpt lat="48.79295" lon="2.23564">
        <ele>137.6</ele>
        <time>2024-05-26T10:30:56Z</time>
      </trkpt>
      <trkpt lat="48.79295" lon="2.23564">
        <ele>137.6</ele>
        <time>2024-05-26T10:30:57Z</time>
      </trkpt>
      <trkpt lat="48.79295" lon="2.23564">
        <ele>137.6</ele>
        <time>2024-05-26T10:30:58Z</time>
      </trkpt>
      <trkpt lat="48.79295" lon="2.23564">
        <ele>137.6</ele>
        <time>2024-05-26T10:30:59Z</time>
      </trkpt>
      <trkpt lat="48.79295" lon="2.23564">
        <ele>137.6</ele>
        <time>2024-05-26T10:31:00Z</time>
      </trkpt>
      <trkpt lat="48.79295" lon="2.23564">
        <ele>137.6</ele>
        <time>2024-05-26T10:31:01Z</time>
      </trkpt>
      <trkpt lat="48.79295" lon="2.23564">
        <ele>137.6</ele>
        <time>2024-05-26T10:31:02Z</time>
      </trkpt>
      <trkpt lat="48.79295" lon="2.23564">
        <ele>137.6</ele>
        <time>2024-05-26T10:31:03Z</time>
      </trkpt>
      <trkpt lat="48.79295" lon="2.23564">
        <ele>137.6</ele>
        <time>2024-05-26T10:31:04Z</time>
      </trkpt>
      <trkpt lat="48.79295" lon="2.23564">
        <ele>137.6</ele>
        <time>2024-05-26T10:31:05Z</time>
      </trkpt>
      <trkpt lat="48.79295" lon="2.23564">
        <ele>137.6</ele>
        <time>2024-05-26T10:31:06Z</time>
      </trkpt>
      <trkpt lat="48.79295" lon="2.23564">
        <ele>137.6</ele>
        <time>2024-05-26T10:31:07Z</time>
      </trkpt>
      <trkpt lat="48.79295" lon="2.23564">
        <ele>137.6</ele>
        <time>2024-05-26T10:31:08Z</time>
      </trkpt>
      <trkpt lat="48.79295" lon="2.23564">
        <ele>137.6</ele>
        <time>2024-05-26T10:31:09Z</time>
      </trkpt>
      <trkpt lat="48.79295" lon="2.23564">
        <ele>137.6</ele>
        <time>2024-05-26T10:31:10Z</time>
      </trkpt>
      <trkpt lat="48.79295" lon="2.23564">
        <ele>137.6</ele>
        <time>2024-05-26T10:31:11Z</time>
      </trkpt>
      <trkpt lat="48.79295" lon="2.23564">
        <ele>137.6</ele>
        <time>2024-05-26T10:31:12Z</time>
      </trkpt>
      <trkpt lat="48.79295" lon="2.23565">
        <ele>137.6</ele>
        <time>2024-05-26T10:31:13Z</time>
      </trkpt>
      <trkpt lat="48.79295" lon="2.23564">
        <ele>137.6</ele>
        <time>2024-05-26T10:31:14Z</time>
      </trkpt>
      <trkpt lat="48.79295" lon="2.23564">
        <ele>137.5</ele>
        <time>2024-05-26T10:31:15Z</time>
      </trkpt>
      <trkpt lat="48.79295" lon="2.23564">
        <ele>137.5</ele>
        <time>2024-05-26T10:31:16Z</time>
      </trkpt>
      <trkpt lat="48.79295" lon="2.23564">
        <ele>137.5</ele>
        <time>2024-05-26T10:31:17Z</time>
      </trkpt>
      <trkpt lat="48.79295" lon="2.23564">
        <ele>137.5</ele>
        <time>2024-05-26T10:31:18Z</time>
      </trkpt>
      <trkpt lat="48.79295" lon="2.23564">
        <ele>137.5</ele>
        <time>2024-05-26T10:31:19Z</time>
      </trkpt>
      <trkpt lat="48.79295" lon="2.23564">
        <ele>137.5</ele>
        <time>2024-05-26T10:31:20Z</time>
      </trkpt>
      <trkpt lat="48.79295" lon="2.23564">
        <ele>137.5</ele>
        <time>2024-05-26T10:31:21Z</time>
      </trkpt>
      <trkpt lat="48.79295" lon="2.23564">
        <ele>137.5</ele>
        <time>2024-05-26T10:31:22Z</time>
      </trkpt>
      <trkpt lat="48.79295" lon="2.23565">
        <ele>137.5</ele>
        <time>2024-05-26T10:31:23Z</time>
      </trkpt>
      <trkpt lat="48.79295" lon="2.23565">
        <ele>137.5</ele>
        <time>2024-05-26T10:31:24Z</time>
      </trkpt>
      <trkpt lat="48.79295" lon="2.23565">
        <ele>137.5</ele>
        <time>2024-05-26T10:31:25Z</time>
      </trkpt>
      <trkpt lat="48.79295" lon="2.23565">
        <ele>137.5</ele>
        <time>2024-05-26T10:31:26Z</time>
      </trkpt>
      <trkpt lat="48.79295" lon="2.23565">
        <ele>137.5</ele>
        <time>2024-05-26T10:31:27Z</time>
      </trkpt>
      <trkpt lat="48.79295" lon="2.23565">
        <ele>137.5</ele>
        <time>2024-05-26T10:31:28Z</time>
      </trkpt>
      <trkpt lat="48.79295" lon="2.23565">
        <ele>137.5</ele>
        <time>2024-05-26T10:31:29Z</time>
      </trkpt>
      <trkpt lat="48.79295" lon="2.23564">
        <ele>137.5</ele>
        <time>2024-05-26T10:31:30Z</time>
      </trkpt>
      <trkpt lat="48.79296" lon="2.23564">
        <ele>137.5</ele>
        <time>2024-05-26T10:31:31Z</time>
      </trkpt>
      <trkpt lat="48.79296" lon="2.23564">
        <ele>137.5</ele>
        <time>2024-05-26T10:31:32Z</time>
      </trkpt>
      <trkpt lat="48.79296" lon="2.23564">
        <ele>137.5</ele>
        <time>2024-05-26T10:31:33Z</time>
      </trkpt>
      <trkpt lat="48.79295" lon="2.23564">
        <ele>137.5</ele>
        <time>2024-05-26T10:31:34Z</time>
      </trkpt>
      <trkpt lat="48.79296" lon="2.23564">
        <ele>137.5</ele>
        <time>2024-05-26T10:31:35Z</time>
      </trkpt>
      <trkpt lat="48.79296" lon="2.23564">
        <ele>137.5</ele>
        <time>2024-05-26T10:31:36Z</time>
      </trkpt>
      <trkpt lat="48.79296" lon="2.23564">
        <ele>137.5</ele>
        <time>2024-05-26T10:31:37Z</time>
      </trkpt>
      <trkpt lat="48.79297" lon="2.23564">
        <ele>137.5</ele>
        <time>2024-05-26T10:31:38Z</time>
      </trkpt>
      <trkpt lat="48.79296" lon="2.23564">
        <ele>137.5</ele>
        <time>2024-05-26T10:31:39Z</time>
      </trkpt>
      <trkpt lat="48.79296" lon="2.23563">
        <ele>137.5</ele>
        <time>2024-05-26T10:31:40Z</time>
      </trkpt>
      <trkpt lat="48.79296" lon="2.23564">
        <ele>137.5</ele>
        <time>2024-05-26T10:31:41Z</time>
      </trkpt>
      <trkpt lat="48.79296" lon="2.23564">
        <ele>137.5</ele>
        <time>2024-05-26T10:31:42Z</time>
      </trkpt>
      <trkpt lat="48.79296" lon="2.23564">
        <ele>137.5</ele>
        <time>2024-05-26T10:31:43Z</time>
      </trkpt>
      <trkpt lat="48.79296" lon="2.23564">
        <ele>137.5</ele>
        <time>2024-05-26T10:31:44Z</time>
      </trkpt>
      <trkpt lat="48.79296" lon="2.23564">
        <ele>137.5</ele>
        <time>2024-05-26T10:31:45Z</time>
      </trkpt>
      <trkpt lat="48.79296" lon="2.23564">
        <ele>137.5</ele>
        <time>2024-05-26T10:31:46Z</time>
      </trkpt>
      <trkpt lat="48.79296" lon="2.23564">
        <ele>137.5</ele>
        <time>2024-05-26T10:31:47Z</time>
      </trkpt>
      <trkpt lat="48.79296" lon="2.23564">
        <ele>137.5</ele>
        <time>2024-05-26T10:31:48Z</time>
      </trkpt>
      <trkpt lat="48.79296" lon="2.23564">
        <ele>137.5</ele>
        <time>2024-05-26T10:31:49Z</time>
      </trkpt>
      <trkpt lat="48.79296" lon="2.23564">
        <ele>137.5</ele>
        <time>2024-05-26T10:31:50Z</time>
      </trkpt>
      <trkpt lat="48.79296" lon="2.23564">
        <ele>137.5</ele>
        <time>2024-05-26T10:31:51Z</time>
      </trkpt>
      <trkpt lat="48.79296" lon="2.23564">
        <ele>137.5</ele>
        <time>2024-05-26T10:31:52Z</time>
      </trkpt>
      <trkpt lat="48.79296" lon="2.23564">
        <ele>137.5</ele>
        <time>2024-05-26T10:31:53Z</time>
      </trkpt>
      <trkpt lat="48.79296" lon="2.23564">
        <ele>137.5</ele>
        <time>2024-05-26T10:31:54Z</time>
      </trkpt>
      <trkpt lat="48.79297" lon="2.23564">
        <ele>137.5</ele>
        <time>2024-05-26T10:31:55Z</time>
      </trkpt>
      <trkpt lat="48.79296" lon="2.23564">
        <ele>137.5</ele>
        <time>2024-05-26T10:31:56Z</time>
      </trkpt>
      <trkpt lat="48.79297" lon="2.23564">
        <ele>137.5</ele>
        <time>2024-05-26T10:31:57Z</time>
      </trkpt>
      <trkpt lat="48.79297" lon="2.23564">
        <ele>137.5</ele>
        <time>2024-05-26T10:31:58Z</time>
      </trkpt>
      <trkpt lat="48.79297" lon="2.23564">
        <ele>137.5</ele>
        <time>2024-05-26T10:31:59Z</time>
      </trkpt>
      <trkpt lat="48.79297" lon="2.23564">
        <ele>137.5</ele>
        <time>2024-05-26T10:32:00Z</time>
      </trkpt>
      <trkpt lat="48.79297" lon="2.23564">
        <ele>137.5</ele>
        <time>2024-05-26T10:32:02Z</time>
      </trkpt>
      <trkpt lat="48.79297" lon="2.23564">
        <ele>137.5</ele>
        <time>2024-05-26T10:32:03Z</time>
      </trkpt>
      <trkpt lat="48.79297" lon="2.23564">
        <ele>137.5</ele>
        <time>2024-05-26T10:32:04Z</time>
      </trkpt>
      <trkpt lat="48.79297" lon="2.23564">
        <ele>137.5</ele>
        <time>2024-05-26T10:32:05Z</time>
      </trkpt>
      <trkpt lat="48.79297" lon="2.23564">
        <ele>137.5</ele>
        <time>2024-05-26T10:32:06Z</time>
      </trkpt>
      <trkpt lat="48.79297" lon="2.23564">
        <ele>137.5</ele>
        <time>2024-05-26T10:32:07Z</time>
      </trkpt>
      <trkpt lat="48.79298" lon="2.23564">
        <ele>137.5</ele>
        <time>2024-05-26T10:32:08Z</time>
      </trkpt>
      <trkpt lat="48.79297" lon="2.23564">
        <ele>137.5</ele>
        <time>2024-05-26T10:32:09Z</time>
      </trkpt>
      <trkpt lat="48.79298" lon="2.23562">
        <ele>137.5</ele>
        <time>2024-05-26T10:32:10Z</time>
      </trkpt>
      <trkpt lat="48.79297" lon="2.23561">
        <ele>137.5</ele>
        <time>2024-05-26T10:32:11Z</time>
      </trkpt>
      <trkpt lat="48.79297" lon="2.23562">
        <ele>137.5</ele>
        <time>2024-05-26T10:32:12Z</time>
      </trkpt>
      <trkpt lat="48.79297" lon="2.23563">
        <ele>137.5</ele>
        <time>2024-05-26T10:32:13Z</time>
      </trkpt>
      <trkpt lat="48.79297" lon="2.23563">
        <ele>137.5</ele>
        <time>2024-05-26T10:32:14Z</time>
      </trkpt>
      <trkpt lat="48.79297" lon="2.23564">
        <ele>137.5</ele>
        <time>2024-05-26T10:32:15Z</time>
      </trkpt>
      <trkpt lat="48.79297" lon="2.23564">
        <ele>137.5</ele>
        <time>2024-05-26T10:32:16Z</time>
      </trkpt>
      <trkpt lat="48.79297" lon="2.23564">
        <ele>137.5</ele>
        <time>2024-05-26T10:32:17Z</time>
      </trkpt>
      <trkpt lat="48.79297" lon="2.23564">
        <ele>137.5</ele>
        <time>2024-05-26T10:32:18Z</time>
      </trkpt>
      <trkpt lat="48.79297" lon="2.23564">
        <ele>137.5</ele>
        <time>2024-05-26T10:32:19Z</time>
      </trkpt>
      <trkpt lat="48.79297" lon="2.23564">
        <ele>137.5</ele>
        <time>2024-05-26T10:32:20Z</time>
      </trkpt>
      <trkpt lat="48.79297" lon="2.23564">
        <ele>137.5</ele>
        <time>2024-05-26T10:32:21Z</time>
      </trkpt>
      <trkpt lat="48.79297" lon="2.23564">
        <ele>137.5</ele>
        <time>2024-05-26T10:32:22Z</time>
      </trkpt>
      <trkpt lat="48.79297" lon="2.23564">
        <ele>137.5</ele>
        <time>2024-05-26T10:32:23Z</time>
      </trkpt>
      <trkpt lat="48.79297" lon="2.23563">
        <ele>137.5</ele>
        <time>2024-05-26T10:32:24Z</time>
      </trkpt>
      <trkpt lat="48.79297" lon="2.23563">
        <ele>137.5</ele>
        <time>2024-05-26T10:32:25Z</time>
      </trkpt>
      <trkpt lat="48.79297" lon="2.23563">
        <ele>137.5</ele>
        <time>2024-05-26T10:32:26Z</time>
      </trkpt>
      <trkpt lat="48.79297" lon="2.23563">
        <ele>137.5</ele>
        <time>2024-05-26T10:32:27Z</time>
      </trkpt>
      <trkpt lat="48.79297" lon="2.23563">
        <ele>137.5</ele>
        <time>2024-05-26T10:32:28Z</time>
      </trkpt>
      <trkpt lat="48.79297" lon="2.23563">
        <ele>137.5</ele>
        <time>2024-05-26T10:32:29Z</time>
      </trkpt>
      <trkpt lat="48.79297" lon="2.23563">
        <ele>137.5</ele>
        <time>2024-05-26T10:32:30Z</time>
      </trkpt>
      <trkpt lat="48.79297" lon="2.23563">
        <ele>137.5</ele>
        <time>2024-05-26T10:32:31Z</time>
      </trkpt>
      <trkpt lat="48.79297" lon="2.23563">
        <ele>137.5</ele>
        <time>2024-05-26T10:32:32Z</time>
      </trkpt>
      <trkpt lat="48.79297" lon="2.23563">
        <ele>137.5</ele>
        <time>2024-05-26T10:32:33Z</time>
      </trkpt>
      <trkpt lat="48.79297" lon="2.23563">
        <ele>137.5</ele>
        <time>2024-05-26T10:32:34Z</time>
      </trkpt>
      <trkpt lat="48.79297" lon="2.23563">
        <ele>137.5</ele>
        <time>2024-05-26T10:32:35Z</time>
      </trkpt>
      <trkpt lat="48.79297" lon="2.23563">
        <ele>137.5</ele>
        <time>2024-05-26T10:32:36Z</time>
      </trkpt>
      <trkpt lat="48.79297" lon="2.23563">
        <ele>137.5</ele>
        <time>2024-05-26T10:32:37Z</time>
      </trkpt>
      <trkpt lat="48.79297" lon="2.23563">
        <ele>137.5</ele>
        <time>2024-05-26T10:32:38Z</time>
      </trkpt>
      <trkpt lat="48.79297" lon="2.23563">
        <ele>137.5</ele>
        <time>2024-05-26T10:32:39Z</time>
      </trkpt>
      <trkpt lat="48.79297" lon="2.23563">
        <ele>137.5</ele>
        <time>2024-05-26T10:32:40Z</time>
      </trkpt>
      <trkpt lat="48.79297" lon="2.23563">
        <ele>137.5</ele>
        <time>2024-05-26T10:32:41Z</time>
      </trkpt>
      <trkpt lat="48.79298" lon="2.23563">
        <ele>137.5</ele>
        <time>2024-05-26T10:32:42Z</time>
      </trkpt>
      <trkpt lat="48.79298" lon="2.23563">
        <ele>137.5</ele>
        <time>2024-05-26T10:32:43Z</time>
      </trkpt>
      <trkpt lat="48.79297" lon="2.23563">
        <ele>137.5</ele>
        <time>2024-05-26T10:32:44Z</time>
      </trkpt>
      <trkpt lat="48.79297" lon="2.23563">
        <ele>137.4</ele>
        <time>2024-05-26T10:32:45Z</time>
      </trkpt>
      <trkpt lat="48.79297" lon="2.23563">
        <ele>137.4</ele>
        <time>2024-05-26T10:32:46Z</time>
      </trkpt>
      <trkpt lat="48.79297" lon="2.23563">
        <ele>137.4</ele>
        <time>2024-05-26T10:32:47Z</time>
      </trkpt>
      <trkpt lat="48.79297" lon="2.23563">
        <ele>137.4</ele>
        <time>2024-05-26T10:32:48Z</time>
      </trkpt>
      <trkpt lat="48.79297" lon="2.23563">
        <ele>137.4</ele>
        <time>2024-05-26T10:32:49Z</time>
      </trkpt>
      <trkpt lat="48.79297" lon="2.23563">
        <ele>137.4</ele>
        <time>2024-05-26T10:32:50Z</time>
      </trkpt>
      <trkpt lat="48.79297" lon="2.23563">
        <ele>137.4</ele>
        <time>2024-05-26T10:32:51Z</time>
      </trkpt>
      <trkpt lat="48.79297" lon="2.23563">
        <ele>137.4</ele>
        <time>2024-05-26T10:32:52Z</time>
      </trkpt>
      <trkpt lat="48.79297" lon="2.23563">
        <ele>137.4</ele>
        <time>2024-05-26T10:32:53Z</time>
      </trkpt>
      <trkpt lat="48.79297" lon="2.23563">
        <ele>137.4</ele>
        <time>2024-05-26T10:32:54Z</time>
      </trkpt>
      <trkpt lat="48.79297" lon="2.23563">
        <ele>137.4</ele>
        <time>2024-05-26T10:32:55Z</time>
      </trkpt>
      <trkpt lat="48.79297" lon="2.23563">
        <ele>137.4</ele>
        <time>2024-05-26T10:32:56Z</time>
      </trkpt>
      <trkpt lat="48.79297" lon="2.23563">
        <ele>137.4</ele>
        <time>2024-05-26T10:32:57Z</time>
      </trkpt>
      <trkpt lat="48.79297" lon="2.23563">
        <ele>137.4</ele>
        <time>2024-05-26T10:32:58Z</time>
      </trkpt>
      <trkpt lat="48.79297" lon="2.23563">
        <ele>137.4</ele>
        <time>2024-05-26T10:32:59Z</time>
      </trkpt>
      <trkpt lat="48.79297" lon="2.23563">
        <ele>137.4</ele>
        <time>2024-05-26T10:33:00Z</time>
      </trkpt>
      <trkpt lat="48.79297" lon="2.23563">
        <ele>137.4</ele>
        <time>2024-05-26T10:33:01Z</time>
      </trkpt>
      <trkpt lat="48.79297" lon="2.23563">
        <ele>137.4</ele>
        <time>2024-05-26T10:33:02Z</time>
      </trkpt>
      <trkpt lat="48.79297" lon="2.23563">
        <ele>137.4</ele>
        <time>2024-05-26T10:33:03Z</time>
      </trkpt>
      <trkpt lat="48.79297" lon="2.23563">
        <ele>137.4</ele>
        <time>2024-05-26T10:33:04Z</time>
      </trkpt>
      <trkpt lat="48.79297" lon="2.23563">
        <ele>137.4</ele>
        <time>2024-05-26T10:33:05Z</time>
      </trkpt>
      <trkpt lat="48.79297" lon="2.23563">
        <ele>137.4</ele>
        <time>2024-05-26T10:33:06Z</time>
      </trkpt>
      <trkpt lat="48.79297" lon="2.23563">
        <ele>137.4</ele>
        <time>2024-05-26T10:33:07Z</time>
      </trkpt>
      <trkpt lat="48.79296" lon="2.23562">
        <ele>137.4</ele>
        <time>2024-05-26T10:33:08Z</time>
      </trkpt>
      <trkpt lat="48.79296" lon="2.23562">
        <ele>137.4</ele>
        <time>2024-05-26T10:33:09Z</time>
      </trkpt>
      <trkpt lat="48.79296" lon="2.23562">
        <ele>137.4</ele>
        <time>2024-05-26T10:33:10Z</time>
      </trkpt>
      <trkpt lat="48.79296" lon="2.23562">
        <ele>137.4</ele>
        <time>2024-05-26T10:33:11Z</time>
      </trkpt>
      <trkpt lat="48.79296" lon="2.23562">
        <ele>137.4</ele>
        <time>2024-05-26T10:33:12Z</time>
      </trkpt>
      <trkpt lat="48.79296" lon="2.23562">
        <ele>137.4</ele>
        <time>2024-05-26T10:33:13Z</time>
      </trkpt>
      <trkpt lat="48.79296" lon="2.23562">
        <ele>137.4</ele>
        <time>2024-05-26T10:33:14Z</time>
      </trkpt>
      <trkpt lat="48.79296" lon="2.23562">
        <ele>137.4</ele>
        <time>2024-05-26T10:33:15Z</time>
      </trkpt>
      <trkpt lat="48.79296" lon="2.23561">
        <ele>137.4</ele>
        <time>2024-05-26T10:33:16Z</time>
      </trkpt>
      <trkpt lat="48.79296" lon="2.23561">
        <ele>137.4</ele>
        <time>2024-05-26T10:33:17Z</time>
      </trkpt>
      <trkpt lat="48.79296" lon="2.23562">
        <ele>137.4</ele>
        <time>2024-05-26T10:33:18Z</time>
      </trkpt>
      <trkpt lat="48.79296" lon="2.23563">
        <ele>137.4</ele>
        <time>2024-05-26T10:33:19Z</time>
      </trkpt>
      <trkpt lat="48.79296" lon="2.23561">
        <ele>137.4</ele>
        <time>2024-05-26T10:33:20Z</time>
      </trkpt>
      <trkpt lat="48.79297" lon="2.23561">
        <ele>137.4</ele>
        <time>2024-05-26T10:33:21Z</time>
      </trkpt>
      <trkpt lat="48.79297" lon="2.2356">
        <ele>137.4</ele>
        <time>2024-05-26T10:33:22Z</time>
      </trkpt>
      <trkpt lat="48.79297" lon="2.23559">
        <ele>137.4</ele>
        <time>2024-05-26T10:33:23Z</time>
      </trkpt>
      <trkpt lat="48.79297" lon="2.23558">
        <ele>137.4</ele>
        <time>2024-05-26T10:33:24Z</time>
      </trkpt>
      <trkpt lat="48.79297" lon="2.23557">
        <ele>137.4</ele>
        <time>2024-05-26T10:33:25Z</time>
      </trkpt>
      <trkpt lat="48.79297" lon="2.23555">
        <ele>137.4</ele>
        <time>2024-05-26T10:33:26Z</time>
      </trkpt>
      <trkpt lat="48.79297" lon="2.23554">
        <ele>137.4</ele>
        <time>2024-05-26T10:33:27Z</time>
      </trkpt>
      <trkpt lat="48.79297" lon="2.23552">
        <ele>137.4</ele>
        <time>2024-05-26T10:33:28Z</time>
      </trkpt>
      <trkpt lat="48.79297" lon="2.23551">
        <ele>137.4</ele>
        <time>2024-05-26T10:33:29Z</time>
      </trkpt>
      <trkpt lat="48.79298" lon="2.23549">
        <ele>137.4</ele>
        <time>2024-05-26T10:33:30Z</time>
      </trkpt>
      <trkpt lat="48.79298" lon="2.23548">
        <ele>137.4</ele>
        <time>2024-05-26T10:33:31Z</time>
      </trkpt>
      <trkpt lat="48.79299" lon="2.23548">
        <ele>137.4</ele>
        <time>2024-05-26T10:33:32Z</time>
      </trkpt>
      <trkpt lat="48.79299" lon="2.23547">
        <ele>137.5</ele>
        <time>2024-05-26T10:33:33Z</time>
      </trkpt>
      <trkpt lat="48.79299" lon="2.23546">
        <ele>137.5</ele>
        <time>2024-05-26T10:33:34Z</time>
      </trkpt>
      <trkpt lat="48.79299" lon="2.23546">
        <ele>137.5</ele>
        <time>2024-05-26T10:33:35Z</time>
      </trkpt>
      <trkpt lat="48.79299" lon="2.23545">
        <ele>137.5</ele>
        <time>2024-05-26T10:33:36Z</time>
      </trkpt>
      <trkpt lat="48.793" lon="2.23545">
        <ele>137.5</ele>
        <time>2024-05-26T10:33:37Z</time>
      </trkpt>
      <trkpt lat="48.79301" lon="2.23544">
        <ele>137.5</ele>
        <time>2024-05-26T10:33:38Z</time>
      </trkpt>
      <trkpt lat="48.79302" lon="2.23543">
        <ele>137.5</ele>
        <time>2024-05-26T10:33:39Z</time>
      </trkpt>
      <trkpt lat="48.79302" lon="2.23543">
        <ele>137.5</ele>
        <time>2024-05-26T10:33:40Z</time>
      </trkpt>
      <trkpt lat="48.79303" lon="2.23543">
        <ele>137.5</ele>
        <time>2024-05-26T10:33:41Z</time>
      </trkpt>
      <trkpt lat="48.79304" lon="2.23542">
        <ele>137.5</ele>
        <time>2024-05-26T10:33:42Z</time>
      </trkpt>
      <trkpt lat="48.79305" lon="2.23542">
        <ele>137.5</ele>
        <time>2024-05-26T10:33:43Z</time>
      </trkpt>
      <trkpt lat="48.79305" lon="2.23542">
        <ele>137.5</ele>
        <time>2024-05-26T10:33:44Z</time>
      </trkpt>
      <trkpt lat="48.79306" lon="2.23541">
        <ele>137.5</ele>
        <time>2024-05-26T10:33:45Z</time>
      </trkpt>
      <trkpt lat="48.79307" lon="2.2354">
        <ele>137.4</ele>
        <time>2024-05-26T10:33:46Z</time>
      </trkpt>
      <trkpt lat="48.79307" lon="2.23539">
        <ele>137.4</ele>
        <time>2024-05-26T10:33:47Z</time>
      </trkpt>
      <trkpt lat="48.79308" lon="2.23538">
        <ele>137.4</ele>
        <time>2024-05-26T10:33:48Z</time>
      </trkpt>
      <trkpt lat="48.79308" lon="2.23537">
        <ele>137.3</ele>
        <time>2024-05-26T10:33:49Z</time>
      </trkpt>
      <trkpt lat="48.79308" lon="2.23536">
        <ele>137.3</ele>
        <time>2024-05-26T10:33:50Z</time>
      </trkpt>
      <trkpt lat="48.79309" lon="2.23535">
        <ele>137.2</ele>
        <time>2024-05-26T10:33:51Z</time>
      </trkpt>
      <trkpt lat="48.79309" lon="2.23534">
        <ele>137.2</ele>
        <time>2024-05-26T10:33:52Z</time>
      </trkpt>
      <trkpt lat="48.7931" lon="2.23533">
        <ele>137.2</ele>
        <time>2024-05-26T10:33:53Z</time>
      </trkpt>
      <trkpt lat="48.79311" lon="2.23533">
        <ele>137.1</ele>
        <time>2024-05-26T10:33:54Z</time>
      </trkpt>
      <trkpt lat="48.79311" lon="2.23532">
        <ele>137.1</ele>
        <time>2024-05-26T10:33:55Z</time>
      </trkpt>
      <trkpt lat="48.79312" lon="2.23531">
        <ele>137</ele>
        <time>2024-05-26T10:33:56Z</time>
      </trkpt>
      <trkpt lat="48.79313" lon="2.2353">
        <ele>136.9</ele>
        <time>2024-05-26T10:33:57Z</time>
      </trkpt>
      <trkpt lat="48.79314" lon="2.2353">
        <ele>136.9</ele>
        <time>2024-05-26T10:33:58Z</time>
      </trkpt>
      <trkpt lat="48.79315" lon="2.23529">
        <ele>136.8</ele>
        <time>2024-05-26T10:33:59Z</time>
      </trkpt>
      <trkpt lat="48.79318" lon="2.23526">
        <ele>136.6</ele>
        <time>2024-05-26T10:34:00Z</time>
      </trkpt>
      <trkpt lat="48.79319" lon="2.23524">
        <ele>136.5</ele>
        <time>2024-05-26T10:34:01Z</time>
      </trkpt>
      <trkpt lat="48.7932" lon="2.23523">
        <ele>136.4</ele>
        <time>2024-05-26T10:34:02Z</time>
      </trkpt>
      <trkpt lat="48.79321" lon="2.23522">
        <ele>136.4</ele>
        <time>2024-05-26T10:34:03Z</time>
      </trkpt>
      <trkpt lat="48.79323" lon="2.23521">
        <ele>136.3</ele>
        <time>2024-05-26T10:34:04Z</time>
      </trkpt>
      <trkpt lat="48.79324" lon="2.23519">
        <ele>136.1</ele>
        <time>2024-05-26T10:34:05Z</time>
      </trkpt>
      <trkpt lat="48.79326" lon="2.23518">
        <ele>136</ele>
        <time>2024-05-26T10:34:06Z</time>
      </trkpt>
      <trkpt lat="48.79326" lon="2.23517">
        <ele>136</ele>
        <time>2024-05-26T10:34:08Z</time>
      </trkpt>
      <trkpt lat="48.79327" lon="2.23516">
        <ele>135.9</ele>
        <time>2024-05-26T10:34:09Z</time>
      </trkpt>
      <trkpt lat="48.79328" lon="2.23515">
        <ele>135.8</ele>
        <time>2024-05-26T10:34:10Z</time>
      </trkpt>
      <trkpt lat="48.7933" lon="2.23515">
        <ele>135.7</ele>
        <time>2024-05-26T10:34:11Z</time>
      </trkpt>
      <trkpt lat="48.79332" lon="2.23514">
        <ele>135.6</ele>
        <time>2024-05-26T10:34:12Z</time>
      </trkpt>
      <trkpt lat="48.79333" lon="2.23513">
        <ele>135.5</ele>
        <time>2024-05-26T10:34:13Z</time>
      </trkpt>
      <trkpt lat="48.79334" lon="2.23512">
        <ele>135.5</ele>
        <time>2024-05-26T10:34:14Z</time>
      </trkpt>
      <trkpt lat="48.79335" lon="2.23512">
        <ele>135.4</ele>
        <time>2024-05-26T10:34:15Z</time>
      </trkpt>
      <trkpt lat="48.79335" lon="2.23512">
        <ele>135.3</ele>
        <time>2024-05-26T10:34:16Z</time>
      </trkpt>
      <trkpt lat="48.79337" lon="2.23511">
        <ele>135.3</ele>
        <time>2024-05-26T10:34:17Z</time>
      </trkpt>
      <trkpt lat="48.79338" lon="2.23511">
        <ele>135.2</ele>
        <time>2024-05-26T10:34:18Z</time>
      </trkpt>
      <trkpt lat="48.79339" lon="2.2351">
        <ele>135.1</ele>
        <time>2024-05-26T10:34:19Z</time>
      </trkpt>
      <trkpt lat="48.79339" lon="2.2351">
        <ele>135.1</ele>
        <time>2024-05-26T10:34:20Z</time>
      </trkpt>
      <trkpt lat="48.79339" lon="2.2351">
        <ele>135.1</ele>
        <time>2024-05-26T10:34:21Z</time>
      </trkpt>
      <trkpt lat="48.79341" lon="2.23508">
        <ele>134.9</ele>
        <time>2024-05-26T10:34:22Z</time>
      </trkpt>
      <trkpt lat="48.79342" lon="2.23507">
        <ele>134.8</ele>
        <time>2024-05-26T10:34:23Z</time>
      </trkpt>
      <trkpt lat="48.79343" lon="2.23506">
        <ele>134.8</ele>
        <time>2024-05-26T10:34:24Z</time>
      </trkpt>
      <trkpt lat="48.79344" lon="2.23506">
        <ele>134.7</ele>
        <time>2024-05-26T10:34:25Z</time>
      </trkpt>
      <trkpt lat="48.79345" lon="2.23505">
        <ele>134.7</ele>
        <time>2024-05-26T10:34:26Z</time>
      </trkpt>
      <trkpt lat="48.79346" lon="2.23503">
        <ele>134.6</ele>
        <time>2024-05-26T10:34:27Z</time>
      </trkpt>
      <trkpt lat="48.79347" lon="2.23502">
        <ele>134.5</ele>
        <time>2024-05-26T10:34:28Z</time>
      </trkpt>
      <trkpt lat="48.79348" lon="2.23502">
        <ele>134.4</ele>
        <time>2024-05-26T10:34:29Z</time>
      </trkpt>
      <trkpt lat="48.79349" lon="2.23501">
        <ele>134.4</ele>
        <time>2024-05-26T10:34:30Z</time>
      </trkpt>
      <trkpt lat="48.7935" lon="2.23501">
        <ele>134.3</ele>
        <time>2024-05-26T10:34:31Z</time>
      </trkpt>
      <trkpt lat="48.79351" lon="2.23499">
        <ele>134.2</ele>
        <time>2024-05-26T10:34:32Z</time>
      </trkpt>
      <trkpt lat="48.79352" lon="2.23498">
        <ele>134.1</ele>
        <time>2024-05-26T10:34:33Z</time>
      </trkpt>
      <trkpt lat="48.79353" lon="2.23496">
        <ele>134</ele>
        <time>2024-05-26T10:34:34Z</time>
      </trkpt>
      <trkpt lat="48.79354" lon="2.23496">
        <ele>133.9</ele>
        <time>2024-05-26T10:34:35Z</time>
      </trkpt>
      <trkpt lat="48.79355" lon="2.23495">
        <ele>133.9</ele>
        <time>2024-05-26T10:34:36Z</time>
      </trkpt>
      <trkpt lat="48.79356" lon="2.23494">
        <ele>133.7</ele>
        <time>2024-05-26T10:34:37Z</time>
      </trkpt>
      <trkpt lat="48.79356" lon="2.23493">
        <ele>133.7</ele>
        <time>2024-05-26T10:34:38Z</time>
      </trkpt>
      <trkpt lat="48.79357" lon="2.23492">
        <ele>133.6</ele>
        <time>2024-05-26T10:34:39Z</time>
      </trkpt>
      <trkpt lat="48.79358" lon="2.23491">
        <ele>133.5</ele>
        <time>2024-05-26T10:34:40Z</time>
      </trkpt>
      <trkpt lat="48.79359" lon="2.23491">
        <ele>133.5</ele>
        <time>2024-05-26T10:34:41Z</time>
      </trkpt>
      <trkpt lat="48.7936" lon="2.23491">
        <ele>133.3</ele>
        <time>2024-05-26T10:34:42Z</time>
      </trkpt>
      <trkpt lat="48.79361" lon="2.23489">
        <ele>133.2</ele>
        <time>2024-05-26T10:34:43Z</time>
      </trkpt>
      <trkpt lat="48.79362" lon="2.23488">
        <ele>133.1</ele>
        <time>2024-05-26T10:34:44Z</time>
      </trkpt>
      <trkpt lat="48.79362" lon="2.23488">
        <ele>133</ele>
        <time>2024-05-26T10:34:45Z</time>
      </trkpt>
      <trkpt lat="48.79362" lon="2.23486">
        <ele>132.9</ele>
        <time>2024-05-26T10:34:46Z</time>
      </trkpt>
      <trkpt lat="48.79362" lon="2.23485">
        <ele>132.8</ele>
        <time>2024-05-26T10:34:47Z</time>
      </trkpt>
      <trkpt lat="48.79362" lon="2.23482">
        <ele>132.6</ele>
        <time>2024-05-26T10:34:48Z</time>
      </trkpt>
      <trkpt lat="48.79362" lon="2.23483">
        <ele>132.5</ele>
        <time>2024-05-26T10:34:49Z</time>
      </trkpt>
      <trkpt lat="48.79361" lon="2.23482">
        <ele>132.5</ele>
        <time>2024-05-26T10:34:50Z</time>
      </trkpt>
      <trkpt lat="48.79361" lon="2.23481">
        <ele>132.4</ele>
        <time>2024-05-26T10:34:51Z</time>
      </trkpt>
      <trkpt lat="48.79361" lon="2.23481">
        <ele>132.3</ele>
        <time>2024-05-26T10:34:52Z</time>
      </trkpt>
      <trkpt lat="48.79359" lon="2.2348">
        <ele>132.2</ele>
        <time>2024-05-26T10:34:53Z</time>
      </trkpt>
      <trkpt lat="48.79359" lon="2.2348">
        <ele>132.1</ele>
        <time>2024-05-26T10:34:54Z</time>
      </trkpt>
      <trkpt lat="48.79358" lon="2.2348">
        <ele>132</ele>
        <time>2024-05-26T10:34:55Z</time>
      </trkpt>
      <trkpt lat="48.79358" lon="2.23479">
        <ele>132</ele>
        <time>2024-05-26T10:34:56Z</time>
      </trkpt>
      <trkpt lat="48.79358" lon="2.23479">
        <ele>132</ele>
        <time>2024-05-26T10:34:57Z</time>
      </trkpt>
      <trkpt lat="48.79357" lon="2.23478">
        <ele>131.8</ele>
        <time>2024-05-26T10:34:58Z</time>
      </trkpt>
      <trkpt lat="48.79357" lon="2.23478">
        <ele>131.7</ele>
        <time>2024-05-26T10:34:59Z</time>
      </trkpt>
      <trkpt lat="48.79355" lon="2.23478">
        <ele>131.4</ele>
        <time>2024-05-26T10:35:00Z</time>
      </trkpt>
      <trkpt lat="48.79354" lon="2.23478">
        <ele>131.3</ele>
        <time>2024-05-26T10:35:01Z</time>
      </trkpt>
      <trkpt lat="48.79353" lon="2.23478">
        <ele>131.2</ele>
        <time>2024-05-26T10:35:02Z</time>
      </trkpt>
      <trkpt lat="48.79352" lon="2.23477">
        <ele>130.9</ele>
        <time>2024-05-26T10:35:03Z</time>
      </trkpt>
      <trkpt lat="48.7935" lon="2.23477">
        <ele>130.7</ele>
        <time>2024-05-26T10:35:04Z</time>
      </trkpt>
      <trkpt lat="48.79349" lon="2.23476">
        <ele>130.6</ele>
        <time>2024-05-26T10:35:05Z</time>
      </trkpt>
      <trkpt lat="48.79347" lon="2.23476">
        <ele>130.4</ele>
        <time>2024-05-26T10:35:06Z</time>
      </trkpt>
      <trkpt lat="48.79347" lon="2.23476">
        <ele>130.3</ele>
        <time>2024-05-26T10:35:07Z</time>
      </trkpt>
      <trkpt lat="48.79347" lon="2.23475">
        <ele>130.2</ele>
        <time>2024-05-26T10:35:08Z</time>
      </trkpt>
      <trkpt lat="48.79345" lon="2.23475">
        <ele>130</ele>
        <time>2024-05-26T10:35:09Z</time>
      </trkpt>
      <trkpt lat="48.79344" lon="2.23475">
        <ele>129.8</ele>
        <time>2024-05-26T10:35:10Z</time>
      </trkpt>
      <trkpt lat="48.79341" lon="2.23476">
        <ele>129.4</ele>
        <time>2024-05-26T10:35:11Z</time>
      </trkpt>
      <trkpt lat="48.7934" lon="2.23476">
        <ele>129.2</ele>
        <time>2024-05-26T10:35:12Z</time>
      </trkpt>
      <trkpt lat="48.79337" lon="2.23475">
        <ele>128.9</ele>
        <time>2024-05-26T10:35:13Z</time>
      </trkpt>
      <trkpt lat="48.79336" lon="2.23475">
        <ele>128.8</ele>
        <time>2024-05-26T10:35:14Z</time>
      </trkpt>
      <trkpt lat="48.79334" lon="2.23474">
        <ele>128.6</ele>
        <time>2024-05-26T10:35:15Z</time>
      </trkpt>
      <trkpt lat="48.79333" lon="2.23474">
        <ele>128.4</ele>
        <time>2024-05-26T10:35:16Z</time>
      </trkpt>
      <trkpt lat="48.79331" lon="2.23474">
        <ele>128.2</ele>
        <time>2024-05-26T10:35:17Z</time>
      </trkpt>
      <trkpt lat="48.7933" lon="2.23474">
        <ele>128.1</ele>
        <time>2024-05-26T10:35:18Z</time>
      </trkpt>
      <trkpt lat="48.79329" lon="2.23473">
        <ele>127.9</ele>
        <time>2024-05-26T10:35:19Z</time>
      </trkpt>
      <trkpt lat="48.79327" lon="2.23473">
        <ele>127.7</ele>
        <time>2024-05-26T10:35:20Z</time>
      </trkpt>
      <trkpt lat="48.79326" lon="2.23473">
        <ele>127.5</ele>
        <time>2024-05-26T10:35:21Z</time>
      </trkpt>
      <trkpt lat="48.79324" lon="2.23472">
        <ele>127.4</ele>
        <time>2024-05-26T10:35:22Z</time>
      </trkpt>
      <trkpt lat="48.79322" lon="2.23472">
        <ele>127.2</ele>
        <time>2024-05-26T10:35:23Z</time>
      </trkpt>
      <trkpt lat="48.79321" lon="2.23471">
        <ele>127.1</ele>
        <time>2024-05-26T10:35:24Z</time>
      </trkpt>
      <trkpt lat="48.79319" lon="2.2347">
        <ele>126.8</ele>
        <time>2024-05-26T10:35:25Z</time>
      </trkpt>
      <trkpt lat="48.79317" lon="2.2347">
        <ele>126.7</ele>
        <time>2024-05-26T10:35:26Z</time>
      </trkpt>
      <trkpt lat="48.79315" lon="2.23469">
        <ele>126.4</ele>
        <time>2024-05-26T10:35:27Z</time>
      </trkpt>
      <trkpt lat="48.79314" lon="2.23468">
        <ele>126.3</ele>
        <time>2024-05-26T10:35:28Z</time>
      </trkpt>
      <trkpt lat="48.79313" lon="2.23467">
        <ele>126.1</ele>
        <time>2024-05-26T10:35:29Z</time>
      </trkpt>
      <trkpt lat="48.79311" lon="2.23467">
        <ele>126</ele>
        <time>2024-05-26T10:35:30Z</time>
      </trkpt>
      <trkpt lat="48.79309" lon="2.23468">
        <ele>125.8</ele>
        <time>2024-05-26T10:35:31Z</time>
      </trkpt>
      <trkpt lat="48.79308" lon="2.23468">
        <ele>125.6</ele>
        <time>2024-05-26T10:35:32Z</time>
      </trkpt>
      <trkpt lat="48.79306" lon="2.23469">
        <ele>125.5</ele>
        <time>2024-05-26T10:35:33Z</time>
      </trkpt>
      <trkpt lat="48.79304" lon="2.2347">
        <ele>125.3</ele>
        <time>2024-05-26T10:35:34Z</time>
      </trkpt>
      <trkpt lat="48.79304" lon="2.23468">
        <ele>125.2</ele>
        <time>2024-05-26T10:35:35Z</time>
      </trkpt>
      <trkpt lat="48.79303" lon="2.23467">
        <ele>125.1</ele>
        <time>2024-05-26T10:35:36Z</time>
      </trkpt>
      <trkpt lat="48.79302" lon="2.23466">
        <ele>125</ele>
        <time>2024-05-26T10:35:37Z</time>
      </trkpt>
      <trkpt lat="48.793" lon="2.23465">
        <ele>124.8</ele>
        <time>2024-05-26T10:35:38Z</time>
      </trkpt>
      <trkpt lat="48.79299" lon="2.23465">
        <ele>124.7</ele>
        <time>2024-05-26T10:35:39Z</time>
      </trkpt>
      <trkpt lat="48.79298" lon="2.23464">
        <ele>124.6</ele>
        <time>2024-05-26T10:35:40Z</time>
      </trkpt>
      <trkpt lat="48.79296" lon="2.23463">
        <ele>124.4</ele>
        <time>2024-05-26T10:35:41Z</time>
      </trkpt>
      <trkpt lat="48.79295" lon="2.23462">
        <ele>124.3</ele>
        <time>2024-05-26T10:35:42Z</time>
      </trkpt>
      <trkpt lat="48.79294" lon="2.2346">
        <ele>124.2</ele>
        <time>2024-05-26T10:35:43Z</time>
      </trkpt>
      <trkpt lat="48.79293" lon="2.2346">
        <ele>124.1</ele>
        <time>2024-05-26T10:35:44Z</time>
      </trkpt>
      <trkpt lat="48.79292" lon="2.23459">
        <ele>124.1</ele>
        <time>2024-05-26T10:35:45Z</time>
      </trkpt>
      <trkpt lat="48.79291" lon="2.23458">
        <ele>124</ele>
        <time>2024-05-26T10:35:46Z</time>
      </trkpt>
      <trkpt lat="48.7929" lon="2.23457">
        <ele>123.9</ele>
        <time>2024-05-26T10:35:47Z</time>
      </trkpt>
      <trkpt lat="48.79289" lon="2.23457">
        <ele>123.9</ele>
        <time>2024-05-26T10:35:48Z</time>
      </trkpt>
      <trkpt lat="48.79289" lon="2.23456">
        <ele>123.8</ele>
        <time>2024-05-26T10:35:49Z</time>
      </trkpt>
      <trkpt lat="48.79288" lon="2.23456">
        <ele>123.8</ele>
        <time>2024-05-26T10:35:50Z</time>
      </trkpt>
      <trkpt lat="48.79288" lon="2.23454">
        <ele>123.7</ele>
        <time>2024-05-26T10:35:51Z</time>
      </trkpt>
      <trkpt lat="48.79288" lon="2.23453">
        <ele>123.7</ele>
        <time>2024-05-26T10:35:52Z</time>
      </trkpt>
      <trkpt lat="48.79288" lon="2.23451">
        <ele>123.6</ele>
        <time>2024-05-26T10:35:53Z</time>
      </trkpt>
      <trkpt lat="48.79288" lon="2.23449">
        <ele>123.5</ele>
        <time>2024-05-26T10:35:54Z</time>
      </trkpt>
      <trkpt lat="48.79288" lon="2.23448">
        <ele>123.5</ele>
        <time>2024-05-26T10:35:55Z</time>
      </trkpt>
      <trkpt lat="48.79288" lon="2.23447">
        <ele>123.4</ele>
        <time>2024-05-26T10:35:56Z</time>
      </trkpt>
      <trkpt lat="48.79287" lon="2.23445">
        <ele>123.4</ele>
        <time>2024-05-26T10:35:57Z</time>
      </trkpt>
      <trkpt lat="48.79287" lon="2.23443">
        <ele>123.3</ele>
        <time>2024-05-26T10:35:58Z</time>
      </trkpt>
      <trkpt lat="48.79287" lon="2.23441">
        <ele>123.2</ele>
        <time>2024-05-26T10:35:59Z</time>
      </trkpt>
      <trkpt lat="48.79287" lon="2.2344">
        <ele>123.2</ele>
        <time>2024-05-26T10:36:00Z</time>
      </trkpt>
      <trkpt lat="48.79287" lon="2.2344">
        <ele>123.2</ele>
        <time>2024-05-26T10:36:01Z</time>
      </trkpt>
      <trkpt lat="48.79287" lon="2.23439">
        <ele>123.2</ele>
        <time>2024-05-26T10:36:02Z</time>
      </trkpt>
      <trkpt lat="48.79287" lon="2.23438">
        <ele>123.1</ele>
        <time>2024-05-26T10:36:03Z</time>
      </trkpt>
      <trkpt lat="48.79287" lon="2.23438">
        <ele>123.1</ele>
        <time>2024-05-26T10:36:04Z</time>
      </trkpt>
      <trkpt lat="48.79287" lon="2.23437">
        <ele>123.1</ele>
        <time>2024-05-26T10:36:05Z</time>
      </trkpt>
      <trkpt lat="48.79287" lon="2.23436">
        <ele>123</ele>
        <time>2024-05-26T10:36:06Z</time>
      </trkpt>
      <trkpt lat="48.79289" lon="2.23434">
        <ele>122.9</ele>
        <time>2024-05-26T10:36:07Z</time>
      </trkpt>
      <trkpt lat="48.79289" lon="2.23433">
        <ele>122.9</ele>
        <time>2024-05-26T10:36:08Z</time>
      </trkpt>
      <trkpt lat="48.79288" lon="2.23433">
        <ele>122.9</ele>
        <time>2024-05-26T10:36:09Z</time>
      </trkpt>
      <trkpt lat="48.79289" lon="2.23431">
        <ele>122.8</ele>
        <time>2024-05-26T10:36:10Z</time>
      </trkpt>
      <trkpt lat="48.79289" lon="2.23429">
        <ele>122.8</ele>
        <time>2024-05-26T10:36:11Z</time>
      </trkpt>
      <trkpt lat="48.7929" lon="2.23427">
        <ele>122.7</ele>
        <time>2024-05-26T10:36:12Z</time>
      </trkpt>
      <trkpt lat="48.7929" lon="2.23424">
        <ele>122.6</ele>
        <time>2024-05-26T10:36:14Z</time>
      </trkpt>
      <trkpt lat="48.79291" lon="2.23423">
        <ele>122.6</ele>
        <time>2024-05-26T10:36:15Z</time>
      </trkpt>
      <trkpt lat="48.79292" lon="2.23422">
        <ele>122.5</ele>
        <time>2024-05-26T10:36:16Z</time>
      </trkpt>
      <trkpt lat="48.79292" lon="2.23421">
        <ele>122.5</ele>
        <time>2024-05-26T10:36:17Z</time>
      </trkpt>
      <trkpt lat="48.79292" lon="2.23419">
        <ele>122.5</ele>
        <time>2024-05-26T10:36:18Z</time>
      </trkpt>
      <trkpt lat="48.79293" lon="2.23418">
        <ele>122.4</ele>
        <time>2024-05-26T10:36:19Z</time>
      </trkpt>
      <trkpt lat="48.79292" lon="2.23415">
        <ele>122.4</ele>
        <time>2024-05-26T10:36:20Z</time>
      </trkpt>
      <trkpt lat="48.79292" lon="2.23413">
        <ele>122.3</ele>
        <time>2024-05-26T10:36:21Z</time>
      </trkpt>
      <trkpt lat="48.79292" lon="2.23412">
        <ele>122.3</ele>
        <time>2024-05-26T10:36:22Z</time>
      </trkpt>
      <trkpt lat="48.79292" lon="2.23411">
        <ele>122.3</ele>
        <time>2024-05-26T10:36:23Z</time>
      </trkpt>
      <trkpt lat="48.79292" lon="2.2341">
        <ele>122.3</ele>
        <time>2024-05-26T10:36:24Z</time>
      </trkpt>
      <trkpt lat="48.79292" lon="2.23409">
        <ele>122.3</ele>
        <time>2024-05-26T10:36:25Z</time>
      </trkpt>
      <trkpt lat="48.79292" lon="2.23408">
        <ele>122.2</ele>
        <time>2024-05-26T10:36:26Z</time>
      </trkpt>
      <trkpt lat="48.79293" lon="2.23407">
        <ele>122.2</ele>
        <time>2024-05-26T10:36:27Z</time>
      </trkpt>
      <trkpt lat="48.79293" lon="2.23405">
        <ele>122.2</ele>
        <time>2024-05-26T10:36:28Z</time>
      </trkpt>
      <trkpt lat="48.79293" lon="2.23404">
        <ele>122.2</ele>
        <time>2024-05-26T10:36:29Z</time>
      </trkpt>
      <trkpt lat="48.79293" lon="2.23403">
        <ele>122.2</ele>
        <time>2024-05-26T10:36:30Z</time>
      </trkpt>
      <trkpt lat="48.79294" lon="2.23402">
        <ele>122.2</ele>
        <time>2024-05-26T10:36:31Z</time>
      </trkpt>
      <trkpt lat="48.79294" lon="2.234">
        <ele>122.1</ele>
        <time>2024-05-26T10:36:32Z</time>
      </trkpt>
      <trkpt lat="48.79295" lon="2.23397">
        <ele>122.1</ele>
        <time>2024-05-26T10:36:33Z</time>
      </trkpt>
      <trkpt lat="48.79295" lon="2.23396">
        <ele>122.1</ele>
        <time>2024-05-26T10:36:34Z</time>
      </trkpt>
      <trkpt lat="48.79295" lon="2.23393">
        <ele>122.1</ele>
        <time>2024-05-26T10:36:35Z</time>
      </trkpt>
      <trkpt lat="48.79296" lon="2.23392">
        <ele>122.1</ele>
        <time>2024-05-26T10:36:36Z</time>
      </trkpt>
      <trkpt lat="48.79296" lon="2.23391">
        <ele>122.1</ele>
        <time>2024-05-26T10:36:37Z</time>
      </trkpt>
      <trkpt lat="48.79296" lon="2.2339">
        <ele>122.1</ele>
        <time>2024-05-26T10:36:38Z</time>
      </trkpt>
      <trkpt lat="48.79296" lon="2.23389">
        <ele>122.1</ele>
        <time>2024-05-26T10:36:39Z</time>
      </trkpt>
      <trkpt lat="48.79297" lon="2.23388">
        <ele>122.1</ele>
        <time>2024-05-26T10:36:40Z</time>
      </trkpt>
      <trkpt lat="48.79297" lon="2.23387">
        <ele>122.1</ele>
        <time>2024-05-26T10:36:41Z</time>
      </trkpt>
      <trkpt lat="48.79297" lon="2.23386">
        <ele>122.1</ele>
        <time>2024-05-26T10:36:42Z</time>
      </trkpt>
      <trkpt lat="48.79297" lon="2.23384">
        <ele>122.1</ele>
        <time>2024-05-26T10:36:43Z</time>
      </trkpt>
      <trkpt lat="48.79298" lon="2.23382">
        <ele>122.2</ele>
        <time>2024-05-26T10:36:44Z</time>
      </trkpt>
      <trkpt lat="48.79298" lon="2.23381">
        <ele>122.2</ele>
        <time>2024-05-26T10:36:45Z</time>
      </trkpt>
      <trkpt lat="48.79298" lon="2.2338">
        <ele>122.2</ele>
        <time>2024-05-26T10:36:46Z</time>
      </trkpt>
      <trkpt lat="48.79298" lon="2.2338">
        <ele>122.2</ele>
        <time>2024-05-26T10:36:47Z</time>
      </trkpt>
      <trkpt lat="48.79298" lon="2.23378">
        <ele>122.2</ele>
        <time>2024-05-26T10:36:48Z</time>
      </trkpt>
      <trkpt lat="48.79298" lon="2.23376">
        <ele>122.2</ele>
        <time>2024-05-26T10:36:49Z</time>
      </trkpt>
      <trkpt lat="48.79299" lon="2.23377">
        <ele>122.2</ele>
        <time>2024-05-26T10:36:50Z</time>
      </trkpt>
      <trkpt lat="48.79299" lon="2.23375">
        <ele>122.3</ele>
        <time>2024-05-26T10:36:51Z</time>
      </trkpt>
      <trkpt lat="48.79299" lon="2.23374">
        <ele>122.3</ele>
        <time>2024-05-26T10:36:52Z</time>
      </trkpt>
      <trkpt lat="48.79299" lon="2.23373">
        <ele>122.3</ele>
        <time>2024-05-26T10:36:53Z</time>
      </trkpt>
      <trkpt lat="48.79299" lon="2.23373">
        <ele>122.3</ele>
        <time>2024-05-26T10:36:54Z</time>
      </trkpt>
      <trkpt lat="48.79299" lon="2.23372">
        <ele>122.3</ele>
        <time>2024-05-26T10:36:55Z</time>
      </trkpt>
      <trkpt lat="48.79298" lon="2.23372">
        <ele>122.3</ele>
        <time>2024-05-26T10:36:56Z</time>
      </trkpt>
      <trkpt lat="48.79298" lon="2.23371">
        <ele>122.4</ele>
        <time>2024-05-26T10:36:57Z</time>
      </trkpt>
      <trkpt lat="48.79298" lon="2.23371">
        <ele>122.4</ele>
        <time>2024-05-26T10:36:58Z</time>
      </trkpt>
      <trkpt lat="48.79299" lon="2.2337">
        <ele>122.4</ele>
        <time>2024-05-26T10:36:59Z</time>
      </trkpt>
      <trkpt lat="48.79299" lon="2.23369">
        <ele>122.4</ele>
        <time>2024-05-26T10:37:00Z</time>
      </trkpt>
      <trkpt lat="48.79299" lon="2.23369">
        <ele>122.4</ele>
        <time>2024-05-26T10:37:01Z</time>
      </trkpt>
      <trkpt lat="48.79299" lon="2.23368">
        <ele>122.4</ele>
        <time>2024-05-26T10:37:02Z</time>
      </trkpt>
      <trkpt lat="48.79299" lon="2.23368">
        <ele>122.4</ele>
        <time>2024-05-26T10:37:03Z</time>
      </trkpt>
      <trkpt lat="48.79299" lon="2.23367">
        <ele>122.4</ele>
        <time>2024-05-26T10:37:04Z</time>
      </trkpt>
      <trkpt lat="48.793" lon="2.23366">
        <ele>122.4</ele>
        <time>2024-05-26T10:37:05Z</time>
      </trkpt>
      <trkpt lat="48.79299" lon="2.23363">
        <ele>122.5</ele>
        <time>2024-05-26T10:37:06Z</time>
      </trkpt>
      <trkpt lat="48.79299" lon="2.23362">
        <ele>122.5</ele>
        <time>2024-05-26T10:37:07Z</time>
      </trkpt>
      <trkpt lat="48.79299" lon="2.23361">
        <ele>122.6</ele>
        <time>2024-05-26T10:37:08Z</time>
      </trkpt>
      <trkpt lat="48.79299" lon="2.2336">
        <ele>122.6</ele>
        <time>2024-05-26T10:37:09Z</time>
      </trkpt>
      <trkpt lat="48.79299" lon="2.23359">
        <ele>122.6</ele>
        <time>2024-05-26T10:37:10Z</time>
      </trkpt>
      <trkpt lat="48.79299" lon="2.23358">
        <ele>122.6</ele>
        <time>2024-05-26T10:37:11Z</time>
      </trkpt>
      <trkpt lat="48.79299" lon="2.23357">
        <ele>122.7</ele>
        <time>2024-05-26T10:37:12Z</time>
      </trkpt>
      <trkpt lat="48.79298" lon="2.23355">
        <ele>122.7</ele>
        <time>2024-05-26T10:37:13Z</time>
      </trkpt>
      <trkpt lat="48.79298" lon="2.23353">
        <ele>122.7</ele>
        <time>2024-05-26T10:37:14Z</time>
      </trkpt>
      <trkpt lat="48.79299" lon="2.23353">
        <ele>122.8</ele>
        <time>2024-05-26T10:37:15Z</time>
      </trkpt>
      <trkpt lat="48.79299" lon="2.23353">
        <ele>122.8</ele>
        <time>2024-05-26T10:37:16Z</time>
      </trkpt>
      <trkpt lat="48.79299" lon="2.23352">
        <ele>122.8</ele>
        <time>2024-05-26T10:37:17Z</time>
      </trkpt>
      <trkpt lat="48.79299" lon="2.23352">
        <ele>122.8</ele>
        <time>2024-05-26T10:37:18Z</time>
      </trkpt>
      <trkpt lat="48.79299" lon="2.23352">
        <ele>122.8</ele>
        <time>2024-05-26T10:37:19Z</time>
      </trkpt>
      <trkpt lat="48.79299" lon="2.23352">
        <ele>122.8</ele>
        <time>2024-05-26T10:37:20Z</time>
      </trkpt>
      <trkpt lat="48.79298" lon="2.2335">
        <ele>122.9</ele>
        <time>2024-05-26T10:37:21Z</time>
      </trkpt>
      <trkpt lat="48.79299" lon="2.23349">
        <ele>122.9</ele>
        <time>2024-05-26T10:37:22Z</time>
      </trkpt>
      <trkpt lat="48.79299" lon="2.23349">
        <ele>122.9</ele>
        <time>2024-05-26T10:37:23Z</time>
      </trkpt>
      <trkpt lat="48.79299" lon="2.23348">
        <ele>122.9</ele>
        <time>2024-05-26T10:37:24Z</time>
      </trkpt>
      <trkpt lat="48.79299" lon="2.23347">
        <ele>122.9</ele>
        <time>2024-05-26T10:37:25Z</time>
      </trkpt>
      <trkpt lat="48.793" lon="2.23346">
        <ele>123</ele>
        <time>2024-05-26T10:37:26Z</time>
      </trkpt>
      <trkpt lat="48.793" lon="2.23346">
        <ele>123</ele>
        <time>2024-05-26T10:37:27Z</time>
      </trkpt>
      <trkpt lat="48.793" lon="2.23345">
        <ele>123</ele>
        <time>2024-05-26T10:37:28Z</time>
      </trkpt>
      <trkpt lat="48.793" lon="2.23344">
        <ele>123</ele>
        <time>2024-05-26T10:37:29Z</time>
      </trkpt>
      <trkpt lat="48.79299" lon="2.23342">
        <ele>123.1</ele>
        <time>2024-05-26T10:37:30Z</time>
      </trkpt>
      <trkpt lat="48.793" lon="2.23342">
        <ele>123.1</ele>
        <time>2024-05-26T10:37:31Z</time>
      </trkpt>
      <trkpt lat="48.793" lon="2.2334">
        <ele>123.1</ele>
        <time>2024-05-26T10:37:32Z</time>
      </trkpt>
      <trkpt lat="48.793" lon="2.2334">
        <ele>123.1</ele>
        <time>2024-05-26T10:37:33Z</time>
      </trkpt>
      <trkpt lat="48.793" lon="2.23339">
        <ele>123.2</ele>
        <time>2024-05-26T10:37:34Z</time>
      </trkpt>
      <trkpt lat="48.793" lon="2.23338">
        <ele>123.2</ele>
        <time>2024-05-26T10:37:35Z</time>
      </trkpt>
      <trkpt lat="48.793" lon="2.23338">
        <ele>123.2</ele>
        <time>2024-05-26T10:37:36Z</time>
      </trkpt>
      <trkpt lat="48.79301" lon="2.23337">
        <ele>123.2</ele>
        <time>2024-05-26T10:37:37Z</time>
      </trkpt>
      <trkpt lat="48.79301" lon="2.23336">
        <ele>123.2</ele>
        <time>2024-05-26T10:37:38Z</time>
      </trkpt>
      <trkpt lat="48.79302" lon="2.23338">
        <ele>123.3</ele>
        <time>2024-05-26T10:37:39Z</time>
      </trkpt>
      <trkpt lat="48.79302" lon="2.23337">
        <ele>123.3</ele>
        <time>2024-05-26T10:37:40Z</time>
      </trkpt>
      <trkpt lat="48.79302" lon="2.23337">
        <ele>123.3</ele>
        <time>2024-05-26T10:37:41Z</time>
      </trkpt>
      <trkpt lat="48.79301" lon="2.23337">
        <ele>123.4</ele>
        <time>2024-05-26T10:37:42Z</time>
      </trkpt>
      <trkpt lat="48.79301" lon="2.23337">
        <ele>123.4</ele>
        <time>2024-05-26T10:37:43Z</time>
      </trkpt>
      <trkpt lat="48.79301" lon="2.23337">
        <ele>123.4</ele>
        <time>2024-05-26T10:37:44Z</time>
      </trkpt>
      <trkpt lat="48.79301" lon="2.23337">
        <ele>123.4</ele>
        <time>2024-05-26T10:37:45Z</time>
      </trkpt>
      <trkpt lat="48.79302" lon="2.23336">
        <ele>123.4</ele>
        <time>2024-05-26T10:37:46Z</time>
      </trkpt>
      <trkpt lat="48.79302" lon="2.23336">
        <ele>123.4</ele>
        <time>2024-05-26T10:37:47Z</time>
      </trkpt>
      <trkpt lat="48.79302" lon="2.23335">
        <ele>123.5</ele>
        <time>2024-05-26T10:37:48Z</time>
      </trkpt>
      <trkpt lat="48.79302" lon="2.23334">
        <ele>123.5</ele>
        <time>2024-05-26T10:37:49Z</time>
      </trkpt>
      <trkpt lat="48.79303" lon="2.23334">
        <ele>123.5</ele>
        <time>2024-05-26T10:37:50Z</time>
      </trkpt>
      <trkpt lat="48.79303" lon="2.23333">
        <ele>123.5</ele>
        <time>2024-05-26T10:37:51Z</time>
      </trkpt>
      <trkpt lat="48.79303" lon="2.23332">
        <ele>123.6</ele>
        <time>2024-05-26T10:37:52Z</time>
      </trkpt>
      <trkpt lat="48.79304" lon="2.2333">
        <ele>123.7</ele>
        <time>2024-05-26T10:37:53Z</time>
      </trkpt>
      <trkpt lat="48.79304" lon="2.23329">
        <ele>123.7</ele>
        <time>2024-05-26T10:37:54Z</time>
      </trkpt>
      <trkpt lat="48.79305" lon="2.23329">
        <ele>123.7</ele>
        <time>2024-05-26T10:37:55Z</time>
      </trkpt>
      <trkpt lat="48.79305" lon="2.23328">
        <ele>123.7</ele>
        <time>2024-05-26T10:37:56Z</time>
      </trkpt>
      <trkpt lat="48.79305" lon="2.23328">
        <ele>123.8</ele>
        <time>2024-05-26T10:37:57Z</time>
      </trkpt>
      <trkpt lat="48.79305" lon="2.23326">
        <ele>123.8</ele>
        <time>2024-05-26T10:37:58Z</time>
      </trkpt>
      <trkpt lat="48.79305" lon="2.23325">
        <ele>123.9</ele>
        <time>2024-05-26T10:37:59Z</time>
      </trkpt>
      <trkpt lat="48.79306" lon="2.23324">
        <ele>123.9</ele>
        <time>2024-05-26T10:38:00Z</time>
      </trkpt>
      <trkpt lat="48.79306" lon="2.23324">
        <ele>124</ele>
        <time>2024-05-26T10:38:01Z</time>
      </trkpt>
      <trkpt lat="48.79307" lon="2.23324">
        <ele>124</ele>
        <time>2024-05-26T10:38:02Z</time>
      </trkpt>
      <trkpt lat="48.79307" lon="2.23323">
        <ele>124</ele>
        <time>2024-05-26T10:38:03Z</time>
      </trkpt>
      <trkpt lat="48.79306" lon="2.23322">
        <ele>124.1</ele>
        <time>2024-05-26T10:38:04Z</time>
      </trkpt>
      <trkpt lat="48.79307" lon="2.23322">
        <ele>124.1</ele>
        <time>2024-05-26T10:38:05Z</time>
      </trkpt>
      <trkpt lat="48.79307" lon="2.23321">
        <ele>124.1</ele>
        <time>2024-05-26T10:38:06Z</time>
      </trkpt>
      <trkpt lat="48.79307" lon="2.23319">
        <ele>124.2</ele>
        <time>2024-05-26T10:38:07Z</time>
      </trkpt>
      <trkpt lat="48.79306" lon="2.2332">
        <ele>124.2</ele>
        <time>2024-05-26T10:38:08Z</time>
      </trkpt>
      <trkpt lat="48.79307" lon="2.23319">
        <ele>124.3</ele>
        <time>2024-05-26T10:38:09Z</time>
      </trkpt>
      <trkpt lat="48.79307" lon="2.2332">
        <ele>124.3</ele>
        <time>2024-05-26T10:38:10Z</time>
      </trkpt>
      <trkpt lat="48.79307" lon="2.23318">
        <ele>124.4</ele>
        <time>2024-05-26T10:38:11Z</time>
      </trkpt>
      <trkpt lat="48.79307" lon="2.23316">
        <ele>124.5</ele>
        <time>2024-05-26T10:38:12Z</time>
      </trkpt>
      <trkpt lat="48.79307" lon="2.23315">
        <ele>124.5</ele>
        <time>2024-05-26T10:38:13Z</time>
      </trkpt>
      <trkpt lat="48.79307" lon="2.23313">
        <ele>124.6</ele>
        <time>2024-05-26T10:38:14Z</time>
      </trkpt>
      <trkpt lat="48.79307" lon="2.23311">
        <ele>124.7</ele>
        <time>2024-05-26T10:38:15Z</time>
      </trkpt>
      <trkpt lat="48.79307" lon="2.2331">
        <ele>124.8</ele>
        <time>2024-05-26T10:38:16Z</time>
      </trkpt>
      <trkpt lat="48.79306" lon="2.23309">
        <ele>124.8</ele>
        <time>2024-05-26T10:38:17Z</time>
      </trkpt>
      <trkpt lat="48.79306" lon="2.23308">
        <ele>124.9</ele>
        <time>2024-05-26T10:38:18Z</time>
      </trkpt>
      <trkpt lat="48.79305" lon="2.23308">
        <ele>124.9</ele>
        <time>2024-05-26T10:38:20Z</time>
      </trkpt>
      <trkpt lat="48.79306" lon="2.23306">
        <ele>125</ele>
        <time>2024-05-26T10:38:21Z</time>
      </trkpt>
      <trkpt lat="48.79306" lon="2.23304">
        <ele>125.1</ele>
        <time>2024-05-26T10:38:22Z</time>
      </trkpt>
      <trkpt lat="48.79306" lon="2.23301">
        <ele>125.2</ele>
        <time>2024-05-26T10:38:23Z</time>
      </trkpt>
      <trkpt lat="48.79305" lon="2.233">
        <ele>125.3</ele>
        <time>2024-05-26T10:38:24Z</time>
      </trkpt>
      <trkpt lat="48.79305" lon="2.23299">
        <ele>125.3</ele>
        <time>2024-05-26T10:38:25Z</time>
      </trkpt>
      <trkpt lat="48.79306" lon="2.23297">
        <ele>125.4</ele>
        <time>2024-05-26T10:38:26Z</time>
      </trkpt>
      <trkpt lat="48.79307" lon="2.23295">
        <ele>125.5</ele>
        <time>2024-05-26T10:38:27Z</time>
      </trkpt>
      <trkpt lat="48.79308" lon="2.2329">
        <ele>125.7</ele>
        <time>2024-05-26T10:38:28Z</time>
      </trkpt>
      <trkpt lat="48.79308" lon="2.23289">
        <ele>125.8</ele>
        <time>2024-05-26T10:38:29Z</time>
      </trkpt>
      <trkpt lat="48.79309" lon="2.23286">
        <ele>125.9</ele>
        <time>2024-05-26T10:38:30Z</time>
      </trkpt>
      <trkpt lat="48.79309" lon="2.23285">
        <ele>126</ele>
        <time>2024-05-26T10:38:31Z</time>
      </trkpt>
      <trkpt lat="48.79309" lon="2.23284">
        <ele>126</ele>
        <time>2024-05-26T10:38:32Z</time>
      </trkpt>
      <trkpt lat="48.79309" lon="2.23283">
        <ele>126.1</ele>
        <time>2024-05-26T10:38:33Z</time>
      </trkpt>
      <trkpt lat="48.7931" lon="2.23281">
        <ele>126.2</ele>
        <time>2024-05-26T10:38:34Z</time>
      </trkpt>
      <trkpt lat="48.79311" lon="2.2328">
        <ele>126.2</ele>
        <time>2024-05-26T10:38:35Z</time>
      </trkpt>
      <trkpt lat="48.79311" lon="2.23279">
        <ele>126.3</ele>
        <time>2024-05-26T10:38:36Z</time>
      </trkpt>
      <trkpt lat="48.79312" lon="2.23278">
        <ele>126.3</ele>
        <time>2024-05-26T10:38:37Z</time>
      </trkpt>
      <trkpt lat="48.79312" lon="2.23278">
        <ele>126.4</ele>
        <time>2024-05-26T10:38:38Z</time>
      </trkpt>
      <trkpt lat="48.79313" lon="2.23276">
        <ele>126.5</ele>
        <time>2024-05-26T10:38:39Z</time>
      </trkpt>
      <trkpt lat="48.79314" lon="2.23274">
        <ele>126.6</ele>
        <time>2024-05-26T10:38:40Z</time>
      </trkpt>
      <trkpt lat="48.79314" lon="2.23272">
        <ele>126.7</ele>
        <time>2024-05-26T10:38:41Z</time>
      </trkpt>
      <trkpt lat="48.79315" lon="2.23271">
        <ele>126.8</ele>
        <time>2024-05-26T10:38:42Z</time>
      </trkpt>
      <trkpt lat="48.79315" lon="2.23269">
        <ele>126.9</ele>
        <time>2024-05-26T10:38:43Z</time>
      </trkpt>
      <trkpt lat="48.79316" lon="2.23268">
        <ele>126.9</ele>
        <time>2024-05-26T10:38:44Z</time>
      </trkpt>
      <trkpt lat="48.79316" lon="2.23268">
        <ele>127</ele>
        <time>2024-05-26T10:38:45Z</time>
      </trkpt>
      <trkpt lat="48.79316" lon="2.23267">
        <ele>127</ele>
        <time>2024-05-26T10:38:46Z</time>
      </trkpt>
      <trkpt lat="48.79317" lon="2.23266">
        <ele>127.1</ele>
        <time>2024-05-26T10:38:47Z</time>
      </trkpt>
      <trkpt lat="48.79318" lon="2.23265">
        <ele>127.3</ele>
        <time>2024-05-26T10:38:48Z</time>
      </trkpt>
      <trkpt lat="48.79319" lon="2.23264">
        <ele>127.4</ele>
        <time>2024-05-26T10:38:49Z</time>
      </trkpt>
      <trkpt lat="48.7932" lon="2.23264">
        <ele>127.5</ele>
        <time>2024-05-26T10:38:50Z</time>
      </trkpt>
      <trkpt lat="48.79321" lon="2.23263">
        <ele>127.6</ele>
        <time>2024-05-26T10:38:51Z</time>
      </trkpt>
      <trkpt lat="48.79322" lon="2.23263">
        <ele>127.7</ele>
        <time>2024-05-26T10:38:52Z</time>
      </trkpt>
      <trkpt lat="48.79322" lon="2.23263">
        <ele>127.8</ele>
        <time>2024-05-26T10:38:53Z</time>
      </trkpt>
      <trkpt lat="48.79323" lon="2.23262">
        <ele>127.9</ele>
        <time>2024-05-26T10:38:54Z</time>
      </trkpt>
      <trkpt lat="48.79323" lon="2.23261">
        <ele>128</ele>
        <time>2024-05-26T10:38:55Z</time>
      </trkpt>
      <trkpt lat="48.79323" lon="2.23259">
        <ele>128.2</ele>
        <time>2024-05-26T10:38:56Z</time>
      </trkpt>
      <trkpt lat="48.79323" lon="2.23257">
        <ele>128.3</ele>
        <time>2024-05-26T10:38:57Z</time>
      </trkpt>
      <trkpt lat="48.79323" lon="2.23256">
        <ele>128.4</ele>
        <time>2024-05-26T10:38:58Z</time>
      </trkpt>
      <trkpt lat="48.79324" lon="2.23254">
        <ele>128.6</ele>
        <time>2024-05-26T10:38:59Z</time>
      </trkpt>
      <trkpt lat="48.79324" lon="2.23253">
        <ele>128.7</ele>
        <time>2024-05-26T10:39:00Z</time>
      </trkpt>
      <trkpt lat="48.79324" lon="2.23252">
        <ele>128.8</ele>
        <time>2024-05-26T10:39:01Z</time>
      </trkpt>
      <trkpt lat="48.79325" lon="2.23251">
        <ele>128.9</ele>
        <time>2024-05-26T10:39:02Z</time>
      </trkpt>
      <trkpt lat="48.79325" lon="2.23251">
        <ele>129</ele>
        <time>2024-05-26T10:39:03Z</time>
      </trkpt>
      <trkpt lat="48.79325" lon="2.2325">
        <ele>129</ele>
        <time>2024-05-26T10:39:04Z</time>
      </trkpt>
      <trkpt lat="48.79325" lon="2.23249">
        <ele>129.1</ele>
        <time>2024-05-26T10:39:05Z</time>
      </trkpt>
      <trkpt lat="48.79325" lon="2.23249">
        <ele>129.2</ele>
        <time>2024-05-26T10:39:06Z</time>
      </trkpt>
      <trkpt lat="48.79325" lon="2.23247">
        <ele>129.3</ele>
        <time>2024-05-26T10:39:07Z</time>
      </trkpt>
      <trkpt lat="48.79326" lon="2.23247">
        <ele>129.3</ele>
        <time>2024-05-26T10:39:08Z</time>
      </trkpt>
      <trkpt lat="48.79326" lon="2.23245">
        <ele>129.5</ele>
        <time>2024-05-26T10:39:09Z</time>
      </trkpt>
      <trkpt lat="48.79326" lon="2.23244">
        <ele>129.6</ele>
        <time>2024-05-26T10:39:10Z</time>
      </trkpt>
      <trkpt lat="48.79326" lon="2.23243">
        <ele>129.7</ele>
        <time>2024-05-26T10:39:11Z</time>
      </trkpt>
      <trkpt lat="48.79326" lon="2.23242">
        <ele>129.8</ele>
        <time>2024-05-26T10:39:12Z</time>
      </trkpt>
      <trkpt lat="48.79326" lon="2.23242">
        <ele>129.8</ele>
        <time>2024-05-26T10:39:13Z</time>
      </trkpt>
      <trkpt lat="48.79326" lon="2.23243">
        <ele>129.9</ele>
        <time>2024-05-26T10:39:14Z</time>
      </trkpt>
      <trkpt lat="48.79325" lon="2.23243">
        <ele>130</ele>
        <time>2024-05-26T10:39:15Z</time>
      </trkpt>
      <trkpt lat="48.79325" lon="2.23243">
        <ele>130</ele>
        <time>2024-05-26T10:39:16Z</time>
      </trkpt>
      <trkpt lat="48.79324" lon="2.23242">
        <ele>130.2</ele>
        <time>2024-05-26T10:39:17Z</time>
      </trkpt>
      <trkpt lat="48.79324" lon="2.23242">
        <ele>130.2</ele>
        <time>2024-05-26T10:39:18Z</time>
      </trkpt>
      <trkpt lat="48.79325" lon="2.23242">
        <ele>130.3</ele>
        <time>2024-05-26T10:39:19Z</time>
      </trkpt>
      <trkpt lat="48.79325" lon="2.23242">
        <ele>130.4</ele>
        <time>2024-05-26T10:39:20Z</time>
      </trkpt>
      <trkpt lat="48.79325" lon="2.23242">
        <ele>130.5</ele>
        <time>2024-05-26T10:39:21Z</time>
      </trkpt>
      <trkpt lat="48.79325" lon="2.23241">
        <ele>130.6</ele>
        <time>2024-05-26T10:39:22Z</time>
      </trkpt>
      <trkpt lat="48.79326" lon="2.2324">
        <ele>130.7</ele>
        <time>2024-05-26T10:39:23Z</time>
      </trkpt>
      <trkpt lat="48.79326" lon="2.2324">
        <ele>130.7</ele>
        <time>2024-05-26T10:39:24Z</time>
      </trkpt>
      <trkpt lat="48.79327" lon="2.2324">
        <ele>130.8</ele>
        <time>2024-05-26T10:39:25Z</time>
      </trkpt>
      <trkpt lat="48.79327" lon="2.23239">
        <ele>130.9</ele>
        <time>2024-05-26T10:39:26Z</time>
      </trkpt>
      <trkpt lat="48.79327" lon="2.23239">
        <ele>130.9</ele>
        <time>2024-05-26T10:39:27Z</time>
      </trkpt>
      <trkpt lat="48.79327" lon="2.23239">
        <ele>130.9</ele>
        <time>2024-05-26T10:39:28Z</time>
      </trkpt>
      <trkpt lat="48.79327" lon="2.23238">
        <ele>130.9</ele>
        <time>2024-05-26T10:39:29Z</time>
      </trkpt>
      <trkpt lat="48.79327" lon="2.23238">
        <ele>131</ele>
        <time>2024-05-26T10:39:30Z</time>
      </trkpt>
      <trkpt lat="48.79327" lon="2.23238">
        <ele>131</ele>
        <time>2024-05-26T10:39:31Z</time>
      </trkpt>
      <trkpt lat="48.79328" lon="2.23238">
        <ele>131</ele>
        <time>2024-05-26T10:39:32Z</time>
      </trkpt>
      <trkpt lat="48.79328" lon="2.23237">
        <ele>131.1</ele>
        <time>2024-05-26T10:39:33Z</time>
      </trkpt>
      <trkpt lat="48.79328" lon="2.23237">
        <ele>131.1</ele>
        <time>2024-05-26T10:39:34Z</time>
      </trkpt>
      <trkpt lat="48.79328" lon="2.23237">
        <ele>131.1</ele>
        <time>2024-05-26T10:39:35Z</time>
      </trkpt>
      <trkpt lat="48.79328" lon="2.23236">
        <ele>131.2</ele>
        <time>2024-05-26T10:39:36Z</time>
      </trkpt>
      <trkpt lat="48.79328" lon="2.23236">
        <ele>131.2</ele>
        <time>2024-05-26T10:39:37Z</time>
      </trkpt>
      <trkpt lat="48.79328" lon="2.23236">
        <ele>131.2</ele>
        <time>2024-05-26T10:39:38Z</time>
      </trkpt>
      <trkpt lat="48.79329" lon="2.23236">
        <ele>131.3</ele>
        <time>2024-05-26T10:39:39Z</time>
      </trkpt>
      <trkpt lat="48.7933" lon="2.23233">
        <ele>131.5</ele>
        <time>2024-05-26T10:39:40Z</time>
      </trkpt>
      <trkpt lat="48.7933" lon="2.23232">
        <ele>131.6</ele>
        <time>2024-05-26T10:39:41Z</time>
      </trkpt>
      <trkpt lat="48.7933" lon="2.23231">
        <ele>131.7</ele>
        <time>2024-05-26T10:39:42Z</time>
      </trkpt>
      <trkpt lat="48.79329" lon="2.23229">
        <ele>131.9</ele>
        <time>2024-05-26T10:39:43Z</time>
      </trkpt>
      <trkpt lat="48.7933" lon="2.23229">
        <ele>131.9</ele>
        <time>2024-05-26T10:39:44Z</time>
      </trkpt>
      <trkpt lat="48.7933" lon="2.23229">
        <ele>131.9</ele>
        <time>2024-05-26T10:39:45Z</time>
      </trkpt>
      <trkpt lat="48.7933" lon="2.23228">
        <ele>132</ele>
        <time>2024-05-26T10:39:46Z</time>
      </trkpt>
      <trkpt lat="48.7933" lon="2.23229">
        <ele>132.2</ele>
        <time>2024-05-26T10:39:47Z</time>
      </trkpt>
      <trkpt lat="48.79331" lon="2.23228">
        <ele>132.3</ele>
        <time>2024-05-26T10:39:48Z</time>
      </trkpt>
      <trkpt lat="48.79331" lon="2.23227">
        <ele>132.4</ele>
        <time>2024-05-26T10:39:49Z</time>
      </trkpt>
      <trkpt lat="48.7933" lon="2.23226">
        <ele>132.6</ele>
        <time>2024-05-26T10:39:50Z</time>
      </trkpt>
      <trkpt lat="48.7933" lon="2.23225">
        <ele>132.6</ele>
        <time>2024-05-26T10:39:51Z</time>
      </trkpt>
      <trkpt lat="48.7933" lon="2.23225">
        <ele>132.6</ele>
        <time>2024-05-26T10:39:52Z</time>
      </trkpt>
      <trkpt lat="48.79331" lon="2.23224">
        <ele>132.8</ele>
        <time>2024-05-26T10:39:53Z</time>
      </trkpt>
      <trkpt lat="48.79332" lon="2.23222">
        <ele>133</ele>
        <time>2024-05-26T10:39:54Z</time>
      </trkpt>
      <trkpt lat="48.79332" lon="2.23221">
        <ele>133.1</ele>
        <time>2024-05-26T10:39:55Z</time>
      </trkpt>
      <trkpt lat="48.79332" lon="2.2322">
        <ele>133.2</ele>
        <time>2024-05-26T10:39:56Z</time>
      </trkpt>
      <trkpt lat="48.79332" lon="2.23221">
        <ele>133.3</ele>
        <time>2024-05-26T10:39:57Z</time>
      </trkpt>
      <trkpt lat="48.79332" lon="2.2322">
        <ele>133.4</ele>
        <time>2024-05-26T10:39:58Z</time>
      </trkpt>
      <trkpt lat="48.79332" lon="2.23219">
        <ele>133.5</ele>
        <time>2024-05-26T10:39:59Z</time>
      </trkpt>
      <trkpt lat="48.79332" lon="2.23218">
        <ele>133.6</ele>
        <time>2024-05-26T10:40:00Z</time>
      </trkpt>
      <trkpt lat="48.79332" lon="2.23218">
        <ele>133.6</ele>
        <time>2024-05-26T10:40:01Z</time>
      </trkpt>
      <trkpt lat="48.79332" lon="2.23217">
        <ele>133.8</ele>
        <time>2024-05-26T10:40:02Z</time>
      </trkpt>
      <trkpt lat="48.79332" lon="2.23217">
        <ele>133.9</ele>
        <time>2024-05-26T10:40:03Z</time>
      </trkpt>
      <trkpt lat="48.79332" lon="2.23216">
        <ele>134</ele>
        <time>2024-05-26T10:40:04Z</time>
      </trkpt>
      <trkpt lat="48.79333" lon="2.23215">
        <ele>134.1</ele>
        <time>2024-05-26T10:40:05Z</time>
      </trkpt>
      <trkpt lat="48.79333" lon="2.23214">
        <ele>134.2</ele>
        <time>2024-05-26T10:40:06Z</time>
      </trkpt>
      <trkpt lat="48.79333" lon="2.23214">
        <ele>134.2</ele>
        <time>2024-05-26T10:40:07Z</time>
      </trkpt>
      <trkpt lat="48.79333" lon="2.23212">
        <ele>134.5</ele>
        <time>2024-05-26T10:40:08Z</time>
      </trkpt>
      <trkpt lat="48.79333" lon="2.2321">
        <ele>134.7</ele>
        <time>2024-05-26T10:40:09Z</time>
      </trkpt>
      <trkpt lat="48.79333" lon="2.2321">
        <ele>134.7</ele>
        <time>2024-05-26T10:40:10Z</time>
      </trkpt>
      <trkpt lat="48.79334" lon="2.23208">
        <ele>134.9</ele>
        <time>2024-05-26T10:40:11Z</time>
      </trkpt>
      <trkpt lat="48.79335" lon="2.23206">
        <ele>135.2</ele>
        <time>2024-05-26T10:40:12Z</time>
      </trkpt>
      <trkpt lat="48.79335" lon="2.23205">
        <ele>135.4</ele>
        <time>2024-05-26T10:40:13Z</time>
      </trkpt>
      <trkpt lat="48.79335" lon="2.23203">
        <ele>135.5</ele>
        <time>2024-05-26T10:40:14Z</time>
      </trkpt>
      <trkpt lat="48.79335" lon="2.23202">
        <ele>135.8</ele>
        <time>2024-05-26T10:40:15Z</time>
      </trkpt>
      <trkpt lat="48.79335" lon="2.232">
        <ele>136</ele>
        <time>2024-05-26T10:40:16Z</time>
      </trkpt>
      <trkpt lat="48.79335" lon="2.23199">
        <ele>136.1</ele>
        <time>2024-05-26T10:40:17Z</time>
      </trkpt>
      <trkpt lat="48.79335" lon="2.23198">
        <ele>136.3</ele>
        <time>2024-05-26T10:40:18Z</time>
      </trkpt>
      <trkpt lat="48.79335" lon="2.23197">
        <ele>136.4</ele>
        <time>2024-05-26T10:40:19Z</time>
      </trkpt>
      <trkpt lat="48.79336" lon="2.23195">
        <ele>136.7</ele>
        <time>2024-05-26T10:40:20Z</time>
      </trkpt>
      <trkpt lat="48.79336" lon="2.23194">
        <ele>136.9</ele>
        <time>2024-05-26T10:40:21Z</time>
      </trkpt>
      <trkpt lat="48.79336" lon="2.23193">
        <ele>137</ele>
        <time>2024-05-26T10:40:22Z</time>
      </trkpt>
      <trkpt lat="48.79336" lon="2.23192">
        <ele>137.2</ele>
        <time>2024-05-26T10:40:23Z</time>
      </trkpt>
      <trkpt lat="48.79337" lon="2.23191">
        <ele>137.3</ele>
        <time>2024-05-26T10:40:24Z</time>
      </trkpt>
      <trkpt lat="48.79337" lon="2.2319">
        <ele>137.5</ele>
        <time>2024-05-26T10:40:25Z</time>
      </trkpt>
      <trkpt lat="48.79337" lon="2.23189">
        <ele>137.7</ele>
        <time>2024-05-26T10:40:26Z</time>
      </trkpt>
      <trkpt lat="48.79337" lon="2.23188">
        <ele>137.8</ele>
        <time>2024-05-26T10:40:27Z</time>
      </trkpt>
      <trkpt lat="48.79338" lon="2.23183">
        <ele>138.5</ele>
        <time>2024-05-26T10:40:28Z</time>
      </trkpt>
      <trkpt lat="48.79338" lon="2.23183">
        <ele>138.5</ele>
        <time>2024-05-26T10:40:29Z</time>
      </trkpt>
      <trkpt lat="48.79338" lon="2.23181">
        <ele>138.9</ele>
        <time>2024-05-26T10:40:30Z</time>
      </trkpt>
      <trkpt lat="48.79338" lon="2.23181">
        <ele>138.9</ele>
        <time>2024-05-26T10:40:31Z</time>
      </trkpt>
      <trkpt lat="48.79339" lon="2.2318">
        <ele>139.1</ele>
        <time>2024-05-26T10:40:32Z</time>
      </trkpt>
      <trkpt lat="48.79339" lon="2.2318">
        <ele>139.2</ele>
        <time>2024-05-26T10:40:33Z</time>
      </trkpt>
      <trkpt lat="48.79339" lon="2.2318">
        <ele>139.2</ele>
        <time>2024-05-26T10:40:34Z</time>
      </trkpt>
      <trkpt lat="48.79339" lon="2.23179">
        <ele>139.4</ele>
        <time>2024-05-26T10:40:35Z</time>
      </trkpt>
      <trkpt lat="48.7934" lon="2.23178">
        <ele>139.7</ele>
        <time>2024-05-26T10:40:36Z</time>
      </trkpt>
      <trkpt lat="48.7934" lon="2.23178">
        <ele>139.7</ele>
        <time>2024-05-26T10:40:37Z</time>
      </trkpt>
      <trkpt lat="48.7934" lon="2.23177">
        <ele>139.8</ele>
        <time>2024-05-26T10:40:38Z</time>
      </trkpt>
      <trkpt lat="48.79341" lon="2.23176">
        <ele>140</ele>
        <time>2024-05-26T10:40:39Z</time>
      </trkpt>
      <trkpt lat="48.79341" lon="2.23175">
        <ele>140.2</ele>
        <time>2024-05-26T10:40:40Z</time>
      </trkpt>
      <trkpt lat="48.79341" lon="2.23172">
        <ele>140.6</ele>
        <time>2024-05-26T10:40:41Z</time>
      </trkpt>
      <trkpt lat="48.79341" lon="2.23172">
        <ele>140.7</ele>
        <time>2024-05-26T10:40:42Z</time>
      </trkpt>
      <trkpt lat="48.79341" lon="2.23171">
        <ele>140.9</ele>
        <time>2024-05-26T10:40:43Z</time>
      </trkpt>
      <trkpt lat="48.79341" lon="2.2317">
        <ele>141</ele>
        <time>2024-05-26T10:40:44Z</time>
      </trkpt>
      <trkpt lat="48.79341" lon="2.2317">
        <ele>141.1</ele>
        <time>2024-05-26T10:40:45Z</time>
      </trkpt>
      <trkpt lat="48.79342" lon="2.2317">
        <ele>141.1</ele>
        <time>2024-05-26T10:40:46Z</time>
      </trkpt>
      <trkpt lat="48.79342" lon="2.23169">
        <ele>141.3</ele>
        <time>2024-05-26T10:40:47Z</time>
      </trkpt>
      <trkpt lat="48.79342" lon="2.23168">
        <ele>141.4</ele>
        <time>2024-05-26T10:40:48Z</time>
      </trkpt>
      <trkpt lat="48.79342" lon="2.23168">
        <ele>141.6</ele>
        <time>2024-05-26T10:40:49Z</time>
      </trkpt>
      <trkpt lat="48.79342" lon="2.23167">
        <ele>141.7</ele>
        <time>2024-05-26T10:40:50Z</time>
      </trkpt>
      <trkpt lat="48.79342" lon="2.23167">
        <ele>141.8</ele>
        <time>2024-05-26T10:40:51Z</time>
      </trkpt>
      <trkpt lat="48.79342" lon="2.23166">
        <ele>141.9</ele>
        <time>2024-05-26T10:40:52Z</time>
      </trkpt>
      <trkpt lat="48.79342" lon="2.23166">
        <ele>142</ele>
        <time>2024-05-26T10:40:53Z</time>
      </trkpt>
      <trkpt lat="48.79343" lon="2.23165">
        <ele>142.2</ele>
        <time>2024-05-26T10:40:54Z</time>
      </trkpt>
      <trkpt lat="48.79344" lon="2.23165">
        <ele>142.4</ele>
        <time>2024-05-26T10:40:55Z</time>
      </trkpt>
      <trkpt lat="48.79344" lon="2.23164">
        <ele>142.6</ele>
        <time>2024-05-26T10:40:56Z</time>
      </trkpt>
      <trkpt lat="48.79344" lon="2.23164">
        <ele>142.6</ele>
        <time>2024-05-26T10:40:57Z</time>
      </trkpt>
      <trkpt lat="48.79344" lon="2.23163">
        <ele>142.7</ele>
        <time>2024-05-26T10:40:58Z</time>
      </trkpt>
      <trkpt lat="48.79344" lon="2.23163">
        <ele>142.7</ele>
        <time>2024-05-26T10:40:59Z</time>
      </trkpt>
      <trkpt lat="48.79345" lon="2.23162">
        <ele>143</ele>
        <time>2024-05-26T10:41:00Z</time>
      </trkpt>
      <trkpt lat="48.79346" lon="2.23161">
        <ele>143.3</ele>
        <time>2024-05-26T10:41:01Z</time>
      </trkpt>
      <trkpt lat="48.79346" lon="2.2316">
        <ele>143.3</ele>
        <time>2024-05-26T10:41:02Z</time>
      </trkpt>
      <trkpt lat="48.79346" lon="2.2316">
        <ele>143.4</ele>
        <time>2024-05-26T10:41:03Z</time>
      </trkpt>
      <trkpt lat="48.79346" lon="2.23158">
        <ele>143.8</ele>
        <time>2024-05-26T10:41:04Z</time>
      </trkpt>
      <trkpt lat="48.79346" lon="2.23157">
        <ele>144</ele>
        <time>2024-05-26T10:41:05Z</time>
      </trkpt>
      <trkpt lat="48.79346" lon="2.23156">
        <ele>144.1</ele>
        <time>2024-05-26T10:41:06Z</time>
      </trkpt>
      <trkpt lat="48.79346" lon="2.23156">
        <ele>144.2</ele>
        <time>2024-05-26T10:41:07Z</time>
      </trkpt>
      <trkpt lat="48.79346" lon="2.23154">
        <ele>144.4</ele>
        <time>2024-05-26T10:41:08Z</time>
      </trkpt>
      <trkpt lat="48.79347" lon="2.23154">
        <ele>144.6</ele>
        <time>2024-05-26T10:41:09Z</time>
      </trkpt>
      <trkpt lat="48.79347" lon="2.23152">
        <ele>144.8</ele>
        <time>2024-05-26T10:41:10Z</time>
      </trkpt>
      <trkpt lat="48.79347" lon="2.23151">
        <ele>145</ele>
        <time>2024-05-26T10:41:11Z</time>
      </trkpt>
      <trkpt lat="48.79347" lon="2.2315">
        <ele>145.1</ele>
        <time>2024-05-26T10:41:12Z</time>
      </trkpt>
      <trkpt lat="48.79346" lon="2.23151">
        <ele>145.3</ele>
        <time>2024-05-26T10:41:13Z</time>
      </trkpt>
      <trkpt lat="48.79346" lon="2.23151">
        <ele>145.3</ele>
        <time>2024-05-26T10:41:14Z</time>
      </trkpt>
      <trkpt lat="48.79347" lon="2.23149">
        <ele>145.6</ele>
        <time>2024-05-26T10:41:15Z</time>
      </trkpt>
      <trkpt lat="48.79347" lon="2.23148">
        <ele>145.7</ele>
        <time>2024-05-26T10:41:16Z</time>
      </trkpt>
      <trkpt lat="48.79347" lon="2.23147">
        <ele>145.9</ele>
        <time>2024-05-26T10:41:17Z</time>
      </trkpt>
      <trkpt lat="48.79347" lon="2.23147">
        <ele>146</ele>
        <time>2024-05-26T10:41:18Z</time>
      </trkpt>
      <trkpt lat="48.79347" lon="2.23147">
        <ele>146.1</ele>
        <time>2024-05-26T10:41:19Z</time>
      </trkpt>
      <trkpt lat="48.79347" lon="2.23147">
        <ele>146.1</ele>
        <time>2024-05-26T10:41:20Z</time>
      </trkpt>
      <trkpt lat="48.79347" lon="2.23145">
        <ele>146.4</ele>
        <time>2024-05-26T10:41:21Z</time>
      </trkpt>
      <trkpt lat="48.79348" lon="2.23144">
        <ele>146.7</ele>
        <time>2024-05-26T10:41:22Z</time>
      </trkpt>
      <trkpt lat="48.79348" lon="2.23143">
        <ele>146.9</ele>
        <time>2024-05-26T10:41:23Z</time>
      </trkpt>
      <trkpt lat="48.79349" lon="2.23142">
        <ele>147.2</ele>
        <time>2024-05-26T10:41:24Z</time>
      </trkpt>
      <trkpt lat="48.79349" lon="2.23141">
        <ele>147.3</ele>
        <time>2024-05-26T10:41:25Z</time>
      </trkpt>
      <trkpt lat="48.79349" lon="2.2314">
        <ele>147.5</ele>
        <time>2024-05-26T10:41:26Z</time>
      </trkpt>
      <trkpt lat="48.79349" lon="2.2314">
        <ele>147.5</ele>
        <time>2024-05-26T10:41:27Z</time>
      </trkpt>
      <trkpt lat="48.79349" lon="2.23138">
        <ele>147.9</ele>
        <time>2024-05-26T10:41:28Z</time>
      </trkpt>
      <trkpt lat="48.7935" lon="2.23136">
        <ele>148.4</ele>
        <time>2024-05-26T10:41:29Z</time>
      </trkpt>
      <trkpt lat="48.79349" lon="2.23135">
        <ele>148.5</ele>
        <time>2024-05-26T10:41:30Z</time>
      </trkpt>
      <trkpt lat="48.79349" lon="2.23135">
        <ele>148.6</ele>
        <time>2024-05-26T10:41:31Z</time>
      </trkpt>
      <trkpt lat="48.79349" lon="2.23134">
        <ele>148.9</ele>
        <time>2024-05-26T10:41:32Z</time>
      </trkpt>
      <trkpt lat="48.79349" lon="2.23132">
        <ele>149.2</ele>
        <time>2024-05-26T10:41:33Z</time>
      </trkpt>
      <trkpt lat="48.7935" lon="2.23132">
        <ele>149.3</ele>
        <time>2024-05-26T10:41:34Z</time>
      </trkpt>
      <trkpt lat="48.7935" lon="2.23132">
        <ele>149.3</ele>
        <time>2024-05-26T10:41:35Z</time>
      </trkpt>
      <trkpt lat="48.7935" lon="2.23131">
        <ele>149.6</ele>
        <time>2024-05-26T10:41:36Z</time>
      </trkpt>
      <trkpt lat="48.7935" lon="2.23129">
        <ele>149.8</ele>
        <time>2024-05-26T10:41:37Z</time>
      </trkpt>
      <trkpt lat="48.79351" lon="2.23128">
        <ele>150.2</ele>
        <time>2024-05-26T10:41:38Z</time>
      </trkpt>
      <trkpt lat="48.79351" lon="2.23127">
        <ele>150.4</ele>
        <time>2024-05-26T10:41:39Z</time>
      </trkpt>
      <trkpt lat="48.79351" lon="2.23126">
        <ele>150.6</ele>
        <time>2024-05-26T10:41:40Z</time>
      </trkpt>
      <trkpt lat="48.79351" lon="2.23125">
        <ele>150.7</ele>
        <time>2024-05-26T10:41:41Z</time>
      </trkpt>
      <trkpt lat="48.79351" lon="2.23124">
        <ele>151</ele>
        <time>2024-05-26T10:41:42Z</time>
      </trkpt>
      <trkpt lat="48.79352" lon="2.23122">
        <ele>151.3</ele>
        <time>2024-05-26T10:41:43Z</time>
      </trkpt>
      <trkpt lat="48.79352" lon="2.23121">
        <ele>151.6</ele>
        <time>2024-05-26T10:41:44Z</time>
      </trkpt>
      <trkpt lat="48.79353" lon="2.2312">
        <ele>151.8</ele>
        <time>2024-05-26T10:41:45Z</time>
      </trkpt>
      <trkpt lat="48.79353" lon="2.23118">
        <ele>152.1</ele>
        <time>2024-05-26T10:41:46Z</time>
      </trkpt>
      <trkpt lat="48.79353" lon="2.23117">
        <ele>152.4</ele>
        <time>2024-05-26T10:41:47Z</time>
      </trkpt>
      <trkpt lat="48.79354" lon="2.23116">
        <ele>152.7</ele>
        <time>2024-05-26T10:41:48Z</time>
      </trkpt>
      <trkpt lat="48.79354" lon="2.23115">
        <ele>153</ele>
        <time>2024-05-26T10:41:49Z</time>
      </trkpt>
      <trkpt lat="48.79354" lon="2.23114">
        <ele>153.1</ele>
        <time>2024-05-26T10:41:50Z</time>
      </trkpt>
      <trkpt lat="48.79354" lon="2.23112">
        <ele>153.4</ele>
        <time>2024-05-26T10:41:51Z</time>
      </trkpt>
      <trkpt lat="48.79355" lon="2.2311">
        <ele>153.8</ele>
        <time>2024-05-26T10:41:52Z</time>
      </trkpt>
      <trkpt lat="48.79355" lon="2.23109">
        <ele>154</ele>
        <time>2024-05-26T10:41:53Z</time>
      </trkpt>
      <trkpt lat="48.79355" lon="2.23108">
        <ele>154.2</ele>
        <time>2024-05-26T10:41:54Z</time>
      </trkpt>
      <trkpt lat="48.79355" lon="2.23107">
        <ele>154.5</ele>
        <time>2024-05-26T10:41:55Z</time>
      </trkpt>
      <trkpt lat="48.79356" lon="2.23106">
        <ele>154.7</ele>
        <time>2024-05-26T10:41:56Z</time>
      </trkpt>
      <trkpt lat="48.79356" lon="2.23106">
        <ele>154.7</ele>
        <time>2024-05-26T10:41:57Z</time>
      </trkpt>
      <trkpt lat="48.79356" lon="2.23105">
        <ele>154.8</ele>
        <time>2024-05-26T10:41:58Z</time>
      </trkpt>
      <trkpt lat="48.79356" lon="2.23103">
        <ele>155.1</ele>
        <time>2024-05-26T10:41:59Z</time>
      </trkpt>
      <trkpt lat="48.79357" lon="2.23102">
        <ele>155.4</ele>
        <time>2024-05-26T10:42:00Z</time>
      </trkpt>
      <trkpt lat="48.79356" lon="2.23102">
        <ele>155.5</ele>
        <time>2024-05-26T10:42:01Z</time>
      </trkpt>
      <trkpt lat="48.79356" lon="2.23101">
        <ele>155.7</ele>
        <time>2024-05-26T10:42:02Z</time>
      </trkpt>
      <trkpt lat="48.79356" lon="2.231">
        <ele>156</ele>
        <time>2024-05-26T10:42:03Z</time>
      </trkpt>
      <trkpt lat="48.79356" lon="2.23098">
        <ele>156.3</ele>
        <time>2024-05-26T10:42:04Z</time>
      </trkpt>
      <trkpt lat="48.79357" lon="2.23096">
        <ele>156.5</ele>
        <time>2024-05-26T10:42:05Z</time>
      </trkpt>
      <trkpt lat="48.79357" lon="2.23095">
        <ele>156.6</ele>
        <time>2024-05-26T10:42:06Z</time>
      </trkpt>
      <trkpt lat="48.79357" lon="2.23094">
        <ele>156.8</ele>
        <time>2024-05-26T10:42:07Z</time>
      </trkpt>
      <trkpt lat="48.79358" lon="2.23093">
        <ele>157.1</ele>
        <time>2024-05-26T10:42:08Z</time>
      </trkpt>
      <trkpt lat="48.79359" lon="2.2309">
        <ele>157.6</ele>
        <time>2024-05-26T10:42:09Z</time>
      </trkpt>
      <trkpt lat="48.79359" lon="2.23088">
        <ele>157.8</ele>
        <time>2024-05-26T10:42:10Z</time>
      </trkpt>
      <trkpt lat="48.7936" lon="2.23086">
        <ele>158.1</ele>
        <time>2024-05-26T10:42:11Z</time>
      </trkpt>
      <trkpt lat="48.7936" lon="2.23084">
        <ele>158.4</ele>
        <time>2024-05-26T10:42:12Z</time>
      </trkpt>
      <trkpt lat="48.7936" lon="2.23083">
        <ele>158.5</ele>
        <time>2024-05-26T10:42:13Z</time>
      </trkpt>
      <trkpt lat="48.7936" lon="2.23083">
        <ele>158.5</ele>
        <time>2024-05-26T10:42:14Z</time>
      </trkpt>
      <trkpt lat="48.7936" lon="2.23082">
        <ele>158.6</ele>
        <time>2024-05-26T10:42:15Z</time>
      </trkpt>
      <trkpt lat="48.7936" lon="2.23082">
        <ele>158.6</ele>
        <time>2024-05-26T10:42:16Z</time>
      </trkpt>
      <trkpt lat="48.7936" lon="2.23081">
        <ele>158.8</ele>
        <time>2024-05-26T10:42:17Z</time>
      </trkpt>
      <trkpt lat="48.7936" lon="2.23079">
        <ele>159</ele>
        <time>2024-05-26T10:42:18Z</time>
      </trkpt>
      <trkpt lat="48.7936" lon="2.23077">
        <ele>159.2</ele>
        <time>2024-05-26T10:42:19Z</time>
      </trkpt>
      <trkpt lat="48.79361" lon="2.23075">
        <ele>159.5</ele>
        <time>2024-05-26T10:42:20Z</time>
      </trkpt>
      <trkpt lat="48.79361" lon="2.23074">
        <ele>159.6</ele>
        <time>2024-05-26T10:42:21Z</time>
      </trkpt>
      <trkpt lat="48.79361" lon="2.23073">
        <ele>159.7</ele>
        <time>2024-05-26T10:42:22Z</time>
      </trkpt>
      <trkpt lat="48.79361" lon="2.23071">
        <ele>159.8</ele>
        <time>2024-05-26T10:42:23Z</time>
      </trkpt>
      <trkpt lat="48.79361" lon="2.23071">
        <ele>159.9</ele>
        <time>2024-05-26T10:42:24Z</time>
      </trkpt>
      <trkpt lat="48.79361" lon="2.23069">
        <ele>160</ele>
        <time>2024-05-26T10:42:25Z</time>
      </trkpt>
      <trkpt lat="48.79361" lon="2.23068">
        <ele>160.2</ele>
        <time>2024-05-26T10:42:26Z</time>
      </trkpt>
      <trkpt lat="48.79362" lon="2.23067">
        <ele>160.3</ele>
        <time>2024-05-26T10:42:27Z</time>
      </trkpt>
      <trkpt lat="48.79363" lon="2.23065">
        <ele>160.5</ele>
        <time>2024-05-26T10:42:28Z</time>
      </trkpt>
      <trkpt lat="48.79363" lon="2.23064">
        <ele>160.5</ele>
        <time>2024-05-26T10:42:29Z</time>
      </trkpt>
      <trkpt lat="48.79363" lon="2.23063">
        <ele>160.7</ele>
        <time>2024-05-26T10:42:30Z</time>
      </trkpt>
      <trkpt lat="48.79363" lon="2.23061">
        <ele>160.8</ele>
        <time>2024-05-26T10:42:31Z</time>
      </trkpt>
      <trkpt lat="48.79364" lon="2.23059">
        <ele>160.9</ele>
        <time>2024-05-26T10:42:32Z</time>
      </trkpt>
      <trkpt lat="48.79364" lon="2.23057">
        <ele>161.1</ele>
        <time>2024-05-26T10:42:33Z</time>
      </trkpt>
      <trkpt lat="48.79364" lon="2.23056">
        <ele>161.2</ele>
        <time>2024-05-26T10:42:34Z</time>
      </trkpt>
      <trkpt lat="48.79365" lon="2.23055">
        <ele>161.3</ele>
        <time>2024-05-26T10:42:35Z</time>
      </trkpt>
      <trkpt lat="48.79366" lon="2.23053">
        <ele>161.4</ele>
        <time>2024-05-26T10:42:36Z</time>
      </trkpt>
      <trkpt lat="48.79366" lon="2.23051">
        <ele>161.5</ele>
        <time>2024-05-26T10:42:37Z</time>
      </trkpt>
      <trkpt lat="48.79366" lon="2.2305">
        <ele>161.6</ele>
        <time>2024-05-26T10:42:38Z</time>
      </trkpt>
      <trkpt lat="48.79367" lon="2.23048">
        <ele>161.7</ele>
        <time>2024-05-26T10:42:39Z</time>
      </trkpt>
      <trkpt lat="48.79367" lon="2.23047">
        <ele>161.8</ele>
        <time>2024-05-26T10:42:40Z</time>
      </trkpt>
      <trkpt lat="48.79367" lon="2.23045">
        <ele>161.8</ele>
        <time>2024-05-26T10:42:41Z</time>
      </trkpt>
      <trkpt lat="48.79367" lon="2.23045">
        <ele>161.9</ele>
        <time>2024-05-26T10:42:42Z</time>
      </trkpt>
      <trkpt lat="48.79367" lon="2.23044">
        <ele>161.9</ele>
        <time>2024-05-26T10:42:43Z</time>
      </trkpt>
      <trkpt lat="48.79367" lon="2.23043">
        <ele>162</ele>
        <time>2024-05-26T10:42:44Z</time>
      </trkpt>
      <trkpt lat="48.79367" lon="2.23042">
        <ele>162</ele>
        <time>2024-05-26T10:42:45Z</time>
      </trkpt>
      <trkpt lat="48.79367" lon="2.23042">
        <ele>162</ele>
        <time>2024-05-26T10:42:46Z</time>
      </trkpt>
      <trkpt lat="48.79367" lon="2.23042">
        <ele>162</ele>
        <time>2024-05-26T10:42:47Z</time>
      </trkpt>
      <trkpt lat="48.79367" lon="2.23042">
        <ele>162.1</ele>
        <time>2024-05-26T10:42:48Z</time>
      </trkpt>
      <trkpt lat="48.79367" lon="2.23042">
        <ele>162.1</ele>
        <time>2024-05-26T10:42:49Z</time>
      </trkpt>
      <trkpt lat="48.79367" lon="2.23042">
        <ele>162.1</ele>
        <time>2024-05-26T10:42:50Z</time>
      </trkpt>
      <trkpt lat="48.79367" lon="2.23042">
        <ele>162.1</ele>
        <time>2024-05-26T10:42:51Z</time>
      </trkpt>
      <trkpt lat="48.79367" lon="2.23043">
        <ele>162.1</ele>
        <time>2024-05-26T10:42:52Z</time>
      </trkpt>
      <trkpt lat="48.79367" lon="2.23043">
        <ele>162.1</ele>
        <time>2024-05-26T10:42:53Z</time>
      </trkpt>
      <trkpt lat="48.79368" lon="2.23043">
        <ele>162.1</ele>
        <time>2024-05-26T10:42:54Z</time>
      </trkpt>
      <trkpt lat="48.79368" lon="2.23043">
        <ele>162.2</ele>
        <time>2024-05-26T10:42:55Z</time>
      </trkpt>
      <trkpt lat="48.79368" lon="2.23043">
        <ele>162.2</ele>
        <time>2024-05-26T10:42:56Z</time>
      </trkpt>
      <trkpt lat="48.79368" lon="2.23043">
        <ele>162.2</ele>
        <time>2024-05-26T10:42:57Z</time>
      </trkpt>
      <trkpt lat="48.79368" lon="2.23044">
        <ele>162.2</ele>
        <time>2024-05-26T10:42:58Z</time>
      </trkpt>
      <trkpt lat="48.79368" lon="2.23044">
        <ele>162.2</ele>
        <time>2024-05-26T10:42:59Z</time>
      </trkpt>
      <trkpt lat="48.79368" lon="2.23044">
        <ele>162.2</ele>
        <time>2024-05-26T10:43:00Z</time>
      </trkpt>
      <trkpt lat="48.79368" lon="2.23044">
        <ele>162.2</ele>
        <time>2024-05-26T10:43:01Z</time>
      </trkpt>
      <trkpt lat="48.79368" lon="2.23044">
        <ele>162.2</ele>
        <time>2024-05-26T10:43:02Z</time>
      </trkpt>
      <trkpt lat="48.79368" lon="2.23044">
        <ele>162.2</ele>
        <time>2024-05-26T10:43:03Z</time>
      </trkpt>
      <trkpt lat="48.79368" lon="2.23045">
        <ele>162.2</ele>
        <time>2024-05-26T10:43:04Z</time>
      </trkpt>
      <trkpt lat="48.79368" lon="2.23045">
        <ele>162.2</ele>
        <time>2024-05-26T10:43:05Z</time>
      </trkpt>
      <trkpt lat="48.79368" lon="2.23045">
        <ele>162.2</ele>
        <time>2024-05-26T10:43:06Z</time>
      </trkpt>
      <trkpt lat="48.79368" lon="2.23045">
        <ele>162.2</ele>
        <time>2024-05-26T10:43:07Z</time>
      </trkpt>
      <trkpt lat="48.79368" lon="2.23045">
        <ele>162.3</ele>
        <time>2024-05-26T10:43:08Z</time>
      </trkpt>
      <trkpt lat="48.79368" lon="2.23045">
        <ele>162.3</ele>
        <time>2024-05-26T10:43:09Z</time>
      </trkpt>
      <trkpt lat="48.79368" lon="2.23045">
        <ele>162.3</ele>
        <time>2024-05-26T10:43:10Z</time>
      </trkpt>
      <trkpt lat="48.79368" lon="2.23045">
        <ele>162.3</ele>
        <time>2024-05-26T10:43:11Z</time>
      </trkpt>
      <trkpt lat="48.79368" lon="2.23044">
        <ele>162.3</ele>
        <time>2024-05-26T10:43:12Z</time>
      </trkpt>
      <trkpt lat="48.79368" lon="2.23045">
        <ele>162.3</ele>
        <time>2024-05-26T10:43:13Z</time>
      </trkpt>
      <trkpt lat="48.79368" lon="2.23045">
        <ele>162.4</ele>
        <time>2024-05-26T10:43:14Z</time>
      </trkpt>
      <trkpt lat="48.79368" lon="2.23045">
        <ele>162.4</ele>
        <time>2024-05-26T10:43:15Z</time>
      </trkpt>
      <trkpt lat="48.79368" lon="2.23045">
        <ele>162.4</ele>
        <time>2024-05-26T10:43:16Z</time>
      </trkpt>
      <trkpt lat="48.79368" lon="2.23044">
        <ele>162.4</ele>
        <time>2024-05-26T10:43:17Z</time>
      </trkpt>
      <trkpt lat="48.79368" lon="2.23044">
        <ele>162.4</ele>
        <time>2024-05-26T10:43:18Z</time>
      </trkpt>
      <trkpt lat="48.79368" lon="2.23044">
        <ele>162.4</ele>
        <time>2024-05-26T10:43:19Z</time>
      </trkpt>
      <trkpt lat="48.79368" lon="2.23044">
        <ele>162.4</ele>
        <time>2024-05-26T10:43:20Z</time>
      </trkpt>
      <trkpt lat="48.79368" lon="2.23044">
        <ele>162.4</ele>
        <time>2024-05-26T10:43:21Z</time>
      </trkpt>
      <trkpt lat="48.79368" lon="2.23043">
        <ele>162.4</ele>
        <time>2024-05-26T10:43:22Z</time>
      </trkpt>
      <trkpt lat="48.79368" lon="2.23043">
        <ele>162.4</ele>
        <time>2024-05-26T10:43:23Z</time>
      </trkpt>
      <trkpt lat="48.79368" lon="2.23043">
        <ele>162.4</ele>
        <time>2024-05-26T10:43:24Z</time>
      </trkpt>
      <trkpt lat="48.79368" lon="2.23043">
        <ele>162.4</ele>
        <time>2024-05-26T10:43:25Z</time>
      </trkpt>
      <trkpt lat="48.79368" lon="2.23043">
        <ele>162.4</ele>
        <time>2024-05-26T10:43:26Z</time>
      </trkpt>
      <trkpt lat="48.79368" lon="2.23043">
        <ele>162.4</ele>
        <time>2024-05-26T10:43:27Z</time>
      </trkpt>
      <trkpt lat="48.79368" lon="2.23043">
        <ele>162.4</ele>
        <time>2024-05-26T10:43:28Z</time>
      </trkpt>
      <trkpt lat="48.79368" lon="2.23043">
        <ele>162.4</ele>
        <time>2024-05-26T10:43:29Z</time>
      </trkpt>
      <trkpt lat="48.79368" lon="2.23043">
        <ele>162.4</ele>
        <time>2024-05-26T10:43:30Z</time>
      </trkpt>
      <trkpt lat="48.79368" lon="2.23043">
        <ele>162.4</ele>
        <time>2024-05-26T10:43:31Z</time>
      </trkpt>
      <trkpt lat="48.79368" lon="2.23043">
        <ele>162.4</ele>
        <time>2024-05-26T10:43:32Z</time>
      </trkpt>
      <trkpt lat="48.79368" lon="2.23043">
        <ele>162.4</ele>
        <time>2024-05-26T10:43:33Z</time>
      </trkpt>
      <trkpt lat="48.79368" lon="2.23043">
        <ele>162.4</ele>
        <time>2024-05-26T10:43:34Z</time>
      </trkpt>
      <trkpt lat="48.79368" lon="2.23043">
        <ele>162.4</ele>
        <time>2024-05-26T10:43:35Z</time>
      </trkpt>
      <trkpt lat="48.79368" lon="2.23043">
        <ele>162.5</ele>
        <time>2024-05-26T10:43:36Z</time>
      </trkpt>
      <trkpt lat="48.79368" lon="2.23043">
        <ele>162.5</ele>
        <time>2024-05-26T10:43:37Z</time>
      </trkpt>
      <trkpt lat="48.79368" lon="2.23043">
        <ele>162.5</ele>
        <time>2024-05-26T10:43:38Z</time>
      </trkpt>
      <trkpt lat="48.79368" lon="2.23043">
        <ele>162.5</ele>
        <time>2024-05-26T10:43:39Z</time>
      </trkpt>
      <trkpt lat="48.79367" lon="2.23043">
        <ele>162.5</ele>
        <time>2024-05-26T10:43:40Z</time>
      </trkpt>
      <trkpt lat="48.79367" lon="2.23043">
        <ele>162.5</ele>
        <time>2024-05-26T10:43:41Z</time>
      </trkpt>
      <trkpt lat="48.79368" lon="2.23042">
        <ele>162.6</ele>
        <time>2024-05-26T10:43:42Z</time>
      </trkpt>
      <trkpt lat="48.79368" lon="2.23042">
        <ele>162.6</ele>
        <time>2024-05-26T10:43:43Z</time>
      </trkpt>
      <trkpt lat="48.79368" lon="2.23041">
        <ele>162.6</ele>
        <time>2024-05-26T10:43:44Z</time>
      </trkpt>
      <trkpt lat="48.79368" lon="2.23042">
        <ele>162.7</ele>
        <time>2024-05-26T10:43:45Z</time>
      </trkpt>
      <trkpt lat="48.79368" lon="2.23043">
        <ele>162.7</ele>
        <time>2024-05-26T10:43:46Z</time>
      </trkpt>
      <trkpt lat="48.79368" lon="2.23043">
        <ele>162.7</ele>
        <time>2024-05-26T10:43:47Z</time>
      </trkpt>
      <trkpt lat="48.79368" lon="2.23043">
        <ele>162.7</ele>
        <time>2024-05-26T10:43:48Z</time>
      </trkpt>
      <trkpt lat="48.79368" lon="2.23044">
        <ele>162.7</ele>
        <time>2024-05-26T10:43:49Z</time>
      </trkpt>
      <trkpt lat="48.79368" lon="2.23043">
        <ele>162.7</ele>
        <time>2024-05-26T10:43:50Z</time>
      </trkpt>
      <trkpt lat="48.79368" lon="2.23043">
        <ele>162.8</ele>
        <time>2024-05-26T10:43:51Z</time>
      </trkpt>
      <trkpt lat="48.79368" lon="2.23043">
        <ele>162.8</ele>
        <time>2024-05-26T10:43:52Z</time>
      </trkpt>
      <trkpt lat="48.79368" lon="2.23044">
        <ele>162.8</ele>
        <time>2024-05-26T10:43:53Z</time>
      </trkpt>
      <trkpt lat="48.79368" lon="2.23044">
        <ele>162.8</ele>
        <time>2024-05-26T10:43:54Z</time>
      </trkpt>
      <trkpt lat="48.79368" lon="2.23044">
        <ele>162.8</ele>
        <time>2024-05-26T10:43:55Z</time>
      </trkpt>
      <trkpt lat="48.79369" lon="2.23044">
        <ele>162.8</ele>
        <time>2024-05-26T10:43:56Z</time>
      </trkpt>
      <trkpt lat="48.79369" lon="2.23044">
        <ele>162.8</ele>
        <time>2024-05-26T10:43:57Z</time>
      </trkpt>
      <trkpt lat="48.79369" lon="2.23044">
        <ele>162.8</ele>
        <time>2024-05-26T10:43:58Z</time>
      </trkpt>
      <trkpt lat="48.79369" lon="2.23044">
        <ele>162.8</ele>
        <time>2024-05-26T10:43:59Z</time>
      </trkpt>
      <trkpt lat="48.79369" lon="2.23044">
        <ele>162.8</ele>
        <time>2024-05-26T10:44:00Z</time>
      </trkpt>
      <trkpt lat="48.79369" lon="2.23044">
        <ele>162.8</ele>
        <time>2024-05-26T10:44:01Z</time>
      </trkpt>
      <trkpt lat="48.79369" lon="2.23044">
        <ele>162.9</ele>
        <time>2024-05-26T10:44:02Z</time>
      </trkpt>
      <trkpt lat="48.79369" lon="2.23044">
        <ele>162.9</ele>
        <time>2024-05-26T10:44:03Z</time>
      </trkpt>
      <trkpt lat="48.79369" lon="2.23042">
        <ele>162.9</ele>
        <time>2024-05-26T10:44:04Z</time>
      </trkpt>
      <trkpt lat="48.79369" lon="2.2304">
        <ele>163</ele>
        <time>2024-05-26T10:44:05Z</time>
      </trkpt>
      <trkpt lat="48.79369" lon="2.23039">
        <ele>163.1</ele>
        <time>2024-05-26T10:44:06Z</time>
      </trkpt>
      <trkpt lat="48.79369" lon="2.23039">
        <ele>163.1</ele>
        <time>2024-05-26T10:44:07Z</time>
      </trkpt>
      <trkpt lat="48.79369" lon="2.23038">
        <ele>163.1</ele>
        <time>2024-05-26T10:44:08Z</time>
      </trkpt>
      <trkpt lat="48.79369" lon="2.23038">
        <ele>163.1</ele>
        <time>2024-05-26T10:44:09Z</time>
      </trkpt>
      <trkpt lat="48.79369" lon="2.23037">
        <ele>163.2</ele>
        <time>2024-05-26T10:44:10Z</time>
      </trkpt>
      <trkpt lat="48.79369" lon="2.23036">
        <ele>163.2</ele>
        <time>2024-05-26T10:44:11Z</time>
      </trkpt>
      <trkpt lat="48.79369" lon="2.23035">
        <ele>163.2</ele>
        <time>2024-05-26T10:44:12Z</time>
      </trkpt>
      <trkpt lat="48.7937" lon="2.23033">
        <ele>163.3</ele>
        <time>2024-05-26T10:44:13Z</time>
      </trkpt>
      <trkpt lat="48.79369" lon="2.23032">
        <ele>163.3</ele>
        <time>2024-05-26T10:44:14Z</time>
      </trkpt>
      <trkpt lat="48.7937" lon="2.2303">
        <ele>163.4</ele>
        <time>2024-05-26T10:44:15Z</time>
      </trkpt>
      <trkpt lat="48.7937" lon="2.23029">
        <ele>163.5</ele>
        <time>2024-05-26T10:44:16Z</time>
      </trkpt>
      <trkpt lat="48.79371" lon="2.23027">
        <ele>163.5</ele>
        <time>2024-05-26T10:44:17Z</time>
      </trkpt>
      <trkpt lat="48.79371" lon="2.23026">
        <ele>163.6</ele>
        <time>2024-05-26T10:44:18Z</time>
      </trkpt>
      <trkpt lat="48.79372" lon="2.23023">
        <ele>163.7</ele>
        <time>2024-05-26T10:44:19Z</time>
      </trkpt>
      <trkpt lat="48.79372" lon="2.23022">
        <ele>163.7</ele>
        <time>2024-05-26T10:44:20Z</time>
      </trkpt>
      <trkpt lat="48.79372" lon="2.23021">
        <ele>163.7</ele>
        <time>2024-05-26T10:44:21Z</time>
      </trkpt>
      <trkpt lat="48.79372" lon="2.2302">
        <ele>163.8</ele>
        <time>2024-05-26T10:44:22Z</time>
      </trkpt>
      <trkpt lat="48.79373" lon="2.23016">
        <ele>163.9</ele>
        <time>2024-05-26T10:44:23Z</time>
      </trkpt>
      <trkpt lat="48.79373" lon="2.23015">
        <ele>163.9</ele>
        <time>2024-05-26T10:44:24Z</time>
      </trkpt>
      <trkpt lat="48.79373" lon="2.23014">
        <ele>164</ele>
        <time>2024-05-26T10:44:25Z</time>
      </trkpt>
      <trkpt lat="48.79374" lon="2.23012">
        <ele>164</ele>
        <time>2024-05-26T10:44:26Z</time>
      </trkpt>
      <trkpt lat="48.79374" lon="2.23011">
        <ele>164.1</ele>
        <time>2024-05-26T10:44:27Z</time>
      </trkpt>
      <trkpt lat="48.79374" lon="2.23009">
        <ele>164.1</ele>
        <time>2024-05-26T10:44:28Z</time>
      </trkpt>
      <trkpt lat="48.79375" lon="2.23007">
        <ele>164.2</ele>
        <time>2024-05-26T10:44:29Z</time>
      </trkpt>
      <trkpt lat="48.79376" lon="2.23005">
        <ele>164.2</ele>
        <time>2024-05-26T10:44:30Z</time>
      </trkpt>
      <trkpt lat="48.79376" lon="2.23003">
        <ele>164.3</ele>
        <time>2024-05-26T10:44:31Z</time>
      </trkpt>
      <trkpt lat="48.79377" lon="2.23001">
        <ele>164.4</ele>
        <time>2024-05-26T10:44:32Z</time>
      </trkpt>
      <trkpt lat="48.79377" lon="2.22999">
        <ele>164.4</ele>
        <time>2024-05-26T10:44:33Z</time>
      </trkpt>
      <trkpt lat="48.79377" lon="2.22997">
        <ele>164.5</ele>
        <time>2024-05-26T10:44:34Z</time>
      </trkpt>
      <trkpt lat="48.79378" lon="2.22995">
        <ele>164.5</ele>
        <time>2024-05-26T10:44:35Z</time>
      </trkpt>
      <trkpt lat="48.79379" lon="2.22993">
        <ele>164.6</ele>
        <time>2024-05-26T10:44:36Z</time>
      </trkpt>
      <trkpt lat="48.79379" lon="2.22991">
        <ele>164.7</ele>
        <time>2024-05-26T10:44:37Z</time>
      </trkpt>
      <trkpt lat="48.7938" lon="2.2299">
        <ele>164.7</ele>
        <time>2024-05-26T10:44:38Z</time>
      </trkpt>
      <trkpt lat="48.7938" lon="2.22988">
        <ele>164.7</ele>
        <time>2024-05-26T10:44:39Z</time>
      </trkpt>
      <trkpt lat="48.7938" lon="2.22986">
        <ele>164.8</ele>
        <time>2024-05-26T10:44:40Z</time>
      </trkpt>
      <trkpt lat="48.79381" lon="2.22983">
        <ele>164.8</ele>
        <time>2024-05-26T10:44:41Z</time>
      </trkpt>
      <trkpt lat="48.79381" lon="2.22981">
        <ele>164.9</ele>
        <time>2024-05-26T10:44:42Z</time>
      </trkpt>
      <trkpt lat="48.79381" lon="2.22979">
        <ele>164.9</ele>
        <time>2024-05-26T10:44:43Z</time>
      </trkpt>
      <trkpt lat="48.79381" lon="2.22977">
        <ele>165</ele>
        <time>2024-05-26T10:44:44Z</time>
      </trkpt>
      <trkpt lat="48.79381" lon="2.22976">
        <ele>165</ele>
        <time>2024-05-26T10:44:45Z</time>
      </trkpt>
      <trkpt lat="48.79381" lon="2.22974">
        <ele>165</ele>
        <time>2024-05-26T10:44:46Z</time>
      </trkpt>
      <trkpt lat="48.79382" lon="2.22972">
        <ele>165.1</ele>
        <time>2024-05-26T10:44:47Z</time>
      </trkpt>
      <trkpt lat="48.79383" lon="2.22969">
        <ele>165.1</ele>
        <time>2024-05-26T10:44:48Z</time>
      </trkpt>
      <trkpt lat="48.79383" lon="2.22968">
        <ele>165.1</ele>
        <time>2024-05-26T10:44:49Z</time>
      </trkpt>
      <trkpt lat="48.79383" lon="2.22966">
        <ele>165.1</ele>
        <time>2024-05-26T10:44:50Z</time>
      </trkpt>
      <trkpt lat="48.79384" lon="2.22964">
        <ele>165.2</ele>
        <time>2024-05-26T10:44:51Z</time>
      </trkpt>
      <trkpt lat="48.79385" lon="2.22962">
        <ele>165.2</ele>
        <time>2024-05-26T10:44:52Z</time>
      </trkpt>
      <trkpt lat="48.79385" lon="2.22961">
        <ele>165.2</ele>
        <time>2024-05-26T10:44:53Z</time>
      </trkpt>
      <trkpt lat="48.79385" lon="2.2296">
        <ele>165.2</ele>
        <time>2024-05-26T10:44:54Z</time>
      </trkpt>
      <trkpt lat="48.79385" lon="2.22958">
        <ele>165.2</ele>
        <time>2024-05-26T10:44:55Z</time>
      </trkpt>
      <trkpt lat="48.79385" lon="2.22957">
        <ele>165.3</ele>
        <time>2024-05-26T10:44:56Z</time>
      </trkpt>
      <trkpt lat="48.79385" lon="2.22954">
        <ele>165.3</ele>
        <time>2024-05-26T10:44:57Z</time>
      </trkpt>
      <trkpt lat="48.79385" lon="2.22953">
        <ele>165.3</ele>
        <time>2024-05-26T10:44:58Z</time>
      </trkpt>
      <trkpt lat="48.79385" lon="2.22951">
        <ele>165.3</ele>
        <time>2024-05-26T10:44:59Z</time>
      </trkpt>
      <trkpt lat="48.79385" lon="2.2295">
        <ele>165.3</ele>
        <time>2024-05-26T10:45:00Z</time>
      </trkpt>
      <trkpt lat="48.79386" lon="2.22947">
        <ele>165.3</ele>
        <time>2024-05-26T10:45:01Z</time>
      </trkpt>
      <trkpt lat="48.79387" lon="2.22943">
        <ele>165.3</ele>
        <time>2024-05-26T10:45:02Z</time>
      </trkpt>
      <trkpt lat="48.79387" lon="2.22941">
        <ele>165.3</ele>
        <time>2024-05-26T10:45:03Z</time>
      </trkpt>
      <trkpt lat="48.79388" lon="2.22937">
        <ele>165.3</ele>
        <time>2024-05-26T10:45:04Z</time>
      </trkpt>
      <trkpt lat="48.79389" lon="2.22936">
        <ele>165.3</ele>
        <time>2024-05-26T10:45:05Z</time>
      </trkpt>
      <trkpt lat="48.79389" lon="2.22932">
        <ele>165.3</ele>
        <time>2024-05-26T10:45:06Z</time>
      </trkpt>
      <trkpt lat="48.7939" lon="2.22931">
        <ele>165.3</ele>
        <time>2024-05-26T10:45:07Z</time>
      </trkpt>
      <trkpt lat="48.7939" lon="2.22928">
        <ele>165.3</ele>
        <time>2024-05-26T10:45:08Z</time>
      </trkpt>
      <trkpt lat="48.7939" lon="2.22926">
        <ele>165.3</ele>
        <time>2024-05-26T10:45:09Z</time>
      </trkpt>
      <trkpt lat="48.79391" lon="2.22923">
        <ele>165.3</ele>
        <time>2024-05-26T10:45:10Z</time>
      </trkpt>
      <trkpt lat="48.79391" lon="2.22921">
        <ele>165.2</ele>
        <time>2024-05-26T10:45:11Z</time>
      </trkpt>
      <trkpt lat="48.79392" lon="2.22916">
        <ele>165.2</ele>
        <time>2024-05-26T10:45:12Z</time>
      </trkpt>
      <trkpt lat="48.79393" lon="2.22915">
        <ele>165.2</ele>
        <time>2024-05-26T10:45:13Z</time>
      </trkpt>
      <trkpt lat="48.79393" lon="2.22913">
        <ele>165.2</ele>
        <time>2024-05-26T10:45:14Z</time>
      </trkpt>
      <trkpt lat="48.79394" lon="2.22911">
        <ele>165.2</ele>
        <time>2024-05-26T10:45:15Z</time>
      </trkpt>
      <trkpt lat="48.79394" lon="2.22908">
        <ele>165.1</ele>
        <time>2024-05-26T10:45:16Z</time>
      </trkpt>
      <trkpt lat="48.79394" lon="2.22906">
        <ele>165.1</ele>
        <time>2024-05-26T10:45:17Z</time>
      </trkpt>
      <trkpt lat="48.79394" lon="2.22905">
        <ele>165.1</ele>
        <time>2024-05-26T10:45:18Z</time>
      </trkpt>
      <trkpt lat="48.79395" lon="2.22903">
        <ele>165.1</ele>
        <time>2024-05-26T10:45:19Z</time>
      </trkpt>
      <trkpt lat="48.79395" lon="2.22901">
        <ele>165.1</ele>
        <time>2024-05-26T10:45:20Z</time>
      </trkpt>
      <trkpt lat="48.79396" lon="2.229">
        <ele>165</ele>
        <time>2024-05-26T10:45:21Z</time>
      </trkpt>
      <trkpt lat="48.79396" lon="2.22899">
        <ele>165</ele>
        <time>2024-05-26T10:45:22Z</time>
      </trkpt>
      <trkpt lat="48.79396" lon="2.22898">
        <ele>165</ele>
        <time>2024-05-26T10:45:23Z</time>
      </trkpt>
      <trkpt lat="48.79397" lon="2.22896">
        <ele>165</ele>
        <time>2024-05-26T10:45:24Z</time>
      </trkpt>
      <trkpt lat="48.79397" lon="2.22894">
        <ele>165</ele>
        <time>2024-05-26T10:45:25Z</time>
      </trkpt>
      <trkpt lat="48.79398" lon="2.22892">
        <ele>165</ele>
        <time>2024-05-26T10:45:26Z</time>
      </trkpt>
      <trkpt lat="48.79398" lon="2.22889">
        <ele>164.9</ele>
        <time>2024-05-26T10:45:27Z</time>
      </trkpt>
      <trkpt lat="48.79398" lon="2.22888">
        <ele>164.9</ele>
        <time>2024-05-26T10:45:28Z</time>
      </trkpt>
      <trkpt lat="48.79398" lon="2.22887">
        <ele>164.9</ele>
        <time>2024-05-26T10:45:29Z</time>
      </trkpt>
      <trkpt lat="48.79399" lon="2.22883">
        <ele>164.8</ele>
        <time>2024-05-26T10:45:30Z</time>
      </trkpt>
      <trkpt lat="48.79399" lon="2.22882">
        <ele>164.8</ele>
        <time>2024-05-26T10:45:31Z</time>
      </trkpt>
      <trkpt lat="48.79399" lon="2.22881">
        <ele>164.8</ele>
        <time>2024-05-26T10:45:32Z</time>
      </trkpt>
      <trkpt lat="48.794" lon="2.22878">
        <ele>164.8</ele>
        <time>2024-05-26T10:45:33Z</time>
      </trkpt>
      <trkpt lat="48.794" lon="2.22876">
        <ele>164.7</ele>
        <time>2024-05-26T10:45:34Z</time>
      </trkpt>
      <trkpt lat="48.794" lon="2.22875">
        <ele>164.7</ele>
        <time>2024-05-26T10:45:35Z</time>
      </trkpt>
      <trkpt lat="48.79401" lon="2.22873">
        <ele>164.7</ele>
        <time>2024-05-26T10:45:36Z</time>
      </trkpt>
      <trkpt lat="48.79401" lon="2.22872">
        <ele>164.6</ele>
        <time>2024-05-26T10:45:37Z</time>
      </trkpt>
      <trkpt lat="48.79401" lon="2.2287">
        <ele>164.6</ele>
        <time>2024-05-26T10:45:38Z</time>
      </trkpt>
      <trkpt lat="48.79401" lon="2.22868">
        <ele>164.6</ele>
        <time>2024-05-26T10:45:39Z</time>
      </trkpt>
      <trkpt lat="48.79401" lon="2.22866">
        <ele>164.5</ele>
        <time>2024-05-26T10:45:40Z</time>
      </trkpt>
      <trkpt lat="48.79402" lon="2.22864">
        <ele>164.5</ele>
        <time>2024-05-26T10:45:41Z</time>
      </trkpt>
      <trkpt lat="48.79402" lon="2.22863">
        <ele>164.4</ele>
        <time>2024-05-26T10:45:42Z</time>
      </trkpt>
      <trkpt lat="48.79403" lon="2.22861">
        <ele>164.4</ele>
        <time>2024-05-26T10:45:43Z</time>
      </trkpt>
      <trkpt lat="48.79404" lon="2.22858">
        <ele>164.3</ele>
        <time>2024-05-26T10:45:44Z</time>
      </trkpt>
      <trkpt lat="48.79404" lon="2.22857">
        <ele>164.2</ele>
        <time>2024-05-26T10:45:45Z</time>
      </trkpt>
      <trkpt lat="48.79404" lon="2.22855">
        <ele>164.2</ele>
        <time>2024-05-26T10:45:46Z</time>
      </trkpt>
      <trkpt lat="48.79404" lon="2.22855">
        <ele>164.2</ele>
        <time>2024-05-26T10:45:47Z</time>
      </trkpt>
      <trkpt lat="48.79405" lon="2.22853">
        <ele>164.1</ele>
        <time>2024-05-26T10:45:48Z</time>
      </trkpt>
      <trkpt lat="48.79406" lon="2.22851">
        <ele>164</ele>
        <time>2024-05-26T10:45:49Z</time>
      </trkpt>
      <trkpt lat="48.79406" lon="2.2285">
        <ele>164</ele>
        <time>2024-05-26T10:45:50Z</time>
      </trkpt>
      <trkpt lat="48.79407" lon="2.22848">
        <ele>163.9</ele>
        <time>2024-05-26T10:45:51Z</time>
      </trkpt>
      <trkpt lat="48.79407" lon="2.22846">
        <ele>163.8</ele>
        <time>2024-05-26T10:45:52Z</time>
      </trkpt>
      <trkpt lat="48.79409" lon="2.22845">
        <ele>163.7</ele>
        <time>2024-05-26T10:45:53Z</time>
      </trkpt>
      <trkpt lat="48.7941" lon="2.22844">
        <ele>163.7</ele>
        <time>2024-05-26T10:45:54Z</time>
      </trkpt>
      <trkpt lat="48.7941" lon="2.22844">
        <ele>163.6</ele>
        <time>2024-05-26T10:45:55Z</time>
      </trkpt>
      <trkpt lat="48.79413" lon="2.22843">
        <ele>163.6</ele>
        <time>2024-05-26T10:45:56Z</time>
      </trkpt>
      <trkpt lat="48.79413" lon="2.22843">
        <ele>163.5</ele>
        <time>2024-05-26T10:45:57Z</time>
      </trkpt>
      <trkpt lat="48.79414" lon="2.22843">
        <ele>163.5</ele>
        <time>2024-05-26T10:45:58Z</time>
      </trkpt>
      <trkpt lat="48.79415" lon="2.22843">
        <ele>163.5</ele>
        <time>2024-05-26T10:45:59Z</time>
      </trkpt>
      <trkpt lat="48.79417" lon="2.22843">
        <ele>163.4</ele>
        <time>2024-05-26T10:46:00Z</time>
      </trkpt>
      <trkpt lat="48.79418" lon="2.22843">
        <ele>163.4</ele>
        <time>2024-05-26T10:46:01Z</time>
      </trkpt>
      <trkpt lat="48.79419" lon="2.22844">
        <ele>163.3</ele>
        <time>2024-05-26T10:46:02Z</time>
      </trkpt>
      <trkpt lat="48.7942" lon="2.22844">
        <ele>163.3</ele>
        <time>2024-05-26T10:46:03Z</time>
      </trkpt>
      <trkpt lat="48.79422" lon="2.22845">
        <ele>163.2</ele>
        <time>2024-05-26T10:46:04Z</time>
      </trkpt>
      <trkpt lat="48.79423" lon="2.22846">
        <ele>163.2</ele>
        <time>2024-05-26T10:46:05Z</time>
      </trkpt>
      <trkpt lat="48.79424" lon="2.22846">
        <ele>163.1</ele>
        <time>2024-05-26T10:46:06Z</time>
      </trkpt>
      <trkpt lat="48.79424" lon="2.22847">
        <ele>163.1</ele>
        <time>2024-05-26T10:46:07Z</time>
      </trkpt>
      <trkpt lat="48.79425" lon="2.22847">
        <ele>163.1</ele>
        <time>2024-05-26T10:46:08Z</time>
      </trkpt>
      <trkpt lat="48.79425" lon="2.22847">
        <ele>163.1</ele>
        <time>2024-05-26T10:46:09Z</time>
      </trkpt>
      <trkpt lat="48.79425" lon="2.22847">
        <ele>163</ele>
        <time>2024-05-26T10:46:10Z</time>
      </trkpt>
      <trkpt lat="48.79426" lon="2.22847">
        <ele>163</ele>
        <time>2024-05-26T10:46:11Z</time>
      </trkpt>
      <trkpt lat="48.79427" lon="2.22848">
        <ele>162.9</ele>
        <time>2024-05-26T10:46:12Z</time>
      </trkpt>
      <trkpt lat="48.79427" lon="2.22848">
        <ele>162.9</ele>
        <time>2024-05-26T10:46:13Z</time>
      </trkpt>
      <trkpt lat="48.79428" lon="2.22848">
        <ele>162.9</ele>
        <time>2024-05-26T10:46:14Z</time>
      </trkpt>
      <trkpt lat="48.79428" lon="2.22848">
        <ele>162.9</ele>
        <time>2024-05-26T10:46:15Z</time>
      </trkpt>
      <trkpt lat="48.79429" lon="2.2285">
        <ele>162.8</ele>
        <time>2024-05-26T10:46:16Z</time>
      </trkpt>
      <trkpt lat="48.7943" lon="2.2285">
        <ele>162.8</ele>
        <time>2024-05-26T10:46:17Z</time>
      </trkpt>
      <trkpt lat="48.79431" lon="2.22851">
        <ele>162.7</ele>
        <time>2024-05-26T10:46:18Z</time>
      </trkpt>
      <trkpt lat="48.79431" lon="2.22852">
        <ele>162.7</ele>
        <time>2024-05-26T10:46:19Z</time>
      </trkpt>
      <trkpt lat="48.79433" lon="2.22854">
        <ele>162.6</ele>
        <time>2024-05-26T10:46:20Z</time>
      </trkpt>
      <trkpt lat="48.79434" lon="2.22855">
        <ele>162.5</ele>
        <time>2024-05-26T10:46:21Z</time>
      </trkpt>
      <trkpt lat="48.79435" lon="2.22858">
        <ele>162.5</ele>
        <time>2024-05-26T10:46:22Z</time>
      </trkpt>
      <trkpt lat="48.79436" lon="2.22859">
        <ele>162.4</ele>
        <time>2024-05-26T10:46:23Z</time>
      </trkpt>
      <trkpt lat="48.79436" lon="2.2286">
        <ele>162.4</ele>
        <time>2024-05-26T10:46:24Z</time>
      </trkpt>
      <trkpt lat="48.79437" lon="2.22863">
        <ele>162.3</ele>
        <time>2024-05-26T10:46:25Z</time>
      </trkpt>
      <trkpt lat="48.79438" lon="2.22864">
        <ele>162.3</ele>
        <time>2024-05-26T10:46:26Z</time>
      </trkpt>
      <trkpt lat="48.79438" lon="2.22865">
        <ele>162.2</ele>
        <time>2024-05-26T10:46:27Z</time>
      </trkpt>
      <trkpt lat="48.79439" lon="2.22865">
        <ele>162.2</ele>
        <time>2024-05-26T10:46:28Z</time>
      </trkpt>
      <trkpt lat="48.7944" lon="2.22867">
        <ele>162.1</ele>
        <time>2024-05-26T10:46:29Z</time>
      </trkpt>
      <trkpt lat="48.7944" lon="2.22868">
        <ele>162.1</ele>
        <time>2024-05-26T10:46:30Z</time>
      </trkpt>
      <trkpt lat="48.79443" lon="2.22871">
        <ele>161.9</ele>
        <time>2024-05-26T10:46:31Z</time>
      </trkpt>
      <trkpt lat="48.79443" lon="2.22871">
        <ele>161.9</ele>
        <time>2024-05-26T10:46:32Z</time>
      </trkpt>
      <trkpt lat="48.79444" lon="2.22872">
        <ele>161.8</ele>
        <time>2024-05-26T10:46:33Z</time>
      </trkpt>
      <trkpt lat="48.79445" lon="2.22872">
        <ele>161.8</ele>
        <time>2024-05-26T10:46:34Z</time>
      </trkpt>
      <trkpt lat="48.79446" lon="2.22872">
        <ele>161.8</ele>
        <time>2024-05-26T10:46:35Z</time>
      </trkpt>
      <trkpt lat="48.79447" lon="2.22874">
        <ele>161.7</ele>
        <time>2024-05-26T10:46:36Z</time>
      </trkpt>
      <trkpt lat="48.79448" lon="2.22875">
        <ele>161.6</ele>
        <time>2024-05-26T10:46:37Z</time>
      </trkpt>
      <trkpt lat="48.7945" lon="2.22877">
        <ele>161.5</ele>
        <time>2024-05-26T10:46:38Z</time>
      </trkpt>
      <trkpt lat="48.7945" lon="2.22878">
        <ele>161.5</ele>
        <time>2024-05-26T10:46:39Z</time>
      </trkpt>
      <trkpt lat="48.79451" lon="2.22878">
        <ele>161.4</ele>
        <time>2024-05-26T10:46:40Z</time>
      </trkpt>
      <trkpt lat="48.79452" lon="2.22879">
        <ele>161.4</ele>
        <time>2024-05-26T10:46:41Z</time>
      </trkpt>
      <trkpt lat="48.79453" lon="2.22881">
        <ele>161.3</ele>
        <time>2024-05-26T10:46:42Z</time>
      </trkpt>
      <trkpt lat="48.79454" lon="2.22882">
        <ele>161.2</ele>
        <time>2024-05-26T10:46:43Z</time>
      </trkpt>
      <trkpt lat="48.79455" lon="2.22883">
        <ele>161.1</ele>
        <time>2024-05-26T10:46:44Z</time>
      </trkpt>
      <trkpt lat="48.79456" lon="2.22884">
        <ele>161.1</ele>
        <time>2024-05-26T10:46:45Z</time>
      </trkpt>
      <trkpt lat="48.79457" lon="2.22884">
        <ele>161</ele>
        <time>2024-05-26T10:46:46Z</time>
      </trkpt>
      <trkpt lat="48.79459" lon="2.22886">
        <ele>160.9</ele>
        <time>2024-05-26T10:46:47Z</time>
      </trkpt>
      <trkpt lat="48.7946" lon="2.22886">
        <ele>160.8</ele>
        <time>2024-05-26T10:46:48Z</time>
      </trkpt>
      <trkpt lat="48.79461" lon="2.22886">
        <ele>160.8</ele>
        <time>2024-05-26T10:46:49Z</time>
      </trkpt>
      <trkpt lat="48.79462" lon="2.22886">
        <ele>160.7</ele>
        <time>2024-05-26T10:46:50Z</time>
      </trkpt>
      <trkpt lat="48.79463" lon="2.22886">
        <ele>160.7</ele>
        <time>2024-05-26T10:46:51Z</time>
      </trkpt>
      <trkpt lat="48.79463" lon="2.22887">
        <ele>160.6</ele>
        <time>2024-05-26T10:46:52Z</time>
      </trkpt>
      <trkpt lat="48.79464" lon="2.22888">
        <ele>160.5</ele>
        <time>2024-05-26T10:46:53Z</time>
      </trkpt>
      <trkpt lat="48.79465" lon="2.22888">
        <ele>160.5</ele>
        <time>2024-05-26T10:46:54Z</time>
      </trkpt>
      <trkpt lat="48.79467" lon="2.22889">
        <ele>160.4</ele>
        <time>2024-05-26T10:46:55Z</time>
      </trkpt>
      <trkpt lat="48.79468" lon="2.2289">
        <ele>160.3</ele>
        <time>2024-05-26T10:46:56Z</time>
      </trkpt>
      <trkpt lat="48.7947" lon="2.22891">
        <ele>160.2</ele>
        <time>2024-05-26T10:46:57Z</time>
      </trkpt>
      <trkpt lat="48.79471" lon="2.22891">
        <ele>160.1</ele>
        <time>2024-05-26T10:46:58Z</time>
      </trkpt>
      <trkpt lat="48.79472" lon="2.22891">
        <ele>160</ele>
        <time>2024-05-26T10:46:59Z</time>
      </trkpt>
      <trkpt lat="48.79473" lon="2.22892">
        <ele>159.9</ele>
        <time>2024-05-26T10:47:00Z</time>
      </trkpt>
      <trkpt lat="48.79474" lon="2.22893">
        <ele>159.9</ele>
        <time>2024-05-26T10:47:01Z</time>
      </trkpt>
      <trkpt lat="48.79476" lon="2.22894">
        <ele>159.8</ele>
        <time>2024-05-26T10:47:02Z</time>
      </trkpt>
      <trkpt lat="48.79478" lon="2.22895">
        <ele>159.6</ele>
        <time>2024-05-26T10:47:03Z</time>
      </trkpt>
      <trkpt lat="48.79479" lon="2.22896">
        <ele>159.5</ele>
        <time>2024-05-26T10:47:04Z</time>
      </trkpt>
      <trkpt lat="48.7948" lon="2.22897">
        <ele>159.5</ele>
        <time>2024-05-26T10:47:05Z</time>
      </trkpt>
      <trkpt lat="48.79481" lon="2.22898">
        <ele>159.4</ele>
        <time>2024-05-26T10:47:06Z</time>
      </trkpt>
      <trkpt lat="48.79482" lon="2.229">
        <ele>159.3</ele>
        <time>2024-05-26T10:47:07Z</time>
      </trkpt>
      <trkpt lat="48.79483" lon="2.229">
        <ele>159.2</ele>
        <time>2024-05-26T10:47:08Z</time>
      </trkpt>
      <trkpt lat="48.79484" lon="2.22902">
        <ele>159.1</ele>
        <time>2024-05-26T10:47:09Z</time>
      </trkpt>
      <trkpt lat="48.79485" lon="2.22903">
        <ele>159.1</ele>
        <time>2024-05-26T10:47:10Z</time>
      </trkpt>
      <trkpt lat="48.79487" lon="2.22908">
        <ele>158.8</ele>
        <time>2024-05-26T10:47:11Z</time>
      </trkpt>
      <trkpt lat="48.79489" lon="2.2291">
        <ele>158.7</ele>
        <time>2024-05-26T10:47:12Z</time>
      </trkpt>
      <trkpt lat="48.7949" lon="2.22911">
        <ele>158.6</ele>
        <time>2024-05-26T10:47:13Z</time>
      </trkpt>
      <trkpt lat="48.7949" lon="2.22912">
        <ele>158.6</ele>
        <time>2024-05-26T10:47:14Z</time>
      </trkpt>
      <trkpt lat="48.79491" lon="2.22913">
        <ele>158.5</ele>
        <time>2024-05-26T10:47:15Z</time>
      </trkpt>
      <trkpt lat="48.79491" lon="2.22913">
        <ele>158.5</ele>
        <time>2024-05-26T10:47:16Z</time>
      </trkpt>
      <trkpt lat="48.79492" lon="2.22913">
        <ele>158.4</ele>
        <time>2024-05-26T10:47:17Z</time>
      </trkpt>
      <trkpt lat="48.79493" lon="2.22913">
        <ele>158.3</ele>
        <time>2024-05-26T10:47:18Z</time>
      </trkpt>
      <trkpt lat="48.79494" lon="2.22913">
        <ele>158.2</ele>
        <time>2024-05-26T10:47:19Z</time>
      </trkpt>
      <trkpt lat="48.79495" lon="2.22912">
        <ele>158.1</ele>
        <time>2024-05-26T10:47:20Z</time>
      </trkpt>
      <trkpt lat="48.79496" lon="2.22911">
        <ele>158</ele>
        <time>2024-05-26T10:47:21Z</time>
      </trkpt>
      <trkpt lat="48.79498" lon="2.22912">
        <ele>157.8</ele>
        <time>2024-05-26T10:47:22Z</time>
      </trkpt>
      <trkpt lat="48.79499" lon="2.22912">
        <ele>157.7</ele>
        <time>2024-05-26T10:47:23Z</time>
      </trkpt>
      <trkpt lat="48.795" lon="2.22912">
        <ele>157.6</ele>
        <time>2024-05-26T10:47:24Z</time>
      </trkpt>
      <trkpt lat="48.79501" lon="2.22912">
        <ele>157.5</ele>
        <time>2024-05-26T10:47:25Z</time>
      </trkpt>
      <trkpt lat="48.79501" lon="2.22912">
        <ele>157.4</ele>
        <time>2024-05-26T10:47:26Z</time>
      </trkpt>
      <trkpt lat="48.79502" lon="2.22911">
        <ele>157.3</ele>
        <time>2024-05-26T10:47:27Z</time>
      </trkpt>
      <trkpt lat="48.79502" lon="2.22911">
        <ele>157.3</ele>
        <time>2024-05-26T10:47:28Z</time>
      </trkpt>
      <trkpt lat="48.79503" lon="2.22911">
        <ele>157.2</ele>
        <time>2024-05-26T10:47:29Z</time>
      </trkpt>
      <trkpt lat="48.79504" lon="2.22911">
        <ele>157.1</ele>
        <time>2024-05-26T10:47:30Z</time>
      </trkpt>
      <trkpt lat="48.79505" lon="2.22911">
        <ele>156.9</ele>
        <time>2024-05-26T10:47:31Z</time>
      </trkpt>
      <trkpt lat="48.79506" lon="2.22911">
        <ele>156.8</ele>
        <time>2024-05-26T10:47:32Z</time>
      </trkpt>
      <trkpt lat="48.79507" lon="2.22911">
        <ele>156.7</ele>
        <time>2024-05-26T10:47:33Z</time>
      </trkpt>
      <trkpt lat="48.79508" lon="2.22912">
        <ele>156.5</ele>
        <time>2024-05-26T10:47:34Z</time>
      </trkpt>
      <trkpt lat="48.79509" lon="2.22912">
        <ele>156.3</ele>
        <time>2024-05-26T10:47:35Z</time>
      </trkpt>
      <trkpt lat="48.7951" lon="2.22911">
        <ele>156.2</ele>
        <time>2024-05-26T10:47:36Z</time>
      </trkpt>
      <trkpt lat="48.7951" lon="2.22911">
        <ele>156.1</ele>
        <time>2024-05-26T10:47:37Z</time>
      </trkpt>
      <trkpt lat="48.79511" lon="2.22911">
        <ele>156</ele>
        <time>2024-05-26T10:47:38Z</time>
      </trkpt>
      <trkpt lat="48.79511" lon="2.2291">
        <ele>156</ele>
        <time>2024-05-26T10:47:39Z</time>
      </trkpt>
      <trkpt lat="48.79511" lon="2.2291">
        <ele>155.9</ele>
        <time>2024-05-26T10:47:40Z</time>
      </trkpt>
      <trkpt lat="48.79511" lon="2.2291">
        <ele>155.9</ele>
        <time>2024-05-26T10:47:41Z</time>
      </trkpt>
      <trkpt lat="48.79512" lon="2.2291">
        <ele>155.8</ele>
        <time>2024-05-26T10:47:42Z</time>
      </trkpt>
      <trkpt lat="48.79513" lon="2.22909">
        <ele>155.6</ele>
        <time>2024-05-26T10:47:43Z</time>
      </trkpt>
      <trkpt lat="48.79514" lon="2.22908">
        <ele>155.4</ele>
        <time>2024-05-26T10:47:44Z</time>
      </trkpt>
      <trkpt lat="48.79516" lon="2.22907">
        <ele>155.1</ele>
        <time>2024-05-26T10:47:45Z</time>
      </trkpt>
      <trkpt lat="48.79518" lon="2.22906">
        <ele>154.7</ele>
        <time>2024-05-26T10:47:46Z</time>
      </trkpt>
      <trkpt lat="48.79519" lon="2.22906">
        <ele>154.6</ele>
        <time>2024-05-26T10:47:47Z</time>
      </trkpt>
      <trkpt lat="48.7952" lon="2.22906">
        <ele>154.4</ele>
        <time>2024-05-26T10:47:48Z</time>
      </trkpt>
      <trkpt lat="48.79521" lon="2.22904">
        <ele>154.1</ele>
        <time>2024-05-26T10:47:49Z</time>
      </trkpt>
      <trkpt lat="48.79522" lon="2.22903">
        <ele>153.8</ele>
        <time>2024-05-26T10:47:50Z</time>
      </trkpt>
      <trkpt lat="48.79523" lon="2.22902">
        <ele>153.6</ele>
        <time>2024-05-26T10:47:51Z</time>
      </trkpt>
      <trkpt lat="48.79525" lon="2.22901">
        <ele>153.3</ele>
        <time>2024-05-26T10:47:52Z</time>
      </trkpt>
      <trkpt lat="48.79526" lon="2.22902">
        <ele>153.1</ele>
        <time>2024-05-26T10:47:53Z</time>
      </trkpt>
      <trkpt lat="48.79527" lon="2.22901">
        <ele>153</ele>
        <time>2024-05-26T10:47:54Z</time>
      </trkpt>
      <trkpt lat="48.79528" lon="2.229">
        <ele>152.6</ele>
        <time>2024-05-26T10:47:55Z</time>
      </trkpt>
      <trkpt lat="48.79529" lon="2.229">
        <ele>152.4</ele>
        <time>2024-05-26T10:47:56Z</time>
      </trkpt>
      <trkpt lat="48.79531" lon="2.229">
        <ele>152</ele>
        <time>2024-05-26T10:47:57Z</time>
      </trkpt>
      <trkpt lat="48.79532" lon="2.229">
        <ele>151.8</ele>
        <time>2024-05-26T10:47:58Z</time>
      </trkpt>
      <trkpt lat="48.79534" lon="2.22899">
        <ele>151.6</ele>
        <time>2024-05-26T10:47:59Z</time>
      </trkpt>
      <trkpt lat="48.79535" lon="2.22898">
        <ele>151.3</ele>
        <time>2024-05-26T10:48:00Z</time>
      </trkpt>
      <trkpt lat="48.79536" lon="2.22898">
        <ele>151.1</ele>
        <time>2024-05-26T10:48:01Z</time>
      </trkpt>
      <trkpt lat="48.79538" lon="2.22897">
        <ele>150.8</ele>
        <time>2024-05-26T10:48:02Z</time>
      </trkpt>
      <trkpt lat="48.79539" lon="2.22896">
        <ele>150.6</ele>
        <time>2024-05-26T10:48:03Z</time>
      </trkpt>
      <trkpt lat="48.7954" lon="2.22895">
        <ele>150.4</ele>
        <time>2024-05-26T10:48:04Z</time>
      </trkpt>
      <trkpt lat="48.79541" lon="2.22895">
        <ele>150.2</ele>
        <time>2024-05-26T10:48:05Z</time>
      </trkpt>
      <trkpt lat="48.79543" lon="2.22895">
        <ele>150</ele>
        <time>2024-05-26T10:48:06Z</time>
      </trkpt>
      <trkpt lat="48.79543" lon="2.22895">
        <ele>149.8</ele>
        <time>2024-05-26T10:48:07Z</time>
      </trkpt>
      <trkpt lat="48.79544" lon="2.22894">
        <ele>149.7</ele>
        <time>2024-05-26T10:48:08Z</time>
      </trkpt>
      <trkpt lat="48.79545" lon="2.22892">
        <ele>149.5</ele>
        <time>2024-05-26T10:48:09Z</time>
      </trkpt>
      <trkpt lat="48.79546" lon="2.22891">
        <ele>149.3</ele>
        <time>2024-05-26T10:48:10Z</time>
      </trkpt>
      <trkpt lat="48.79546" lon="2.2289">
        <ele>149.1</ele>
        <time>2024-05-26T10:48:11Z</time>
      </trkpt>
      <trkpt lat="48.79546" lon="2.22888">
        <ele>148.9</ele>
        <time>2024-05-26T10:48:12Z</time>
      </trkpt>
      <trkpt lat="48.79547" lon="2.22886">
        <ele>148.7</ele>
        <time>2024-05-26T10:48:13Z</time>
      </trkpt>
      <trkpt lat="48.79548" lon="2.22885">
        <ele>148.5</ele>
        <time>2024-05-26T10:48:14Z</time>
      </trkpt>
      <trkpt lat="48.79548" lon="2.22883">
        <ele>148.3</ele>
        <time>2024-05-26T10:48:15Z</time>
      </trkpt>
      <trkpt lat="48.7955" lon="2.22883">
        <ele>148.1</ele>
        <time>2024-05-26T10:48:16Z</time>
      </trkpt>
      <trkpt lat="48.79551" lon="2.22883">
        <ele>148</ele>
        <time>2024-05-26T10:48:17Z</time>
      </trkpt>
      <trkpt lat="48.79551" lon="2.22883">
        <ele>147.8</ele>
        <time>2024-05-26T10:48:18Z</time>
      </trkpt>
      <trkpt lat="48.79552" lon="2.22884">
        <ele>147.7</ele>
        <time>2024-05-26T10:48:19Z</time>
      </trkpt>
      <trkpt lat="48.79553" lon="2.22884">
        <ele>147.6</ele>
        <time>2024-05-26T10:48:20Z</time>
      </trkpt>
      <trkpt lat="48.79553" lon="2.22884">
        <ele>147.5</ele>
        <time>2024-05-26T10:48:21Z</time>
      </trkpt>
      <trkpt lat="48.79552" lon="2.22882">
        <ele>147.4</ele>
        <time>2024-05-26T10:48:22Z</time>
      </trkpt>
      <trkpt lat="48.79552" lon="2.2288">
        <ele>147.1</ele>
        <time>2024-05-26T10:48:23Z</time>
      </trkpt>
      <trkpt lat="48.79552" lon="2.22879">
        <ele>147.1</ele>
        <time>2024-05-26T10:48:24Z</time>
      </trkpt>
      <trkpt lat="48.79552" lon="2.22876">
        <ele>146.8</ele>
        <time>2024-05-26T10:48:25Z</time>
      </trkpt>
      <trkpt lat="48.79552" lon="2.22876">
        <ele>146.8</ele>
        <time>2024-05-26T10:48:26Z</time>
      </trkpt>
      <trkpt lat="48.79552" lon="2.22874">
        <ele>146.6</ele>
        <time>2024-05-26T10:48:27Z</time>
      </trkpt>
      <trkpt lat="48.79552" lon="2.22871">
        <ele>146.4</ele>
        <time>2024-05-26T10:48:28Z</time>
      </trkpt>
      <trkpt lat="48.79552" lon="2.2287">
        <ele>146.3</ele>
        <time>2024-05-26T10:48:29Z</time>
      </trkpt>
      <trkpt lat="48.79553" lon="2.22869">
        <ele>146.1</ele>
        <time>2024-05-26T10:48:30Z</time>
      </trkpt>
      <trkpt lat="48.79553" lon="2.22868">
        <ele>146</ele>
        <time>2024-05-26T10:48:31Z</time>
      </trkpt>
      <trkpt lat="48.79554" lon="2.22866">
        <ele>145.9</ele>
        <time>2024-05-26T10:48:32Z</time>
      </trkpt>
      <trkpt lat="48.79554" lon="2.22865">
        <ele>145.8</ele>
        <time>2024-05-26T10:48:33Z</time>
      </trkpt>
      <trkpt lat="48.79554" lon="2.22864">
        <ele>145.7</ele>
        <time>2024-05-26T10:48:34Z</time>
      </trkpt>
      <trkpt lat="48.79555" lon="2.22862">
        <ele>145.5</ele>
        <time>2024-05-26T10:48:35Z</time>
      </trkpt>
      <trkpt lat="48.79556" lon="2.22859">
        <ele>145.3</ele>
        <time>2024-05-26T10:48:36Z</time>
      </trkpt>
      <trkpt lat="48.79556" lon="2.22858">
        <ele>145.1</ele>
        <time>2024-05-26T10:48:37Z</time>
      </trkpt>
      <trkpt lat="48.79556" lon="2.22856">
        <ele>145</ele>
        <time>2024-05-26T10:48:38Z</time>
      </trkpt>
      <trkpt lat="48.79557" lon="2.22855">
        <ele>144.8</ele>
        <time>2024-05-26T10:48:39Z</time>
      </trkpt>
      <trkpt lat="48.79558" lon="2.22853">
        <ele>144.7</ele>
        <time>2024-05-26T10:48:40Z</time>
      </trkpt>
      <trkpt lat="48.79557" lon="2.22852">
        <ele>144.6</ele>
        <time>2024-05-26T10:48:41Z</time>
      </trkpt>
      <trkpt lat="48.79557" lon="2.22852">
        <ele>144.5</ele>
        <time>2024-05-26T10:48:42Z</time>
      </trkpt>
      <trkpt lat="48.79557" lon="2.22849">
        <ele>144.3</ele>
        <time>2024-05-26T10:48:43Z</time>
      </trkpt>
      <trkpt lat="48.79557" lon="2.22848">
        <ele>144.2</ele>
        <time>2024-05-26T10:48:44Z</time>
      </trkpt>
      <trkpt lat="48.79558" lon="2.22846">
        <ele>144.1</ele>
        <time>2024-05-26T10:48:45Z</time>
      </trkpt>
      <trkpt lat="48.79559" lon="2.22845">
        <ele>143.9</ele>
        <time>2024-05-26T10:48:46Z</time>
      </trkpt>
      <trkpt lat="48.79559" lon="2.22844">
        <ele>143.8</ele>
        <time>2024-05-26T10:48:47Z</time>
      </trkpt>
      <trkpt lat="48.79559" lon="2.22843">
        <ele>143.7</ele>
        <time>2024-05-26T10:48:48Z</time>
      </trkpt>
      <trkpt lat="48.79559" lon="2.22841">
        <ele>143.6</ele>
        <time>2024-05-26T10:48:49Z</time>
      </trkpt>
      <trkpt lat="48.79559" lon="2.22841">
        <ele>143.5</ele>
        <time>2024-05-26T10:48:50Z</time>
      </trkpt>
      <trkpt lat="48.7956" lon="2.2284">
        <ele>143.4</ele>
        <time>2024-05-26T10:48:51Z</time>
      </trkpt>
      <trkpt lat="48.7956" lon="2.22838">
        <ele>143.3</ele>
        <time>2024-05-26T10:48:52Z</time>
      </trkpt>
      <trkpt lat="48.79561" lon="2.22837">
        <ele>143.1</ele>
        <time>2024-05-26T10:48:53Z</time>
      </trkpt>
      <trkpt lat="48.79562" lon="2.22835">
        <ele>142.9</ele>
        <time>2024-05-26T10:48:54Z</time>
      </trkpt>
      <trkpt lat="48.79563" lon="2.22834">
        <ele>142.8</ele>
        <time>2024-05-26T10:48:55Z</time>
      </trkpt>
      <trkpt lat="48.79564" lon="2.22833">
        <ele>142.6</ele>
        <time>2024-05-26T10:48:56Z</time>
      </trkpt>
      <trkpt lat="48.79564" lon="2.22831">
        <ele>142.5</ele>
        <time>2024-05-26T10:48:57Z</time>
      </trkpt>
      <trkpt lat="48.79565" lon="2.2283">
        <ele>142.3</ele>
        <time>2024-05-26T10:48:58Z</time>
      </trkpt>
      <trkpt lat="48.79566" lon="2.22828">
        <ele>142.1</ele>
        <time>2024-05-26T10:48:59Z</time>
      </trkpt>
      <trkpt lat="48.79566" lon="2.22826">
        <ele>141.9</ele>
        <time>2024-05-26T10:49:00Z</time>
      </trkpt>
      <trkpt lat="48.79567" lon="2.22824">
        <ele>141.7</ele>
        <time>2024-05-26T10:49:01Z</time>
      </trkpt>
      <trkpt lat="48.79568" lon="2.22822">
        <ele>141.5</ele>
        <time>2024-05-26T10:49:02Z</time>
      </trkpt>
      <trkpt lat="48.79569" lon="2.22821">
        <ele>141.3</ele>
        <time>2024-05-26T10:49:03Z</time>
      </trkpt>
      <trkpt lat="48.7957" lon="2.22818">
        <ele>141</ele>
        <time>2024-05-26T10:49:04Z</time>
      </trkpt>
      <trkpt lat="48.79571" lon="2.22817">
        <ele>140.8</ele>
        <time>2024-05-26T10:49:05Z</time>
      </trkpt>
      <trkpt lat="48.79571" lon="2.22816">
        <ele>140.7</ele>
        <time>2024-05-26T10:49:06Z</time>
      </trkpt>
      <trkpt lat="48.79572" lon="2.22814">
        <ele>140.5</ele>
        <time>2024-05-26T10:49:07Z</time>
      </trkpt>
      <trkpt lat="48.79573" lon="2.22814">
        <ele>140.4</ele>
        <time>2024-05-26T10:49:08Z</time>
      </trkpt>
      <trkpt lat="48.79573" lon="2.22813">
        <ele>140.3</ele>
        <time>2024-05-26T10:49:09Z</time>
      </trkpt>
      <trkpt lat="48.79574" lon="2.22813">
        <ele>140.2</ele>
        <time>2024-05-26T10:49:10Z</time>
      </trkpt>
      <trkpt lat="48.79575" lon="2.22812">
        <ele>140</ele>
        <time>2024-05-26T10:49:11Z</time>
      </trkpt>
      <trkpt lat="48.79576" lon="2.22812">
        <ele>139.9</ele>
        <time>2024-05-26T10:49:12Z</time>
      </trkpt>
      <trkpt lat="48.79577" lon="2.22811">
        <ele>139.7</ele>
        <time>2024-05-26T10:49:13Z</time>
      </trkpt>
      <trkpt lat="48.79577" lon="2.2281">
        <ele>139.6</ele>
        <time>2024-05-26T10:49:14Z</time>
      </trkpt>
      <trkpt lat="48.79577" lon="2.22809">
        <ele>139.5</ele>
        <time>2024-05-26T10:49:15Z</time>
      </trkpt>
      <trkpt lat="48.79579" lon="2.22807">
        <ele>139.2</ele>
        <time>2024-05-26T10:49:16Z</time>
      </trkpt>
      <trkpt lat="48.7958" lon="2.22805">
        <ele>138.9</ele>
        <time>2024-05-26T10:49:17Z</time>
      </trkpt>
      <trkpt lat="48.79581" lon="2.22804">
        <ele>138.8</ele>
        <time>2024-05-26T10:49:18Z</time>
      </trkpt>
      <trkpt lat="48.79582" lon="2.22803">
        <ele>138.7</ele>
        <time>2024-05-26T10:49:19Z</time>
      </trkpt>
      <trkpt lat="48.79582" lon="2.22802">
        <ele>138.6</ele>
        <time>2024-05-26T10:49:20Z</time>
      </trkpt>
      <trkpt lat="48.79582" lon="2.22802">
        <ele>138.5</ele>
        <time>2024-05-26T10:49:21Z</time>
      </trkpt>
      <trkpt lat="48.79583" lon="2.22801">
        <ele>138.3</ele>
        <time>2024-05-26T10:49:22Z</time>
      </trkpt>
      <trkpt lat="48.79584" lon="2.228">
        <ele>138.2</ele>
        <time>2024-05-26T10:49:23Z</time>
      </trkpt>
      <trkpt lat="48.79586" lon="2.22799">
        <ele>137.9</ele>
        <time>2024-05-26T10:49:24Z</time>
      </trkpt>
      <trkpt lat="48.79587" lon="2.22798">
        <ele>137.8</ele>
        <time>2024-05-26T10:49:25Z</time>
      </trkpt>
      <trkpt lat="48.79588" lon="2.22798">
        <ele>137.6</ele>
        <time>2024-05-26T10:49:26Z</time>
      </trkpt>
      <trkpt lat="48.79589" lon="2.22797">
        <ele>137.5</ele>
        <time>2024-05-26T10:49:27Z</time>
      </trkpt>
      <trkpt lat="48.79589" lon="2.22797">
        <ele>137.5</ele>
        <time>2024-05-26T10:49:28Z</time>
      </trkpt>
      <trkpt lat="48.7959" lon="2.22798">
        <ele>137.3</ele>
        <time>2024-05-26T10:49:29Z</time>
      </trkpt>
      <trkpt lat="48.7959" lon="2.22798">
        <ele>137.2</ele>
        <time>2024-05-26T10:49:30Z</time>
      </trkpt>
      <trkpt lat="48.79591" lon="2.22798">
        <ele>137.2</ele>
        <time>2024-05-26T10:49:31Z</time>
      </trkpt>
      <trkpt lat="48.79591" lon="2.22798">
        <ele>137.2</ele>
        <time>2024-05-26T10:49:32Z</time>
      </trkpt>
      <trkpt lat="48.79591" lon="2.22798">
        <ele>137.1</ele>
        <time>2024-05-26T10:49:33Z</time>
      </trkpt>
      <trkpt lat="48.79591" lon="2.22798">
        <ele>137.1</ele>
        <time>2024-05-26T10:49:34Z</time>
      </trkpt>
      <trkpt lat="48.79591" lon="2.22798">
        <ele>137.1</ele>
        <time>2024-05-26T10:49:35Z</time>
      </trkpt>
      <trkpt lat="48.79591" lon="2.22798">
        <ele>137.1</ele>
        <time>2024-05-26T10:49:36Z</time>
      </trkpt>
      <trkpt lat="48.79591" lon="2.22798">
        <ele>137.1</ele>
        <time>2024-05-26T10:49:37Z</time>
      </trkpt>
      <trkpt lat="48.79591" lon="2.22798">
        <ele>137.1</ele>
        <time>2024-05-26T10:49:38Z</time>
      </trkpt>
      <trkpt lat="48.79591" lon="2.22798">
        <ele>137.1</ele>
        <time>2024-05-26T10:49:39Z</time>
      </trkpt>
      <trkpt lat="48.79591" lon="2.22798">
        <ele>137.1</ele>
        <time>2024-05-26T10:49:40Z</time>
      </trkpt>
      <trkpt lat="48.79591" lon="2.22798">
        <ele>137.1</ele>
        <time>2024-05-26T10:49:41Z</time>
      </trkpt>
      <trkpt lat="48.79591" lon="2.22798">
        <ele>137.1</ele>
        <time>2024-05-26T10:49:42Z</time>
      </trkpt>
      <trkpt lat="48.79591" lon="2.22798">
        <ele>137.1</ele>
        <time>2024-05-26T10:49:43Z</time>
      </trkpt>
      <trkpt lat="48.79591" lon="2.22798">
        <ele>137.1</ele>
        <time>2024-05-26T10:49:44Z</time>
      </trkpt>
      <trkpt lat="48.79591" lon="2.22798">
        <ele>137.1</ele>
        <time>2024-05-26T10:49:45Z</time>
      </trkpt>
      <trkpt lat="48.79591" lon="2.22798">
        <ele>137.1</ele>
        <time>2024-05-26T10:49:46Z</time>
      </trkpt>
      <trkpt lat="48.79591" lon="2.22798">
        <ele>137.1</ele>
        <time>2024-05-26T10:49:47Z</time>
      </trkpt>
      <trkpt lat="48.79591" lon="2.22798">
        <ele>137.1</ele>
        <time>2024-05-26T10:49:48Z</time>
      </trkpt>
      <trkpt lat="48.79591" lon="2.22798">
        <ele>137.1</ele>
        <time>2024-05-26T10:49:49Z</time>
      </trkpt>
      <trkpt lat="48.79591" lon="2.22798">
        <ele>137.1</ele>
        <time>2024-05-26T10:49:50Z</time>
      </trkpt>
      <trkpt lat="48.79591" lon="2.22798">
        <ele>137.1</ele>
        <time>2024-05-26T10:49:51Z</time>
      </trkpt>
      <trkpt lat="48.79591" lon="2.22798">
        <ele>137.1</ele>
        <time>2024-05-26T10:49:52Z</time>
      </trkpt>
      <trkpt lat="48.79591" lon="2.22798">
        <ele>137.1</ele>
        <time>2024-05-26T10:49:53Z</time>
      </trkpt>
      <trkpt lat="48.79591" lon="2.22798">
        <ele>137.1</ele>
        <time>2024-05-26T10:49:54Z</time>
      </trkpt>
      <trkpt lat="48.79592" lon="2.22798">
        <ele>137.1</ele>
        <time>2024-05-26T10:49:55Z</time>
      </trkpt>
      <trkpt lat="48.79592" lon="2.22798">
        <ele>137</ele>
        <time>2024-05-26T10:49:56Z</time>
      </trkpt>
      <trkpt lat="48.79593" lon="2.22798">
        <ele>136.9</ele>
        <time>2024-05-26T10:49:57Z</time>
      </trkpt>
      <trkpt lat="48.79593" lon="2.22797">
        <ele>136.9</ele>
        <time>2024-05-26T10:49:58Z</time>
      </trkpt>
      <trkpt lat="48.79593" lon="2.22797">
        <ele>136.9</ele>
        <time>2024-05-26T10:49:59Z</time>
      </trkpt>
      <trkpt lat="48.79593" lon="2.22797">
        <ele>136.8</ele>
        <time>2024-05-26T10:50:00Z</time>
      </trkpt>
      <trkpt lat="48.79595" lon="2.22796">
        <ele>136.6</ele>
        <time>2024-05-26T10:50:01Z</time>
      </trkpt>
      <trkpt lat="48.79595" lon="2.22797">
        <ele>136.6</ele>
        <time>2024-05-26T10:50:02Z</time>
      </trkpt>
      <trkpt lat="48.79596" lon="2.22797">
        <ele>136.5</ele>
        <time>2024-05-26T10:50:03Z</time>
      </trkpt>
      <trkpt lat="48.79597" lon="2.22796">
        <ele>136.4</ele>
        <time>2024-05-26T10:50:04Z</time>
      </trkpt>
      <trkpt lat="48.79598" lon="2.22795">
        <ele>136.2</ele>
        <time>2024-05-26T10:50:05Z</time>
      </trkpt>
      <trkpt lat="48.79598" lon="2.22795">
        <ele>136.1</ele>
        <time>2024-05-26T10:50:06Z</time>
      </trkpt>
      <trkpt lat="48.79599" lon="2.22795">
        <ele>136</ele>
        <time>2024-05-26T10:50:07Z</time>
      </trkpt>
      <trkpt lat="48.79599" lon="2.22795">
        <ele>136</ele>
        <time>2024-05-26T10:50:08Z</time>
      </trkpt>
      <trkpt lat="48.796" lon="2.22794">
        <ele>135.8</ele>
        <time>2024-05-26T10:50:09Z</time>
      </trkpt>
      <trkpt lat="48.796" lon="2.22793">
        <ele>135.8</ele>
        <time>2024-05-26T10:50:10Z</time>
      </trkpt>
      <trkpt lat="48.79601" lon="2.22792">
        <ele>135.6</ele>
        <time>2024-05-26T10:50:11Z</time>
      </trkpt>
      <trkpt lat="48.79602" lon="2.22791">
        <ele>135.4</ele>
        <time>2024-05-26T10:50:12Z</time>
      </trkpt>
      <trkpt lat="48.79603" lon="2.22789">
        <ele>135.3</ele>
        <time>2024-05-26T10:50:13Z</time>
      </trkpt>
      <trkpt lat="48.79604" lon="2.22788">
        <ele>135.1</ele>
        <time>2024-05-26T10:50:14Z</time>
      </trkpt>
      <trkpt lat="48.79605" lon="2.22788">
        <ele>135</ele>
        <time>2024-05-26T10:50:15Z</time>
      </trkpt>
      <trkpt lat="48.79606" lon="2.22788">
        <ele>134.9</ele>
        <time>2024-05-26T10:50:16Z</time>
      </trkpt>
      <trkpt lat="48.79606" lon="2.22788">
        <ele>134.8</ele>
        <time>2024-05-26T10:50:17Z</time>
      </trkpt>
      <trkpt lat="48.79607" lon="2.22787">
        <ele>134.7</ele>
        <time>2024-05-26T10:50:18Z</time>
      </trkpt>
      <trkpt lat="48.79608" lon="2.22786">
        <ele>134.6</ele>
        <time>2024-05-26T10:50:19Z</time>
      </trkpt>
      <trkpt lat="48.79609" lon="2.22784">
        <ele>134.4</ele>
        <time>2024-05-26T10:50:20Z</time>
      </trkpt>
      <trkpt lat="48.7961" lon="2.22784">
        <ele>134.3</ele>
        <time>2024-05-26T10:50:21Z</time>
      </trkpt>
      <trkpt lat="48.79611" lon="2.22783">
        <ele>134.1</ele>
        <time>2024-05-26T10:50:22Z</time>
      </trkpt>
      <trkpt lat="48.79612" lon="2.22783">
        <ele>134</ele>
        <time>2024-05-26T10:50:23Z</time>
      </trkpt>
      <trkpt lat="48.79613" lon="2.22782">
        <ele>133.8</ele>
        <time>2024-05-26T10:50:24Z</time>
      </trkpt>
      <trkpt lat="48.79616" lon="2.22782">
        <ele>133.5</ele>
        <time>2024-05-26T10:50:25Z</time>
      </trkpt>
      <trkpt lat="48.79617" lon="2.22782">
        <ele>133.4</ele>
        <time>2024-05-26T10:50:26Z</time>
      </trkpt>
      <trkpt lat="48.7962" lon="2.2278">
        <ele>133</ele>
        <time>2024-05-26T10:50:27Z</time>
      </trkpt>
      <trkpt lat="48.79621" lon="2.2278">
        <ele>133</ele>
        <time>2024-05-26T10:50:28Z</time>
      </trkpt>
      <trkpt lat="48.79622" lon="2.22779">
        <ele>132.8</ele>
        <time>2024-05-26T10:50:29Z</time>
      </trkpt>
      <trkpt lat="48.79623" lon="2.22779">
        <ele>132.7</ele>
        <time>2024-05-26T10:50:30Z</time>
      </trkpt>
      <trkpt lat="48.79626" lon="2.22777">
        <ele>132.4</ele>
        <time>2024-05-26T10:50:31Z</time>
      </trkpt>
      <trkpt lat="48.79627" lon="2.22777">
        <ele>132.3</ele>
        <time>2024-05-26T10:50:32Z</time>
      </trkpt>
      <trkpt lat="48.79628" lon="2.22776">
        <ele>132.3</ele>
        <time>2024-05-26T10:50:33Z</time>
      </trkpt>
      <trkpt lat="48.79629" lon="2.22776">
        <ele>132.2</ele>
        <time>2024-05-26T10:50:34Z</time>
      </trkpt>
      <trkpt lat="48.7963" lon="2.22775">
        <ele>132.1</ele>
        <time>2024-05-26T10:50:35Z</time>
      </trkpt>
      <trkpt lat="48.79631" lon="2.22774">
        <ele>132.1</ele>
        <time>2024-05-26T10:50:36Z</time>
      </trkpt>
      <trkpt lat="48.79632" lon="2.22776">
        <ele>132</ele>
        <time>2024-05-26T10:50:37Z</time>
      </trkpt>
      <trkpt lat="48.79632" lon="2.22776">
        <ele>132</ele>
        <time>2024-05-26T10:50:38Z</time>
      </trkpt>
      <trkpt lat="48.79633" lon="2.22775">
        <ele>131.9</ele>
        <time>2024-05-26T10:50:39Z</time>
      </trkpt>
      <trkpt lat="48.79633" lon="2.22776">
        <ele>131.9</ele>
        <time>2024-05-26T10:50:40Z</time>
      </trkpt>
      <trkpt lat="48.79633" lon="2.22775">
        <ele>131.9</ele>
        <time>2024-05-26T10:50:41Z</time>
      </trkpt>
      <trkpt lat="48.79634" lon="2.22774">
        <ele>131.8</ele>
        <time>2024-05-26T10:50:42Z</time>
      </trkpt>
      <trkpt lat="48.79634" lon="2.22774">
        <ele>131.8</ele>
        <time>2024-05-26T10:50:43Z</time>
      </trkpt>
      <trkpt lat="48.79635" lon="2.22775">
        <ele>131.8</ele>
        <time>2024-05-26T10:50:44Z</time>
      </trkpt>
      <trkpt lat="48.79636" lon="2.22774">
        <ele>131.8</ele>
        <time>2024-05-26T10:50:45Z</time>
      </trkpt>
      <trkpt lat="48.79636" lon="2.22773">
        <ele>131.8</ele>
        <time>2024-05-26T10:50:46Z</time>
      </trkpt>
      <trkpt lat="48.79637" lon="2.22771">
        <ele>131.8</ele>
        <time>2024-05-26T10:50:47Z</time>
      </trkpt>
      <trkpt lat="48.79638" lon="2.2277">
        <ele>131.8</ele>
        <time>2024-05-26T10:50:48Z</time>
      </trkpt>
      <trkpt lat="48.79638" lon="2.22769">
        <ele>131.9</ele>
        <time>2024-05-26T10:50:49Z</time>
      </trkpt>
      <trkpt lat="48.79639" lon="2.22768">
        <ele>131.9</ele>
        <time>2024-05-26T10:50:50Z</time>
      </trkpt>
      <trkpt lat="48.79639" lon="2.22767">
        <ele>131.9</ele>
        <time>2024-05-26T10:50:51Z</time>
      </trkpt>
      <trkpt lat="48.7964" lon="2.22765">
        <ele>131.9</ele>
        <time>2024-05-26T10:50:52Z</time>
      </trkpt>
      <trkpt lat="48.79641" lon="2.22764">
        <ele>131.9</ele>
        <time>2024-05-26T10:50:53Z</time>
      </trkpt>
      <trkpt lat="48.79639" lon="2.22764">
        <ele>127</ele>
      </trkpt>
      <trkpt lat="48.79637" lon="2.22761">
        <ele>127.1</ele>
      </trkpt>
      <trkpt lat="48.79634" lon="2.22761">
        <ele>127.2</ele>
      </trkpt>
      <trkpt lat="48.79631" lon="2.22762">
        <ele>127.3</ele>
        <time>2024-05-26T10:51:05Z</time>
      </trkpt>
      <trkpt lat="48.79621" lon="2.22754">
        <ele>127.7</ele>
        <time>2024-05-26T10:51:06Z</time>
      </trkpt>
      <trkpt lat="48.79618" lon="2.22748">
        <ele>127.8</ele>
      </trkpt>
      <trkpt lat="48.79613" lon="2.22735">
        <ele>128</ele>
      </trkpt>
      <trkpt lat="48.79605" lon="2.22727">
        <ele>128.2</ele>
      </trkpt>
      <trkpt lat="48.79593" lon="2.22709">
        <ele>128.3</ele>
      </trkpt>
      <trkpt lat="48.79582" lon="2.22694">
        <ele>128.1</ele>
      </trkpt>
      <trkpt lat="48.79555" lon="2.22688">
        <ele>130.1</ele>
      </trkpt>
      <trkpt lat="48.79511" lon="2.22679">
        <ele>133.7</ele>
      </trkpt>
      <trkpt lat="48.79489" lon="2.22674">
        <ele>135.7</ele>
      </trkpt>
      <trkpt lat="48.79474" lon="2.22671">
        <ele>137.2</ele>
      </trkpt>
      <trkpt lat="48.79458" lon="2.22662">
        <ele>138.4</ele>
      </trkpt>
      <trkpt lat="48.79445" lon="2.22654">
        <ele>139.5</ele>
      </trkpt>
      <trkpt lat="48.79469" lon="2.22581">
        <ele>136.4</ele>
      </trkpt>
      <trkpt lat="48.79486" lon="2.22525">
        <ele>138.7</ele>
      </trkpt>
      <trkpt lat="48.79508" lon="2.22455">
        <ele>146.4</ele>
      </trkpt>
      <trkpt lat="48.79521" lon="2.22416">
        <ele>153.2</ele>
      </trkpt>
      <trkpt lat="48.79526" lon="2.22394">
        <ele>158</ele>
        <time>2024-05-26T10:51:07Z</time>
      </trkpt>
      <trkpt lat="48.79546" lon="2.22398">
        <ele>153.4</ele>
      </trkpt>
      <trkpt lat="48.79553" lon="2.22398">
        <ele>151.8</ele>
      </trkpt>
      <trkpt lat="48.79574" lon="2.2239">
        <ele>150.2</ele>
      </trkpt>
      <trkpt lat="48.79602" lon="2.22379">
        <ele>147.1</ele>
      </trkpt>
      <trkpt lat="48.79619" lon="2.22362">
        <ele>145.6</ele>
      </trkpt>
      <trkpt lat="48.79629" lon="2.22344">
        <ele>145.1</ele>
      </trkpt>
      <trkpt lat="48.7964" lon="2.22328">
        <ele>144.3</ele>
      </trkpt>
      <trkpt lat="48.79645" lon="2.22312">
        <ele>144.6</ele>
      </trkpt>
      <trkpt lat="48.79655" lon="2.22275">
        <ele>146.5</ele>
      </trkpt>
      <trkpt lat="48.79663" lon="2.2224">
        <ele>149.2</ele>
      </trkpt>
      <trkpt lat="48.79663" lon="2.22237">
        <ele>149.5</ele>
      </trkpt>
      <trkpt lat="48.79668" lon="2.22223">
        <ele>150.8</ele>
      </trkpt>
      <trkpt lat="48.79676" lon="2.2221">
        <ele>151.9</ele>
      </trkpt>
      <trkpt lat="48.79689" lon="2.22197">
        <ele>152.3</ele>
      </trkpt>
      <trkpt lat="48.79704" lon="2.22184">
        <ele>152.9</ele>
      </trkpt>
      <trkpt lat="48.79709" lon="2.22196">
        <ele>151.8</ele>
      </trkpt>
      <trkpt lat="48.79717" lon="2.22213">
        <ele>150.6</ele>
      </trkpt>
      <trkpt lat="48.79723" lon="2.22226">
        <ele>149.6</ele>
      </trkpt>
      <trkpt lat="48.79728" lon="2.22243">
        <ele>148</ele>
      </trkpt>
      <trkpt lat="48.79731" lon="2.2226">
        <ele>146.2</ele>
      </trkpt>
      <trkpt lat="48.79735" lon="2.22291">
        <ele>143</ele>
      </trkpt>
      <trkpt lat="48.79741" lon="2.22314">
        <ele>140.7</ele>
      </trkpt>
      <trkpt lat="48.79743" lon="2.22323">
        <ele>139.8</ele>
      </trkpt>
      <trkpt lat="48.79749" lon="2.22339">
        <ele>138.5</ele>
      </trkpt>
      <trkpt lat="48.79759" lon="2.22358">
        <ele>137.5</ele>
      </trkpt>
      <trkpt lat="48.79767" lon="2.22381">
        <ele>135.7</ele>
      </trkpt>
      <trkpt lat="48.7977" lon="2.22396">
        <ele>134.5</ele>
      </trkpt>
      <trkpt lat="48.79771" lon="2.22414">
        <ele>133.2</ele>
      </trkpt>
      <trkpt lat="48.79771" lon="2.22435">
        <ele>132.2</ele>
      </trkpt>
      <trkpt lat="48.79766" lon="2.22469">
        <ele>130.3</ele>
      </trkpt>
      <trkpt lat="48.79764" lon="2.22481">
        <ele>129.8</ele>
      </trkpt>
      <trkpt lat="48.79762" lon="2.22483">
        <ele>129.7</ele>
      </trkpt>
      <trkpt lat="48.79774" lon="2.2249">
        <ele>130.6</ele>
      </trkpt>
      <trkpt lat="48.79772" lon="2.22521">
        <ele>130.3</ele>
        <time>2024-05-26T10:51:35Z</time>
      </trkpt>
      <trkpt lat="48.79771" lon="2.22552">
        <ele>130.3</ele>
      </trkpt>
      <trkpt lat="48.7977" lon="2.22576">
        <ele>130.1</ele>
      </trkpt>
      <trkpt lat="48.79769" lon="2.22589">
        <ele>130</ele>
        <time>2024-05-26T10:51:36Z</time>
      </trkpt>
      <trkpt lat="48.7977" lon="2.22615">
        <ele>130.1</ele>
      </trkpt>
      <trkpt lat="48.7977" lon="2.22641">
        <ele>129.5</ele>
      </trkpt>
      <trkpt lat="48.79769" lon="2.22655">
        <ele>129.6</ele>
        <time>2024-05-26T10:51:37Z</time>
      </trkpt>
      <trkpt lat="48.79768" lon="2.22676">
        <ele>129.6</ele>
      </trkpt>
      <trkpt lat="48.79764" lon="2.22701">
        <ele>129.7</ele>
      </trkpt>
      <trkpt lat="48.79762" lon="2.22711">
        <ele>130</ele>
      </trkpt>
      <trkpt lat="48.79749" lon="2.22724">
        <ele>130</ele>
      </trkpt>
      <trkpt lat="48.79733" lon="2.22723">
        <ele>129.4</ele>
      </trkpt>
      <trkpt lat="48.79726" lon="2.2272">
        <ele>129.1</ele>
      </trkpt>
      <trkpt lat="48.79717" lon="2.22715">
        <ele>129</ele>
      </trkpt>
      <trkpt lat="48.79702" lon="2.22707">
        <ele>129</ele>
      </trkpt>
      <trkpt lat="48.79673" lon="2.22691">
        <ele>129</ele>
        <time>2024-05-26T10:51:38Z</time>
      </trkpt>
      <trkpt lat="48.7967" lon="2.22712">
        <ele>128.5</ele>
      </trkpt>
      <trkpt lat="48.79667" lon="2.22729">
        <ele>128</ele>
      </trkpt>
      <trkpt lat="48.79664" lon="2.22741">
        <ele>127.9</ele>
        <time>2024-05-26T10:51:40Z</time>
      </trkpt>
      <trkpt lat="48.79652" lon="2.22743">
        <ele>127.6</ele>
      </trkpt>
      <trkpt lat="48.79647" lon="2.22753">
        <ele>127.3</ele>
      </trkpt>
      <trkpt lat="48.79644" lon="2.22759">
        <ele>127.1</ele>
      </trkpt>
      <trkpt lat="48.79642" lon="2.22766">
        <ele>132.1</ele>
        <time>2024-05-26T10:52:50Z</time>
      </trkpt>
      <trkpt lat="48.79641" lon="2.22768">
        <ele>132</ele>
        <time>2024-05-26T10:52:51Z</time>
      </trkpt>
      <trkpt lat="48.79641" lon="2.22769">
        <ele>132</ele>
        <time>2024-05-26T10:52:52Z</time>
      </trkpt>
      <trkpt lat="48.79641" lon="2.2277">
        <ele>132</ele>
        <time>2024-05-26T10:52:53Z</time>
      </trkpt>
      <trkpt lat="48.7964" lon="2.22771">
        <ele>131.9</ele>
        <time>2024-05-26T10:52:54Z</time>
      </trkpt>
      <trkpt lat="48.7964" lon="2.22772">
        <ele>131.9</ele>
        <time>2024-05-26T10:52:55Z</time>
      </trkpt>
      <trkpt lat="48.79639" lon="2.22775">
        <ele>131.9</ele>
        <time>2024-05-26T10:52:56Z</time>
      </trkpt>
      <trkpt lat="48.79639" lon="2.22776">
        <ele>131.9</ele>
        <time>2024-05-26T10:52:57Z</time>
      </trkpt>
      <trkpt lat="48.79639" lon="2.22777">
        <ele>131.8</ele>
        <time>2024-05-26T10:52:58Z</time>
      </trkpt>
      <trkpt lat="48.79639" lon="2.22778">
        <ele>131.8</ele>
        <time>2024-05-26T10:52:59Z</time>
      </trkpt>
      <trkpt lat="48.79638" lon="2.22781">
        <ele>131.8</ele>
        <time>2024-05-26T10:53:00Z</time>
      </trkpt>
      <trkpt lat="48.79638" lon="2.22782">
        <ele>131.7</ele>
        <time>2024-05-26T10:53:01Z</time>
      </trkpt>
      <trkpt lat="48.79639" lon="2.22783">
        <ele>131.7</ele>
        <time>2024-05-26T10:53:02Z</time>
      </trkpt>
      <trkpt lat="48.79638" lon="2.22785">
        <ele>131.6</ele>
        <time>2024-05-26T10:53:03Z</time>
      </trkpt>
      <trkpt lat="48.79638" lon="2.22786">
        <ele>131.5</ele>
        <time>2024-05-26T10:53:04Z</time>
      </trkpt>
      <trkpt lat="48.79638" lon="2.22788">
        <ele>131.5</ele>
        <time>2024-05-26T10:53:05Z</time>
      </trkpt>
      <trkpt lat="48.79637" lon="2.22789">
        <ele>131.4</ele>
        <time>2024-05-26T10:53:06Z</time>
      </trkpt>
      <trkpt lat="48.79637" lon="2.2279">
        <ele>131.3</ele>
        <time>2024-05-26T10:53:07Z</time>
      </trkpt>
      <trkpt lat="48.79637" lon="2.22792">
        <ele>131.3</ele>
        <time>2024-05-26T10:53:08Z</time>
      </trkpt>
      <trkpt lat="48.79637" lon="2.22794">
        <ele>131.2</ele>
        <time>2024-05-26T10:53:09Z</time>
      </trkpt>
      <trkpt lat="48.79637" lon="2.22795">
        <ele>131.1</ele>
        <time>2024-05-26T10:53:10Z</time>
      </trkpt>
      <trkpt lat="48.79636" lon="2.22796">
        <ele>131.1</ele>
        <time>2024-05-26T10:53:11Z</time>
      </trkpt>
      <trkpt lat="48.79636" lon="2.22798">
        <ele>131</ele>
        <time>2024-05-26T10:53:12Z</time>
      </trkpt>
      <trkpt lat="48.79635" lon="2.228">
        <ele>130.9</ele>
        <time>2024-05-26T10:53:13Z</time>
      </trkpt>
      <trkpt lat="48.79635" lon="2.22802">
        <ele>130.8</ele>
        <time>2024-05-26T10:53:14Z</time>
      </trkpt>
      <trkpt lat="48.79635" lon="2.22803">
        <ele>130.8</ele>
        <time>2024-05-26T10:53:15Z</time>
      </trkpt>
      <trkpt lat="48.79634" lon="2.22805">
        <ele>130.7</ele>
        <time>2024-05-26T10:53:16Z</time>
      </trkpt>
      <trkpt lat="48.79634" lon="2.22807">
        <ele>130.6</ele>
        <time>2024-05-26T10:53:17Z</time>
      </trkpt>
      <trkpt lat="48.79634" lon="2.22808">
        <ele>130.6</ele>
        <time>2024-05-26T10:53:18Z</time>
      </trkpt>
      <trkpt lat="48.79633" lon="2.2281">
        <ele>130.5</ele>
        <time>2024-05-26T10:53:19Z</time>
      </trkpt>
      <trkpt lat="48.79633" lon="2.22812">
        <ele>130.4</ele>
        <time>2024-05-26T10:53:20Z</time>
      </trkpt>
      <trkpt lat="48.79632" lon="2.22815">
        <ele>130.3</ele>
        <time>2024-05-26T10:53:21Z</time>
      </trkpt>
      <trkpt lat="48.79632" lon="2.22816">
        <ele>130.2</ele>
        <time>2024-05-26T10:53:22Z</time>
      </trkpt>
      <trkpt lat="48.79632" lon="2.22817">
        <ele>130.2</ele>
        <time>2024-05-26T10:53:23Z</time>
      </trkpt>
      <trkpt lat="48.79632" lon="2.22819">
        <ele>130.1</ele>
        <time>2024-05-26T10:53:24Z</time>
      </trkpt>
      <trkpt lat="48.79632" lon="2.22821">
        <ele>130</ele>
        <time>2024-05-26T10:53:25Z</time>
      </trkpt>
      <trkpt lat="48.79632" lon="2.22822">
        <ele>130</ele>
        <time>2024-05-26T10:53:26Z</time>
      </trkpt>
      <trkpt lat="48.79631" lon="2.22824">
        <ele>129.9</ele>
        <time>2024-05-26T10:53:27Z</time>
      </trkpt>
      <trkpt lat="48.79631" lon="2.22826">
        <ele>129.9</ele>
        <time>2024-05-26T10:53:28Z</time>
      </trkpt>
      <trkpt lat="48.7963" lon="2.22826">
        <ele>129.8</ele>
        <time>2024-05-26T10:53:29Z</time>
      </trkpt>
      <trkpt lat="48.7963" lon="2.22828">
        <ele>129.8</ele>
        <time>2024-05-26T10:53:30Z</time>
      </trkpt>
      <trkpt lat="48.7963" lon="2.2283">
        <ele>129.8</ele>
        <time>2024-05-26T10:53:31Z</time>
      </trkpt>
      <trkpt lat="48.7963" lon="2.22831">
        <ele>129.7</ele>
        <time>2024-05-26T10:53:32Z</time>
      </trkpt>
      <trkpt lat="48.79629" lon="2.22834">
        <ele>129.7</ele>
        <time>2024-05-26T10:53:33Z</time>
      </trkpt>
      <trkpt lat="48.79629" lon="2.22835">
        <ele>129.6</ele>
        <time>2024-05-26T10:53:34Z</time>
      </trkpt>
      <trkpt lat="48.79629" lon="2.22836">
        <ele>129.6</ele>
        <time>2024-05-26T10:53:35Z</time>
      </trkpt>
      <trkpt lat="48.79628" lon="2.22839">
        <ele>129.6</ele>
        <time>2024-05-26T10:53:36Z</time>
      </trkpt>
      <trkpt lat="48.79628" lon="2.22841">
        <ele>129.5</ele>
        <time>2024-05-26T10:53:37Z</time>
      </trkpt>
      <trkpt lat="48.79628" lon="2.22842">
        <ele>129.5</ele>
        <time>2024-05-26T10:53:38Z</time>
      </trkpt>
      <trkpt lat="48.79628" lon="2.22843">
        <ele>129.5</ele>
        <time>2024-05-26T10:53:39Z</time>
      </trkpt>
      <trkpt lat="48.79627" lon="2.22844">
        <ele>129.5</ele>
        <time>2024-05-26T10:53:40Z</time>
      </trkpt>
      <trkpt lat="48.79627" lon="2.22846">
        <ele>129.5</ele>
        <time>2024-05-26T10:53:41Z</time>
      </trkpt>
      <trkpt lat="48.79626" lon="2.22847">
        <ele>129.5</ele>
        <time>2024-05-26T10:53:42Z</time>
      </trkpt>
      <trkpt lat="48.79625" lon="2.2285">
        <ele>129.5</ele>
        <time>2024-05-26T10:53:43Z</time>
      </trkpt>
      <trkpt lat="48.79625" lon="2.22852">
        <ele>129.5</ele>
        <time>2024-05-26T10:53:44Z</time>
      </trkpt>
      <trkpt lat="48.79625" lon="2.22854">
        <ele>129.5</ele>
        <time>2024-05-26T10:53:45Z</time>
      </trkpt>
      <trkpt lat="48.79625" lon="2.22855">
        <ele>129.5</ele>
        <time>2024-05-26T10:53:46Z</time>
      </trkpt>
      <trkpt lat="48.79625" lon="2.22856">
        <ele>129.5</ele>
        <time>2024-05-26T10:53:47Z</time>
      </trkpt>
      <trkpt lat="48.79625" lon="2.22857">
        <ele>129.5</ele>
        <time>2024-05-26T10:53:48Z</time>
      </trkpt>
      <trkpt lat="48.79624" lon="2.22858">
        <ele>129.5</ele>
        <time>2024-05-26T10:53:49Z</time>
      </trkpt>
      <trkpt lat="48.79624" lon="2.22861">
        <ele>129.5</ele>
        <time>2024-05-26T10:53:50Z</time>
      </trkpt>
      <trkpt lat="48.79623" lon="2.22862">
        <ele>129.5</ele>
        <time>2024-05-26T10:53:51Z</time>
      </trkpt>
      <trkpt lat="48.79622" lon="2.22864">
        <ele>129.5</ele>
        <time>2024-05-26T10:53:52Z</time>
      </trkpt>
      <trkpt lat="48.79622" lon="2.22865">
        <ele>129.5</ele>
        <time>2024-05-26T10:53:53Z</time>
      </trkpt>
      <trkpt lat="48.79621" lon="2.22866">
        <ele>129.6</ele>
        <time>2024-05-26T10:53:54Z</time>
      </trkpt>
      <trkpt lat="48.79621" lon="2.22868">
        <ele>129.6</ele>
        <time>2024-05-26T10:53:55Z</time>
      </trkpt>
      <trkpt lat="48.7962" lon="2.22869">
        <ele>129.6</ele>
        <time>2024-05-26T10:53:56Z</time>
      </trkpt>
      <trkpt lat="48.7962" lon="2.2287">
        <ele>129.7</ele>
        <time>2024-05-26T10:53:57Z</time>
      </trkpt>
      <trkpt lat="48.79619" lon="2.22871">
        <ele>129.7</ele>
        <time>2024-05-26T10:53:58Z</time>
      </trkpt>
      <trkpt lat="48.79618" lon="2.22872">
        <ele>129.8</ele>
        <time>2024-05-26T10:53:59Z</time>
      </trkpt>
      <trkpt lat="48.79617" lon="2.22874">
        <ele>129.8</ele>
        <time>2024-05-26T10:54:00Z</time>
      </trkpt>
      <trkpt lat="48.79617" lon="2.22874">
        <ele>129.8</ele>
        <time>2024-05-26T10:54:01Z</time>
      </trkpt>
      <trkpt lat="48.79617" lon="2.22876">
        <ele>129.9</ele>
        <time>2024-05-26T10:54:02Z</time>
      </trkpt>
      <trkpt lat="48.79616" lon="2.22878">
        <ele>129.9</ele>
        <time>2024-05-26T10:54:03Z</time>
      </trkpt>
      <trkpt lat="48.79617" lon="2.22882">
        <ele>130</ele>
        <time>2024-05-26T10:54:04Z</time>
      </trkpt>
      <trkpt lat="48.79617" lon="2.22883">
        <ele>130.1</ele>
        <time>2024-05-26T10:54:05Z</time>
      </trkpt>
      <trkpt lat="48.79616" lon="2.22884">
        <ele>130.1</ele>
        <time>2024-05-26T10:54:06Z</time>
      </trkpt>
      <trkpt lat="48.79616" lon="2.22885">
        <ele>130.1</ele>
        <time>2024-05-26T10:54:07Z</time>
      </trkpt>
      <trkpt lat="48.79616" lon="2.22887">
        <ele>130.2</ele>
        <time>2024-05-26T10:54:08Z</time>
      </trkpt>
      <trkpt lat="48.79615" lon="2.22887">
        <ele>130.2</ele>
        <time>2024-05-26T10:54:09Z</time>
      </trkpt>
      <trkpt lat="48.79614" lon="2.22889">
        <ele>130.3</ele>
        <time>2024-05-26T10:54:10Z</time>
      </trkpt>
      <trkpt lat="48.79615" lon="2.2289">
        <ele>130.3</ele>
        <time>2024-05-26T10:54:11Z</time>
      </trkpt>
      <trkpt lat="48.79614" lon="2.22892">
        <ele>130.4</ele>
        <time>2024-05-26T10:54:12Z</time>
      </trkpt>
      <trkpt lat="48.79614" lon="2.22893">
        <ele>130.4</ele>
        <time>2024-05-26T10:54:13Z</time>
      </trkpt>
      <trkpt lat="48.79613" lon="2.22894">
        <ele>130.5</ele>
        <time>2024-05-26T10:54:14Z</time>
      </trkpt>
      <trkpt lat="48.79612" lon="2.22896">
        <ele>130.5</ele>
        <time>2024-05-26T10:54:15Z</time>
      </trkpt>
      <trkpt lat="48.79612" lon="2.22899">
        <ele>130.7</ele>
        <time>2024-05-26T10:54:16Z</time>
      </trkpt>
      <trkpt lat="48.79612" lon="2.22901">
        <ele>130.7</ele>
        <time>2024-05-26T10:54:17Z</time>
      </trkpt>
      <trkpt lat="48.79612" lon="2.22902">
        <ele>130.7</ele>
        <time>2024-05-26T10:54:18Z</time>
      </trkpt>
      <trkpt lat="48.79611" lon="2.22905">
        <ele>130.9</ele>
        <time>2024-05-26T10:54:19Z</time>
      </trkpt>
      <trkpt lat="48.79611" lon="2.22906">
        <ele>130.9</ele>
        <time>2024-05-26T10:54:20Z</time>
      </trkpt>
      <trkpt lat="48.79611" lon="2.22908">
        <ele>131</ele>
        <time>2024-05-26T10:54:21Z</time>
      </trkpt>
      <trkpt lat="48.79611" lon="2.22909">
        <ele>131</ele>
        <time>2024-05-26T10:54:22Z</time>
      </trkpt>
      <trkpt lat="48.7961" lon="2.22911">
        <ele>131.1</ele>
        <time>2024-05-26T10:54:23Z</time>
      </trkpt>
      <trkpt lat="48.7961" lon="2.22913">
        <ele>131.2</ele>
        <time>2024-05-26T10:54:24Z</time>
      </trkpt>
      <trkpt lat="48.79609" lon="2.22915">
        <ele>131.3</ele>
        <time>2024-05-26T10:54:25Z</time>
      </trkpt>
      <trkpt lat="48.7961" lon="2.22916">
        <ele>131.3</ele>
        <time>2024-05-26T10:54:26Z</time>
      </trkpt>
      <trkpt lat="48.7961" lon="2.22917">
        <ele>131.4</ele>
        <time>2024-05-26T10:54:27Z</time>
      </trkpt>
      <trkpt lat="48.7961" lon="2.22918">
        <ele>131.4</ele>
        <time>2024-05-26T10:54:28Z</time>
      </trkpt>
      <trkpt lat="48.7961" lon="2.22919">
        <ele>131.4</ele>
        <time>2024-05-26T10:54:29Z</time>
      </trkpt>
      <trkpt lat="48.7961" lon="2.22922">
        <ele>131.6</ele>
        <time>2024-05-26T10:54:30Z</time>
      </trkpt>
      <trkpt lat="48.7961" lon="2.22924">
        <ele>131.6</ele>
        <time>2024-05-26T10:54:31Z</time>
      </trkpt>
      <trkpt lat="48.79609" lon="2.22925">
        <ele>131.7</ele>
        <time>2024-05-26T10:54:32Z</time>
      </trkpt>
      <trkpt lat="48.79609" lon="2.22927">
        <ele>131.7</ele>
        <time>2024-05-26T10:54:33Z</time>
      </trkpt>
      <trkpt lat="48.79609" lon="2.22927">
        <ele>131.8</ele>
        <time>2024-05-26T10:54:34Z</time>
      </trkpt>
      <trkpt lat="48.79607" lon="2.22929">
        <ele>131.9</ele>
        <time>2024-05-26T10:54:35Z</time>
      </trkpt>
      <trkpt lat="48.79606" lon="2.22931">
        <ele>132</ele>
        <time>2024-05-26T10:54:36Z</time>
      </trkpt>
      <trkpt lat="48.79605" lon="2.22933">
        <ele>132.1</ele>
        <time>2024-05-26T10:54:37Z</time>
      </trkpt>
      <trkpt lat="48.79605" lon="2.22934">
        <ele>132.1</ele>
        <time>2024-05-26T10:54:38Z</time>
      </trkpt>
      <trkpt lat="48.79604" lon="2.22936">
        <ele>132.2</ele>
        <time>2024-05-26T10:54:39Z</time>
      </trkpt>
      <trkpt lat="48.79604" lon="2.22939">
        <ele>132.3</ele>
        <time>2024-05-26T10:54:40Z</time>
      </trkpt>
      <trkpt lat="48.79604" lon="2.22939">
        <ele>132.3</ele>
        <time>2024-05-26T10:54:41Z</time>
      </trkpt>
      <trkpt lat="48.79603" lon="2.22939">
        <ele>132.3</ele>
        <time>2024-05-26T10:54:42Z</time>
      </trkpt>
      <trkpt lat="48.79603" lon="2.22942">
        <ele>132.4</ele>
        <time>2024-05-26T10:54:43Z</time>
      </trkpt>
      <trkpt lat="48.79603" lon="2.22944">
        <ele>132.5</ele>
        <time>2024-05-26T10:54:44Z</time>
      </trkpt>
      <trkpt lat="48.79603" lon="2.22945">
        <ele>132.5</ele>
        <time>2024-05-26T10:54:45Z</time>
      </trkpt>
      <trkpt lat="48.79603" lon="2.22947">
        <ele>132.6</ele>
        <time>2024-05-26T10:54:46Z</time>
      </trkpt>
      <trkpt lat="48.79604" lon="2.22948">
        <ele>132.6</ele>
        <time>2024-05-26T10:54:47Z</time>
      </trkpt>
      <trkpt lat="48.79604" lon="2.22949">
        <ele>132.7</ele>
        <time>2024-05-26T10:54:48Z</time>
      </trkpt>
      <trkpt lat="48.79602" lon="2.2295">
        <ele>132.7</ele>
        <time>2024-05-26T10:54:49Z</time>
      </trkpt>
      <trkpt lat="48.79601" lon="2.22951">
        <ele>132.8</ele>
        <time>2024-05-26T10:54:50Z</time>
      </trkpt>
      <trkpt lat="48.796" lon="2.22954">
        <ele>132.9</ele>
        <time>2024-05-26T10:54:51Z</time>
      </trkpt>
      <trkpt lat="48.79599" lon="2.22955">
        <ele>133</ele>
        <time>2024-05-26T10:54:52Z</time>
      </trkpt>
      <trkpt lat="48.79599" lon="2.22955">
        <ele>133</ele>
        <time>2024-05-26T10:54:53Z</time>
      </trkpt>
      <trkpt lat="48.79598" lon="2.22956">
        <ele>133</ele>
        <time>2024-05-26T10:54:54Z</time>
      </trkpt>
      <trkpt lat="48.79599" lon="2.22957">
        <ele>133.1</ele>
        <time>2024-05-26T10:54:55Z</time>
      </trkpt>
      <trkpt lat="48.79599" lon="2.22958">
        <ele>133.1</ele>
        <time>2024-05-26T10:54:56Z</time>
      </trkpt>
      <trkpt lat="48.79597" lon="2.22959">
        <ele>133.2</ele>
        <time>2024-05-26T10:54:57Z</time>
      </trkpt>
      <trkpt lat="48.79597" lon="2.22961">
        <ele>133.2</ele>
        <time>2024-05-26T10:54:58Z</time>
      </trkpt>
      <trkpt lat="48.79597" lon="2.22961">
        <ele>133.2</ele>
        <time>2024-05-26T10:54:59Z</time>
      </trkpt>
      <trkpt lat="48.79597" lon="2.22961">
        <ele>133.3</ele>
        <time>2024-05-26T10:55:00Z</time>
      </trkpt>
      <trkpt lat="48.79597" lon="2.22961">
        <ele>133.3</ele>
        <time>2024-05-26T10:55:01Z</time>
      </trkpt>
      <trkpt lat="48.79595" lon="2.22963">
        <ele>133.4</ele>
        <time>2024-05-26T10:55:02Z</time>
      </trkpt>
      <trkpt lat="48.79594" lon="2.22966">
        <ele>133.5</ele>
        <time>2024-05-26T10:55:03Z</time>
      </trkpt>
      <trkpt lat="48.79594" lon="2.22966">
        <ele>133.5</ele>
        <time>2024-05-26T10:55:04Z</time>
      </trkpt>
      <trkpt lat="48.79594" lon="2.22968">
        <ele>133.5</ele>
        <time>2024-05-26T10:55:05Z</time>
      </trkpt>
      <trkpt lat="48.79593" lon="2.2297">
        <ele>133.6</ele>
        <time>2024-05-26T10:55:06Z</time>
      </trkpt>
      <trkpt lat="48.79593" lon="2.22973">
        <ele>133.7</ele>
        <time>2024-05-26T10:55:07Z</time>
      </trkpt>
      <trkpt lat="48.79592" lon="2.22975">
        <ele>133.8</ele>
        <time>2024-05-26T10:55:08Z</time>
      </trkpt>
      <trkpt lat="48.79591" lon="2.22976">
        <ele>133.8</ele>
        <time>2024-05-26T10:55:09Z</time>
      </trkpt>
      <trkpt lat="48.79591" lon="2.22978">
        <ele>133.8</ele>
        <time>2024-05-26T10:55:10Z</time>
      </trkpt>
      <trkpt lat="48.7959" lon="2.22979">
        <ele>133.9</ele>
        <time>2024-05-26T10:55:11Z</time>
      </trkpt>
      <trkpt lat="48.7959" lon="2.2298">
        <ele>133.9</ele>
        <time>2024-05-26T10:55:12Z</time>
      </trkpt>
      <trkpt lat="48.7959" lon="2.22981">
        <ele>134</ele>
        <time>2024-05-26T10:55:13Z</time>
      </trkpt>
      <trkpt lat="48.79589" lon="2.22983">
        <ele>134</ele>
        <time>2024-05-26T10:55:14Z</time>
      </trkpt>
      <trkpt lat="48.79589" lon="2.22984">
        <ele>134</ele>
        <time>2024-05-26T10:55:15Z</time>
      </trkpt>
      <trkpt lat="48.7959" lon="2.22985">
        <ele>134.1</ele>
        <time>2024-05-26T10:55:16Z</time>
      </trkpt>
      <trkpt lat="48.7959" lon="2.22987">
        <ele>134.1</ele>
        <time>2024-05-26T10:55:17Z</time>
      </trkpt>
      <trkpt lat="48.79591" lon="2.22989">
        <ele>134.2</ele>
        <time>2024-05-26T10:55:18Z</time>
      </trkpt>
      <trkpt lat="48.79591" lon="2.22991">
        <ele>134.2</ele>
        <time>2024-05-26T10:55:19Z</time>
      </trkpt>
      <trkpt lat="48.79591" lon="2.22992">
        <ele>134.3</ele>
        <time>2024-05-26T10:55:20Z</time>
      </trkpt>
      <trkpt lat="48.79591" lon="2.22993">
        <ele>134.3</ele>
        <time>2024-05-26T10:55:21Z</time>
      </trkpt>
      <trkpt lat="48.79591" lon="2.22995">
        <ele>134.4</ele>
        <time>2024-05-26T10:55:22Z</time>
      </trkpt>
      <trkpt lat="48.7959" lon="2.22996">
        <ele>134.4</ele>
        <time>2024-05-26T10:55:23Z</time>
      </trkpt>
      <trkpt lat="48.7959" lon="2.22997">
        <ele>134.4</ele>
        <time>2024-05-26T10:55:24Z</time>
      </trkpt>
      <trkpt lat="48.79589" lon="2.22999">
        <ele>134.5</ele>
        <time>2024-05-26T10:55:25Z</time>
      </trkpt>
      <trkpt lat="48.79588" lon="2.23">
        <ele>134.5</ele>
        <time>2024-05-26T10:55:26Z</time>
      </trkpt>
      <trkpt lat="48.79587" lon="2.23003">
        <ele>134.6</ele>
        <time>2024-05-26T10:55:27Z</time>
      </trkpt>
      <trkpt lat="48.79586" lon="2.23004">
        <ele>134.7</ele>
        <time>2024-05-26T10:55:28Z</time>
      </trkpt>
      <trkpt lat="48.79586" lon="2.23005">
        <ele>134.7</ele>
        <time>2024-05-26T10:55:29Z</time>
      </trkpt>
      <trkpt lat="48.79586" lon="2.23007">
        <ele>134.7</ele>
        <time>2024-05-26T10:55:30Z</time>
      </trkpt>
      <trkpt lat="48.79586" lon="2.23008">
        <ele>134.8</ele>
        <time>2024-05-26T10:55:31Z</time>
      </trkpt>
      <trkpt lat="48.79586" lon="2.2301">
        <ele>134.8</ele>
        <time>2024-05-26T10:55:32Z</time>
      </trkpt>
      <trkpt lat="48.79586" lon="2.23011">
        <ele>134.8</ele>
        <time>2024-05-26T10:55:33Z</time>
      </trkpt>
      <trkpt lat="48.79586" lon="2.23013">
        <ele>134.9</ele>
        <time>2024-05-26T10:55:34Z</time>
      </trkpt>
      <trkpt lat="48.79585" lon="2.23015">
        <ele>134.9</ele>
        <time>2024-05-26T10:55:35Z</time>
      </trkpt>
      <trkpt lat="48.79585" lon="2.23017">
        <ele>135</ele>
        <time>2024-05-26T10:55:36Z</time>
      </trkpt>
      <trkpt lat="48.79584" lon="2.23019">
        <ele>135.1</ele>
        <time>2024-05-26T10:55:37Z</time>
      </trkpt>
      <trkpt lat="48.79584" lon="2.2302">
        <ele>135.1</ele>
        <time>2024-05-26T10:55:38Z</time>
      </trkpt>
      <trkpt lat="48.79583" lon="2.23022">
        <ele>135.2</ele>
        <time>2024-05-26T10:55:39Z</time>
      </trkpt>
      <trkpt lat="48.79582" lon="2.23023">
        <ele>135.2</ele>
        <time>2024-05-26T10:55:40Z</time>
      </trkpt>
      <trkpt lat="48.79583" lon="2.23025">
        <ele>135.3</ele>
        <time>2024-05-26T10:55:41Z</time>
      </trkpt>
      <trkpt lat="48.79582" lon="2.23026">
        <ele>135.3</ele>
        <time>2024-05-26T10:55:42Z</time>
      </trkpt>
      <trkpt lat="48.79582" lon="2.23027">
        <ele>135.4</ele>
        <time>2024-05-26T10:55:43Z</time>
      </trkpt>
      <trkpt lat="48.79581" lon="2.23029">
        <ele>135.4</ele>
        <time>2024-05-26T10:55:44Z</time>
      </trkpt>
      <trkpt lat="48.79581" lon="2.2303">
        <ele>135.5</ele>
        <time>2024-05-26T10:55:45Z</time>
      </trkpt>
      <trkpt lat="48.7958" lon="2.23031">
        <ele>135.5</ele>
        <time>2024-05-26T10:55:46Z</time>
      </trkpt>
      <trkpt lat="48.7958" lon="2.23032">
        <ele>135.5</ele>
        <time>2024-05-26T10:55:47Z</time>
      </trkpt>
      <trkpt lat="48.7958" lon="2.23032">
        <ele>135.5</ele>
        <time>2024-05-26T10:55:48Z</time>
      </trkpt>
      <trkpt lat="48.7958" lon="2.23033">
        <ele>135.6</ele>
        <time>2024-05-26T10:55:49Z</time>
      </trkpt>
      <trkpt lat="48.7958" lon="2.23034">
        <ele>135.6</ele>
        <time>2024-05-26T10:55:50Z</time>
      </trkpt>
      <trkpt lat="48.79579" lon="2.23034">
        <ele>135.6</ele>
        <time>2024-05-26T10:55:51Z</time>
      </trkpt>
      <trkpt lat="48.79579" lon="2.23034">
        <ele>135.6</ele>
        <time>2024-05-26T10:55:52Z</time>
      </trkpt>
      <trkpt lat="48.79579" lon="2.23033">
        <ele>135.6</ele>
        <time>2024-05-26T10:55:53Z</time>
      </trkpt>
      <trkpt lat="48.79579" lon="2.23033">
        <ele>135.6</ele>
        <time>2024-05-26T10:55:54Z</time>
      </trkpt>
      <trkpt lat="48.79579" lon="2.23034">
        <ele>135.7</ele>
        <time>2024-05-26T10:55:55Z</time>
      </trkpt>
      <trkpt lat="48.7958" lon="2.23035">
        <ele>135.7</ele>
        <time>2024-05-26T10:55:56Z</time>
      </trkpt>
      <trkpt lat="48.79581" lon="2.23037">
        <ele>135.7</ele>
        <time>2024-05-26T10:55:57Z</time>
      </trkpt>
      <trkpt lat="48.79581" lon="2.23039">
        <ele>135.7</ele>
        <time>2024-05-26T10:55:58Z</time>
      </trkpt>
      <trkpt lat="48.79581" lon="2.2304">
        <ele>135.8</ele>
        <time>2024-05-26T10:55:59Z</time>
      </trkpt>
      <trkpt lat="48.79581" lon="2.23042">
        <ele>135.8</ele>
        <time>2024-05-26T10:56:00Z</time>
      </trkpt>
      <trkpt lat="48.79581" lon="2.23043">
        <ele>135.8</ele>
        <time>2024-05-26T10:56:01Z</time>
      </trkpt>
      <trkpt lat="48.7958" lon="2.23045">
        <ele>135.8</ele>
        <time>2024-05-26T10:56:02Z</time>
      </trkpt>
      <trkpt lat="48.7958" lon="2.23046">
        <ele>135.8</ele>
        <time>2024-05-26T10:56:03Z</time>
      </trkpt>
      <trkpt lat="48.7958" lon="2.23048">
        <ele>135.8</ele>
        <time>2024-05-26T10:56:04Z</time>
      </trkpt>
      <trkpt lat="48.7958" lon="2.23049">
        <ele>135.8</ele>
        <time>2024-05-26T10:56:05Z</time>
      </trkpt>
      <trkpt lat="48.7958" lon="2.2305">
        <ele>135.8</ele>
        <time>2024-05-26T10:56:06Z</time>
      </trkpt>
      <trkpt lat="48.7958" lon="2.23051">
        <ele>135.8</ele>
        <time>2024-05-26T10:56:07Z</time>
      </trkpt>
      <trkpt lat="48.79579" lon="2.23053">
        <ele>135.8</ele>
        <time>2024-05-26T10:56:08Z</time>
      </trkpt>
      <trkpt lat="48.79579" lon="2.23054">
        <ele>135.7</ele>
        <time>2024-05-26T10:56:09Z</time>
      </trkpt>
      <trkpt lat="48.79579" lon="2.23055">
        <ele>135.7</ele>
        <time>2024-05-26T10:56:10Z</time>
      </trkpt>
      <trkpt lat="48.79578" lon="2.23056">
        <ele>135.7</ele>
        <time>2024-05-26T10:56:11Z</time>
      </trkpt>
      <trkpt lat="48.79578" lon="2.23057">
        <ele>135.7</ele>
        <time>2024-05-26T10:56:12Z</time>
      </trkpt>
      <trkpt lat="48.79577" lon="2.23058">
        <ele>135.7</ele>
        <time>2024-05-26T10:56:13Z</time>
      </trkpt>
      <trkpt lat="48.79576" lon="2.23058">
        <ele>135.6</ele>
        <time>2024-05-26T10:56:14Z</time>
      </trkpt>
      <trkpt lat="48.79575" lon="2.23059">
        <ele>135.6</ele>
        <time>2024-05-26T10:56:15Z</time>
      </trkpt>
      <trkpt lat="48.79575" lon="2.2306">
        <ele>135.5</ele>
        <time>2024-05-26T10:56:16Z</time>
      </trkpt>
      <trkpt lat="48.79575" lon="2.23061">
        <ele>135.5</ele>
        <time>2024-05-26T10:56:17Z</time>
      </trkpt>
      <trkpt lat="48.79575" lon="2.23062">
        <ele>135.5</ele>
        <time>2024-05-26T10:56:18Z</time>
      </trkpt>
      <trkpt lat="48.79575" lon="2.23063">
        <ele>135.4</ele>
        <time>2024-05-26T10:56:19Z</time>
      </trkpt>
      <trkpt lat="48.79574" lon="2.23063">
        <ele>135.4</ele>
        <time>2024-05-26T10:56:20Z</time>
      </trkpt>
      <trkpt lat="48.79575" lon="2.23064">
        <ele>135.3</ele>
        <time>2024-05-26T10:56:21Z</time>
      </trkpt>
      <trkpt lat="48.79575" lon="2.23065">
        <ele>135.3</ele>
        <time>2024-05-26T10:56:22Z</time>
      </trkpt>
      <trkpt lat="48.79575" lon="2.23065">
        <ele>135.3</ele>
        <time>2024-05-26T10:56:23Z</time>
      </trkpt>
      <trkpt lat="48.79574" lon="2.23067">
        <ele>135.2</ele>
        <time>2024-05-26T10:56:24Z</time>
      </trkpt>
      <trkpt lat="48.79574" lon="2.23069">
        <ele>135.1</ele>
        <time>2024-05-26T10:56:25Z</time>
      </trkpt>
      <trkpt lat="48.79574" lon="2.2307">
        <ele>135.1</ele>
        <time>2024-05-26T10:56:26Z</time>
      </trkpt>
      <trkpt lat="48.79573" lon="2.23071">
        <ele>135</ele>
        <time>2024-05-26T10:56:27Z</time>
      </trkpt>
      <trkpt lat="48.79573" lon="2.23073">
        <ele>134.9</ele>
        <time>2024-05-26T10:56:28Z</time>
      </trkpt>
      <trkpt lat="48.79573" lon="2.23074">
        <ele>134.8</ele>
        <time>2024-05-26T10:56:29Z</time>
      </trkpt>
      <trkpt lat="48.79574" lon="2.23075">
        <ele>134.8</ele>
        <time>2024-05-26T10:56:30Z</time>
      </trkpt>
      <trkpt lat="48.79574" lon="2.23076">
        <ele>134.7</ele>
        <time>2024-05-26T10:56:31Z</time>
      </trkpt>
      <trkpt lat="48.79573" lon="2.23078">
        <ele>134.6</ele>
        <time>2024-05-26T10:56:32Z</time>
      </trkpt>
      <trkpt lat="48.79573" lon="2.23079">
        <ele>134.5</ele>
        <time>2024-05-26T10:56:33Z</time>
      </trkpt>
      <trkpt lat="48.79573" lon="2.23079">
        <ele>134.5</ele>
        <time>2024-05-26T10:56:34Z</time>
      </trkpt>
      <trkpt lat="48.79572" lon="2.23081">
        <ele>134.3</ele>
        <time>2024-05-26T10:56:35Z</time>
      </trkpt>
      <trkpt lat="48.79573" lon="2.23082">
        <ele>134.3</ele>
        <time>2024-05-26T10:56:36Z</time>
      </trkpt>
      <trkpt lat="48.79572" lon="2.23083">
        <ele>134.2</ele>
        <time>2024-05-26T10:56:37Z</time>
      </trkpt>
      <trkpt lat="48.79572" lon="2.23084">
        <ele>134.1</ele>
        <time>2024-05-26T10:56:38Z</time>
      </trkpt>
      <trkpt lat="48.79572" lon="2.23086">
        <ele>134</ele>
        <time>2024-05-26T10:56:39Z</time>
      </trkpt>
      <trkpt lat="48.79571" lon="2.23087">
        <ele>133.8</ele>
        <time>2024-05-26T10:56:40Z</time>
      </trkpt>
      <trkpt lat="48.79571" lon="2.23088">
        <ele>133.8</ele>
        <time>2024-05-26T10:56:41Z</time>
      </trkpt>
      <trkpt lat="48.79571" lon="2.2309">
        <ele>133.6</ele>
        <time>2024-05-26T10:56:42Z</time>
      </trkpt>
      <trkpt lat="48.79569" lon="2.23091">
        <ele>133.4</ele>
        <time>2024-05-26T10:56:43Z</time>
      </trkpt>
      <trkpt lat="48.79568" lon="2.23094">
        <ele>133.2</ele>
        <time>2024-05-26T10:56:44Z</time>
      </trkpt>
      <trkpt lat="48.79567" lon="2.23094">
        <ele>133.1</ele>
        <time>2024-05-26T10:56:45Z</time>
      </trkpt>
      <trkpt lat="48.79567" lon="2.23095">
        <ele>133</ele>
        <time>2024-05-26T10:56:46Z</time>
      </trkpt>
      <trkpt lat="48.79567" lon="2.23096">
        <ele>132.9</ele>
        <time>2024-05-26T10:56:47Z</time>
      </trkpt>
      <trkpt lat="48.79567" lon="2.23098">
        <ele>132.8</ele>
        <time>2024-05-26T10:56:48Z</time>
      </trkpt>
      <trkpt lat="48.79566" lon="2.23099">
        <ele>132.7</ele>
        <time>2024-05-26T10:56:49Z</time>
      </trkpt>
      <trkpt lat="48.79565" lon="2.23099">
        <ele>132.6</ele>
        <time>2024-05-26T10:56:50Z</time>
      </trkpt>
      <trkpt lat="48.79566" lon="2.23099">
        <ele>132.6</ele>
        <time>2024-05-26T10:56:51Z</time>
      </trkpt>
      <trkpt lat="48.79566" lon="2.231">
        <ele>132.5</ele>
        <time>2024-05-26T10:56:52Z</time>
      </trkpt>
      <trkpt lat="48.79566" lon="2.231">
        <ele>132.4</ele>
        <time>2024-05-26T10:56:53Z</time>
      </trkpt>
      <trkpt lat="48.79564" lon="2.23102">
        <ele>132.2</ele>
        <time>2024-05-26T10:56:54Z</time>
      </trkpt>
      <trkpt lat="48.79564" lon="2.23103">
        <ele>132</ele>
        <time>2024-05-26T10:56:55Z</time>
      </trkpt>
      <trkpt lat="48.79563" lon="2.23105">
        <ele>131.9</ele>
        <time>2024-05-26T10:56:56Z</time>
      </trkpt>
      <trkpt lat="48.79564" lon="2.23106">
        <ele>131.7</ele>
        <time>2024-05-26T10:56:57Z</time>
      </trkpt>
      <trkpt lat="48.79564" lon="2.23107">
        <ele>131.5</ele>
        <time>2024-05-26T10:56:58Z</time>
      </trkpt>
      <trkpt lat="48.79564" lon="2.23108">
        <ele>131.5</ele>
        <time>2024-05-26T10:56:59Z</time>
      </trkpt>
      <trkpt lat="48.79563" lon="2.2311">
        <ele>131.3</ele>
        <time>2024-05-26T10:57:00Z</time>
      </trkpt>
      <trkpt lat="48.79563" lon="2.23112">
        <ele>131.2</ele>
        <time>2024-05-26T10:57:01Z</time>
      </trkpt>
      <trkpt lat="48.79563" lon="2.23116">
        <ele>130.8</ele>
        <time>2024-05-26T10:57:02Z</time>
      </trkpt>
      <trkpt lat="48.79564" lon="2.23117">
        <ele>130.6</ele>
        <time>2024-05-26T10:57:03Z</time>
      </trkpt>
      <trkpt lat="48.79564" lon="2.23119">
        <ele>130.5</ele>
        <time>2024-05-26T10:57:04Z</time>
      </trkpt>
      <trkpt lat="48.79563" lon="2.23119">
        <ele>130.4</ele>
        <time>2024-05-26T10:57:05Z</time>
      </trkpt>
      <trkpt lat="48.79563" lon="2.23121">
        <ele>130.3</ele>
        <time>2024-05-26T10:57:06Z</time>
      </trkpt>
      <trkpt lat="48.79562" lon="2.23122">
        <ele>130.1</ele>
        <time>2024-05-26T10:57:07Z</time>
      </trkpt>
      <trkpt lat="48.79562" lon="2.23124">
        <ele>129.9</ele>
        <time>2024-05-26T10:57:08Z</time>
      </trkpt>
      <trkpt lat="48.79561" lon="2.23126">
        <ele>129.8</ele>
        <time>2024-05-26T10:57:09Z</time>
      </trkpt>
      <trkpt lat="48.79562" lon="2.23128">
        <ele>129.6</ele>
        <time>2024-05-26T10:57:10Z</time>
      </trkpt>
      <trkpt lat="48.79562" lon="2.23129">
        <ele>129.5</ele>
        <time>2024-05-26T10:57:11Z</time>
      </trkpt>
      <trkpt lat="48.79562" lon="2.23129">
        <ele>129.4</ele>
        <time>2024-05-26T10:57:12Z</time>
      </trkpt>
      <trkpt lat="48.79562" lon="2.2313">
        <ele>129.3</ele>
        <time>2024-05-26T10:57:13Z</time>
      </trkpt>
      <trkpt lat="48.79562" lon="2.23131">
        <ele>129.3</ele>
        <time>2024-05-26T10:57:14Z</time>
      </trkpt>
      <trkpt lat="48.79561" lon="2.23132">
        <ele>129.2</ele>
        <time>2024-05-26T10:57:15Z</time>
      </trkpt>
      <trkpt lat="48.79561" lon="2.23134">
        <ele>129</ele>
        <time>2024-05-26T10:57:16Z</time>
      </trkpt>
      <trkpt lat="48.79562" lon="2.23136">
        <ele>128.8</ele>
        <time>2024-05-26T10:57:17Z</time>
      </trkpt>
      <trkpt lat="48.79561" lon="2.23138">
        <ele>128.6</ele>
        <time>2024-05-26T10:57:18Z</time>
      </trkpt>
      <trkpt lat="48.7956" lon="2.2314">
        <ele>128.4</ele>
        <time>2024-05-26T10:57:19Z</time>
      </trkpt>
      <trkpt lat="48.7956" lon="2.23142">
        <ele>128.1</ele>
        <time>2024-05-26T10:57:20Z</time>
      </trkpt>
      <trkpt lat="48.79559" lon="2.23144">
        <ele>127.9</ele>
        <time>2024-05-26T10:57:21Z</time>
      </trkpt>
      <trkpt lat="48.79558" lon="2.23147">
        <ele>127.6</ele>
        <time>2024-05-26T10:57:22Z</time>
      </trkpt>
      <trkpt lat="48.79558" lon="2.23149">
        <ele>127.4</ele>
        <time>2024-05-26T10:57:23Z</time>
      </trkpt>
      <trkpt lat="48.79558" lon="2.23153">
        <ele>127</ele>
        <time>2024-05-26T10:57:24Z</time>
      </trkpt>
      <trkpt lat="48.79558" lon="2.23155">
        <ele>126.9</ele>
        <time>2024-05-26T10:57:25Z</time>
      </trkpt>
      <trkpt lat="48.79556" lon="2.23158">
        <ele>126.5</ele>
        <time>2024-05-26T10:57:26Z</time>
      </trkpt>
      <trkpt lat="48.79555" lon="2.23158">
        <ele>126.4</ele>
        <time>2024-05-26T10:57:27Z</time>
      </trkpt>
      <trkpt lat="48.79554" lon="2.2316">
        <ele>126.2</ele>
        <time>2024-05-26T10:57:28Z</time>
      </trkpt>
      <trkpt lat="48.79552" lon="2.23161">
        <ele>126</ele>
        <time>2024-05-26T10:57:29Z</time>
      </trkpt>
      <trkpt lat="48.79552" lon="2.23164">
        <ele>125.8</ele>
        <time>2024-05-26T10:57:30Z</time>
      </trkpt>
      <trkpt lat="48.7955" lon="2.23165">
        <ele>125.6</ele>
        <time>2024-05-26T10:57:31Z</time>
      </trkpt>
      <trkpt lat="48.79549" lon="2.23167">
        <ele>125.4</ele>
        <time>2024-05-26T10:57:32Z</time>
      </trkpt>
      <trkpt lat="48.7955" lon="2.2317">
        <ele>125.2</ele>
        <time>2024-05-26T10:57:33Z</time>
      </trkpt>
      <trkpt lat="48.79548" lon="2.23172">
        <ele>124.9</ele>
        <time>2024-05-26T10:57:34Z</time>
      </trkpt>
      <trkpt lat="48.79548" lon="2.23172">
        <ele>124.8</ele>
        <time>2024-05-26T10:57:35Z</time>
      </trkpt>
      <trkpt lat="48.79547" lon="2.23173">
        <ele>124.7</ele>
        <time>2024-05-26T10:57:36Z</time>
      </trkpt>
      <trkpt lat="48.79545" lon="2.23173">
        <ele>124.6</ele>
        <time>2024-05-26T10:57:37Z</time>
      </trkpt>
      <trkpt lat="48.79544" lon="2.23174">
        <ele>124.4</ele>
        <time>2024-05-26T10:57:38Z</time>
      </trkpt>
      <trkpt lat="48.79544" lon="2.23177">
        <ele>124.2</ele>
        <time>2024-05-26T10:57:39Z</time>
      </trkpt>
      <trkpt lat="48.79543" lon="2.23179">
        <ele>124</ele>
        <time>2024-05-26T10:57:40Z</time>
      </trkpt>
      <trkpt lat="48.79543" lon="2.23183">
        <ele>123.7</ele>
        <time>2024-05-26T10:57:41Z</time>
      </trkpt>
      <trkpt lat="48.79544" lon="2.23185">
        <ele>123.6</ele>
        <time>2024-05-26T10:57:42Z</time>
      </trkpt>
      <trkpt lat="48.79544" lon="2.23187">
        <ele>123.4</ele>
        <time>2024-05-26T10:57:43Z</time>
      </trkpt>
      <trkpt lat="48.79544" lon="2.23189">
        <ele>123.3</ele>
        <time>2024-05-26T10:57:44Z</time>
      </trkpt>
      <trkpt lat="48.79544" lon="2.23192">
        <ele>123.1</ele>
        <time>2024-05-26T10:57:45Z</time>
      </trkpt>
      <trkpt lat="48.79544" lon="2.23194">
        <ele>123</ele>
        <time>2024-05-26T10:57:46Z</time>
      </trkpt>
      <trkpt lat="48.79543" lon="2.23195">
        <ele>122.9</ele>
        <time>2024-05-26T10:57:47Z</time>
      </trkpt>
      <trkpt lat="48.79542" lon="2.23196">
        <ele>122.7</ele>
        <time>2024-05-26T10:57:48Z</time>
      </trkpt>
      <trkpt lat="48.79541" lon="2.23197">
        <ele>122.7</ele>
        <time>2024-05-26T10:57:49Z</time>
      </trkpt>
      <trkpt lat="48.7954" lon="2.23198">
        <ele>122.6</ele>
        <time>2024-05-26T10:57:50Z</time>
      </trkpt>
      <trkpt lat="48.79539" lon="2.23198">
        <ele>122.4</ele>
        <time>2024-05-26T10:57:51Z</time>
      </trkpt>
      <trkpt lat="48.79539" lon="2.232">
        <ele>122.3</ele>
        <time>2024-05-26T10:57:52Z</time>
      </trkpt>
      <trkpt lat="48.79537" lon="2.23202">
        <ele>122.1</ele>
        <time>2024-05-26T10:57:53Z</time>
      </trkpt>
      <trkpt lat="48.79537" lon="2.23203">
        <ele>122.1</ele>
        <time>2024-05-26T10:57:54Z</time>
      </trkpt>
      <trkpt lat="48.79536" lon="2.23203">
        <ele>122</ele>
        <time>2024-05-26T10:57:55Z</time>
      </trkpt>
      <trkpt lat="48.79535" lon="2.23204">
        <ele>121.9</ele>
        <time>2024-05-26T10:57:56Z</time>
      </trkpt>
      <trkpt lat="48.79536" lon="2.23206">
        <ele>121.8</ele>
        <time>2024-05-26T10:57:57Z</time>
      </trkpt>
      <trkpt lat="48.79537" lon="2.2321">
        <ele>121.6</ele>
        <time>2024-05-26T10:57:58Z</time>
      </trkpt>
      <trkpt lat="48.79537" lon="2.23211">
        <ele>121.5</ele>
        <time>2024-05-26T10:57:59Z</time>
      </trkpt>
      <trkpt lat="48.79539" lon="2.23215">
        <ele>121.3</ele>
        <time>2024-05-26T10:58:00Z</time>
      </trkpt>
      <trkpt lat="48.7954" lon="2.23216">
        <ele>121.2</ele>
        <time>2024-05-26T10:58:01Z</time>
      </trkpt>
      <trkpt lat="48.79542" lon="2.23218">
        <ele>121</ele>
        <time>2024-05-26T10:58:02Z</time>
      </trkpt>
      <trkpt lat="48.79542" lon="2.2322">
        <ele>121</ele>
        <time>2024-05-26T10:58:03Z</time>
      </trkpt>
      <trkpt lat="48.79541" lon="2.23222">
        <ele>120.8</ele>
        <time>2024-05-26T10:58:04Z</time>
      </trkpt>
      <trkpt lat="48.7954" lon="2.23224">
        <ele>120.7</ele>
        <time>2024-05-26T10:58:05Z</time>
      </trkpt>
      <trkpt lat="48.7954" lon="2.23225">
        <ele>120.6</ele>
        <time>2024-05-26T10:58:06Z</time>
      </trkpt>
      <trkpt lat="48.79539" lon="2.23227">
        <ele>120.5</ele>
        <time>2024-05-26T10:58:07Z</time>
      </trkpt>
      <trkpt lat="48.79539" lon="2.23229">
        <ele>120.4</ele>
        <time>2024-05-26T10:58:08Z</time>
      </trkpt>
      <trkpt lat="48.79539" lon="2.23232">
        <ele>120.2</ele>
        <time>2024-05-26T10:58:09Z</time>
      </trkpt>
      <trkpt lat="48.79538" lon="2.23234">
        <ele>120.3</ele>
        <time>2024-05-26T10:58:10Z</time>
      </trkpt>
      <trkpt lat="48.79538" lon="2.23235">
        <ele>120.3</ele>
        <time>2024-05-26T10:58:11Z</time>
      </trkpt>
      <trkpt lat="48.79538" lon="2.23237">
        <ele>120.3</ele>
        <time>2024-05-26T10:58:12Z</time>
      </trkpt>
      <trkpt lat="48.79538" lon="2.23239">
        <ele>120.3</ele>
        <time>2024-05-26T10:58:13Z</time>
      </trkpt>
      <trkpt lat="48.79536" lon="2.2324">
        <ele>120.3</ele>
        <time>2024-05-26T10:58:14Z</time>
      </trkpt>
      <trkpt lat="48.79536" lon="2.23242">
        <ele>120.4</ele>
        <time>2024-05-26T10:58:15Z</time>
      </trkpt>
      <trkpt lat="48.79534" lon="2.23242">
        <ele>120.4</ele>
        <time>2024-05-26T10:58:16Z</time>
      </trkpt>
      <trkpt lat="48.79534" lon="2.23241">
        <ele>120.4</ele>
        <time>2024-05-26T10:58:17Z</time>
      </trkpt>
      <trkpt lat="48.79533" lon="2.23241">
        <ele>120.4</ele>
        <time>2024-05-26T10:58:18Z</time>
      </trkpt>
      <trkpt lat="48.79533" lon="2.2324">
        <ele>120.4</ele>
        <time>2024-05-26T10:58:19Z</time>
      </trkpt>
      <trkpt lat="48.79532" lon="2.2324">
        <ele>120.4</ele>
        <time>2024-05-26T10:58:20Z</time>
      </trkpt>
      <trkpt lat="48.79532" lon="2.23241">
        <ele>120.4</ele>
        <time>2024-05-26T10:58:21Z</time>
      </trkpt>
      <trkpt lat="48.79531" lon="2.23242">
        <ele>120.4</ele>
        <time>2024-05-26T10:58:22Z</time>
      </trkpt>
      <trkpt lat="48.79531" lon="2.23243">
        <ele>120.4</ele>
        <time>2024-05-26T10:58:23Z</time>
      </trkpt>
      <trkpt lat="48.7953" lon="2.23243">
        <ele>120.4</ele>
        <time>2024-05-26T10:58:24Z</time>
      </trkpt>
      <trkpt lat="48.7953" lon="2.23244">
        <ele>120.4</ele>
        <time>2024-05-26T10:58:25Z</time>
      </trkpt>
      <trkpt lat="48.7953" lon="2.23246">
        <ele>120.4</ele>
        <time>2024-05-26T10:58:26Z</time>
      </trkpt>
      <trkpt lat="48.7953" lon="2.23248">
        <ele>120.4</ele>
        <time>2024-05-26T10:58:27Z</time>
      </trkpt>
      <trkpt lat="48.7953" lon="2.23249">
        <ele>120.4</ele>
        <time>2024-05-26T10:58:28Z</time>
      </trkpt>
      <trkpt lat="48.7953" lon="2.2325">
        <ele>120.4</ele>
        <time>2024-05-26T10:58:29Z</time>
      </trkpt>
      <trkpt lat="48.79529" lon="2.23251">
        <ele>120.4</ele>
        <time>2024-05-26T10:58:30Z</time>
      </trkpt>
      <trkpt lat="48.7953" lon="2.23252">
        <ele>120.4</ele>
        <time>2024-05-26T10:58:31Z</time>
      </trkpt>
      <trkpt lat="48.7953" lon="2.23253">
        <ele>120.4</ele>
        <time>2024-05-26T10:58:32Z</time>
      </trkpt>
      <trkpt lat="48.7953" lon="2.23254">
        <ele>120.4</ele>
        <time>2024-05-26T10:58:33Z</time>
      </trkpt>
      <trkpt lat="48.7953" lon="2.23255">
        <ele>120.4</ele>
        <time>2024-05-26T10:58:34Z</time>
      </trkpt>
      <trkpt lat="48.7953" lon="2.23256">
        <ele>120.4</ele>
        <time>2024-05-26T10:58:35Z</time>
      </trkpt>
      <trkpt lat="48.7953" lon="2.23257">
        <ele>120.4</ele>
        <time>2024-05-26T10:58:36Z</time>
      </trkpt>
      <trkpt lat="48.7953" lon="2.23258">
        <ele>120.4</ele>
        <time>2024-05-26T10:58:37Z</time>
      </trkpt>
      <trkpt lat="48.7953" lon="2.23259">
        <ele>120.4</ele>
        <time>2024-05-26T10:58:38Z</time>
      </trkpt>
      <trkpt lat="48.7953" lon="2.2326">
        <ele>120.4</ele>
        <time>2024-05-26T10:58:39Z</time>
      </trkpt>
      <trkpt lat="48.7953" lon="2.23262">
        <ele>120.3</ele>
        <time>2024-05-26T10:58:40Z</time>
      </trkpt>
      <trkpt lat="48.7953" lon="2.23264">
        <ele>120.3</ele>
        <time>2024-05-26T10:58:41Z</time>
      </trkpt>
      <trkpt lat="48.79529" lon="2.23265">
        <ele>120.3</ele>
        <time>2024-05-26T10:58:42Z</time>
      </trkpt>
      <trkpt lat="48.79529" lon="2.23268">
        <ele>120.3</ele>
        <time>2024-05-26T10:58:43Z</time>
      </trkpt>
      <trkpt lat="48.79529" lon="2.23269">
        <ele>120.2</ele>
        <time>2024-05-26T10:58:44Z</time>
      </trkpt>
      <trkpt lat="48.79529" lon="2.23271">
        <ele>120.2</ele>
        <time>2024-05-26T10:58:45Z</time>
      </trkpt>
      <trkpt lat="48.79529" lon="2.23274">
        <ele>120.2</ele>
        <time>2024-05-26T10:58:46Z</time>
      </trkpt>
      <trkpt lat="48.79529" lon="2.23275">
        <ele>120.2</ele>
        <time>2024-05-26T10:58:47Z</time>
      </trkpt>
      <trkpt lat="48.79528" lon="2.23276">
        <ele>120.2</ele>
        <time>2024-05-26T10:58:48Z</time>
      </trkpt>
      <trkpt lat="48.79529" lon="2.23279">
        <ele>120.2</ele>
        <time>2024-05-26T10:58:49Z</time>
      </trkpt>
      <trkpt lat="48.79529" lon="2.23282">
        <ele>120.1</ele>
        <time>2024-05-26T10:58:50Z</time>
      </trkpt>
      <trkpt lat="48.79529" lon="2.23283">
        <ele>120.1</ele>
        <time>2024-05-26T10:58:51Z</time>
      </trkpt>
      <trkpt lat="48.79529" lon="2.23284">
        <ele>120.1</ele>
        <time>2024-05-26T10:58:52Z</time>
      </trkpt>
      <trkpt lat="48.79529" lon="2.23286">
        <ele>120.1</ele>
        <time>2024-05-26T10:58:53Z</time>
      </trkpt>
      <trkpt lat="48.79528" lon="2.23288">
        <ele>120.1</ele>
        <time>2024-05-26T10:58:54Z</time>
      </trkpt>
      <trkpt lat="48.79528" lon="2.2329">
        <ele>120.1</ele>
        <time>2024-05-26T10:58:55Z</time>
      </trkpt>
      <trkpt lat="48.79527" lon="2.23293">
        <ele>120</ele>
        <time>2024-05-26T10:58:56Z</time>
      </trkpt>
      <trkpt lat="48.79527" lon="2.23294">
        <ele>120</ele>
        <time>2024-05-26T10:58:57Z</time>
      </trkpt>
      <trkpt lat="48.79528" lon="2.23295">
        <ele>120</ele>
        <time>2024-05-26T10:58:58Z</time>
      </trkpt>
      <trkpt lat="48.79528" lon="2.23296">
        <ele>120</ele>
        <time>2024-05-26T10:58:59Z</time>
      </trkpt>
      <trkpt lat="48.79529" lon="2.23299">
        <ele>120</ele>
        <time>2024-05-26T10:59:00Z</time>
      </trkpt>
      <trkpt lat="48.79529" lon="2.233">
        <ele>120</ele>
        <time>2024-05-26T10:59:01Z</time>
      </trkpt>
      <trkpt lat="48.79529" lon="2.23303">
        <ele>119.9</ele>
        <time>2024-05-26T10:59:02Z</time>
      </trkpt>
      <trkpt lat="48.79529" lon="2.23305">
        <ele>119.9</ele>
        <time>2024-05-26T10:59:03Z</time>
      </trkpt>
      <trkpt lat="48.79529" lon="2.23306">
        <ele>119.9</ele>
        <time>2024-05-26T10:59:04Z</time>
      </trkpt>
      <trkpt lat="48.79528" lon="2.23307">
        <ele>119.9</ele>
        <time>2024-05-26T10:59:05Z</time>
      </trkpt>
      <trkpt lat="48.79528" lon="2.23309">
        <ele>119.9</ele>
        <time>2024-05-26T10:59:06Z</time>
      </trkpt>
      <trkpt lat="48.79528" lon="2.23311">
        <ele>119.8</ele>
        <time>2024-05-26T10:59:07Z</time>
      </trkpt>
      <trkpt lat="48.79528" lon="2.23313">
        <ele>119.8</ele>
        <time>2024-05-26T10:59:08Z</time>
      </trkpt>
      <trkpt lat="48.79529" lon="2.23315">
        <ele>119.8</ele>
        <time>2024-05-26T10:59:09Z</time>
      </trkpt>
      <trkpt lat="48.79528" lon="2.23317">
        <ele>119.8</ele>
        <time>2024-05-26T10:59:10Z</time>
      </trkpt>
      <trkpt lat="48.79528" lon="2.23319">
        <ele>119.8</ele>
        <time>2024-05-26T10:59:11Z</time>
      </trkpt>
      <trkpt lat="48.79528" lon="2.23322">
        <ele>119.7</ele>
        <time>2024-05-26T10:59:12Z</time>
      </trkpt>
      <trkpt lat="48.79527" lon="2.23324">
        <ele>119.7</ele>
        <time>2024-05-26T10:59:13Z</time>
      </trkpt>
      <trkpt lat="48.79527" lon="2.23326">
        <ele>119.7</ele>
        <time>2024-05-26T10:59:14Z</time>
      </trkpt>
      <trkpt lat="48.79527" lon="2.23327">
        <ele>119.7</ele>
        <time>2024-05-26T10:59:15Z</time>
      </trkpt>
      <trkpt lat="48.79527" lon="2.23329">
        <ele>119.6</ele>
        <time>2024-05-26T10:59:16Z</time>
      </trkpt>
      <trkpt lat="48.79527" lon="2.2333">
        <ele>119.6</ele>
        <time>2024-05-26T10:59:17Z</time>
      </trkpt>
      <trkpt lat="48.79527" lon="2.23331">
        <ele>119.6</ele>
        <time>2024-05-26T10:59:18Z</time>
      </trkpt>
      <trkpt lat="48.79526" lon="2.23333">
        <ele>119.6</ele>
        <time>2024-05-26T10:59:19Z</time>
      </trkpt>
      <trkpt lat="48.79525" lon="2.23334">
        <ele>119.6</ele>
        <time>2024-05-26T10:59:20Z</time>
      </trkpt>
      <trkpt lat="48.79524" lon="2.23337">
        <ele>119.5</ele>
        <time>2024-05-26T10:59:21Z</time>
      </trkpt>
      <trkpt lat="48.79524" lon="2.23339">
        <ele>119.5</ele>
        <time>2024-05-26T10:59:22Z</time>
      </trkpt>
      <trkpt lat="48.79523" lon="2.2334">
        <ele>119.5</ele>
        <time>2024-05-26T10:59:23Z</time>
      </trkpt>
      <trkpt lat="48.79522" lon="2.23343">
        <ele>119.5</ele>
        <time>2024-05-26T10:59:24Z</time>
      </trkpt>
      <trkpt lat="48.79522" lon="2.23344">
        <ele>119.5</ele>
        <time>2024-05-26T10:59:25Z</time>
      </trkpt>
      <trkpt lat="48.79521" lon="2.23346">
        <ele>119.4</ele>
        <time>2024-05-26T10:59:26Z</time>
      </trkpt>
      <trkpt lat="48.7952" lon="2.23347">
        <ele>119.4</ele>
        <time>2024-05-26T10:59:27Z</time>
      </trkpt>
      <trkpt lat="48.79519" lon="2.23348">
        <ele>119.4</ele>
        <time>2024-05-26T10:59:28Z</time>
      </trkpt>
      <trkpt lat="48.79518" lon="2.23348">
        <ele>119.4</ele>
        <time>2024-05-26T10:59:29Z</time>
      </trkpt>
      <trkpt lat="48.79517" lon="2.23349">
        <ele>119.4</ele>
        <time>2024-05-26T10:59:30Z</time>
      </trkpt>
      <trkpt lat="48.79516" lon="2.2335">
        <ele>119.4</ele>
        <time>2024-05-26T10:59:31Z</time>
      </trkpt>
      <trkpt lat="48.79516" lon="2.2335">
        <ele>119.4</ele>
        <time>2024-05-26T10:59:32Z</time>
      </trkpt>
      <trkpt lat="48.79515" lon="2.23351">
        <ele>119.4</ele>
        <time>2024-05-26T10:59:33Z</time>
      </trkpt>
      <trkpt lat="48.79515" lon="2.23351">
        <ele>119.3</ele>
        <time>2024-05-26T10:59:34Z</time>
      </trkpt>
      <trkpt lat="48.79514" lon="2.23354">
        <ele>119.3</ele>
        <time>2024-05-26T10:59:35Z</time>
      </trkpt>
      <trkpt lat="48.79513" lon="2.23356">
        <ele>119.3</ele>
        <time>2024-05-26T10:59:36Z</time>
      </trkpt>
      <trkpt lat="48.79513" lon="2.23358">
        <ele>119.3</ele>
        <time>2024-05-26T10:59:37Z</time>
      </trkpt>
      <trkpt lat="48.79512" lon="2.23359">
        <ele>119.3</ele>
        <time>2024-05-26T10:59:38Z</time>
      </trkpt>
      <trkpt lat="48.79512" lon="2.2336">
        <ele>119.3</ele>
        <time>2024-05-26T10:59:39Z</time>
      </trkpt>
      <trkpt lat="48.79513" lon="2.23362">
        <ele>119.3</ele>
        <time>2024-05-26T10:59:40Z</time>
      </trkpt>
      <trkpt lat="48.79512" lon="2.23365">
        <ele>119.3</ele>
        <time>2024-05-26T10:59:41Z</time>
      </trkpt>
      <trkpt lat="48.79511" lon="2.23366">
        <ele>119.3</ele>
        <time>2024-05-26T10:59:42Z</time>
      </trkpt>
      <trkpt lat="48.79511" lon="2.23368">
        <ele>119.2</ele>
        <time>2024-05-26T10:59:43Z</time>
      </trkpt>
      <trkpt lat="48.79511" lon="2.23369">
        <ele>119.2</ele>
        <time>2024-05-26T10:59:44Z</time>
      </trkpt>
      <trkpt lat="48.7951" lon="2.23374">
        <ele>119.2</ele>
        <time>2024-05-26T10:59:45Z</time>
      </trkpt>
      <trkpt lat="48.79509" lon="2.23376">
        <ele>119.2</ele>
        <time>2024-05-26T10:59:46Z</time>
      </trkpt>
      <trkpt lat="48.79508" lon="2.2338">
        <ele>119.2</ele>
        <time>2024-05-26T10:59:47Z</time>
      </trkpt>
      <trkpt lat="48.79507" lon="2.23381">
        <ele>119.2</ele>
        <time>2024-05-26T10:59:48Z</time>
      </trkpt>
      <trkpt lat="48.79507" lon="2.23386">
        <ele>119.2</ele>
        <time>2024-05-26T10:59:49Z</time>
      </trkpt>
      <trkpt lat="48.79507" lon="2.23388">
        <ele>119.2</ele>
        <time>2024-05-26T10:59:50Z</time>
      </trkpt>
      <trkpt lat="48.79507" lon="2.2339">
        <ele>119.2</ele>
        <time>2024-05-26T10:59:51Z</time>
      </trkpt>
      <trkpt lat="48.79506" lon="2.23391">
        <ele>119.2</ele>
        <time>2024-05-26T10:59:52Z</time>
      </trkpt>
      <trkpt lat="48.79505" lon="2.23391">
        <ele>119.2</ele>
        <time>2024-05-26T10:59:53Z</time>
      </trkpt>
      <trkpt lat="48.79505" lon="2.23392">
        <ele>119.2</ele>
        <time>2024-05-26T10:59:54Z</time>
      </trkpt>
      <trkpt lat="48.79504" lon="2.23393">
        <ele>119.2</ele>
        <time>2024-05-26T10:59:55Z</time>
      </trkpt>
      <trkpt lat="48.79504" lon="2.23394">
        <ele>119.2</ele>
        <time>2024-05-26T10:59:56Z</time>
      </trkpt>
      <trkpt lat="48.79504" lon="2.23393">
        <ele>119.2</ele>
        <time>2024-05-26T10:59:57Z</time>
      </trkpt>
      <trkpt lat="48.79505" lon="2.23393">
        <ele>119.2</ele>
        <time>2024-05-26T10:59:58Z</time>
      </trkpt>
      <trkpt lat="48.79505" lon="2.23393">
        <ele>119.2</ele>
        <time>2024-05-26T10:59:59Z</time>
      </trkpt>
      <trkpt lat="48.79506" lon="2.23396">
        <ele>119.2</ele>
        <time>2024-05-26T11:00:00Z</time>
      </trkpt>
      <trkpt lat="48.79507" lon="2.23398">
        <ele>119.2</ele>
        <time>2024-05-26T11:00:01Z</time>
      </trkpt>
      <trkpt lat="48.79508" lon="2.23399">
        <ele>119.2</ele>
        <time>2024-05-26T11:00:02Z</time>
      </trkpt>
      <trkpt lat="48.79507" lon="2.23399">
        <ele>119.2</ele>
        <time>2024-05-26T11:00:03Z</time>
      </trkpt>
      <trkpt lat="48.79508" lon="2.23401">
        <ele>119.2</ele>
        <time>2024-05-26T11:00:04Z</time>
      </trkpt>
      <trkpt lat="48.79508" lon="2.23402">
        <ele>119.2</ele>
        <time>2024-05-26T11:00:05Z</time>
      </trkpt>
      <trkpt lat="48.79508" lon="2.23404">
        <ele>119.2</ele>
        <time>2024-05-26T11:00:06Z</time>
      </trkpt>
      <trkpt lat="48.79507" lon="2.23406">
        <ele>119.3</ele>
        <time>2024-05-26T11:00:07Z</time>
      </trkpt>
      <trkpt lat="48.79507" lon="2.23407">
        <ele>119.3</ele>
        <time>2024-05-26T11:00:08Z</time>
      </trkpt>
      <trkpt lat="48.79507" lon="2.23408">
        <ele>119.3</ele>
        <time>2024-05-26T11:00:09Z</time>
      </trkpt>
      <trkpt lat="48.79506" lon="2.2341">
        <ele>119.3</ele>
        <time>2024-05-26T11:00:10Z</time>
      </trkpt>
      <trkpt lat="48.79506" lon="2.23411">
        <ele>119.3</ele>
        <time>2024-05-26T11:00:11Z</time>
      </trkpt>
      <trkpt lat="48.79505" lon="2.23411">
        <ele>119.3</ele>
        <time>2024-05-26T11:00:12Z</time>
      </trkpt>
      <trkpt lat="48.79504" lon="2.23413">
        <ele>119.3</ele>
        <time>2024-05-26T11:00:13Z</time>
      </trkpt>
      <trkpt lat="48.79504" lon="2.23415">
        <ele>119.3</ele>
        <time>2024-05-26T11:00:14Z</time>
      </trkpt>
      <trkpt lat="48.79503" lon="2.23417">
        <ele>119.3</ele>
        <time>2024-05-26T11:00:15Z</time>
      </trkpt>
      <trkpt lat="48.79503" lon="2.23418">
        <ele>119.3</ele>
        <time>2024-05-26T11:00:16Z</time>
      </trkpt>
      <trkpt lat="48.79503" lon="2.23421">
        <ele>119.3</ele>
        <time>2024-05-26T11:00:17Z</time>
      </trkpt>
      <trkpt lat="48.79503" lon="2.23422">
        <ele>119.3</ele>
        <time>2024-05-26T11:00:18Z</time>
      </trkpt>
      <trkpt lat="48.79502" lon="2.23425">
        <ele>119.3</ele>
        <time>2024-05-26T11:00:19Z</time>
      </trkpt>
      <trkpt lat="48.79502" lon="2.23426">
        <ele>119.3</ele>
        <time>2024-05-26T11:00:20Z</time>
      </trkpt>
      <trkpt lat="48.79502" lon="2.23428">
        <ele>119.3</ele>
        <time>2024-05-26T11:00:21Z</time>
      </trkpt>
      <trkpt lat="48.79501" lon="2.2343">
        <ele>119.3</ele>
        <time>2024-05-26T11:00:22Z</time>
      </trkpt>
      <trkpt lat="48.795" lon="2.23432">
        <ele>119.3</ele>
        <time>2024-05-26T11:00:23Z</time>
      </trkpt>
      <trkpt lat="48.795" lon="2.23433">
        <ele>119.3</ele>
        <time>2024-05-26T11:00:24Z</time>
      </trkpt>
      <trkpt lat="48.795" lon="2.23434">
        <ele>119.3</ele>
        <time>2024-05-26T11:00:25Z</time>
      </trkpt>
      <trkpt lat="48.795" lon="2.23436">
        <ele>119.4</ele>
        <time>2024-05-26T11:00:26Z</time>
      </trkpt>
      <trkpt lat="48.79499" lon="2.2344">
        <ele>119.5</ele>
        <time>2024-05-26T11:00:27Z</time>
      </trkpt>
      <trkpt lat="48.79499" lon="2.23441">
        <ele>119.6</ele>
        <time>2024-05-26T11:00:28Z</time>
      </trkpt>
      <trkpt lat="48.79499" lon="2.23442">
        <ele>119.6</ele>
        <time>2024-05-26T11:00:29Z</time>
      </trkpt>
      <trkpt lat="48.79498" lon="2.23444">
        <ele>119.6</ele>
        <time>2024-05-26T11:00:30Z</time>
      </trkpt>
      <trkpt lat="48.79498" lon="2.23445">
        <ele>119.7</ele>
        <time>2024-05-26T11:00:31Z</time>
      </trkpt>
      <trkpt lat="48.79497" lon="2.23446">
        <ele>119.7</ele>
        <time>2024-05-26T11:00:32Z</time>
      </trkpt>
      <trkpt lat="48.79497" lon="2.23445">
        <ele>119.7</ele>
        <time>2024-05-26T11:00:33Z</time>
      </trkpt>
      <trkpt lat="48.79496" lon="2.23448">
        <ele>119.8</ele>
        <time>2024-05-26T11:00:34Z</time>
      </trkpt>
      <trkpt lat="48.79496" lon="2.23451">
        <ele>119.8</ele>
        <time>2024-05-26T11:00:35Z</time>
      </trkpt>
      <trkpt lat="48.79495" lon="2.23452">
        <ele>120</ele>
        <time>2024-05-26T11:00:36Z</time>
      </trkpt>
      <trkpt lat="48.79496" lon="2.23454">
        <ele>120.1</ele>
        <time>2024-05-26T11:00:37Z</time>
      </trkpt>
      <trkpt lat="48.79496" lon="2.23455">
        <ele>120.2</ele>
        <time>2024-05-26T11:00:38Z</time>
      </trkpt>
      <trkpt lat="48.79495" lon="2.23456">
        <ele>120.3</ele>
        <time>2024-05-26T11:00:39Z</time>
      </trkpt>
      <trkpt lat="48.79495" lon="2.23459">
        <ele>120.5</ele>
        <time>2024-05-26T11:00:40Z</time>
      </trkpt>
      <trkpt lat="48.79495" lon="2.2346">
        <ele>120.6</ele>
        <time>2024-05-26T11:00:41Z</time>
      </trkpt>
      <trkpt lat="48.79494" lon="2.23461">
        <ele>120.7</ele>
        <time>2024-05-26T11:00:42Z</time>
      </trkpt>
      <trkpt lat="48.79494" lon="2.23462">
        <ele>120.8</ele>
        <time>2024-05-26T11:00:43Z</time>
      </trkpt>
      <trkpt lat="48.79495" lon="2.23462">
        <ele>120.8</ele>
        <time>2024-05-26T11:00:44Z</time>
      </trkpt>
      <trkpt lat="48.79496" lon="2.23465">
        <ele>121.1</ele>
        <time>2024-05-26T11:00:45Z</time>
      </trkpt>
      <trkpt lat="48.79496" lon="2.23466">
        <ele>121.2</ele>
        <time>2024-05-26T11:00:46Z</time>
      </trkpt>
      <trkpt lat="48.79496" lon="2.23466">
        <ele>121.2</ele>
        <time>2024-05-26T11:00:47Z</time>
      </trkpt>
      <trkpt lat="48.79495" lon="2.23468">
        <ele>121.4</ele>
        <time>2024-05-26T11:00:48Z</time>
      </trkpt>
      <trkpt lat="48.79495" lon="2.2347">
        <ele>121.5</ele>
        <time>2024-05-26T11:00:49Z</time>
      </trkpt>
      <trkpt lat="48.79495" lon="2.23472">
        <ele>121.7</ele>
        <time>2024-05-26T11:00:50Z</time>
      </trkpt>
      <trkpt lat="48.79495" lon="2.23474">
        <ele>121.8</ele>
        <time>2024-05-26T11:00:51Z</time>
      </trkpt>
      <trkpt lat="48.79494" lon="2.23475">
        <ele>121.9</ele>
        <time>2024-05-26T11:00:52Z</time>
      </trkpt>
      <trkpt lat="48.79494" lon="2.23476">
        <ele>122</ele>
        <time>2024-05-26T11:00:53Z</time>
      </trkpt>
      <trkpt lat="48.79494" lon="2.23478">
        <ele>122.2</ele>
        <time>2024-05-26T11:00:54Z</time>
      </trkpt>
      <trkpt lat="48.79494" lon="2.23479">
        <ele>122.3</ele>
        <time>2024-05-26T11:00:55Z</time>
      </trkpt>
      <trkpt lat="48.79494" lon="2.2348">
        <ele>122.4</ele>
        <time>2024-05-26T11:00:56Z</time>
      </trkpt>
      <trkpt lat="48.79494" lon="2.23481">
        <ele>122.4</ele>
        <time>2024-05-26T11:00:57Z</time>
      </trkpt>
      <trkpt lat="48.79493" lon="2.23484">
        <ele>122.6</ele>
        <time>2024-05-26T11:00:58Z</time>
      </trkpt>
      <trkpt lat="48.79493" lon="2.23485">
        <ele>122.7</ele>
        <time>2024-05-26T11:00:59Z</time>
      </trkpt>
      <trkpt lat="48.79494" lon="2.23486">
        <ele>122.8</ele>
        <time>2024-05-26T11:01:00Z</time>
      </trkpt>
      <trkpt lat="48.79494" lon="2.23487">
        <ele>122.9</ele>
        <time>2024-05-26T11:01:01Z</time>
      </trkpt>
      <trkpt lat="48.79494" lon="2.23489">
        <ele>123.1</ele>
        <time>2024-05-26T11:01:02Z</time>
      </trkpt>
      <trkpt lat="48.79494" lon="2.2349">
        <ele>123.1</ele>
        <time>2024-05-26T11:01:03Z</time>
      </trkpt>
      <trkpt lat="48.79494" lon="2.23492">
        <ele>123.3</ele>
        <time>2024-05-26T11:01:04Z</time>
      </trkpt>
      <trkpt lat="48.79494" lon="2.23495">
        <ele>123.5</ele>
        <time>2024-05-26T11:01:05Z</time>
      </trkpt>
      <trkpt lat="48.79494" lon="2.23496">
        <ele>123.5</ele>
        <time>2024-05-26T11:01:06Z</time>
      </trkpt>
      <trkpt lat="48.79493" lon="2.23496">
        <ele>123.6</ele>
        <time>2024-05-26T11:01:07Z</time>
      </trkpt>
      <trkpt lat="48.79493" lon="2.23497">
        <ele>123.7</ele>
        <time>2024-05-26T11:01:08Z</time>
      </trkpt>
      <trkpt lat="48.79493" lon="2.23499">
        <ele>123.8</ele>
        <time>2024-05-26T11:01:09Z</time>
      </trkpt>
      <trkpt lat="48.79492" lon="2.235">
        <ele>123.9</ele>
        <time>2024-05-26T11:01:10Z</time>
      </trkpt>
      <trkpt lat="48.79491" lon="2.23502">
        <ele>124</ele>
        <time>2024-05-26T11:01:11Z</time>
      </trkpt>
      <trkpt lat="48.79491" lon="2.23503">
        <ele>124</ele>
        <time>2024-05-26T11:01:12Z</time>
      </trkpt>
      <trkpt lat="48.7949" lon="2.23505">
        <ele>124.1</ele>
        <time>2024-05-26T11:01:13Z</time>
      </trkpt>
      <trkpt lat="48.7949" lon="2.23506">
        <ele>124.1</ele>
        <time>2024-05-26T11:01:14Z</time>
      </trkpt>
      <trkpt lat="48.7949" lon="2.23507">
        <ele>124.1</ele>
        <time>2024-05-26T11:01:15Z</time>
      </trkpt>
      <trkpt lat="48.79489" lon="2.23508">
        <ele>124.2</ele>
        <time>2024-05-26T11:01:16Z</time>
      </trkpt>
      <trkpt lat="48.79488" lon="2.2351">
        <ele>124.3</ele>
        <time>2024-05-26T11:01:17Z</time>
      </trkpt>
      <trkpt lat="48.79487" lon="2.23512">
        <ele>124.3</ele>
        <time>2024-05-26T11:01:18Z</time>
      </trkpt>
      <trkpt lat="48.79487" lon="2.23514">
        <ele>124.4</ele>
        <time>2024-05-26T11:01:19Z</time>
      </trkpt>
      <trkpt lat="48.79487" lon="2.23516">
        <ele>124.5</ele>
        <time>2024-05-26T11:01:20Z</time>
      </trkpt>
      <trkpt lat="48.79487" lon="2.23517">
        <ele>124.5</ele>
        <time>2024-05-26T11:01:21Z</time>
      </trkpt>
      <trkpt lat="48.79487" lon="2.23519">
        <ele>124.5</ele>
        <time>2024-05-26T11:01:22Z</time>
      </trkpt>
      <trkpt lat="48.79486" lon="2.23521">
        <ele>124.6</ele>
        <time>2024-05-26T11:01:23Z</time>
      </trkpt>
      <trkpt lat="48.79485" lon="2.23523">
        <ele>124.7</ele>
        <time>2024-05-26T11:01:24Z</time>
      </trkpt>
      <trkpt lat="48.79485" lon="2.23524">
        <ele>124.7</ele>
        <time>2024-05-26T11:01:25Z</time>
      </trkpt>
      <trkpt lat="48.79485" lon="2.23526">
        <ele>124.7</ele>
        <time>2024-05-26T11:01:26Z</time>
      </trkpt>
      <trkpt lat="48.79485" lon="2.23528">
        <ele>124.8</ele>
        <time>2024-05-26T11:01:27Z</time>
      </trkpt>
      <trkpt lat="48.79484" lon="2.23531">
        <ele>124.9</ele>
        <time>2024-05-26T11:01:28Z</time>
      </trkpt>
      <trkpt lat="48.79484" lon="2.23532">
        <ele>124.9</ele>
        <time>2024-05-26T11:01:29Z</time>
      </trkpt>
      <trkpt lat="48.79484" lon="2.23534">
        <ele>124.9</ele>
        <time>2024-05-26T11:01:30Z</time>
      </trkpt>
      <trkpt lat="48.79484" lon="2.23536">
        <ele>125</ele>
        <time>2024-05-26T11:01:31Z</time>
      </trkpt>
      <trkpt lat="48.79483" lon="2.23538">
        <ele>125.1</ele>
        <time>2024-05-26T11:01:32Z</time>
      </trkpt>
      <trkpt lat="48.79482" lon="2.2354">
        <ele>125.1</ele>
        <time>2024-05-26T11:01:33Z</time>
      </trkpt>
      <trkpt lat="48.79483" lon="2.23542">
        <ele>125.2</ele>
        <time>2024-05-26T11:01:34Z</time>
      </trkpt>
      <trkpt lat="48.79482" lon="2.23545">
        <ele>125.2</ele>
        <time>2024-05-26T11:01:35Z</time>
      </trkpt>
      <trkpt lat="48.79482" lon="2.23547">
        <ele>125.3</ele>
        <time>2024-05-26T11:01:36Z</time>
      </trkpt>
      <trkpt lat="48.79482" lon="2.23549">
        <ele>125.3</ele>
        <time>2024-05-26T11:01:37Z</time>
      </trkpt>
      <trkpt lat="48.79482" lon="2.23551">
        <ele>125.4</ele>
        <time>2024-05-26T11:01:38Z</time>
      </trkpt>
      <trkpt lat="48.79482" lon="2.23554">
        <ele>125.4</ele>
        <time>2024-05-26T11:01:39Z</time>
      </trkpt>
      <trkpt lat="48.79482" lon="2.23556">
        <ele>125.4</ele>
        <time>2024-05-26T11:01:40Z</time>
      </trkpt>
      <trkpt lat="48.79481" lon="2.23557">
        <ele>125.5</ele>
        <time>2024-05-26T11:01:41Z</time>
      </trkpt>
      <trkpt lat="48.79481" lon="2.2356">
        <ele>125.5</ele>
        <time>2024-05-26T11:01:42Z</time>
      </trkpt>
      <trkpt lat="48.79481" lon="2.23561">
        <ele>125.6</ele>
        <time>2024-05-26T11:01:43Z</time>
      </trkpt>
      <trkpt lat="48.7948" lon="2.23563">
        <ele>125.6</ele>
        <time>2024-05-26T11:01:44Z</time>
      </trkpt>
      <trkpt lat="48.7948" lon="2.23566">
        <ele>125.7</ele>
        <time>2024-05-26T11:01:45Z</time>
      </trkpt>
      <trkpt lat="48.7948" lon="2.23567">
        <ele>125.7</ele>
        <time>2024-05-26T11:01:46Z</time>
      </trkpt>
      <trkpt lat="48.7948" lon="2.23569">
        <ele>125.7</ele>
        <time>2024-05-26T11:01:47Z</time>
      </trkpt>
      <trkpt lat="48.79479" lon="2.23569">
        <ele>125.7</ele>
        <time>2024-05-26T11:01:48Z</time>
      </trkpt>
      <trkpt lat="48.79479" lon="2.23571">
        <ele>125.7</ele>
        <time>2024-05-26T11:01:49Z</time>
      </trkpt>
      <trkpt lat="48.79478" lon="2.23571">
        <ele>125.7</ele>
        <time>2024-05-26T11:01:50Z</time>
      </trkpt>
      <trkpt lat="48.79478" lon="2.23573">
        <ele>125.6</ele>
        <time>2024-05-26T11:01:51Z</time>
      </trkpt>
      <trkpt lat="48.79478" lon="2.23575">
        <ele>125.6</ele>
        <time>2024-05-26T11:01:52Z</time>
      </trkpt>
      <trkpt lat="48.79477" lon="2.23577">
        <ele>125.6</ele>
        <time>2024-05-26T11:01:53Z</time>
      </trkpt>
      <trkpt lat="48.79478" lon="2.2358">
        <ele>125.5</ele>
        <time>2024-05-26T11:01:54Z</time>
      </trkpt>
      <trkpt lat="48.79478" lon="2.23581">
        <ele>125.5</ele>
        <time>2024-05-26T11:01:55Z</time>
      </trkpt>
      <trkpt lat="48.79478" lon="2.23583">
        <ele>125.5</ele>
        <time>2024-05-26T11:01:56Z</time>
      </trkpt>
      <trkpt lat="48.79478" lon="2.23584">
        <ele>125.4</ele>
        <time>2024-05-26T11:01:57Z</time>
      </trkpt>
      <trkpt lat="48.79479" lon="2.23584">
        <ele>125.4</ele>
        <time>2024-05-26T11:01:58Z</time>
      </trkpt>
      <trkpt lat="48.79479" lon="2.23586">
        <ele>125.4</ele>
        <time>2024-05-26T11:01:59Z</time>
      </trkpt>
      <trkpt lat="48.79479" lon="2.23588">
        <ele>125.3</ele>
        <time>2024-05-26T11:02:00Z</time>
      </trkpt>
      <trkpt lat="48.7948" lon="2.23589">
        <ele>125.3</ele>
        <time>2024-05-26T11:02:01Z</time>
      </trkpt>
      <trkpt lat="48.7948" lon="2.23589">
        <ele>125.3</ele>
        <time>2024-05-26T11:02:02Z</time>
      </trkpt>
      <trkpt lat="48.79481" lon="2.23591">
        <ele>125.3</ele>
        <time>2024-05-26T11:02:03Z</time>
      </trkpt>
      <trkpt lat="48.79482" lon="2.23594">
        <ele>125.3</ele>
        <time>2024-05-26T11:02:04Z</time>
      </trkpt>
      <trkpt lat="48.79483" lon="2.23595">
        <ele>125.3</ele>
        <time>2024-05-26T11:02:05Z</time>
      </trkpt>
      <trkpt lat="48.79483" lon="2.23596">
        <ele>125.2</ele>
        <time>2024-05-26T11:02:06Z</time>
      </trkpt>
      <trkpt lat="48.79484" lon="2.23596">
        <ele>125.2</ele>
        <time>2024-05-26T11:02:07Z</time>
      </trkpt>
      <trkpt lat="48.79484" lon="2.23596">
        <ele>125.2</ele>
        <time>2024-05-26T11:02:08Z</time>
      </trkpt>
      <trkpt lat="48.79484" lon="2.23596">
        <ele>125.2</ele>
        <time>2024-05-26T11:02:09Z</time>
      </trkpt>
      <trkpt lat="48.79485" lon="2.23598">
        <ele>125.2</ele>
        <time>2024-05-26T11:02:10Z</time>
      </trkpt>
      <trkpt lat="48.79485" lon="2.23599">
        <ele>125.2</ele>
        <time>2024-05-26T11:02:11Z</time>
      </trkpt>
      <trkpt lat="48.79486" lon="2.23601">
        <ele>125</ele>
        <time>2024-05-26T11:02:12Z</time>
      </trkpt>
      <trkpt lat="48.79487" lon="2.23602">
        <ele>124.9</ele>
        <time>2024-05-26T11:02:13Z</time>
      </trkpt>
      <trkpt lat="48.79488" lon="2.23602">
        <ele>124.8</ele>
        <time>2024-05-26T11:02:14Z</time>
      </trkpt>
      <trkpt lat="48.79489" lon="2.23603">
        <ele>124.7</ele>
        <time>2024-05-26T11:02:15Z</time>
      </trkpt>
      <trkpt lat="48.79489" lon="2.23604">
        <ele>124.6</ele>
        <time>2024-05-26T11:02:16Z</time>
      </trkpt>
      <trkpt lat="48.7949" lon="2.23604">
        <ele>124.5</ele>
        <time>2024-05-26T11:02:17Z</time>
      </trkpt>
      <trkpt lat="48.79491" lon="2.23605">
        <ele>124.4</ele>
        <time>2024-05-26T11:02:18Z</time>
      </trkpt>
      <trkpt lat="48.79492" lon="2.23605">
        <ele>124.3</ele>
        <time>2024-05-26T11:02:19Z</time>
      </trkpt>
      <trkpt lat="48.79493" lon="2.23604">
        <ele>124.2</ele>
        <time>2024-05-26T11:02:20Z</time>
      </trkpt>
      <trkpt lat="48.79495" lon="2.23603">
        <ele>124</ele>
        <time>2024-05-26T11:02:21Z</time>
      </trkpt>
      <trkpt lat="48.79495" lon="2.23603">
        <ele>123.9</ele>
        <time>2024-05-26T11:02:22Z</time>
      </trkpt>
      <trkpt lat="48.79497" lon="2.23602">
        <ele>123.7</ele>
        <time>2024-05-26T11:02:23Z</time>
      </trkpt>
      <trkpt lat="48.79498" lon="2.23602">
        <ele>123.6</ele>
        <time>2024-05-26T11:02:24Z</time>
      </trkpt>
      <trkpt lat="48.79499" lon="2.23602">
        <ele>123.5</ele>
        <time>2024-05-26T11:02:25Z</time>
      </trkpt>
      <trkpt lat="48.79499" lon="2.23602">
        <ele>123.4</ele>
        <time>2024-05-26T11:02:26Z</time>
      </trkpt>
      <trkpt lat="48.79501" lon="2.23602">
        <ele>123.2</ele>
        <time>2024-05-26T11:02:27Z</time>
      </trkpt>
      <trkpt lat="48.79502" lon="2.23601">
        <ele>123.1</ele>
        <time>2024-05-26T11:02:28Z</time>
      </trkpt>
      <trkpt lat="48.79503" lon="2.23601">
        <ele>123</ele>
        <time>2024-05-26T11:02:29Z</time>
      </trkpt>
      <trkpt lat="48.79505" lon="2.23601">
        <ele>122.8</ele>
        <time>2024-05-26T11:02:30Z</time>
      </trkpt>
      <trkpt lat="48.79507" lon="2.23601">
        <ele>122.6</ele>
        <time>2024-05-26T11:02:31Z</time>
      </trkpt>
      <trkpt lat="48.79508" lon="2.23601">
        <ele>122.4</ele>
        <time>2024-05-26T11:02:32Z</time>
      </trkpt>
      <trkpt lat="48.7951" lon="2.23601">
        <ele>122.2</ele>
        <time>2024-05-26T11:02:33Z</time>
      </trkpt>
      <trkpt lat="48.79512" lon="2.23599">
        <ele>121.9</ele>
        <time>2024-05-26T11:02:34Z</time>
      </trkpt>
      <trkpt lat="48.79512" lon="2.23599">
        <ele>121.8</ele>
        <time>2024-05-26T11:02:35Z</time>
      </trkpt>
      <trkpt lat="48.79513" lon="2.23599">
        <ele>121.7</ele>
        <time>2024-05-26T11:02:36Z</time>
      </trkpt>
      <trkpt lat="48.79515" lon="2.23598">
        <ele>121.5</ele>
        <time>2024-05-26T11:02:37Z</time>
      </trkpt>
      <trkpt lat="48.79516" lon="2.23598">
        <ele>121.4</ele>
        <time>2024-05-26T11:02:38Z</time>
      </trkpt>
      <trkpt lat="48.79517" lon="2.23597">
        <ele>121.3</ele>
        <time>2024-05-26T11:02:39Z</time>
      </trkpt>
      <trkpt lat="48.79519" lon="2.23596">
        <ele>121</ele>
        <time>2024-05-26T11:02:40Z</time>
      </trkpt>
      <trkpt lat="48.7952" lon="2.23597">
        <ele>120.9</ele>
        <time>2024-05-26T11:02:41Z</time>
      </trkpt>
      <trkpt lat="48.79521" lon="2.23597">
        <ele>120.8</ele>
        <time>2024-05-26T11:02:42Z</time>
      </trkpt>
      <trkpt lat="48.79523" lon="2.23596">
        <ele>120.6</ele>
        <time>2024-05-26T11:02:43Z</time>
      </trkpt>
      <trkpt lat="48.79525" lon="2.23597">
        <ele>120.4</ele>
        <time>2024-05-26T11:02:44Z</time>
      </trkpt>
      <trkpt lat="48.79527" lon="2.23599">
        <ele>120.1</ele>
        <time>2024-05-26T11:02:45Z</time>
      </trkpt>
      <trkpt lat="48.79528" lon="2.236">
        <ele>120</ele>
        <time>2024-05-26T11:02:46Z</time>
      </trkpt>
      <trkpt lat="48.79529" lon="2.23601">
        <ele>119.8</ele>
        <time>2024-05-26T11:02:47Z</time>
      </trkpt>
      <trkpt lat="48.7953" lon="2.23602">
        <ele>119.7</ele>
        <time>2024-05-26T11:02:48Z</time>
      </trkpt>
      <trkpt lat="48.79532" lon="2.23602">
        <ele>119.5</ele>
        <time>2024-05-26T11:02:49Z</time>
      </trkpt>
      <trkpt lat="48.79533" lon="2.23603">
        <ele>119.4</ele>
        <time>2024-05-26T11:02:50Z</time>
      </trkpt>
      <trkpt lat="48.79535" lon="2.23604">
        <ele>119.2</ele>
        <time>2024-05-26T11:02:51Z</time>
      </trkpt>
      <trkpt lat="48.79536" lon="2.23605">
        <ele>119.1</ele>
        <time>2024-05-26T11:02:52Z</time>
      </trkpt>
      <trkpt lat="48.79536" lon="2.23606">
        <ele>119</ele>
        <time>2024-05-26T11:02:53Z</time>
      </trkpt>
      <trkpt lat="48.79538" lon="2.23607">
        <ele>118.8</ele>
        <time>2024-05-26T11:02:54Z</time>
      </trkpt>
      <trkpt lat="48.79539" lon="2.23607">
        <ele>118.8</ele>
        <time>2024-05-26T11:02:55Z</time>
      </trkpt>
      <trkpt lat="48.7954" lon="2.23608">
        <ele>118.7</ele>
        <time>2024-05-26T11:02:56Z</time>
      </trkpt>
      <trkpt lat="48.79541" lon="2.23608">
        <ele>118.6</ele>
        <time>2024-05-26T11:02:57Z</time>
      </trkpt>
      <trkpt lat="48.79542" lon="2.23609">
        <ele>118.5</ele>
        <time>2024-05-26T11:02:58Z</time>
      </trkpt>
      <trkpt lat="48.79543" lon="2.23609">
        <ele>118.4</ele>
        <time>2024-05-26T11:02:59Z</time>
      </trkpt>
      <trkpt lat="48.79543" lon="2.23609">
        <ele>118.4</ele>
        <time>2024-05-26T11:03:00Z</time>
      </trkpt>
      <trkpt lat="48.79542" lon="2.23609">
        <ele>118.4</ele>
        <time>2024-05-26T11:03:01Z</time>
      </trkpt>
      <trkpt lat="48.79541" lon="2.23608">
        <ele>118.3</ele>
        <time>2024-05-26T11:03:02Z</time>
      </trkpt>
      <trkpt lat="48.79541" lon="2.23608">
        <ele>118.3</ele>
        <time>2024-05-26T11:03:03Z</time>
      </trkpt>
      <trkpt lat="48.79541" lon="2.23608">
        <ele>118.3</ele>
        <time>2024-05-26T11:03:04Z</time>
      </trkpt>
      <trkpt lat="48.79541" lon="2.23608">
        <ele>118.2</ele>
        <time>2024-05-26T11:03:05Z</time>
      </trkpt>
      <trkpt lat="48.79541" lon="2.23608">
        <ele>118.2</ele>
        <time>2024-05-26T11:03:06Z</time>
      </trkpt>
      <trkpt lat="48.79541" lon="2.23608">
        <ele>118.2</ele>
        <time>2024-05-26T11:03:07Z</time>
      </trkpt>
      <trkpt lat="48.79541" lon="2.23608">
        <ele>118.2</ele>
        <time>2024-05-26T11:03:08Z</time>
      </trkpt>
      <trkpt lat="48.79541" lon="2.23608">
        <ele>118.2</ele>
        <time>2024-05-26T11:03:09Z</time>
      </trkpt>
      <trkpt lat="48.79542" lon="2.23608">
        <ele>118.2</ele>
        <time>2024-05-26T11:03:10Z</time>
      </trkpt>
      <trkpt lat="48.79543" lon="2.23608">
        <ele>118.1</ele>
        <time>2024-05-26T11:03:11Z</time>
      </trkpt>
      <trkpt lat="48.79543" lon="2.23608">
        <ele>118.1</ele>
        <time>2024-05-26T11:03:12Z</time>
      </trkpt>
      <trkpt lat="48.79544" lon="2.23608">
        <ele>118.1</ele>
        <time>2024-05-26T11:03:13Z</time>
      </trkpt>
      <trkpt lat="48.79544" lon="2.23608">
        <ele>118</ele>
        <time>2024-05-26T11:03:14Z</time>
      </trkpt>
      <trkpt lat="48.79545" lon="2.23609">
        <ele>118</ele>
        <time>2024-05-26T11:03:15Z</time>
      </trkpt>
      <trkpt lat="48.79545" lon="2.23609">
        <ele>117.9</ele>
        <time>2024-05-26T11:03:16Z</time>
      </trkpt>
      <trkpt lat="48.79545" lon="2.23609">
        <ele>117.9</ele>
        <time>2024-05-26T11:03:17Z</time>
      </trkpt>
      <trkpt lat="48.79545" lon="2.23609">
        <ele>117.9</ele>
        <time>2024-05-26T11:03:18Z</time>
      </trkpt>
      <trkpt lat="48.79545" lon="2.23609">
        <ele>117.8</ele>
        <time>2024-05-26T11:03:19Z</time>
      </trkpt>
      <trkpt lat="48.79547" lon="2.23609">
        <ele>117.7</ele>
        <time>2024-05-26T11:03:20Z</time>
      </trkpt>
      <trkpt lat="48.79548" lon="2.2361">
        <ele>117.7</ele>
        <time>2024-05-26T11:03:21Z</time>
      </trkpt>
      <trkpt lat="48.79549" lon="2.23611">
        <ele>117.6</ele>
        <time>2024-05-26T11:03:22Z</time>
      </trkpt>
      <trkpt lat="48.79549" lon="2.23612">
        <ele>117.5</ele>
        <time>2024-05-26T11:03:23Z</time>
      </trkpt>
      <trkpt lat="48.7955" lon="2.23612">
        <ele>117.4</ele>
        <time>2024-05-26T11:03:24Z</time>
      </trkpt>
      <trkpt lat="48.79551" lon="2.23613">
        <ele>117.4</ele>
        <time>2024-05-26T11:03:25Z</time>
      </trkpt>
      <trkpt lat="48.79552" lon="2.23615">
        <ele>117.3</ele>
        <time>2024-05-26T11:03:26Z</time>
      </trkpt>
      <trkpt lat="48.79552" lon="2.23616">
        <ele>117.2</ele>
        <time>2024-05-26T11:03:27Z</time>
      </trkpt>
      <trkpt lat="48.79553" lon="2.23618">
        <ele>117.1</ele>
        <time>2024-05-26T11:03:28Z</time>
      </trkpt>
      <trkpt lat="48.79553" lon="2.23619">
        <ele>117</ele>
        <time>2024-05-26T11:03:29Z</time>
      </trkpt>
      <trkpt lat="48.79554" lon="2.2362">
        <ele>117</ele>
        <time>2024-05-26T11:03:30Z</time>
      </trkpt>
      <trkpt lat="48.79555" lon="2.2362">
        <ele>116.9</ele>
        <time>2024-05-26T11:03:31Z</time>
      </trkpt>
      <trkpt lat="48.79557" lon="2.23623">
        <ele>116.9</ele>
        <time>2024-05-26T11:03:32Z</time>
      </trkpt>
      <trkpt lat="48.79557" lon="2.23624">
        <ele>116.9</ele>
        <time>2024-05-26T11:03:33Z</time>
      </trkpt>
      <trkpt lat="48.79558" lon="2.23624">
        <ele>116.9</ele>
        <time>2024-05-26T11:03:34Z</time>
      </trkpt>
      <trkpt lat="48.79559" lon="2.23626">
        <ele>116.8</ele>
        <time>2024-05-26T11:03:35Z</time>
      </trkpt>
      <trkpt lat="48.7956" lon="2.23627">
        <ele>116.8</ele>
        <time>2024-05-26T11:03:36Z</time>
      </trkpt>
      <trkpt lat="48.7956" lon="2.23628">
        <ele>116.8</ele>
        <time>2024-05-26T11:03:37Z</time>
      </trkpt>
      <trkpt lat="48.7956" lon="2.23629">
        <ele>116.8</ele>
        <time>2024-05-26T11:03:38Z</time>
      </trkpt>
      <trkpt lat="48.79561" lon="2.23631">
        <ele>116.8</ele>
        <time>2024-05-26T11:03:39Z</time>
      </trkpt>
      <trkpt lat="48.79561" lon="2.23632">
        <ele>116.8</ele>
        <time>2024-05-26T11:03:40Z</time>
      </trkpt>
      <trkpt lat="48.79561" lon="2.23634">
        <ele>116.8</ele>
        <time>2024-05-26T11:03:41Z</time>
      </trkpt>
      <trkpt lat="48.79561" lon="2.23635">
        <ele>116.8</ele>
        <time>2024-05-26T11:03:42Z</time>
      </trkpt>
      <trkpt lat="48.79561" lon="2.23637">
        <ele>116.8</ele>
        <time>2024-05-26T11:03:43Z</time>
      </trkpt>
      <trkpt lat="48.79561" lon="2.2364">
        <ele>116.8</ele>
        <time>2024-05-26T11:03:44Z</time>
      </trkpt>
      <trkpt lat="48.79562" lon="2.23642">
        <ele>116.8</ele>
        <time>2024-05-26T11:03:45Z</time>
      </trkpt>
      <trkpt lat="48.79562" lon="2.23644">
        <ele>116.8</ele>
        <time>2024-05-26T11:03:46Z</time>
      </trkpt>
      <trkpt lat="48.79562" lon="2.23646">
        <ele>116.8</ele>
        <time>2024-05-26T11:03:47Z</time>
      </trkpt>
      <trkpt lat="48.79562" lon="2.23648">
        <ele>116.8</ele>
        <time>2024-05-26T11:03:48Z</time>
      </trkpt>
      <trkpt lat="48.79563" lon="2.2365">
        <ele>116.8</ele>
        <time>2024-05-26T11:03:49Z</time>
      </trkpt>
      <trkpt lat="48.79564" lon="2.23652">
        <ele>116.9</ele>
        <time>2024-05-26T11:03:50Z</time>
      </trkpt>
      <trkpt lat="48.79564" lon="2.23655">
        <ele>116.9</ele>
        <time>2024-05-26T11:03:51Z</time>
      </trkpt>
      <trkpt lat="48.79563" lon="2.23657">
        <ele>116.9</ele>
        <time>2024-05-26T11:03:52Z</time>
      </trkpt>
      <trkpt lat="48.79563" lon="2.23658">
        <ele>116.9</ele>
        <time>2024-05-26T11:03:53Z</time>
      </trkpt>
      <trkpt lat="48.79564" lon="2.2366">
        <ele>116.9</ele>
        <time>2024-05-26T11:03:54Z</time>
      </trkpt>
      <trkpt lat="48.79564" lon="2.23662">
        <ele>116.9</ele>
        <time>2024-05-26T11:03:55Z</time>
      </trkpt>
      <trkpt lat="48.79564" lon="2.23664">
        <ele>117</ele>
        <time>2024-05-26T11:03:56Z</time>
      </trkpt>
      <trkpt lat="48.79564" lon="2.23667">
        <ele>117</ele>
        <time>2024-05-26T11:03:57Z</time>
      </trkpt>
      <trkpt lat="48.79564" lon="2.23669">
        <ele>117.1</ele>
        <time>2024-05-26T11:03:58Z</time>
      </trkpt>
      <trkpt lat="48.79564" lon="2.23672">
        <ele>117.1</ele>
        <time>2024-05-26T11:03:59Z</time>
      </trkpt>
      <trkpt lat="48.79564" lon="2.23674">
        <ele>117.1</ele>
        <time>2024-05-26T11:04:00Z</time>
      </trkpt>
      <trkpt lat="48.79563" lon="2.23677">
        <ele>117.2</ele>
        <time>2024-05-26T11:04:01Z</time>
      </trkpt>
      <trkpt lat="48.79563" lon="2.23678">
        <ele>117.2</ele>
        <time>2024-05-26T11:04:02Z</time>
      </trkpt>
      <trkpt lat="48.79562" lon="2.23679">
        <ele>117.3</ele>
        <time>2024-05-26T11:04:03Z</time>
      </trkpt>
      <trkpt lat="48.79562" lon="2.23682">
        <ele>117.3</ele>
        <time>2024-05-26T11:04:04Z</time>
      </trkpt>
      <trkpt lat="48.79562" lon="2.23684">
        <ele>117.3</ele>
        <time>2024-05-26T11:04:05Z</time>
      </trkpt>
      <trkpt lat="48.79561" lon="2.23685">
        <ele>117.4</ele>
        <time>2024-05-26T11:04:06Z</time>
      </trkpt>
      <trkpt lat="48.79561" lon="2.23686">
        <ele>117.4</ele>
        <time>2024-05-26T11:04:07Z</time>
      </trkpt>
      <trkpt lat="48.7956" lon="2.23688">
        <ele>117.4</ele>
        <time>2024-05-26T11:04:08Z</time>
      </trkpt>
      <trkpt lat="48.79559" lon="2.23691">
        <ele>117.5</ele>
        <time>2024-05-26T11:04:09Z</time>
      </trkpt>
      <trkpt lat="48.79559" lon="2.23692">
        <ele>117.5</ele>
        <time>2024-05-26T11:04:10Z</time>
      </trkpt>
      <trkpt lat="48.79559" lon="2.23693">
        <ele>117.5</ele>
        <time>2024-05-26T11:04:11Z</time>
      </trkpt>
      <trkpt lat="48.79557" lon="2.23695">
        <ele>117.6</ele>
        <time>2024-05-26T11:04:12Z</time>
      </trkpt>
      <trkpt lat="48.79557" lon="2.23696">
        <ele>117.6</ele>
        <time>2024-05-26T11:04:13Z</time>
      </trkpt>
      <trkpt lat="48.79556" lon="2.23697">
        <ele>117.6</ele>
        <time>2024-05-26T11:04:14Z</time>
      </trkpt>
      <trkpt lat="48.79555" lon="2.23699">
        <ele>117.7</ele>
        <time>2024-05-26T11:04:15Z</time>
      </trkpt>
      <trkpt lat="48.79554" lon="2.237">
        <ele>117.7</ele>
        <time>2024-05-26T11:04:16Z</time>
      </trkpt>
      <trkpt lat="48.79554" lon="2.23701">
        <ele>117.7</ele>
        <time>2024-05-26T11:04:17Z</time>
      </trkpt>
      <trkpt lat="48.79553" lon="2.23704">
        <ele>117.8</ele>
        <time>2024-05-26T11:04:18Z</time>
      </trkpt>
      <trkpt lat="48.79553" lon="2.23705">
        <ele>117.8</ele>
        <time>2024-05-26T11:04:19Z</time>
      </trkpt>
      <trkpt lat="48.79552" lon="2.23706">
        <ele>117.8</ele>
        <time>2024-05-26T11:04:20Z</time>
      </trkpt>
      <trkpt lat="48.79552" lon="2.23708">
        <ele>117.8</ele>
        <time>2024-05-26T11:04:21Z</time>
      </trkpt>
      <trkpt lat="48.79551" lon="2.2371">
        <ele>117.9</ele>
        <time>2024-05-26T11:04:22Z</time>
      </trkpt>
      <trkpt lat="48.7955" lon="2.23712">
        <ele>117.9</ele>
        <time>2024-05-26T11:04:23Z</time>
      </trkpt>
      <trkpt lat="48.79549" lon="2.23713">
        <ele>117.9</ele>
        <time>2024-05-26T11:04:24Z</time>
      </trkpt>
      <trkpt lat="48.79549" lon="2.23715">
        <ele>117.9</ele>
        <time>2024-05-26T11:04:25Z</time>
      </trkpt>
      <trkpt lat="48.79548" lon="2.23716">
        <ele>118</ele>
        <time>2024-05-26T11:04:26Z</time>
      </trkpt>
      <trkpt lat="48.79548" lon="2.23718">
        <ele>118</ele>
        <time>2024-05-26T11:04:27Z</time>
      </trkpt>
      <trkpt lat="48.79547" lon="2.23721">
        <ele>118</ele>
        <time>2024-05-26T11:04:28Z</time>
      </trkpt>
      <trkpt lat="48.79546" lon="2.23722">
        <ele>118</ele>
        <time>2024-05-26T11:04:29Z</time>
      </trkpt>
      <trkpt lat="48.79546" lon="2.23723">
        <ele>118</ele>
        <time>2024-05-26T11:04:30Z</time>
      </trkpt>
      <trkpt lat="48.79546" lon="2.23725">
        <ele>118</ele>
        <time>2024-05-26T11:04:31Z</time>
      </trkpt>
      <trkpt lat="48.79545" lon="2.23727">
        <ele>118</ele>
        <time>2024-05-26T11:04:32Z</time>
      </trkpt>
      <trkpt lat="48.79545" lon="2.2373">
        <ele>118.1</ele>
        <time>2024-05-26T11:04:33Z</time>
      </trkpt>
      <trkpt lat="48.79544" lon="2.23732">
        <ele>118.1</ele>
        <time>2024-05-26T11:04:34Z</time>
      </trkpt>
      <trkpt lat="48.79543" lon="2.23733">
        <ele>118.1</ele>
        <time>2024-05-26T11:04:35Z</time>
      </trkpt>
      <trkpt lat="48.79542" lon="2.23735">
        <ele>118.1</ele>
        <time>2024-05-26T11:04:36Z</time>
      </trkpt>
      <trkpt lat="48.7954" lon="2.23737">
        <ele>118.1</ele>
        <time>2024-05-26T11:04:37Z</time>
      </trkpt>
      <trkpt lat="48.7954" lon="2.23738">
        <ele>118.2</ele>
        <time>2024-05-26T11:04:38Z</time>
      </trkpt>
      <trkpt lat="48.79539" lon="2.23739">
        <ele>118.2</ele>
        <time>2024-05-26T11:04:39Z</time>
      </trkpt>
      <trkpt lat="48.79539" lon="2.23742">
        <ele>118.2</ele>
        <time>2024-05-26T11:04:40Z</time>
      </trkpt>
      <trkpt lat="48.79538" lon="2.23744">
        <ele>118.2</ele>
        <time>2024-05-26T11:04:41Z</time>
      </trkpt>
      <trkpt lat="48.79538" lon="2.23745">
        <ele>118.2</ele>
        <time>2024-05-26T11:04:42Z</time>
      </trkpt>
      <trkpt lat="48.79536" lon="2.23747">
        <ele>118.3</ele>
        <time>2024-05-26T11:04:43Z</time>
      </trkpt>
      <trkpt lat="48.79535" lon="2.23748">
        <ele>118.3</ele>
        <time>2024-05-26T11:04:44Z</time>
      </trkpt>
      <trkpt lat="48.79534" lon="2.23748">
        <ele>118.3</ele>
        <time>2024-05-26T11:04:45Z</time>
      </trkpt>
      <trkpt lat="48.79534" lon="2.2375">
        <ele>118.3</ele>
        <time>2024-05-26T11:04:46Z</time>
      </trkpt>
      <trkpt lat="48.79533" lon="2.23752">
        <ele>118.3</ele>
        <time>2024-05-26T11:04:47Z</time>
      </trkpt>
      <trkpt lat="48.79533" lon="2.23754">
        <ele>118.3</ele>
        <time>2024-05-26T11:04:48Z</time>
      </trkpt>
      <trkpt lat="48.79532" lon="2.23756">
        <ele>118.4</ele>
        <time>2024-05-26T11:04:49Z</time>
      </trkpt>
      <trkpt lat="48.79532" lon="2.23757">
        <ele>118.4</ele>
        <time>2024-05-26T11:04:50Z</time>
      </trkpt>
      <trkpt lat="48.79531" lon="2.2376">
        <ele>118.4</ele>
        <time>2024-05-26T11:04:51Z</time>
      </trkpt>
      <trkpt lat="48.79531" lon="2.23761">
        <ele>118.4</ele>
        <time>2024-05-26T11:04:52Z</time>
      </trkpt>
      <trkpt lat="48.7953" lon="2.23762">
        <ele>118.4</ele>
        <time>2024-05-26T11:04:53Z</time>
      </trkpt>
      <trkpt lat="48.79529" lon="2.23763">
        <ele>118.4</ele>
        <time>2024-05-26T11:04:54Z</time>
      </trkpt>
      <trkpt lat="48.79527" lon="2.23765">
        <ele>118.5</ele>
        <time>2024-05-26T11:04:55Z</time>
      </trkpt>
      <trkpt lat="48.79526" lon="2.23767">
        <ele>118.5</ele>
        <time>2024-05-26T11:04:56Z</time>
      </trkpt>
      <trkpt lat="48.79525" lon="2.23768">
        <ele>118.5</ele>
        <time>2024-05-26T11:04:57Z</time>
      </trkpt>
      <trkpt lat="48.79524" lon="2.23772">
        <ele>118.5</ele>
        <time>2024-05-26T11:04:58Z</time>
      </trkpt>
      <trkpt lat="48.79524" lon="2.23773">
        <ele>118.6</ele>
        <time>2024-05-26T11:04:59Z</time>
      </trkpt>
      <trkpt lat="48.79523" lon="2.23774">
        <ele>118.6</ele>
        <time>2024-05-26T11:05:00Z</time>
      </trkpt>
      <trkpt lat="48.79522" lon="2.23776">
        <ele>118.6</ele>
        <time>2024-05-26T11:05:01Z</time>
      </trkpt>
      <trkpt lat="48.79521" lon="2.23778">
        <ele>118.6</ele>
        <time>2024-05-26T11:05:02Z</time>
      </trkpt>
      <trkpt lat="48.7952" lon="2.2378">
        <ele>118.6</ele>
        <time>2024-05-26T11:05:03Z</time>
      </trkpt>
      <trkpt lat="48.7952" lon="2.23781">
        <ele>118.6</ele>
        <time>2024-05-26T11:05:04Z</time>
      </trkpt>
      <trkpt lat="48.7952" lon="2.23782">
        <ele>118.6</ele>
        <time>2024-05-26T11:05:05Z</time>
      </trkpt>
      <trkpt lat="48.7952" lon="2.23783">
        <ele>118.6</ele>
        <time>2024-05-26T11:05:06Z</time>
      </trkpt>
      <trkpt lat="48.79519" lon="2.23784">
        <ele>118.7</ele>
        <time>2024-05-26T11:05:07Z</time>
      </trkpt>
      <trkpt lat="48.79518" lon="2.23787">
        <ele>118.7</ele>
        <time>2024-05-26T11:05:08Z</time>
      </trkpt>
      <trkpt lat="48.79517" lon="2.23788">
        <ele>118.7</ele>
        <time>2024-05-26T11:05:09Z</time>
      </trkpt>
      <trkpt lat="48.79517" lon="2.23789">
        <ele>118.7</ele>
        <time>2024-05-26T11:05:10Z</time>
      </trkpt>
      <trkpt lat="48.79517" lon="2.23791">
        <ele>118.7</ele>
        <time>2024-05-26T11:05:11Z</time>
      </trkpt>
      <trkpt lat="48.79516" lon="2.23793">
        <ele>118.7</ele>
        <time>2024-05-26T11:05:12Z</time>
      </trkpt>
      <trkpt lat="48.79515" lon="2.23795">
        <ele>118.8</ele>
        <time>2024-05-26T11:05:13Z</time>
      </trkpt>
      <trkpt lat="48.79515" lon="2.23797">
        <ele>118.8</ele>
        <time>2024-05-26T11:05:14Z</time>
      </trkpt>
      <trkpt lat="48.79514" lon="2.23798">
        <ele>118.8</ele>
        <time>2024-05-26T11:05:15Z</time>
      </trkpt>
      <trkpt lat="48.79513" lon="2.238">
        <ele>118.8</ele>
        <time>2024-05-26T11:05:16Z</time>
      </trkpt>
      <trkpt lat="48.79512" lon="2.23801">
        <ele>118.8</ele>
        <time>2024-05-26T11:05:17Z</time>
      </trkpt>
      <trkpt lat="48.79512" lon="2.23804">
        <ele>118.9</ele>
        <time>2024-05-26T11:05:18Z</time>
      </trkpt>
      <trkpt lat="48.79511" lon="2.23808">
        <ele>118.9</ele>
        <time>2024-05-26T11:05:19Z</time>
      </trkpt>
      <trkpt lat="48.79511" lon="2.23808">
        <ele>118.9</ele>
        <time>2024-05-26T11:05:20Z</time>
      </trkpt>
      <trkpt lat="48.79511" lon="2.23809">
        <ele>118.9</ele>
        <time>2024-05-26T11:05:21Z</time>
      </trkpt>
      <trkpt lat="48.79509" lon="2.2381">
        <ele>118.9</ele>
        <time>2024-05-26T11:05:22Z</time>
      </trkpt>
      <trkpt lat="48.79508" lon="2.23812">
        <ele>119</ele>
        <time>2024-05-26T11:05:23Z</time>
      </trkpt>
      <trkpt lat="48.79506" lon="2.23814">
        <ele>119</ele>
        <time>2024-05-26T11:05:24Z</time>
      </trkpt>
      <trkpt lat="48.79506" lon="2.23815">
        <ele>119</ele>
        <time>2024-05-26T11:05:25Z</time>
      </trkpt>
      <trkpt lat="48.79505" lon="2.23816">
        <ele>119</ele>
        <time>2024-05-26T11:05:26Z</time>
      </trkpt>
      <trkpt lat="48.79503" lon="2.23819">
        <ele>119.1</ele>
        <time>2024-05-26T11:05:27Z</time>
      </trkpt>
      <trkpt lat="48.79502" lon="2.2382">
        <ele>119.1</ele>
        <time>2024-05-26T11:05:28Z</time>
      </trkpt>
      <trkpt lat="48.79502" lon="2.23822">
        <ele>119.1</ele>
        <time>2024-05-26T11:05:29Z</time>
      </trkpt>
      <trkpt lat="48.79501" lon="2.23822">
        <ele>119.1</ele>
        <time>2024-05-26T11:05:30Z</time>
      </trkpt>
      <trkpt lat="48.795" lon="2.23823">
        <ele>119.1</ele>
        <time>2024-05-26T11:05:31Z</time>
      </trkpt>
      <trkpt lat="48.79499" lon="2.23825">
        <ele>119.1</ele>
        <time>2024-05-26T11:05:32Z</time>
      </trkpt>
      <trkpt lat="48.79498" lon="2.23827">
        <ele>119.1</ele>
        <time>2024-05-26T11:05:33Z</time>
      </trkpt>
      <trkpt lat="48.79497" lon="2.23829">
        <ele>119.2</ele>
        <time>2024-05-26T11:05:34Z</time>
      </trkpt>
      <trkpt lat="48.79496" lon="2.2383">
        <ele>119.2</ele>
        <time>2024-05-26T11:05:35Z</time>
      </trkpt>
      <trkpt lat="48.79496" lon="2.23832">
        <ele>119.2</ele>
        <time>2024-05-26T11:05:36Z</time>
      </trkpt>
      <trkpt lat="48.79496" lon="2.23835">
        <ele>119.2</ele>
        <time>2024-05-26T11:05:37Z</time>
      </trkpt>
      <trkpt lat="48.79496" lon="2.23837">
        <ele>119.2</ele>
        <time>2024-05-26T11:05:38Z</time>
      </trkpt>
      <trkpt lat="48.79496" lon="2.23839">
        <ele>119.2</ele>
        <time>2024-05-26T11:05:39Z</time>
      </trkpt>
      <trkpt lat="48.79496" lon="2.23842">
        <ele>119.2</ele>
        <time>2024-05-26T11:05:40Z</time>
      </trkpt>
      <trkpt lat="48.79497" lon="2.23844">
        <ele>119.2</ele>
        <time>2024-05-26T11:05:41Z</time>
      </trkpt>
      <trkpt lat="48.79498" lon="2.23845">
        <ele>119.2</ele>
        <time>2024-05-26T11:05:42Z</time>
      </trkpt>
      <trkpt lat="48.795" lon="2.23846">
        <ele>119.2</ele>
        <time>2024-05-26T11:05:43Z</time>
      </trkpt>
      <trkpt lat="48.79501" lon="2.23848">
        <ele>119.2</ele>
        <time>2024-05-26T11:05:44Z</time>
      </trkpt>
      <trkpt lat="48.795" lon="2.23849">
        <ele>119.2</ele>
        <time>2024-05-26T11:05:45Z</time>
      </trkpt>
      <trkpt lat="48.795" lon="2.2385">
        <ele>119.2</ele>
        <time>2024-05-26T11:05:46Z</time>
      </trkpt>
      <trkpt lat="48.795" lon="2.23852">
        <ele>119.2</ele>
        <time>2024-05-26T11:05:47Z</time>
      </trkpt>
      <trkpt lat="48.795" lon="2.23852">
        <ele>119.2</ele>
        <time>2024-05-26T11:05:48Z</time>
      </trkpt>
      <trkpt lat="48.795" lon="2.23854">
        <ele>119.2</ele>
        <time>2024-05-26T11:05:49Z</time>
      </trkpt>
      <trkpt lat="48.795" lon="2.23856">
        <ele>119.2</ele>
        <time>2024-05-26T11:05:50Z</time>
      </trkpt>
      <trkpt lat="48.795" lon="2.23858">
        <ele>119.1</ele>
        <time>2024-05-26T11:05:51Z</time>
      </trkpt>
      <trkpt lat="48.795" lon="2.23859">
        <ele>119.1</ele>
        <time>2024-05-26T11:05:52Z</time>
      </trkpt>
      <trkpt lat="48.795" lon="2.2386">
        <ele>119.1</ele>
        <time>2024-05-26T11:05:53Z</time>
      </trkpt>
      <trkpt lat="48.795" lon="2.23862">
        <ele>119.1</ele>
        <time>2024-05-26T11:05:54Z</time>
      </trkpt>
      <trkpt lat="48.795" lon="2.23864">
        <ele>119.1</ele>
        <time>2024-05-26T11:05:55Z</time>
      </trkpt>
      <trkpt lat="48.79499" lon="2.23867">
        <ele>119.1</ele>
        <time>2024-05-26T11:05:56Z</time>
      </trkpt>
      <trkpt lat="48.79499" lon="2.23868">
        <ele>119.1</ele>
        <time>2024-05-26T11:05:57Z</time>
      </trkpt>
      <trkpt lat="48.79499" lon="2.23869">
        <ele>119.1</ele>
        <time>2024-05-26T11:05:58Z</time>
      </trkpt>
      <trkpt lat="48.79501" lon="2.23874">
        <ele>119</ele>
        <time>2024-05-26T11:05:59Z</time>
      </trkpt>
      <trkpt lat="48.79501" lon="2.23875">
        <ele>119</ele>
        <time>2024-05-26T11:06:00Z</time>
      </trkpt>
      <trkpt lat="48.79501" lon="2.23877">
        <ele>119</ele>
        <time>2024-05-26T11:06:01Z</time>
      </trkpt>
      <trkpt lat="48.79501" lon="2.23877">
        <ele>119</ele>
        <time>2024-05-26T11:06:02Z</time>
      </trkpt>
      <trkpt lat="48.79502" lon="2.23878">
        <ele>119</ele>
        <time>2024-05-26T11:06:03Z</time>
      </trkpt>
      <trkpt lat="48.79503" lon="2.23879">
        <ele>119</ele>
        <time>2024-05-26T11:06:04Z</time>
      </trkpt>
      <trkpt lat="48.79504" lon="2.23882">
        <ele>119</ele>
        <time>2024-05-26T11:06:05Z</time>
      </trkpt>
      <trkpt lat="48.79505" lon="2.23884">
        <ele>119</ele>
        <time>2024-05-26T11:06:06Z</time>
      </trkpt>
      <trkpt lat="48.79505" lon="2.23887">
        <ele>119</ele>
        <time>2024-05-26T11:06:07Z</time>
      </trkpt>
      <trkpt lat="48.79506" lon="2.23889">
        <ele>119</ele>
        <time>2024-05-26T11:06:08Z</time>
      </trkpt>
      <trkpt lat="48.79506" lon="2.23891">
        <ele>118.9</ele>
        <time>2024-05-26T11:06:09Z</time>
      </trkpt>
      <trkpt lat="48.79506" lon="2.23894">
        <ele>118.9</ele>
        <time>2024-05-26T11:06:10Z</time>
      </trkpt>
      <trkpt lat="48.79507" lon="2.23896">
        <ele>118.9</ele>
        <time>2024-05-26T11:06:11Z</time>
      </trkpt>
      <trkpt lat="48.79507" lon="2.23897">
        <ele>118.9</ele>
        <time>2024-05-26T11:06:12Z</time>
      </trkpt>
      <trkpt lat="48.79507" lon="2.23898">
        <ele>118.9</ele>
        <time>2024-05-26T11:06:13Z</time>
      </trkpt>
      <trkpt lat="48.79507" lon="2.23899">
        <ele>118.9</ele>
        <time>2024-05-26T11:06:14Z</time>
      </trkpt>
      <trkpt lat="48.79507" lon="2.23899">
        <ele>118.9</ele>
        <time>2024-05-26T11:06:15Z</time>
      </trkpt>
      <trkpt lat="48.79507" lon="2.239">
        <ele>118.9</ele>
        <time>2024-05-26T11:06:16Z</time>
      </trkpt>
      <trkpt lat="48.79507" lon="2.23902">
        <ele>118.9</ele>
        <time>2024-05-26T11:06:17Z</time>
      </trkpt>
      <trkpt lat="48.79508" lon="2.23903">
        <ele>118.9</ele>
        <time>2024-05-26T11:06:18Z</time>
      </trkpt>
      <trkpt lat="48.79508" lon="2.23904">
        <ele>118.9</ele>
        <time>2024-05-26T11:06:19Z</time>
      </trkpt>
      <trkpt lat="48.79509" lon="2.23905">
        <ele>118.9</ele>
        <time>2024-05-26T11:06:20Z</time>
      </trkpt>
      <trkpt lat="48.79509" lon="2.23907">
        <ele>118.9</ele>
        <time>2024-05-26T11:06:21Z</time>
      </trkpt>
      <trkpt lat="48.7951" lon="2.23911">
        <ele>118.9</ele>
        <time>2024-05-26T11:06:22Z</time>
      </trkpt>
      <trkpt lat="48.7951" lon="2.23913">
        <ele>118.9</ele>
        <time>2024-05-26T11:06:23Z</time>
      </trkpt>
      <trkpt lat="48.7951" lon="2.23914">
        <ele>118.9</ele>
        <time>2024-05-26T11:06:24Z</time>
      </trkpt>
      <trkpt lat="48.7951" lon="2.23916">
        <ele>118.9</ele>
        <time>2024-05-26T11:06:25Z</time>
      </trkpt>
      <trkpt lat="48.7951" lon="2.23917">
        <ele>118.9</ele>
        <time>2024-05-26T11:06:26Z</time>
      </trkpt>
      <trkpt lat="48.79511" lon="2.23918">
        <ele>118.9</ele>
        <time>2024-05-26T11:06:27Z</time>
      </trkpt>
      <trkpt lat="48.79511" lon="2.23919">
        <ele>118.9</ele>
        <time>2024-05-26T11:06:28Z</time>
      </trkpt>
      <trkpt lat="48.79511" lon="2.2392">
        <ele>118.9</ele>
        <time>2024-05-26T11:06:29Z</time>
      </trkpt>
      <trkpt lat="48.79511" lon="2.2392">
        <ele>118.9</ele>
        <time>2024-05-26T11:06:30Z</time>
      </trkpt>
      <trkpt lat="48.79512" lon="2.23922">
        <ele>118.9</ele>
        <time>2024-05-26T11:06:31Z</time>
      </trkpt>
      <trkpt lat="48.79513" lon="2.23925">
        <ele>118.9</ele>
        <time>2024-05-26T11:06:32Z</time>
      </trkpt>
      <trkpt lat="48.79513" lon="2.23926">
        <ele>118.9</ele>
        <time>2024-05-26T11:06:33Z</time>
      </trkpt>
      <trkpt lat="48.79514" lon="2.23927">
        <ele>118.9</ele>
        <time>2024-05-26T11:06:34Z</time>
      </trkpt>
      <trkpt lat="48.79514" lon="2.2393">
        <ele>118.9</ele>
        <time>2024-05-26T11:06:35Z</time>
      </trkpt>
      <trkpt lat="48.79515" lon="2.23932">
        <ele>118.9</ele>
        <time>2024-05-26T11:06:36Z</time>
      </trkpt>
      <trkpt lat="48.79515" lon="2.23935">
        <ele>118.9</ele>
        <time>2024-05-26T11:06:37Z</time>
      </trkpt>
      <trkpt lat="48.79515" lon="2.23936">
        <ele>118.9</ele>
        <time>2024-05-26T11:06:38Z</time>
      </trkpt>
      <trkpt lat="48.79515" lon="2.23938">
        <ele>118.9</ele>
        <time>2024-05-26T11:06:39Z</time>
      </trkpt>
      <trkpt lat="48.79515" lon="2.23939">
        <ele>118.9</ele>
        <time>2024-05-26T11:06:40Z</time>
      </trkpt>
      <trkpt lat="48.79517" lon="2.23944">
        <ele>118.9</ele>
        <time>2024-05-26T11:06:41Z</time>
      </trkpt>
      <trkpt lat="48.79517" lon="2.23945">
        <ele>118.9</ele>
        <time>2024-05-26T11:06:42Z</time>
      </trkpt>
      <trkpt lat="48.79518" lon="2.23947">
        <ele>118.9</ele>
        <time>2024-05-26T11:06:43Z</time>
      </trkpt>
      <trkpt lat="48.79518" lon="2.23948">
        <ele>118.9</ele>
        <time>2024-05-26T11:06:44Z</time>
      </trkpt>
      <trkpt lat="48.79519" lon="2.23952">
        <ele>118.9</ele>
        <time>2024-05-26T11:06:45Z</time>
      </trkpt>
      <trkpt lat="48.79518" lon="2.23953">
        <ele>118.9</ele>
        <time>2024-05-26T11:06:46Z</time>
      </trkpt>
      <trkpt lat="48.79519" lon="2.23956">
        <ele>118.9</ele>
        <time>2024-05-26T11:06:47Z</time>
      </trkpt>
      <trkpt lat="48.79519" lon="2.23956">
        <ele>118.9</ele>
        <time>2024-05-26T11:06:48Z</time>
      </trkpt>
      <trkpt lat="48.79519" lon="2.23957">
        <ele>118.9</ele>
        <time>2024-05-26T11:06:49Z</time>
      </trkpt>
      <trkpt lat="48.7952" lon="2.23959">
        <ele>118.9</ele>
        <time>2024-05-26T11:06:50Z</time>
      </trkpt>
      <trkpt lat="48.79521" lon="2.23962">
        <ele>118.9</ele>
        <time>2024-05-26T11:06:51Z</time>
      </trkpt>
      <trkpt lat="48.79521" lon="2.23963">
        <ele>118.9</ele>
        <time>2024-05-26T11:06:52Z</time>
      </trkpt>
      <trkpt lat="48.79521" lon="2.23964">
        <ele>118.9</ele>
        <time>2024-05-26T11:06:53Z</time>
      </trkpt>
      <trkpt lat="48.79521" lon="2.23965">
        <ele>118.9</ele>
        <time>2024-05-26T11:06:54Z</time>
      </trkpt>
      <trkpt lat="48.79521" lon="2.23966">
        <ele>118.9</ele>
        <time>2024-05-26T11:06:55Z</time>
      </trkpt>
      <trkpt lat="48.79521" lon="2.2397">
        <ele>118.9</ele>
        <time>2024-05-26T11:06:56Z</time>
      </trkpt>
      <trkpt lat="48.79522" lon="2.23971">
        <ele>118.9</ele>
        <time>2024-05-26T11:06:57Z</time>
      </trkpt>
      <trkpt lat="48.79522" lon="2.23972">
        <ele>118.9</ele>
        <time>2024-05-26T11:06:58Z</time>
      </trkpt>
      <trkpt lat="48.79523" lon="2.23975">
        <ele>118.9</ele>
        <time>2024-05-26T11:06:59Z</time>
      </trkpt>
      <trkpt lat="48.79523" lon="2.23977">
        <ele>118.9</ele>
        <time>2024-05-26T11:07:00Z</time>
      </trkpt>
      <trkpt lat="48.79524" lon="2.23978">
        <ele>118.8</ele>
        <time>2024-05-26T11:07:01Z</time>
      </trkpt>
      <trkpt lat="48.79524" lon="2.2398">
        <ele>118.8</ele>
        <time>2024-05-26T11:07:02Z</time>
      </trkpt>
      <trkpt lat="48.79524" lon="2.2398">
        <ele>118.8</ele>
        <time>2024-05-26T11:07:03Z</time>
      </trkpt>
      <trkpt lat="48.79524" lon="2.23982">
        <ele>118.8</ele>
        <time>2024-05-26T11:07:04Z</time>
      </trkpt>
      <trkpt lat="48.79525" lon="2.23982">
        <ele>118.8</ele>
        <time>2024-05-26T11:07:05Z</time>
      </trkpt>
      <trkpt lat="48.79525" lon="2.23983">
        <ele>118.8</ele>
        <time>2024-05-26T11:07:06Z</time>
      </trkpt>
      <trkpt lat="48.79526" lon="2.23985">
        <ele>118.8</ele>
        <time>2024-05-26T11:07:07Z</time>
      </trkpt>
      <trkpt lat="48.79528" lon="2.23988">
        <ele>118.8</ele>
        <time>2024-05-26T11:07:08Z</time>
      </trkpt>
      <trkpt lat="48.79529" lon="2.23989">
        <ele>118.8</ele>
        <time>2024-05-26T11:07:09Z</time>
      </trkpt>
      <trkpt lat="48.79529" lon="2.23991">
        <ele>118.8</ele>
        <time>2024-05-26T11:07:10Z</time>
      </trkpt>
      <trkpt lat="48.79529" lon="2.23993">
        <ele>118.8</ele>
        <time>2024-05-26T11:07:11Z</time>
      </trkpt>
      <trkpt lat="48.7953" lon="2.23995">
        <ele>118.8</ele>
        <time>2024-05-26T11:07:12Z</time>
      </trkpt>
      <trkpt lat="48.7953" lon="2.23997">
        <ele>118.8</ele>
        <time>2024-05-26T11:07:13Z</time>
      </trkpt>
      <trkpt lat="48.79531" lon="2.23998">
        <ele>118.8</ele>
        <time>2024-05-26T11:07:14Z</time>
      </trkpt>
      <trkpt lat="48.79531" lon="2.23999">
        <ele>118.8</ele>
        <time>2024-05-26T11:07:15Z</time>
      </trkpt>
      <trkpt lat="48.79532" lon="2.24001">
        <ele>118.8</ele>
        <time>2024-05-26T11:07:16Z</time>
      </trkpt>
      <trkpt lat="48.79532" lon="2.24003">
        <ele>118.8</ele>
        <time>2024-05-26T11:07:17Z</time>
      </trkpt>
      <trkpt lat="48.79532" lon="2.24006">
        <ele>118.8</ele>
        <time>2024-05-26T11:07:18Z</time>
      </trkpt>
      <trkpt lat="48.79532" lon="2.24007">
        <ele>118.8</ele>
        <time>2024-05-26T11:07:19Z</time>
      </trkpt>
      <trkpt lat="48.79532" lon="2.24009">
        <ele>118.8</ele>
        <time>2024-05-26T11:07:20Z</time>
      </trkpt>
      <trkpt lat="48.79533" lon="2.24012">
        <ele>118.9</ele>
        <time>2024-05-26T11:07:21Z</time>
      </trkpt>
      <trkpt lat="48.79533" lon="2.24013">
        <ele>118.9</ele>
        <time>2024-05-26T11:07:22Z</time>
      </trkpt>
      <trkpt lat="48.79534" lon="2.24015">
        <ele>118.9</ele>
        <time>2024-05-26T11:07:23Z</time>
      </trkpt>
      <trkpt lat="48.79535" lon="2.24018">
        <ele>118.9</ele>
        <time>2024-05-26T11:07:24Z</time>
      </trkpt>
      <trkpt lat="48.79535" lon="2.24019">
        <ele>118.9</ele>
        <time>2024-05-26T11:07:25Z</time>
      </trkpt>
      <trkpt lat="48.79535" lon="2.2402">
        <ele>118.9</ele>
        <time>2024-05-26T11:07:26Z</time>
      </trkpt>
      <trkpt lat="48.79536" lon="2.24021">
        <ele>118.9</ele>
        <time>2024-05-26T11:07:27Z</time>
      </trkpt>
      <trkpt lat="48.79537" lon="2.24024">
        <ele>118.9</ele>
        <time>2024-05-26T11:07:28Z</time>
      </trkpt>
      <trkpt lat="48.79537" lon="2.24026">
        <ele>118.9</ele>
        <time>2024-05-26T11:07:29Z</time>
      </trkpt>
      <trkpt lat="48.79537" lon="2.24029">
        <ele>118.9</ele>
        <time>2024-05-26T11:07:30Z</time>
      </trkpt>
      <trkpt lat="48.79537" lon="2.24031">
        <ele>118.9</ele>
        <time>2024-05-26T11:07:31Z</time>
      </trkpt>
      <trkpt lat="48.79538" lon="2.24033">
        <ele>118.9</ele>
        <time>2024-05-26T11:07:32Z</time>
      </trkpt>
      <trkpt lat="48.79539" lon="2.24036">
        <ele>119</ele>
        <time>2024-05-26T11:07:33Z</time>
      </trkpt>
      <trkpt lat="48.79539" lon="2.24038">
        <ele>119</ele>
        <time>2024-05-26T11:07:34Z</time>
      </trkpt>
      <trkpt lat="48.79539" lon="2.24039">
        <ele>119</ele>
        <time>2024-05-26T11:07:35Z</time>
      </trkpt>
      <trkpt lat="48.7954" lon="2.24041">
        <ele>119</ele>
        <time>2024-05-26T11:07:36Z</time>
      </trkpt>
      <trkpt lat="48.7954" lon="2.24044">
        <ele>119</ele>
        <time>2024-05-26T11:07:37Z</time>
      </trkpt>
      <trkpt lat="48.7954" lon="2.24046">
        <ele>119</ele>
        <time>2024-05-26T11:07:38Z</time>
      </trkpt>
      <trkpt lat="48.7954" lon="2.24046">
        <ele>119</ele>
        <time>2024-05-26T11:07:39Z</time>
      </trkpt>
      <trkpt lat="48.7954" lon="2.24047">
        <ele>119</ele>
        <time>2024-05-26T11:07:40Z</time>
      </trkpt>
      <trkpt lat="48.7954" lon="2.24048">
        <ele>119</ele>
        <time>2024-05-26T11:07:41Z</time>
      </trkpt>
      <trkpt lat="48.7954" lon="2.24049">
        <ele>119</ele>
        <time>2024-05-26T11:07:42Z</time>
      </trkpt>
      <trkpt lat="48.79541" lon="2.24051">
        <ele>119</ele>
        <time>2024-05-26T11:07:43Z</time>
      </trkpt>
      <trkpt lat="48.79542" lon="2.24053">
        <ele>119</ele>
        <time>2024-05-26T11:07:44Z</time>
      </trkpt>
      <trkpt lat="48.79543" lon="2.24056">
        <ele>119</ele>
        <time>2024-05-26T11:07:45Z</time>
      </trkpt>
      <trkpt lat="48.79543" lon="2.24057">
        <ele>119</ele>
        <time>2024-05-26T11:07:46Z</time>
      </trkpt>
      <trkpt lat="48.79543" lon="2.24059">
        <ele>119</ele>
        <time>2024-05-26T11:07:47Z</time>
      </trkpt>
      <trkpt lat="48.79543" lon="2.24062">
        <ele>119</ele>
        <time>2024-05-26T11:07:48Z</time>
      </trkpt>
      <trkpt lat="48.79543" lon="2.24064">
        <ele>119</ele>
        <time>2024-05-26T11:07:49Z</time>
      </trkpt>
      <trkpt lat="48.79544" lon="2.24066">
        <ele>119</ele>
        <time>2024-05-26T11:07:50Z</time>
      </trkpt>
      <trkpt lat="48.79545" lon="2.24068">
        <ele>119.1</ele>
        <time>2024-05-26T11:07:51Z</time>
      </trkpt>
      <trkpt lat="48.79546" lon="2.2407">
        <ele>119.1</ele>
        <time>2024-05-26T11:07:52Z</time>
      </trkpt>
      <trkpt lat="48.79547" lon="2.24072">
        <ele>119.1</ele>
        <time>2024-05-26T11:07:53Z</time>
      </trkpt>
      <trkpt lat="48.79547" lon="2.24074">
        <ele>119.1</ele>
        <time>2024-05-26T11:07:54Z</time>
      </trkpt>
      <trkpt lat="48.79547" lon="2.24077">
        <ele>119.1</ele>
        <time>2024-05-26T11:07:55Z</time>
      </trkpt>
      <trkpt lat="48.79548" lon="2.24078">
        <ele>119.1</ele>
        <time>2024-05-26T11:07:56Z</time>
      </trkpt>
      <trkpt lat="48.79548" lon="2.24079">
        <ele>119.1</ele>
        <time>2024-05-26T11:07:57Z</time>
      </trkpt>
      <trkpt lat="48.79549" lon="2.24082">
        <ele>119.1</ele>
        <time>2024-05-26T11:07:58Z</time>
      </trkpt>
      <trkpt lat="48.79548" lon="2.24083">
        <ele>119.1</ele>
        <time>2024-05-26T11:07:59Z</time>
      </trkpt>
      <trkpt lat="48.79549" lon="2.24084">
        <ele>119.1</ele>
        <time>2024-05-26T11:08:00Z</time>
      </trkpt>
      <trkpt lat="48.79549" lon="2.24086">
        <ele>119.1</ele>
        <time>2024-05-26T11:08:01Z</time>
      </trkpt>
      <trkpt lat="48.79549" lon="2.24089">
        <ele>119.1</ele>
        <time>2024-05-26T11:08:02Z</time>
      </trkpt>
      <trkpt lat="48.7955" lon="2.24092">
        <ele>119.1</ele>
        <time>2024-05-26T11:08:03Z</time>
      </trkpt>
      <trkpt lat="48.7955" lon="2.24093">
        <ele>119.1</ele>
        <time>2024-05-26T11:08:04Z</time>
      </trkpt>
      <trkpt lat="48.7955" lon="2.24095">
        <ele>119.1</ele>
        <time>2024-05-26T11:08:05Z</time>
      </trkpt>
      <trkpt lat="48.7955" lon="2.24097">
        <ele>119.2</ele>
        <time>2024-05-26T11:08:06Z</time>
      </trkpt>
      <trkpt lat="48.7955" lon="2.24099">
        <ele>119.2</ele>
        <time>2024-05-26T11:08:07Z</time>
      </trkpt>
      <trkpt lat="48.7955" lon="2.24101">
        <ele>119.2</ele>
        <time>2024-05-26T11:08:08Z</time>
      </trkpt>
      <trkpt lat="48.7955" lon="2.24102">
        <ele>119.2</ele>
        <time>2024-05-26T11:08:09Z</time>
      </trkpt>
      <trkpt lat="48.7955" lon="2.24103">
        <ele>119.2</ele>
        <time>2024-05-26T11:08:10Z</time>
      </trkpt>
      <trkpt lat="48.79549" lon="2.24106">
        <ele>119.2</ele>
        <time>2024-05-26T11:08:11Z</time>
      </trkpt>
      <trkpt lat="48.79548" lon="2.24107">
        <ele>119.2</ele>
        <time>2024-05-26T11:08:12Z</time>
      </trkpt>
      <trkpt lat="48.79548" lon="2.24109">
        <ele>119.2</ele>
        <time>2024-05-26T11:08:13Z</time>
      </trkpt>
      <trkpt lat="48.79547" lon="2.24111">
        <ele>119.2</ele>
        <time>2024-05-26T11:08:14Z</time>
      </trkpt>
      <trkpt lat="48.79547" lon="2.24115">
        <ele>119.3</ele>
        <time>2024-05-26T11:08:15Z</time>
      </trkpt>
      <trkpt lat="48.79547" lon="2.24116">
        <ele>119.3</ele>
        <time>2024-05-26T11:08:16Z</time>
      </trkpt>
      <trkpt lat="48.79547" lon="2.24119">
        <ele>119.3</ele>
        <time>2024-05-26T11:08:17Z</time>
      </trkpt>
      <trkpt lat="48.79547" lon="2.24122">
        <ele>119.2</ele>
        <time>2024-05-26T11:08:18Z</time>
      </trkpt>
      <trkpt lat="48.79548" lon="2.24124">
        <ele>119.2</ele>
        <time>2024-05-26T11:08:19Z</time>
      </trkpt>
      <trkpt lat="48.79548" lon="2.24125">
        <ele>119.2</ele>
        <time>2024-05-26T11:08:20Z</time>
      </trkpt>
      <trkpt lat="48.79549" lon="2.24127">
        <ele>119.1</ele>
        <time>2024-05-26T11:08:21Z</time>
      </trkpt>
      <trkpt lat="48.7955" lon="2.24128">
        <ele>119.1</ele>
        <time>2024-05-26T11:08:22Z</time>
      </trkpt>
      <trkpt lat="48.79551" lon="2.24129">
        <ele>119.2</ele>
        <time>2024-05-26T11:08:23Z</time>
      </trkpt>
      <trkpt lat="48.79552" lon="2.2413">
        <ele>119.3</ele>
        <time>2024-05-26T11:08:24Z</time>
      </trkpt>
      <trkpt lat="48.79552" lon="2.24131">
        <ele>119.3</ele>
        <time>2024-05-26T11:08:25Z</time>
      </trkpt>
      <trkpt lat="48.79553" lon="2.24132">
        <ele>119.4</ele>
        <time>2024-05-26T11:08:26Z</time>
      </trkpt>
      <trkpt lat="48.79554" lon="2.24133">
        <ele>119.5</ele>
        <time>2024-05-26T11:08:27Z</time>
      </trkpt>
      <trkpt lat="48.79554" lon="2.24134">
        <ele>119.6</ele>
        <time>2024-05-26T11:08:28Z</time>
      </trkpt>
      <trkpt lat="48.79555" lon="2.24135">
        <ele>119.7</ele>
        <time>2024-05-26T11:08:29Z</time>
      </trkpt>
      <trkpt lat="48.79555" lon="2.24135">
        <ele>119.7</ele>
        <time>2024-05-26T11:08:30Z</time>
      </trkpt>
      <trkpt lat="48.79555" lon="2.24135">
        <ele>119.8</ele>
        <time>2024-05-26T11:08:31Z</time>
      </trkpt>
      <trkpt lat="48.79555" lon="2.24135">
        <ele>119.8</ele>
        <time>2024-05-26T11:08:32Z</time>
      </trkpt>
      <trkpt lat="48.79555" lon="2.24135">
        <ele>119.8</ele>
        <time>2024-05-26T11:08:33Z</time>
      </trkpt>
      <trkpt lat="48.79555" lon="2.24136">
        <ele>119.8</ele>
        <time>2024-05-26T11:08:34Z</time>
      </trkpt>
      <trkpt lat="48.79555" lon="2.24137">
        <ele>119.9</ele>
        <time>2024-05-26T11:08:35Z</time>
      </trkpt>
      <trkpt lat="48.79555" lon="2.24138">
        <ele>119.9</ele>
        <time>2024-05-26T11:08:36Z</time>
      </trkpt>
      <trkpt lat="48.79556" lon="2.24139">
        <ele>120.1</ele>
        <time>2024-05-26T11:08:37Z</time>
      </trkpt>
      <trkpt lat="48.79557" lon="2.24139">
        <ele>120.2</ele>
        <time>2024-05-26T11:08:38Z</time>
      </trkpt>
      <trkpt lat="48.79558" lon="2.2414">
        <ele>120.3</ele>
        <time>2024-05-26T11:08:39Z</time>
      </trkpt>
      <trkpt lat="48.79558" lon="2.24143">
        <ele>120.5</ele>
        <time>2024-05-26T11:08:40Z</time>
      </trkpt>
      <trkpt lat="48.79558" lon="2.24143">
        <ele>120.5</ele>
        <time>2024-05-26T11:08:41Z</time>
      </trkpt>
      <trkpt lat="48.79559" lon="2.24143">
        <ele>120.6</ele>
        <time>2024-05-26T11:08:42Z</time>
      </trkpt>
      <trkpt lat="48.79558" lon="2.24143">
        <ele>120.7</ele>
        <time>2024-05-26T11:08:43Z</time>
      </trkpt>
      <trkpt lat="48.79559" lon="2.24145">
        <ele>120.8</ele>
        <time>2024-05-26T11:08:44Z</time>
      </trkpt>
      <trkpt lat="48.7956" lon="2.24147">
        <ele>121</ele>
        <time>2024-05-26T11:08:45Z</time>
      </trkpt>
      <trkpt lat="48.7956" lon="2.24148">
        <ele>121.1</ele>
        <time>2024-05-26T11:08:46Z</time>
      </trkpt>
      <trkpt lat="48.7956" lon="2.24149">
        <ele>121.2</ele>
        <time>2024-05-26T11:08:47Z</time>
      </trkpt>
      <trkpt lat="48.79561" lon="2.24149">
        <ele>121.3</ele>
        <time>2024-05-26T11:08:48Z</time>
      </trkpt>
      <trkpt lat="48.79561" lon="2.24151">
        <ele>121.4</ele>
        <time>2024-05-26T11:08:49Z</time>
      </trkpt>
      <trkpt lat="48.79562" lon="2.24152">
        <ele>121.6</ele>
        <time>2024-05-26T11:08:50Z</time>
      </trkpt>
      <trkpt lat="48.79562" lon="2.24154">
        <ele>121.8</ele>
        <time>2024-05-26T11:08:51Z</time>
      </trkpt>
      <trkpt lat="48.79562" lon="2.24156">
        <ele>122</ele>
        <time>2024-05-26T11:08:52Z</time>
      </trkpt>
      <trkpt lat="48.79563" lon="2.24157">
        <ele>122.2</ele>
        <time>2024-05-26T11:08:53Z</time>
      </trkpt>
      <trkpt lat="48.79563" lon="2.24158">
        <ele>122.4</ele>
        <time>2024-05-26T11:08:54Z</time>
      </trkpt>
      <trkpt lat="48.79564" lon="2.2416">
        <ele>122.6</ele>
        <time>2024-05-26T11:08:55Z</time>
      </trkpt>
      <trkpt lat="48.79564" lon="2.24161">
        <ele>122.7</ele>
        <time>2024-05-26T11:08:56Z</time>
      </trkpt>
      <trkpt lat="48.79565" lon="2.24162">
        <ele>122.9</ele>
        <time>2024-05-26T11:08:57Z</time>
      </trkpt>
      <trkpt lat="48.79566" lon="2.24163">
        <ele>123.1</ele>
        <time>2024-05-26T11:08:58Z</time>
      </trkpt>
      <trkpt lat="48.79567" lon="2.24164">
        <ele>123.3</ele>
        <time>2024-05-26T11:08:59Z</time>
      </trkpt>
      <trkpt lat="48.79567" lon="2.24165">
        <ele>123.5</ele>
        <time>2024-05-26T11:09:00Z</time>
      </trkpt>
      <trkpt lat="48.79568" lon="2.24165">
        <ele>123.5</ele>
        <time>2024-05-26T11:09:01Z</time>
      </trkpt>
      <trkpt lat="48.79568" lon="2.24165">
        <ele>123.6</ele>
        <time>2024-05-26T11:09:02Z</time>
      </trkpt>
      <trkpt lat="48.79569" lon="2.24167">
        <ele>123.9</ele>
        <time>2024-05-26T11:09:03Z</time>
      </trkpt>
      <trkpt lat="48.7957" lon="2.24168">
        <ele>124.1</ele>
        <time>2024-05-26T11:09:04Z</time>
      </trkpt>
      <trkpt lat="48.7957" lon="2.24169">
        <ele>124.3</ele>
        <time>2024-05-26T11:09:05Z</time>
      </trkpt>
      <trkpt lat="48.79571" lon="2.2417">
        <ele>124.5</ele>
        <time>2024-05-26T11:09:06Z</time>
      </trkpt>
      <trkpt lat="48.79572" lon="2.24171">
        <ele>124.6</ele>
        <time>2024-05-26T11:09:07Z</time>
      </trkpt>
      <trkpt lat="48.79572" lon="2.24171">
        <ele>124.7</ele>
        <time>2024-05-26T11:09:08Z</time>
      </trkpt>
      <trkpt lat="48.79573" lon="2.24172">
        <ele>124.8</ele>
        <time>2024-05-26T11:09:09Z</time>
      </trkpt>
      <trkpt lat="48.79573" lon="2.24172">
        <ele>124.8</ele>
        <time>2024-05-26T11:09:10Z</time>
      </trkpt>
      <trkpt lat="48.79573" lon="2.24173">
        <ele>124.9</ele>
        <time>2024-05-26T11:09:11Z</time>
      </trkpt>
      <trkpt lat="48.79573" lon="2.24173">
        <ele>125</ele>
        <time>2024-05-26T11:09:12Z</time>
      </trkpt>
      <trkpt lat="48.79573" lon="2.24173">
        <ele>125</ele>
        <time>2024-05-26T11:09:13Z</time>
      </trkpt>
      <trkpt lat="48.79573" lon="2.24174">
        <ele>125.1</ele>
        <time>2024-05-26T11:09:14Z</time>
      </trkpt>
      <trkpt lat="48.79573" lon="2.24174">
        <ele>125.1</ele>
        <time>2024-05-26T11:09:15Z</time>
      </trkpt>
      <trkpt lat="48.79574" lon="2.24175">
        <ele>125.2</ele>
        <time>2024-05-26T11:09:16Z</time>
      </trkpt>
      <trkpt lat="48.79574" lon="2.24175">
        <ele>125.2</ele>
        <time>2024-05-26T11:09:17Z</time>
      </trkpt>
      <trkpt lat="48.79574" lon="2.24175">
        <ele>125.3</ele>
        <time>2024-05-26T11:09:18Z</time>
      </trkpt>
      <trkpt lat="48.79574" lon="2.24176">
        <ele>125.4</ele>
        <time>2024-05-26T11:09:19Z</time>
      </trkpt>
      <trkpt lat="48.79574" lon="2.24176">
        <ele>125.4</ele>
        <time>2024-05-26T11:09:20Z</time>
      </trkpt>
      <trkpt lat="48.79575" lon="2.24177">
        <ele>125.5</ele>
        <time>2024-05-26T11:09:21Z</time>
      </trkpt>
      <trkpt lat="48.79575" lon="2.24179">
        <ele>125.8</ele>
        <time>2024-05-26T11:09:22Z</time>
      </trkpt>
      <trkpt lat="48.79575" lon="2.2418">
        <ele>125.9</ele>
        <time>2024-05-26T11:09:23Z</time>
      </trkpt>
      <trkpt lat="48.79575" lon="2.2418">
        <ele>125.9</ele>
        <time>2024-05-26T11:09:24Z</time>
      </trkpt>
      <trkpt lat="48.79575" lon="2.24182">
        <ele>126.1</ele>
        <time>2024-05-26T11:09:25Z</time>
      </trkpt>
      <trkpt lat="48.79576" lon="2.24182">
        <ele>126.3</ele>
        <time>2024-05-26T11:09:26Z</time>
      </trkpt>
      <trkpt lat="48.79576" lon="2.24182">
        <ele>126.4</ele>
        <time>2024-05-26T11:09:27Z</time>
      </trkpt>
      <trkpt lat="48.79577" lon="2.24183">
        <ele>126.5</ele>
        <time>2024-05-26T11:09:28Z</time>
      </trkpt>
      <trkpt lat="48.79577" lon="2.24184">
        <ele>126.7</ele>
        <time>2024-05-26T11:09:29Z</time>
      </trkpt>
      <trkpt lat="48.79578" lon="2.24185">
        <ele>126.8</ele>
        <time>2024-05-26T11:09:30Z</time>
      </trkpt>
      <trkpt lat="48.79579" lon="2.24187">
        <ele>127</ele>
        <time>2024-05-26T11:09:31Z</time>
      </trkpt>
      <trkpt lat="48.79579" lon="2.24188">
        <ele>127.2</ele>
        <time>2024-05-26T11:09:32Z</time>
      </trkpt>
      <trkpt lat="48.7958" lon="2.2419">
        <ele>127.4</ele>
        <time>2024-05-26T11:09:33Z</time>
      </trkpt>
      <trkpt lat="48.7958" lon="2.24191">
        <ele>127.6</ele>
        <time>2024-05-26T11:09:34Z</time>
      </trkpt>
      <trkpt lat="48.79581" lon="2.24193">
        <ele>127.8</ele>
        <time>2024-05-26T11:09:35Z</time>
      </trkpt>
      <trkpt lat="48.79581" lon="2.24193">
        <ele>127.9</ele>
        <time>2024-05-26T11:09:36Z</time>
      </trkpt>
      <trkpt lat="48.79581" lon="2.24194">
        <ele>128.1</ele>
        <time>2024-05-26T11:09:37Z</time>
      </trkpt>
      <trkpt lat="48.79582" lon="2.24197">
        <ele>128.4</ele>
        <time>2024-05-26T11:09:38Z</time>
      </trkpt>
      <trkpt lat="48.79583" lon="2.24198">
        <ele>128.5</ele>
        <time>2024-05-26T11:09:39Z</time>
      </trkpt>
      <trkpt lat="48.79584" lon="2.24199">
        <ele>128.7</ele>
        <time>2024-05-26T11:09:40Z</time>
      </trkpt>
      <trkpt lat="48.79584" lon="2.242">
        <ele>128.9</ele>
        <time>2024-05-26T11:09:41Z</time>
      </trkpt>
      <trkpt lat="48.79585" lon="2.24201">
        <ele>129.1</ele>
        <time>2024-05-26T11:09:42Z</time>
      </trkpt>
      <trkpt lat="48.79585" lon="2.242">
        <ele>129.1</ele>
        <time>2024-05-26T11:09:43Z</time>
      </trkpt>
      <trkpt lat="48.79585" lon="2.24201">
        <ele>129.3</ele>
        <time>2024-05-26T11:09:44Z</time>
      </trkpt>
      <trkpt lat="48.79586" lon="2.24202">
        <ele>129.4</ele>
        <time>2024-05-26T11:09:45Z</time>
      </trkpt>
      <trkpt lat="48.79586" lon="2.24204">
        <ele>129.6</ele>
        <time>2024-05-26T11:09:46Z</time>
      </trkpt>
      <trkpt lat="48.79587" lon="2.24205">
        <ele>129.8</ele>
        <time>2024-05-26T11:09:47Z</time>
      </trkpt>
      <trkpt lat="48.79587" lon="2.24204">
        <ele>129.9</ele>
        <time>2024-05-26T11:09:48Z</time>
      </trkpt>
      <trkpt lat="48.79588" lon="2.24205">
        <ele>130</ele>
        <time>2024-05-26T11:09:49Z</time>
      </trkpt>
      <trkpt lat="48.79588" lon="2.24207">
        <ele>130.3</ele>
        <time>2024-05-26T11:09:50Z</time>
      </trkpt>
      <trkpt lat="48.79589" lon="2.24208">
        <ele>130.5</ele>
        <time>2024-05-26T11:09:51Z</time>
      </trkpt>
      <trkpt lat="48.79589" lon="2.24209">
        <ele>130.6</ele>
        <time>2024-05-26T11:09:52Z</time>
      </trkpt>
      <trkpt lat="48.7959" lon="2.2421">
        <ele>130.7</ele>
        <time>2024-05-26T11:09:53Z</time>
      </trkpt>
      <trkpt lat="48.7959" lon="2.24212">
        <ele>131</ele>
        <time>2024-05-26T11:09:54Z</time>
      </trkpt>
      <trkpt lat="48.7959" lon="2.24212">
        <ele>131.1</ele>
        <time>2024-05-26T11:09:55Z</time>
      </trkpt>
      <trkpt lat="48.79591" lon="2.24213">
        <ele>131.2</ele>
        <time>2024-05-26T11:09:56Z</time>
      </trkpt>
      <trkpt lat="48.79591" lon="2.24214">
        <ele>131.4</ele>
        <time>2024-05-26T11:09:57Z</time>
      </trkpt>
      <trkpt lat="48.79592" lon="2.24216">
        <ele>131.6</ele>
        <time>2024-05-26T11:09:58Z</time>
      </trkpt>
      <trkpt lat="48.79592" lon="2.24217">
        <ele>131.7</ele>
        <time>2024-05-26T11:09:59Z</time>
      </trkpt>
      <trkpt lat="48.79592" lon="2.24217">
        <ele>131.8</ele>
        <time>2024-05-26T11:10:00Z</time>
      </trkpt>
      <trkpt lat="48.79593" lon="2.24218">
        <ele>132</ele>
        <time>2024-05-26T11:10:01Z</time>
      </trkpt>
      <trkpt lat="48.79594" lon="2.2422">
        <ele>132.3</ele>
        <time>2024-05-26T11:10:02Z</time>
      </trkpt>
      <trkpt lat="48.79594" lon="2.24221">
        <ele>132.5</ele>
        <time>2024-05-26T11:10:03Z</time>
      </trkpt>
      <trkpt lat="48.79595" lon="2.24222">
        <ele>132.7</ele>
        <time>2024-05-26T11:10:04Z</time>
      </trkpt>
      <trkpt lat="48.79596" lon="2.24223">
        <ele>132.9</ele>
        <time>2024-05-26T11:10:05Z</time>
      </trkpt>
      <trkpt lat="48.79596" lon="2.24224">
        <ele>133.1</ele>
        <time>2024-05-26T11:10:06Z</time>
      </trkpt>
      <trkpt lat="48.79597" lon="2.24226">
        <ele>133.2</ele>
        <time>2024-05-26T11:10:07Z</time>
      </trkpt>
      <trkpt lat="48.79597" lon="2.24227">
        <ele>133.4</ele>
        <time>2024-05-26T11:10:08Z</time>
      </trkpt>
      <trkpt lat="48.79598" lon="2.24228">
        <ele>133.7</ele>
        <time>2024-05-26T11:10:09Z</time>
      </trkpt>
      <trkpt lat="48.79598" lon="2.2423">
        <ele>133.8</ele>
        <time>2024-05-26T11:10:10Z</time>
      </trkpt>
      <trkpt lat="48.79598" lon="2.24232">
        <ele>134.1</ele>
        <time>2024-05-26T11:10:11Z</time>
      </trkpt>
      <trkpt lat="48.79598" lon="2.24232">
        <ele>134.2</ele>
        <time>2024-05-26T11:10:12Z</time>
      </trkpt>
      <trkpt lat="48.79599" lon="2.24233">
        <ele>134.3</ele>
        <time>2024-05-26T11:10:13Z</time>
      </trkpt>
      <trkpt lat="48.79599" lon="2.24235">
        <ele>134.5</ele>
        <time>2024-05-26T11:10:14Z</time>
      </trkpt>
      <trkpt lat="48.79599" lon="2.24235">
        <ele>134.5</ele>
        <time>2024-05-26T11:10:15Z</time>
      </trkpt>
      <trkpt lat="48.796" lon="2.24235">
        <ele>134.7</ele>
        <time>2024-05-26T11:10:16Z</time>
      </trkpt>
      <trkpt lat="48.79601" lon="2.24236">
        <ele>134.9</ele>
        <time>2024-05-26T11:10:17Z</time>
      </trkpt>
      <trkpt lat="48.79601" lon="2.24238">
        <ele>135.2</ele>
        <time>2024-05-26T11:10:18Z</time>
      </trkpt>
      <trkpt lat="48.79602" lon="2.2424">
        <ele>135.4</ele>
        <time>2024-05-26T11:10:19Z</time>
      </trkpt>
      <trkpt lat="48.79603" lon="2.2424">
        <ele>135.5</ele>
        <time>2024-05-26T11:10:20Z</time>
      </trkpt>
      <trkpt lat="48.79603" lon="2.24241">
        <ele>135.6</ele>
        <time>2024-05-26T11:10:21Z</time>
      </trkpt>
      <trkpt lat="48.79604" lon="2.24241">
        <ele>135.8</ele>
        <time>2024-05-26T11:10:22Z</time>
      </trkpt>
      <trkpt lat="48.79605" lon="2.24242">
        <ele>136</ele>
        <time>2024-05-26T11:10:23Z</time>
      </trkpt>
      <trkpt lat="48.79605" lon="2.24243">
        <ele>136.2</ele>
        <time>2024-05-26T11:10:24Z</time>
      </trkpt>
      <trkpt lat="48.79605" lon="2.24243">
        <ele>136.3</ele>
        <time>2024-05-26T11:10:25Z</time>
      </trkpt>
      <trkpt lat="48.79605" lon="2.24245">
        <ele>136.5</ele>
        <time>2024-05-26T11:10:26Z</time>
      </trkpt>
      <trkpt lat="48.79605" lon="2.24247">
        <ele>136.7</ele>
        <time>2024-05-26T11:10:27Z</time>
      </trkpt>
      <trkpt lat="48.79606" lon="2.24248">
        <ele>136.9</ele>
        <time>2024-05-26T11:10:28Z</time>
      </trkpt>
      <trkpt lat="48.79605" lon="2.24252">
        <ele>137.2</ele>
        <time>2024-05-26T11:10:29Z</time>
      </trkpt>
      <trkpt lat="48.79606" lon="2.24252">
        <ele>137.4</ele>
        <time>2024-05-26T11:10:30Z</time>
      </trkpt>
      <trkpt lat="48.79607" lon="2.24253">
        <ele>137.6</ele>
        <time>2024-05-26T11:10:31Z</time>
      </trkpt>
      <trkpt lat="48.79608" lon="2.24253">
        <ele>137.8</ele>
        <time>2024-05-26T11:10:32Z</time>
      </trkpt>
      <trkpt lat="48.79609" lon="2.24254">
        <ele>137.9</ele>
        <time>2024-05-26T11:10:33Z</time>
      </trkpt>
      <trkpt lat="48.7961" lon="2.24254">
        <ele>138.1</ele>
        <time>2024-05-26T11:10:34Z</time>
      </trkpt>
      <trkpt lat="48.7961" lon="2.24255">
        <ele>138.2</ele>
        <time>2024-05-26T11:10:35Z</time>
      </trkpt>
      <trkpt lat="48.7961" lon="2.24256">
        <ele>138.3</ele>
        <time>2024-05-26T11:10:36Z</time>
      </trkpt>
      <trkpt lat="48.79611" lon="2.24257">
        <ele>138.5</ele>
        <time>2024-05-26T11:10:37Z</time>
      </trkpt>
      <trkpt lat="48.79612" lon="2.24257">
        <ele>138.6</ele>
        <time>2024-05-26T11:10:38Z</time>
      </trkpt>
      <trkpt lat="48.79612" lon="2.24258">
        <ele>138.7</ele>
        <time>2024-05-26T11:10:39Z</time>
      </trkpt>
      <trkpt lat="48.79613" lon="2.24259">
        <ele>138.9</ele>
        <time>2024-05-26T11:10:40Z</time>
      </trkpt>
      <trkpt lat="48.79612" lon="2.2426">
        <ele>139</ele>
        <time>2024-05-26T11:10:41Z</time>
      </trkpt>
      <trkpt lat="48.79613" lon="2.24261">
        <ele>139.1</ele>
        <time>2024-05-26T11:10:42Z</time>
      </trkpt>
      <trkpt lat="48.79613" lon="2.24262">
        <ele>139.2</ele>
        <time>2024-05-26T11:10:43Z</time>
      </trkpt>
      <trkpt lat="48.79613" lon="2.24261">
        <ele>139.3</ele>
        <time>2024-05-26T11:10:44Z</time>
      </trkpt>
      <trkpt lat="48.79613" lon="2.24262">
        <ele>139.4</ele>
        <time>2024-05-26T11:10:45Z</time>
      </trkpt>
      <trkpt lat="48.79614" lon="2.24263">
        <ele>139.6</ele>
        <time>2024-05-26T11:10:46Z</time>
      </trkpt>
      <trkpt lat="48.79615" lon="2.24263">
        <ele>139.7</ele>
        <time>2024-05-26T11:10:47Z</time>
      </trkpt>
      <trkpt lat="48.79616" lon="2.24264">
        <ele>140</ele>
        <time>2024-05-26T11:10:48Z</time>
      </trkpt>
      <trkpt lat="48.79616" lon="2.24265">
        <ele>140.1</ele>
        <time>2024-05-26T11:10:49Z</time>
      </trkpt>
      <trkpt lat="48.79617" lon="2.24265">
        <ele>140.2</ele>
        <time>2024-05-26T11:10:50Z</time>
      </trkpt>
      <trkpt lat="48.79617" lon="2.24266">
        <ele>140.3</ele>
        <time>2024-05-26T11:10:51Z</time>
      </trkpt>
      <trkpt lat="48.79618" lon="2.24268">
        <ele>140.6</ele>
        <time>2024-05-26T11:10:52Z</time>
      </trkpt>
      <trkpt lat="48.79619" lon="2.24269">
        <ele>140.8</ele>
        <time>2024-05-26T11:10:53Z</time>
      </trkpt>
      <trkpt lat="48.7962" lon="2.2427">
        <ele>140.9</ele>
        <time>2024-05-26T11:10:54Z</time>
      </trkpt>
      <trkpt lat="48.79621" lon="2.24271">
        <ele>141.2</ele>
        <time>2024-05-26T11:10:55Z</time>
      </trkpt>
      <trkpt lat="48.79622" lon="2.24272">
        <ele>141.4</ele>
        <time>2024-05-26T11:10:56Z</time>
      </trkpt>
      <trkpt lat="48.79623" lon="2.24272">
        <ele>141.5</ele>
        <time>2024-05-26T11:10:57Z</time>
      </trkpt>
      <trkpt lat="48.79624" lon="2.24272">
        <ele>141.7</ele>
        <time>2024-05-26T11:10:58Z</time>
      </trkpt>
      <trkpt lat="48.79624" lon="2.24272">
        <ele>141.8</ele>
        <time>2024-05-26T11:10:59Z</time>
      </trkpt>
      <trkpt lat="48.79624" lon="2.24272">
        <ele>141.8</ele>
        <time>2024-05-26T11:11:00Z</time>
      </trkpt>
      <trkpt lat="48.79624" lon="2.24272">
        <ele>141.9</ele>
        <time>2024-05-26T11:11:01Z</time>
      </trkpt>
      <trkpt lat="48.79624" lon="2.24272">
        <ele>141.9</ele>
        <time>2024-05-26T11:11:02Z</time>
      </trkpt>
      <trkpt lat="48.79625" lon="2.24273">
        <ele>142</ele>
        <time>2024-05-26T11:11:03Z</time>
      </trkpt>
      <trkpt lat="48.79625" lon="2.24273">
        <ele>142</ele>
        <time>2024-05-26T11:11:04Z</time>
      </trkpt>
      <trkpt lat="48.79626" lon="2.24273">
        <ele>142.2</ele>
        <time>2024-05-26T11:11:05Z</time>
      </trkpt>
      <trkpt lat="48.79627" lon="2.24275">
        <ele>142.5</ele>
        <time>2024-05-26T11:11:06Z</time>
      </trkpt>
      <trkpt lat="48.79628" lon="2.24276">
        <ele>142.6</ele>
        <time>2024-05-26T11:11:07Z</time>
      </trkpt>
      <trkpt lat="48.79629" lon="2.24276">
        <ele>142.8</ele>
        <time>2024-05-26T11:11:08Z</time>
      </trkpt>
      <trkpt lat="48.79629" lon="2.24277">
        <ele>142.9</ele>
        <time>2024-05-26T11:11:09Z</time>
      </trkpt>
      <trkpt lat="48.7963" lon="2.24277">
        <ele>143.1</ele>
        <time>2024-05-26T11:11:10Z</time>
      </trkpt>
      <trkpt lat="48.7963" lon="2.24277">
        <ele>143.1</ele>
        <time>2024-05-26T11:11:11Z</time>
      </trkpt>
      <trkpt lat="48.7963" lon="2.24278">
        <ele>143.1</ele>
        <time>2024-05-26T11:11:12Z</time>
      </trkpt>
      <trkpt lat="48.79631" lon="2.24279">
        <ele>143.3</ele>
        <time>2024-05-26T11:11:13Z</time>
      </trkpt>
      <trkpt lat="48.79632" lon="2.2428">
        <ele>143.5</ele>
        <time>2024-05-26T11:11:14Z</time>
      </trkpt>
      <trkpt lat="48.79631" lon="2.2428">
        <ele>143.5</ele>
        <time>2024-05-26T11:11:15Z</time>
      </trkpt>
      <trkpt lat="48.79631" lon="2.2428">
        <ele>143.6</ele>
        <time>2024-05-26T11:11:16Z</time>
      </trkpt>
      <trkpt lat="48.79631" lon="2.24281">
        <ele>143.7</ele>
        <time>2024-05-26T11:11:17Z</time>
      </trkpt>
      <trkpt lat="48.79632" lon="2.24283">
        <ele>143.9</ele>
        <time>2024-05-26T11:11:18Z</time>
      </trkpt>
      <trkpt lat="48.79632" lon="2.24284">
        <ele>144.1</ele>
        <time>2024-05-26T11:11:19Z</time>
      </trkpt>
      <trkpt lat="48.79632" lon="2.24285">
        <ele>144.1</ele>
        <time>2024-05-26T11:11:20Z</time>
      </trkpt>
      <trkpt lat="48.79632" lon="2.24285">
        <ele>144.2</ele>
        <time>2024-05-26T11:11:21Z</time>
      </trkpt>
      <trkpt lat="48.79632" lon="2.24285">
        <ele>144.2</ele>
        <time>2024-05-26T11:11:22Z</time>
      </trkpt>
      <trkpt lat="48.79633" lon="2.24286">
        <ele>144.3</ele>
        <time>2024-05-26T11:11:23Z</time>
      </trkpt>
      <trkpt lat="48.79634" lon="2.24288">
        <ele>144.6</ele>
        <time>2024-05-26T11:11:24Z</time>
      </trkpt>
      <trkpt lat="48.79635" lon="2.24287">
        <ele>144.8</ele>
        <time>2024-05-26T11:11:25Z</time>
      </trkpt>
      <trkpt lat="48.79636" lon="2.24287">
        <ele>144.9</ele>
        <time>2024-05-26T11:11:26Z</time>
      </trkpt>
      <trkpt lat="48.79636" lon="2.24288">
        <ele>145</ele>
        <time>2024-05-26T11:11:27Z</time>
      </trkpt>
      <trkpt lat="48.79637" lon="2.24288">
        <ele>145.2</ele>
        <time>2024-05-26T11:11:28Z</time>
      </trkpt>
      <trkpt lat="48.79638" lon="2.24289">
        <ele>145.3</ele>
        <time>2024-05-26T11:11:29Z</time>
      </trkpt>
      <trkpt lat="48.79638" lon="2.2429">
        <ele>145.4</ele>
        <time>2024-05-26T11:11:30Z</time>
      </trkpt>
      <trkpt lat="48.79639" lon="2.2429">
        <ele>145.5</ele>
        <time>2024-05-26T11:11:31Z</time>
      </trkpt>
      <trkpt lat="48.79638" lon="2.24289">
        <ele>145.7</ele>
        <time>2024-05-26T11:11:32Z</time>
      </trkpt>
      <trkpt lat="48.79639" lon="2.2429">
        <ele>146</ele>
        <time>2024-05-26T11:11:33Z</time>
      </trkpt>
      <trkpt lat="48.79641" lon="2.24292">
        <ele>146.3</ele>
        <time>2024-05-26T11:11:34Z</time>
      </trkpt>
      <trkpt lat="48.79641" lon="2.24293">
        <ele>146.4</ele>
        <time>2024-05-26T11:11:35Z</time>
      </trkpt>
      <trkpt lat="48.79642" lon="2.24294">
        <ele>146.5</ele>
        <time>2024-05-26T11:11:36Z</time>
      </trkpt>
      <trkpt lat="48.79642" lon="2.24294">
        <ele>146.6</ele>
        <time>2024-05-26T11:11:37Z</time>
      </trkpt>
      <trkpt lat="48.79643" lon="2.24295">
        <ele>146.8</ele>
        <time>2024-05-26T11:11:38Z</time>
      </trkpt>
      <trkpt lat="48.79643" lon="2.24296">
        <ele>146.9</ele>
        <time>2024-05-26T11:11:39Z</time>
      </trkpt>
      <trkpt lat="48.79644" lon="2.24296">
        <ele>147.1</ele>
        <time>2024-05-26T11:11:40Z</time>
      </trkpt>
      <trkpt lat="48.79645" lon="2.24297">
        <ele>147.2</ele>
        <time>2024-05-26T11:11:41Z</time>
      </trkpt>
      <trkpt lat="48.79645" lon="2.24297">
        <ele>147.3</ele>
        <time>2024-05-26T11:11:42Z</time>
      </trkpt>
      <trkpt lat="48.79646" lon="2.24299">
        <ele>147.5</ele>
        <time>2024-05-26T11:11:43Z</time>
      </trkpt>
      <trkpt lat="48.79647" lon="2.243">
        <ele>147.7</ele>
        <time>2024-05-26T11:11:44Z</time>
      </trkpt>
      <trkpt lat="48.79648" lon="2.24301">
        <ele>147.9</ele>
        <time>2024-05-26T11:11:45Z</time>
      </trkpt>
      <trkpt lat="48.79648" lon="2.24302">
        <ele>148.1</ele>
        <time>2024-05-26T11:11:46Z</time>
      </trkpt>
      <trkpt lat="48.79649" lon="2.24303">
        <ele>148.2</ele>
        <time>2024-05-26T11:11:47Z</time>
      </trkpt>
      <trkpt lat="48.79649" lon="2.24304">
        <ele>148.3</ele>
        <time>2024-05-26T11:11:48Z</time>
      </trkpt>
      <trkpt lat="48.7965" lon="2.24304">
        <ele>148.5</ele>
        <time>2024-05-26T11:11:49Z</time>
      </trkpt>
      <trkpt lat="48.7965" lon="2.24307">
        <ele>148.8</ele>
        <time>2024-05-26T11:11:50Z</time>
      </trkpt>
      <trkpt lat="48.79651" lon="2.24308">
        <ele>148.9</ele>
        <time>2024-05-26T11:11:51Z</time>
      </trkpt>
      <trkpt lat="48.79651" lon="2.2431">
        <ele>149.2</ele>
        <time>2024-05-26T11:11:52Z</time>
      </trkpt>
      <trkpt lat="48.79652" lon="2.24311">
        <ele>149.3</ele>
        <time>2024-05-26T11:11:53Z</time>
      </trkpt>
      <trkpt lat="48.79652" lon="2.24312">
        <ele>149.5</ele>
        <time>2024-05-26T11:11:54Z</time>
      </trkpt>
      <trkpt lat="48.79652" lon="2.24313">
        <ele>149.6</ele>
        <time>2024-05-26T11:11:55Z</time>
      </trkpt>
      <trkpt lat="48.79652" lon="2.24313">
        <ele>149.7</ele>
        <time>2024-05-26T11:11:56Z</time>
      </trkpt>
      <trkpt lat="48.79653" lon="2.24315">
        <ele>149.8</ele>
        <time>2024-05-26T11:11:57Z</time>
      </trkpt>
      <trkpt lat="48.79653" lon="2.24315">
        <ele>149.9</ele>
        <time>2024-05-26T11:11:58Z</time>
      </trkpt>
      <trkpt lat="48.79654" lon="2.24314">
        <ele>150</ele>
        <time>2024-05-26T11:11:59Z</time>
      </trkpt>
      <trkpt lat="48.79654" lon="2.24315">
        <ele>150.1</ele>
        <time>2024-05-26T11:12:00Z</time>
      </trkpt>
      <trkpt lat="48.79656" lon="2.24317">
        <ele>150.4</ele>
        <time>2024-05-26T11:12:01Z</time>
      </trkpt>
      <trkpt lat="48.79657" lon="2.24319">
        <ele>150.7</ele>
        <time>2024-05-26T11:12:02Z</time>
      </trkpt>
      <trkpt lat="48.79658" lon="2.2432">
        <ele>151</ele>
        <time>2024-05-26T11:12:03Z</time>
      </trkpt>
      <trkpt lat="48.79659" lon="2.24321">
        <ele>151.2</ele>
        <time>2024-05-26T11:12:04Z</time>
      </trkpt>
      <trkpt lat="48.7966" lon="2.24322">
        <ele>151.3</ele>
        <time>2024-05-26T11:12:05Z</time>
      </trkpt>
      <trkpt lat="48.7966" lon="2.24323">
        <ele>151.4</ele>
        <time>2024-05-26T11:12:06Z</time>
      </trkpt>
      <trkpt lat="48.79661" lon="2.24323">
        <ele>151.5</ele>
        <time>2024-05-26T11:12:07Z</time>
      </trkpt>
      <trkpt lat="48.79661" lon="2.24324">
        <ele>151.6</ele>
        <time>2024-05-26T11:12:08Z</time>
      </trkpt>
      <trkpt lat="48.79662" lon="2.24326">
        <ele>151.8</ele>
        <time>2024-05-26T11:12:09Z</time>
      </trkpt>
      <trkpt lat="48.79663" lon="2.24326">
        <ele>151.9</ele>
        <time>2024-05-26T11:12:10Z</time>
      </trkpt>
      <trkpt lat="48.79663" lon="2.24326">
        <ele>152</ele>
        <time>2024-05-26T11:12:11Z</time>
      </trkpt>
      <trkpt lat="48.79664" lon="2.24326">
        <ele>152.2</ele>
        <time>2024-05-26T11:12:12Z</time>
      </trkpt>
      <trkpt lat="48.79665" lon="2.24327">
        <ele>152.4</ele>
        <time>2024-05-26T11:12:13Z</time>
      </trkpt>
      <trkpt lat="48.79666" lon="2.24328">
        <ele>152.4</ele>
        <time>2024-05-26T11:12:14Z</time>
      </trkpt>
      <trkpt lat="48.79666" lon="2.24328">
        <ele>152.5</ele>
        <time>2024-05-26T11:12:15Z</time>
      </trkpt>
      <trkpt lat="48.79667" lon="2.24328">
        <ele>152.6</ele>
        <time>2024-05-26T11:12:16Z</time>
      </trkpt>
      <trkpt lat="48.79667" lon="2.24329">
        <ele>152.7</ele>
        <time>2024-05-26T11:12:17Z</time>
      </trkpt>
      <trkpt lat="48.79667" lon="2.24329">
        <ele>152.8</ele>
        <time>2024-05-26T11:12:18Z</time>
      </trkpt>
      <trkpt lat="48.79668" lon="2.24331">
        <ele>152.9</ele>
        <time>2024-05-26T11:12:19Z</time>
      </trkpt>
      <trkpt lat="48.79668" lon="2.24332">
        <ele>153</ele>
        <time>2024-05-26T11:12:20Z</time>
      </trkpt>
      <trkpt lat="48.79668" lon="2.24332">
        <ele>153.1</ele>
        <time>2024-05-26T11:12:21Z</time>
      </trkpt>
      <trkpt lat="48.79669" lon="2.24334">
        <ele>153.3</ele>
        <time>2024-05-26T11:12:22Z</time>
      </trkpt>
      <trkpt lat="48.7967" lon="2.24335">
        <ele>153.6</ele>
        <time>2024-05-26T11:12:23Z</time>
      </trkpt>
      <trkpt lat="48.79671" lon="2.24335">
        <ele>153.7</ele>
        <time>2024-05-26T11:12:24Z</time>
      </trkpt>
      <trkpt lat="48.79671" lon="2.24336">
        <ele>153.8</ele>
        <time>2024-05-26T11:12:25Z</time>
      </trkpt>
      <trkpt lat="48.79672" lon="2.24336">
        <ele>153.9</ele>
        <time>2024-05-26T11:12:26Z</time>
      </trkpt>
      <trkpt lat="48.79672" lon="2.24336">
        <ele>153.9</ele>
        <time>2024-05-26T11:12:27Z</time>
      </trkpt>
      <trkpt lat="48.79673" lon="2.24338">
        <ele>154.1</ele>
        <time>2024-05-26T11:12:28Z</time>
      </trkpt>
      <trkpt lat="48.79673" lon="2.24339">
        <ele>154.2</ele>
        <time>2024-05-26T11:12:29Z</time>
      </trkpt>
      <trkpt lat="48.79674" lon="2.2434">
        <ele>154.4</ele>
        <time>2024-05-26T11:12:30Z</time>
      </trkpt>
      <trkpt lat="48.79675" lon="2.24341">
        <ele>154.5</ele>
        <time>2024-05-26T11:12:31Z</time>
      </trkpt>
      <trkpt lat="48.79675" lon="2.2434">
        <ele>154.6</ele>
        <time>2024-05-26T11:12:32Z</time>
      </trkpt>
      <trkpt lat="48.79676" lon="2.24342">
        <ele>154.8</ele>
        <time>2024-05-26T11:12:33Z</time>
      </trkpt>
      <trkpt lat="48.79677" lon="2.24343">
        <ele>155</ele>
        <time>2024-05-26T11:12:34Z</time>
      </trkpt>
      <trkpt lat="48.79677" lon="2.24344">
        <ele>155.1</ele>
        <time>2024-05-26T11:12:35Z</time>
      </trkpt>
      <trkpt lat="48.79678" lon="2.24345">
        <ele>155.2</ele>
        <time>2024-05-26T11:12:36Z</time>
      </trkpt>
      <trkpt lat="48.79678" lon="2.24346">
        <ele>155.3</ele>
        <time>2024-05-26T11:12:37Z</time>
      </trkpt>
      <trkpt lat="48.79678" lon="2.24346">
        <ele>155.4</ele>
        <time>2024-05-26T11:12:38Z</time>
      </trkpt>
      <trkpt lat="48.79678" lon="2.24346">
        <ele>155.4</ele>
        <time>2024-05-26T11:12:39Z</time>
      </trkpt>
      <trkpt lat="48.79679" lon="2.24347">
        <ele>155.6</ele>
        <time>2024-05-26T11:12:40Z</time>
      </trkpt>
      <trkpt lat="48.7968" lon="2.24348">
        <ele>155.7</ele>
        <time>2024-05-26T11:12:41Z</time>
      </trkpt>
      <trkpt lat="48.79679" lon="2.24349">
        <ele>155.8</ele>
        <time>2024-05-26T11:12:42Z</time>
      </trkpt>
      <trkpt lat="48.7968" lon="2.2435">
        <ele>155.9</ele>
        <time>2024-05-26T11:12:43Z</time>
      </trkpt>
      <trkpt lat="48.7968" lon="2.24351">
        <ele>156.1</ele>
        <time>2024-05-26T11:12:44Z</time>
      </trkpt>
      <trkpt lat="48.7968" lon="2.24352">
        <ele>156.2</ele>
        <time>2024-05-26T11:12:45Z</time>
      </trkpt>
      <trkpt lat="48.7968" lon="2.24353">
        <ele>156.2</ele>
        <time>2024-05-26T11:12:46Z</time>
      </trkpt>
      <trkpt lat="48.79681" lon="2.24354">
        <ele>156.4</ele>
        <time>2024-05-26T11:12:47Z</time>
      </trkpt>
      <trkpt lat="48.79682" lon="2.24356">
        <ele>156.7</ele>
        <time>2024-05-26T11:12:48Z</time>
      </trkpt>
      <trkpt lat="48.79682" lon="2.24357">
        <ele>156.8</ele>
        <time>2024-05-26T11:12:49Z</time>
      </trkpt>
      <trkpt lat="48.79682" lon="2.24358">
        <ele>156.9</ele>
        <time>2024-05-26T11:12:50Z</time>
      </trkpt>
      <trkpt lat="48.79682" lon="2.24359">
        <ele>157</ele>
        <time>2024-05-26T11:12:51Z</time>
      </trkpt>
      <trkpt lat="48.79683" lon="2.2436">
        <ele>157.1</ele>
        <time>2024-05-26T11:12:52Z</time>
      </trkpt>
      <trkpt lat="48.79683" lon="2.2436">
        <ele>157.2</ele>
        <time>2024-05-26T11:12:53Z</time>
      </trkpt>
      <trkpt lat="48.79684" lon="2.2436">
        <ele>157.3</ele>
        <time>2024-05-26T11:12:54Z</time>
      </trkpt>
      <trkpt lat="48.79685" lon="2.24362">
        <ele>157.5</ele>
        <time>2024-05-26T11:12:55Z</time>
      </trkpt>
      <trkpt lat="48.79685" lon="2.24362">
        <ele>157.5</ele>
        <time>2024-05-26T11:12:56Z</time>
      </trkpt>
      <trkpt lat="48.79685" lon="2.24363">
        <ele>157.6</ele>
        <time>2024-05-26T11:12:57Z</time>
      </trkpt>
      <trkpt lat="48.79686" lon="2.24365">
        <ele>157.9</ele>
        <time>2024-05-26T11:12:58Z</time>
      </trkpt>
      <trkpt lat="48.79686" lon="2.24366">
        <ele>158</ele>
        <time>2024-05-26T11:12:59Z</time>
      </trkpt>
      <trkpt lat="48.79687" lon="2.24367">
        <ele>158.1</ele>
        <time>2024-05-26T11:13:00Z</time>
      </trkpt>
      <trkpt lat="48.79688" lon="2.24367">
        <ele>158.2</ele>
        <time>2024-05-26T11:13:01Z</time>
      </trkpt>
      <trkpt lat="48.79688" lon="2.24368">
        <ele>158.3</ele>
        <time>2024-05-26T11:13:02Z</time>
      </trkpt>
      <trkpt lat="48.79689" lon="2.24368">
        <ele>158.4</ele>
        <time>2024-05-26T11:13:03Z</time>
      </trkpt>
      <trkpt lat="48.79689" lon="2.24369">
        <ele>158.5</ele>
        <time>2024-05-26T11:13:04Z</time>
      </trkpt>
      <trkpt lat="48.79691" lon="2.24371">
        <ele>158.8</ele>
        <time>2024-05-26T11:13:05Z</time>
      </trkpt>
      <trkpt lat="48.79691" lon="2.24372">
        <ele>159</ele>
        <time>2024-05-26T11:13:06Z</time>
      </trkpt>
      <trkpt lat="48.79692" lon="2.24373">
        <ele>159.1</ele>
        <time>2024-05-26T11:13:07Z</time>
      </trkpt>
      <trkpt lat="48.79693" lon="2.24373">
        <ele>159.2</ele>
        <time>2024-05-26T11:13:08Z</time>
      </trkpt>
      <trkpt lat="48.79693" lon="2.24373">
        <ele>159.3</ele>
        <time>2024-05-26T11:13:09Z</time>
      </trkpt>
      <trkpt lat="48.79694" lon="2.24374">
        <ele>159.4</ele>
        <time>2024-05-26T11:13:10Z</time>
      </trkpt>
      <trkpt lat="48.79694" lon="2.24374">
        <ele>159.5</ele>
        <time>2024-05-26T11:13:11Z</time>
      </trkpt>
      <trkpt lat="48.79694" lon="2.24375">
        <ele>159.5</ele>
        <time>2024-05-26T11:13:12Z</time>
      </trkpt>
      <trkpt lat="48.79695" lon="2.24374">
        <ele>159.7</ele>
        <time>2024-05-26T11:13:13Z</time>
      </trkpt>
      <trkpt lat="48.79695" lon="2.24373">
        <ele>159.7</ele>
        <time>2024-05-26T11:13:14Z</time>
      </trkpt>
      <trkpt lat="48.79696" lon="2.24372">
        <ele>159.9</ele>
        <time>2024-05-26T11:13:15Z</time>
      </trkpt>
      <trkpt lat="48.79696" lon="2.24373">
        <ele>159.9</ele>
        <time>2024-05-26T11:13:16Z</time>
      </trkpt>
      <trkpt lat="48.79696" lon="2.24373">
        <ele>160</ele>
        <time>2024-05-26T11:13:17Z</time>
      </trkpt>
      <trkpt lat="48.79696" lon="2.24373">
        <ele>160</ele>
        <time>2024-05-26T11:13:18Z</time>
      </trkpt>
      <trkpt lat="48.79696" lon="2.24372">
        <ele>160.1</ele>
        <time>2024-05-26T11:13:19Z</time>
      </trkpt>
      <trkpt lat="48.79696" lon="2.24372">
        <ele>160.2</ele>
        <time>2024-05-26T11:13:20Z</time>
      </trkpt>
      <trkpt lat="48.79696" lon="2.24371">
        <ele>160.2</ele>
        <time>2024-05-26T11:13:21Z</time>
      </trkpt>
      <trkpt lat="48.79696" lon="2.2437">
        <ele>160.3</ele>
        <time>2024-05-26T11:13:22Z</time>
      </trkpt>
      <trkpt lat="48.79696" lon="2.2437">
        <ele>160.4</ele>
        <time>2024-05-26T11:13:23Z</time>
      </trkpt>
      <trkpt lat="48.79695" lon="2.2437">
        <ele>160.4</ele>
        <time>2024-05-26T11:13:24Z</time>
      </trkpt>
      <trkpt lat="48.79695" lon="2.2437">
        <ele>160.4</ele>
        <time>2024-05-26T11:13:25Z</time>
      </trkpt>
      <trkpt lat="48.79695" lon="2.2437">
        <ele>160.4</ele>
        <time>2024-05-26T11:13:26Z</time>
      </trkpt>
      <trkpt lat="48.79695" lon="2.24369">
        <ele>160.4</ele>
        <time>2024-05-26T11:13:27Z</time>
      </trkpt>
      <trkpt lat="48.79695" lon="2.24369">
        <ele>160.5</ele>
        <time>2024-05-26T11:13:28Z</time>
      </trkpt>
      <trkpt lat="48.79695" lon="2.24369">
        <ele>160.5</ele>
        <time>2024-05-26T11:13:29Z</time>
      </trkpt>
      <trkpt lat="48.79695" lon="2.24369">
        <ele>160.5</ele>
        <time>2024-05-26T11:13:30Z</time>
      </trkpt>
      <trkpt lat="48.79695" lon="2.24369">
        <ele>160.6</ele>
        <time>2024-05-26T11:13:31Z</time>
      </trkpt>
      <trkpt lat="48.79695" lon="2.24369">
        <ele>160.6</ele>
        <time>2024-05-26T11:13:32Z</time>
      </trkpt>
      <trkpt lat="48.79695" lon="2.24369">
        <ele>160.6</ele>
        <time>2024-05-26T11:13:33Z</time>
      </trkpt>
      <trkpt lat="48.79696" lon="2.24368">
        <ele>160.6</ele>
        <time>2024-05-26T11:13:34Z</time>
      </trkpt>
      <trkpt lat="48.79696" lon="2.24368">
        <ele>160.7</ele>
        <time>2024-05-26T11:13:35Z</time>
      </trkpt>
      <trkpt lat="48.79696" lon="2.24368">
        <ele>160.8</ele>
        <time>2024-05-26T11:13:36Z</time>
      </trkpt>
      <trkpt lat="48.79696" lon="2.24369">
        <ele>160.8</ele>
        <time>2024-05-26T11:13:37Z</time>
      </trkpt>
      <trkpt lat="48.79696" lon="2.24369">
        <ele>160.8</ele>
        <time>2024-05-26T11:13:38Z</time>
      </trkpt>
      <trkpt lat="48.79696" lon="2.2437">
        <ele>160.9</ele>
        <time>2024-05-26T11:13:39Z</time>
      </trkpt>
      <trkpt lat="48.79696" lon="2.2437">
        <ele>161</ele>
        <time>2024-05-26T11:13:40Z</time>
      </trkpt>
      <trkpt lat="48.79696" lon="2.2437">
        <ele>161</ele>
        <time>2024-05-26T11:13:41Z</time>
      </trkpt>
      <trkpt lat="48.79696" lon="2.2437">
        <ele>161.1</ele>
        <time>2024-05-26T11:13:42Z</time>
      </trkpt>
      <trkpt lat="48.79696" lon="2.2437">
        <ele>161.1</ele>
        <time>2024-05-26T11:13:43Z</time>
      </trkpt>
      <trkpt lat="48.79697" lon="2.2437">
        <ele>161.1</ele>
        <time>2024-05-26T11:13:44Z</time>
      </trkpt>
      <trkpt lat="48.79696" lon="2.2437">
        <ele>161.2</ele>
        <time>2024-05-26T11:13:45Z</time>
      </trkpt>
      <trkpt lat="48.79697" lon="2.2437">
        <ele>161.3</ele>
        <time>2024-05-26T11:13:46Z</time>
      </trkpt>
      <trkpt lat="48.79697" lon="2.2437">
        <ele>161.3</ele>
        <time>2024-05-26T11:13:47Z</time>
      </trkpt>
      <trkpt lat="48.79697" lon="2.24371">
        <ele>161.4</ele>
        <time>2024-05-26T11:13:48Z</time>
      </trkpt>
      <trkpt lat="48.79697" lon="2.24372">
        <ele>161.4</ele>
        <time>2024-05-26T11:13:49Z</time>
      </trkpt>
      <trkpt lat="48.79697" lon="2.24372">
        <ele>161.4</ele>
        <time>2024-05-26T11:13:50Z</time>
      </trkpt>
      <trkpt lat="48.79697" lon="2.24372">
        <ele>161.5</ele>
        <time>2024-05-26T11:13:51Z</time>
      </trkpt>
      <trkpt lat="48.79697" lon="2.24372">
        <ele>161.5</ele>
        <time>2024-05-26T11:13:52Z</time>
      </trkpt>
      <trkpt lat="48.79697" lon="2.24372">
        <ele>161.5</ele>
        <time>2024-05-26T11:13:53Z</time>
      </trkpt>
      <trkpt lat="48.79697" lon="2.24373">
        <ele>161.5</ele>
        <time>2024-05-26T11:13:54Z</time>
      </trkpt>
      <trkpt lat="48.79696" lon="2.24373">
        <ele>161.6</ele>
        <time>2024-05-26T11:13:55Z</time>
      </trkpt>
      <trkpt lat="48.79697" lon="2.24373">
        <ele>161.6</ele>
        <time>2024-05-26T11:13:56Z</time>
      </trkpt>
      <trkpt lat="48.79697" lon="2.24373">
        <ele>161.6</ele>
        <time>2024-05-26T11:13:57Z</time>
      </trkpt>
      <trkpt lat="48.79697" lon="2.24373">
        <ele>161.6</ele>
        <time>2024-05-26T11:13:58Z</time>
      </trkpt>
      <trkpt lat="48.79697" lon="2.24373">
        <ele>161.6</ele>
        <time>2024-05-26T11:13:59Z</time>
      </trkpt>
      <trkpt lat="48.79697" lon="2.24373">
        <ele>161.6</ele>
        <time>2024-05-26T11:14:00Z</time>
      </trkpt>
      <trkpt lat="48.79697" lon="2.24373">
        <ele>161.6</ele>
        <time>2024-05-26T11:14:01Z</time>
      </trkpt>
      <trkpt lat="48.79697" lon="2.24374">
        <ele>161.8</ele>
        <time>2024-05-26T11:14:02Z</time>
      </trkpt>
      <trkpt lat="48.79697" lon="2.24374">
        <ele>161.8</ele>
        <time>2024-05-26T11:14:03Z</time>
      </trkpt>
      <trkpt lat="48.79697" lon="2.24374">
        <ele>161.8</ele>
        <time>2024-05-26T11:14:04Z</time>
      </trkpt>
      <trkpt lat="48.79697" lon="2.24374">
        <ele>161.8</ele>
        <time>2024-05-26T11:14:05Z</time>
      </trkpt>
      <trkpt lat="48.79697" lon="2.24374">
        <ele>161.8</ele>
        <time>2024-05-26T11:14:06Z</time>
      </trkpt>
      <trkpt lat="48.79698" lon="2.24374">
        <ele>161.9</ele>
        <time>2024-05-26T11:14:07Z</time>
      </trkpt>
      <trkpt lat="48.79698" lon="2.24374">
        <ele>161.9</ele>
        <time>2024-05-26T11:14:08Z</time>
      </trkpt>
      <trkpt lat="48.79698" lon="2.24374">
        <ele>161.9</ele>
        <time>2024-05-26T11:14:09Z</time>
      </trkpt>
      <trkpt lat="48.79698" lon="2.24374">
        <ele>162</ele>
        <time>2024-05-26T11:14:10Z</time>
      </trkpt>
      <trkpt lat="48.79699" lon="2.24374">
        <ele>162</ele>
        <time>2024-05-26T11:14:11Z</time>
      </trkpt>
      <trkpt lat="48.79699" lon="2.24374">
        <ele>162</ele>
        <time>2024-05-26T11:14:12Z</time>
      </trkpt>
      <trkpt lat="48.79699" lon="2.24374">
        <ele>162</ele>
        <time>2024-05-26T11:14:13Z</time>
      </trkpt>
      <trkpt lat="48.79699" lon="2.24374">
        <ele>162</ele>
        <time>2024-05-26T11:14:14Z</time>
      </trkpt>
      <trkpt lat="48.79699" lon="2.24374">
        <ele>162</ele>
        <time>2024-05-26T11:14:15Z</time>
      </trkpt>
      <trkpt lat="48.79699" lon="2.24373">
        <ele>162.1</ele>
        <time>2024-05-26T11:14:16Z</time>
      </trkpt>
      <trkpt lat="48.79699" lon="2.24373">
        <ele>162.1</ele>
        <time>2024-05-26T11:14:17Z</time>
      </trkpt>
      <trkpt lat="48.79699" lon="2.24373">
        <ele>162.1</ele>
        <time>2024-05-26T11:14:18Z</time>
      </trkpt>
      <trkpt lat="48.79699" lon="2.24373">
        <ele>162.1</ele>
        <time>2024-05-26T11:14:19Z</time>
      </trkpt>
      <trkpt lat="48.79699" lon="2.24373">
        <ele>162.1</ele>
        <time>2024-05-26T11:14:20Z</time>
      </trkpt>
      <trkpt lat="48.79699" lon="2.24373">
        <ele>162.1</ele>
        <time>2024-05-26T11:14:21Z</time>
      </trkpt>
      <trkpt lat="48.79699" lon="2.24373">
        <ele>162.1</ele>
        <time>2024-05-26T11:14:22Z</time>
      </trkpt>
      <trkpt lat="48.79699" lon="2.24373">
        <ele>162.2</ele>
        <time>2024-05-26T11:14:23Z</time>
      </trkpt>
      <trkpt lat="48.79699" lon="2.24373">
        <ele>162.2</ele>
        <time>2024-05-26T11:14:24Z</time>
      </trkpt>
      <trkpt lat="48.79698" lon="2.24373">
        <ele>162.3</ele>
        <time>2024-05-26T11:14:25Z</time>
      </trkpt>
      <trkpt lat="48.79698" lon="2.24373">
        <ele>162.3</ele>
        <time>2024-05-26T11:14:26Z</time>
      </trkpt>
      <trkpt lat="48.79698" lon="2.24373">
        <ele>162.3</ele>
        <time>2024-05-26T11:14:27Z</time>
      </trkpt>
      <trkpt lat="48.79698" lon="2.24373">
        <ele>162.3</ele>
        <time>2024-05-26T11:14:28Z</time>
      </trkpt>
      <trkpt lat="48.79698" lon="2.24373">
        <ele>162.3</ele>
        <time>2024-05-26T11:14:29Z</time>
      </trkpt>
      <trkpt lat="48.79698" lon="2.24373">
        <ele>162.3</ele>
        <time>2024-05-26T11:14:30Z</time>
      </trkpt>
      <trkpt lat="48.79698" lon="2.24373">
        <ele>162.3</ele>
        <time>2024-05-26T11:14:31Z</time>
      </trkpt>
      <trkpt lat="48.79698" lon="2.24372">
        <ele>162.3</ele>
        <time>2024-05-26T11:14:32Z</time>
      </trkpt>
      <trkpt lat="48.79698" lon="2.24372">
        <ele>162.3</ele>
        <time>2024-05-26T11:14:33Z</time>
      </trkpt>
      <trkpt lat="48.79698" lon="2.24372">
        <ele>162.3</ele>
        <time>2024-05-26T11:14:34Z</time>
      </trkpt>
      <trkpt lat="48.79698" lon="2.24372">
        <ele>162.3</ele>
        <time>2024-05-26T11:14:35Z</time>
      </trkpt>
      <trkpt lat="48.79698" lon="2.24372">
        <ele>162.3</ele>
        <time>2024-05-26T11:14:36Z</time>
      </trkpt>
      <trkpt lat="48.79698" lon="2.24372">
        <ele>162.3</ele>
        <time>2024-05-26T11:14:37Z</time>
      </trkpt>
      <trkpt lat="48.79698" lon="2.24372">
        <ele>162.3</ele>
        <time>2024-05-26T11:14:38Z</time>
      </trkpt>
      <trkpt lat="48.79698" lon="2.24372">
        <ele>162.3</ele>
        <time>2024-05-26T11:14:39Z</time>
      </trkpt>
      <trkpt lat="48.79698" lon="2.24372">
        <ele>162.3</ele>
        <time>2024-05-26T11:14:40Z</time>
      </trkpt>
      <trkpt lat="48.79698" lon="2.24372">
        <ele>162.3</ele>
        <time>2024-05-26T11:14:41Z</time>
      </trkpt>
      <trkpt lat="48.79698" lon="2.24372">
        <ele>162.4</ele>
        <time>2024-05-26T11:14:42Z</time>
      </trkpt>
      <trkpt lat="48.79698" lon="2.24372">
        <ele>162.4</ele>
        <time>2024-05-26T11:14:43Z</time>
      </trkpt>
      <trkpt lat="48.79698" lon="2.24372">
        <ele>162.4</ele>
        <time>2024-05-26T11:14:44Z</time>
      </trkpt>
      <trkpt lat="48.79698" lon="2.24372">
        <ele>162.4</ele>
        <time>2024-05-26T11:14:45Z</time>
      </trkpt>
      <trkpt lat="48.79698" lon="2.24372">
        <ele>162.4</ele>
        <time>2024-05-26T11:14:46Z</time>
      </trkpt>
      <trkpt lat="48.79698" lon="2.24372">
        <ele>162.4</ele>
        <time>2024-05-26T11:14:47Z</time>
      </trkpt>
      <trkpt lat="48.79698" lon="2.24372">
        <ele>162.4</ele>
        <time>2024-05-26T11:14:48Z</time>
      </trkpt>
      <trkpt lat="48.79698" lon="2.24372">
        <ele>162.4</ele>
        <time>2024-05-26T11:14:49Z</time>
      </trkpt>
      <trkpt lat="48.79698" lon="2.24372">
        <ele>162.4</ele>
        <time>2024-05-26T11:14:50Z</time>
      </trkpt>
      <trkpt lat="48.79699" lon="2.24372">
        <ele>162.4</ele>
        <time>2024-05-26T11:14:51Z</time>
      </trkpt>
      <trkpt lat="48.79699" lon="2.24372">
        <ele>162.4</ele>
        <time>2024-05-26T11:14:52Z</time>
      </trkpt>
      <trkpt lat="48.79699" lon="2.24372">
        <ele>162.4</ele>
        <time>2024-05-26T11:14:53Z</time>
      </trkpt>
      <trkpt lat="48.79699" lon="2.24372">
        <ele>162.4</ele>
        <time>2024-05-26T11:14:54Z</time>
      </trkpt>
      <trkpt lat="48.79699" lon="2.24372">
        <ele>162.4</ele>
        <time>2024-05-26T11:14:55Z</time>
      </trkpt>
      <trkpt lat="48.79699" lon="2.24372">
        <ele>162.4</ele>
        <time>2024-05-26T11:14:56Z</time>
      </trkpt>
      <trkpt lat="48.79699" lon="2.24372">
        <ele>162.5</ele>
        <time>2024-05-26T11:14:57Z</time>
      </trkpt>
      <trkpt lat="48.79699" lon="2.24372">
        <ele>162.5</ele>
        <time>2024-05-26T11:14:58Z</time>
      </trkpt>
      <trkpt lat="48.79699" lon="2.24372">
        <ele>162.5</ele>
        <time>2024-05-26T11:14:59Z</time>
      </trkpt>
      <trkpt lat="48.79699" lon="2.24372">
        <ele>162.5</ele>
        <time>2024-05-26T11:15:00Z</time>
      </trkpt>
      <trkpt lat="48.79699" lon="2.24372">
        <ele>162.5</ele>
        <time>2024-05-26T11:15:01Z</time>
      </trkpt>
      <trkpt lat="48.79699" lon="2.24372">
        <ele>162.6</ele>
        <time>2024-05-26T11:15:02Z</time>
      </trkpt>
      <trkpt lat="48.79699" lon="2.24372">
        <ele>162.6</ele>
        <time>2024-05-26T11:15:03Z</time>
      </trkpt>
      <trkpt lat="48.79699" lon="2.24372">
        <ele>162.6</ele>
        <time>2024-05-26T11:15:04Z</time>
      </trkpt>
      <trkpt lat="48.79699" lon="2.24372">
        <ele>162.6</ele>
        <time>2024-05-26T11:15:05Z</time>
      </trkpt>
      <trkpt lat="48.79699" lon="2.24372">
        <ele>162.6</ele>
        <time>2024-05-26T11:15:06Z</time>
      </trkpt>
      <trkpt lat="48.79698" lon="2.24372">
        <ele>162.6</ele>
        <time>2024-05-26T11:15:07Z</time>
      </trkpt>
      <trkpt lat="48.79699" lon="2.24372">
        <ele>162.6</ele>
        <time>2024-05-26T11:15:08Z</time>
      </trkpt>
      <trkpt lat="48.79698" lon="2.24372">
        <ele>162.7</ele>
        <time>2024-05-26T11:15:09Z</time>
      </trkpt>
      <trkpt lat="48.79699" lon="2.24372">
        <ele>162.7</ele>
        <time>2024-05-26T11:15:10Z</time>
      </trkpt>
      <trkpt lat="48.79698" lon="2.24372">
        <ele>162.7</ele>
        <time>2024-05-26T11:15:11Z</time>
      </trkpt>
      <trkpt lat="48.79698" lon="2.24372">
        <ele>162.7</ele>
        <time>2024-05-26T11:15:12Z</time>
      </trkpt>
      <trkpt lat="48.79698" lon="2.24372">
        <ele>162.7</ele>
        <time>2024-05-26T11:15:13Z</time>
      </trkpt>
      <trkpt lat="48.79698" lon="2.24372">
        <ele>162.7</ele>
        <time>2024-05-26T11:15:14Z</time>
      </trkpt>
      <trkpt lat="48.79698" lon="2.24372">
        <ele>162.7</ele>
        <time>2024-05-26T11:15:15Z</time>
      </trkpt>
      <trkpt lat="48.79699" lon="2.24371">
        <ele>162.8</ele>
        <time>2024-05-26T11:15:16Z</time>
      </trkpt>
      <trkpt lat="48.79699" lon="2.24371">
        <ele>162.8</ele>
        <time>2024-05-26T11:15:17Z</time>
      </trkpt>
      <trkpt lat="48.79699" lon="2.24371">
        <ele>162.8</ele>
        <time>2024-05-26T11:15:18Z</time>
      </trkpt>
      <trkpt lat="48.79699" lon="2.24371">
        <ele>162.8</ele>
        <time>2024-05-26T11:15:19Z</time>
      </trkpt>
      <trkpt lat="48.79699" lon="2.24371">
        <ele>162.8</ele>
        <time>2024-05-26T11:15:20Z</time>
      </trkpt>
      <trkpt lat="48.79699" lon="2.24371">
        <ele>162.8</ele>
        <time>2024-05-26T11:15:21Z</time>
      </trkpt>
      <trkpt lat="48.79699" lon="2.24371">
        <ele>162.8</ele>
        <time>2024-05-26T11:15:22Z</time>
      </trkpt>
      <trkpt lat="48.79699" lon="2.24371">
        <ele>162.8</ele>
        <time>2024-05-26T11:15:23Z</time>
      </trkpt>
      <trkpt lat="48.79699" lon="2.24371">
        <ele>162.9</ele>
        <time>2024-05-26T11:15:24Z</time>
      </trkpt>
      <trkpt lat="48.79699" lon="2.24371">
        <ele>162.9</ele>
        <time>2024-05-26T11:15:25Z</time>
      </trkpt>
      <trkpt lat="48.79699" lon="2.24371">
        <ele>162.9</ele>
        <time>2024-05-26T11:15:26Z</time>
      </trkpt>
      <trkpt lat="48.79699" lon="2.24371">
        <ele>162.9</ele>
        <time>2024-05-26T11:15:27Z</time>
      </trkpt>
      <trkpt lat="48.79699" lon="2.24371">
        <ele>162.9</ele>
        <time>2024-05-26T11:15:28Z</time>
      </trkpt>
      <trkpt lat="48.79699" lon="2.24371">
        <ele>162.9</ele>
        <time>2024-05-26T11:15:29Z</time>
      </trkpt>
      <trkpt lat="48.79699" lon="2.24371">
        <ele>162.9</ele>
        <time>2024-05-26T11:15:30Z</time>
      </trkpt>
      <trkpt lat="48.79699" lon="2.24371">
        <ele>162.9</ele>
        <time>2024-05-26T11:15:31Z</time>
      </trkpt>
      <trkpt lat="48.79699" lon="2.24371">
        <ele>162.9</ele>
        <time>2024-05-26T11:15:32Z</time>
      </trkpt>
      <trkpt lat="48.79699" lon="2.24371">
        <ele>162.9</ele>
        <time>2024-05-26T11:15:33Z</time>
      </trkpt>
      <trkpt lat="48.79699" lon="2.24371">
        <ele>162.9</ele>
        <time>2024-05-26T11:15:34Z</time>
      </trkpt>
      <trkpt lat="48.79699" lon="2.24371">
        <ele>162.9</ele>
        <time>2024-05-26T11:15:35Z</time>
      </trkpt>
      <trkpt lat="48.79699" lon="2.24371">
        <ele>162.9</ele>
        <time>2024-05-26T11:15:36Z</time>
      </trkpt>
      <trkpt lat="48.79699" lon="2.24371">
        <ele>162.9</ele>
        <time>2024-05-26T11:15:37Z</time>
      </trkpt>
      <trkpt lat="48.797" lon="2.24371">
        <ele>163.1</ele>
        <time>2024-05-26T11:15:38Z</time>
      </trkpt>
      <trkpt lat="48.797" lon="2.24371">
        <ele>163.1</ele>
        <time>2024-05-26T11:15:39Z</time>
      </trkpt>
      <trkpt lat="48.797" lon="2.24371">
        <ele>163.1</ele>
        <time>2024-05-26T11:15:40Z</time>
      </trkpt>
      <trkpt lat="48.797" lon="2.24371">
        <ele>163.2</ele>
        <time>2024-05-26T11:15:41Z</time>
      </trkpt>
      <trkpt lat="48.797" lon="2.24371">
        <ele>163.2</ele>
        <time>2024-05-26T11:15:42Z</time>
      </trkpt>
      <trkpt lat="48.797" lon="2.24371">
        <ele>163.2</ele>
        <time>2024-05-26T11:15:43Z</time>
      </trkpt>
      <trkpt lat="48.797" lon="2.24371">
        <ele>163.2</ele>
        <time>2024-05-26T11:15:44Z</time>
      </trkpt>
      <trkpt lat="48.797" lon="2.24371">
        <ele>163.2</ele>
        <time>2024-05-26T11:15:45Z</time>
      </trkpt>
      <trkpt lat="48.797" lon="2.24371">
        <ele>163.2</ele>
        <time>2024-05-26T11:15:46Z</time>
      </trkpt>
      <trkpt lat="48.797" lon="2.24371">
        <ele>163.2</ele>
        <time>2024-05-26T11:15:47Z</time>
      </trkpt>
      <trkpt lat="48.79699" lon="2.24371">
        <ele>163.2</ele>
        <time>2024-05-26T11:15:48Z</time>
      </trkpt>
      <trkpt lat="48.79699" lon="2.24371">
        <ele>163.2</ele>
        <time>2024-05-26T11:15:49Z</time>
      </trkpt>
      <trkpt lat="48.79699" lon="2.24371">
        <ele>163.2</ele>
        <time>2024-05-26T11:15:50Z</time>
      </trkpt>
      <trkpt lat="48.79699" lon="2.24371">
        <ele>163.2</ele>
        <time>2024-05-26T11:15:51Z</time>
      </trkpt>
      <trkpt lat="48.79699" lon="2.24371">
        <ele>163.2</ele>
        <time>2024-05-26T11:15:52Z</time>
      </trkpt>
      <trkpt lat="48.79699" lon="2.24371">
        <ele>163.2</ele>
        <time>2024-05-26T11:15:53Z</time>
      </trkpt>
      <trkpt lat="48.79699" lon="2.24371">
        <ele>163.3</ele>
        <time>2024-05-26T11:15:54Z</time>
      </trkpt>
      <trkpt lat="48.79699" lon="2.24371">
        <ele>163.3</ele>
        <time>2024-05-26T11:15:55Z</time>
      </trkpt>
      <trkpt lat="48.79699" lon="2.24372">
        <ele>163.3</ele>
        <time>2024-05-26T11:15:56Z</time>
      </trkpt>
      <trkpt lat="48.79699" lon="2.24372">
        <ele>163.3</ele>
        <time>2024-05-26T11:15:57Z</time>
      </trkpt>
      <trkpt lat="48.79699" lon="2.24372">
        <ele>163.3</ele>
        <time>2024-05-26T11:15:58Z</time>
      </trkpt>
      <trkpt lat="48.79699" lon="2.24372">
        <ele>163.3</ele>
        <time>2024-05-26T11:15:59Z</time>
      </trkpt>
      <trkpt lat="48.797" lon="2.24372">
        <ele>163.4</ele>
        <time>2024-05-26T11:16:00Z</time>
      </trkpt>
      <trkpt lat="48.797" lon="2.24372">
        <ele>163.4</ele>
        <time>2024-05-26T11:16:01Z</time>
      </trkpt>
      <trkpt lat="48.797" lon="2.24372">
        <ele>163.4</ele>
        <time>2024-05-26T11:16:02Z</time>
      </trkpt>
      <trkpt lat="48.797" lon="2.24372">
        <ele>163.4</ele>
        <time>2024-05-26T11:16:03Z</time>
      </trkpt>
      <trkpt lat="48.797" lon="2.24372">
        <ele>163.4</ele>
        <time>2024-05-26T11:16:04Z</time>
      </trkpt>
      <trkpt lat="48.797" lon="2.24372">
        <ele>163.4</ele>
        <time>2024-05-26T11:16:05Z</time>
      </trkpt>
      <trkpt lat="48.797" lon="2.24372">
        <ele>163.4</ele>
        <time>2024-05-26T11:16:06Z</time>
      </trkpt>
      <trkpt lat="48.797" lon="2.24372">
        <ele>163.5</ele>
        <time>2024-05-26T11:16:07Z</time>
      </trkpt>
      <trkpt lat="48.797" lon="2.24372">
        <ele>163.5</ele>
        <time>2024-05-26T11:16:08Z</time>
      </trkpt>
      <trkpt lat="48.797" lon="2.24372">
        <ele>163.6</ele>
        <time>2024-05-26T11:16:09Z</time>
      </trkpt>
      <trkpt lat="48.797" lon="2.24371">
        <ele>163.6</ele>
        <time>2024-05-26T11:16:10Z</time>
      </trkpt>
      <trkpt lat="48.797" lon="2.24372">
        <ele>163.6</ele>
        <time>2024-05-26T11:16:11Z</time>
      </trkpt>
      <trkpt lat="48.797" lon="2.24372">
        <ele>163.7</ele>
        <time>2024-05-26T11:16:12Z</time>
      </trkpt>
      <trkpt lat="48.797" lon="2.24372">
        <ele>163.7</ele>
        <time>2024-05-26T11:16:13Z</time>
      </trkpt>
      <trkpt lat="48.79699" lon="2.24372">
        <ele>163.8</ele>
        <time>2024-05-26T11:16:14Z</time>
      </trkpt>
      <trkpt lat="48.797" lon="2.24371">
        <ele>163.8</ele>
        <time>2024-05-26T11:16:15Z</time>
      </trkpt>
      <trkpt lat="48.79699" lon="2.24371">
        <ele>163.8</ele>
        <time>2024-05-26T11:16:16Z</time>
      </trkpt>
      <trkpt lat="48.79698" lon="2.24371">
        <ele>164</ele>
        <time>2024-05-26T11:16:17Z</time>
      </trkpt>
      <trkpt lat="48.79698" lon="2.24372">
        <ele>164.1</ele>
        <time>2024-05-26T11:16:18Z</time>
      </trkpt>
      <trkpt lat="48.79698" lon="2.24372">
        <ele>164.1</ele>
        <time>2024-05-26T11:16:19Z</time>
      </trkpt>
      <trkpt lat="48.79698" lon="2.24372">
        <ele>164.2</ele>
        <time>2024-05-26T11:16:20Z</time>
      </trkpt>
      <trkpt lat="48.79697" lon="2.24372">
        <ele>164.2</ele>
        <time>2024-05-26T11:16:21Z</time>
      </trkpt>
      <trkpt lat="48.79697" lon="2.24372">
        <ele>164.2</ele>
        <time>2024-05-26T11:16:22Z</time>
      </trkpt>
      <trkpt lat="48.79697" lon="2.24372">
        <ele>164.2</ele>
        <time>2024-05-26T11:16:23Z</time>
      </trkpt>
      <trkpt lat="48.79697" lon="2.24372">
        <ele>164.2</ele>
        <time>2024-05-26T11:16:24Z</time>
      </trkpt>
      <trkpt lat="48.79697" lon="2.24372">
        <ele>164.2</ele>
        <time>2024-05-26T11:16:25Z</time>
      </trkpt>
      <trkpt lat="48.79697" lon="2.24372">
        <ele>164.3</ele>
        <time>2024-05-26T11:16:26Z</time>
      </trkpt>
      <trkpt lat="48.79697" lon="2.24372">
        <ele>164.3</ele>
        <time>2024-05-26T11:16:27Z</time>
      </trkpt>
      <trkpt lat="48.79697" lon="2.24372">
        <ele>164.3</ele>
        <time>2024-05-26T11:16:28Z</time>
      </trkpt>
      <trkpt lat="48.79697" lon="2.24372">
        <ele>164.3</ele>
        <time>2024-05-26T11:16:29Z</time>
      </trkpt>
      <trkpt lat="48.79697" lon="2.24372">
        <ele>164.4</ele>
        <time>2024-05-26T11:16:30Z</time>
      </trkpt>
      <trkpt lat="48.79697" lon="2.24372">
        <ele>164.4</ele>
        <time>2024-05-26T11:16:31Z</time>
      </trkpt>
      <trkpt lat="48.79697" lon="2.24372">
        <ele>164.4</ele>
        <time>2024-05-26T11:16:32Z</time>
      </trkpt>
      <trkpt lat="48.79697" lon="2.24372">
        <ele>164.4</ele>
        <time>2024-05-26T11:16:33Z</time>
      </trkpt>
      <trkpt lat="48.79696" lon="2.24372">
        <ele>164.4</ele>
        <time>2024-05-26T11:16:34Z</time>
      </trkpt>
      <trkpt lat="48.79696" lon="2.24372">
        <ele>164.4</ele>
        <time>2024-05-26T11:16:35Z</time>
      </trkpt>
      <trkpt lat="48.79696" lon="2.24372">
        <ele>164.5</ele>
        <time>2024-05-26T11:16:36Z</time>
      </trkpt>
      <trkpt lat="48.79696" lon="2.24372">
        <ele>164.5</ele>
        <time>2024-05-26T11:16:37Z</time>
      </trkpt>
      <trkpt lat="48.79696" lon="2.24372">
        <ele>164.5</ele>
        <time>2024-05-26T11:16:38Z</time>
      </trkpt>
      <trkpt lat="48.79696" lon="2.24372">
        <ele>164.5</ele>
        <time>2024-05-26T11:16:39Z</time>
      </trkpt>
      <trkpt lat="48.79696" lon="2.24372">
        <ele>164.5</ele>
        <time>2024-05-26T11:16:40Z</time>
      </trkpt>
      <trkpt lat="48.79696" lon="2.24372">
        <ele>164.5</ele>
        <time>2024-05-26T11:16:41Z</time>
      </trkpt>
      <trkpt lat="48.79696" lon="2.24372">
        <ele>164.5</ele>
        <time>2024-05-26T11:16:42Z</time>
      </trkpt>
      <trkpt lat="48.79696" lon="2.24372">
        <ele>164.5</ele>
        <time>2024-05-26T11:16:43Z</time>
      </trkpt>
      <trkpt lat="48.79696" lon="2.24372">
        <ele>164.6</ele>
        <time>2024-05-26T11:16:44Z</time>
      </trkpt>
      <trkpt lat="48.79696" lon="2.24372">
        <ele>164.6</ele>
        <time>2024-05-26T11:16:45Z</time>
      </trkpt>
      <trkpt lat="48.79696" lon="2.24372">
        <ele>164.6</ele>
        <time>2024-05-26T11:16:46Z</time>
      </trkpt>
      <trkpt lat="48.79696" lon="2.24372">
        <ele>164.6</ele>
        <time>2024-05-26T11:16:47Z</time>
      </trkpt>
      <trkpt lat="48.79696" lon="2.24372">
        <ele>164.6</ele>
        <time>2024-05-26T11:16:48Z</time>
      </trkpt>
      <trkpt lat="48.79696" lon="2.24372">
        <ele>164.6</ele>
        <time>2024-05-26T11:16:49Z</time>
      </trkpt>
      <trkpt lat="48.79696" lon="2.24372">
        <ele>164.6</ele>
        <time>2024-05-26T11:16:50Z</time>
      </trkpt>
      <trkpt lat="48.79696" lon="2.24372">
        <ele>164.6</ele>
        <time>2024-05-26T11:16:51Z</time>
      </trkpt>
      <trkpt lat="48.79696" lon="2.24372">
        <ele>164.6</ele>
        <time>2024-05-26T11:16:52Z</time>
      </trkpt>
      <trkpt lat="48.79696" lon="2.24372">
        <ele>164.6</ele>
        <time>2024-05-26T11:16:53Z</time>
      </trkpt>
      <trkpt lat="48.79696" lon="2.24372">
        <ele>164.6</ele>
        <time>2024-05-26T11:16:54Z</time>
      </trkpt>
      <trkpt lat="48.79696" lon="2.24372">
        <ele>164.6</ele>
        <time>2024-05-26T11:16:55Z</time>
      </trkpt>
      <trkpt lat="48.79696" lon="2.24372">
        <ele>164.6</ele>
        <time>2024-05-26T11:16:56Z</time>
      </trkpt>
      <trkpt lat="48.79696" lon="2.24372">
        <ele>164.6</ele>
        <time>2024-05-26T11:16:57Z</time>
      </trkpt>
      <trkpt lat="48.79696" lon="2.24372">
        <ele>164.6</ele>
        <time>2024-05-26T11:16:58Z</time>
      </trkpt>
      <trkpt lat="48.79696" lon="2.24372">
        <ele>164.6</ele>
        <time>2024-05-26T11:16:59Z</time>
      </trkpt>
      <trkpt lat="48.79696" lon="2.24372">
        <ele>164.6</ele>
        <time>2024-05-26T11:17:00Z</time>
      </trkpt>
      <trkpt lat="48.79696" lon="2.24372">
        <ele>164.6</ele>
        <time>2024-05-26T11:17:01Z</time>
      </trkpt>
      <trkpt lat="48.79696" lon="2.24372">
        <ele>164.6</ele>
        <time>2024-05-26T11:17:02Z</time>
      </trkpt>
      <trkpt lat="48.79696" lon="2.24372">
        <ele>164.6</ele>
        <time>2024-05-26T11:17:03Z</time>
      </trkpt>
      <trkpt lat="48.79696" lon="2.24372">
        <ele>164.6</ele>
        <time>2024-05-26T11:17:04Z</time>
      </trkpt>
      <trkpt lat="48.79696" lon="2.24372">
        <ele>164.6</ele>
        <time>2024-05-26T11:17:05Z</time>
      </trkpt>
      <trkpt lat="48.79696" lon="2.24372">
        <ele>164.6</ele>
        <time>2024-05-26T11:17:06Z</time>
      </trkpt>
      <trkpt lat="48.79696" lon="2.24372">
        <ele>164.6</ele>
        <time>2024-05-26T11:17:07Z</time>
      </trkpt>
      <trkpt lat="48.79696" lon="2.24372">
        <ele>164.6</ele>
        <time>2024-05-26T11:17:08Z</time>
      </trkpt>
      <trkpt lat="48.79696" lon="2.24372">
        <ele>164.6</ele>
        <time>2024-05-26T11:17:09Z</time>
      </trkpt>
      <trkpt lat="48.79695" lon="2.24372">
        <ele>164.7</ele>
        <time>2024-05-26T11:17:10Z</time>
      </trkpt>
      <trkpt lat="48.79695" lon="2.24372">
        <ele>164.7</ele>
        <time>2024-05-26T11:17:11Z</time>
      </trkpt>
      <trkpt lat="48.79695" lon="2.24372">
        <ele>164.7</ele>
        <time>2024-05-26T11:17:12Z</time>
      </trkpt>
      <trkpt lat="48.79695" lon="2.24372">
        <ele>164.7</ele>
        <time>2024-05-26T11:17:13Z</time>
      </trkpt>
      <trkpt lat="48.79695" lon="2.24372">
        <ele>164.7</ele>
        <time>2024-05-26T11:17:14Z</time>
      </trkpt>
      <trkpt lat="48.79695" lon="2.24372">
        <ele>164.7</ele>
        <time>2024-05-26T11:17:15Z</time>
      </trkpt>
      <trkpt lat="48.79695" lon="2.24372">
        <ele>164.7</ele>
        <time>2024-05-26T11:17:16Z</time>
      </trkpt>
      <trkpt lat="48.79695" lon="2.24372">
        <ele>164.7</ele>
        <time>2024-05-26T11:17:17Z</time>
      </trkpt>
      <trkpt lat="48.79695" lon="2.24372">
        <ele>164.7</ele>
        <time>2024-05-26T11:17:18Z</time>
      </trkpt>
      <trkpt lat="48.79695" lon="2.24372">
        <ele>164.7</ele>
        <time>2024-05-26T11:17:19Z</time>
      </trkpt>
      <trkpt lat="48.79695" lon="2.24372">
        <ele>164.7</ele>
        <time>2024-05-26T11:17:20Z</time>
      </trkpt>
      <trkpt lat="48.79695" lon="2.24372">
        <ele>164.7</ele>
        <time>2024-05-26T11:17:21Z</time>
      </trkpt>
      <trkpt lat="48.79695" lon="2.24372">
        <ele>164.7</ele>
        <time>2024-05-26T11:17:22Z</time>
      </trkpt>
      <trkpt lat="48.79695" lon="2.24372">
        <ele>164.7</ele>
        <time>2024-05-26T11:17:23Z</time>
      </trkpt>
      <trkpt lat="48.79695" lon="2.24372">
        <ele>164.7</ele>
        <time>2024-05-26T11:17:24Z</time>
      </trkpt>
      <trkpt lat="48.79695" lon="2.24372">
        <ele>164.7</ele>
        <time>2024-05-26T11:17:25Z</time>
      </trkpt>
      <trkpt lat="48.79695" lon="2.24372">
        <ele>164.8</ele>
        <time>2024-05-26T11:17:26Z</time>
      </trkpt>
      <trkpt lat="48.79695" lon="2.24372">
        <ele>164.8</ele>
        <time>2024-05-26T11:17:27Z</time>
      </trkpt>
      <trkpt lat="48.79695" lon="2.24372">
        <ele>164.8</ele>
        <time>2024-05-26T11:17:28Z</time>
      </trkpt>
      <trkpt lat="48.79695" lon="2.24372">
        <ele>164.8</ele>
        <time>2024-05-26T11:17:29Z</time>
      </trkpt>
      <trkpt lat="48.79695" lon="2.24372">
        <ele>164.8</ele>
        <time>2024-05-26T11:17:30Z</time>
      </trkpt>
      <trkpt lat="48.79695" lon="2.24372">
        <ele>164.8</ele>
        <time>2024-05-26T11:17:31Z</time>
      </trkpt>
      <trkpt lat="48.79695" lon="2.24372">
        <ele>164.8</ele>
        <time>2024-05-26T11:17:32Z</time>
      </trkpt>
      <trkpt lat="48.79695" lon="2.24372">
        <ele>164.8</ele>
        <time>2024-05-26T11:17:33Z</time>
      </trkpt>
      <trkpt lat="48.79695" lon="2.24373">
        <ele>164.8</ele>
        <time>2024-05-26T11:17:34Z</time>
      </trkpt>
      <trkpt lat="48.79695" lon="2.24373">
        <ele>164.8</ele>
        <time>2024-05-26T11:17:35Z</time>
      </trkpt>
      <trkpt lat="48.79695" lon="2.24372">
        <ele>164.8</ele>
        <time>2024-05-26T11:17:36Z</time>
      </trkpt>
      <trkpt lat="48.79695" lon="2.24372">
        <ele>164.8</ele>
        <time>2024-05-26T11:17:37Z</time>
      </trkpt>
      <trkpt lat="48.79695" lon="2.24372">
        <ele>164.8</ele>
        <time>2024-05-26T11:17:38Z</time>
      </trkpt>
      <trkpt lat="48.79695" lon="2.24372">
        <ele>164.8</ele>
        <time>2024-05-26T11:17:39Z</time>
      </trkpt>
      <trkpt lat="48.79695" lon="2.24372">
        <ele>164.8</ele>
        <time>2024-05-26T11:17:40Z</time>
      </trkpt>
      <trkpt lat="48.79695" lon="2.24372">
        <ele>164.8</ele>
        <time>2024-05-26T11:17:41Z</time>
      </trkpt>
      <trkpt lat="48.79695" lon="2.24372">
        <ele>164.8</ele>
        <time>2024-05-26T11:17:42Z</time>
      </trkpt>
      <trkpt lat="48.79695" lon="2.24372">
        <ele>164.8</ele>
        <time>2024-05-26T11:17:43Z</time>
      </trkpt>
      <trkpt lat="48.79695" lon="2.24372">
        <ele>164.8</ele>
        <time>2024-05-26T11:17:44Z</time>
      </trkpt>
      <trkpt lat="48.79695" lon="2.24373">
        <ele>164.8</ele>
        <time>2024-05-26T11:17:45Z</time>
      </trkpt>
      <trkpt lat="48.79695" lon="2.24373">
        <ele>164.8</ele>
        <time>2024-05-26T11:17:46Z</time>
      </trkpt>
      <trkpt lat="48.79695" lon="2.24373">
        <ele>164.8</ele>
        <time>2024-05-26T11:17:47Z</time>
      </trkpt>
      <trkpt lat="48.79695" lon="2.24373">
        <ele>164.8</ele>
        <time>2024-05-26T11:17:48Z</time>
      </trkpt>
      <trkpt lat="48.79695" lon="2.24372">
        <ele>164.8</ele>
        <time>2024-05-26T11:17:49Z</time>
      </trkpt>
      <trkpt lat="48.79695" lon="2.24372">
        <ele>164.8</ele>
        <time>2024-05-26T11:17:50Z</time>
      </trkpt>
      <trkpt lat="48.79695" lon="2.24372">
        <ele>164.8</ele>
        <time>2024-05-26T11:17:51Z</time>
      </trkpt>
      <trkpt lat="48.79695" lon="2.24372">
        <ele>164.8</ele>
        <time>2024-05-26T11:17:52Z</time>
      </trkpt>
      <trkpt lat="48.79695" lon="2.24372">
        <ele>164.8</ele>
        <time>2024-05-26T11:17:53Z</time>
      </trkpt>
      <trkpt lat="48.79695" lon="2.24372">
        <ele>164.8</ele>
        <time>2024-05-26T11:17:54Z</time>
      </trkpt>
      <trkpt lat="48.79695" lon="2.24372">
        <ele>164.8</ele>
        <time>2024-05-26T11:17:55Z</time>
      </trkpt>
      <trkpt lat="48.79695" lon="2.24372">
        <ele>164.8</ele>
        <time>2024-05-26T11:17:56Z</time>
      </trkpt>
      <trkpt lat="48.79695" lon="2.24372">
        <ele>164.8</ele>
        <time>2024-05-26T11:17:57Z</time>
      </trkpt>
      <trkpt lat="48.79695" lon="2.24372">
        <ele>164.8</ele>
        <time>2024-05-26T11:17:58Z</time>
      </trkpt>
      <trkpt lat="48.79695" lon="2.24372">
        <ele>164.8</ele>
        <time>2024-05-26T11:17:59Z</time>
      </trkpt>
      <trkpt lat="48.79695" lon="2.24372">
        <ele>164.8</ele>
        <time>2024-05-26T11:18:00Z</time>
      </trkpt>
      <trkpt lat="48.79695" lon="2.24372">
        <ele>164.8</ele>
        <time>2024-05-26T11:18:01Z</time>
      </trkpt>
      <trkpt lat="48.79695" lon="2.24372">
        <ele>164.8</ele>
        <time>2024-05-26T11:18:02Z</time>
      </trkpt>
      <trkpt lat="48.79695" lon="2.24372">
        <ele>164.8</ele>
        <time>2024-05-26T11:18:03Z</time>
      </trkpt>
      <trkpt lat="48.79694" lon="2.24372">
        <ele>164.8</ele>
        <time>2024-05-26T11:18:04Z</time>
      </trkpt>
      <trkpt lat="48.79695" lon="2.24372">
        <ele>164.8</ele>
        <time>2024-05-26T11:18:05Z</time>
      </trkpt>
      <trkpt lat="48.79694" lon="2.24372">
        <ele>164.8</ele>
        <time>2024-05-26T11:18:06Z</time>
      </trkpt>
      <trkpt lat="48.79694" lon="2.24372">
        <ele>164.8</ele>
        <time>2024-05-26T11:18:07Z</time>
      </trkpt>
      <trkpt lat="48.79694" lon="2.24372">
        <ele>164.8</ele>
        <time>2024-05-26T11:18:08Z</time>
      </trkpt>
      <trkpt lat="48.79694" lon="2.24372">
        <ele>164.8</ele>
        <time>2024-05-26T11:18:09Z</time>
      </trkpt>
      <trkpt lat="48.79694" lon="2.24372">
        <ele>164.8</ele>
        <time>2024-05-26T11:18:10Z</time>
      </trkpt>
      <trkpt lat="48.79694" lon="2.24372">
        <ele>164.8</ele>
        <time>2024-05-26T11:18:11Z</time>
      </trkpt>
      <trkpt lat="48.79694" lon="2.24372">
        <ele>164.8</ele>
        <time>2024-05-26T11:18:12Z</time>
      </trkpt>
      <trkpt lat="48.79694" lon="2.24372">
        <ele>164.8</ele>
        <time>2024-05-26T11:18:13Z</time>
      </trkpt>
      <trkpt lat="48.79694" lon="2.24372">
        <ele>164.8</ele>
        <time>2024-05-26T11:18:14Z</time>
      </trkpt>
      <trkpt lat="48.79694" lon="2.24372">
        <ele>164.8</ele>
        <time>2024-05-26T11:18:15Z</time>
      </trkpt>
      <trkpt lat="48.79694" lon="2.24372">
        <ele>164.8</ele>
        <time>2024-05-26T11:18:16Z</time>
      </trkpt>
      <trkpt lat="48.79694" lon="2.24372">
        <ele>164.8</ele>
        <time>2024-05-26T11:18:17Z</time>
      </trkpt>
      <trkpt lat="48.79694" lon="2.24372">
        <ele>164.8</ele>
        <time>2024-05-26T11:18:18Z</time>
      </trkpt>
      <trkpt lat="48.79694" lon="2.24372">
        <ele>164.8</ele>
        <time>2024-05-26T11:18:19Z</time>
      </trkpt>
      <trkpt lat="48.79694" lon="2.24372">
        <ele>164.8</ele>
        <time>2024-05-26T11:18:20Z</time>
      </trkpt>
      <trkpt lat="48.79694" lon="2.24372">
        <ele>164.8</ele>
        <time>2024-05-26T11:18:21Z</time>
      </trkpt>
      <trkpt lat="48.79694" lon="2.24372">
        <ele>164.8</ele>
        <time>2024-05-26T11:18:22Z</time>
      </trkpt>
      <trkpt lat="48.79694" lon="2.24372">
        <ele>164.8</ele>
        <time>2024-05-26T11:18:23Z</time>
      </trkpt>
      <trkpt lat="48.79694" lon="2.24372">
        <ele>164.8</ele>
        <time>2024-05-26T11:18:24Z</time>
      </trkpt>
      <trkpt lat="48.79694" lon="2.24372">
        <ele>164.8</ele>
        <time>2024-05-26T11:18:25Z</time>
      </trkpt>
      <trkpt lat="48.79694" lon="2.24372">
        <ele>164.8</ele>
        <time>2024-05-26T11:18:26Z</time>
      </trkpt>
      <trkpt lat="48.79694" lon="2.24372">
        <ele>164.8</ele>
        <time>2024-05-26T11:18:27Z</time>
      </trkpt>
      <trkpt lat="48.79694" lon="2.24372">
        <ele>164.8</ele>
        <time>2024-05-26T11:18:28Z</time>
      </trkpt>
      <trkpt lat="48.79694" lon="2.24372">
        <ele>164.8</ele>
        <time>2024-05-26T11:18:29Z</time>
      </trkpt>
      <trkpt lat="48.79694" lon="2.24372">
        <ele>164.8</ele>
        <time>2024-05-26T11:18:30Z</time>
      </trkpt>
      <trkpt lat="48.79694" lon="2.24372">
        <ele>164.8</ele>
        <time>2024-05-26T11:18:31Z</time>
      </trkpt>
      <trkpt lat="48.79694" lon="2.24372">
        <ele>164.8</ele>
        <time>2024-05-26T11:18:32Z</time>
      </trkpt>
      <trkpt lat="48.79695" lon="2.24372">
        <ele>164.9</ele>
        <time>2024-05-26T11:18:33Z</time>
      </trkpt>
      <trkpt lat="48.79695" lon="2.24371">
        <ele>164.9</ele>
        <time>2024-05-26T11:18:34Z</time>
      </trkpt>
      <trkpt lat="48.79696" lon="2.24371">
        <ele>164.9</ele>
        <time>2024-05-26T11:18:35Z</time>
      </trkpt>
      <trkpt lat="48.79697" lon="2.2437">
        <ele>164.9</ele>
        <time>2024-05-26T11:18:36Z</time>
      </trkpt>
      <trkpt lat="48.79697" lon="2.2437">
        <ele>164.9</ele>
        <time>2024-05-26T11:18:37Z</time>
      </trkpt>
      <trkpt lat="48.79698" lon="2.24369">
        <ele>164.9</ele>
        <time>2024-05-26T11:18:38Z</time>
      </trkpt>
      <trkpt lat="48.79698" lon="2.24369">
        <ele>164.9</ele>
        <time>2024-05-26T11:18:39Z</time>
      </trkpt>
      <trkpt lat="48.79698" lon="2.24368">
        <ele>164.9</ele>
        <time>2024-05-26T11:18:40Z</time>
      </trkpt>
      <trkpt lat="48.79699" lon="2.24368">
        <ele>164.9</ele>
        <time>2024-05-26T11:18:41Z</time>
      </trkpt>
      <trkpt lat="48.79699" lon="2.24368">
        <ele>164.9</ele>
        <time>2024-05-26T11:18:42Z</time>
      </trkpt>
      <trkpt lat="48.797" lon="2.24368">
        <ele>164.9</ele>
        <time>2024-05-26T11:18:43Z</time>
      </trkpt>
      <trkpt lat="48.79701" lon="2.24368">
        <ele>164.9</ele>
        <time>2024-05-26T11:18:44Z</time>
      </trkpt>
      <trkpt lat="48.79701" lon="2.24367">
        <ele>164.9</ele>
        <time>2024-05-26T11:18:45Z</time>
      </trkpt>
      <trkpt lat="48.79701" lon="2.24366">
        <ele>164.9</ele>
        <time>2024-05-26T11:18:46Z</time>
      </trkpt>
      <trkpt lat="48.79702" lon="2.24364">
        <ele>164.9</ele>
        <time>2024-05-26T11:18:47Z</time>
      </trkpt>
      <trkpt lat="48.79704" lon="2.2436">
        <ele>164.9</ele>
        <time>2024-05-26T11:18:48Z</time>
      </trkpt>
      <trkpt lat="48.79705" lon="2.24359">
        <ele>164.9</ele>
        <time>2024-05-26T11:18:49Z</time>
      </trkpt>
      <trkpt lat="48.79705" lon="2.24357">
        <ele>164.9</ele>
        <time>2024-05-26T11:18:50Z</time>
      </trkpt>
      <trkpt lat="48.79706" lon="2.24356">
        <ele>164.9</ele>
        <time>2024-05-26T11:18:51Z</time>
      </trkpt>
      <trkpt lat="48.79707" lon="2.24355">
        <ele>164.9</ele>
        <time>2024-05-26T11:18:52Z</time>
      </trkpt>
      <trkpt lat="48.79708" lon="2.24354">
        <ele>164.8</ele>
        <time>2024-05-26T11:18:53Z</time>
      </trkpt>
      <trkpt lat="48.79709" lon="2.24354">
        <ele>164.8</ele>
        <time>2024-05-26T11:18:54Z</time>
      </trkpt>
      <trkpt lat="48.7971" lon="2.24352">
        <ele>164.8</ele>
        <time>2024-05-26T11:18:55Z</time>
      </trkpt>
      <trkpt lat="48.79711" lon="2.24351">
        <ele>164.8</ele>
        <time>2024-05-26T11:18:56Z</time>
      </trkpt>
      <trkpt lat="48.79713" lon="2.2435">
        <ele>164.8</ele>
        <time>2024-05-26T11:18:57Z</time>
      </trkpt>
      <trkpt lat="48.79714" lon="2.24349">
        <ele>164.7</ele>
        <time>2024-05-26T11:18:58Z</time>
      </trkpt>
      <trkpt lat="48.79715" lon="2.24348">
        <ele>164.7</ele>
        <time>2024-05-26T11:18:59Z</time>
      </trkpt>
      <trkpt lat="48.79716" lon="2.24348">
        <ele>164.7</ele>
        <time>2024-05-26T11:19:00Z</time>
      </trkpt>
      <trkpt lat="48.79716" lon="2.24347">
        <ele>164.7</ele>
        <time>2024-05-26T11:19:01Z</time>
      </trkpt>
      <trkpt lat="48.79717" lon="2.24347">
        <ele>164.7</ele>
        <time>2024-05-26T11:19:02Z</time>
      </trkpt>
      <trkpt lat="48.79718" lon="2.24346">
        <ele>164.7</ele>
        <time>2024-05-26T11:19:03Z</time>
      </trkpt>
      <trkpt lat="48.79719" lon="2.24345">
        <ele>164.6</ele>
        <time>2024-05-26T11:19:04Z</time>
      </trkpt>
      <trkpt lat="48.7972" lon="2.24345">
        <ele>164.6</ele>
        <time>2024-05-26T11:19:05Z</time>
      </trkpt>
      <trkpt lat="48.79722" lon="2.24344">
        <ele>164.5</ele>
        <time>2024-05-26T11:19:06Z</time>
      </trkpt>
      <trkpt lat="48.79722" lon="2.24343">
        <ele>164.5</ele>
        <time>2024-05-26T11:19:07Z</time>
      </trkpt>
      <trkpt lat="48.79723" lon="2.24343">
        <ele>164.5</ele>
        <time>2024-05-26T11:19:08Z</time>
      </trkpt>
      <trkpt lat="48.79725" lon="2.24342">
        <ele>164.4</ele>
        <time>2024-05-26T11:19:09Z</time>
      </trkpt>
      <trkpt lat="48.79726" lon="2.24341">
        <ele>164.4</ele>
        <time>2024-05-26T11:19:10Z</time>
      </trkpt>
      <trkpt lat="48.79726" lon="2.24341">
        <ele>164.4</ele>
        <time>2024-05-26T11:19:11Z</time>
      </trkpt>
      <trkpt lat="48.79728" lon="2.24341">
        <ele>164.3</ele>
        <time>2024-05-26T11:19:12Z</time>
      </trkpt>
      <trkpt lat="48.79728" lon="2.2434">
        <ele>164.3</ele>
        <time>2024-05-26T11:19:13Z</time>
      </trkpt>
      <trkpt lat="48.79729" lon="2.2434">
        <ele>164.3</ele>
        <time>2024-05-26T11:19:14Z</time>
      </trkpt>
      <trkpt lat="48.7973" lon="2.2434">
        <ele>164.2</ele>
        <time>2024-05-26T11:19:15Z</time>
      </trkpt>
      <trkpt lat="48.79732" lon="2.24341">
        <ele>164.2</ele>
        <time>2024-05-26T11:19:16Z</time>
      </trkpt>
      <trkpt lat="48.79733" lon="2.2434">
        <ele>164.2</ele>
        <time>2024-05-26T11:19:17Z</time>
      </trkpt>
      <trkpt lat="48.79735" lon="2.2434">
        <ele>164.1</ele>
        <time>2024-05-26T11:19:18Z</time>
      </trkpt>
      <trkpt lat="48.79736" lon="2.2434">
        <ele>164.1</ele>
        <time>2024-05-26T11:19:19Z</time>
      </trkpt>
      <trkpt lat="48.79736" lon="2.2434">
        <ele>164</ele>
        <time>2024-05-26T11:19:20Z</time>
      </trkpt>
      <trkpt lat="48.79737" lon="2.2434">
        <ele>164</ele>
        <time>2024-05-26T11:19:21Z</time>
      </trkpt>
      <trkpt lat="48.79739" lon="2.24339">
        <ele>163.9</ele>
        <time>2024-05-26T11:19:22Z</time>
      </trkpt>
      <trkpt lat="48.79739" lon="2.24339">
        <ele>163.8</ele>
        <time>2024-05-26T11:19:23Z</time>
      </trkpt>
      <trkpt lat="48.7974" lon="2.24339">
        <ele>163.8</ele>
        <time>2024-05-26T11:19:24Z</time>
      </trkpt>
      <trkpt lat="48.79741" lon="2.24338">
        <ele>163.8</ele>
        <time>2024-05-26T11:19:25Z</time>
      </trkpt>
      <trkpt lat="48.79742" lon="2.24337">
        <ele>163.7</ele>
        <time>2024-05-26T11:19:26Z</time>
      </trkpt>
      <trkpt lat="48.79743" lon="2.24336">
        <ele>163.6</ele>
        <time>2024-05-26T11:19:27Z</time>
      </trkpt>
      <trkpt lat="48.79743" lon="2.24336">
        <ele>163.6</ele>
        <time>2024-05-26T11:19:28Z</time>
      </trkpt>
      <trkpt lat="48.79744" lon="2.24335">
        <ele>163.5</ele>
        <time>2024-05-26T11:19:29Z</time>
      </trkpt>
      <trkpt lat="48.79746" lon="2.24335">
        <ele>163.4</ele>
        <time>2024-05-26T11:19:30Z</time>
      </trkpt>
      <trkpt lat="48.79747" lon="2.24335">
        <ele>163.3</ele>
        <time>2024-05-26T11:19:31Z</time>
      </trkpt>
      <trkpt lat="48.79748" lon="2.24334">
        <ele>163.3</ele>
        <time>2024-05-26T11:19:32Z</time>
      </trkpt>
      <trkpt lat="48.7975" lon="2.24335">
        <ele>163.2</ele>
        <time>2024-05-26T11:19:33Z</time>
      </trkpt>
      <trkpt lat="48.79751" lon="2.24335">
        <ele>163.1</ele>
        <time>2024-05-26T11:19:34Z</time>
      </trkpt>
      <trkpt lat="48.79752" lon="2.24333">
        <ele>163</ele>
        <time>2024-05-26T11:19:35Z</time>
      </trkpt>
      <trkpt lat="48.79753" lon="2.24332">
        <ele>162.9</ele>
        <time>2024-05-26T11:19:36Z</time>
      </trkpt>
      <trkpt lat="48.79754" lon="2.24332">
        <ele>162.9</ele>
        <time>2024-05-26T11:19:37Z</time>
      </trkpt>
      <trkpt lat="48.79755" lon="2.24332">
        <ele>162.8</ele>
        <time>2024-05-26T11:19:38Z</time>
      </trkpt>
      <trkpt lat="48.79755" lon="2.24332">
        <ele>162.8</ele>
        <time>2024-05-26T11:19:39Z</time>
      </trkpt>
      <trkpt lat="48.79758" lon="2.24333">
        <ele>162.6</ele>
        <time>2024-05-26T11:19:40Z</time>
      </trkpt>
      <trkpt lat="48.79759" lon="2.24333">
        <ele>162.5</ele>
        <time>2024-05-26T11:19:41Z</time>
      </trkpt>
      <trkpt lat="48.7976" lon="2.24333">
        <ele>162.5</ele>
        <time>2024-05-26T11:19:42Z</time>
      </trkpt>
      <trkpt lat="48.79762" lon="2.24334">
        <ele>162.4</ele>
        <time>2024-05-26T11:19:43Z</time>
      </trkpt>
      <trkpt lat="48.79763" lon="2.24334">
        <ele>162.3</ele>
        <time>2024-05-26T11:19:44Z</time>
      </trkpt>
      <trkpt lat="48.79764" lon="2.24335">
        <ele>162.3</ele>
        <time>2024-05-26T11:19:45Z</time>
      </trkpt>
      <trkpt lat="48.79764" lon="2.24335">
        <ele>162.2</ele>
        <time>2024-05-26T11:19:46Z</time>
      </trkpt>
      <trkpt lat="48.79764" lon="2.24335">
        <ele>162.2</ele>
        <time>2024-05-26T11:19:47Z</time>
      </trkpt>
      <trkpt lat="48.79765" lon="2.24335">
        <ele>162.2</ele>
        <time>2024-05-26T11:19:48Z</time>
      </trkpt>
      <trkpt lat="48.79765" lon="2.24335">
        <ele>162.2</ele>
        <time>2024-05-26T11:19:49Z</time>
      </trkpt>
      <trkpt lat="48.79766" lon="2.24335">
        <ele>162.1</ele>
        <time>2024-05-26T11:19:50Z</time>
      </trkpt>
      <trkpt lat="48.79769" lon="2.24336">
        <ele>162</ele>
        <time>2024-05-26T11:19:51Z</time>
      </trkpt>
      <trkpt lat="48.7977" lon="2.24336">
        <ele>161.9</ele>
        <time>2024-05-26T11:19:52Z</time>
      </trkpt>
      <trkpt lat="48.79771" lon="2.24338">
        <ele>161.9</ele>
        <time>2024-05-26T11:19:53Z</time>
      </trkpt>
      <trkpt lat="48.79773" lon="2.24338">
        <ele>161.8</ele>
        <time>2024-05-26T11:19:54Z</time>
      </trkpt>
      <trkpt lat="48.79775" lon="2.2434">
        <ele>161.7</ele>
        <time>2024-05-26T11:19:55Z</time>
      </trkpt>
      <trkpt lat="48.79776" lon="2.2434">
        <ele>161.7</ele>
        <time>2024-05-26T11:19:56Z</time>
      </trkpt>
      <trkpt lat="48.79776" lon="2.2434">
        <ele>161.7</ele>
        <time>2024-05-26T11:19:57Z</time>
      </trkpt>
      <trkpt lat="48.79778" lon="2.24343">
        <ele>161.6</ele>
        <time>2024-05-26T11:19:58Z</time>
      </trkpt>
      <trkpt lat="48.79779" lon="2.24344">
        <ele>161.6</ele>
        <time>2024-05-26T11:19:59Z</time>
      </trkpt>
      <trkpt lat="48.7978" lon="2.24345">
        <ele>161.6</ele>
        <time>2024-05-26T11:20:00Z</time>
      </trkpt>
      <trkpt lat="48.79781" lon="2.24346">
        <ele>161.6</ele>
        <time>2024-05-26T11:20:01Z</time>
      </trkpt>
      <trkpt lat="48.79782" lon="2.24348">
        <ele>161.5</ele>
        <time>2024-05-26T11:20:02Z</time>
      </trkpt>
      <trkpt lat="48.79784" lon="2.24349">
        <ele>161.5</ele>
        <time>2024-05-26T11:20:03Z</time>
      </trkpt>
      <trkpt lat="48.79784" lon="2.2435">
        <ele>161.5</ele>
        <time>2024-05-26T11:20:04Z</time>
      </trkpt>
      <trkpt lat="48.79785" lon="2.2435">
        <ele>161.5</ele>
        <time>2024-05-26T11:20:05Z</time>
      </trkpt>
      <trkpt lat="48.79786" lon="2.24352">
        <ele>161.5</ele>
        <time>2024-05-26T11:20:06Z</time>
      </trkpt>
      <trkpt lat="48.79787" lon="2.24353">
        <ele>161.5</ele>
        <time>2024-05-26T11:20:07Z</time>
      </trkpt>
      <trkpt lat="48.79787" lon="2.24354">
        <ele>161.5</ele>
        <time>2024-05-26T11:20:08Z</time>
      </trkpt>
      <trkpt lat="48.79788" lon="2.24356">
        <ele>161.5</ele>
        <time>2024-05-26T11:20:09Z</time>
      </trkpt>
      <trkpt lat="48.79788" lon="2.24357">
        <ele>161.5</ele>
        <time>2024-05-26T11:20:10Z</time>
      </trkpt>
      <trkpt lat="48.79789" lon="2.24358">
        <ele>161.5</ele>
        <time>2024-05-26T11:20:11Z</time>
      </trkpt>
      <trkpt lat="48.7979" lon="2.24358">
        <ele>161.5</ele>
        <time>2024-05-26T11:20:12Z</time>
      </trkpt>
      <trkpt lat="48.7979" lon="2.24358">
        <ele>161.5</ele>
        <time>2024-05-26T11:20:13Z</time>
      </trkpt>
      <trkpt lat="48.79791" lon="2.24358">
        <ele>161.5</ele>
        <time>2024-05-26T11:20:14Z</time>
      </trkpt>
      <trkpt lat="48.79792" lon="2.24359">
        <ele>161.5</ele>
        <time>2024-05-26T11:20:15Z</time>
      </trkpt>
      <trkpt lat="48.79793" lon="2.24361">
        <ele>161.6</ele>
        <time>2024-05-26T11:20:16Z</time>
      </trkpt>
      <trkpt lat="48.79794" lon="2.24363">
        <ele>161.6</ele>
        <time>2024-05-26T11:20:17Z</time>
      </trkpt>
      <trkpt lat="48.79794" lon="2.24364">
        <ele>161.6</ele>
        <time>2024-05-26T11:20:18Z</time>
      </trkpt>
      <trkpt lat="48.79794" lon="2.24365">
        <ele>161.6</ele>
        <time>2024-05-26T11:20:19Z</time>
      </trkpt>
      <trkpt lat="48.79795" lon="2.24366">
        <ele>161.6</ele>
        <time>2024-05-26T11:20:20Z</time>
      </trkpt>
      <trkpt lat="48.79796" lon="2.24368">
        <ele>161.7</ele>
        <time>2024-05-26T11:20:21Z</time>
      </trkpt>
      <trkpt lat="48.79797" lon="2.24369">
        <ele>161.7</ele>
        <time>2024-05-26T11:20:22Z</time>
      </trkpt>
      <trkpt lat="48.79797" lon="2.2437">
        <ele>161.7</ele>
        <time>2024-05-26T11:20:23Z</time>
      </trkpt>
      <trkpt lat="48.79798" lon="2.24373">
        <ele>161.8</ele>
        <time>2024-05-26T11:20:24Z</time>
      </trkpt>
      <trkpt lat="48.79798" lon="2.24374">
        <ele>161.8</ele>
        <time>2024-05-26T11:20:25Z</time>
      </trkpt>
      <trkpt lat="48.79799" lon="2.24375">
        <ele>161.8</ele>
        <time>2024-05-26T11:20:26Z</time>
      </trkpt>
      <trkpt lat="48.79799" lon="2.24377">
        <ele>161.9</ele>
        <time>2024-05-26T11:20:27Z</time>
      </trkpt>
      <trkpt lat="48.798" lon="2.24378">
        <ele>161.9</ele>
        <time>2024-05-26T11:20:28Z</time>
      </trkpt>
      <trkpt lat="48.79801" lon="2.24379">
        <ele>161.9</ele>
        <time>2024-05-26T11:20:29Z</time>
      </trkpt>
      <trkpt lat="48.79802" lon="2.24381">
        <ele>162</ele>
        <time>2024-05-26T11:20:30Z</time>
      </trkpt>
      <trkpt lat="48.79803" lon="2.24382">
        <ele>162</ele>
        <time>2024-05-26T11:20:31Z</time>
      </trkpt>
      <trkpt lat="48.79805" lon="2.24384">
        <ele>162.1</ele>
        <time>2024-05-26T11:20:32Z</time>
      </trkpt>
      <trkpt lat="48.79805" lon="2.24385">
        <ele>162.1</ele>
        <time>2024-05-26T11:20:33Z</time>
      </trkpt>
      <trkpt lat="48.79806" lon="2.24386">
        <ele>162.1</ele>
        <time>2024-05-26T11:20:34Z</time>
      </trkpt>
      <trkpt lat="48.79807" lon="2.24388">
        <ele>162.2</ele>
        <time>2024-05-26T11:20:35Z</time>
      </trkpt>
      <trkpt lat="48.79808" lon="2.24389">
        <ele>162.2</ele>
        <time>2024-05-26T11:20:36Z</time>
      </trkpt>
      <trkpt lat="48.79808" lon="2.24391">
        <ele>162.3</ele>
        <time>2024-05-26T11:20:37Z</time>
      </trkpt>
      <trkpt lat="48.79808" lon="2.2439">
        <ele>162.3</ele>
        <time>2024-05-26T11:20:38Z</time>
      </trkpt>
      <trkpt lat="48.79809" lon="2.24391">
        <ele>162.3</ele>
        <time>2024-05-26T11:20:39Z</time>
      </trkpt>
      <trkpt lat="48.79811" lon="2.24392">
        <ele>162.4</ele>
        <time>2024-05-26T11:20:40Z</time>
      </trkpt>
      <trkpt lat="48.79812" lon="2.24393">
        <ele>162.4</ele>
        <time>2024-05-26T11:20:41Z</time>
      </trkpt>
      <trkpt lat="48.79813" lon="2.24394">
        <ele>162.5</ele>
        <time>2024-05-26T11:20:42Z</time>
      </trkpt>
      <trkpt lat="48.79813" lon="2.24396">
        <ele>162.5</ele>
        <time>2024-05-26T11:20:43Z</time>
      </trkpt>
      <trkpt lat="48.79815" lon="2.24396">
        <ele>162.5</ele>
        <time>2024-05-26T11:20:44Z</time>
      </trkpt>
      <trkpt lat="48.79816" lon="2.24398">
        <ele>162.6</ele>
        <time>2024-05-26T11:20:45Z</time>
      </trkpt>
      <trkpt lat="48.79817" lon="2.24398">
        <ele>162.6</ele>
        <time>2024-05-26T11:20:46Z</time>
      </trkpt>
      <trkpt lat="48.79818" lon="2.24399">
        <ele>162.7</ele>
        <time>2024-05-26T11:20:47Z</time>
      </trkpt>
      <trkpt lat="48.79819" lon="2.24399">
        <ele>162.7</ele>
        <time>2024-05-26T11:20:48Z</time>
      </trkpt>
      <trkpt lat="48.79819" lon="2.24401">
        <ele>162.7</ele>
        <time>2024-05-26T11:20:49Z</time>
      </trkpt>
      <trkpt lat="48.79819" lon="2.24402">
        <ele>162.8</ele>
        <time>2024-05-26T11:20:50Z</time>
      </trkpt>
      <trkpt lat="48.7982" lon="2.24403">
        <ele>162.8</ele>
        <time>2024-05-26T11:20:51Z</time>
      </trkpt>
      <trkpt lat="48.79821" lon="2.24403">
        <ele>162.9</ele>
        <time>2024-05-26T11:20:52Z</time>
      </trkpt>
      <trkpt lat="48.79822" lon="2.24403">
        <ele>162.9</ele>
        <time>2024-05-26T11:20:53Z</time>
      </trkpt>
      <trkpt lat="48.79822" lon="2.24404">
        <ele>162.9</ele>
        <time>2024-05-26T11:20:54Z</time>
      </trkpt>
      <trkpt lat="48.79823" lon="2.24405">
        <ele>163</ele>
        <time>2024-05-26T11:20:55Z</time>
      </trkpt>
      <trkpt lat="48.79823" lon="2.24406">
        <ele>163</ele>
        <time>2024-05-26T11:20:56Z</time>
      </trkpt>
      <trkpt lat="48.79824" lon="2.24408">
        <ele>163.1</ele>
        <time>2024-05-26T11:20:57Z</time>
      </trkpt>
      <trkpt lat="48.79825" lon="2.24409">
        <ele>163.1</ele>
        <time>2024-05-26T11:20:58Z</time>
      </trkpt>
      <trkpt lat="48.79826" lon="2.2441">
        <ele>163.1</ele>
        <time>2024-05-26T11:20:59Z</time>
      </trkpt>
      <trkpt lat="48.79827" lon="2.24412">
        <ele>163.2</ele>
        <time>2024-05-26T11:21:00Z</time>
      </trkpt>
      <trkpt lat="48.79828" lon="2.24414">
        <ele>163.3</ele>
        <time>2024-05-26T11:21:01Z</time>
      </trkpt>
      <trkpt lat="48.79828" lon="2.24415">
        <ele>163.3</ele>
        <time>2024-05-26T11:21:02Z</time>
      </trkpt>
      <trkpt lat="48.79828" lon="2.24416">
        <ele>163.4</ele>
        <time>2024-05-26T11:21:03Z</time>
      </trkpt>
      <trkpt lat="48.79829" lon="2.24418">
        <ele>163.5</ele>
        <time>2024-05-26T11:21:04Z</time>
      </trkpt>
      <trkpt lat="48.7983" lon="2.2442">
        <ele>163.5</ele>
        <time>2024-05-26T11:21:05Z</time>
      </trkpt>
      <trkpt lat="48.79831" lon="2.24421">
        <ele>163.6</ele>
        <time>2024-05-26T11:21:06Z</time>
      </trkpt>
      <trkpt lat="48.79831" lon="2.24422">
        <ele>163.7</ele>
        <time>2024-05-26T11:21:07Z</time>
      </trkpt>
      <trkpt lat="48.79833" lon="2.24425">
        <ele>163.8</ele>
        <time>2024-05-26T11:21:08Z</time>
      </trkpt>
      <trkpt lat="48.79833" lon="2.24426">
        <ele>163.9</ele>
        <time>2024-05-26T11:21:09Z</time>
      </trkpt>
      <trkpt lat="48.79833" lon="2.24427">
        <ele>163.9</ele>
        <time>2024-05-26T11:21:10Z</time>
      </trkpt>
      <trkpt lat="48.79834" lon="2.24429">
        <ele>164</ele>
        <time>2024-05-26T11:21:11Z</time>
      </trkpt>
      <trkpt lat="48.79834" lon="2.2443">
        <ele>164</ele>
        <time>2024-05-26T11:21:12Z</time>
      </trkpt>
      <trkpt lat="48.79834" lon="2.24431">
        <ele>164.1</ele>
        <time>2024-05-26T11:21:13Z</time>
      </trkpt>
      <trkpt lat="48.79836" lon="2.24436">
        <ele>164.3</ele>
        <time>2024-05-26T11:21:14Z</time>
      </trkpt>
      <trkpt lat="48.79836" lon="2.24439">
        <ele>164.5</ele>
        <time>2024-05-26T11:21:15Z</time>
      </trkpt>
      <trkpt lat="48.79838" lon="2.24442">
        <ele>164.7</ele>
        <time>2024-05-26T11:21:16Z</time>
      </trkpt>
      <trkpt lat="48.79838" lon="2.24444">
        <ele>164.7</ele>
        <time>2024-05-26T11:21:17Z</time>
      </trkpt>
      <trkpt lat="48.79839" lon="2.24448">
        <ele>164.9</ele>
        <time>2024-05-26T11:21:18Z</time>
      </trkpt>
      <trkpt lat="48.79839" lon="2.24449">
        <ele>165</ele>
        <time>2024-05-26T11:21:19Z</time>
      </trkpt>
      <trkpt lat="48.7984" lon="2.2445">
        <ele>165</ele>
        <time>2024-05-26T11:21:20Z</time>
      </trkpt>
      <trkpt lat="48.7984" lon="2.24453">
        <ele>165.1</ele>
        <time>2024-05-26T11:21:21Z</time>
      </trkpt>
      <trkpt lat="48.7984" lon="2.24454">
        <ele>165.2</ele>
        <time>2024-05-26T11:21:22Z</time>
      </trkpt>
      <trkpt lat="48.7984" lon="2.24455">
        <ele>165.2</ele>
        <time>2024-05-26T11:21:23Z</time>
      </trkpt>
      <trkpt lat="48.7984" lon="2.24458">
        <ele>165.3</ele>
        <time>2024-05-26T11:21:24Z</time>
      </trkpt>
      <trkpt lat="48.79841" lon="2.24459">
        <ele>165.4</ele>
        <time>2024-05-26T11:21:25Z</time>
      </trkpt>
      <trkpt lat="48.79841" lon="2.2446">
        <ele>165.5</ele>
        <time>2024-05-26T11:21:26Z</time>
      </trkpt>
      <trkpt lat="48.79841" lon="2.24462">
        <ele>165.6</ele>
        <time>2024-05-26T11:21:27Z</time>
      </trkpt>
      <trkpt lat="48.79841" lon="2.24465">
        <ele>165.6</ele>
        <time>2024-05-26T11:21:28Z</time>
      </trkpt>
      <trkpt lat="48.79841" lon="2.24467">
        <ele>165.8</ele>
        <time>2024-05-26T11:21:29Z</time>
      </trkpt>
      <trkpt lat="48.79841" lon="2.24468">
        <ele>165.8</ele>
        <time>2024-05-26T11:21:30Z</time>
      </trkpt>
      <trkpt lat="48.79841" lon="2.24469">
        <ele>165.8</ele>
        <time>2024-05-26T11:21:31Z</time>
      </trkpt>
      <trkpt lat="48.7984" lon="2.2447">
        <ele>165.9</ele>
        <time>2024-05-26T11:21:32Z</time>
      </trkpt>
      <trkpt lat="48.7984" lon="2.24471">
        <ele>165.9</ele>
        <time>2024-05-26T11:21:33Z</time>
      </trkpt>
      <trkpt lat="48.7984" lon="2.24473">
        <ele>166</ele>
        <time>2024-05-26T11:21:34Z</time>
      </trkpt>
      <trkpt lat="48.7984" lon="2.24474">
        <ele>166</ele>
        <time>2024-05-26T11:21:35Z</time>
      </trkpt>
      <trkpt lat="48.7984" lon="2.24475">
        <ele>166.1</ele>
        <time>2024-05-26T11:21:36Z</time>
      </trkpt>
      <trkpt lat="48.7984" lon="2.24477">
        <ele>166.1</ele>
        <time>2024-05-26T11:21:37Z</time>
      </trkpt>
      <trkpt lat="48.7984" lon="2.2448">
        <ele>166.2</ele>
        <time>2024-05-26T11:21:38Z</time>
      </trkpt>
      <trkpt lat="48.79841" lon="2.24481">
        <ele>166.3</ele>
        <time>2024-05-26T11:21:39Z</time>
      </trkpt>
      <trkpt lat="48.79842" lon="2.24482">
        <ele>166.4</ele>
        <time>2024-05-26T11:21:40Z</time>
      </trkpt>
      <trkpt lat="48.79842" lon="2.24483">
        <ele>166.4</ele>
        <time>2024-05-26T11:21:41Z</time>
      </trkpt>
      <trkpt lat="48.79842" lon="2.24484">
        <ele>166.4</ele>
        <time>2024-05-26T11:21:42Z</time>
      </trkpt>
      <trkpt lat="48.79843" lon="2.24485">
        <ele>166.4</ele>
        <time>2024-05-26T11:21:43Z</time>
      </trkpt>
      <trkpt lat="48.79843" lon="2.24486">
        <ele>166.5</ele>
        <time>2024-05-26T11:21:44Z</time>
      </trkpt>
      <trkpt lat="48.79843" lon="2.24488">
        <ele>166.5</ele>
        <time>2024-05-26T11:21:45Z</time>
      </trkpt>
      <trkpt lat="48.79843" lon="2.24489">
        <ele>166.6</ele>
        <time>2024-05-26T11:21:46Z</time>
      </trkpt>
      <trkpt lat="48.79843" lon="2.2449">
        <ele>166.6</ele>
        <time>2024-05-26T11:21:47Z</time>
      </trkpt>
      <trkpt lat="48.79843" lon="2.24493">
        <ele>166.7</ele>
        <time>2024-05-26T11:21:48Z</time>
      </trkpt>
      <trkpt lat="48.79843" lon="2.24496">
        <ele>166.8</ele>
        <time>2024-05-26T11:21:49Z</time>
      </trkpt>
      <trkpt lat="48.79844" lon="2.24497">
        <ele>166.8</ele>
        <time>2024-05-26T11:21:50Z</time>
      </trkpt>
      <trkpt lat="48.79844" lon="2.24498">
        <ele>166.8</ele>
        <time>2024-05-26T11:21:51Z</time>
      </trkpt>
      <trkpt lat="48.79844" lon="2.24502">
        <ele>166.9</ele>
        <time>2024-05-26T11:21:52Z</time>
      </trkpt>
      <trkpt lat="48.79844" lon="2.24504">
        <ele>166.9</ele>
        <time>2024-05-26T11:21:53Z</time>
      </trkpt>
      <trkpt lat="48.79844" lon="2.24506">
        <ele>167</ele>
        <time>2024-05-26T11:21:54Z</time>
      </trkpt>
      <trkpt lat="48.79844" lon="2.24506">
        <ele>167</ele>
        <time>2024-05-26T11:21:55Z</time>
      </trkpt>
      <trkpt lat="48.79844" lon="2.24507">
        <ele>167</ele>
        <time>2024-05-26T11:21:56Z</time>
      </trkpt>
      <trkpt lat="48.79845" lon="2.24509">
        <ele>167.1</ele>
        <time>2024-05-26T11:21:57Z</time>
      </trkpt>
      <trkpt lat="48.79847" lon="2.24512">
        <ele>167.1</ele>
        <time>2024-05-26T11:21:58Z</time>
      </trkpt>
      <trkpt lat="48.79848" lon="2.24513">
        <ele>167.2</ele>
        <time>2024-05-26T11:21:59Z</time>
      </trkpt>
      <trkpt lat="48.7985" lon="2.24514">
        <ele>167.2</ele>
        <time>2024-05-26T11:22:00Z</time>
      </trkpt>
      <trkpt lat="48.79851" lon="2.24516">
        <ele>167.2</ele>
        <time>2024-05-26T11:22:01Z</time>
      </trkpt>
      <trkpt lat="48.79853" lon="2.24521">
        <ele>167.3</ele>
        <time>2024-05-26T11:22:02Z</time>
      </trkpt>
      <trkpt lat="48.79853" lon="2.24522">
        <ele>167.3</ele>
        <time>2024-05-26T11:22:03Z</time>
      </trkpt>
      <trkpt lat="48.79853" lon="2.24523">
        <ele>167.3</ele>
        <time>2024-05-26T11:22:04Z</time>
      </trkpt>
      <trkpt lat="48.79854" lon="2.24525">
        <ele>167.3</ele>
        <time>2024-05-26T11:22:05Z</time>
      </trkpt>
      <trkpt lat="48.79856" lon="2.24526">
        <ele>167.3</ele>
        <time>2024-05-26T11:22:06Z</time>
      </trkpt>
      <trkpt lat="48.79857" lon="2.24526">
        <ele>167.3</ele>
        <time>2024-05-26T11:22:07Z</time>
      </trkpt>
      <trkpt lat="48.79858" lon="2.24526">
        <ele>167.3</ele>
        <time>2024-05-26T11:22:08Z</time>
      </trkpt>
      <trkpt lat="48.79859" lon="2.24526">
        <ele>167.2</ele>
        <time>2024-05-26T11:22:09Z</time>
      </trkpt>
      <trkpt lat="48.79861" lon="2.24525">
        <ele>167.2</ele>
        <time>2024-05-26T11:22:10Z</time>
      </trkpt>
      <trkpt lat="48.79862" lon="2.24525">
        <ele>167.2</ele>
        <time>2024-05-26T11:22:11Z</time>
      </trkpt>
      <trkpt lat="48.79863" lon="2.24525">
        <ele>167.2</ele>
        <time>2024-05-26T11:22:12Z</time>
      </trkpt>
      <trkpt lat="48.79864" lon="2.24525">
        <ele>167.2</ele>
        <time>2024-05-26T11:22:13Z</time>
      </trkpt>
      <trkpt lat="48.79865" lon="2.24526">
        <ele>167.1</ele>
        <time>2024-05-26T11:22:14Z</time>
      </trkpt>
      <trkpt lat="48.79866" lon="2.24527">
        <ele>167.1</ele>
        <time>2024-05-26T11:22:15Z</time>
      </trkpt>
      <trkpt lat="48.79867" lon="2.24528">
        <ele>167.1</ele>
        <time>2024-05-26T11:22:16Z</time>
      </trkpt>
      <trkpt lat="48.79869" lon="2.24529">
        <ele>167.1</ele>
        <time>2024-05-26T11:22:17Z</time>
      </trkpt>
      <trkpt lat="48.79869" lon="2.24529">
        <ele>167.1</ele>
        <time>2024-05-26T11:22:18Z</time>
      </trkpt>
      <trkpt lat="48.7987" lon="2.2453">
        <ele>167.1</ele>
        <time>2024-05-26T11:22:19Z</time>
      </trkpt>
      <trkpt lat="48.79871" lon="2.24532">
        <ele>167.1</ele>
        <time>2024-05-26T11:22:20Z</time>
      </trkpt>
      <trkpt lat="48.79871" lon="2.24533">
        <ele>167.1</ele>
        <time>2024-05-26T11:22:21Z</time>
      </trkpt>
      <trkpt lat="48.79872" lon="2.24535">
        <ele>167.1</ele>
        <time>2024-05-26T11:22:22Z</time>
      </trkpt>
      <trkpt lat="48.79873" lon="2.24535">
        <ele>167.1</ele>
        <time>2024-05-26T11:22:23Z</time>
      </trkpt>
      <trkpt lat="48.79873" lon="2.24535">
        <ele>167.1</ele>
        <time>2024-05-26T11:22:24Z</time>
      </trkpt>
      <trkpt lat="48.79874" lon="2.24534">
        <ele>167.1</ele>
        <time>2024-05-26T11:22:25Z</time>
      </trkpt>
      <trkpt lat="48.79874" lon="2.24534">
        <ele>167.1</ele>
        <time>2024-05-26T11:22:26Z</time>
      </trkpt>
      <trkpt lat="48.79874" lon="2.24534">
        <ele>167.1</ele>
        <time>2024-05-26T11:22:27Z</time>
      </trkpt>
      <trkpt lat="48.79875" lon="2.24535">
        <ele>167.1</ele>
        <time>2024-05-26T11:22:28Z</time>
      </trkpt>
      <trkpt lat="48.79876" lon="2.24537">
        <ele>167.1</ele>
        <time>2024-05-26T11:22:29Z</time>
      </trkpt>
      <trkpt lat="48.79876" lon="2.24537">
        <ele>167.1</ele>
        <time>2024-05-26T11:22:30Z</time>
      </trkpt>
      <trkpt lat="48.79876" lon="2.24537">
        <ele>167.1</ele>
        <time>2024-05-26T11:22:31Z</time>
      </trkpt>
      <trkpt lat="48.79876" lon="2.24538">
        <ele>167.1</ele>
        <time>2024-05-26T11:22:32Z</time>
      </trkpt>
      <trkpt lat="48.79877" lon="2.24539">
        <ele>167.1</ele>
        <time>2024-05-26T11:22:33Z</time>
      </trkpt>
      <trkpt lat="48.79878" lon="2.24541">
        <ele>167.1</ele>
        <time>2024-05-26T11:22:34Z</time>
      </trkpt>
      <trkpt lat="48.79879" lon="2.2454">
        <ele>167.1</ele>
        <time>2024-05-26T11:22:35Z</time>
      </trkpt>
      <trkpt lat="48.7988" lon="2.24541">
        <ele>167.1</ele>
        <time>2024-05-26T11:22:36Z</time>
      </trkpt>
      <trkpt lat="48.79881" lon="2.24541">
        <ele>167.1</ele>
        <time>2024-05-26T11:22:37Z</time>
      </trkpt>
      <trkpt lat="48.79882" lon="2.24543">
        <ele>167.1</ele>
        <time>2024-05-26T11:22:38Z</time>
      </trkpt>
      <trkpt lat="48.79883" lon="2.24544">
        <ele>167.1</ele>
        <time>2024-05-26T11:22:39Z</time>
      </trkpt>
      <trkpt lat="48.79883" lon="2.24545">
        <ele>167.1</ele>
        <time>2024-05-26T11:22:40Z</time>
      </trkpt>
      <trkpt lat="48.79884" lon="2.24546">
        <ele>167.1</ele>
        <time>2024-05-26T11:22:41Z</time>
      </trkpt>
      <trkpt lat="48.79885" lon="2.24547">
        <ele>167.1</ele>
        <time>2024-05-26T11:22:42Z</time>
      </trkpt>
      <trkpt lat="48.79886" lon="2.24547">
        <ele>167.1</ele>
        <time>2024-05-26T11:22:43Z</time>
      </trkpt>
      <trkpt lat="48.79887" lon="2.24548">
        <ele>167</ele>
        <time>2024-05-26T11:22:44Z</time>
      </trkpt>
      <trkpt lat="48.79888" lon="2.24549">
        <ele>167</ele>
        <time>2024-05-26T11:22:45Z</time>
      </trkpt>
      <trkpt lat="48.79889" lon="2.24549">
        <ele>167</ele>
        <time>2024-05-26T11:22:46Z</time>
      </trkpt>
      <trkpt lat="48.7989" lon="2.24551">
        <ele>167</ele>
        <time>2024-05-26T11:22:47Z</time>
      </trkpt>
      <trkpt lat="48.79891" lon="2.24552">
        <ele>167</ele>
        <time>2024-05-26T11:22:48Z</time>
      </trkpt>
      <trkpt lat="48.79891" lon="2.24553">
        <ele>167</ele>
        <time>2024-05-26T11:22:49Z</time>
      </trkpt>
      <trkpt lat="48.79892" lon="2.24554">
        <ele>167</ele>
        <time>2024-05-26T11:22:50Z</time>
      </trkpt>
      <trkpt lat="48.79894" lon="2.24556">
        <ele>167</ele>
        <time>2024-05-26T11:22:51Z</time>
      </trkpt>
      <trkpt lat="48.79895" lon="2.24556">
        <ele>167</ele>
        <time>2024-05-26T11:22:52Z</time>
      </trkpt>
      <trkpt lat="48.79896" lon="2.24557">
        <ele>166.9</ele>
        <time>2024-05-26T11:22:53Z</time>
      </trkpt>
      <trkpt lat="48.79897" lon="2.24559">
        <ele>166.9</ele>
        <time>2024-05-26T11:22:54Z</time>
      </trkpt>
      <trkpt lat="48.79898" lon="2.24561">
        <ele>166.9</ele>
        <time>2024-05-26T11:22:55Z</time>
      </trkpt>
      <trkpt lat="48.79899" lon="2.24562">
        <ele>166.9</ele>
        <time>2024-05-26T11:22:56Z</time>
      </trkpt>
      <trkpt lat="48.79899" lon="2.24562">
        <ele>166.9</ele>
        <time>2024-05-26T11:22:57Z</time>
      </trkpt>
      <trkpt lat="48.79901" lon="2.24563">
        <ele>166.9</ele>
        <time>2024-05-26T11:22:58Z</time>
      </trkpt>
      <trkpt lat="48.79902" lon="2.24564">
        <ele>166.9</ele>
        <time>2024-05-26T11:22:59Z</time>
      </trkpt>
      <trkpt lat="48.79903" lon="2.24564">
        <ele>166.9</ele>
        <time>2024-05-26T11:23:00Z</time>
      </trkpt>
      <trkpt lat="48.79903" lon="2.24565">
        <ele>166.9</ele>
        <time>2024-05-26T11:23:01Z</time>
      </trkpt>
      <trkpt lat="48.79905" lon="2.24566">
        <ele>166.9</ele>
        <time>2024-05-26T11:23:02Z</time>
      </trkpt>
      <trkpt lat="48.79906" lon="2.24567">
        <ele>166.9</ele>
        <time>2024-05-26T11:23:03Z</time>
      </trkpt>
      <trkpt lat="48.79907" lon="2.24566">
        <ele>166.8</ele>
        <time>2024-05-26T11:23:04Z</time>
      </trkpt>
      <trkpt lat="48.79908" lon="2.24566">
        <ele>166.8</ele>
        <time>2024-05-26T11:23:05Z</time>
      </trkpt>
      <trkpt lat="48.79908" lon="2.24566">
        <ele>166.8</ele>
        <time>2024-05-26T11:23:06Z</time>
      </trkpt>
      <trkpt lat="48.79909" lon="2.24566">
        <ele>166.8</ele>
        <time>2024-05-26T11:23:07Z</time>
      </trkpt>
      <trkpt lat="48.79911" lon="2.24566">
        <ele>166.8</ele>
        <time>2024-05-26T11:23:08Z</time>
      </trkpt>
      <trkpt lat="48.79912" lon="2.24566">
        <ele>166.8</ele>
        <time>2024-05-26T11:23:09Z</time>
      </trkpt>
      <trkpt lat="48.79913" lon="2.24566">
        <ele>166.8</ele>
        <time>2024-05-26T11:23:10Z</time>
      </trkpt>
      <trkpt lat="48.79915" lon="2.24568">
        <ele>166.8</ele>
        <time>2024-05-26T11:23:11Z</time>
      </trkpt>
      <trkpt lat="48.79917" lon="2.24568">
        <ele>166.8</ele>
        <time>2024-05-26T11:23:12Z</time>
      </trkpt>
      <trkpt lat="48.79918" lon="2.24568">
        <ele>166.8</ele>
        <time>2024-05-26T11:23:13Z</time>
      </trkpt>
      <trkpt lat="48.79919" lon="2.24569">
        <ele>166.8</ele>
        <time>2024-05-26T11:23:14Z</time>
      </trkpt>
      <trkpt lat="48.7992" lon="2.24569">
        <ele>166.8</ele>
        <time>2024-05-26T11:23:15Z</time>
      </trkpt>
      <trkpt lat="48.79922" lon="2.24571">
        <ele>166.8</ele>
        <time>2024-05-26T11:23:16Z</time>
      </trkpt>
      <trkpt lat="48.79924" lon="2.24573">
        <ele>166.8</ele>
        <time>2024-05-26T11:23:17Z</time>
      </trkpt>
      <trkpt lat="48.79925" lon="2.24573">
        <ele>166.8</ele>
        <time>2024-05-26T11:23:18Z</time>
      </trkpt>
      <trkpt lat="48.79926" lon="2.24573">
        <ele>166.8</ele>
        <time>2024-05-26T11:23:19Z</time>
      </trkpt>
      <trkpt lat="48.79927" lon="2.24573">
        <ele>166.8</ele>
        <time>2024-05-26T11:23:20Z</time>
      </trkpt>
      <trkpt lat="48.79928" lon="2.24573">
        <ele>166.8</ele>
        <time>2024-05-26T11:23:21Z</time>
      </trkpt>
      <trkpt lat="48.79929" lon="2.24573">
        <ele>166.8</ele>
        <time>2024-05-26T11:23:22Z</time>
      </trkpt>
      <trkpt lat="48.79929" lon="2.24574">
        <ele>166.8</ele>
        <time>2024-05-26T11:23:23Z</time>
      </trkpt>
      <trkpt lat="48.7993" lon="2.24575">
        <ele>166.8</ele>
        <time>2024-05-26T11:23:24Z</time>
      </trkpt>
      <trkpt lat="48.79932" lon="2.24575">
        <ele>166.8</ele>
        <time>2024-05-26T11:23:25Z</time>
      </trkpt>
      <trkpt lat="48.79933" lon="2.24576">
        <ele>166.8</ele>
        <time>2024-05-26T11:23:26Z</time>
      </trkpt>
      <trkpt lat="48.79934" lon="2.24575">
        <ele>166.8</ele>
        <time>2024-05-26T11:23:27Z</time>
      </trkpt>
      <trkpt lat="48.79935" lon="2.24575">
        <ele>166.8</ele>
        <time>2024-05-26T11:23:28Z</time>
      </trkpt>
      <trkpt lat="48.79936" lon="2.24575">
        <ele>166.8</ele>
        <time>2024-05-26T11:23:29Z</time>
      </trkpt>
      <trkpt lat="48.79936" lon="2.24575">
        <ele>166.8</ele>
        <time>2024-05-26T11:23:30Z</time>
      </trkpt>
      <trkpt lat="48.79938" lon="2.24574">
        <ele>166.8</ele>
        <time>2024-05-26T11:23:31Z</time>
      </trkpt>
      <trkpt lat="48.79939" lon="2.24574">
        <ele>166.8</ele>
        <time>2024-05-26T11:23:32Z</time>
      </trkpt>
      <trkpt lat="48.7994" lon="2.24574">
        <ele>166.8</ele>
        <time>2024-05-26T11:23:33Z</time>
      </trkpt>
      <trkpt lat="48.79941" lon="2.24573">
        <ele>166.8</ele>
        <time>2024-05-26T11:23:34Z</time>
      </trkpt>
      <trkpt lat="48.79943" lon="2.24574">
        <ele>166.8</ele>
        <time>2024-05-26T11:23:35Z</time>
      </trkpt>
      <trkpt lat="48.79944" lon="2.24574">
        <ele>166.8</ele>
        <time>2024-05-26T11:23:36Z</time>
      </trkpt>
      <trkpt lat="48.79945" lon="2.24574">
        <ele>166.8</ele>
        <time>2024-05-26T11:23:37Z</time>
      </trkpt>
      <trkpt lat="48.79947" lon="2.24573">
        <ele>166.8</ele>
        <time>2024-05-26T11:23:38Z</time>
      </trkpt>
      <trkpt lat="48.79948" lon="2.24573">
        <ele>166.9</ele>
        <time>2024-05-26T11:23:39Z</time>
      </trkpt>
      <trkpt lat="48.79949" lon="2.24573">
        <ele>166.9</ele>
        <time>2024-05-26T11:23:40Z</time>
      </trkpt>
      <trkpt lat="48.79951" lon="2.24574">
        <ele>166.9</ele>
        <time>2024-05-26T11:23:41Z</time>
      </trkpt>
      <trkpt lat="48.79952" lon="2.24574">
        <ele>166.9</ele>
        <time>2024-05-26T11:23:42Z</time>
      </trkpt>
      <trkpt lat="48.79952" lon="2.24575">
        <ele>166.9</ele>
        <time>2024-05-26T11:23:43Z</time>
      </trkpt>
      <trkpt lat="48.79954" lon="2.24576">
        <ele>167</ele>
        <time>2024-05-26T11:23:44Z</time>
      </trkpt>
      <trkpt lat="48.79955" lon="2.24577">
        <ele>167</ele>
        <time>2024-05-26T11:23:45Z</time>
      </trkpt>
      <trkpt lat="48.79956" lon="2.24577">
        <ele>167</ele>
        <time>2024-05-26T11:23:46Z</time>
      </trkpt>
      <trkpt lat="48.79958" lon="2.24578">
        <ele>167</ele>
        <time>2024-05-26T11:23:47Z</time>
      </trkpt>
      <trkpt lat="48.79959" lon="2.24579">
        <ele>167.1</ele>
        <time>2024-05-26T11:23:48Z</time>
      </trkpt>
      <trkpt lat="48.7996" lon="2.24579">
        <ele>167.1</ele>
        <time>2024-05-26T11:23:49Z</time>
      </trkpt>
      <trkpt lat="48.79961" lon="2.2458">
        <ele>167.1</ele>
        <time>2024-05-26T11:23:50Z</time>
      </trkpt>
      <trkpt lat="48.79962" lon="2.24581">
        <ele>167.1</ele>
        <time>2024-05-26T11:23:51Z</time>
      </trkpt>
      <trkpt lat="48.79964" lon="2.24582">
        <ele>167.1</ele>
        <time>2024-05-26T11:23:52Z</time>
      </trkpt>
      <trkpt lat="48.79965" lon="2.24583">
        <ele>167.2</ele>
        <time>2024-05-26T11:23:53Z</time>
      </trkpt>
      <trkpt lat="48.79965" lon="2.24583">
        <ele>167.2</ele>
        <time>2024-05-26T11:23:54Z</time>
      </trkpt>
      <trkpt lat="48.79967" lon="2.24584">
        <ele>167.2</ele>
        <time>2024-05-26T11:23:55Z</time>
      </trkpt>
      <trkpt lat="48.79967" lon="2.24584">
        <ele>167.2</ele>
        <time>2024-05-26T11:23:56Z</time>
      </trkpt>
      <trkpt lat="48.79968" lon="2.24585">
        <ele>167.2</ele>
        <time>2024-05-26T11:23:57Z</time>
      </trkpt>
      <trkpt lat="48.79969" lon="2.24587">
        <ele>167.3</ele>
        <time>2024-05-26T11:23:58Z</time>
      </trkpt>
      <trkpt lat="48.7997" lon="2.24588">
        <ele>167.3</ele>
        <time>2024-05-26T11:23:59Z</time>
      </trkpt>
      <trkpt lat="48.79972" lon="2.24589">
        <ele>167.3</ele>
        <time>2024-05-26T11:24:00Z</time>
      </trkpt>
      <trkpt lat="48.79973" lon="2.2459">
        <ele>167.3</ele>
        <time>2024-05-26T11:24:01Z</time>
      </trkpt>
      <trkpt lat="48.79973" lon="2.24591">
        <ele>167.3</ele>
        <time>2024-05-26T11:24:02Z</time>
      </trkpt>
      <trkpt lat="48.79973" lon="2.24591">
        <ele>167.3</ele>
        <time>2024-05-26T11:24:03Z</time>
      </trkpt>
      <trkpt lat="48.79975" lon="2.2459">
        <ele>167.3</ele>
        <time>2024-05-26T11:24:04Z</time>
      </trkpt>
      <trkpt lat="48.79977" lon="2.2459">
        <ele>167.4</ele>
        <time>2024-05-26T11:24:05Z</time>
      </trkpt>
      <trkpt lat="48.79977" lon="2.24588">
        <ele>167.4</ele>
        <time>2024-05-26T11:24:06Z</time>
      </trkpt>
      <trkpt lat="48.79979" lon="2.24588">
        <ele>167.4</ele>
        <time>2024-05-26T11:24:07Z</time>
      </trkpt>
      <trkpt lat="48.7998" lon="2.24589">
        <ele>167.4</ele>
        <time>2024-05-26T11:24:08Z</time>
      </trkpt>
      <trkpt lat="48.79982" lon="2.24589">
        <ele>167.4</ele>
        <time>2024-05-26T11:24:09Z</time>
      </trkpt>
      <trkpt lat="48.79983" lon="2.24589">
        <ele>167.4</ele>
        <time>2024-05-26T11:24:10Z</time>
      </trkpt>
      <trkpt lat="48.79985" lon="2.24587">
        <ele>167.5</ele>
        <time>2024-05-26T11:24:11Z</time>
      </trkpt>
      <trkpt lat="48.79986" lon="2.24588">
        <ele>167.5</ele>
        <time>2024-05-26T11:24:12Z</time>
      </trkpt>
      <trkpt lat="48.79987" lon="2.24589">
        <ele>167.5</ele>
        <time>2024-05-26T11:24:13Z</time>
      </trkpt>
      <trkpt lat="48.79988" lon="2.2459">
        <ele>167.5</ele>
        <time>2024-05-26T11:24:14Z</time>
      </trkpt>
      <trkpt lat="48.79988" lon="2.2459">
        <ele>167.5</ele>
        <time>2024-05-26T11:24:15Z</time>
      </trkpt>
      <trkpt lat="48.79989" lon="2.24589">
        <ele>167.5</ele>
        <time>2024-05-26T11:24:16Z</time>
      </trkpt>
      <trkpt lat="48.7999" lon="2.24588">
        <ele>167.5</ele>
        <time>2024-05-26T11:24:17Z</time>
      </trkpt>
      <trkpt lat="48.79992" lon="2.24588">
        <ele>167.5</ele>
        <time>2024-05-26T11:24:18Z</time>
      </trkpt>
      <trkpt lat="48.79993" lon="2.24587">
        <ele>167.5</ele>
        <time>2024-05-26T11:24:19Z</time>
      </trkpt>
      <trkpt lat="48.79993" lon="2.24587">
        <ele>167.5</ele>
        <time>2024-05-26T11:24:20Z</time>
      </trkpt>
      <trkpt lat="48.79994" lon="2.24586">
        <ele>167.5</ele>
        <time>2024-05-26T11:24:21Z</time>
      </trkpt>
      <trkpt lat="48.79995" lon="2.24586">
        <ele>167.5</ele>
        <time>2024-05-26T11:24:22Z</time>
      </trkpt>
      <trkpt lat="48.79995" lon="2.24586">
        <ele>167.5</ele>
        <time>2024-05-26T11:24:23Z</time>
      </trkpt>
      <trkpt lat="48.79997" lon="2.24586">
        <ele>167.5</ele>
        <time>2024-05-26T11:24:24Z</time>
      </trkpt>
      <trkpt lat="48.79998" lon="2.24585">
        <ele>167.5</ele>
        <time>2024-05-26T11:24:25Z</time>
      </trkpt>
      <trkpt lat="48.8" lon="2.24586">
        <ele>167.5</ele>
        <time>2024-05-26T11:24:26Z</time>
      </trkpt>
      <trkpt lat="48.80001" lon="2.24586">
        <ele>167.5</ele>
        <time>2024-05-26T11:24:27Z</time>
      </trkpt>
      <trkpt lat="48.80003" lon="2.24587">
        <ele>167.5</ele>
        <time>2024-05-26T11:24:28Z</time>
      </trkpt>
      <trkpt lat="48.80003" lon="2.24586">
        <ele>167.5</ele>
        <time>2024-05-26T11:24:29Z</time>
      </trkpt>
      <trkpt lat="48.80004" lon="2.24586">
        <ele>167.5</ele>
        <time>2024-05-26T11:24:30Z</time>
      </trkpt>
      <trkpt lat="48.80006" lon="2.24587">
        <ele>167.5</ele>
        <time>2024-05-26T11:24:31Z</time>
      </trkpt>
      <trkpt lat="48.80007" lon="2.24587">
        <ele>167.5</ele>
        <time>2024-05-26T11:24:32Z</time>
      </trkpt>
      <trkpt lat="48.80009" lon="2.24587">
        <ele>167.5</ele>
        <time>2024-05-26T11:24:33Z</time>
      </trkpt>
      <trkpt lat="48.8001" lon="2.24588">
        <ele>167.5</ele>
        <time>2024-05-26T11:24:34Z</time>
      </trkpt>
      <trkpt lat="48.8001" lon="2.24588">
        <ele>167.5</ele>
        <time>2024-05-26T11:24:35Z</time>
      </trkpt>
      <trkpt lat="48.80012" lon="2.24589">
        <ele>167.5</ele>
        <time>2024-05-26T11:24:36Z</time>
      </trkpt>
      <trkpt lat="48.80013" lon="2.24589">
        <ele>167.5</ele>
        <time>2024-05-26T11:24:37Z</time>
      </trkpt>
      <trkpt lat="48.80014" lon="2.24589">
        <ele>167.5</ele>
        <time>2024-05-26T11:24:38Z</time>
      </trkpt>
      <trkpt lat="48.80015" lon="2.24589">
        <ele>167.5</ele>
        <time>2024-05-26T11:24:39Z</time>
      </trkpt>
      <trkpt lat="48.80016" lon="2.2459">
        <ele>167.5</ele>
        <time>2024-05-26T11:24:40Z</time>
      </trkpt>
      <trkpt lat="48.80017" lon="2.24591">
        <ele>167.5</ele>
        <time>2024-05-26T11:24:41Z</time>
      </trkpt>
      <trkpt lat="48.80018" lon="2.24591">
        <ele>167.5</ele>
        <time>2024-05-26T11:24:42Z</time>
      </trkpt>
      <trkpt lat="48.8002" lon="2.24592">
        <ele>167.5</ele>
        <time>2024-05-26T11:24:43Z</time>
      </trkpt>
      <trkpt lat="48.80021" lon="2.24593">
        <ele>167.5</ele>
        <time>2024-05-26T11:24:44Z</time>
      </trkpt>
      <trkpt lat="48.80022" lon="2.24593">
        <ele>167.5</ele>
        <time>2024-05-26T11:24:45Z</time>
      </trkpt>
      <trkpt lat="48.80023" lon="2.24593">
        <ele>167.5</ele>
        <time>2024-05-26T11:24:46Z</time>
      </trkpt>
      <trkpt lat="48.80025" lon="2.24594">
        <ele>167.5</ele>
        <time>2024-05-26T11:24:47Z</time>
      </trkpt>
      <trkpt lat="48.80026" lon="2.24595">
        <ele>167.5</ele>
        <time>2024-05-26T11:24:48Z</time>
      </trkpt>
      <trkpt lat="48.80026" lon="2.24595">
        <ele>167.5</ele>
        <time>2024-05-26T11:24:49Z</time>
      </trkpt>
      <trkpt lat="48.80028" lon="2.24596">
        <ele>167.5</ele>
        <time>2024-05-26T11:24:50Z</time>
      </trkpt>
      <trkpt lat="48.80029" lon="2.24597">
        <ele>167.5</ele>
        <time>2024-05-26T11:24:51Z</time>
      </trkpt>
      <trkpt lat="48.8003" lon="2.24597">
        <ele>167.5</ele>
        <time>2024-05-26T11:24:52Z</time>
      </trkpt>
      <trkpt lat="48.80031" lon="2.24598">
        <ele>167.5</ele>
        <time>2024-05-26T11:24:53Z</time>
      </trkpt>
      <trkpt lat="48.80032" lon="2.24599">
        <ele>167.5</ele>
        <time>2024-05-26T11:24:54Z</time>
      </trkpt>
      <trkpt lat="48.80033" lon="2.246">
        <ele>167.5</ele>
        <time>2024-05-26T11:24:55Z</time>
      </trkpt>
      <trkpt lat="48.80035" lon="2.24601">
        <ele>167.5</ele>
        <time>2024-05-26T11:24:56Z</time>
      </trkpt>
      <trkpt lat="48.80036" lon="2.24601">
        <ele>167.5</ele>
        <time>2024-05-26T11:24:57Z</time>
      </trkpt>
      <trkpt lat="48.80038" lon="2.24602">
        <ele>167.5</ele>
        <time>2024-05-26T11:24:58Z</time>
      </trkpt>
      <trkpt lat="48.80039" lon="2.24604">
        <ele>167.5</ele>
        <time>2024-05-26T11:24:59Z</time>
      </trkpt>
      <trkpt lat="48.8004" lon="2.24604">
        <ele>167.5</ele>
        <time>2024-05-26T11:25:00Z</time>
      </trkpt>
      <trkpt lat="48.80041" lon="2.24604">
        <ele>167.5</ele>
        <time>2024-05-26T11:25:01Z</time>
      </trkpt>
      <trkpt lat="48.80041" lon="2.24605">
        <ele>167.5</ele>
        <time>2024-05-26T11:25:02Z</time>
      </trkpt>
      <trkpt lat="48.80042" lon="2.24605">
        <ele>167.5</ele>
        <time>2024-05-26T11:25:03Z</time>
      </trkpt>
      <trkpt lat="48.80042" lon="2.24605">
        <ele>167.5</ele>
        <time>2024-05-26T11:25:04Z</time>
      </trkpt>
      <trkpt lat="48.80043" lon="2.24607">
        <ele>167.5</ele>
        <time>2024-05-26T11:25:05Z</time>
      </trkpt>
      <trkpt lat="48.80043" lon="2.24606">
        <ele>167.5</ele>
        <time>2024-05-26T11:25:06Z</time>
      </trkpt>
      <trkpt lat="48.80044" lon="2.24607">
        <ele>167.5</ele>
        <time>2024-05-26T11:25:07Z</time>
      </trkpt>
      <trkpt lat="48.80045" lon="2.24606">
        <ele>167.5</ele>
        <time>2024-05-26T11:25:08Z</time>
      </trkpt>
      <trkpt lat="48.80046" lon="2.24606">
        <ele>167.5</ele>
        <time>2024-05-26T11:25:09Z</time>
      </trkpt>
      <trkpt lat="48.80048" lon="2.24606">
        <ele>167.5</ele>
        <time>2024-05-26T11:25:10Z</time>
      </trkpt>
      <trkpt lat="48.80049" lon="2.24607">
        <ele>167.4</ele>
        <time>2024-05-26T11:25:11Z</time>
      </trkpt>
      <trkpt lat="48.8005" lon="2.24607">
        <ele>167.4</ele>
        <time>2024-05-26T11:25:12Z</time>
      </trkpt>
      <trkpt lat="48.80051" lon="2.24608">
        <ele>167.4</ele>
        <time>2024-05-26T11:25:13Z</time>
      </trkpt>
      <trkpt lat="48.80052" lon="2.24609">
        <ele>167.4</ele>
        <time>2024-05-26T11:25:14Z</time>
      </trkpt>
      <trkpt lat="48.80053" lon="2.24609">
        <ele>167.4</ele>
        <time>2024-05-26T11:25:15Z</time>
      </trkpt>
      <trkpt lat="48.80054" lon="2.2461">
        <ele>167.4</ele>
        <time>2024-05-26T11:25:16Z</time>
      </trkpt>
      <trkpt lat="48.80056" lon="2.24611">
        <ele>167.4</ele>
        <time>2024-05-26T11:25:17Z</time>
      </trkpt>
      <trkpt lat="48.80058" lon="2.24611">
        <ele>167.3</ele>
        <time>2024-05-26T11:25:18Z</time>
      </trkpt>
      <trkpt lat="48.8006" lon="2.24611">
        <ele>167.3</ele>
        <time>2024-05-26T11:25:19Z</time>
      </trkpt>
      <trkpt lat="48.80061" lon="2.24611">
        <ele>167.3</ele>
        <time>2024-05-26T11:25:20Z</time>
      </trkpt>
      <trkpt lat="48.80062" lon="2.24611">
        <ele>167.3</ele>
        <time>2024-05-26T11:25:21Z</time>
      </trkpt>
      <trkpt lat="48.80064" lon="2.24612">
        <ele>167.3</ele>
        <time>2024-05-26T11:25:22Z</time>
      </trkpt>
      <trkpt lat="48.80065" lon="2.24612">
        <ele>167.3</ele>
        <time>2024-05-26T11:25:23Z</time>
      </trkpt>
      <trkpt lat="48.80067" lon="2.24611">
        <ele>167.3</ele>
        <time>2024-05-26T11:25:24Z</time>
      </trkpt>
      <trkpt lat="48.80068" lon="2.24611">
        <ele>167.3</ele>
        <time>2024-05-26T11:25:25Z</time>
      </trkpt>
      <trkpt lat="48.80069" lon="2.24611">
        <ele>167.3</ele>
        <time>2024-05-26T11:25:26Z</time>
      </trkpt>
      <trkpt lat="48.8007" lon="2.24611">
        <ele>167.3</ele>
        <time>2024-05-26T11:25:27Z</time>
      </trkpt>
      <trkpt lat="48.80071" lon="2.24611">
        <ele>167.3</ele>
        <time>2024-05-26T11:25:28Z</time>
      </trkpt>
      <trkpt lat="48.80072" lon="2.24611">
        <ele>167.3</ele>
        <time>2024-05-26T11:25:29Z</time>
      </trkpt>
      <trkpt lat="48.80073" lon="2.24612">
        <ele>167.3</ele>
        <time>2024-05-26T11:25:30Z</time>
      </trkpt>
      <trkpt lat="48.80074" lon="2.24613">
        <ele>167.3</ele>
        <time>2024-05-26T11:25:31Z</time>
      </trkpt>
      <trkpt lat="48.80074" lon="2.24613">
        <ele>167.3</ele>
        <time>2024-05-26T11:25:32Z</time>
      </trkpt>
      <trkpt lat="48.80075" lon="2.24614">
        <ele>167.3</ele>
        <time>2024-05-26T11:25:33Z</time>
      </trkpt>
      <trkpt lat="48.80075" lon="2.24614">
        <ele>167.3</ele>
        <time>2024-05-26T11:25:34Z</time>
      </trkpt>
      <trkpt lat="48.80077" lon="2.24614">
        <ele>167.3</ele>
        <time>2024-05-26T11:25:35Z</time>
      </trkpt>
      <trkpt lat="48.80078" lon="2.24614">
        <ele>167.3</ele>
        <time>2024-05-26T11:25:36Z</time>
      </trkpt>
      <trkpt lat="48.80079" lon="2.24613">
        <ele>167.3</ele>
        <time>2024-05-26T11:25:37Z</time>
      </trkpt>
      <trkpt lat="48.80081" lon="2.24613">
        <ele>167.3</ele>
        <time>2024-05-26T11:25:38Z</time>
      </trkpt>
      <trkpt lat="48.80082" lon="2.24612">
        <ele>167.3</ele>
        <time>2024-05-26T11:25:39Z</time>
      </trkpt>
      <trkpt lat="48.80083" lon="2.24611">
        <ele>167.3</ele>
        <time>2024-05-26T11:25:40Z</time>
      </trkpt>
      <trkpt lat="48.80084" lon="2.24611">
        <ele>167.3</ele>
        <time>2024-05-26T11:25:41Z</time>
      </trkpt>
      <trkpt lat="48.80085" lon="2.24611">
        <ele>167.3</ele>
        <time>2024-05-26T11:25:42Z</time>
      </trkpt>
      <trkpt lat="48.80087" lon="2.24612">
        <ele>167.3</ele>
        <time>2024-05-26T11:25:43Z</time>
      </trkpt>
      <trkpt lat="48.80088" lon="2.24612">
        <ele>167.3</ele>
        <time>2024-05-26T11:25:44Z</time>
      </trkpt>
      <trkpt lat="48.80089" lon="2.24612">
        <ele>167.2</ele>
        <time>2024-05-26T11:25:45Z</time>
      </trkpt>
      <trkpt lat="48.8009" lon="2.24612">
        <ele>167.2</ele>
        <time>2024-05-26T11:25:46Z</time>
      </trkpt>
      <trkpt lat="48.80091" lon="2.24613">
        <ele>167.2</ele>
        <time>2024-05-26T11:25:47Z</time>
      </trkpt>
      <trkpt lat="48.80092" lon="2.24612">
        <ele>167.2</ele>
        <time>2024-05-26T11:25:48Z</time>
      </trkpt>
      <trkpt lat="48.80093" lon="2.24612">
        <ele>167.2</ele>
        <time>2024-05-26T11:25:49Z</time>
      </trkpt>
      <trkpt lat="48.80094" lon="2.24613">
        <ele>167.2</ele>
        <time>2024-05-26T11:25:50Z</time>
      </trkpt>
      <trkpt lat="48.80095" lon="2.24612">
        <ele>167.2</ele>
        <time>2024-05-26T11:25:51Z</time>
      </trkpt>
      <trkpt lat="48.80096" lon="2.24612">
        <ele>167.2</ele>
        <time>2024-05-26T11:25:52Z</time>
      </trkpt>
      <trkpt lat="48.80097" lon="2.24612">
        <ele>167.2</ele>
        <time>2024-05-26T11:25:53Z</time>
      </trkpt>
      <trkpt lat="48.80098" lon="2.24612">
        <ele>167.3</ele>
        <time>2024-05-26T11:25:54Z</time>
      </trkpt>
      <trkpt lat="48.80099" lon="2.24613">
        <ele>167.3</ele>
        <time>2024-05-26T11:25:55Z</time>
      </trkpt>
      <trkpt lat="48.801" lon="2.24613">
        <ele>167.3</ele>
        <time>2024-05-26T11:25:56Z</time>
      </trkpt>
      <trkpt lat="48.80101" lon="2.24613">
        <ele>167.3</ele>
        <time>2024-05-26T11:25:57Z</time>
      </trkpt>
      <trkpt lat="48.80102" lon="2.24614">
        <ele>167.3</ele>
        <time>2024-05-26T11:25:58Z</time>
      </trkpt>
      <trkpt lat="48.80102" lon="2.24613">
        <ele>167.3</ele>
        <time>2024-05-26T11:25:59Z</time>
      </trkpt>
      <trkpt lat="48.80103" lon="2.24613">
        <ele>167.3</ele>
        <time>2024-05-26T11:26:00Z</time>
      </trkpt>
      <trkpt lat="48.80104" lon="2.24614">
        <ele>167.3</ele>
        <time>2024-05-26T11:26:01Z</time>
      </trkpt>
      <trkpt lat="48.80105" lon="2.24614">
        <ele>167.3</ele>
        <time>2024-05-26T11:26:02Z</time>
      </trkpt>
      <trkpt lat="48.80106" lon="2.24616">
        <ele>167.3</ele>
        <time>2024-05-26T11:26:03Z</time>
      </trkpt>
      <trkpt lat="48.80106" lon="2.24616">
        <ele>167.3</ele>
        <time>2024-05-26T11:26:04Z</time>
      </trkpt>
      <trkpt lat="48.80106" lon="2.24616">
        <ele>167.3</ele>
        <time>2024-05-26T11:26:05Z</time>
      </trkpt>
      <trkpt lat="48.80107" lon="2.24616">
        <ele>167.3</ele>
        <time>2024-05-26T11:26:06Z</time>
      </trkpt>
      <trkpt lat="48.80108" lon="2.24617">
        <ele>167.3</ele>
        <time>2024-05-26T11:26:07Z</time>
      </trkpt>
      <trkpt lat="48.80108" lon="2.24618">
        <ele>167.3</ele>
        <time>2024-05-26T11:26:08Z</time>
      </trkpt>
      <trkpt lat="48.8011" lon="2.24619">
        <ele>167.3</ele>
        <time>2024-05-26T11:26:09Z</time>
      </trkpt>
      <trkpt lat="48.80111" lon="2.24621">
        <ele>167.3</ele>
        <time>2024-05-26T11:26:10Z</time>
      </trkpt>
      <trkpt lat="48.80112" lon="2.24622">
        <ele>167.3</ele>
        <time>2024-05-26T11:26:11Z</time>
      </trkpt>
      <trkpt lat="48.80113" lon="2.24623">
        <ele>167.3</ele>
        <time>2024-05-26T11:26:12Z</time>
      </trkpt>
      <trkpt lat="48.80115" lon="2.24625">
        <ele>167.3</ele>
        <time>2024-05-26T11:26:13Z</time>
      </trkpt>
      <trkpt lat="48.80116" lon="2.24625">
        <ele>167.4</ele>
        <time>2024-05-26T11:26:14Z</time>
      </trkpt>
      <trkpt lat="48.80117" lon="2.24627">
        <ele>167.4</ele>
        <time>2024-05-26T11:26:15Z</time>
      </trkpt>
      <trkpt lat="48.80118" lon="2.24628">
        <ele>167.4</ele>
        <time>2024-05-26T11:26:16Z</time>
      </trkpt>
      <trkpt lat="48.80119" lon="2.24629">
        <ele>167.4</ele>
        <time>2024-05-26T11:26:17Z</time>
      </trkpt>
      <trkpt lat="48.8012" lon="2.2463">
        <ele>167.4</ele>
        <time>2024-05-26T11:26:18Z</time>
      </trkpt>
      <trkpt lat="48.80121" lon="2.2463">
        <ele>167.4</ele>
        <time>2024-05-26T11:26:19Z</time>
      </trkpt>
      <trkpt lat="48.80123" lon="2.24631">
        <ele>167.4</ele>
        <time>2024-05-26T11:26:20Z</time>
      </trkpt>
      <trkpt lat="48.80123" lon="2.24631">
        <ele>167.4</ele>
        <time>2024-05-26T11:26:21Z</time>
      </trkpt>
      <trkpt lat="48.80124" lon="2.24633">
        <ele>167.4</ele>
        <time>2024-05-26T11:26:22Z</time>
      </trkpt>
      <trkpt lat="48.80125" lon="2.24634">
        <ele>167.4</ele>
        <time>2024-05-26T11:26:23Z</time>
      </trkpt>
      <trkpt lat="48.80127" lon="2.24636">
        <ele>167.4</ele>
        <time>2024-05-26T11:26:24Z</time>
      </trkpt>
      <trkpt lat="48.80128" lon="2.24638">
        <ele>167.4</ele>
        <time>2024-05-26T11:26:25Z</time>
      </trkpt>
      <trkpt lat="48.80129" lon="2.24639">
        <ele>167.4</ele>
        <time>2024-05-26T11:26:26Z</time>
      </trkpt>
      <trkpt lat="48.80129" lon="2.2464">
        <ele>167.4</ele>
        <time>2024-05-26T11:26:27Z</time>
      </trkpt>
      <trkpt lat="48.8013" lon="2.24642">
        <ele>167.4</ele>
        <time>2024-05-26T11:26:28Z</time>
      </trkpt>
      <trkpt lat="48.80131" lon="2.24643">
        <ele>167.4</ele>
        <time>2024-05-26T11:26:29Z</time>
      </trkpt>
      <trkpt lat="48.80133" lon="2.24645">
        <ele>167.4</ele>
        <time>2024-05-26T11:26:30Z</time>
      </trkpt>
      <trkpt lat="48.80133" lon="2.24646">
        <ele>167.4</ele>
        <time>2024-05-26T11:26:31Z</time>
      </trkpt>
      <trkpt lat="48.80134" lon="2.24647">
        <ele>167.4</ele>
        <time>2024-05-26T11:26:32Z</time>
      </trkpt>
      <trkpt lat="48.80136" lon="2.24648">
        <ele>167.4</ele>
        <time>2024-05-26T11:26:33Z</time>
      </trkpt>
      <trkpt lat="48.80136" lon="2.24648">
        <ele>167.4</ele>
        <time>2024-05-26T11:26:34Z</time>
      </trkpt>
      <trkpt lat="48.80137" lon="2.24648">
        <ele>167.4</ele>
        <time>2024-05-26T11:26:35Z</time>
      </trkpt>
      <trkpt lat="48.80139" lon="2.2465">
        <ele>167.4</ele>
        <time>2024-05-26T11:26:36Z</time>
      </trkpt>
      <trkpt lat="48.8014" lon="2.24651">
        <ele>167.4</ele>
        <time>2024-05-26T11:26:37Z</time>
      </trkpt>
      <trkpt lat="48.80141" lon="2.24651">
        <ele>167.4</ele>
        <time>2024-05-26T11:26:38Z</time>
      </trkpt>
      <trkpt lat="48.80143" lon="2.24652">
        <ele>167.4</ele>
        <time>2024-05-26T11:26:39Z</time>
      </trkpt>
      <trkpt lat="48.80144" lon="2.24654">
        <ele>167.4</ele>
        <time>2024-05-26T11:26:40Z</time>
      </trkpt>
      <trkpt lat="48.80145" lon="2.24655">
        <ele>167.4</ele>
        <time>2024-05-26T11:26:41Z</time>
      </trkpt>
      <trkpt lat="48.80146" lon="2.24655">
        <ele>167.4</ele>
        <time>2024-05-26T11:26:42Z</time>
      </trkpt>
      <trkpt lat="48.80149" lon="2.24657">
        <ele>167.4</ele>
        <time>2024-05-26T11:26:43Z</time>
      </trkpt>
      <trkpt lat="48.80151" lon="2.24659">
        <ele>167.4</ele>
        <time>2024-05-26T11:26:44Z</time>
      </trkpt>
      <trkpt lat="48.80152" lon="2.24659">
        <ele>167.4</ele>
        <time>2024-05-26T11:26:45Z</time>
      </trkpt>
      <trkpt lat="48.80153" lon="2.2466">
        <ele>167.4</ele>
        <time>2024-05-26T11:26:46Z</time>
      </trkpt>
      <trkpt lat="48.80154" lon="2.2466">
        <ele>167.4</ele>
        <time>2024-05-26T11:26:47Z</time>
      </trkpt>
      <trkpt lat="48.80156" lon="2.2466">
        <ele>167.4</ele>
        <time>2024-05-26T11:26:48Z</time>
      </trkpt>
      <trkpt lat="48.80158" lon="2.24662">
        <ele>167.4</ele>
        <time>2024-05-26T11:26:49Z</time>
      </trkpt>
      <trkpt lat="48.80158" lon="2.24663">
        <ele>167.4</ele>
        <time>2024-05-26T11:26:50Z</time>
      </trkpt>
      <trkpt lat="48.80159" lon="2.24664">
        <ele>167.4</ele>
        <time>2024-05-26T11:26:51Z</time>
      </trkpt>
      <trkpt lat="48.8016" lon="2.24666">
        <ele>167.4</ele>
        <time>2024-05-26T11:26:52Z</time>
      </trkpt>
      <trkpt lat="48.80161" lon="2.24668">
        <ele>167.4</ele>
        <time>2024-05-26T11:26:53Z</time>
      </trkpt>
      <trkpt lat="48.80163" lon="2.24668">
        <ele>167.4</ele>
        <time>2024-05-26T11:26:54Z</time>
      </trkpt>
      <trkpt lat="48.80165" lon="2.24666">
        <ele>167.4</ele>
        <time>2024-05-26T11:26:55Z</time>
      </trkpt>
      <trkpt lat="48.80165" lon="2.24668">
        <ele>167.4</ele>
        <time>2024-05-26T11:26:56Z</time>
      </trkpt>
      <trkpt lat="48.80166" lon="2.24669">
        <ele>167.4</ele>
        <time>2024-05-26T11:26:57Z</time>
      </trkpt>
      <trkpt lat="48.80166" lon="2.2467">
        <ele>167.4</ele>
        <time>2024-05-26T11:26:58Z</time>
      </trkpt>
      <trkpt lat="48.80167" lon="2.2467">
        <ele>167.4</ele>
        <time>2024-05-26T11:26:59Z</time>
      </trkpt>
      <trkpt lat="48.80168" lon="2.24671">
        <ele>167.4</ele>
        <time>2024-05-26T11:27:00Z</time>
      </trkpt>
      <trkpt lat="48.8017" lon="2.24672">
        <ele>167.4</ele>
        <time>2024-05-26T11:27:01Z</time>
      </trkpt>
      <trkpt lat="48.8017" lon="2.24673">
        <ele>167.4</ele>
        <time>2024-05-26T11:27:02Z</time>
      </trkpt>
      <trkpt lat="48.80171" lon="2.24673">
        <ele>167.4</ele>
        <time>2024-05-26T11:27:03Z</time>
      </trkpt>
      <trkpt lat="48.80172" lon="2.24674">
        <ele>167.4</ele>
        <time>2024-05-26T11:27:04Z</time>
      </trkpt>
      <trkpt lat="48.80174" lon="2.24675">
        <ele>167.3</ele>
        <time>2024-05-26T11:27:05Z</time>
      </trkpt>
      <trkpt lat="48.80175" lon="2.24676">
        <ele>167.3</ele>
        <time>2024-05-26T11:27:06Z</time>
      </trkpt>
      <trkpt lat="48.80176" lon="2.24677">
        <ele>167.3</ele>
        <time>2024-05-26T11:27:07Z</time>
      </trkpt>
      <trkpt lat="48.80176" lon="2.24677">
        <ele>167.3</ele>
        <time>2024-05-26T11:27:08Z</time>
      </trkpt>
      <trkpt lat="48.80177" lon="2.24678">
        <ele>167.3</ele>
        <time>2024-05-26T11:27:09Z</time>
      </trkpt>
      <trkpt lat="48.80178" lon="2.24679">
        <ele>167.3</ele>
        <time>2024-05-26T11:27:10Z</time>
      </trkpt>
      <trkpt lat="48.80179" lon="2.24679">
        <ele>167.3</ele>
        <time>2024-05-26T11:27:11Z</time>
      </trkpt>
      <trkpt lat="48.80179" lon="2.2468">
        <ele>167.3</ele>
        <time>2024-05-26T11:27:12Z</time>
      </trkpt>
      <trkpt lat="48.80181" lon="2.24681">
        <ele>167.3</ele>
        <time>2024-05-26T11:27:13Z</time>
      </trkpt>
      <trkpt lat="48.80181" lon="2.24682">
        <ele>167.3</ele>
        <time>2024-05-26T11:27:14Z</time>
      </trkpt>
      <trkpt lat="48.80182" lon="2.24683">
        <ele>167.3</ele>
        <time>2024-05-26T11:27:15Z</time>
      </trkpt>
      <trkpt lat="48.80183" lon="2.24685">
        <ele>167.3</ele>
        <time>2024-05-26T11:27:16Z</time>
      </trkpt>
      <trkpt lat="48.80184" lon="2.24686">
        <ele>167.3</ele>
        <time>2024-05-26T11:27:17Z</time>
      </trkpt>
      <trkpt lat="48.80185" lon="2.24687">
        <ele>167.3</ele>
        <time>2024-05-26T11:27:18Z</time>
      </trkpt>
      <trkpt lat="48.80186" lon="2.24688">
        <ele>167.3</ele>
        <time>2024-05-26T11:27:19Z</time>
      </trkpt>
      <trkpt lat="48.80187" lon="2.24689">
        <ele>167.3</ele>
        <time>2024-05-26T11:27:20Z</time>
      </trkpt>
      <trkpt lat="48.80188" lon="2.24691">
        <ele>167.3</ele>
        <time>2024-05-26T11:27:21Z</time>
      </trkpt>
      <trkpt lat="48.80189" lon="2.24692">
        <ele>167.3</ele>
        <time>2024-05-26T11:27:22Z</time>
      </trkpt>
      <trkpt lat="48.8019" lon="2.24695">
        <ele>167.3</ele>
        <time>2024-05-26T11:27:23Z</time>
      </trkpt>
      <trkpt lat="48.80191" lon="2.24696">
        <ele>167.3</ele>
        <time>2024-05-26T11:27:24Z</time>
      </trkpt>
      <trkpt lat="48.80191" lon="2.24698">
        <ele>167.3</ele>
        <time>2024-05-26T11:27:25Z</time>
      </trkpt>
      <trkpt lat="48.80192" lon="2.24699">
        <ele>167.3</ele>
        <time>2024-05-26T11:27:26Z</time>
      </trkpt>
      <trkpt lat="48.80194" lon="2.24701">
        <ele>167.3</ele>
        <time>2024-05-26T11:27:27Z</time>
      </trkpt>
      <trkpt lat="48.80194" lon="2.24703">
        <ele>167.3</ele>
        <time>2024-05-26T11:27:28Z</time>
      </trkpt>
      <trkpt lat="48.80195" lon="2.24704">
        <ele>167.3</ele>
        <time>2024-05-26T11:27:29Z</time>
      </trkpt>
      <trkpt lat="48.80195" lon="2.24705">
        <ele>167.3</ele>
        <time>2024-05-26T11:27:30Z</time>
      </trkpt>
      <trkpt lat="48.80196" lon="2.24706">
        <ele>167.3</ele>
        <time>2024-05-26T11:27:31Z</time>
      </trkpt>
      <trkpt lat="48.80196" lon="2.24707">
        <ele>167.3</ele>
        <time>2024-05-26T11:27:32Z</time>
      </trkpt>
      <trkpt lat="48.80196" lon="2.24708">
        <ele>167.3</ele>
        <time>2024-05-26T11:27:33Z</time>
      </trkpt>
      <trkpt lat="48.80197" lon="2.24709">
        <ele>167.3</ele>
        <time>2024-05-26T11:27:34Z</time>
      </trkpt>
      <trkpt lat="48.80198" lon="2.24711">
        <ele>167.3</ele>
        <time>2024-05-26T11:27:35Z</time>
      </trkpt>
      <trkpt lat="48.80199" lon="2.24711">
        <ele>167.3</ele>
        <time>2024-05-26T11:27:36Z</time>
      </trkpt>
      <trkpt lat="48.80199" lon="2.24712">
        <ele>167.3</ele>
        <time>2024-05-26T11:27:37Z</time>
      </trkpt>
      <trkpt lat="48.802" lon="2.24715">
        <ele>167.3</ele>
        <time>2024-05-26T11:27:38Z</time>
      </trkpt>
      <trkpt lat="48.80201" lon="2.24717">
        <ele>167.3</ele>
        <time>2024-05-26T11:27:39Z</time>
      </trkpt>
      <trkpt lat="48.80201" lon="2.24718">
        <ele>167.3</ele>
        <time>2024-05-26T11:27:40Z</time>
      </trkpt>
      <trkpt lat="48.80202" lon="2.24719">
        <ele>167.3</ele>
        <time>2024-05-26T11:27:41Z</time>
      </trkpt>
      <trkpt lat="48.80202" lon="2.2472">
        <ele>167.3</ele>
        <time>2024-05-26T11:27:42Z</time>
      </trkpt>
      <trkpt lat="48.80203" lon="2.24721">
        <ele>167.3</ele>
        <time>2024-05-26T11:27:43Z</time>
      </trkpt>
      <trkpt lat="48.80204" lon="2.24722">
        <ele>167.3</ele>
        <time>2024-05-26T11:27:44Z</time>
      </trkpt>
      <trkpt lat="48.80204" lon="2.24722">
        <ele>167.3</ele>
        <time>2024-05-26T11:27:45Z</time>
      </trkpt>
      <trkpt lat="48.80206" lon="2.24723">
        <ele>167.3</ele>
        <time>2024-05-26T11:27:46Z</time>
      </trkpt>
      <trkpt lat="48.80207" lon="2.24725">
        <ele>167.3</ele>
        <time>2024-05-26T11:27:47Z</time>
      </trkpt>
      <trkpt lat="48.80208" lon="2.24726">
        <ele>167.3</ele>
        <time>2024-05-26T11:27:48Z</time>
      </trkpt>
      <trkpt lat="48.80209" lon="2.24727">
        <ele>167.3</ele>
        <time>2024-05-26T11:27:49Z</time>
      </trkpt>
      <trkpt lat="48.8021" lon="2.24729">
        <ele>167.3</ele>
        <time>2024-05-26T11:27:50Z</time>
      </trkpt>
      <trkpt lat="48.80212" lon="2.2473">
        <ele>167.3</ele>
        <time>2024-05-26T11:27:51Z</time>
      </trkpt>
      <trkpt lat="48.80213" lon="2.24732">
        <ele>167.3</ele>
        <time>2024-05-26T11:27:52Z</time>
      </trkpt>
      <trkpt lat="48.80214" lon="2.24736">
        <ele>167.3</ele>
        <time>2024-05-26T11:27:53Z</time>
      </trkpt>
      <trkpt lat="48.80214" lon="2.24737">
        <ele>167.3</ele>
        <time>2024-05-26T11:27:54Z</time>
      </trkpt>
      <trkpt lat="48.80215" lon="2.24739">
        <ele>167.3</ele>
        <time>2024-05-26T11:27:55Z</time>
      </trkpt>
      <trkpt lat="48.80216" lon="2.24741">
        <ele>167.3</ele>
        <time>2024-05-26T11:27:56Z</time>
      </trkpt>
      <trkpt lat="48.80216" lon="2.24743">
        <ele>167.3</ele>
        <time>2024-05-26T11:27:57Z</time>
      </trkpt>
      <trkpt lat="48.80215" lon="2.24745">
        <ele>167.3</ele>
        <time>2024-05-26T11:27:58Z</time>
      </trkpt>
      <trkpt lat="48.80215" lon="2.24746">
        <ele>167.3</ele>
        <time>2024-05-26T11:27:59Z</time>
      </trkpt>
      <trkpt lat="48.80216" lon="2.24749">
        <ele>167.3</ele>
        <time>2024-05-26T11:28:00Z</time>
      </trkpt>
      <trkpt lat="48.80216" lon="2.24751">
        <ele>167.3</ele>
        <time>2024-05-26T11:28:01Z</time>
      </trkpt>
      <trkpt lat="48.80217" lon="2.24754">
        <ele>167.3</ele>
        <time>2024-05-26T11:28:02Z</time>
      </trkpt>
      <trkpt lat="48.80217" lon="2.24755">
        <ele>167.3</ele>
        <time>2024-05-26T11:28:03Z</time>
      </trkpt>
      <trkpt lat="48.80217" lon="2.24757">
        <ele>167.3</ele>
        <time>2024-05-26T11:28:04Z</time>
      </trkpt>
      <trkpt lat="48.80217" lon="2.24759">
        <ele>167.3</ele>
        <time>2024-05-26T11:28:05Z</time>
      </trkpt>
      <trkpt lat="48.80218" lon="2.24761">
        <ele>167.3</ele>
        <time>2024-05-26T11:28:06Z</time>
      </trkpt>
      <trkpt lat="48.80219" lon="2.24762">
        <ele>167.3</ele>
        <time>2024-05-26T11:28:07Z</time>
      </trkpt>
      <trkpt lat="48.80219" lon="2.24763">
        <ele>167.3</ele>
        <time>2024-05-26T11:28:08Z</time>
      </trkpt>
      <trkpt lat="48.80219" lon="2.24763">
        <ele>167.3</ele>
        <time>2024-05-26T11:28:09Z</time>
      </trkpt>
      <trkpt lat="48.8022" lon="2.24764">
        <ele>167.3</ele>
        <time>2024-05-26T11:28:10Z</time>
      </trkpt>
      <trkpt lat="48.8022" lon="2.24764">
        <ele>167.3</ele>
        <time>2024-05-26T11:28:11Z</time>
      </trkpt>
      <trkpt lat="48.8022" lon="2.24765">
        <ele>167.3</ele>
        <time>2024-05-26T11:28:12Z</time>
      </trkpt>
      <trkpt lat="48.80221" lon="2.24765">
        <ele>167.3</ele>
        <time>2024-05-26T11:28:13Z</time>
      </trkpt>
      <trkpt lat="48.80222" lon="2.24766">
        <ele>167.3</ele>
        <time>2024-05-26T11:28:14Z</time>
      </trkpt>
      <trkpt lat="48.80222" lon="2.24767">
        <ele>167.3</ele>
        <time>2024-05-26T11:28:15Z</time>
      </trkpt>
      <trkpt lat="48.80223" lon="2.24768">
        <ele>167.3</ele>
        <time>2024-05-26T11:28:16Z</time>
      </trkpt>
      <trkpt lat="48.80224" lon="2.24769">
        <ele>167.3</ele>
        <time>2024-05-26T11:28:17Z</time>
      </trkpt>
      <trkpt lat="48.80224" lon="2.2477">
        <ele>167.3</ele>
        <time>2024-05-26T11:28:18Z</time>
      </trkpt>
      <trkpt lat="48.80224" lon="2.24772">
        <ele>167.3</ele>
        <time>2024-05-26T11:28:19Z</time>
      </trkpt>
      <trkpt lat="48.80224" lon="2.24774">
        <ele>167.3</ele>
        <time>2024-05-26T11:28:20Z</time>
      </trkpt>
      <trkpt lat="48.80224" lon="2.24776">
        <ele>167.2</ele>
        <time>2024-05-26T11:28:21Z</time>
      </trkpt>
      <trkpt lat="48.80224" lon="2.24776">
        <ele>167.2</ele>
        <time>2024-05-26T11:28:22Z</time>
      </trkpt>
      <trkpt lat="48.80225" lon="2.24777">
        <ele>167.2</ele>
        <time>2024-05-26T11:28:23Z</time>
      </trkpt>
      <trkpt lat="48.80225" lon="2.24778">
        <ele>167.2</ele>
        <time>2024-05-26T11:28:24Z</time>
      </trkpt>
      <trkpt lat="48.80224" lon="2.2478">
        <ele>167.2</ele>
        <time>2024-05-26T11:28:25Z</time>
      </trkpt>
      <trkpt lat="48.80225" lon="2.24782">
        <ele>167.2</ele>
        <time>2024-05-26T11:28:26Z</time>
      </trkpt>
      <trkpt lat="48.80225" lon="2.24783">
        <ele>167.2</ele>
        <time>2024-05-26T11:28:27Z</time>
      </trkpt>
      <trkpt lat="48.80225" lon="2.24784">
        <ele>167.2</ele>
        <time>2024-05-26T11:28:28Z</time>
      </trkpt>
      <trkpt lat="48.80225" lon="2.24785">
        <ele>167.2</ele>
        <time>2024-05-26T11:28:29Z</time>
      </trkpt>
      <trkpt lat="48.80226" lon="2.24786">
        <ele>167.2</ele>
        <time>2024-05-26T11:28:30Z</time>
      </trkpt>
      <trkpt lat="48.80226" lon="2.24788">
        <ele>167.2</ele>
        <time>2024-05-26T11:28:31Z</time>
      </trkpt>
      <trkpt lat="48.80226" lon="2.24789">
        <ele>167.2</ele>
        <time>2024-05-26T11:28:32Z</time>
      </trkpt>
      <trkpt lat="48.80227" lon="2.2479">
        <ele>167.2</ele>
        <time>2024-05-26T11:28:33Z</time>
      </trkpt>
      <trkpt lat="48.80227" lon="2.2479">
        <ele>167.2</ele>
        <time>2024-05-26T11:28:34Z</time>
      </trkpt>
      <trkpt lat="48.80227" lon="2.24792">
        <ele>167.2</ele>
        <time>2024-05-26T11:28:35Z</time>
      </trkpt>
      <trkpt lat="48.80226" lon="2.24793">
        <ele>167.2</ele>
        <time>2024-05-26T11:28:36Z</time>
      </trkpt>
      <trkpt lat="48.80226" lon="2.24795">
        <ele>167.2</ele>
        <time>2024-05-26T11:28:37Z</time>
      </trkpt>
      <trkpt lat="48.80226" lon="2.24795">
        <ele>167.2</ele>
        <time>2024-05-26T11:28:38Z</time>
      </trkpt>
      <trkpt lat="48.80227" lon="2.24796">
        <ele>167.2</ele>
        <time>2024-05-26T11:28:39Z</time>
      </trkpt>
      <trkpt lat="48.80227" lon="2.24797">
        <ele>167.2</ele>
        <time>2024-05-26T11:28:40Z</time>
      </trkpt>
      <trkpt lat="48.80227" lon="2.24799">
        <ele>167.2</ele>
        <time>2024-05-26T11:28:41Z</time>
      </trkpt>
      <trkpt lat="48.80227" lon="2.248">
        <ele>167.2</ele>
        <time>2024-05-26T11:28:42Z</time>
      </trkpt>
      <trkpt lat="48.80227" lon="2.24801">
        <ele>167.1</ele>
        <time>2024-05-26T11:28:43Z</time>
      </trkpt>
      <trkpt lat="48.80226" lon="2.24802">
        <ele>167.1</ele>
        <time>2024-05-26T11:28:44Z</time>
      </trkpt>
      <trkpt lat="48.80226" lon="2.24803">
        <ele>167.1</ele>
        <time>2024-05-26T11:28:45Z</time>
      </trkpt>
      <trkpt lat="48.80227" lon="2.24805">
        <ele>167.1</ele>
        <time>2024-05-26T11:28:46Z</time>
      </trkpt>
      <trkpt lat="48.80226" lon="2.24808">
        <ele>167.1</ele>
        <time>2024-05-26T11:28:47Z</time>
      </trkpt>
      <trkpt lat="48.80225" lon="2.2481">
        <ele>167.1</ele>
        <time>2024-05-26T11:28:48Z</time>
      </trkpt>
      <trkpt lat="48.80226" lon="2.24812">
        <ele>167.1</ele>
        <time>2024-05-26T11:28:49Z</time>
      </trkpt>
      <trkpt lat="48.80225" lon="2.24816">
        <ele>167.1</ele>
        <time>2024-05-26T11:28:50Z</time>
      </trkpt>
      <trkpt lat="48.80225" lon="2.24818">
        <ele>167.1</ele>
        <time>2024-05-26T11:28:51Z</time>
      </trkpt>
      <trkpt lat="48.80225" lon="2.2482">
        <ele>167.1</ele>
        <time>2024-05-26T11:28:52Z</time>
      </trkpt>
      <trkpt lat="48.80226" lon="2.24824">
        <ele>167.1</ele>
        <time>2024-05-26T11:28:53Z</time>
      </trkpt>
      <trkpt lat="48.80226" lon="2.24825">
        <ele>167.1</ele>
        <time>2024-05-26T11:28:54Z</time>
      </trkpt>
      <trkpt lat="48.80226" lon="2.24829">
        <ele>167.1</ele>
        <time>2024-05-26T11:28:55Z</time>
      </trkpt>
      <trkpt lat="48.80226" lon="2.2483">
        <ele>167.1</ele>
        <time>2024-05-26T11:28:56Z</time>
      </trkpt>
      <trkpt lat="48.80226" lon="2.24833">
        <ele>167.1</ele>
        <time>2024-05-26T11:28:57Z</time>
      </trkpt>
      <trkpt lat="48.80226" lon="2.24835">
        <ele>167.1</ele>
        <time>2024-05-26T11:28:58Z</time>
      </trkpt>
      <trkpt lat="48.80226" lon="2.24836">
        <ele>167.1</ele>
        <time>2024-05-26T11:28:59Z</time>
      </trkpt>
      <trkpt lat="48.80226" lon="2.24838">
        <ele>167.1</ele>
        <time>2024-05-26T11:29:00Z</time>
      </trkpt>
      <trkpt lat="48.80226" lon="2.2484">
        <ele>167.1</ele>
        <time>2024-05-26T11:29:01Z</time>
      </trkpt>
      <trkpt lat="48.80226" lon="2.24842">
        <ele>167.1</ele>
        <time>2024-05-26T11:29:02Z</time>
      </trkpt>
      <trkpt lat="48.80225" lon="2.24843">
        <ele>167.1</ele>
        <time>2024-05-26T11:29:03Z</time>
      </trkpt>
      <trkpt lat="48.80224" lon="2.24844">
        <ele>167.1</ele>
        <time>2024-05-26T11:29:04Z</time>
      </trkpt>
      <trkpt lat="48.80223" lon="2.24845">
        <ele>167.1</ele>
        <time>2024-05-26T11:29:05Z</time>
      </trkpt>
      <trkpt lat="48.80222" lon="2.24846">
        <ele>167.1</ele>
        <time>2024-05-26T11:29:06Z</time>
      </trkpt>
      <trkpt lat="48.80221" lon="2.24848">
        <ele>167.1</ele>
        <time>2024-05-26T11:29:07Z</time>
      </trkpt>
      <trkpt lat="48.8022" lon="2.2485">
        <ele>167.2</ele>
        <time>2024-05-26T11:29:08Z</time>
      </trkpt>
      <trkpt lat="48.80219" lon="2.24852">
        <ele>167.2</ele>
        <time>2024-05-26T11:29:09Z</time>
      </trkpt>
      <trkpt lat="48.80218" lon="2.24854">
        <ele>167.2</ele>
        <time>2024-05-26T11:29:10Z</time>
      </trkpt>
      <trkpt lat="48.80218" lon="2.24855">
        <ele>167.2</ele>
        <time>2024-05-26T11:29:11Z</time>
      </trkpt>
      <trkpt lat="48.80217" lon="2.24857">
        <ele>167.2</ele>
        <time>2024-05-26T11:29:12Z</time>
      </trkpt>
      <trkpt lat="48.80217" lon="2.24858">
        <ele>167.2</ele>
        <time>2024-05-26T11:29:13Z</time>
      </trkpt>
      <trkpt lat="48.80217" lon="2.24859">
        <ele>167.2</ele>
        <time>2024-05-26T11:29:14Z</time>
      </trkpt>
      <trkpt lat="48.80216" lon="2.24861">
        <ele>167.2</ele>
        <time>2024-05-26T11:29:15Z</time>
      </trkpt>
      <trkpt lat="48.80216" lon="2.24863">
        <ele>167.2</ele>
        <time>2024-05-26T11:29:16Z</time>
      </trkpt>
      <trkpt lat="48.80216" lon="2.24863">
        <ele>167.3</ele>
        <time>2024-05-26T11:29:17Z</time>
      </trkpt>
      <trkpt lat="48.80217" lon="2.24864">
        <ele>167.3</ele>
        <time>2024-05-26T11:29:18Z</time>
      </trkpt>
      <trkpt lat="48.80218" lon="2.24863">
        <ele>167.3</ele>
        <time>2024-05-26T11:29:19Z</time>
      </trkpt>
      <trkpt lat="48.80219" lon="2.24863">
        <ele>167.3</ele>
        <time>2024-05-26T11:29:20Z</time>
      </trkpt>
      <trkpt lat="48.80219" lon="2.24864">
        <ele>167.3</ele>
        <time>2024-05-26T11:29:21Z</time>
      </trkpt>
      <trkpt lat="48.8022" lon="2.24864">
        <ele>167.3</ele>
        <time>2024-05-26T11:29:22Z</time>
      </trkpt>
      <trkpt lat="48.80219" lon="2.24864">
        <ele>167.3</ele>
        <time>2024-05-26T11:29:23Z</time>
      </trkpt>
      <trkpt lat="48.80219" lon="2.24865">
        <ele>167.3</ele>
        <time>2024-05-26T11:29:24Z</time>
      </trkpt>
      <trkpt lat="48.80219" lon="2.24867">
        <ele>167.3</ele>
        <time>2024-05-26T11:29:25Z</time>
      </trkpt>
      <trkpt lat="48.8022" lon="2.24867">
        <ele>167.3</ele>
        <time>2024-05-26T11:29:26Z</time>
      </trkpt>
      <trkpt lat="48.80221" lon="2.24868">
        <ele>167.3</ele>
        <time>2024-05-26T11:29:27Z</time>
      </trkpt>
      <trkpt lat="48.8022" lon="2.2487">
        <ele>167.3</ele>
        <time>2024-05-26T11:29:28Z</time>
      </trkpt>
      <trkpt lat="48.80221" lon="2.24871">
        <ele>167.3</ele>
        <time>2024-05-26T11:29:29Z</time>
      </trkpt>
      <trkpt lat="48.80221" lon="2.24871">
        <ele>167.3</ele>
        <time>2024-05-26T11:29:30Z</time>
      </trkpt>
      <trkpt lat="48.80221" lon="2.24871">
        <ele>167.3</ele>
        <time>2024-05-26T11:29:31Z</time>
      </trkpt>
      <trkpt lat="48.80221" lon="2.24872">
        <ele>167.3</ele>
        <time>2024-05-26T11:29:32Z</time>
      </trkpt>
      <trkpt lat="48.80222" lon="2.24874">
        <ele>167.3</ele>
        <time>2024-05-26T11:29:33Z</time>
      </trkpt>
      <trkpt lat="48.80222" lon="2.24876">
        <ele>167.3</ele>
        <time>2024-05-26T11:29:34Z</time>
      </trkpt>
      <trkpt lat="48.80222" lon="2.24878">
        <ele>167.4</ele>
        <time>2024-05-26T11:29:35Z</time>
      </trkpt>
      <trkpt lat="48.80222" lon="2.24881">
        <ele>167.4</ele>
        <time>2024-05-26T11:29:36Z</time>
      </trkpt>
      <trkpt lat="48.80224" lon="2.24882">
        <ele>167.4</ele>
        <time>2024-05-26T11:29:37Z</time>
      </trkpt>
      <trkpt lat="48.80224" lon="2.24884">
        <ele>167.4</ele>
        <time>2024-05-26T11:29:38Z</time>
      </trkpt>
      <trkpt lat="48.80225" lon="2.24887">
        <ele>167.4</ele>
        <time>2024-05-26T11:29:39Z</time>
      </trkpt>
      <trkpt lat="48.80225" lon="2.24888">
        <ele>167.4</ele>
        <time>2024-05-26T11:29:40Z</time>
      </trkpt>
      <trkpt lat="48.80225" lon="2.24889">
        <ele>167.4</ele>
        <time>2024-05-26T11:29:41Z</time>
      </trkpt>
      <trkpt lat="48.80226" lon="2.24891">
        <ele>167.4</ele>
        <time>2024-05-26T11:29:42Z</time>
      </trkpt>
      <trkpt lat="48.80225" lon="2.24893">
        <ele>167.4</ele>
        <time>2024-05-26T11:29:43Z</time>
      </trkpt>
      <trkpt lat="48.80225" lon="2.24893">
        <ele>167.4</ele>
        <time>2024-05-26T11:29:44Z</time>
      </trkpt>
      <trkpt lat="48.80225" lon="2.24896">
        <ele>167.4</ele>
        <time>2024-05-26T11:29:45Z</time>
      </trkpt>
      <trkpt lat="48.80225" lon="2.24897">
        <ele>167.4</ele>
        <time>2024-05-26T11:29:46Z</time>
      </trkpt>
      <trkpt lat="48.80225" lon="2.24898">
        <ele>167.4</ele>
        <time>2024-05-26T11:29:47Z</time>
      </trkpt>
      <trkpt lat="48.80225" lon="2.249">
        <ele>167.4</ele>
        <time>2024-05-26T11:29:48Z</time>
      </trkpt>
      <trkpt lat="48.80225" lon="2.24901">
        <ele>167.4</ele>
        <time>2024-05-26T11:29:49Z</time>
      </trkpt>
      <trkpt lat="48.80224" lon="2.24903">
        <ele>167.4</ele>
        <time>2024-05-26T11:29:50Z</time>
      </trkpt>
      <trkpt lat="48.80224" lon="2.24904">
        <ele>167.4</ele>
        <time>2024-05-26T11:29:51Z</time>
      </trkpt>
      <trkpt lat="48.80224" lon="2.24906">
        <ele>167.4</ele>
        <time>2024-05-26T11:29:52Z</time>
      </trkpt>
      <trkpt lat="48.80224" lon="2.24908">
        <ele>167.4</ele>
        <time>2024-05-26T11:29:53Z</time>
      </trkpt>
      <trkpt lat="48.80223" lon="2.24908">
        <ele>167.4</ele>
        <time>2024-05-26T11:29:54Z</time>
      </trkpt>
      <trkpt lat="48.80224" lon="2.24911">
        <ele>167.4</ele>
        <time>2024-05-26T11:29:55Z</time>
      </trkpt>
      <trkpt lat="48.80223" lon="2.24913">
        <ele>167.4</ele>
        <time>2024-05-26T11:29:56Z</time>
      </trkpt>
      <trkpt lat="48.80222" lon="2.24914">
        <ele>167.4</ele>
        <time>2024-05-26T11:29:57Z</time>
      </trkpt>
      <trkpt lat="48.80223" lon="2.24915">
        <ele>167.5</ele>
        <time>2024-05-26T11:29:58Z</time>
      </trkpt>
      <trkpt lat="48.80223" lon="2.24916">
        <ele>167.5</ele>
        <time>2024-05-26T11:29:59Z</time>
      </trkpt>
      <trkpt lat="48.80223" lon="2.24917">
        <ele>167.5</ele>
        <time>2024-05-26T11:30:00Z</time>
      </trkpt>
      <trkpt lat="48.80222" lon="2.24919">
        <ele>167.5</ele>
        <time>2024-05-26T11:30:01Z</time>
      </trkpt>
      <trkpt lat="48.80221" lon="2.24921">
        <ele>167.5</ele>
        <time>2024-05-26T11:30:02Z</time>
      </trkpt>
      <trkpt lat="48.80221" lon="2.24924">
        <ele>167.5</ele>
        <time>2024-05-26T11:30:03Z</time>
      </trkpt>
      <trkpt lat="48.80221" lon="2.24925">
        <ele>167.5</ele>
        <time>2024-05-26T11:30:04Z</time>
      </trkpt>
      <trkpt lat="48.80221" lon="2.24926">
        <ele>167.5</ele>
        <time>2024-05-26T11:30:05Z</time>
      </trkpt>
      <trkpt lat="48.8022" lon="2.24929">
        <ele>167.5</ele>
        <time>2024-05-26T11:30:06Z</time>
      </trkpt>
      <trkpt lat="48.80221" lon="2.2493">
        <ele>167.5</ele>
        <time>2024-05-26T11:30:07Z</time>
      </trkpt>
      <trkpt lat="48.80221" lon="2.24932">
        <ele>167.5</ele>
        <time>2024-05-26T11:30:08Z</time>
      </trkpt>
      <trkpt lat="48.80221" lon="2.24935">
        <ele>167.5</ele>
        <time>2024-05-26T11:30:09Z</time>
      </trkpt>
      <trkpt lat="48.80221" lon="2.24937">
        <ele>167.5</ele>
        <time>2024-05-26T11:30:10Z</time>
      </trkpt>
      <trkpt lat="48.80221" lon="2.2494">
        <ele>167.5</ele>
        <time>2024-05-26T11:30:11Z</time>
      </trkpt>
      <trkpt lat="48.80222" lon="2.24944">
        <ele>167.5</ele>
        <time>2024-05-26T11:30:12Z</time>
      </trkpt>
      <trkpt lat="48.80223" lon="2.24946">
        <ele>167.5</ele>
        <time>2024-05-26T11:30:13Z</time>
      </trkpt>
      <trkpt lat="48.80224" lon="2.24947">
        <ele>167.5</ele>
        <time>2024-05-26T11:30:14Z</time>
      </trkpt>
      <trkpt lat="48.80224" lon="2.24949">
        <ele>167.5</ele>
        <time>2024-05-26T11:30:15Z</time>
      </trkpt>
      <trkpt lat="48.80225" lon="2.24952">
        <ele>167.5</ele>
        <time>2024-05-26T11:30:16Z</time>
      </trkpt>
      <trkpt lat="48.80226" lon="2.24953">
        <ele>167.5</ele>
        <time>2024-05-26T11:30:17Z</time>
      </trkpt>
      <trkpt lat="48.80226" lon="2.24954">
        <ele>167.5</ele>
        <time>2024-05-26T11:30:18Z</time>
      </trkpt>
      <trkpt lat="48.80227" lon="2.24957">
        <ele>167.5</ele>
        <time>2024-05-26T11:30:19Z</time>
      </trkpt>
      <trkpt lat="48.80228" lon="2.24959">
        <ele>167.5</ele>
        <time>2024-05-26T11:30:20Z</time>
      </trkpt>
      <trkpt lat="48.80228" lon="2.24961">
        <ele>167.5</ele>
        <time>2024-05-26T11:30:21Z</time>
      </trkpt>
      <trkpt lat="48.80228" lon="2.24963">
        <ele>167.5</ele>
        <time>2024-05-26T11:30:22Z</time>
      </trkpt>
      <trkpt lat="48.80228" lon="2.24964">
        <ele>167.5</ele>
        <time>2024-05-26T11:30:23Z</time>
      </trkpt>
      <trkpt lat="48.80228" lon="2.24964">
        <ele>167.5</ele>
        <time>2024-05-26T11:30:24Z</time>
      </trkpt>
      <trkpt lat="48.80228" lon="2.24965">
        <ele>167.5</ele>
        <time>2024-05-26T11:30:25Z</time>
      </trkpt>
      <trkpt lat="48.80227" lon="2.24967">
        <ele>167.5</ele>
        <time>2024-05-26T11:30:26Z</time>
      </trkpt>
      <trkpt lat="48.80225" lon="2.2497">
        <ele>167.5</ele>
        <time>2024-05-26T11:30:27Z</time>
      </trkpt>
      <trkpt lat="48.80225" lon="2.24971">
        <ele>167.5</ele>
        <time>2024-05-26T11:30:28Z</time>
      </trkpt>
      <trkpt lat="48.80224" lon="2.24972">
        <ele>167.6</ele>
        <time>2024-05-26T11:30:29Z</time>
      </trkpt>
      <trkpt lat="48.80222" lon="2.24973">
        <ele>167.6</ele>
        <time>2024-05-26T11:30:30Z</time>
      </trkpt>
      <trkpt lat="48.80221" lon="2.24975">
        <ele>167.6</ele>
        <time>2024-05-26T11:30:31Z</time>
      </trkpt>
      <trkpt lat="48.80221" lon="2.24977">
        <ele>167.6</ele>
        <time>2024-05-26T11:30:32Z</time>
      </trkpt>
      <trkpt lat="48.8022" lon="2.24978">
        <ele>167.6</ele>
        <time>2024-05-26T11:30:33Z</time>
      </trkpt>
      <trkpt lat="48.80219" lon="2.2498">
        <ele>167.6</ele>
        <time>2024-05-26T11:30:34Z</time>
      </trkpt>
      <trkpt lat="48.8022" lon="2.24981">
        <ele>167.6</ele>
        <time>2024-05-26T11:30:35Z</time>
      </trkpt>
      <trkpt lat="48.80221" lon="2.24982">
        <ele>167.5</ele>
        <time>2024-05-26T11:30:36Z</time>
      </trkpt>
      <trkpt lat="48.80221" lon="2.24984">
        <ele>167.5</ele>
        <time>2024-05-26T11:30:37Z</time>
      </trkpt>
      <trkpt lat="48.8022" lon="2.24985">
        <ele>167.5</ele>
        <time>2024-05-26T11:30:38Z</time>
      </trkpt>
      <trkpt lat="48.8022" lon="2.24986">
        <ele>167.5</ele>
        <time>2024-05-26T11:30:39Z</time>
      </trkpt>
      <trkpt lat="48.80221" lon="2.24989">
        <ele>167.5</ele>
        <time>2024-05-26T11:30:40Z</time>
      </trkpt>
      <trkpt lat="48.80222" lon="2.2499">
        <ele>167.5</ele>
        <time>2024-05-26T11:30:41Z</time>
      </trkpt>
      <trkpt lat="48.80222" lon="2.24991">
        <ele>167.5</ele>
        <time>2024-05-26T11:30:42Z</time>
      </trkpt>
      <trkpt lat="48.80222" lon="2.24993">
        <ele>167.5</ele>
        <time>2024-05-26T11:30:43Z</time>
      </trkpt>
      <trkpt lat="48.80223" lon="2.24994">
        <ele>167.5</ele>
        <time>2024-05-26T11:30:44Z</time>
      </trkpt>
      <trkpt lat="48.80223" lon="2.24995">
        <ele>167.4</ele>
        <time>2024-05-26T11:30:45Z</time>
      </trkpt>
      <trkpt lat="48.80223" lon="2.24996">
        <ele>167.4</ele>
        <time>2024-05-26T11:30:46Z</time>
      </trkpt>
      <trkpt lat="48.80223" lon="2.24997">
        <ele>167.4</ele>
        <time>2024-05-26T11:30:47Z</time>
      </trkpt>
      <trkpt lat="48.80223" lon="2.24998">
        <ele>167.4</ele>
        <time>2024-05-26T11:30:48Z</time>
      </trkpt>
      <trkpt lat="48.80224" lon="2.24999">
        <ele>167.3</ele>
        <time>2024-05-26T11:30:49Z</time>
      </trkpt>
      <trkpt lat="48.80225" lon="2.25002">
        <ele>167.3</ele>
        <time>2024-05-26T11:30:50Z</time>
      </trkpt>
      <trkpt lat="48.80225" lon="2.25003">
        <ele>167.3</ele>
        <time>2024-05-26T11:30:51Z</time>
      </trkpt>
      <trkpt lat="48.80226" lon="2.25005">
        <ele>167.3</ele>
        <time>2024-05-26T11:30:52Z</time>
      </trkpt>
      <trkpt lat="48.80226" lon="2.25007">
        <ele>167.3</ele>
        <time>2024-05-26T11:30:53Z</time>
      </trkpt>
      <trkpt lat="48.80226" lon="2.25008">
        <ele>167.2</ele>
        <time>2024-05-26T11:30:54Z</time>
      </trkpt>
      <trkpt lat="48.80226" lon="2.25009">
        <ele>167.2</ele>
        <time>2024-05-26T11:30:55Z</time>
      </trkpt>
      <trkpt lat="48.80226" lon="2.2501">
        <ele>167.1</ele>
        <time>2024-05-26T11:30:56Z</time>
      </trkpt>
      <trkpt lat="48.80226" lon="2.25012">
        <ele>167.1</ele>
        <time>2024-05-26T11:30:57Z</time>
      </trkpt>
      <trkpt lat="48.80225" lon="2.25013">
        <ele>167.2</ele>
        <time>2024-05-26T11:30:58Z</time>
      </trkpt>
      <trkpt lat="48.80226" lon="2.25013">
        <ele>167.1</ele>
        <time>2024-05-26T11:30:59Z</time>
      </trkpt>
      <trkpt lat="48.80227" lon="2.25014">
        <ele>167</ele>
        <time>2024-05-26T11:31:00Z</time>
      </trkpt>
      <trkpt lat="48.80228" lon="2.25015">
        <ele>167</ele>
        <time>2024-05-26T11:31:01Z</time>
      </trkpt>
      <trkpt lat="48.80229" lon="2.25016">
        <ele>166.9</ele>
        <time>2024-05-26T11:31:02Z</time>
      </trkpt>
      <trkpt lat="48.80229" lon="2.25018">
        <ele>166.9</ele>
        <time>2024-05-26T11:31:03Z</time>
      </trkpt>
      <trkpt lat="48.80229" lon="2.25019">
        <ele>166.9</ele>
        <time>2024-05-26T11:31:04Z</time>
      </trkpt>
      <trkpt lat="48.8023" lon="2.25021">
        <ele>166.8</ele>
        <time>2024-05-26T11:31:05Z</time>
      </trkpt>
      <trkpt lat="48.80231" lon="2.25023">
        <ele>166.8</ele>
        <time>2024-05-26T11:31:06Z</time>
      </trkpt>
      <trkpt lat="48.80231" lon="2.25024">
        <ele>166.8</ele>
        <time>2024-05-26T11:31:07Z</time>
      </trkpt>
      <trkpt lat="48.80232" lon="2.25026">
        <ele>166.7</ele>
        <time>2024-05-26T11:31:08Z</time>
      </trkpt>
      <trkpt lat="48.80232" lon="2.25026">
        <ele>166.7</ele>
        <time>2024-05-26T11:31:09Z</time>
      </trkpt>
      <trkpt lat="48.80233" lon="2.25029">
        <ele>166.6</ele>
        <time>2024-05-26T11:31:10Z</time>
      </trkpt>
      <trkpt lat="48.80234" lon="2.2503">
        <ele>166.6</ele>
        <time>2024-05-26T11:31:11Z</time>
      </trkpt>
      <trkpt lat="48.80234" lon="2.25031">
        <ele>166.5</ele>
        <time>2024-05-26T11:31:12Z</time>
      </trkpt>
      <trkpt lat="48.80237" lon="2.25034">
        <ele>166.4</ele>
        <time>2024-05-26T11:31:13Z</time>
      </trkpt>
      <trkpt lat="48.80238" lon="2.25035">
        <ele>166.2</ele>
        <time>2024-05-26T11:31:14Z</time>
      </trkpt>
      <trkpt lat="48.8024" lon="2.25039">
        <ele>166.2</ele>
        <time>2024-05-26T11:31:15Z</time>
      </trkpt>
      <trkpt lat="48.8024" lon="2.25039">
        <ele>166.1</ele>
        <time>2024-05-26T11:31:16Z</time>
      </trkpt>
      <trkpt lat="48.80242" lon="2.25041">
        <ele>166</ele>
        <time>2024-05-26T11:31:17Z</time>
      </trkpt>
      <trkpt lat="48.80243" lon="2.25044">
        <ele>165.9</ele>
        <time>2024-05-26T11:31:18Z</time>
      </trkpt>
      <trkpt lat="48.80243" lon="2.25046">
        <ele>165.8</ele>
        <time>2024-05-26T11:31:19Z</time>
      </trkpt>
      <trkpt lat="48.80243" lon="2.25047">
        <ele>165.8</ele>
        <time>2024-05-26T11:31:20Z</time>
      </trkpt>
      <trkpt lat="48.80244" lon="2.25048">
        <ele>165.8</ele>
        <time>2024-05-26T11:31:21Z</time>
      </trkpt>
      <trkpt lat="48.80244" lon="2.25049">
        <ele>165.7</ele>
        <time>2024-05-26T11:31:22Z</time>
      </trkpt>
      <trkpt lat="48.80246" lon="2.2505">
        <ele>165.6</ele>
        <time>2024-05-26T11:31:23Z</time>
      </trkpt>
      <trkpt lat="48.80247" lon="2.2505">
        <ele>165.5</ele>
        <time>2024-05-26T11:31:24Z</time>
      </trkpt>
      <trkpt lat="48.80248" lon="2.25051">
        <ele>165.5</ele>
        <time>2024-05-26T11:31:25Z</time>
      </trkpt>
      <trkpt lat="48.8025" lon="2.25053">
        <ele>165.4</ele>
        <time>2024-05-26T11:31:26Z</time>
      </trkpt>
      <trkpt lat="48.80251" lon="2.25053">
        <ele>165.3</ele>
        <time>2024-05-26T11:31:27Z</time>
      </trkpt>
      <trkpt lat="48.80252" lon="2.25054">
        <ele>165.3</ele>
        <time>2024-05-26T11:31:28Z</time>
      </trkpt>
      <trkpt lat="48.80253" lon="2.25054">
        <ele>165.3</ele>
        <time>2024-05-26T11:31:29Z</time>
      </trkpt>
      <trkpt lat="48.80255" lon="2.25054">
        <ele>165.2</ele>
        <time>2024-05-26T11:31:30Z</time>
      </trkpt>
      <trkpt lat="48.80256" lon="2.25053">
        <ele>165.2</ele>
        <time>2024-05-26T11:31:31Z</time>
      </trkpt>
      <trkpt lat="48.80257" lon="2.25053">
        <ele>165.1</ele>
        <time>2024-05-26T11:31:32Z</time>
      </trkpt>
      <trkpt lat="48.80258" lon="2.25052">
        <ele>165.1</ele>
        <time>2024-05-26T11:31:33Z</time>
      </trkpt>
      <trkpt lat="48.80259" lon="2.25052">
        <ele>165.1</ele>
        <time>2024-05-26T11:31:34Z</time>
      </trkpt>
      <trkpt lat="48.80261" lon="2.2505">
        <ele>165</ele>
        <time>2024-05-26T11:31:35Z</time>
      </trkpt>
      <trkpt lat="48.80262" lon="2.2505">
        <ele>164.9</ele>
        <time>2024-05-26T11:31:36Z</time>
      </trkpt>
      <trkpt lat="48.80263" lon="2.25049">
        <ele>164.8</ele>
        <time>2024-05-26T11:31:37Z</time>
      </trkpt>
      <trkpt lat="48.80263" lon="2.25048">
        <ele>164.8</ele>
        <time>2024-05-26T11:31:38Z</time>
      </trkpt>
      <trkpt lat="48.80264" lon="2.25048">
        <ele>164.8</ele>
        <time>2024-05-26T11:31:39Z</time>
      </trkpt>
      <trkpt lat="48.80265" lon="2.25048">
        <ele>164.7</ele>
        <time>2024-05-26T11:31:40Z</time>
      </trkpt>
      <trkpt lat="48.80266" lon="2.25049">
        <ele>164.7</ele>
        <time>2024-05-26T11:31:41Z</time>
      </trkpt>
      <trkpt lat="48.80268" lon="2.25049">
        <ele>164.6</ele>
        <time>2024-05-26T11:31:42Z</time>
      </trkpt>
      <trkpt lat="48.80268" lon="2.25049">
        <ele>164.5</ele>
        <time>2024-05-26T11:31:43Z</time>
      </trkpt>
      <trkpt lat="48.80269" lon="2.25049">
        <ele>164.5</ele>
        <time>2024-05-26T11:31:44Z</time>
      </trkpt>
      <trkpt lat="48.80269" lon="2.2505">
        <ele>164.5</ele>
        <time>2024-05-26T11:31:45Z</time>
      </trkpt>
      <trkpt lat="48.8027" lon="2.25051">
        <ele>164.4</ele>
        <time>2024-05-26T11:31:46Z</time>
      </trkpt>
      <trkpt lat="48.80271" lon="2.25051">
        <ele>164.4</ele>
        <time>2024-05-26T11:31:47Z</time>
      </trkpt>
      <trkpt lat="48.80271" lon="2.25052">
        <ele>164.3</ele>
        <time>2024-05-26T11:31:48Z</time>
      </trkpt>
      <trkpt lat="48.80272" lon="2.25053">
        <ele>164.3</ele>
        <time>2024-05-26T11:31:49Z</time>
      </trkpt>
      <trkpt lat="48.80273" lon="2.25053">
        <ele>164.2</ele>
        <time>2024-05-26T11:31:50Z</time>
      </trkpt>
      <trkpt lat="48.80275" lon="2.25055">
        <ele>164.1</ele>
        <time>2024-05-26T11:31:51Z</time>
      </trkpt>
      <trkpt lat="48.80275" lon="2.25055">
        <ele>164</ele>
        <time>2024-05-26T11:31:52Z</time>
      </trkpt>
      <trkpt lat="48.80276" lon="2.25056">
        <ele>164</ele>
        <time>2024-05-26T11:31:53Z</time>
      </trkpt>
      <trkpt lat="48.80277" lon="2.25056">
        <ele>164</ele>
        <time>2024-05-26T11:31:54Z</time>
      </trkpt>
      <trkpt lat="48.80278" lon="2.25057">
        <ele>163.8</ele>
        <time>2024-05-26T11:31:55Z</time>
      </trkpt>
      <trkpt lat="48.80279" lon="2.25058">
        <ele>163.8</ele>
        <time>2024-05-26T11:31:56Z</time>
      </trkpt>
      <trkpt lat="48.8028" lon="2.25059">
        <ele>163.6</ele>
        <time>2024-05-26T11:31:57Z</time>
      </trkpt>
      <trkpt lat="48.8028" lon="2.2506">
        <ele>163.6</ele>
        <time>2024-05-26T11:31:58Z</time>
      </trkpt>
      <trkpt lat="48.80281" lon="2.2506">
        <ele>163.5</ele>
        <time>2024-05-26T11:31:59Z</time>
      </trkpt>
      <trkpt lat="48.80281" lon="2.25061">
        <ele>163.5</ele>
        <time>2024-05-26T11:32:00Z</time>
      </trkpt>
      <trkpt lat="48.80282" lon="2.25061">
        <ele>163.5</ele>
        <time>2024-05-26T11:32:01Z</time>
      </trkpt>
      <trkpt lat="48.80283" lon="2.25061">
        <ele>163.3</ele>
        <time>2024-05-26T11:32:02Z</time>
      </trkpt>
      <trkpt lat="48.80285" lon="2.25061">
        <ele>163.3</ele>
        <time>2024-05-26T11:32:03Z</time>
      </trkpt>
      <trkpt lat="48.80285" lon="2.25062">
        <ele>163.1</ele>
        <time>2024-05-26T11:32:04Z</time>
      </trkpt>
      <trkpt lat="48.80286" lon="2.25063">
        <ele>163</ele>
        <time>2024-05-26T11:32:05Z</time>
      </trkpt>
      <trkpt lat="48.80288" lon="2.25064">
        <ele>163</ele>
        <time>2024-05-26T11:32:06Z</time>
      </trkpt>
      <trkpt lat="48.80289" lon="2.25066">
        <ele>162.8</ele>
        <time>2024-05-26T11:32:07Z</time>
      </trkpt>
      <trkpt lat="48.8029" lon="2.25067">
        <ele>162.8</ele>
        <time>2024-05-26T11:32:08Z</time>
      </trkpt>
      <trkpt lat="48.80291" lon="2.25069">
        <ele>162.6</ele>
        <time>2024-05-26T11:32:09Z</time>
      </trkpt>
      <trkpt lat="48.80292" lon="2.2507">
        <ele>162.6</ele>
        <time>2024-05-26T11:32:10Z</time>
      </trkpt>
      <trkpt lat="48.80293" lon="2.2507">
        <ele>162.6</ele>
        <time>2024-05-26T11:32:11Z</time>
      </trkpt>
      <trkpt lat="48.80295" lon="2.25071">
        <ele>162.4</ele>
        <time>2024-05-26T11:32:12Z</time>
      </trkpt>
      <trkpt lat="48.80296" lon="2.25072">
        <ele>162.4</ele>
        <time>2024-05-26T11:32:13Z</time>
      </trkpt>
      <trkpt lat="48.80297" lon="2.25073">
        <ele>162.2</ele>
        <time>2024-05-26T11:32:14Z</time>
      </trkpt>
      <trkpt lat="48.80299" lon="2.25074">
        <ele>162.2</ele>
        <time>2024-05-26T11:32:15Z</time>
      </trkpt>
      <trkpt lat="48.80299" lon="2.25075">
        <ele>162</ele>
        <time>2024-05-26T11:32:16Z</time>
      </trkpt>
      <trkpt lat="48.803" lon="2.25074">
        <ele>162</ele>
        <time>2024-05-26T11:32:17Z</time>
      </trkpt>
      <trkpt lat="48.80301" lon="2.25073">
        <ele>162</ele>
        <time>2024-05-26T11:32:18Z</time>
      </trkpt>
      <trkpt lat="48.80301" lon="2.25073">
        <ele>162</ele>
        <time>2024-05-26T11:32:19Z</time>
      </trkpt>
      <trkpt lat="48.80301" lon="2.25073">
        <ele>162</ele>
        <time>2024-05-26T11:32:20Z</time>
      </trkpt>
      <trkpt lat="48.80301" lon="2.25073">
        <ele>161.9</ele>
        <time>2024-05-26T11:32:21Z</time>
      </trkpt>
      <trkpt lat="48.80301" lon="2.25074">
        <ele>161.9</ele>
        <time>2024-05-26T11:32:22Z</time>
      </trkpt>
      <trkpt lat="48.80301" lon="2.25075">
        <ele>161.9</ele>
        <time>2024-05-26T11:32:23Z</time>
      </trkpt>
      <trkpt lat="48.80302" lon="2.25077">
        <ele>161.8</ele>
        <time>2024-05-26T11:32:24Z</time>
      </trkpt>
      <trkpt lat="48.80303" lon="2.25078">
        <ele>161.7</ele>
        <time>2024-05-26T11:32:25Z</time>
      </trkpt>
      <trkpt lat="48.80305" lon="2.25078">
        <ele>161.6</ele>
        <time>2024-05-26T11:32:26Z</time>
      </trkpt>
      <trkpt lat="48.80305" lon="2.25077">
        <ele>161.4</ele>
        <time>2024-05-26T11:32:27Z</time>
      </trkpt>
      <trkpt lat="48.80306" lon="2.25077">
        <ele>161.4</ele>
        <time>2024-05-26T11:32:28Z</time>
      </trkpt>
      <trkpt lat="48.80307" lon="2.25077">
        <ele>161.4</ele>
        <time>2024-05-26T11:32:29Z</time>
      </trkpt>
      <trkpt lat="48.80307" lon="2.25077">
        <ele>161.4</ele>
        <time>2024-05-26T11:32:30Z</time>
      </trkpt>
      <trkpt lat="48.80308" lon="2.25078">
        <ele>161.1</ele>
        <time>2024-05-26T11:32:31Z</time>
      </trkpt>
      <trkpt lat="48.80309" lon="2.2508">
        <ele>161.1</ele>
        <time>2024-05-26T11:32:32Z</time>
      </trkpt>
      <trkpt lat="48.80311" lon="2.2508">
        <ele>160.9</ele>
        <time>2024-05-26T11:32:33Z</time>
      </trkpt>
      <trkpt lat="48.80312" lon="2.2508">
        <ele>160.8</ele>
        <time>2024-05-26T11:32:34Z</time>
      </trkpt>
      <trkpt lat="48.80314" lon="2.2508">
        <ele>160.6</ele>
        <time>2024-05-26T11:32:35Z</time>
      </trkpt>
      <trkpt lat="48.80315" lon="2.2508">
        <ele>160.6</ele>
        <time>2024-05-26T11:32:36Z</time>
      </trkpt>
      <trkpt lat="48.80315" lon="2.2508">
        <ele>160.6</ele>
        <time>2024-05-26T11:32:37Z</time>
      </trkpt>
      <trkpt lat="48.80315" lon="2.25079">
        <ele>160.6</ele>
        <time>2024-05-26T11:32:38Z</time>
      </trkpt>
      <trkpt lat="48.80316" lon="2.25079">
        <ele>160.6</ele>
        <time>2024-05-26T11:32:39Z</time>
      </trkpt>
      <trkpt lat="48.80316" lon="2.2508">
        <ele>160.5</ele>
        <time>2024-05-26T11:32:40Z</time>
      </trkpt>
      <trkpt lat="48.80317" lon="2.25081">
        <ele>160.3</ele>
        <time>2024-05-26T11:32:41Z</time>
      </trkpt>
      <trkpt lat="48.80319" lon="2.25082">
        <ele>160.3</ele>
        <time>2024-05-26T11:32:42Z</time>
      </trkpt>
      <trkpt lat="48.8032" lon="2.25081">
        <ele>160.1</ele>
        <time>2024-05-26T11:32:43Z</time>
      </trkpt>
      <trkpt lat="48.80319" lon="2.25084">
        <ele>159.9</ele>
        <time>2024-05-26T11:32:44Z</time>
      </trkpt>
      <trkpt lat="48.8032" lon="2.25084">
        <ele>159.9</ele>
        <time>2024-05-26T11:32:45Z</time>
      </trkpt>
      <trkpt lat="48.80321" lon="2.25085">
        <ele>159.9</ele>
        <time>2024-05-26T11:32:46Z</time>
      </trkpt>
      <trkpt lat="48.80323" lon="2.25087">
        <ele>159.5</ele>
        <time>2024-05-26T11:32:47Z</time>
      </trkpt>
      <trkpt lat="48.80324" lon="2.25088">
        <ele>159.5</ele>
        <time>2024-05-26T11:32:48Z</time>
      </trkpt>
      <trkpt lat="48.80325" lon="2.25088">
        <ele>159.2</ele>
        <time>2024-05-26T11:32:49Z</time>
      </trkpt>
      <trkpt lat="48.80325" lon="2.25087">
        <ele>159.2</ele>
        <time>2024-05-26T11:32:50Z</time>
      </trkpt>
      <trkpt lat="48.80326" lon="2.25087">
        <ele>159.2</ele>
        <time>2024-05-26T11:32:51Z</time>
      </trkpt>
      <trkpt lat="48.80327" lon="2.25087">
        <ele>159.2</ele>
        <time>2024-05-26T11:32:52Z</time>
      </trkpt>
      <trkpt lat="48.80328" lon="2.25088">
        <ele>158.9</ele>
        <time>2024-05-26T11:32:53Z</time>
      </trkpt>
      <trkpt lat="48.80329" lon="2.25089">
        <ele>158.9</ele>
        <time>2024-05-26T11:32:54Z</time>
      </trkpt>
      <trkpt lat="48.8033" lon="2.25089">
        <ele>158.9</ele>
        <time>2024-05-26T11:32:55Z</time>
      </trkpt>
      <trkpt lat="48.80331" lon="2.25089">
        <ele>158.6</ele>
        <time>2024-05-26T11:32:56Z</time>
      </trkpt>
      <trkpt lat="48.80332" lon="2.2509">
        <ele>158.6</ele>
        <time>2024-05-26T11:32:57Z</time>
      </trkpt>
      <trkpt lat="48.80333" lon="2.25091">
        <ele>158.4</ele>
        <time>2024-05-26T11:32:58Z</time>
      </trkpt>
      <trkpt lat="48.80333" lon="2.25092">
        <ele>158.2</ele>
        <time>2024-05-26T11:32:59Z</time>
      </trkpt>
      <trkpt lat="48.80334" lon="2.25093">
        <ele>158.1</ele>
        <time>2024-05-26T11:33:00Z</time>
      </trkpt>
      <trkpt lat="48.80334" lon="2.25094">
        <ele>158.1</ele>
        <time>2024-05-26T11:33:01Z</time>
      </trkpt>
      <trkpt lat="48.80334" lon="2.25095">
        <ele>158.1</ele>
        <time>2024-05-26T11:33:02Z</time>
      </trkpt>
      <trkpt lat="48.80334" lon="2.25095">
        <ele>158.1</ele>
        <time>2024-05-26T11:33:03Z</time>
      </trkpt>
      <trkpt lat="48.80335" lon="2.25096">
        <ele>157.9</ele>
        <time>2024-05-26T11:33:04Z</time>
      </trkpt>
      <trkpt lat="48.80334" lon="2.25096">
        <ele>157.9</ele>
        <time>2024-05-26T11:33:05Z</time>
      </trkpt>
      <trkpt lat="48.80335" lon="2.25095">
        <ele>158</ele>
        <time>2024-05-26T11:33:06Z</time>
      </trkpt>
      <trkpt lat="48.80335" lon="2.25095">
        <ele>158</ele>
        <time>2024-05-26T11:33:07Z</time>
      </trkpt>
      <trkpt lat="48.80335" lon="2.25095">
        <ele>158</ele>
        <time>2024-05-26T11:33:08Z</time>
      </trkpt>
      <trkpt lat="48.80335" lon="2.25095">
        <ele>158</ele>
        <time>2024-05-26T11:33:09Z</time>
      </trkpt>
      <trkpt lat="48.80335" lon="2.25095">
        <ele>158</ele>
        <time>2024-05-26T11:33:10Z</time>
      </trkpt>
      <trkpt lat="48.80335" lon="2.25095">
        <ele>157.9</ele>
        <time>2024-05-26T11:33:11Z</time>
      </trkpt>
      <trkpt lat="48.80335" lon="2.251">
        <ele>157.6</ele>
        <time>2024-05-26T11:33:12Z</time>
      </trkpt>
      <trkpt lat="48.80335" lon="2.251">
        <ele>157.6</ele>
        <time>2024-05-26T11:33:13Z</time>
      </trkpt>
      <trkpt lat="48.80335" lon="2.251">
        <ele>157.6</ele>
        <time>2024-05-26T11:33:14Z</time>
      </trkpt>
      <trkpt lat="48.80335" lon="2.251">
        <ele>157.5</ele>
        <time>2024-05-26T11:33:15Z</time>
      </trkpt>
      <trkpt lat="48.80335" lon="2.251">
        <ele>157.5</ele>
        <time>2024-05-26T11:33:16Z</time>
      </trkpt>
      <trkpt lat="48.80336" lon="2.25102">
        <ele>157.5</ele>
        <time>2024-05-26T11:33:17Z</time>
      </trkpt>
      <trkpt lat="48.80336" lon="2.25101">
        <ele>157.2</ele>
        <time>2024-05-26T11:33:18Z</time>
      </trkpt>
      <trkpt lat="48.80336" lon="2.25101">
        <ele>157.2</ele>
        <time>2024-05-26T11:33:19Z</time>
      </trkpt>
      <trkpt lat="48.80336" lon="2.25101">
        <ele>157.2</ele>
        <time>2024-05-26T11:33:20Z</time>
      </trkpt>
      <trkpt lat="48.80335" lon="2.25101">
        <ele>157.1</ele>
        <time>2024-05-26T11:33:21Z</time>
      </trkpt>
      <trkpt lat="48.80335" lon="2.25101">
        <ele>157</ele>
        <time>2024-05-26T11:33:22Z</time>
      </trkpt>
      <trkpt lat="48.80335" lon="2.25102">
        <ele>156.9</ele>
        <time>2024-05-26T11:33:23Z</time>
      </trkpt>
      <trkpt lat="48.80334" lon="2.25103">
        <ele>156.8</ele>
        <time>2024-05-26T11:33:24Z</time>
      </trkpt>
      <trkpt lat="48.80334" lon="2.25104">
        <ele>156.7</ele>
        <time>2024-05-26T11:33:25Z</time>
      </trkpt>
      <trkpt lat="48.80333" lon="2.25105">
        <ele>156.6</ele>
        <time>2024-05-26T11:33:26Z</time>
      </trkpt>
      <trkpt lat="48.80333" lon="2.25105">
        <ele>156.6</ele>
        <time>2024-05-26T11:33:27Z</time>
      </trkpt>
      <trkpt lat="48.80333" lon="2.25106">
        <ele>156.5</ele>
        <time>2024-05-26T11:33:28Z</time>
      </trkpt>
      <trkpt lat="48.80334" lon="2.25107">
        <ele>156.4</ele>
        <time>2024-05-26T11:33:29Z</time>
      </trkpt>
      <trkpt lat="48.80335" lon="2.25108">
        <ele>156.2</ele>
        <time>2024-05-26T11:33:30Z</time>
      </trkpt>
      <trkpt lat="48.80336" lon="2.25109">
        <ele>156.1</ele>
        <time>2024-05-26T11:33:31Z</time>
      </trkpt>
      <trkpt lat="48.80336" lon="2.2511">
        <ele>156</ele>
        <time>2024-05-26T11:33:32Z</time>
      </trkpt>
      <trkpt lat="48.80335" lon="2.25111">
        <ele>155.9</ele>
        <time>2024-05-26T11:33:33Z</time>
      </trkpt>
      <trkpt lat="48.80335" lon="2.25111">
        <ele>155.8</ele>
        <time>2024-05-26T11:33:34Z</time>
      </trkpt>
      <trkpt lat="48.80335" lon="2.25112">
        <ele>155.7</ele>
        <time>2024-05-26T11:33:35Z</time>
      </trkpt>
      <trkpt lat="48.80335" lon="2.25113">
        <ele>155.6</ele>
        <time>2024-05-26T11:33:36Z</time>
      </trkpt>
      <trkpt lat="48.80334" lon="2.25113">
        <ele>155.5</ele>
        <time>2024-05-26T11:33:37Z</time>
      </trkpt>
      <trkpt lat="48.80332" lon="2.25115">
        <ele>155.2</ele>
        <time>2024-05-26T11:33:38Z</time>
      </trkpt>
      <trkpt lat="48.80332" lon="2.25116">
        <ele>155.1</ele>
        <time>2024-05-26T11:33:39Z</time>
      </trkpt>
      <trkpt lat="48.80331" lon="2.25118">
        <ele>154.9</ele>
        <time>2024-05-26T11:33:40Z</time>
      </trkpt>
      <trkpt lat="48.80331" lon="2.25119">
        <ele>154.8</ele>
        <time>2024-05-26T11:33:41Z</time>
      </trkpt>
      <trkpt lat="48.80331" lon="2.25121">
        <ele>154.6</ele>
        <time>2024-05-26T11:33:42Z</time>
      </trkpt>
      <trkpt lat="48.80331" lon="2.25122">
        <ele>154.5</ele>
        <time>2024-05-26T11:33:43Z</time>
      </trkpt>
      <trkpt lat="48.80331" lon="2.25124">
        <ele>154.3</ele>
        <time>2024-05-26T11:33:44Z</time>
      </trkpt>
      <trkpt lat="48.80331" lon="2.25125">
        <ele>154.2</ele>
        <time>2024-05-26T11:33:45Z</time>
      </trkpt>
      <trkpt lat="48.8033" lon="2.25127">
        <ele>154</ele>
        <time>2024-05-26T11:33:46Z</time>
      </trkpt>
      <trkpt lat="48.80331" lon="2.25128">
        <ele>153.8</ele>
        <time>2024-05-26T11:33:47Z</time>
      </trkpt>
      <trkpt lat="48.80332" lon="2.25129">
        <ele>153.6</ele>
        <time>2024-05-26T11:33:48Z</time>
      </trkpt>
      <trkpt lat="48.80332" lon="2.2513">
        <ele>153.6</ele>
        <time>2024-05-26T11:33:49Z</time>
      </trkpt>
      <trkpt lat="48.80332" lon="2.25131">
        <ele>153.4</ele>
        <time>2024-05-26T11:33:50Z</time>
      </trkpt>
      <trkpt lat="48.80332" lon="2.25133">
        <ele>153.2</ele>
        <time>2024-05-26T11:33:51Z</time>
      </trkpt>
      <trkpt lat="48.80332" lon="2.25134">
        <ele>153.1</ele>
        <time>2024-05-26T11:33:52Z</time>
      </trkpt>
      <trkpt lat="48.80332" lon="2.25136">
        <ele>152.9</ele>
        <time>2024-05-26T11:33:53Z</time>
      </trkpt>
      <trkpt lat="48.80331" lon="2.25137">
        <ele>152.8</ele>
        <time>2024-05-26T11:33:54Z</time>
      </trkpt>
      <trkpt lat="48.80332" lon="2.25138">
        <ele>152.7</ele>
        <time>2024-05-26T11:33:55Z</time>
      </trkpt>
      <trkpt lat="48.80332" lon="2.2514">
        <ele>152.5</ele>
        <time>2024-05-26T11:33:56Z</time>
      </trkpt>
      <trkpt lat="48.80333" lon="2.25139">
        <ele>152.4</ele>
        <time>2024-05-26T11:33:57Z</time>
      </trkpt>
      <trkpt lat="48.80333" lon="2.25141">
        <ele>152.2</ele>
        <time>2024-05-26T11:33:58Z</time>
      </trkpt>
      <trkpt lat="48.80333" lon="2.25141">
        <ele>152.1</ele>
        <time>2024-05-26T11:33:59Z</time>
      </trkpt>
      <trkpt lat="48.80333" lon="2.25142">
        <ele>152</ele>
        <time>2024-05-26T11:34:00Z</time>
      </trkpt>
      <trkpt lat="48.80333" lon="2.25144">
        <ele>151.8</ele>
        <time>2024-05-26T11:34:01Z</time>
      </trkpt>
      <trkpt lat="48.80334" lon="2.25145">
        <ele>151.7</ele>
        <time>2024-05-26T11:34:02Z</time>
      </trkpt>
      <trkpt lat="48.80333" lon="2.25146">
        <ele>151.6</ele>
        <time>2024-05-26T11:34:03Z</time>
      </trkpt>
      <trkpt lat="48.80334" lon="2.25147">
        <ele>151.5</ele>
        <time>2024-05-26T11:34:04Z</time>
      </trkpt>
      <trkpt lat="48.80334" lon="2.25149">
        <ele>151.3</ele>
        <time>2024-05-26T11:34:05Z</time>
      </trkpt>
      <trkpt lat="48.80334" lon="2.25149">
        <ele>151.3</ele>
        <time>2024-05-26T11:34:06Z</time>
      </trkpt>
      <trkpt lat="48.80334" lon="2.25149">
        <ele>151.3</ele>
        <time>2024-05-26T11:34:07Z</time>
      </trkpt>
      <trkpt lat="48.80334" lon="2.25151">
        <ele>151.1</ele>
        <time>2024-05-26T11:34:08Z</time>
      </trkpt>
      <trkpt lat="48.80335" lon="2.25152">
        <ele>151</ele>
        <time>2024-05-26T11:34:09Z</time>
      </trkpt>
      <trkpt lat="48.80333" lon="2.25154">
        <ele>150.7</ele>
        <time>2024-05-26T11:34:10Z</time>
      </trkpt>
      <trkpt lat="48.80333" lon="2.25155">
        <ele>150.6</ele>
        <time>2024-05-26T11:34:11Z</time>
      </trkpt>
      <trkpt lat="48.80332" lon="2.25157">
        <ele>150.4</ele>
        <time>2024-05-26T11:34:12Z</time>
      </trkpt>
      <trkpt lat="48.80331" lon="2.25161">
        <ele>150</ele>
        <time>2024-05-26T11:34:13Z</time>
      </trkpt>
      <trkpt lat="48.80331" lon="2.25162">
        <ele>149.9</ele>
        <time>2024-05-26T11:34:14Z</time>
      </trkpt>
      <trkpt lat="48.80331" lon="2.25163">
        <ele>149.8</ele>
        <time>2024-05-26T11:34:15Z</time>
      </trkpt>
      <trkpt lat="48.80331" lon="2.25164">
        <ele>149.7</ele>
        <time>2024-05-26T11:34:16Z</time>
      </trkpt>
      <trkpt lat="48.80331" lon="2.25164">
        <ele>149.7</ele>
        <time>2024-05-26T11:34:17Z</time>
      </trkpt>
      <trkpt lat="48.80332" lon="2.25164">
        <ele>149.5</ele>
        <time>2024-05-26T11:34:18Z</time>
      </trkpt>
      <trkpt lat="48.80333" lon="2.25166">
        <ele>149.3</ele>
        <time>2024-05-26T11:34:19Z</time>
      </trkpt>
      <trkpt lat="48.80332" lon="2.25168">
        <ele>149.1</ele>
        <time>2024-05-26T11:34:20Z</time>
      </trkpt>
      <trkpt lat="48.80332" lon="2.25169">
        <ele>149</ele>
        <time>2024-05-26T11:34:21Z</time>
      </trkpt>
      <trkpt lat="48.80332" lon="2.2517">
        <ele>148.9</ele>
        <time>2024-05-26T11:34:22Z</time>
      </trkpt>
      <trkpt lat="48.80331" lon="2.25171">
        <ele>148.8</ele>
        <time>2024-05-26T11:34:23Z</time>
      </trkpt>
      <trkpt lat="48.80331" lon="2.25174">
        <ele>148.5</ele>
        <time>2024-05-26T11:34:24Z</time>
      </trkpt>
      <trkpt lat="48.80331" lon="2.25177">
        <ele>148.3</ele>
        <time>2024-05-26T11:34:25Z</time>
      </trkpt>
      <trkpt lat="48.80331" lon="2.25179">
        <ele>148.1</ele>
        <time>2024-05-26T11:34:26Z</time>
      </trkpt>
      <trkpt lat="48.80332" lon="2.25181">
        <ele>147.9</ele>
        <time>2024-05-26T11:34:27Z</time>
      </trkpt>
      <trkpt lat="48.80332" lon="2.25182">
        <ele>147.7</ele>
        <time>2024-05-26T11:34:28Z</time>
      </trkpt>
      <trkpt lat="48.80333" lon="2.25185">
        <ele>147.4</ele>
        <time>2024-05-26T11:34:29Z</time>
      </trkpt>
      <trkpt lat="48.80334" lon="2.25188">
        <ele>147.1</ele>
        <time>2024-05-26T11:34:30Z</time>
      </trkpt>
      <trkpt lat="48.80333" lon="2.25189">
        <ele>147</ele>
        <time>2024-05-26T11:34:31Z</time>
      </trkpt>
      <trkpt lat="48.80333" lon="2.2519">
        <ele>146.9</ele>
        <time>2024-05-26T11:34:32Z</time>
      </trkpt>
      <trkpt lat="48.80334" lon="2.25194">
        <ele>146.5</ele>
        <time>2024-05-26T11:34:33Z</time>
      </trkpt>
      <trkpt lat="48.80335" lon="2.25197">
        <ele>146.2</ele>
        <time>2024-05-26T11:34:34Z</time>
      </trkpt>
      <trkpt lat="48.80335" lon="2.25199">
        <ele>146</ele>
        <time>2024-05-26T11:34:35Z</time>
      </trkpt>
      <trkpt lat="48.80336" lon="2.25202">
        <ele>145.7</ele>
        <time>2024-05-26T11:34:36Z</time>
      </trkpt>
      <trkpt lat="48.80336" lon="2.25204">
        <ele>145.5</ele>
        <time>2024-05-26T11:34:37Z</time>
      </trkpt>
      <trkpt lat="48.80337" lon="2.25206">
        <ele>145.3</ele>
        <time>2024-05-26T11:34:38Z</time>
      </trkpt>
      <trkpt lat="48.80338" lon="2.25207">
        <ele>145</ele>
        <time>2024-05-26T11:34:39Z</time>
      </trkpt>
      <trkpt lat="48.80339" lon="2.25208">
        <ele>144.9</ele>
        <time>2024-05-26T11:34:40Z</time>
      </trkpt>
      <trkpt lat="48.80341" lon="2.2521">
        <ele>144.6</ele>
        <time>2024-05-26T11:34:41Z</time>
      </trkpt>
      <trkpt lat="48.80341" lon="2.25211">
        <ele>144.5</ele>
        <time>2024-05-26T11:34:42Z</time>
      </trkpt>
      <trkpt lat="48.8034" lon="2.25213">
        <ele>144.4</ele>
        <time>2024-05-26T11:34:43Z</time>
      </trkpt>
      <trkpt lat="48.8034" lon="2.25214">
        <ele>144.2</ele>
        <time>2024-05-26T11:34:44Z</time>
      </trkpt>
      <trkpt lat="48.80341" lon="2.25217">
        <ele>144</ele>
        <time>2024-05-26T11:34:45Z</time>
      </trkpt>
      <trkpt lat="48.80341" lon="2.25219">
        <ele>143.8</ele>
        <time>2024-05-26T11:34:46Z</time>
      </trkpt>
      <trkpt lat="48.80341" lon="2.2522">
        <ele>143.7</ele>
        <time>2024-05-26T11:34:47Z</time>
      </trkpt>
      <trkpt lat="48.80342" lon="2.25223">
        <ele>143.5</ele>
        <time>2024-05-26T11:34:48Z</time>
      </trkpt>
      <trkpt lat="48.80342" lon="2.25224">
        <ele>143.4</ele>
        <time>2024-05-26T11:34:49Z</time>
      </trkpt>
      <trkpt lat="48.80342" lon="2.25225">
        <ele>143.3</ele>
        <time>2024-05-26T11:34:50Z</time>
      </trkpt>
      <trkpt lat="48.80343" lon="2.25226">
        <ele>143.1</ele>
        <time>2024-05-26T11:34:51Z</time>
      </trkpt>
      <trkpt lat="48.80344" lon="2.25227">
        <ele>143.1</ele>
        <time>2024-05-26T11:34:52Z</time>
      </trkpt>
      <trkpt lat="48.80344" lon="2.25228">
        <ele>142.9</ele>
        <time>2024-05-26T11:34:53Z</time>
      </trkpt>
      <trkpt lat="48.80344" lon="2.25232">
        <ele>142.7</ele>
        <time>2024-05-26T11:34:55Z</time>
      </trkpt>
      <trkpt lat="48.80344" lon="2.25233">
        <ele>142.6</ele>
        <time>2024-05-26T11:34:56Z</time>
      </trkpt>
      <trkpt lat="48.80343" lon="2.25234">
        <ele>142.5</ele>
        <time>2024-05-26T11:34:57Z</time>
      </trkpt>
      <trkpt lat="48.80343" lon="2.25236">
        <ele>142.4</ele>
        <time>2024-05-26T11:34:58Z</time>
      </trkpt>
      <trkpt lat="48.80343" lon="2.25237">
        <ele>142.3</ele>
        <time>2024-05-26T11:34:59Z</time>
      </trkpt>
      <trkpt lat="48.80343" lon="2.25237">
        <ele>142.3</ele>
        <time>2024-05-26T11:35:00Z</time>
      </trkpt>
      <trkpt lat="48.80344" lon="2.25237">
        <ele>142.2</ele>
        <time>2024-05-26T11:35:01Z</time>
      </trkpt>
      <trkpt lat="48.80345" lon="2.2524">
        <ele>142</ele>
        <time>2024-05-26T11:35:02Z</time>
      </trkpt>
      <trkpt lat="48.80344" lon="2.25241">
        <ele>141.9</ele>
        <time>2024-05-26T11:35:03Z</time>
      </trkpt>
      <trkpt lat="48.80342" lon="2.25242">
        <ele>141.7</ele>
        <time>2024-05-26T11:35:04Z</time>
      </trkpt>
      <trkpt lat="48.80342" lon="2.25245">
        <ele>141.4</ele>
        <time>2024-05-26T11:35:05Z</time>
      </trkpt>
      <trkpt lat="48.80342" lon="2.25246">
        <ele>141.3</ele>
        <time>2024-05-26T11:35:06Z</time>
      </trkpt>
      <trkpt lat="48.80342" lon="2.25248">
        <ele>141.2</ele>
        <time>2024-05-26T11:35:07Z</time>
      </trkpt>
      <trkpt lat="48.80341" lon="2.25249">
        <ele>141.1</ele>
        <time>2024-05-26T11:35:08Z</time>
      </trkpt>
      <trkpt lat="48.80341" lon="2.25251">
        <ele>141</ele>
        <time>2024-05-26T11:35:09Z</time>
      </trkpt>
      <trkpt lat="48.80341" lon="2.25251">
        <ele>141</ele>
        <time>2024-05-26T11:35:10Z</time>
      </trkpt>
      <trkpt lat="48.80341" lon="2.25253">
        <ele>140.8</ele>
        <time>2024-05-26T11:35:11Z</time>
      </trkpt>
      <trkpt lat="48.8034" lon="2.25254">
        <ele>140.7</ele>
        <time>2024-05-26T11:35:12Z</time>
      </trkpt>
      <trkpt lat="48.8034" lon="2.25255">
        <ele>140.6</ele>
        <time>2024-05-26T11:35:13Z</time>
      </trkpt>
      <trkpt lat="48.8034" lon="2.25256">
        <ele>140.6</ele>
        <time>2024-05-26T11:35:14Z</time>
      </trkpt>
      <trkpt lat="48.8034" lon="2.25256">
        <ele>140.5</ele>
        <time>2024-05-26T11:35:15Z</time>
      </trkpt>
      <trkpt lat="48.80341" lon="2.25257">
        <ele>140.4</ele>
        <time>2024-05-26T11:35:16Z</time>
      </trkpt>
      <trkpt lat="48.80341" lon="2.25257">
        <ele>140.4</ele>
        <time>2024-05-26T11:35:17Z</time>
      </trkpt>
      <trkpt lat="48.80341" lon="2.25258">
        <ele>140.3</ele>
        <time>2024-05-26T11:35:18Z</time>
      </trkpt>
      <trkpt lat="48.80342" lon="2.25259">
        <ele>140.2</ele>
        <time>2024-05-26T11:35:19Z</time>
      </trkpt>
      <trkpt lat="48.80341" lon="2.2526">
        <ele>140.1</ele>
        <time>2024-05-26T11:35:20Z</time>
      </trkpt>
      <trkpt lat="48.80341" lon="2.2526">
        <ele>140.1</ele>
        <time>2024-05-26T11:35:21Z</time>
      </trkpt>
      <trkpt lat="48.80341" lon="2.2526">
        <ele>140</ele>
        <time>2024-05-26T11:35:22Z</time>
      </trkpt>
      <trkpt lat="48.80341" lon="2.2526">
        <ele>140</ele>
        <time>2024-05-26T11:35:23Z</time>
      </trkpt>
      <trkpt lat="48.80341" lon="2.25261">
        <ele>140</ele>
        <time>2024-05-26T11:35:24Z</time>
      </trkpt>
      <trkpt lat="48.80341" lon="2.25261">
        <ele>139.9</ele>
        <time>2024-05-26T11:35:25Z</time>
      </trkpt>
      <trkpt lat="48.80339" lon="2.25262">
        <ele>139.8</ele>
        <time>2024-05-26T11:35:26Z</time>
      </trkpt>
      <trkpt lat="48.80339" lon="2.25263">
        <ele>139.7</ele>
        <time>2024-05-26T11:35:27Z</time>
      </trkpt>
      <trkpt lat="48.80339" lon="2.25263">
        <ele>139.7</ele>
        <time>2024-05-26T11:35:28Z</time>
      </trkpt>
      <trkpt lat="48.80339" lon="2.25265">
        <ele>139.6</ele>
        <time>2024-05-26T11:35:29Z</time>
      </trkpt>
      <trkpt lat="48.80338" lon="2.25264">
        <ele>139.5</ele>
        <time>2024-05-26T11:35:30Z</time>
      </trkpt>
      <trkpt lat="48.80338" lon="2.25265">
        <ele>139.5</ele>
        <time>2024-05-26T11:35:31Z</time>
      </trkpt>
      <trkpt lat="48.80338" lon="2.25266">
        <ele>139.4</ele>
        <time>2024-05-26T11:35:32Z</time>
      </trkpt>
      <trkpt lat="48.80338" lon="2.25267">
        <ele>139.3</ele>
        <time>2024-05-26T11:35:33Z</time>
      </trkpt>
      <trkpt lat="48.80339" lon="2.2527">
        <ele>139.1</ele>
        <time>2024-05-26T11:35:34Z</time>
      </trkpt>
      <trkpt lat="48.80338" lon="2.25272">
        <ele>139</ele>
        <time>2024-05-26T11:35:35Z</time>
      </trkpt>
      <trkpt lat="48.80338" lon="2.25273">
        <ele>138.9</ele>
        <time>2024-05-26T11:35:36Z</time>
      </trkpt>
      <trkpt lat="48.80338" lon="2.25274">
        <ele>138.8</ele>
        <time>2024-05-26T11:35:37Z</time>
      </trkpt>
      <trkpt lat="48.80338" lon="2.25275">
        <ele>138.7</ele>
        <time>2024-05-26T11:35:38Z</time>
      </trkpt>
      <trkpt lat="48.80339" lon="2.25279">
        <ele>138.5</ele>
        <time>2024-05-26T11:35:39Z</time>
      </trkpt>
      <trkpt lat="48.80339" lon="2.25281">
        <ele>138.3</ele>
        <time>2024-05-26T11:35:40Z</time>
      </trkpt>
      <trkpt lat="48.8034" lon="2.25283">
        <ele>138.2</ele>
        <time>2024-05-26T11:35:41Z</time>
      </trkpt>
      <trkpt lat="48.80338" lon="2.25285">
        <ele>138</ele>
        <time>2024-05-26T11:35:42Z</time>
      </trkpt>
      <trkpt lat="48.80338" lon="2.25286">
        <ele>137.9</ele>
        <time>2024-05-26T11:35:43Z</time>
      </trkpt>
      <trkpt lat="48.80338" lon="2.25287">
        <ele>137.8</ele>
        <time>2024-05-26T11:35:44Z</time>
      </trkpt>
      <trkpt lat="48.80338" lon="2.25288">
        <ele>137.7</ele>
        <time>2024-05-26T11:35:45Z</time>
      </trkpt>
      <trkpt lat="48.80338" lon="2.25289">
        <ele>137.7</ele>
        <time>2024-05-26T11:35:46Z</time>
      </trkpt>
      <trkpt lat="48.80338" lon="2.25291">
        <ele>137.6</ele>
        <time>2024-05-26T11:35:47Z</time>
      </trkpt>
      <trkpt lat="48.80338" lon="2.25293">
        <ele>137.4</ele>
        <time>2024-05-26T11:35:48Z</time>
      </trkpt>
      <trkpt lat="48.80338" lon="2.25294">
        <ele>137.4</ele>
        <time>2024-05-26T11:35:49Z</time>
      </trkpt>
      <trkpt lat="48.80338" lon="2.25295">
        <ele>137.3</ele>
        <time>2024-05-26T11:35:50Z</time>
      </trkpt>
      <trkpt lat="48.80337" lon="2.25296">
        <ele>137.3</ele>
        <time>2024-05-26T11:35:51Z</time>
      </trkpt>
      <trkpt lat="48.80337" lon="2.25299">
        <ele>137.1</ele>
        <time>2024-05-26T11:35:52Z</time>
      </trkpt>
      <trkpt lat="48.80338" lon="2.25301">
        <ele>137</ele>
        <time>2024-05-26T11:35:53Z</time>
      </trkpt>
      <trkpt lat="48.80338" lon="2.25302">
        <ele>136.9</ele>
        <time>2024-05-26T11:35:54Z</time>
      </trkpt>
      <trkpt lat="48.80338" lon="2.25304">
        <ele>136.8</ele>
        <time>2024-05-26T11:35:55Z</time>
      </trkpt>
      <trkpt lat="48.80337" lon="2.25305">
        <ele>136.8</ele>
        <time>2024-05-26T11:35:56Z</time>
      </trkpt>
      <trkpt lat="48.80337" lon="2.25307">
        <ele>136.6</ele>
        <time>2024-05-26T11:35:57Z</time>
      </trkpt>
      <trkpt lat="48.80338" lon="2.25309">
        <ele>136.5</ele>
        <time>2024-05-26T11:35:58Z</time>
      </trkpt>
      <trkpt lat="48.80338" lon="2.2531">
        <ele>136.5</ele>
        <time>2024-05-26T11:35:59Z</time>
      </trkpt>
      <trkpt lat="48.80339" lon="2.25311">
        <ele>136.4</ele>
        <time>2024-05-26T11:36:00Z</time>
      </trkpt>
      <trkpt lat="48.80339" lon="2.25312">
        <ele>136.4</ele>
        <time>2024-05-26T11:36:01Z</time>
      </trkpt>
      <trkpt lat="48.80339" lon="2.25314">
        <ele>136.2</ele>
        <time>2024-05-26T11:36:02Z</time>
      </trkpt>
      <trkpt lat="48.80339" lon="2.25317">
        <ele>136.1</ele>
        <time>2024-05-26T11:36:03Z</time>
      </trkpt>
      <trkpt lat="48.80338" lon="2.25318">
        <ele>136</ele>
        <time>2024-05-26T11:36:04Z</time>
      </trkpt>
      <trkpt lat="48.80337" lon="2.25319">
        <ele>136</ele>
        <time>2024-05-26T11:36:05Z</time>
      </trkpt>
      <trkpt lat="48.80337" lon="2.2532">
        <ele>135.9</ele>
        <time>2024-05-26T11:36:06Z</time>
      </trkpt>
      <trkpt lat="48.80337" lon="2.25322">
        <ele>135.8</ele>
        <time>2024-05-26T11:36:07Z</time>
      </trkpt>
      <trkpt lat="48.80336" lon="2.25325">
        <ele>135.7</ele>
        <time>2024-05-26T11:36:08Z</time>
      </trkpt>
      <trkpt lat="48.80336" lon="2.25329">
        <ele>135.5</ele>
        <time>2024-05-26T11:36:09Z</time>
      </trkpt>
      <trkpt lat="48.80336" lon="2.2533">
        <ele>135.5</ele>
        <time>2024-05-26T11:36:10Z</time>
      </trkpt>
      <trkpt lat="48.80335" lon="2.25332">
        <ele>135.4</ele>
        <time>2024-05-26T11:36:11Z</time>
      </trkpt>
      <trkpt lat="48.80334" lon="2.25334">
        <ele>135.3</ele>
        <time>2024-05-26T11:36:12Z</time>
      </trkpt>
      <trkpt lat="48.80333" lon="2.25335">
        <ele>135.2</ele>
        <time>2024-05-26T11:36:13Z</time>
      </trkpt>
      <trkpt lat="48.80332" lon="2.25337">
        <ele>135.1</ele>
        <time>2024-05-26T11:36:14Z</time>
      </trkpt>
      <trkpt lat="48.80331" lon="2.25339">
        <ele>135</ele>
        <time>2024-05-26T11:36:15Z</time>
      </trkpt>
      <trkpt lat="48.8033" lon="2.25341">
        <ele>134.9</ele>
        <time>2024-05-26T11:36:16Z</time>
      </trkpt>
      <trkpt lat="48.8033" lon="2.25343">
        <ele>134.8</ele>
        <time>2024-05-26T11:36:17Z</time>
      </trkpt>
      <trkpt lat="48.80329" lon="2.25345">
        <ele>134.8</ele>
        <time>2024-05-26T11:36:18Z</time>
      </trkpt>
      <trkpt lat="48.80329" lon="2.25347">
        <ele>134.7</ele>
        <time>2024-05-26T11:36:19Z</time>
      </trkpt>
      <trkpt lat="48.80328" lon="2.25349">
        <ele>134.6</ele>
        <time>2024-05-26T11:36:20Z</time>
      </trkpt>
      <trkpt lat="48.80327" lon="2.25351">
        <ele>134.5</ele>
        <time>2024-05-26T11:36:21Z</time>
      </trkpt>
      <trkpt lat="48.80327" lon="2.25353">
        <ele>134.4</ele>
        <time>2024-05-26T11:36:22Z</time>
      </trkpt>
      <trkpt lat="48.80327" lon="2.25355">
        <ele>134.3</ele>
        <time>2024-05-26T11:36:23Z</time>
      </trkpt>
      <trkpt lat="48.80327" lon="2.25357">
        <ele>134.2</ele>
        <time>2024-05-26T11:36:24Z</time>
      </trkpt>
      <trkpt lat="48.80327" lon="2.25361">
        <ele>134.1</ele>
        <time>2024-05-26T11:36:25Z</time>
      </trkpt>
      <trkpt lat="48.80328" lon="2.25362">
        <ele>134.1</ele>
        <time>2024-05-26T11:36:26Z</time>
      </trkpt>
      <trkpt lat="48.80328" lon="2.25363">
        <ele>134</ele>
        <time>2024-05-26T11:36:27Z</time>
      </trkpt>
      <trkpt lat="48.80328" lon="2.25367">
        <ele>133.9</ele>
        <time>2024-05-26T11:36:28Z</time>
      </trkpt>
      <trkpt lat="48.80327" lon="2.25368">
        <ele>133.8</ele>
        <time>2024-05-26T11:36:29Z</time>
      </trkpt>
      <trkpt lat="48.80327" lon="2.25369">
        <ele>133.8</ele>
        <time>2024-05-26T11:36:30Z</time>
      </trkpt>
      <trkpt lat="48.80326" lon="2.25371">
        <ele>133.7</ele>
        <time>2024-05-26T11:36:31Z</time>
      </trkpt>
      <trkpt lat="48.80325" lon="2.25372">
        <ele>133.7</ele>
        <time>2024-05-26T11:36:32Z</time>
      </trkpt>
      <trkpt lat="48.80324" lon="2.25375">
        <ele>133.6</ele>
        <time>2024-05-26T11:36:33Z</time>
      </trkpt>
      <trkpt lat="48.80324" lon="2.25376">
        <ele>133.6</ele>
        <time>2024-05-26T11:36:34Z</time>
      </trkpt>
      <trkpt lat="48.80324" lon="2.25378">
        <ele>133.5</ele>
        <time>2024-05-26T11:36:35Z</time>
      </trkpt>
      <trkpt lat="48.80323" lon="2.2538">
        <ele>133.4</ele>
        <time>2024-05-26T11:36:36Z</time>
      </trkpt>
      <trkpt lat="48.80323" lon="2.25382">
        <ele>133.4</ele>
        <time>2024-05-26T11:36:37Z</time>
      </trkpt>
      <trkpt lat="48.80322" lon="2.25384">
        <ele>133.3</ele>
        <time>2024-05-26T11:36:38Z</time>
      </trkpt>
      <trkpt lat="48.80322" lon="2.25386">
        <ele>133.3</ele>
        <time>2024-05-26T11:36:39Z</time>
      </trkpt>
      <trkpt lat="48.80322" lon="2.25388">
        <ele>133.2</ele>
        <time>2024-05-26T11:36:40Z</time>
      </trkpt>
      <trkpt lat="48.80323" lon="2.25391">
        <ele>133.2</ele>
        <time>2024-05-26T11:36:41Z</time>
      </trkpt>
      <trkpt lat="48.80321" lon="2.25392">
        <ele>133.1</ele>
        <time>2024-05-26T11:36:42Z</time>
      </trkpt>
      <trkpt lat="48.80321" lon="2.25393">
        <ele>133.1</ele>
        <time>2024-05-26T11:36:43Z</time>
      </trkpt>
      <trkpt lat="48.80322" lon="2.25393">
        <ele>133.1</ele>
        <time>2024-05-26T11:36:44Z</time>
      </trkpt>
      <trkpt lat="48.80323" lon="2.25393">
        <ele>133</ele>
        <time>2024-05-26T11:36:45Z</time>
      </trkpt>
      <trkpt lat="48.80323" lon="2.25394">
        <ele>133</ele>
        <time>2024-05-26T11:36:46Z</time>
      </trkpt>
      <trkpt lat="48.80324" lon="2.25395">
        <ele>133</ele>
        <time>2024-05-26T11:36:47Z</time>
      </trkpt>
      <trkpt lat="48.80324" lon="2.25395">
        <ele>133</ele>
        <time>2024-05-26T11:36:48Z</time>
      </trkpt>
      <trkpt lat="48.80325" lon="2.25396">
        <ele>132.9</ele>
        <time>2024-05-26T11:36:49Z</time>
      </trkpt>
      <trkpt lat="48.80325" lon="2.25398">
        <ele>132.9</ele>
        <time>2024-05-26T11:36:50Z</time>
      </trkpt>
      <trkpt lat="48.80325" lon="2.25399">
        <ele>132.9</ele>
        <time>2024-05-26T11:36:51Z</time>
      </trkpt>
      <trkpt lat="48.80325" lon="2.25402">
        <ele>132.8</ele>
        <time>2024-05-26T11:36:52Z</time>
      </trkpt>
      <trkpt lat="48.80326" lon="2.25403">
        <ele>132.8</ele>
        <time>2024-05-26T11:36:53Z</time>
      </trkpt>
      <trkpt lat="48.80326" lon="2.25404">
        <ele>132.8</ele>
        <time>2024-05-26T11:36:54Z</time>
      </trkpt>
      <trkpt lat="48.80326" lon="2.25404">
        <ele>132.8</ele>
        <time>2024-05-26T11:36:55Z</time>
      </trkpt>
      <trkpt lat="48.80326" lon="2.25405">
        <ele>132.8</ele>
        <time>2024-05-26T11:36:56Z</time>
      </trkpt>
      <trkpt lat="48.80326" lon="2.25406">
        <ele>132.7</ele>
        <time>2024-05-26T11:36:57Z</time>
      </trkpt>
      <trkpt lat="48.80326" lon="2.25408">
        <ele>132.7</ele>
        <time>2024-05-26T11:36:58Z</time>
      </trkpt>
      <trkpt lat="48.80326" lon="2.25411">
        <ele>132.7</ele>
        <time>2024-05-26T11:36:59Z</time>
      </trkpt>
      <trkpt lat="48.80326" lon="2.25412">
        <ele>132.6</ele>
        <time>2024-05-26T11:37:01Z</time>
      </trkpt>
      <trkpt lat="48.80326" lon="2.25413">
        <ele>132.6</ele>
        <time>2024-05-26T11:37:02Z</time>
      </trkpt>
      <trkpt lat="48.80326" lon="2.25414">
        <ele>132.6</ele>
        <time>2024-05-26T11:37:03Z</time>
      </trkpt>
      <trkpt lat="48.80326" lon="2.25418">
        <ele>132.6</ele>
        <time>2024-05-26T11:37:04Z</time>
      </trkpt>
      <trkpt lat="48.80326" lon="2.25419">
        <ele>132.6</ele>
        <time>2024-05-26T11:37:05Z</time>
      </trkpt>
      <trkpt lat="48.80326" lon="2.25421">
        <ele>132.6</ele>
        <time>2024-05-26T11:37:06Z</time>
      </trkpt>
      <trkpt lat="48.80325" lon="2.25421">
        <ele>132.6</ele>
        <time>2024-05-26T11:37:07Z</time>
      </trkpt>
      <trkpt lat="48.80325" lon="2.25423">
        <ele>132.6</ele>
        <time>2024-05-26T11:37:08Z</time>
      </trkpt>
      <trkpt lat="48.80325" lon="2.25427">
        <ele>132.6</ele>
        <time>2024-05-26T11:37:09Z</time>
      </trkpt>
      <trkpt lat="48.80324" lon="2.25428">
        <ele>132.6</ele>
        <time>2024-05-26T11:37:10Z</time>
      </trkpt>
      <trkpt lat="48.80324" lon="2.25428">
        <ele>132.6</ele>
        <time>2024-05-26T11:37:11Z</time>
      </trkpt>
      <trkpt lat="48.80323" lon="2.2543">
        <ele>132.6</ele>
        <time>2024-05-26T11:37:12Z</time>
      </trkpt>
      <trkpt lat="48.80325" lon="2.25433">
        <ele>132.5</ele>
        <time>2024-05-26T11:37:13Z</time>
      </trkpt>
      <trkpt lat="48.80325" lon="2.25433">
        <ele>132.5</ele>
        <time>2024-05-26T11:37:14Z</time>
      </trkpt>
      <trkpt lat="48.80324" lon="2.25435">
        <ele>132.5</ele>
        <time>2024-05-26T11:37:15Z</time>
      </trkpt>
      <trkpt lat="48.80324" lon="2.25436">
        <ele>132.5</ele>
        <time>2024-05-26T11:37:16Z</time>
      </trkpt>
      <trkpt lat="48.80323" lon="2.25438">
        <ele>132.5</ele>
        <time>2024-05-26T11:37:17Z</time>
      </trkpt>
      <trkpt lat="48.80323" lon="2.2544">
        <ele>132.5</ele>
        <time>2024-05-26T11:37:18Z</time>
      </trkpt>
      <trkpt lat="48.80323" lon="2.25443">
        <ele>132.6</ele>
        <time>2024-05-26T11:37:19Z</time>
      </trkpt>
      <trkpt lat="48.80323" lon="2.25446">
        <ele>132.6</ele>
        <time>2024-05-26T11:37:20Z</time>
      </trkpt>
      <trkpt lat="48.80322" lon="2.25447">
        <ele>132.6</ele>
        <time>2024-05-26T11:37:21Z</time>
      </trkpt>
      <trkpt lat="48.8032" lon="2.25449">
        <ele>132.6</ele>
        <time>2024-05-26T11:37:22Z</time>
      </trkpt>
      <trkpt lat="48.80319" lon="2.25453">
        <ele>132.6</ele>
        <time>2024-05-26T11:37:23Z</time>
      </trkpt>
      <trkpt lat="48.8032" lon="2.25455">
        <ele>132.6</ele>
        <time>2024-05-26T11:37:24Z</time>
      </trkpt>
      <trkpt lat="48.8032" lon="2.25458">
        <ele>132.6</ele>
        <time>2024-05-26T11:37:25Z</time>
      </trkpt>
      <trkpt lat="48.80321" lon="2.2546">
        <ele>132.6</ele>
        <time>2024-05-26T11:37:26Z</time>
      </trkpt>
      <trkpt lat="48.80321" lon="2.25463">
        <ele>132.6</ele>
        <time>2024-05-26T11:37:27Z</time>
      </trkpt>
      <trkpt lat="48.8032" lon="2.25464">
        <ele>132.6</ele>
        <time>2024-05-26T11:37:28Z</time>
      </trkpt>
      <trkpt lat="48.8032" lon="2.25466">
        <ele>132.7</ele>
        <time>2024-05-26T11:37:29Z</time>
      </trkpt>
      <trkpt lat="48.8032" lon="2.25468">
        <ele>132.7</ele>
        <time>2024-05-26T11:37:30Z</time>
      </trkpt>
      <trkpt lat="48.80319" lon="2.2547">
        <ele>132.7</ele>
        <time>2024-05-26T11:37:31Z</time>
      </trkpt>
      <trkpt lat="48.80319" lon="2.25473">
        <ele>132.6</ele>
        <time>2024-05-26T11:37:32Z</time>
      </trkpt>
      <trkpt lat="48.80319" lon="2.25475">
        <ele>132.6</ele>
        <time>2024-05-26T11:37:33Z</time>
      </trkpt>
      <trkpt lat="48.80319" lon="2.25476">
        <ele>132.5</ele>
        <time>2024-05-26T11:37:34Z</time>
      </trkpt>
      <trkpt lat="48.80318" lon="2.25478">
        <ele>132.5</ele>
        <time>2024-05-26T11:37:35Z</time>
      </trkpt>
      <trkpt lat="48.80319" lon="2.2548">
        <ele>132.4</ele>
        <time>2024-05-26T11:37:36Z</time>
      </trkpt>
      <trkpt lat="48.80319" lon="2.25482">
        <ele>132.4</ele>
        <time>2024-05-26T11:37:37Z</time>
      </trkpt>
      <trkpt lat="48.80319" lon="2.25483">
        <ele>132.4</ele>
        <time>2024-05-26T11:37:38Z</time>
      </trkpt>
      <trkpt lat="48.80319" lon="2.25484">
        <ele>132.3</ele>
        <time>2024-05-26T11:37:39Z</time>
      </trkpt>
      <trkpt lat="48.80321" lon="2.25488">
        <ele>132.2</ele>
        <time>2024-05-26T11:37:40Z</time>
      </trkpt>
      <trkpt lat="48.80321" lon="2.25488">
        <ele>132.2</ele>
        <time>2024-05-26T11:37:41Z</time>
      </trkpt>
      <trkpt lat="48.8032" lon="2.25488">
        <ele>132.1</ele>
        <time>2024-05-26T11:37:42Z</time>
      </trkpt>
      <trkpt lat="48.80319" lon="2.2549">
        <ele>132.6</ele>
        <time>2024-05-26T11:37:43Z</time>
      </trkpt>
      <trkpt lat="48.80318" lon="2.25492">
        <ele>132.6</ele>
        <time>2024-05-26T11:37:44Z</time>
      </trkpt>
      <trkpt lat="48.80318" lon="2.25492">
        <ele>132.6</ele>
        <time>2024-05-26T11:37:45Z</time>
      </trkpt>
      <trkpt lat="48.80317" lon="2.25492">
        <ele>132.5</ele>
        <time>2024-05-26T11:37:46Z</time>
      </trkpt>
      <trkpt lat="48.80316" lon="2.25493">
        <ele>132.5</ele>
        <time>2024-05-26T11:37:47Z</time>
      </trkpt>
      <trkpt lat="48.80315" lon="2.25493">
        <ele>133</ele>
        <time>2024-05-26T11:37:48Z</time>
      </trkpt>
      <trkpt lat="48.80314" lon="2.25494">
        <ele>132.9</ele>
        <time>2024-05-26T11:37:49Z</time>
      </trkpt>
      <trkpt lat="48.80314" lon="2.25495">
        <ele>132.9</ele>
        <time>2024-05-26T11:37:50Z</time>
      </trkpt>
      <trkpt lat="48.80314" lon="2.25497">
        <ele>132.9</ele>
        <time>2024-05-26T11:37:51Z</time>
      </trkpt>
      <trkpt lat="48.80313" lon="2.25498">
        <ele>133.4</ele>
        <time>2024-05-26T11:37:52Z</time>
      </trkpt>
      <trkpt lat="48.80312" lon="2.255">
        <ele>133.4</ele>
        <time>2024-05-26T11:37:53Z</time>
      </trkpt>
      <trkpt lat="48.80312" lon="2.25501">
        <ele>133.4</ele>
        <time>2024-05-26T11:37:54Z</time>
      </trkpt>
      <trkpt lat="48.80311" lon="2.25502">
        <ele>133.3</ele>
        <time>2024-05-26T11:37:55Z</time>
      </trkpt>
      <trkpt lat="48.80311" lon="2.25503">
        <ele>133.3</ele>
        <time>2024-05-26T11:37:56Z</time>
      </trkpt>
      <trkpt lat="48.8031" lon="2.25504">
        <ele>133.9</ele>
        <time>2024-05-26T11:37:57Z</time>
      </trkpt>
      <trkpt lat="48.80309" lon="2.25505">
        <ele>133.8</ele>
        <time>2024-05-26T11:37:58Z</time>
      </trkpt>
      <trkpt lat="48.80308" lon="2.25507">
        <ele>133.8</ele>
        <time>2024-05-26T11:37:59Z</time>
      </trkpt>
      <trkpt lat="48.80309" lon="2.25508">
        <ele>133.8</ele>
        <time>2024-05-26T11:38:00Z</time>
      </trkpt>
      <trkpt lat="48.80308" lon="2.2551">
        <ele>133.7</ele>
        <time>2024-05-26T11:38:01Z</time>
      </trkpt>
      <trkpt lat="48.80308" lon="2.25511">
        <ele>133.7</ele>
        <time>2024-05-26T11:38:02Z</time>
      </trkpt>
      <trkpt lat="48.80307" lon="2.25513">
        <ele>134.3</ele>
        <time>2024-05-26T11:38:03Z</time>
      </trkpt>
      <trkpt lat="48.80307" lon="2.25518">
        <ele>134.3</ele>
        <time>2024-05-26T11:38:04Z</time>
      </trkpt>
      <trkpt lat="48.80307" lon="2.25519">
        <ele>134.2</ele>
        <time>2024-05-26T11:38:05Z</time>
      </trkpt>
      <trkpt lat="48.80306" lon="2.25522">
        <ele>134.2</ele>
        <time>2024-05-26T11:38:06Z</time>
      </trkpt>
      <trkpt lat="48.80306" lon="2.25523">
        <ele>134.1</ele>
        <time>2024-05-26T11:38:07Z</time>
      </trkpt>
      <trkpt lat="48.80306" lon="2.25524">
        <ele>134.1</ele>
        <time>2024-05-26T11:38:08Z</time>
      </trkpt>
      <trkpt lat="48.80306" lon="2.25527">
        <ele>134</ele>
        <time>2024-05-26T11:38:09Z</time>
      </trkpt>
      <trkpt lat="48.80307" lon="2.25528">
        <ele>134</ele>
        <time>2024-05-26T11:38:10Z</time>
      </trkpt>
      <trkpt lat="48.80308" lon="2.25529">
        <ele>133.9</ele>
        <time>2024-05-26T11:38:11Z</time>
      </trkpt>
      <trkpt lat="48.80308" lon="2.25532">
        <ele>133.7</ele>
        <time>2024-05-26T11:38:12Z</time>
      </trkpt>
      <trkpt lat="48.80308" lon="2.25533">
        <ele>133.7</ele>
        <time>2024-05-26T11:38:13Z</time>
      </trkpt>
      <trkpt lat="48.80309" lon="2.25534">
        <ele>133.6</ele>
        <time>2024-05-26T11:38:14Z</time>
      </trkpt>
      <trkpt lat="48.80309" lon="2.25536">
        <ele>133.6</ele>
        <time>2024-05-26T11:38:15Z</time>
      </trkpt>
      <trkpt lat="48.80309" lon="2.25538">
        <ele>133.5</ele>
        <time>2024-05-26T11:38:16Z</time>
      </trkpt>
      <trkpt lat="48.80309" lon="2.25539">
        <ele>133.4</ele>
        <time>2024-05-26T11:38:17Z</time>
      </trkpt>
      <trkpt lat="48.8031" lon="2.25541">
        <ele>133.3</ele>
        <time>2024-05-26T11:38:18Z</time>
      </trkpt>
      <trkpt lat="48.8031" lon="2.25543">
        <ele>133.2</ele>
        <time>2024-05-26T11:38:19Z</time>
      </trkpt>
      <trkpt lat="48.80311" lon="2.25546">
        <ele>133.1</ele>
        <time>2024-05-26T11:38:20Z</time>
      </trkpt>
      <trkpt lat="48.80311" lon="2.25547">
        <ele>133</ele>
        <time>2024-05-26T11:38:21Z</time>
      </trkpt>
      <trkpt lat="48.80311" lon="2.25548">
        <ele>133</ele>
        <time>2024-05-26T11:38:22Z</time>
      </trkpt>
      <trkpt lat="48.80312" lon="2.25549">
        <ele>132.9</ele>
        <time>2024-05-26T11:38:23Z</time>
      </trkpt>
      <trkpt lat="48.80312" lon="2.2555">
        <ele>132.9</ele>
        <time>2024-05-26T11:38:24Z</time>
      </trkpt>
      <trkpt lat="48.80313" lon="2.2555">
        <ele>132.8</ele>
        <time>2024-05-26T11:38:25Z</time>
      </trkpt>
      <trkpt lat="48.80314" lon="2.25551">
        <ele>132.7</ele>
        <time>2024-05-26T11:38:26Z</time>
      </trkpt>
      <trkpt lat="48.80315" lon="2.25552">
        <ele>132.6</ele>
        <time>2024-05-26T11:38:27Z</time>
      </trkpt>
      <trkpt lat="48.80316" lon="2.25553">
        <ele>132.6</ele>
        <time>2024-05-26T11:38:28Z</time>
      </trkpt>
      <trkpt lat="48.80317" lon="2.25553">
        <ele>132.5</ele>
        <time>2024-05-26T11:38:29Z</time>
      </trkpt>
      <trkpt lat="48.80318" lon="2.25554">
        <ele>132.4</ele>
        <time>2024-05-26T11:38:30Z</time>
      </trkpt>
      <trkpt lat="48.80319" lon="2.25554">
        <ele>132.3</ele>
        <time>2024-05-26T11:38:31Z</time>
      </trkpt>
      <trkpt lat="48.8032" lon="2.25555">
        <ele>132.3</ele>
        <time>2024-05-26T11:38:32Z</time>
      </trkpt>
      <trkpt lat="48.80322" lon="2.25556">
        <ele>132.2</ele>
        <time>2024-05-26T11:38:33Z</time>
      </trkpt>
      <trkpt lat="48.80323" lon="2.25557">
        <ele>132.1</ele>
        <time>2024-05-26T11:38:34Z</time>
      </trkpt>
      <trkpt lat="48.80323" lon="2.25557">
        <ele>132.1</ele>
        <time>2024-05-26T11:38:35Z</time>
      </trkpt>
      <trkpt lat="48.80324" lon="2.25558">
        <ele>132.1</ele>
        <time>2024-05-26T11:38:36Z</time>
      </trkpt>
      <trkpt lat="48.80325" lon="2.25559">
        <ele>132.1</ele>
        <time>2024-05-26T11:38:37Z</time>
      </trkpt>
      <trkpt lat="48.80326" lon="2.2556">
        <ele>132</ele>
        <time>2024-05-26T11:38:38Z</time>
      </trkpt>
      <trkpt lat="48.80328" lon="2.25562">
        <ele>132</ele>
        <time>2024-05-26T11:38:39Z</time>
      </trkpt>
      <trkpt lat="48.80329" lon="2.25563">
        <ele>132</ele>
        <time>2024-05-26T11:38:40Z</time>
      </trkpt>
      <trkpt lat="48.8033" lon="2.25564">
        <ele>132</ele>
        <time>2024-05-26T11:38:41Z</time>
      </trkpt>
      <trkpt lat="48.80331" lon="2.25566">
        <ele>131.9</ele>
        <time>2024-05-26T11:38:42Z</time>
      </trkpt>
      <trkpt lat="48.80332" lon="2.25567">
        <ele>131.9</ele>
        <time>2024-05-26T11:38:43Z</time>
      </trkpt>
      <trkpt lat="48.80333" lon="2.25569">
        <ele>131.9</ele>
        <time>2024-05-26T11:38:44Z</time>
      </trkpt>
      <trkpt lat="48.80334" lon="2.2557">
        <ele>131.9</ele>
        <time>2024-05-26T11:38:45Z</time>
      </trkpt>
      <trkpt lat="48.80334" lon="2.25572">
        <ele>131.9</ele>
        <time>2024-05-26T11:38:46Z</time>
      </trkpt>
      <trkpt lat="48.80335" lon="2.25574">
        <ele>131.8</ele>
        <time>2024-05-26T11:38:47Z</time>
      </trkpt>
      <trkpt lat="48.80335" lon="2.25576">
        <ele>131.8</ele>
        <time>2024-05-26T11:38:48Z</time>
      </trkpt>
      <trkpt lat="48.80336" lon="2.25578">
        <ele>131.8</ele>
        <time>2024-05-26T11:38:49Z</time>
      </trkpt>
      <trkpt lat="48.80337" lon="2.25581">
        <ele>131.8</ele>
        <time>2024-05-26T11:38:50Z</time>
      </trkpt>
      <trkpt lat="48.80337" lon="2.25582">
        <ele>131.7</ele>
        <time>2024-05-26T11:38:51Z</time>
      </trkpt>
      <trkpt lat="48.80338" lon="2.25583">
        <ele>131.7</ele>
        <time>2024-05-26T11:38:52Z</time>
      </trkpt>
      <trkpt lat="48.80339" lon="2.25585">
        <ele>131.6</ele>
        <time>2024-05-26T11:38:53Z</time>
      </trkpt>
      <trkpt lat="48.8034" lon="2.25586">
        <ele>131.6</ele>
        <time>2024-05-26T11:38:54Z</time>
      </trkpt>
      <trkpt lat="48.80341" lon="2.25589">
        <ele>131.5</ele>
        <time>2024-05-26T11:38:55Z</time>
      </trkpt>
      <trkpt lat="48.80342" lon="2.25589">
        <ele>131.5</ele>
        <time>2024-05-26T11:38:56Z</time>
      </trkpt>
      <trkpt lat="48.80343" lon="2.2559">
        <ele>131.5</ele>
        <time>2024-05-26T11:38:57Z</time>
      </trkpt>
      <trkpt lat="48.80344" lon="2.25591">
        <ele>131.5</ele>
        <time>2024-05-26T11:38:58Z</time>
      </trkpt>
      <trkpt lat="48.80345" lon="2.25592">
        <ele>131.5</ele>
        <time>2024-05-26T11:38:59Z</time>
      </trkpt>
      <trkpt lat="48.80344" lon="2.25592">
        <ele>131.5</ele>
        <time>2024-05-26T11:39:00Z</time>
      </trkpt>
      <trkpt lat="48.80343" lon="2.25591">
        <ele>131.5</ele>
        <time>2024-05-26T11:39:01Z</time>
      </trkpt>
      <trkpt lat="48.80343" lon="2.25591">
        <ele>131.5</ele>
        <time>2024-05-26T11:39:02Z</time>
      </trkpt>
      <trkpt lat="48.80344" lon="2.25592">
        <ele>131.5</ele>
        <time>2024-05-26T11:39:03Z</time>
      </trkpt>
      <trkpt lat="48.80343" lon="2.25592">
        <ele>131.5</ele>
        <time>2024-05-26T11:39:04Z</time>
      </trkpt>
    </trkseg>
  </trk>
</gpx>